<?xml version='1.0' encoding='UTF-8'?><gpx version="1.1" creator="JPX - https://github.com/jenetics/jpx" xmlns="http://www.topografix.com/GPX/1/1"><trk><trkseg><trkpt lat="45.5076852" lon="10.4635786"><ele>182.0</ele><time>2026-03-28T08:12:47.764Z</time></trkpt><trkpt lat="45.5077507" lon="10.4635689"><ele>182.0</ele><time>2026-03-28T08:13:48.763Z</time></trkpt><trkpt lat="45.5078225" lon="10.4635552"><ele>182.0</ele><time>2026-03-28T08:15:29.764Z</time></trkpt><trkpt lat="45.5078883" lon="10.4635462"><ele>182.0</ele><time>2026-03-28T08:17:04.763Z</time></trkpt><trkpt lat="45.5079526" lon="10.4635479"><ele>182.0</ele><time>2026-03-28T08:19:49.763Z</time></trkpt><trkpt lat="45.508028" lon="10.4635396"><ele>182.0</ele><time>2026-03-28T08:21:33.763Z</time></trkpt><trkpt lat="45.5081" lon="10.463543"><ele>182.0</ele><time>2026-03-28T08:22:27.763Z</time></trkpt><trkpt lat="45.5081845" lon="10.463531"><ele>183.0</ele><time>2026-03-28T08:23:03.762Z</time></trkpt><trkpt lat="45.5082482" lon="10.4635115"><ele>184.0</ele><time>2026-03-28T08:23:05.762Z</time></trkpt><trkpt lat="45.5083143" lon="10.4635279"><ele>185.0</ele><time>2026-03-28T08:23:07.761Z</time></trkpt><trkpt lat="45.5083661" lon="10.4636044"><ele>186.0</ele><time>2026-03-28T08:23:10.763Z</time></trkpt><trkpt lat="45.5082854" lon="10.4636805"><ele>187.0</ele><time>2026-03-28T08:23:12.762Z</time></trkpt><trkpt lat="45.5081944" lon="10.4637086"><ele>188.0</ele><time>2026-03-28T08:23:13.762Z</time></trkpt><trkpt lat="45.5081216" lon="10.4637204"><ele>188.0</ele><time>2026-03-28T08:23:14.761Z</time></trkpt><trkpt lat="45.5080458" lon="10.46374"><ele>188.0</ele><time>2026-03-28T08:23:15.762Z</time></trkpt><trkpt lat="45.5079782" lon="10.463753"><ele>188.0</ele><time>2026-03-28T08:23:16.762Z</time></trkpt><trkpt lat="45.507861" lon="10.4637634"><ele>188.0</ele><time>2026-03-28T08:23:18.761Z</time></trkpt><trkpt lat="45.5077362" lon="10.4637776"><ele>188.0</ele><time>2026-03-28T08:23:20.762Z</time></trkpt><trkpt lat="45.5076622" lon="10.4637851"><ele>187.2</ele><time>2026-03-28T08:23:21.761Z</time></trkpt><trkpt lat="45.5075734" lon="10.4637949"><ele>186.4</ele><time>2026-03-28T08:23:22.761Z</time></trkpt><trkpt lat="45.5074748" lon="10.4638047"><ele>185.6</ele><time>2026-03-28T08:23:23.761Z</time></trkpt><trkpt lat="45.5073685" lon="10.4638129"><ele>184.79999999999998</ele><time>2026-03-28T08:23:24.762Z</time></trkpt><trkpt lat="45.5072699" lon="10.4638219"><ele>184.0</ele><time>2026-03-28T08:23:25.761Z</time></trkpt><trkpt lat="45.5071781" lon="10.4638237"><ele>184.0</ele><time>2026-03-28T08:23:26.761Z</time></trkpt><trkpt lat="45.5070935" lon="10.4638068"><ele>184.0</ele><time>2026-03-28T08:23:27.761Z</time></trkpt><trkpt lat="45.5070236" lon="10.4637775"><ele>184.0</ele><time>2026-03-28T08:23:28.761Z</time></trkpt><trkpt lat="45.5069631" lon="10.4637311"><ele>184.0</ele><time>2026-03-28T08:23:29.762Z</time></trkpt><trkpt lat="45.5068992" lon="10.4636701"><ele>184.0</ele><time>2026-03-28T08:23:30.761Z</time></trkpt><trkpt lat="45.5068233" lon="10.4636353"><ele>184.0</ele><time>2026-03-28T08:23:31.761Z</time></trkpt><trkpt lat="45.5067484" lon="10.4636379"><ele>183.66666666666669</ele><time>2026-03-28T08:23:32.761Z</time></trkpt><trkpt lat="45.506687" lon="10.4636845"><ele>183.33333333333334</ele><time>2026-03-28T08:23:33.761Z</time></trkpt><trkpt lat="45.5066464" lon="10.4637664"><ele>183.0</ele><time>2026-03-28T08:23:34.762Z</time></trkpt><trkpt lat="45.5066372" lon="10.4638625"><ele>182.66666666666666</ele><time>2026-03-28T08:23:35.761Z</time></trkpt><trkpt lat="45.5066578" lon="10.4639688"><ele>182.33333333333331</ele><time>2026-03-28T08:23:36.761Z</time></trkpt><trkpt lat="45.5066995" lon="10.464081"><ele>182.0</ele><time>2026-03-28T08:23:37.761Z</time></trkpt><trkpt lat="45.5067329" lon="10.4642101"><ele>182.0</ele><time>2026-03-28T08:23:38.761Z</time></trkpt><trkpt lat="45.5067416" lon="10.4643643"><ele>182.0</ele><time>2026-03-28T08:23:39.762Z</time></trkpt><trkpt lat="45.5067375" lon="10.4645387"><ele>182.0</ele><time>2026-03-28T08:23:40.761Z</time></trkpt><trkpt lat="45.5067271" lon="10.464725"><ele>182.0</ele><time>2026-03-28T08:23:41.762Z</time></trkpt><trkpt lat="45.5067151" lon="10.4649137"><ele>182.25</ele><time>2026-03-28T08:23:42.761Z</time></trkpt><trkpt lat="45.5067034" lon="10.4650849"><ele>182.5</ele><time>2026-03-28T08:23:43.761Z</time></trkpt><trkpt lat="45.50669" lon="10.465248"><ele>182.75</ele><time>2026-03-28T08:23:44.763Z</time></trkpt><trkpt lat="45.5066761" lon="10.4654066"><ele>183.0</ele><time>2026-03-28T08:23:45.761Z</time></trkpt><trkpt lat="45.506661" lon="10.4655584"><ele>183.0</ele><time>2026-03-28T08:23:46.761Z</time></trkpt><trkpt lat="45.5066484" lon="10.4657153"><ele>183.0</ele><time>2026-03-28T08:23:47.762Z</time></trkpt><trkpt lat="45.5066462" lon="10.4658736"><ele>183.0</ele><time>2026-03-28T08:23:48.761Z</time></trkpt><trkpt lat="45.5066519" lon="10.4660336"><ele>183.0</ele><time>2026-03-28T08:23:49.762Z</time></trkpt><trkpt lat="45.5066683" lon="10.4661939"><ele>183.0</ele><time>2026-03-28T08:23:50.762Z</time></trkpt><trkpt lat="45.5066922" lon="10.4663516"><ele>183.0</ele><time>2026-03-28T08:23:51.762Z</time></trkpt><trkpt lat="45.50672" lon="10.4665141"><ele>183.0</ele><time>2026-03-28T08:23:52.761Z</time></trkpt><trkpt lat="45.5067514" lon="10.4666934"><ele>183.0</ele><time>2026-03-28T08:23:53.761Z</time></trkpt><trkpt lat="45.5067842" lon="10.4668965"><ele>183.0</ele><time>2026-03-28T08:23:54.762Z</time></trkpt><trkpt lat="45.5068159" lon="10.4671114"><ele>183.0</ele><time>2026-03-28T08:23:55.761Z</time></trkpt><trkpt lat="45.5068497" lon="10.4673376"><ele>183.0</ele><time>2026-03-28T08:23:56.761Z</time></trkpt><trkpt lat="45.5068868" lon="10.4675739"><ele>183.0</ele><time>2026-03-28T08:23:57.761Z</time></trkpt><trkpt lat="45.5069256" lon="10.4678181"><ele>184.0</ele><time>2026-03-28T08:23:58.762Z</time></trkpt><trkpt lat="45.5069642" lon="10.4680612"><ele>185.0</ele><time>2026-03-28T08:23:59.762Z</time></trkpt><trkpt lat="45.5069987" lon="10.4683006"><ele>186.0</ele><time>2026-03-28T08:24:00.761Z</time></trkpt><trkpt lat="45.507031" lon="10.4685395"><ele>186.33333333333334</ele><time>2026-03-28T08:24:01.762Z</time></trkpt><trkpt lat="45.507065" lon="10.4687942"><ele>186.66666666666669</ele><time>2026-03-28T08:24:02.761Z</time></trkpt><trkpt lat="45.5070911" lon="10.4690605"><ele>187.0</ele><time>2026-03-28T08:24:03.762Z</time></trkpt><trkpt lat="45.5070957" lon="10.4693477"><ele>187.66666666666669</ele><time>2026-03-28T08:24:04.761Z</time></trkpt><trkpt lat="45.5070749" lon="10.4696325"><ele>188.33333333333334</ele><time>2026-03-28T08:24:05.762Z</time></trkpt><trkpt lat="45.5070395" lon="10.4699239"><ele>189.0</ele><time>2026-03-28T08:24:06.761Z</time></trkpt><trkpt lat="45.5069927" lon="10.4702035"><ele>190.0</ele><time>2026-03-28T08:24:07.762Z</time></trkpt><trkpt lat="45.506942" lon="10.4704662"><ele>191.0</ele><time>2026-03-28T08:24:08.761Z</time></trkpt><trkpt lat="45.5068267" lon="10.4709682"><ele>191.0</ele><time>2026-03-28T08:24:10.761Z</time></trkpt><trkpt lat="45.5067632" lon="10.4712124"><ele>191.0</ele><time>2026-03-28T08:24:11.762Z</time></trkpt><trkpt lat="45.5067006" lon="10.4714549"><ele>191.0</ele><time>2026-03-28T08:24:12.761Z</time></trkpt><trkpt lat="45.50665" lon="10.4717113"><ele>191.66666666666666</ele><time>2026-03-28T08:24:13.762Z</time></trkpt><trkpt lat="45.5066109" lon="10.4719759"><ele>192.33333333333331</ele><time>2026-03-28T08:24:14.761Z</time></trkpt><trkpt lat="45.5065807" lon="10.4722376"><ele>193.0</ele><time>2026-03-28T08:24:15.761Z</time></trkpt><trkpt lat="45.506552" lon="10.4724923"><ele>193.66666666666666</ele><time>2026-03-28T08:24:16.762Z</time></trkpt><trkpt lat="45.5065273" lon="10.4727399"><ele>194.33333333333331</ele><time>2026-03-28T08:24:17.762Z</time></trkpt><trkpt lat="45.5065015" lon="10.4729867"><ele>195.0</ele><time>2026-03-28T08:24:18.761Z</time></trkpt><trkpt lat="45.5064734" lon="10.4732319"><ele>195.0</ele><time>2026-03-28T08:24:19.761Z</time></trkpt><trkpt lat="45.5064512" lon="10.4734542"><ele>195.0</ele><time>2026-03-28T08:24:20.761Z</time></trkpt><trkpt lat="45.5064314" lon="10.4736428"><ele>195.0</ele><time>2026-03-28T08:24:21.762Z</time></trkpt><trkpt lat="45.5064098" lon="10.4738119"><ele>195.0</ele><time>2026-03-28T08:24:22.761Z</time></trkpt><trkpt lat="45.5063869" lon="10.4739636"><ele>194.8</ele><time>2026-03-28T08:24:23.762Z</time></trkpt><trkpt lat="45.5063533" lon="10.4741094"><ele>194.6</ele><time>2026-03-28T08:24:24.761Z</time></trkpt><trkpt lat="45.506305" lon="10.4742432"><ele>194.39999999999998</ele><time>2026-03-28T08:24:25.761Z</time></trkpt><trkpt lat="45.5062517" lon="10.4743619"><ele>194.2</ele><time>2026-03-28T08:24:26.761Z</time></trkpt><trkpt lat="45.5062035" lon="10.4744611"><ele>194.0</ele><time>2026-03-28T08:24:27.761Z</time></trkpt><trkpt lat="45.5061571" lon="10.4745458"><ele>194.00000000000003</ele><time>2026-03-28T08:24:28.762Z</time></trkpt><trkpt lat="45.5060966" lon="10.4746007"><ele>194.0</ele><time>2026-03-28T08:24:29.762Z</time></trkpt><trkpt lat="45.5060214" lon="10.4746149"><ele>194.0</ele><time>2026-03-28T08:24:30.761Z</time></trkpt><trkpt lat="45.5059474" lon="10.4745796"><ele>194.0</ele><time>2026-03-28T08:24:31.762Z</time></trkpt><trkpt lat="45.5058821" lon="10.4745005"><ele>194.00000000000003</ele><time>2026-03-28T08:24:32.762Z</time></trkpt><trkpt lat="45.5058284" lon="10.4743842"><ele>194.0</ele><time>2026-03-28T08:24:33.761Z</time></trkpt><trkpt lat="45.5057922" lon="10.4742375"><ele>194.0</ele><time>2026-03-28T08:24:34.762Z</time></trkpt><trkpt lat="45.5057707" lon="10.4740822"><ele>194.0</ele><time>2026-03-28T08:24:35.761Z</time></trkpt><trkpt lat="45.5057498" lon="10.4739106"><ele>194.0</ele><time>2026-03-28T08:24:36.762Z</time></trkpt><trkpt lat="45.5057211" lon="10.4737294"><ele>194.0</ele><time>2026-03-28T08:24:37.761Z</time></trkpt><trkpt lat="45.5056922" lon="10.473559"><ele>194.0</ele><time>2026-03-28T08:24:38.762Z</time></trkpt><trkpt lat="45.505657" lon="10.4733993"><ele>194.0</ele><time>2026-03-28T08:24:39.761Z</time></trkpt><trkpt lat="45.5056108" lon="10.473263"><ele>194.0</ele><time>2026-03-28T08:24:40.762Z</time></trkpt><trkpt lat="45.5055597" lon="10.4731516"><ele>194.0</ele><time>2026-03-28T08:24:41.762Z</time></trkpt><trkpt lat="45.5055153" lon="10.4730809"><ele>194.0</ele><time>2026-03-28T08:24:42.762Z</time></trkpt><trkpt lat="45.5054187" lon="10.473067"><ele>194.2</ele><time>2026-03-28T08:24:44.761Z</time></trkpt><trkpt lat="45.5053598" lon="10.4731406"><ele>194.39999999999998</ele><time>2026-03-28T08:24:45.761Z</time></trkpt><trkpt lat="45.5052804" lon="10.4732426"><ele>194.6</ele><time>2026-03-28T08:24:46.761Z</time></trkpt><trkpt lat="45.5051919" lon="10.4733499"><ele>194.8</ele><time>2026-03-28T08:24:47.761Z</time></trkpt><trkpt lat="45.5051019" lon="10.4734636"><ele>195.0</ele><time>2026-03-28T08:24:48.761Z</time></trkpt><trkpt lat="45.5050072" lon="10.473577"><ele>195.0</ele><time>2026-03-28T08:24:49.761Z</time></trkpt><trkpt lat="45.5049024" lon="10.4736927"><ele>195.0</ele><time>2026-03-28T08:24:50.761Z</time></trkpt><trkpt lat="45.504801" lon="10.4738164"><ele>195.0</ele><time>2026-03-28T08:24:51.762Z</time></trkpt><trkpt lat="45.5046936" lon="10.4739337"><ele>195.0</ele><time>2026-03-28T08:24:52.761Z</time></trkpt><trkpt lat="45.5045766" lon="10.4740158"><ele>197.5</ele><time>2026-03-28T08:24:53.762Z</time></trkpt><trkpt lat="45.5044374" lon="10.4740645"><ele>200.0</ele><time>2026-03-28T08:24:54.762Z</time></trkpt><trkpt lat="45.5042931" lon="10.474085"><ele>202.5</ele><time>2026-03-28T08:24:55.761Z</time></trkpt><trkpt lat="45.5041452" lon="10.4740688"><ele>205.0</ele><time>2026-03-28T08:24:56.762Z</time></trkpt><trkpt lat="45.5040125" lon="10.4740418"><ele>205.0</ele><time>2026-03-28T08:24:57.763Z</time></trkpt><trkpt lat="45.5038804" lon="10.4740239"><ele>205.0</ele><time>2026-03-28T08:24:58.762Z</time></trkpt><trkpt lat="45.5037466" lon="10.4740198"><ele>205.0</ele><time>2026-03-28T08:24:59.761Z</time></trkpt><trkpt lat="45.5036136" lon="10.4740187"><ele>205.0</ele><time>2026-03-28T08:25:00.762Z</time></trkpt><trkpt lat="45.5034981" lon="10.4740389"><ele>206.25</ele><time>2026-03-28T08:25:01.762Z</time></trkpt><trkpt lat="45.5033816" lon="10.4740961"><ele>207.5</ele><time>2026-03-28T08:25:02.762Z</time></trkpt><trkpt lat="45.5032436" lon="10.4741855"><ele>208.75</ele><time>2026-03-28T08:25:03.762Z</time></trkpt><trkpt lat="45.5031039" lon="10.4742925"><ele>210.0</ele><time>2026-03-28T08:25:04.762Z</time></trkpt><trkpt lat="45.5029758" lon="10.4743949"><ele>209.75</ele><time>2026-03-28T08:25:05.761Z</time></trkpt><trkpt lat="45.5028566" lon="10.4744923"><ele>209.5</ele><time>2026-03-28T08:25:06.762Z</time></trkpt><trkpt lat="45.5027513" lon="10.4745738"><ele>209.25</ele><time>2026-03-28T08:25:07.761Z</time></trkpt><trkpt lat="45.5026479" lon="10.4746422"><ele>209.0</ele><time>2026-03-28T08:25:08.762Z</time></trkpt><trkpt lat="45.5025482" lon="10.4746851"><ele>209.0</ele><time>2026-03-28T08:25:09.762Z</time></trkpt><trkpt lat="45.5024506" lon="10.4746936"><ele>209.0</ele><time>2026-03-28T08:25:10.761Z</time></trkpt><trkpt lat="45.5023497" lon="10.4746795"><ele>209.0</ele><time>2026-03-28T08:25:11.761Z</time></trkpt><trkpt lat="45.5022598" lon="10.4746467"><ele>209.0</ele><time>2026-03-28T08:25:12.762Z</time></trkpt><trkpt lat="45.5021727" lon="10.4746092"><ele>209.0</ele><time>2026-03-28T08:25:13.761Z</time></trkpt><trkpt lat="45.5020847" lon="10.4745616"><ele>209.25</ele><time>2026-03-28T08:25:14.762Z</time></trkpt><trkpt lat="45.5019832" lon="10.4745108"><ele>209.5</ele><time>2026-03-28T08:25:15.761Z</time></trkpt><trkpt lat="45.5018768" lon="10.4744437"><ele>209.75</ele><time>2026-03-28T08:25:16.762Z</time></trkpt><trkpt lat="45.5017675" lon="10.4743608"><ele>210.0</ele><time>2026-03-28T08:25:17.761Z</time></trkpt><trkpt lat="45.5016633" lon="10.4742694"><ele>210.0</ele><time>2026-03-28T08:25:18.763Z</time></trkpt><trkpt lat="45.5015673" lon="10.4741766"><ele>210.0</ele><time>2026-03-28T08:25:19.761Z</time></trkpt><trkpt lat="45.5014865" lon="10.4741011"><ele>210.0</ele><time>2026-03-28T08:25:20.762Z</time></trkpt><trkpt lat="45.5014157" lon="10.4740516"><ele>210.0</ele><time>2026-03-28T08:25:21.761Z</time></trkpt><trkpt lat="45.5013468" lon="10.4740532"><ele>210.0</ele><time>2026-03-28T08:25:22.761Z</time></trkpt><trkpt lat="45.5012847" lon="10.474092"><ele>210.0</ele><time>2026-03-28T08:25:23.761Z</time></trkpt><trkpt lat="45.5012198" lon="10.4741152"><ele>209.8</ele><time>2026-03-28T08:25:24.762Z</time></trkpt><trkpt lat="45.5011446" lon="10.4740787"><ele>209.6</ele><time>2026-03-28T08:25:25.761Z</time></trkpt><trkpt lat="45.501075" lon="10.4740057"><ele>209.39999999999998</ele><time>2026-03-28T08:25:26.762Z</time></trkpt><trkpt lat="45.5010146" lon="10.4739088"><ele>209.2</ele><time>2026-03-28T08:25:27.762Z</time></trkpt><trkpt lat="45.5009588" lon="10.4737968"><ele>209.0</ele><time>2026-03-28T08:25:28.761Z</time></trkpt><trkpt lat="45.5009065" lon="10.4736701"><ele>209.00000000000003</ele><time>2026-03-28T08:25:29.761Z</time></trkpt><trkpt lat="45.5008529" lon="10.4735329"><ele>209.0</ele><time>2026-03-28T08:25:30.761Z</time></trkpt><trkpt lat="45.5008062" lon="10.4733968"><ele>209.0</ele><time>2026-03-28T08:25:31.761Z</time></trkpt><trkpt lat="45.5007752" lon="10.4732736"><ele>209.0</ele><time>2026-03-28T08:25:32.762Z</time></trkpt><trkpt lat="45.5007418" lon="10.4731808"><ele>209.00000000000003</ele><time>2026-03-28T08:25:33.761Z</time></trkpt><trkpt lat="45.5007033" lon="10.4731091"><ele>209.0</ele><time>2026-03-28T08:25:34.761Z</time></trkpt><trkpt lat="45.5006456" lon="10.4730533"><ele>209.0</ele><time>2026-03-28T08:25:35.762Z</time></trkpt><trkpt lat="45.5005705" lon="10.4730278"><ele>209.0</ele><time>2026-03-28T08:25:36.761Z</time></trkpt><trkpt lat="45.5004758" lon="10.4730113"><ele>209.0</ele><time>2026-03-28T08:25:37.762Z</time></trkpt><trkpt lat="45.5003639" lon="10.472993"><ele>209.0</ele><time>2026-03-28T08:25:38.761Z</time></trkpt><trkpt lat="45.5002455" lon="10.4729718"><ele>209.0</ele><time>2026-03-28T08:25:39.761Z</time></trkpt><trkpt lat="45.5001271" lon="10.4729367"><ele>207.25</ele><time>2026-03-28T08:25:40.761Z</time></trkpt><trkpt lat="45.500005" lon="10.4729001"><ele>205.5</ele><time>2026-03-28T08:25:41.762Z</time></trkpt><trkpt lat="45.4998794" lon="10.4728672"><ele>203.75</ele><time>2026-03-28T08:25:42.761Z</time></trkpt><trkpt lat="45.4997549" lon="10.4728315"><ele>202.0</ele><time>2026-03-28T08:25:43.761Z</time></trkpt><trkpt lat="45.4996385" lon="10.4727937"><ele>201.39999999999998</ele><time>2026-03-28T08:25:44.762Z</time></trkpt><trkpt lat="45.499528" lon="10.4727595"><ele>200.79999999999998</ele><time>2026-03-28T08:25:45.761Z</time></trkpt><trkpt lat="45.4994231" lon="10.4727293"><ele>200.2</ele><time>2026-03-28T08:25:46.762Z</time></trkpt><trkpt lat="45.4993245" lon="10.4727008"><ele>199.6</ele><time>2026-03-28T08:25:47.761Z</time></trkpt><trkpt lat="45.4992403" lon="10.4726694"><ele>199.0</ele><time>2026-03-28T08:25:48.761Z</time></trkpt><trkpt lat="45.4991701" lon="10.4726429"><ele>199.0</ele><time>2026-03-28T08:25:49.761Z</time></trkpt><trkpt lat="45.4990722" lon="10.4726154"><ele>199.0</ele><time>2026-03-28T08:25:51.761Z</time></trkpt><trkpt lat="45.499019" lon="10.4726815"><ele>199.0</ele><time>2026-03-28T08:25:53.761Z</time></trkpt><trkpt lat="45.4990154" lon="10.4728248"><ele>199.0</ele><time>2026-03-28T08:25:55.761Z</time></trkpt><trkpt lat="45.49901" lon="10.4729474"><ele>199.0</ele><time>2026-03-28T08:25:56.761Z</time></trkpt><trkpt lat="45.4990011" lon="10.4730825"><ele>199.25</ele><time>2026-03-28T08:25:57.762Z</time></trkpt><trkpt lat="45.4989952" lon="10.473233"><ele>199.5</ele><time>2026-03-28T08:25:58.761Z</time></trkpt><trkpt lat="45.4989895" lon="10.473397"><ele>199.75</ele><time>2026-03-28T08:25:59.761Z</time></trkpt><trkpt lat="45.4989844" lon="10.4735859"><ele>200.0</ele><time>2026-03-28T08:26:00.762Z</time></trkpt><trkpt lat="45.4989744" lon="10.4737826"><ele>200.5</ele><time>2026-03-28T08:26:01.761Z</time></trkpt><trkpt lat="45.4989646" lon="10.4739759"><ele>201.0</ele><time>2026-03-28T08:26:02.761Z</time></trkpt><trkpt lat="45.4989602" lon="10.4741513"><ele>201.5</ele><time>2026-03-28T08:26:03.761Z</time></trkpt><trkpt lat="45.4989535" lon="10.4743106"><ele>202.0</ele><time>2026-03-28T08:26:04.761Z</time></trkpt><trkpt lat="45.4989471" lon="10.4744727"><ele>202.39999999999998</ele><time>2026-03-28T08:26:05.762Z</time></trkpt><trkpt lat="45.4989427" lon="10.4746308"><ele>202.79999999999998</ele><time>2026-03-28T08:26:06.762Z</time></trkpt><trkpt lat="45.4989437" lon="10.4747816"><ele>203.2</ele><time>2026-03-28T08:26:07.762Z</time></trkpt><trkpt lat="45.4989404" lon="10.4749184"><ele>203.6</ele><time>2026-03-28T08:26:08.761Z</time></trkpt><trkpt lat="45.4989335" lon="10.4750436"><ele>204.0</ele><time>2026-03-28T08:26:09.762Z</time></trkpt><trkpt lat="45.4989247" lon="10.4751703"><ele>204.0</ele><time>2026-03-28T08:26:10.762Z</time></trkpt><trkpt lat="45.4989203" lon="10.4752601"><ele>204.0</ele><time>2026-03-28T08:26:11.761Z</time></trkpt><trkpt lat="45.4988987" lon="10.4753828"><ele>204.0</ele><time>2026-03-28T08:26:13.762Z</time></trkpt><trkpt lat="45.4988399" lon="10.4754396"><ele>204.0</ele><time>2026-03-28T08:26:15.762Z</time></trkpt><trkpt lat="45.4987286" lon="10.4754464"><ele>204.0</ele><time>2026-03-28T08:26:17.762Z</time></trkpt><trkpt lat="45.498643" lon="10.4754523"><ele>204.0</ele><time>2026-03-28T08:26:18.761Z</time></trkpt><trkpt lat="45.4985438" lon="10.4754593"><ele>205.0</ele><time>2026-03-28T08:26:19.761Z</time></trkpt><trkpt lat="45.4984296" lon="10.4754754"><ele>206.0</ele><time>2026-03-28T08:26:20.762Z</time></trkpt><trkpt lat="45.4983095" lon="10.475491"><ele>207.0</ele><time>2026-03-28T08:26:21.762Z</time></trkpt><trkpt lat="45.4981793" lon="10.4754939"><ele>208.0</ele><time>2026-03-28T08:26:22.761Z</time></trkpt><trkpt lat="45.4980342" lon="10.4754924"><ele>208.25</ele><time>2026-03-28T08:26:23.762Z</time></trkpt><trkpt lat="45.4978842" lon="10.4754873"><ele>208.5</ele><time>2026-03-28T08:26:24.761Z</time></trkpt><trkpt lat="45.4977416" lon="10.4754703"><ele>208.75</ele><time>2026-03-28T08:26:25.761Z</time></trkpt><trkpt lat="45.4975999" lon="10.4754495"><ele>209.0</ele><time>2026-03-28T08:26:26.762Z</time></trkpt><trkpt lat="45.4974677" lon="10.4754181"><ele>208.0</ele><time>2026-03-28T08:26:27.761Z</time></trkpt><trkpt lat="45.4973448" lon="10.4753862"><ele>207.0</ele><time>2026-03-28T08:26:28.761Z</time></trkpt><trkpt lat="45.4972241" lon="10.4753604"><ele>206.0</ele><time>2026-03-28T08:26:29.762Z</time></trkpt><trkpt lat="45.4970973" lon="10.4753432"><ele>205.0</ele><time>2026-03-28T08:26:30.761Z</time></trkpt><trkpt lat="45.4969751" lon="10.475317"><ele>205.0</ele><time>2026-03-28T08:26:31.761Z</time></trkpt><trkpt lat="45.4968517" lon="10.4752842"><ele>205.0</ele><time>2026-03-28T08:26:32.762Z</time></trkpt><trkpt lat="45.4967228" lon="10.4752283"><ele>205.0</ele><time>2026-03-28T08:26:33.761Z</time></trkpt><trkpt lat="45.4965932" lon="10.4752088"><ele>205.0</ele><time>2026-03-28T08:26:34.761Z</time></trkpt><trkpt lat="45.4964481" lon="10.4751941"><ele>205.0</ele><time>2026-03-28T08:26:35.762Z</time></trkpt><trkpt lat="45.4963013" lon="10.4751722"><ele>205.0</ele><time>2026-03-28T08:26:36.762Z</time></trkpt><trkpt lat="45.4961457" lon="10.4751525"><ele>205.0</ele><time>2026-03-28T08:26:37.761Z</time></trkpt><trkpt lat="45.496002" lon="10.4751348"><ele>205.0</ele><time>2026-03-28T08:26:38.761Z</time></trkpt><trkpt lat="45.495865" lon="10.4751104"><ele>205.5</ele><time>2026-03-28T08:26:39.762Z</time></trkpt><trkpt lat="45.4957301" lon="10.4750692"><ele>206.0</ele><time>2026-03-28T08:26:40.761Z</time></trkpt><trkpt lat="45.4955973" lon="10.4750421"><ele>206.5</ele><time>2026-03-28T08:26:41.762Z</time></trkpt><trkpt lat="45.4954599" lon="10.4750323"><ele>207.0</ele><time>2026-03-28T08:26:42.762Z</time></trkpt><trkpt lat="45.4953169" lon="10.4750326"><ele>207.25</ele><time>2026-03-28T08:26:43.761Z</time></trkpt><trkpt lat="45.4951786" lon="10.4750242"><ele>207.5</ele><time>2026-03-28T08:26:44.761Z</time></trkpt><trkpt lat="45.4950394" lon="10.4750093"><ele>207.75</ele><time>2026-03-28T08:26:45.762Z</time></trkpt><trkpt lat="45.4948909" lon="10.4749975"><ele>208.0</ele><time>2026-03-28T08:26:46.761Z</time></trkpt><trkpt lat="45.4947414" lon="10.4749808"><ele>208.0</ele><time>2026-03-28T08:26:47.762Z</time></trkpt><trkpt lat="45.4945968" lon="10.4749693"><ele>208.0</ele><time>2026-03-28T08:26:48.762Z</time></trkpt><trkpt lat="45.4944614" lon="10.4749571"><ele>208.0</ele><time>2026-03-28T08:26:49.761Z</time></trkpt><trkpt lat="45.4943346" lon="10.4749468"><ele>208.0</ele><time>2026-03-28T08:26:50.762Z</time></trkpt><trkpt lat="45.4942116" lon="10.4749333"><ele>208.0</ele><time>2026-03-28T08:26:51.761Z</time></trkpt><trkpt lat="45.494088" lon="10.4749162"><ele>208.0</ele><time>2026-03-28T08:26:52.761Z</time></trkpt><trkpt lat="45.4939714" lon="10.4749105"><ele>208.0</ele><time>2026-03-28T08:26:53.762Z</time></trkpt><trkpt lat="45.4938608" lon="10.4749102"><ele>208.0</ele><time>2026-03-28T08:26:54.761Z</time></trkpt><trkpt lat="45.493756" lon="10.4749224"><ele>209.0</ele><time>2026-03-28T08:26:55.762Z</time></trkpt><trkpt lat="45.4936472" lon="10.4749454"><ele>210.0</ele><time>2026-03-28T08:26:56.762Z</time></trkpt><trkpt lat="45.4935338" lon="10.4749524"><ele>211.0</ele><time>2026-03-28T08:26:57.761Z</time></trkpt><trkpt lat="45.493417" lon="10.474951"><ele>212.0</ele><time>2026-03-28T08:26:58.761Z</time></trkpt><trkpt lat="45.4932942" lon="10.4749476"><ele>212.0</ele><time>2026-03-28T08:26:59.762Z</time></trkpt><trkpt lat="45.4931801" lon="10.4749384"><ele>212.0</ele><time>2026-03-28T08:27:00.761Z</time></trkpt><trkpt lat="45.4930748" lon="10.4749345"><ele>212.0</ele><time>2026-03-28T08:27:01.761Z</time></trkpt><trkpt lat="45.4929886" lon="10.4749348"><ele>212.0</ele><time>2026-03-28T08:27:02.762Z</time></trkpt><trkpt lat="45.4929224" lon="10.4749304"><ele>212.0</ele><time>2026-03-28T08:27:03.761Z</time></trkpt><trkpt lat="45.4928303" lon="10.4748875"><ele>212.8</ele><time>2026-03-28T08:27:05.762Z</time></trkpt><trkpt lat="45.4928134" lon="10.4747071"><ele>213.6</ele><time>2026-03-28T08:27:07.761Z</time></trkpt><trkpt lat="45.4927987" lon="10.4745775"><ele>214.40000000000003</ele><time>2026-03-28T08:27:08.762Z</time></trkpt><trkpt lat="45.4927749" lon="10.4744502"><ele>215.20000000000002</ele><time>2026-03-28T08:27:09.761Z</time></trkpt><trkpt lat="45.4927434" lon="10.4743218"><ele>216.0</ele><time>2026-03-28T08:27:10.762Z</time></trkpt><trkpt lat="45.4927141" lon="10.4741931"><ele>216.0</ele><time>2026-03-28T08:27:11.763Z</time></trkpt><trkpt lat="45.4926925" lon="10.4740954"><ele>216.0</ele><time>2026-03-28T08:27:12.762Z</time></trkpt><trkpt lat="45.4926684" lon="10.4740001"><ele>216.0</ele><time>2026-03-28T08:27:13.762Z</time></trkpt><trkpt lat="45.4926362" lon="10.473907"><ele>216.0</ele><time>2026-03-28T08:27:14.762Z</time></trkpt><trkpt lat="45.4925875" lon="10.4737852"><ele>216.0</ele><time>2026-03-28T08:27:15.762Z</time></trkpt><trkpt lat="45.4925326" lon="10.4736723"><ele>216.0</ele><time>2026-03-28T08:27:16.762Z</time></trkpt><trkpt lat="45.4924787" lon="10.4735572"><ele>215.0</ele><time>2026-03-28T08:27:17.761Z</time></trkpt><trkpt lat="45.492438" lon="10.4734461"><ele>214.0</ele><time>2026-03-28T08:27:18.761Z</time></trkpt><trkpt lat="45.4923983" lon="10.4733428"><ele>213.0</ele><time>2026-03-28T08:27:19.762Z</time></trkpt><trkpt lat="45.4923538" lon="10.4732503"><ele>212.0</ele><time>2026-03-28T08:27:20.761Z</time></trkpt><trkpt lat="45.4922933" lon="10.4731546"><ele>211.0</ele><time>2026-03-28T08:27:21.762Z</time></trkpt><trkpt lat="45.4922202" lon="10.4730748"><ele>210.0</ele><time>2026-03-28T08:27:22.761Z</time></trkpt><trkpt lat="45.4921464" lon="10.4730113"><ele>209.0</ele><time>2026-03-28T08:27:23.762Z</time></trkpt><trkpt lat="45.4920663" lon="10.4729558"><ele>208.0</ele><time>2026-03-28T08:27:24.763Z</time></trkpt><trkpt lat="45.4919855" lon="10.4729072"><ele>207.0</ele><time>2026-03-28T08:27:25.761Z</time></trkpt><trkpt lat="45.4918964" lon="10.4728771"><ele>206.0</ele><time>2026-03-28T08:27:26.761Z</time></trkpt><trkpt lat="45.4918075" lon="10.4728835"><ele>205.0</ele><time>2026-03-28T08:27:27.761Z</time></trkpt><trkpt lat="45.4917002" lon="10.472906"><ele>205.0</ele><time>2026-03-28T08:27:28.762Z</time></trkpt><trkpt lat="45.4915684" lon="10.4729392"><ele>205.0</ele><time>2026-03-28T08:27:29.762Z</time></trkpt><trkpt lat="45.4914288" lon="10.4729718"><ele>205.0</ele><time>2026-03-28T08:27:30.761Z</time></trkpt><trkpt lat="45.4912937" lon="10.4729993"><ele>205.0</ele><time>2026-03-28T08:27:31.761Z</time></trkpt><trkpt lat="45.4911417" lon="10.4730296"><ele>204.0</ele><time>2026-03-28T08:27:32.762Z</time></trkpt><trkpt lat="45.4909876" lon="10.4730674"><ele>203.0</ele><time>2026-03-28T08:27:33.761Z</time></trkpt><trkpt lat="45.4908604" lon="10.4730901"><ele>202.0</ele><time>2026-03-28T08:27:34.761Z</time></trkpt><trkpt lat="45.4907462" lon="10.4731164"><ele>201.0</ele><time>2026-03-28T08:27:35.762Z</time></trkpt><trkpt lat="45.4906449" lon="10.473141"><ele>201.0</ele><time>2026-03-28T08:27:36.761Z</time></trkpt><trkpt lat="45.4905361" lon="10.4731811"><ele>201.0</ele><time>2026-03-28T08:27:37.761Z</time></trkpt><trkpt lat="45.4904189" lon="10.4732415"><ele>201.0</ele><time>2026-03-28T08:27:38.762Z</time></trkpt><trkpt lat="45.4902932" lon="10.4733192"><ele>201.0</ele><time>2026-03-28T08:27:39.761Z</time></trkpt><trkpt lat="45.4901661" lon="10.4734169"><ele>198.5</ele><time>2026-03-28T08:27:40.761Z</time></trkpt><trkpt lat="45.4900578" lon="10.4735081"><ele>196.0</ele><time>2026-03-28T08:27:41.763Z</time></trkpt><trkpt lat="45.4899489" lon="10.473607"><ele>193.5</ele><time>2026-03-28T08:27:42.762Z</time></trkpt><trkpt lat="45.4898452" lon="10.4737004"><ele>191.0</ele><time>2026-03-28T08:27:43.761Z</time></trkpt><trkpt lat="45.4897352" lon="10.4738128"><ele>191.0</ele><time>2026-03-28T08:27:44.762Z</time></trkpt><trkpt lat="45.4896121" lon="10.4739249"><ele>191.0</ele><time>2026-03-28T08:27:45.761Z</time></trkpt><trkpt lat="45.4894736" lon="10.4740345"><ele>191.0</ele><time>2026-03-28T08:27:46.762Z</time></trkpt><trkpt lat="45.48934" lon="10.4741332"><ele>189.75</ele><time>2026-03-28T08:27:47.762Z</time></trkpt><trkpt lat="45.4892062" lon="10.4742235"><ele>188.5</ele><time>2026-03-28T08:27:48.761Z</time></trkpt><trkpt lat="45.4890754" lon="10.4743048"><ele>187.25</ele><time>2026-03-28T08:27:49.762Z</time></trkpt><trkpt lat="45.4889496" lon="10.4743775"><ele>186.0</ele><time>2026-03-28T08:27:50.761Z</time></trkpt><trkpt lat="45.4888286" lon="10.4744419"><ele>185.60000000000002</ele><time>2026-03-28T08:27:51.761Z</time></trkpt><trkpt lat="45.4887139" lon="10.4744928"><ele>185.2</ele><time>2026-03-28T08:27:52.761Z</time></trkpt><trkpt lat="45.4886051" lon="10.4745372"><ele>184.8</ele><time>2026-03-28T08:27:53.762Z</time></trkpt><trkpt lat="45.4885072" lon="10.4745855"><ele>184.39999999999998</ele><time>2026-03-28T08:27:54.761Z</time></trkpt><trkpt lat="45.4884123" lon="10.4746432"><ele>184.0</ele><time>2026-03-28T08:27:55.762Z</time></trkpt><trkpt lat="45.4883129" lon="10.4747119"><ele>184.0</ele><time>2026-03-28T08:27:56.761Z</time></trkpt><trkpt lat="45.4882121" lon="10.4747762"><ele>184.0</ele><time>2026-03-28T08:27:57.762Z</time></trkpt><trkpt lat="45.4881142" lon="10.474841"><ele>184.0</ele><time>2026-03-28T08:27:58.761Z</time></trkpt><trkpt lat="45.4880095" lon="10.474903"><ele>184.0</ele><time>2026-03-28T08:27:59.762Z</time></trkpt><trkpt lat="45.4878966" lon="10.4749691"><ele>183.6</ele><time>2026-03-28T08:28:00.762Z</time></trkpt><trkpt lat="45.4877901" lon="10.475037"><ele>183.2</ele><time>2026-03-28T08:28:01.761Z</time></trkpt><trkpt lat="45.4876921" lon="10.4751133"><ele>182.79999999999998</ele><time>2026-03-28T08:28:02.762Z</time></trkpt><trkpt lat="45.4876071" lon="10.4751903"><ele>182.39999999999998</ele><time>2026-03-28T08:28:03.761Z</time></trkpt><trkpt lat="45.4875453" lon="10.4752745"><ele>182.0</ele><time>2026-03-28T08:28:04.762Z</time></trkpt><trkpt lat="45.4875034" lon="10.4753692"><ele>182.33333333333331</ele><time>2026-03-28T08:28:05.762Z</time></trkpt><trkpt lat="45.4874628" lon="10.475456"><ele>182.66666666666666</ele><time>2026-03-28T08:28:06.761Z</time></trkpt><trkpt lat="45.4873946" lon="10.4755278"><ele>183.0</ele><time>2026-03-28T08:28:08.761Z</time></trkpt><trkpt lat="45.4872971" lon="10.4755675"><ele>183.33333333333334</ele><time>2026-03-28T08:28:10.761Z</time></trkpt><trkpt lat="45.4872129" lon="10.4755973"><ele>183.66666666666669</ele><time>2026-03-28T08:28:11.762Z</time></trkpt><trkpt lat="45.487143" lon="10.4756116"><ele>184.0</ele><time>2026-03-28T08:28:12.761Z</time></trkpt><trkpt lat="45.4870509" lon="10.4755696"><ele>184.5</ele><time>2026-03-28T08:28:14.761Z</time></trkpt><trkpt lat="45.4869725" lon="10.4753961"><ele>185.0</ele><time>2026-03-28T08:28:16.761Z</time></trkpt><trkpt lat="45.4869242" lon="10.4752527"><ele>185.5</ele><time>2026-03-28T08:28:17.761Z</time></trkpt><trkpt lat="45.4868648" lon="10.4750872"><ele>186.0</ele><time>2026-03-28T08:28:18.762Z</time></trkpt><trkpt lat="45.4868168" lon="10.474933"><ele>186.0</ele><time>2026-03-28T08:28:19.762Z</time></trkpt><trkpt lat="45.486774" lon="10.4747775"><ele>186.0</ele><time>2026-03-28T08:28:20.761Z</time></trkpt><trkpt lat="45.4867429" lon="10.4745938"><ele>186.0</ele><time>2026-03-28T08:28:21.763Z</time></trkpt><trkpt lat="45.4867083" lon="10.4743981"><ele>186.0</ele><time>2026-03-28T08:28:22.761Z</time></trkpt><trkpt lat="45.4866864" lon="10.474216"><ele>185.75</ele><time>2026-03-28T08:28:23.761Z</time></trkpt><trkpt lat="45.4866615" lon="10.4740364"><ele>185.5</ele><time>2026-03-28T08:28:24.763Z</time></trkpt><trkpt lat="45.486629" lon="10.4738698"><ele>185.25</ele><time>2026-03-28T08:28:25.762Z</time></trkpt><trkpt lat="45.4865938" lon="10.4737168"><ele>185.0</ele><time>2026-03-28T08:28:26.761Z</time></trkpt><trkpt lat="45.4865631" lon="10.473584"><ele>185.0</ele><time>2026-03-28T08:28:27.762Z</time></trkpt><trkpt lat="45.4865338" lon="10.4734802"><ele>185.0</ele><time>2026-03-28T08:28:28.761Z</time></trkpt><trkpt lat="45.4865001" lon="10.4733912"><ele>185.0</ele><time>2026-03-28T08:28:30.761Z</time></trkpt><trkpt lat="45.4864325" lon="10.4732543"><ele>185.0</ele><time>2026-03-28T08:28:57.762Z</time></trkpt><trkpt lat="45.4863837" lon="10.473125"><ele>185.0</ele><time>2026-03-28T08:28:59.761Z</time></trkpt><trkpt lat="45.4863165" lon="10.4729857"><ele>184.66666666666666</ele><time>2026-03-28T08:29:01.761Z</time></trkpt><trkpt lat="45.4862757" lon="10.4729116"><ele>184.33333333333331</ele><time>2026-03-28T08:29:02.762Z</time></trkpt><trkpt lat="45.4862152" lon="10.4727962"><ele>184.0</ele><time>2026-03-28T08:29:04.761Z</time></trkpt><trkpt lat="45.4861734" lon="10.4727147"><ele>183.66666666666666</ele><time>2026-03-28T08:29:06.762Z</time></trkpt><trkpt lat="45.4861284" lon="10.4726432"><ele>183.33333333333334</ele><time>2026-03-28T08:29:08.761Z</time></trkpt><trkpt lat="45.4860547" lon="10.4725708"><ele>183.0</ele><time>2026-03-28T08:29:10.762Z</time></trkpt><trkpt lat="45.4859744" lon="10.4724971"><ele>183.0</ele><time>2026-03-28T08:29:12.762Z</time></trkpt><trkpt lat="45.4859107" lon="10.4724157"><ele>183.0</ele><time>2026-03-28T08:29:14.761Z</time></trkpt><trkpt lat="45.4858541" lon="10.4723417"><ele>183.0</ele><time>2026-03-28T08:29:16.762Z</time></trkpt><trkpt lat="45.4857578" lon="10.4723038"><ele>183.0</ele><time>2026-03-28T08:29:18.762Z</time></trkpt><trkpt lat="45.4857005" lon="10.472384"><ele>183.0</ele><time>2026-03-28T08:29:20.763Z</time></trkpt><trkpt lat="45.4856222" lon="10.472348"><ele>183.0</ele><time>2026-03-28T08:29:23.762Z</time></trkpt><trkpt lat="45.4855689" lon="10.4721994"><ele>182.4</ele><time>2026-03-28T08:29:25.763Z</time></trkpt><trkpt lat="45.4855427" lon="10.472093"><ele>181.8</ele><time>2026-03-28T08:29:26.761Z</time></trkpt><trkpt lat="45.4855198" lon="10.4719885"><ele>181.2</ele><time>2026-03-28T08:29:27.762Z</time></trkpt><trkpt lat="45.4854954" lon="10.4718595"><ele>180.6</ele><time>2026-03-28T08:29:28.762Z</time></trkpt><trkpt lat="45.4854699" lon="10.4717187"><ele>180.0</ele><time>2026-03-28T08:29:29.762Z</time></trkpt><trkpt lat="45.4854307" lon="10.4715731"><ele>179.6</ele><time>2026-03-28T08:29:30.761Z</time></trkpt><trkpt lat="45.4853896" lon="10.4714148"><ele>179.2</ele><time>2026-03-28T08:29:31.761Z</time></trkpt><trkpt lat="45.4853532" lon="10.4712621"><ele>178.8</ele><time>2026-03-28T08:29:32.763Z</time></trkpt><trkpt lat="45.4853216" lon="10.471111"><ele>178.4</ele><time>2026-03-28T08:29:33.762Z</time></trkpt><trkpt lat="45.4852945" lon="10.4709656"><ele>178.0</ele><time>2026-03-28T08:29:34.762Z</time></trkpt><trkpt lat="45.4852706" lon="10.4708036"><ele>177.25</ele><time>2026-03-28T08:29:35.761Z</time></trkpt><trkpt lat="45.4852493" lon="10.4706359"><ele>176.5</ele><time>2026-03-28T08:29:36.761Z</time></trkpt><trkpt lat="45.4852282" lon="10.4704675"><ele>175.75</ele><time>2026-03-28T08:29:37.762Z</time></trkpt><trkpt lat="45.4852069" lon="10.4702982"><ele>175.0</ele><time>2026-03-28T08:29:38.761Z</time></trkpt><trkpt lat="45.4851825" lon="10.4701404"><ele>174.5</ele><time>2026-03-28T08:29:39.762Z</time></trkpt><trkpt lat="45.48516" lon="10.470011"><ele>174.0</ele><time>2026-03-28T08:29:40.762Z</time></trkpt><trkpt lat="45.4851442" lon="10.4698904"><ele>173.5</ele><time>2026-03-28T08:29:41.761Z</time></trkpt><trkpt lat="45.4851304" lon="10.4697768"><ele>173.0</ele><time>2026-03-28T08:29:42.761Z</time></trkpt><trkpt lat="45.4851199" lon="10.4696719"><ele>172.5</ele><time>2026-03-28T08:29:43.761Z</time></trkpt><trkpt lat="45.4851156" lon="10.4695751"><ele>172.0</ele><time>2026-03-28T08:29:44.762Z</time></trkpt><trkpt lat="45.4851172" lon="10.4693953"><ele>171.8</ele><time>2026-03-28T08:29:46.761Z</time></trkpt><trkpt lat="45.4851179" lon="10.4692744"><ele>171.6</ele><time>2026-03-28T08:29:47.761Z</time></trkpt><trkpt lat="45.4851174" lon="10.4691393"><ele>171.4</ele><time>2026-03-28T08:29:48.761Z</time></trkpt><trkpt lat="45.4851151" lon="10.4689723"><ele>171.20000000000002</ele><time>2026-03-28T08:29:49.761Z</time></trkpt><trkpt lat="45.4851085" lon="10.4687875"><ele>171.0</ele><time>2026-03-28T08:29:50.762Z</time></trkpt><trkpt lat="45.4850943" lon="10.4685866"><ele>170.75</ele><time>2026-03-28T08:29:51.762Z</time></trkpt><trkpt lat="45.4850807" lon="10.4683951"><ele>170.5</ele><time>2026-03-28T08:29:52.761Z</time></trkpt><trkpt lat="45.4850681" lon="10.4682127"><ele>170.25</ele><time>2026-03-28T08:29:53.761Z</time></trkpt><trkpt lat="45.4850579" lon="10.4680365"><ele>170.0</ele><time>2026-03-28T08:29:54.762Z</time></trkpt><trkpt lat="45.4850443" lon="10.4678458"><ele>169.75</ele><time>2026-03-28T08:29:55.761Z</time></trkpt><trkpt lat="45.4850277" lon="10.4676463"><ele>169.5</ele><time>2026-03-28T08:29:56.762Z</time></trkpt><trkpt lat="45.4850121" lon="10.4674624"><ele>169.25</ele><time>2026-03-28T08:29:57.761Z</time></trkpt><trkpt lat="45.4849927" lon="10.4672871"><ele>169.0</ele><time>2026-03-28T08:29:58.761Z</time></trkpt><trkpt lat="45.4849707" lon="10.4671119"><ele>169.0</ele><time>2026-03-28T08:29:59.761Z</time></trkpt><trkpt lat="45.4849412" lon="10.4669228"><ele>169.0</ele><time>2026-03-28T08:30:00.762Z</time></trkpt><trkpt lat="45.4849085" lon="10.4667149"><ele>169.0</ele><time>2026-03-28T08:30:01.762Z</time></trkpt><trkpt lat="45.4848791" lon="10.4665007"><ele>169.0</ele><time>2026-03-28T08:30:02.762Z</time></trkpt><trkpt lat="45.4848559" lon="10.466292"><ele>168.33333333333334</ele><time>2026-03-28T08:30:03.762Z</time></trkpt><trkpt lat="45.4848305" lon="10.4660752"><ele>167.66666666666666</ele><time>2026-03-28T08:30:04.761Z</time></trkpt><trkpt lat="45.4848071" lon="10.4658478"><ele>167.0</ele><time>2026-03-28T08:30:05.761Z</time></trkpt><trkpt lat="45.4847797" lon="10.46561"><ele>166.66666666666666</ele><time>2026-03-28T08:30:06.761Z</time></trkpt><trkpt lat="45.4847524" lon="10.4653926"><ele>166.33333333333334</ele><time>2026-03-28T08:30:07.762Z</time></trkpt><trkpt lat="45.4847259" lon="10.4651826"><ele>166.0</ele><time>2026-03-28T08:30:08.761Z</time></trkpt><trkpt lat="45.4847028" lon="10.4649772"><ele>166.0</ele><time>2026-03-28T08:30:09.762Z</time></trkpt><trkpt lat="45.4846786" lon="10.4647601"><ele>166.0</ele><time>2026-03-28T08:30:10.761Z</time></trkpt><trkpt lat="45.4846574" lon="10.4645483"><ele>166.0</ele><time>2026-03-28T08:30:11.761Z</time></trkpt><trkpt lat="45.4846361" lon="10.4643538"><ele>166.0</ele><time>2026-03-28T08:30:12.762Z</time></trkpt><trkpt lat="45.4846164" lon="10.4641731"><ele>165.75</ele><time>2026-03-28T08:30:13.761Z</time></trkpt><trkpt lat="45.4846024" lon="10.4639899"><ele>165.5</ele><time>2026-03-28T08:30:14.762Z</time></trkpt><trkpt lat="45.4845899" lon="10.4637866"><ele>165.25</ele><time>2026-03-28T08:30:15.762Z</time></trkpt><trkpt lat="45.4845783" lon="10.4635855"><ele>165.0</ele><time>2026-03-28T08:30:16.762Z</time></trkpt><trkpt lat="45.4845739" lon="10.4634031"><ele>164.75</ele><time>2026-03-28T08:30:17.762Z</time></trkpt><trkpt lat="45.4845781" lon="10.4632201"><ele>164.5</ele><time>2026-03-28T08:30:18.762Z</time></trkpt><trkpt lat="45.4845856" lon="10.4630383"><ele>164.25</ele><time>2026-03-28T08:30:19.762Z</time></trkpt><trkpt lat="45.484594" lon="10.4628475"><ele>164.0</ele><time>2026-03-28T08:30:20.761Z</time></trkpt><trkpt lat="45.4845995" lon="10.4626433"><ele>164.0</ele><time>2026-03-28T08:30:21.761Z</time></trkpt><trkpt lat="45.4846069" lon="10.4624556"><ele>164.0</ele><time>2026-03-28T08:30:22.761Z</time></trkpt><trkpt lat="45.4846183" lon="10.4622875"><ele>164.0</ele><time>2026-03-28T08:30:23.762Z</time></trkpt><trkpt lat="45.484633" lon="10.4621295"><ele>164.0</ele><time>2026-03-28T08:30:24.761Z</time></trkpt><trkpt lat="45.4846441" lon="10.4619786"><ele>163.75</ele><time>2026-03-28T08:30:25.762Z</time></trkpt><trkpt lat="45.4846492" lon="10.4617987"><ele>163.5</ele><time>2026-03-28T08:30:26.762Z</time></trkpt><trkpt lat="45.4846521" lon="10.4616076"><ele>163.25</ele><time>2026-03-28T08:30:27.761Z</time></trkpt><trkpt lat="45.4846535" lon="10.4614213"><ele>163.0</ele><time>2026-03-28T08:30:28.761Z</time></trkpt><trkpt lat="45.4846529" lon="10.4612472"><ele>162.75</ele><time>2026-03-28T08:30:29.762Z</time></trkpt><trkpt lat="45.4846532" lon="10.4610812"><ele>162.5</ele><time>2026-03-28T08:30:30.762Z</time></trkpt><trkpt lat="45.4846513" lon="10.4609106"><ele>162.25</ele><time>2026-03-28T08:30:31.761Z</time></trkpt><trkpt lat="45.484649" lon="10.4607396"><ele>162.0</ele><time>2026-03-28T08:30:32.761Z</time></trkpt><trkpt lat="45.4846467" lon="10.4605887"><ele>162.0</ele><time>2026-03-28T08:30:33.762Z</time></trkpt><trkpt lat="45.4846443" lon="10.4604495"><ele>162.0</ele><time>2026-03-28T08:30:34.762Z</time></trkpt><trkpt lat="45.4846418" lon="10.4603185"><ele>162.0</ele><time>2026-03-28T08:30:35.761Z</time></trkpt><trkpt lat="45.48464" lon="10.4601973"><ele>162.0</ele><time>2026-03-28T08:30:36.762Z</time></trkpt><trkpt lat="45.4846388" lon="10.460083"><ele>162.0</ele><time>2026-03-28T08:30:37.762Z</time></trkpt><trkpt lat="45.4846371" lon="10.4599699"><ele>162.0</ele><time>2026-03-28T08:30:38.762Z</time></trkpt><trkpt lat="45.4846317" lon="10.459867"><ele>162.0</ele><time>2026-03-28T08:30:39.761Z</time></trkpt><trkpt lat="45.4846361" lon="10.4597185"><ele>162.0</ele><time>2026-03-28T08:30:41.762Z</time></trkpt><trkpt lat="45.4846371" lon="10.4595879"><ele>162.0</ele><time>2026-03-28T08:30:43.761Z</time></trkpt><trkpt lat="45.4846327" lon="10.459475"><ele>162.0</ele><time>2026-03-28T08:30:45.761Z</time></trkpt><trkpt lat="45.4846282" lon="10.4593403"><ele>162.0</ele><time>2026-03-28T08:30:47.761Z</time></trkpt><trkpt lat="45.4846218" lon="10.4592051"><ele>161.83333333333334</ele><time>2026-03-28T08:30:49.762Z</time></trkpt><trkpt lat="45.4846284" lon="10.4591037"><ele>161.66666666666666</ele><time>2026-03-28T08:30:51.761Z</time></trkpt><trkpt lat="45.4846343" lon="10.4589997"><ele>161.5</ele><time>2026-03-28T08:30:54.761Z</time></trkpt><trkpt lat="45.4846057" lon="10.4591341"><ele>161.33333333333331</ele><time>2026-03-28T08:31:03.761Z</time></trkpt><trkpt lat="45.4845999" lon="10.4592647"><ele>161.16666666666666</ele><time>2026-03-28T08:31:05.762Z</time></trkpt><trkpt lat="45.484616" lon="10.4594261"><ele>161.0</ele><time>2026-03-28T08:31:07.763Z</time></trkpt><trkpt lat="45.4846195" lon="10.4595323"><ele>161.16666666666666</ele><time>2026-03-28T08:31:08.762Z</time></trkpt><trkpt lat="45.4846258" lon="10.4596404"><ele>161.33333333333331</ele><time>2026-03-28T08:31:09.761Z</time></trkpt><trkpt lat="45.4846301" lon="10.4597569"><ele>161.5</ele><time>2026-03-28T08:31:10.762Z</time></trkpt><trkpt lat="45.4846322" lon="10.4598706"><ele>161.66666666666666</ele><time>2026-03-28T08:31:11.761Z</time></trkpt><trkpt lat="45.4846333" lon="10.4599766"><ele>161.83333333333334</ele><time>2026-03-28T08:31:12.762Z</time></trkpt><trkpt lat="45.4846356" lon="10.4600899"><ele>162.0</ele><time>2026-03-28T08:31:13.762Z</time></trkpt><trkpt lat="45.4846387" lon="10.4602081"><ele>162.0</ele><time>2026-03-28T08:31:14.761Z</time></trkpt><trkpt lat="45.484642" lon="10.4603234"><ele>162.0</ele><time>2026-03-28T08:31:15.762Z</time></trkpt><trkpt lat="45.4846433" lon="10.4604476"><ele>162.0</ele><time>2026-03-28T08:31:16.762Z</time></trkpt><trkpt lat="45.4846454" lon="10.4605714"><ele>162.0</ele><time>2026-03-28T08:31:17.761Z</time></trkpt><trkpt lat="45.4846466" lon="10.4607033"><ele>162.0</ele><time>2026-03-28T08:31:18.761Z</time></trkpt><trkpt lat="45.484649" lon="10.4608389"><ele>162.0</ele><time>2026-03-28T08:31:19.762Z</time></trkpt><trkpt lat="45.4846523" lon="10.460978"><ele>162.0</ele><time>2026-03-28T08:31:20.761Z</time></trkpt><trkpt lat="45.4846553" lon="10.4611245"><ele>162.0</ele><time>2026-03-28T08:31:21.761Z</time></trkpt><trkpt lat="45.4846563" lon="10.4612709"><ele>162.0</ele><time>2026-03-28T08:31:22.762Z</time></trkpt><trkpt lat="45.4846551" lon="10.4614097"><ele>162.0</ele><time>2026-03-28T08:31:23.761Z</time></trkpt><trkpt lat="45.484656" lon="10.4615356"><ele>162.0</ele><time>2026-03-28T08:31:24.763Z</time></trkpt><trkpt lat="45.4846551" lon="10.4616516"><ele>162.14285714285714</ele><time>2026-03-28T08:31:25.762Z</time></trkpt><trkpt lat="45.4846538" lon="10.4617573"><ele>162.28571428571428</ele><time>2026-03-28T08:31:26.761Z</time></trkpt><trkpt lat="45.4846513" lon="10.4618595"><ele>162.42857142857144</ele><time>2026-03-28T08:31:27.761Z</time></trkpt><trkpt lat="45.4846485" lon="10.4619556"><ele>162.57142857142856</ele><time>2026-03-28T08:31:28.761Z</time></trkpt><trkpt lat="45.484643" lon="10.4620605"><ele>162.7142857142857</ele><time>2026-03-28T08:31:29.761Z</time></trkpt><trkpt lat="45.4846368" lon="10.4621695"><ele>162.85714285714286</ele><time>2026-03-28T08:31:30.762Z</time></trkpt><trkpt lat="45.4846311" lon="10.4622672"><ele>163.0</ele><time>2026-03-28T08:31:31.761Z</time></trkpt><trkpt lat="45.4846202" lon="10.4623595"><ele>163.0</ele><time>2026-03-28T08:31:32.761Z</time></trkpt><trkpt lat="45.48461" lon="10.4624553"><ele>163.0</ele><time>2026-03-28T08:31:33.762Z</time></trkpt><trkpt lat="45.4846033" lon="10.462566"><ele>163.0</ele><time>2026-03-28T08:31:34.761Z</time></trkpt><trkpt lat="45.4845996" lon="10.4627098"><ele>163.0</ele><time>2026-03-28T08:31:35.762Z</time></trkpt><trkpt lat="45.4845955" lon="10.4628255"><ele>163.0</ele><time>2026-03-28T08:31:36.761Z</time></trkpt><trkpt lat="45.4845926" lon="10.4629308"><ele>163.0</ele><time>2026-03-28T08:31:37.763Z</time></trkpt><trkpt lat="45.4845896" lon="10.4630222"><ele>163.0</ele><time>2026-03-28T08:31:38.762Z</time></trkpt><trkpt lat="45.4845718" lon="10.4631287"><ele>163.0</ele><time>2026-03-28T08:31:40.762Z</time></trkpt><trkpt lat="45.4844931" lon="10.4631116"><ele>163.0</ele><time>2026-03-28T08:31:43.762Z</time></trkpt><trkpt lat="45.4843988" lon="10.4629738"><ele>163.0</ele><time>2026-03-28T08:31:45.762Z</time></trkpt><trkpt lat="45.4843478" lon="10.4628717"><ele>163.0</ele><time>2026-03-28T08:31:46.761Z</time></trkpt><trkpt lat="45.4843069" lon="10.4627425"><ele>163.0</ele><time>2026-03-28T08:31:47.762Z</time></trkpt><trkpt lat="45.484274" lon="10.462595"><ele>163.0</ele><time>2026-03-28T08:31:48.762Z</time></trkpt><trkpt lat="45.4842278" lon="10.4624645"><ele>163.0</ele><time>2026-03-28T08:31:49.761Z</time></trkpt><trkpt lat="45.4841641" lon="10.4623286"><ele>163.0</ele><time>2026-03-28T08:31:50.762Z</time></trkpt><trkpt lat="45.4841036" lon="10.4621881"><ele>163.0</ele><time>2026-03-28T08:31:51.762Z</time></trkpt><trkpt lat="45.4840501" lon="10.462062"><ele>162.8</ele><time>2026-03-28T08:31:52.762Z</time></trkpt><trkpt lat="45.4839984" lon="10.4619441"><ele>162.60000000000002</ele><time>2026-03-28T08:31:53.762Z</time></trkpt><trkpt lat="45.4839548" lon="10.4618552"><ele>162.39999999999998</ele><time>2026-03-28T08:31:54.761Z</time></trkpt><trkpt lat="45.4839243" lon="10.4617654"><ele>162.2</ele><time>2026-03-28T08:31:55.762Z</time></trkpt><trkpt lat="45.4839243" lon="10.4615904"><ele>162.0</ele><time>2026-03-28T08:31:57.762Z</time></trkpt><trkpt lat="45.4839329" lon="10.4614504"><ele>162.0</ele><time>2026-03-28T08:31:58.761Z</time></trkpt><trkpt lat="45.4839368" lon="10.4612883"><ele>162.0</ele><time>2026-03-28T08:31:59.761Z</time></trkpt><trkpt lat="45.4839381" lon="10.4611186"><ele>162.0</ele><time>2026-03-28T08:32:00.762Z</time></trkpt><trkpt lat="45.4839396" lon="10.4609367"><ele>162.0</ele><time>2026-03-28T08:32:01.761Z</time></trkpt><trkpt lat="45.4839357" lon="10.4607692"><ele>162.0</ele><time>2026-03-28T08:32:02.761Z</time></trkpt><trkpt lat="45.4839295" lon="10.4606077"><ele>162.0</ele><time>2026-03-28T08:32:03.761Z</time></trkpt><trkpt lat="45.4839201" lon="10.4604488"><ele>162.0</ele><time>2026-03-28T08:32:04.762Z</time></trkpt><trkpt lat="45.4839037" lon="10.4602844"><ele>162.0</ele><time>2026-03-28T08:32:05.762Z</time></trkpt><trkpt lat="45.4838853" lon="10.4601362"><ele>162.0</ele><time>2026-03-28T08:32:06.761Z</time></trkpt><trkpt lat="45.4838687" lon="10.4599976"><ele>162.0</ele><time>2026-03-28T08:32:07.762Z</time></trkpt><trkpt lat="45.4838493" lon="10.4598598"><ele>162.0</ele><time>2026-03-28T08:32:08.762Z</time></trkpt><trkpt lat="45.4838282" lon="10.4597286"><ele>162.0</ele><time>2026-03-28T08:32:09.762Z</time></trkpt><trkpt lat="45.4838053" lon="10.4596116"><ele>162.0</ele><time>2026-03-28T08:32:10.761Z</time></trkpt><trkpt lat="45.4837869" lon="10.4595095"><ele>162.0</ele><time>2026-03-28T08:32:11.761Z</time></trkpt><trkpt lat="45.4837847" lon="10.4594175"><ele>162.0</ele><time>2026-03-28T08:32:12.762Z</time></trkpt><trkpt lat="45.4837988" lon="10.4593231"><ele>161.83333333333334</ele><time>2026-03-28T08:32:13.762Z</time></trkpt><trkpt lat="45.4838371" lon="10.4592465"><ele>161.66666666666666</ele><time>2026-03-28T08:32:14.762Z</time></trkpt><trkpt lat="45.4838967" lon="10.4591437"><ele>161.5</ele><time>2026-03-28T08:32:15.761Z</time></trkpt><trkpt lat="45.4839472" lon="10.459065"><ele>161.33333333333331</ele><time>2026-03-28T08:32:16.761Z</time></trkpt><trkpt lat="45.4840043" lon="10.4589799"><ele>161.16666666666666</ele><time>2026-03-28T08:32:17.762Z</time></trkpt><trkpt lat="45.4840654" lon="10.4588859"><ele>161.0</ele><time>2026-03-28T08:32:18.762Z</time></trkpt><trkpt lat="45.4841308" lon="10.4587832"><ele>160.4</ele><time>2026-03-28T08:32:19.761Z</time></trkpt><trkpt lat="45.4841886" lon="10.458692"><ele>159.8</ele><time>2026-03-28T08:32:20.761Z</time></trkpt><trkpt lat="45.4842504" lon="10.4585984"><ele>159.20000000000002</ele><time>2026-03-28T08:32:21.761Z</time></trkpt><trkpt lat="45.4843169" lon="10.4585021"><ele>158.60000000000002</ele><time>2026-03-28T08:32:22.762Z</time></trkpt><trkpt lat="45.4843826" lon="10.4584057"><ele>158.0</ele><time>2026-03-28T08:32:23.762Z</time></trkpt><trkpt lat="45.4844432" lon="10.4582982"><ele>158.0</ele><time>2026-03-28T08:32:24.761Z</time></trkpt><trkpt lat="45.4844887" lon="10.4581882"><ele>158.0</ele><time>2026-03-28T08:32:25.762Z</time></trkpt><trkpt lat="45.4845208" lon="10.4580916"><ele>158.0</ele><time>2026-03-28T08:32:26.761Z</time></trkpt><trkpt lat="45.4845392" lon="10.4579943"><ele>158.0</ele><time>2026-03-28T08:32:27.761Z</time></trkpt><trkpt lat="45.4845449" lon="10.4578706"><ele>158.0</ele><time>2026-03-28T08:32:28.762Z</time></trkpt><trkpt lat="45.4845474" lon="10.4577175"><ele>158.0</ele><time>2026-03-28T08:32:29.762Z</time></trkpt><trkpt lat="45.4845497" lon="10.4575526"><ele>158.0</ele><time>2026-03-28T08:32:30.761Z</time></trkpt><trkpt lat="45.4845535" lon="10.4574092"><ele>158.0</ele><time>2026-03-28T08:32:31.761Z</time></trkpt><trkpt lat="45.4845567" lon="10.4572733"><ele>158.0</ele><time>2026-03-28T08:32:32.761Z</time></trkpt><trkpt lat="45.4845578" lon="10.4571252"><ele>158.0</ele><time>2026-03-28T08:32:33.761Z</time></trkpt><trkpt lat="45.4845562" lon="10.4569618"><ele>158.0</ele><time>2026-03-28T08:32:34.762Z</time></trkpt><trkpt lat="45.4845557" lon="10.4567947"><ele>158.0</ele><time>2026-03-28T08:32:35.762Z</time></trkpt><trkpt lat="45.4845587" lon="10.4566438"><ele>158.0</ele><time>2026-03-28T08:32:36.762Z</time></trkpt><trkpt lat="45.4845576" lon="10.4564871"><ele>158.0</ele><time>2026-03-28T08:32:37.762Z</time></trkpt><trkpt lat="45.4845565" lon="10.4563191"><ele>158.0</ele><time>2026-03-28T08:32:38.762Z</time></trkpt><trkpt lat="45.4845549" lon="10.4561463"><ele>157.75</ele><time>2026-03-28T08:32:39.761Z</time></trkpt><trkpt lat="45.4845535" lon="10.4559808"><ele>157.5</ele><time>2026-03-28T08:32:40.762Z</time></trkpt><trkpt lat="45.4845515" lon="10.4558155"><ele>157.25</ele><time>2026-03-28T08:32:41.762Z</time></trkpt><trkpt lat="45.4845519" lon="10.4556599"><ele>157.0</ele><time>2026-03-28T08:32:42.761Z</time></trkpt><trkpt lat="45.4845545" lon="10.455488"><ele>156.75</ele><time>2026-03-28T08:32:43.762Z</time></trkpt><trkpt lat="45.4845558" lon="10.455325"><ele>156.5</ele><time>2026-03-28T08:32:44.762Z</time></trkpt><trkpt lat="45.4845543" lon="10.4551529"><ele>156.25</ele><time>2026-03-28T08:32:45.762Z</time></trkpt><trkpt lat="45.4845579" lon="10.4549907"><ele>156.0</ele><time>2026-03-28T08:32:46.761Z</time></trkpt><trkpt lat="45.4845593" lon="10.4548388"><ele>156.0</ele><time>2026-03-28T08:32:47.761Z</time></trkpt><trkpt lat="45.4845622" lon="10.4547021"><ele>156.0</ele><time>2026-03-28T08:32:48.761Z</time></trkpt><trkpt lat="45.4845656" lon="10.4545932"><ele>156.0</ele><time>2026-03-28T08:32:49.761Z</time></trkpt><trkpt lat="45.4845678" lon="10.4544922"><ele>156.0</ele><time>2026-03-28T08:32:50.762Z</time></trkpt><trkpt lat="45.4845717" lon="10.4543802"><ele>156.0</ele><time>2026-03-28T08:32:51.762Z</time></trkpt><trkpt lat="45.4845771" lon="10.4542759"><ele>156.0</ele><time>2026-03-28T08:32:52.762Z</time></trkpt><trkpt lat="45.4845797" lon="10.454173"><ele>155.8</ele><time>2026-03-28T08:32:53.762Z</time></trkpt><trkpt lat="45.4845524" lon="10.4540177"><ele>155.6</ele><time>2026-03-28T08:32:55.761Z</time></trkpt><trkpt lat="45.4844851" lon="10.4539664"><ele>155.4</ele><time>2026-03-28T08:32:57.761Z</time></trkpt><trkpt lat="45.4843667" lon="10.4539452"><ele>155.2</ele><time>2026-03-28T08:32:59.761Z</time></trkpt><trkpt lat="45.4842785" lon="10.4539365"><ele>155.0</ele><time>2026-03-28T08:33:00.762Z</time></trkpt><trkpt lat="45.4841725" lon="10.4539222"><ele>155.0</ele><time>2026-03-28T08:33:01.762Z</time></trkpt><trkpt lat="45.4840466" lon="10.4539004"><ele>155.0</ele><time>2026-03-28T08:33:02.761Z</time></trkpt><trkpt lat="45.4839183" lon="10.4538758"><ele>155.0</ele><time>2026-03-28T08:33:03.761Z</time></trkpt><trkpt lat="45.4837983" lon="10.4538565"><ele>155.0</ele><time>2026-03-28T08:33:04.761Z</time></trkpt><trkpt lat="45.4836813" lon="10.4538389"><ele>154.75</ele><time>2026-03-28T08:33:05.761Z</time></trkpt><trkpt lat="45.4835625" lon="10.4538194"><ele>154.5</ele><time>2026-03-28T08:33:06.761Z</time></trkpt><trkpt lat="45.4834398" lon="10.4537997"><ele>154.25</ele><time>2026-03-28T08:33:07.761Z</time></trkpt><trkpt lat="45.4833144" lon="10.4537844"><ele>154.0</ele><time>2026-03-28T08:33:08.762Z</time></trkpt><trkpt lat="45.4831912" lon="10.453768"><ele>153.75</ele><time>2026-03-28T08:33:09.762Z</time></trkpt><trkpt lat="45.4830676" lon="10.4537484"><ele>153.5</ele><time>2026-03-28T08:33:10.762Z</time></trkpt><trkpt lat="45.4829445" lon="10.4537319"><ele>153.25</ele><time>2026-03-28T08:33:11.761Z</time></trkpt><trkpt lat="45.4828257" lon="10.4537186"><ele>153.0</ele><time>2026-03-28T08:33:12.761Z</time></trkpt><trkpt lat="45.4827065" lon="10.4536997"><ele>152.75</ele><time>2026-03-28T08:33:13.761Z</time></trkpt><trkpt lat="45.4825904" lon="10.4536807"><ele>152.5</ele><time>2026-03-28T08:33:14.761Z</time></trkpt><trkpt lat="45.4824813" lon="10.4536723"><ele>152.25</ele><time>2026-03-28T08:33:15.762Z</time></trkpt><trkpt lat="45.4823681" lon="10.4536595"><ele>152.0</ele><time>2026-03-28T08:33:16.763Z</time></trkpt><trkpt lat="45.482253" lon="10.4536407"><ele>152.0</ele><time>2026-03-28T08:33:17.762Z</time></trkpt><trkpt lat="45.4821391" lon="10.4536261"><ele>152.0</ele><time>2026-03-28T08:33:18.761Z</time></trkpt><trkpt lat="45.4820276" lon="10.4536141"><ele>152.0</ele><time>2026-03-28T08:33:19.761Z</time></trkpt><trkpt lat="45.4819155" lon="10.4535964"><ele>152.0</ele><time>2026-03-28T08:33:20.762Z</time></trkpt><trkpt lat="45.4818042" lon="10.4535769"><ele>152.0</ele><time>2026-03-28T08:33:21.761Z</time></trkpt><trkpt lat="45.4816927" lon="10.4535572"><ele>152.0</ele><time>2026-03-28T08:33:22.761Z</time></trkpt><trkpt lat="45.48158" lon="10.4535372"><ele>152.0</ele><time>2026-03-28T08:33:23.761Z</time></trkpt><trkpt lat="45.4814649" lon="10.4535227"><ele>152.0</ele><time>2026-03-28T08:33:24.762Z</time></trkpt><trkpt lat="45.4813479" lon="10.4535037"><ele>151.75</ele><time>2026-03-28T08:33:25.762Z</time></trkpt><trkpt lat="45.4812234" lon="10.4534845"><ele>151.5</ele><time>2026-03-28T08:33:26.762Z</time></trkpt><trkpt lat="45.4810975" lon="10.4534663"><ele>151.25</ele><time>2026-03-28T08:33:27.762Z</time></trkpt><trkpt lat="45.4809756" lon="10.4534482"><ele>151.0</ele><time>2026-03-28T08:33:28.761Z</time></trkpt><trkpt lat="45.4808484" lon="10.4534292"><ele>151.0</ele><time>2026-03-28T08:33:29.761Z</time></trkpt><trkpt lat="45.4807203" lon="10.453409"><ele>151.0</ele><time>2026-03-28T08:33:30.762Z</time></trkpt><trkpt lat="45.4805892" lon="10.453389"><ele>151.0</ele><time>2026-03-28T08:33:31.763Z</time></trkpt><trkpt lat="45.4804581" lon="10.4533715"><ele>151.0</ele><time>2026-03-28T08:33:32.761Z</time></trkpt><trkpt lat="45.4803385" lon="10.4533578"><ele>151.2</ele><time>2026-03-28T08:33:33.761Z</time></trkpt><trkpt lat="45.4802308" lon="10.4533441"><ele>151.39999999999998</ele><time>2026-03-28T08:33:34.761Z</time></trkpt><trkpt lat="45.4801326" lon="10.4533412"><ele>151.6</ele><time>2026-03-28T08:33:35.762Z</time></trkpt><trkpt lat="45.4800459" lon="10.4533398"><ele>151.79999999999998</ele><time>2026-03-28T08:33:36.762Z</time></trkpt><trkpt lat="45.4799716" lon="10.4533512"><ele>152.0</ele><time>2026-03-28T08:33:37.761Z</time></trkpt><trkpt lat="45.4798842" lon="10.4533925"><ele>152.0</ele><time>2026-03-28T08:33:38.762Z</time></trkpt><trkpt lat="45.4797887" lon="10.4534632"><ele>152.0</ele><time>2026-03-28T08:33:39.761Z</time></trkpt><trkpt lat="45.4796826" lon="10.4535469"><ele>152.0</ele><time>2026-03-28T08:33:40.761Z</time></trkpt><trkpt lat="45.4795677" lon="10.4536386"><ele>152.0</ele><time>2026-03-28T08:33:41.761Z</time></trkpt><trkpt lat="45.4794472" lon="10.4537442"><ele>151.75</ele><time>2026-03-28T08:33:42.762Z</time></trkpt><trkpt lat="45.4793233" lon="10.4538697"><ele>151.5</ele><time>2026-03-28T08:33:43.761Z</time></trkpt><trkpt lat="45.4792076" lon="10.4539928"><ele>151.25</ele><time>2026-03-28T08:33:44.762Z</time></trkpt><trkpt lat="45.4791012" lon="10.4541111"><ele>151.0</ele><time>2026-03-28T08:33:45.762Z</time></trkpt><trkpt lat="45.4790005" lon="10.4542337"><ele>151.0</ele><time>2026-03-28T08:33:46.761Z</time></trkpt><trkpt lat="45.4789045" lon="10.454356"><ele>151.0</ele><time>2026-03-28T08:33:47.761Z</time></trkpt><trkpt lat="45.4788098" lon="10.4544703"><ele>151.0</ele><time>2026-03-28T08:33:48.762Z</time></trkpt><trkpt lat="45.4787216" lon="10.4545821"><ele>151.0</ele><time>2026-03-28T08:33:49.761Z</time></trkpt><trkpt lat="45.4786374" lon="10.4546893"><ele>151.0</ele><time>2026-03-28T08:33:50.761Z</time></trkpt><trkpt lat="45.4785482" lon="10.4548012"><ele>151.0</ele><time>2026-03-28T08:33:51.761Z</time></trkpt><trkpt lat="45.4784544" lon="10.4549182"><ele>151.0</ele><time>2026-03-28T08:33:52.762Z</time></trkpt><trkpt lat="45.4783585" lon="10.4550383"><ele>151.0</ele><time>2026-03-28T08:33:53.761Z</time></trkpt><trkpt lat="45.4782604" lon="10.4551607"><ele>151.0</ele><time>2026-03-28T08:33:54.761Z</time></trkpt><trkpt lat="45.4781595" lon="10.4552831"><ele>151.0</ele><time>2026-03-28T08:33:55.762Z</time></trkpt><trkpt lat="45.4780594" lon="10.455406"><ele>151.0</ele><time>2026-03-28T08:33:56.761Z</time></trkpt><trkpt lat="45.4779653" lon="10.455522"><ele>151.0</ele><time>2026-03-28T08:33:57.762Z</time></trkpt><trkpt lat="45.4778758" lon="10.4556323"><ele>151.6</ele><time>2026-03-28T08:33:58.761Z</time></trkpt><trkpt lat="45.4777922" lon="10.4557343"><ele>152.2</ele><time>2026-03-28T08:33:59.762Z</time></trkpt><trkpt lat="45.4777136" lon="10.4558262"><ele>152.8</ele><time>2026-03-28T08:34:00.762Z</time></trkpt><trkpt lat="45.4776419" lon="10.4559051"><ele>153.4</ele><time>2026-03-28T08:34:01.761Z</time></trkpt><trkpt lat="45.4775563" lon="10.4560043"><ele>154.0</ele><time>2026-03-28T08:34:03.761Z</time></trkpt><trkpt lat="45.4775024" lon="10.4560732"><ele>154.0</ele><time>2026-03-28T08:34:05.761Z</time></trkpt><trkpt lat="45.4774432" lon="10.4561468"><ele>154.0</ele><time>2026-03-28T08:34:09.762Z</time></trkpt><trkpt lat="45.4773792" lon="10.4562481"><ele>154.0</ele><time>2026-03-28T08:34:11.761Z</time></trkpt><trkpt lat="45.4773452" lon="10.456336"><ele>154.0</ele><time>2026-03-28T08:34:12.762Z</time></trkpt><trkpt lat="45.47731" lon="10.456454"><ele>154.0</ele><time>2026-03-28T08:34:13.761Z</time></trkpt><trkpt lat="45.477273" lon="10.4565899"><ele>154.0</ele><time>2026-03-28T08:34:14.762Z</time></trkpt><trkpt lat="45.4772338" lon="10.4567372"><ele>153.75</ele><time>2026-03-28T08:34:15.761Z</time></trkpt><trkpt lat="45.4771955" lon="10.4569026"><ele>153.5</ele><time>2026-03-28T08:34:16.761Z</time></trkpt><trkpt lat="45.4771556" lon="10.4570793"><ele>153.25</ele><time>2026-03-28T08:34:17.762Z</time></trkpt><trkpt lat="45.4771155" lon="10.4572578"><ele>153.0</ele><time>2026-03-28T08:34:18.761Z</time></trkpt><trkpt lat="45.4770817" lon="10.4574314"><ele>153.5</ele><time>2026-03-28T08:34:19.762Z</time></trkpt><trkpt lat="45.4770522" lon="10.4576061"><ele>154.0</ele><time>2026-03-28T08:34:20.761Z</time></trkpt><trkpt lat="45.4770239" lon="10.4577777"><ele>154.5</ele><time>2026-03-28T08:34:21.762Z</time></trkpt><trkpt lat="45.4769907" lon="10.4579442"><ele>155.0</ele><time>2026-03-28T08:34:22.762Z</time></trkpt><trkpt lat="45.4769607" lon="10.4581046"><ele>155.0</ele><time>2026-03-28T08:34:23.762Z</time></trkpt><trkpt lat="45.4769307" lon="10.4582626"><ele>155.0</ele><time>2026-03-28T08:34:24.762Z</time></trkpt><trkpt lat="45.4769027" lon="10.4584089"><ele>155.0</ele><time>2026-03-28T08:34:25.761Z</time></trkpt><trkpt lat="45.4768732" lon="10.4585619"><ele>155.0</ele><time>2026-03-28T08:34:26.761Z</time></trkpt><trkpt lat="45.4768414" lon="10.4587219"><ele>155.0</ele><time>2026-03-28T08:34:27.761Z</time></trkpt><trkpt lat="45.4768048" lon="10.4588832"><ele>155.0</ele><time>2026-03-28T08:34:28.762Z</time></trkpt><trkpt lat="45.4767673" lon="10.4590323"><ele>155.0</ele><time>2026-03-28T08:34:29.761Z</time></trkpt><trkpt lat="45.4767364" lon="10.4591408"><ele>155.0</ele><time>2026-03-28T08:34:30.761Z</time></trkpt><trkpt lat="45.4767065" lon="10.4592441"><ele>155.0</ele><time>2026-03-28T08:34:31.762Z</time></trkpt><trkpt lat="45.4766729" lon="10.4593301"><ele>155.0</ele><time>2026-03-28T08:34:32.761Z</time></trkpt><trkpt lat="45.476627" lon="10.459399"><ele>155.0</ele><time>2026-03-28T08:34:33.761Z</time></trkpt><trkpt lat="45.4765673" lon="10.4594452"><ele>155.0</ele><time>2026-03-28T08:34:34.76Z</time></trkpt><trkpt lat="45.4764943" lon="10.4594964"><ele>155.0</ele><time>2026-03-28T08:34:35.76Z</time></trkpt><trkpt lat="45.4764138" lon="10.4595579"><ele>155.0</ele><time>2026-03-28T08:34:36.76Z</time></trkpt><trkpt lat="45.4763363" lon="10.459617"><ele>155.0</ele><time>2026-03-28T08:34:37.761Z</time></trkpt><trkpt lat="45.4762568" lon="10.4596791"><ele>155.0</ele><time>2026-03-28T08:34:38.761Z</time></trkpt><trkpt lat="45.4761663" lon="10.4597492"><ele>155.0</ele><time>2026-03-28T08:34:39.761Z</time></trkpt><trkpt lat="45.4760739" lon="10.4598224"><ele>155.0</ele><time>2026-03-28T08:34:40.761Z</time></trkpt><trkpt lat="45.4759758" lon="10.4599027"><ele>155.0</ele><time>2026-03-28T08:34:41.76Z</time></trkpt><trkpt lat="45.4758775" lon="10.4599907"><ele>155.0</ele><time>2026-03-28T08:34:42.76Z</time></trkpt><trkpt lat="45.475776" lon="10.4600792"><ele>155.0</ele><time>2026-03-28T08:34:43.76Z</time></trkpt><trkpt lat="45.4756746" lon="10.460171"><ele>155.0</ele><time>2026-03-28T08:34:44.761Z</time></trkpt><trkpt lat="45.4755706" lon="10.460257"><ele>155.0</ele><time>2026-03-28T08:34:45.76Z</time></trkpt><trkpt lat="45.4754535" lon="10.4603419"><ele>155.0</ele><time>2026-03-28T08:34:46.76Z</time></trkpt><trkpt lat="45.4753414" lon="10.4604199"><ele>154.4</ele><time>2026-03-28T08:34:47.76Z</time></trkpt><trkpt lat="45.4752336" lon="10.4604826"><ele>153.8</ele><time>2026-03-28T08:34:48.76Z</time></trkpt><trkpt lat="45.4751283" lon="10.4605308"><ele>153.2</ele><time>2026-03-28T08:34:49.76Z</time></trkpt><trkpt lat="45.4750275" lon="10.4605791"><ele>152.6</ele><time>2026-03-28T08:34:50.761Z</time></trkpt><trkpt lat="45.4749274" lon="10.4606325"><ele>152.0</ele><time>2026-03-28T08:34:51.76Z</time></trkpt><trkpt lat="45.474826" lon="10.4607055"><ele>152.0</ele><time>2026-03-28T08:34:52.761Z</time></trkpt><trkpt lat="45.4747234" lon="10.460789"><ele>152.0</ele><time>2026-03-28T08:34:53.761Z</time></trkpt><trkpt lat="45.4746163" lon="10.4608763"><ele>152.0</ele><time>2026-03-28T08:34:54.761Z</time></trkpt><trkpt lat="45.4745109" lon="10.4609666"><ele>152.0</ele><time>2026-03-28T08:34:55.761Z</time></trkpt><trkpt lat="45.4744021" lon="10.4610603"><ele>152.5</ele><time>2026-03-28T08:34:56.761Z</time></trkpt><trkpt lat="45.4742899" lon="10.4611598"><ele>153.0</ele><time>2026-03-28T08:34:57.76Z</time></trkpt><trkpt lat="45.4741849" lon="10.4612763"><ele>153.5</ele><time>2026-03-28T08:34:58.76Z</time></trkpt><trkpt lat="45.4740812" lon="10.4614136"><ele>154.0</ele><time>2026-03-28T08:34:59.761Z</time></trkpt><trkpt lat="45.4739729" lon="10.4615579"><ele>154.0</ele><time>2026-03-28T08:35:00.761Z</time></trkpt><trkpt lat="45.4738689" lon="10.4616906"><ele>154.0</ele><time>2026-03-28T08:35:01.76Z</time></trkpt><trkpt lat="45.4737591" lon="10.4618136"><ele>154.0</ele><time>2026-03-28T08:35:02.76Z</time></trkpt><trkpt lat="45.4736405" lon="10.4619294"><ele>154.0</ele><time>2026-03-28T08:35:03.76Z</time></trkpt><trkpt lat="45.4735188" lon="10.4620371"><ele>154.25</ele><time>2026-03-28T08:35:04.76Z</time></trkpt><trkpt lat="45.4733965" lon="10.4621373"><ele>154.5</ele><time>2026-03-28T08:35:05.76Z</time></trkpt><trkpt lat="45.4732723" lon="10.4622396"><ele>154.75</ele><time>2026-03-28T08:35:06.76Z</time></trkpt><trkpt lat="45.4731506" lon="10.4623591"><ele>155.0</ele><time>2026-03-28T08:35:07.761Z</time></trkpt><trkpt lat="45.4730293" lon="10.4624817"><ele>154.25</ele><time>2026-03-28T08:35:08.761Z</time></trkpt><trkpt lat="45.4729083" lon="10.4625932"><ele>153.5</ele><time>2026-03-28T08:35:09.761Z</time></trkpt><trkpt lat="45.4727957" lon="10.4627082"><ele>152.75</ele><time>2026-03-28T08:35:10.76Z</time></trkpt><trkpt lat="45.4726885" lon="10.4628151"><ele>152.0</ele><time>2026-03-28T08:35:11.76Z</time></trkpt><trkpt lat="45.4725845" lon="10.4629217"><ele>152.5</ele><time>2026-03-28T08:35:12.76Z</time></trkpt><trkpt lat="45.472475" lon="10.4630334"><ele>153.0</ele><time>2026-03-28T08:35:13.761Z</time></trkpt><trkpt lat="45.472366" lon="10.4631486"><ele>153.5</ele><time>2026-03-28T08:35:14.761Z</time></trkpt><trkpt lat="45.4722592" lon="10.4632691"><ele>154.0</ele><time>2026-03-28T08:35:15.761Z</time></trkpt><trkpt lat="45.4721426" lon="10.463392"><ele>153.66666666666669</ele><time>2026-03-28T08:35:16.761Z</time></trkpt><trkpt lat="45.4720167" lon="10.4635112"><ele>153.33333333333334</ele><time>2026-03-28T08:35:17.76Z</time></trkpt><trkpt lat="45.4718815" lon="10.4636172"><ele>153.0</ele><time>2026-03-28T08:35:18.76Z</time></trkpt><trkpt lat="45.4717427" lon="10.4637059"><ele>153.0</ele><time>2026-03-28T08:35:19.76Z</time></trkpt><trkpt lat="45.4716118" lon="10.4637748"><ele>153.0</ele><time>2026-03-28T08:35:20.76Z</time></trkpt><trkpt lat="45.4714803" lon="10.4638433"><ele>153.0</ele><time>2026-03-28T08:35:21.76Z</time></trkpt><trkpt lat="45.4713499" lon="10.4639178"><ele>153.0</ele><time>2026-03-28T08:35:22.761Z</time></trkpt><trkpt lat="45.471223" lon="10.4640266"><ele>152.66666666666666</ele><time>2026-03-28T08:35:23.76Z</time></trkpt><trkpt lat="45.4711008" lon="10.4641679"><ele>152.33333333333331</ele><time>2026-03-28T08:35:24.76Z</time></trkpt><trkpt lat="45.4709831" lon="10.4643328"><ele>152.0</ele><time>2026-03-28T08:35:25.761Z</time></trkpt><trkpt lat="45.4708668" lon="10.4645132"><ele>152.0</ele><time>2026-03-28T08:35:26.761Z</time></trkpt><trkpt lat="45.4707523" lon="10.4647006"><ele>152.0</ele><time>2026-03-28T08:35:27.761Z</time></trkpt><trkpt lat="45.4706404" lon="10.4648819"><ele>152.0</ele><time>2026-03-28T08:35:28.761Z</time></trkpt><trkpt lat="45.47054" lon="10.4650545"><ele>152.0</ele><time>2026-03-28T08:35:29.762Z</time></trkpt><trkpt lat="45.470441" lon="10.4652203"><ele>152.0</ele><time>2026-03-28T08:35:30.762Z</time></trkpt><trkpt lat="45.4703259" lon="10.4653789"><ele>152.0</ele><time>2026-03-28T08:35:31.761Z</time></trkpt><trkpt lat="45.4702027" lon="10.4655265"><ele>152.0</ele><time>2026-03-28T08:35:32.761Z</time></trkpt><trkpt lat="45.4700746" lon="10.4656738"><ele>152.0</ele><time>2026-03-28T08:35:33.762Z</time></trkpt><trkpt lat="45.4699532" lon="10.4658146"><ele>152.0</ele><time>2026-03-28T08:35:34.762Z</time></trkpt><trkpt lat="45.4698491" lon="10.4659564"><ele>152.0</ele><time>2026-03-28T08:35:35.761Z</time></trkpt><trkpt lat="45.4697641" lon="10.466121"><ele>152.0</ele><time>2026-03-28T08:35:36.761Z</time></trkpt><trkpt lat="45.4696995" lon="10.4663085"><ele>152.0</ele><time>2026-03-28T08:35:37.762Z</time></trkpt><trkpt lat="45.4696434" lon="10.4665072"><ele>152.0</ele><time>2026-03-28T08:35:38.762Z</time></trkpt><trkpt lat="45.4695861" lon="10.4667024"><ele>152.5</ele><time>2026-03-28T08:35:39.761Z</time></trkpt><trkpt lat="45.4695405" lon="10.4668891"><ele>153.0</ele><time>2026-03-28T08:35:40.762Z</time></trkpt><trkpt lat="45.4695092" lon="10.4670706"><ele>153.5</ele><time>2026-03-28T08:35:41.762Z</time></trkpt><trkpt lat="45.4694759" lon="10.4672409"><ele>154.0</ele><time>2026-03-28T08:35:42.762Z</time></trkpt><trkpt lat="45.4694339" lon="10.4674001"><ele>154.0</ele><time>2026-03-28T08:35:43.762Z</time></trkpt><trkpt lat="45.4693806" lon="10.4675523"><ele>154.0</ele><time>2026-03-28T08:35:44.761Z</time></trkpt><trkpt lat="45.4693092" lon="10.4676972"><ele>154.0</ele><time>2026-03-28T08:35:45.762Z</time></trkpt><trkpt lat="45.4692228" lon="10.4678328"><ele>154.0</ele><time>2026-03-28T08:35:46.762Z</time></trkpt><trkpt lat="45.4691191" lon="10.4679535"><ele>154.0</ele><time>2026-03-28T08:35:47.762Z</time></trkpt><trkpt lat="45.4689998" lon="10.4680493"><ele>154.0</ele><time>2026-03-28T08:35:48.761Z</time></trkpt><trkpt lat="45.4688735" lon="10.4681262"><ele>154.0</ele><time>2026-03-28T08:35:49.761Z</time></trkpt><trkpt lat="45.4687405" lon="10.4682006"><ele>154.0</ele><time>2026-03-28T08:35:50.761Z</time></trkpt><trkpt lat="45.4686051" lon="10.4682684"><ele>154.0</ele><time>2026-03-28T08:35:51.762Z</time></trkpt><trkpt lat="45.468478" lon="10.4683175"><ele>154.0</ele><time>2026-03-28T08:35:52.761Z</time></trkpt><trkpt lat="45.4683578" lon="10.4683494"><ele>154.0</ele><time>2026-03-28T08:35:53.762Z</time></trkpt><trkpt lat="45.4682447" lon="10.4683769"><ele>154.0</ele><time>2026-03-28T08:35:54.762Z</time></trkpt><trkpt lat="45.4681452" lon="10.4684016"><ele>154.0</ele><time>2026-03-28T08:35:55.761Z</time></trkpt><trkpt lat="45.4680644" lon="10.4684176"><ele>154.0</ele><time>2026-03-28T08:35:56.762Z</time></trkpt><trkpt lat="45.4679932" lon="10.4684242"><ele>154.0</ele><time>2026-03-28T08:35:57.761Z</time></trkpt><trkpt lat="45.4679295" lon="10.4684345"><ele>154.0</ele><time>2026-03-28T08:35:58.761Z</time></trkpt><trkpt lat="45.4678762" lon="10.4684842"><ele>154.0</ele><time>2026-03-28T08:35:59.762Z</time></trkpt><trkpt lat="45.4678457" lon="10.4685772"><ele>154.0</ele><time>2026-03-28T08:36:00.761Z</time></trkpt><trkpt lat="45.4678238" lon="10.4687114"><ele>154.0</ele><time>2026-03-28T08:36:01.762Z</time></trkpt><trkpt lat="45.4678045" lon="10.4688669"><ele>153.5</ele><time>2026-03-28T08:36:02.762Z</time></trkpt><trkpt lat="45.4677847" lon="10.4690425"><ele>153.0</ele><time>2026-03-28T08:36:03.761Z</time></trkpt><trkpt lat="45.4677622" lon="10.4692324"><ele>152.5</ele><time>2026-03-28T08:36:04.762Z</time></trkpt><trkpt lat="45.4677384" lon="10.4694323"><ele>152.0</ele><time>2026-03-28T08:36:05.761Z</time></trkpt><trkpt lat="45.4677123" lon="10.4696435"><ele>152.0</ele><time>2026-03-28T08:36:06.762Z</time></trkpt><trkpt lat="45.4676835" lon="10.4698607"><ele>152.0</ele><time>2026-03-28T08:36:07.761Z</time></trkpt><trkpt lat="45.4676474" lon="10.4700653"><ele>152.0</ele><time>2026-03-28T08:36:08.762Z</time></trkpt><trkpt lat="45.4676056" lon="10.4702511"><ele>152.0</ele><time>2026-03-28T08:36:09.761Z</time></trkpt><trkpt lat="45.4675707" lon="10.4704403"><ele>152.25</ele><time>2026-03-28T08:36:10.761Z</time></trkpt><trkpt lat="45.4675254" lon="10.4706273"><ele>152.5</ele><time>2026-03-28T08:36:11.762Z</time></trkpt><trkpt lat="45.4674788" lon="10.470819"><ele>152.75</ele><time>2026-03-28T08:36:12.762Z</time></trkpt><trkpt lat="45.4674455" lon="10.4710139"><ele>153.0</ele><time>2026-03-28T08:36:13.761Z</time></trkpt><trkpt lat="45.467406" lon="10.4712036"><ele>153.25</ele><time>2026-03-28T08:36:14.761Z</time></trkpt><trkpt lat="45.4673703" lon="10.471394"><ele>153.5</ele><time>2026-03-28T08:36:15.761Z</time></trkpt><trkpt lat="45.467343" lon="10.4715709"><ele>153.75</ele><time>2026-03-28T08:36:16.762Z</time></trkpt><trkpt lat="45.467318" lon="10.4717311"><ele>154.0</ele><time>2026-03-28T08:36:17.761Z</time></trkpt><trkpt lat="45.467295" lon="10.4718605"><ele>154.0</ele><time>2026-03-28T08:36:18.761Z</time></trkpt><trkpt lat="45.467267" lon="10.4719757"><ele>154.0</ele><time>2026-03-28T08:36:19.761Z</time></trkpt><trkpt lat="45.4671775" lon="10.4720854"><ele>154.0</ele><time>2026-03-28T08:36:21.762Z</time></trkpt><trkpt lat="45.467108" lon="10.4720902"><ele>154.0</ele><time>2026-03-28T08:36:22.762Z</time></trkpt><trkpt lat="45.4670227" lon="10.4720604"><ele>154.0</ele><time>2026-03-28T08:36:23.761Z</time></trkpt><trkpt lat="45.46693" lon="10.4720023"><ele>154.66666666666669</ele><time>2026-03-28T08:36:24.761Z</time></trkpt><trkpt lat="45.4668298" lon="10.4719458"><ele>155.33333333333334</ele><time>2026-03-28T08:36:25.761Z</time></trkpt><trkpt lat="45.4667347" lon="10.4719187"><ele>156.0</ele><time>2026-03-28T08:36:26.762Z</time></trkpt><trkpt lat="45.4666517" lon="10.4718847"><ele>156.66666666666666</ele><time>2026-03-28T08:36:27.763Z</time></trkpt><trkpt lat="45.4665795" lon="10.4718449"><ele>157.33333333333331</ele><time>2026-03-28T08:36:28.761Z</time></trkpt><trkpt lat="45.4665102" lon="10.4718416"><ele>158.0</ele><time>2026-03-28T08:36:29.762Z</time></trkpt><trkpt lat="45.4664104" lon="10.471951"><ele>158.0</ele><time>2026-03-28T08:36:31.761Z</time></trkpt><trkpt lat="45.4663433" lon="10.4720041"><ele>158.0</ele><time>2026-03-28T08:36:32.762Z</time></trkpt><trkpt lat="45.4662512" lon="10.4720455"><ele>158.0</ele><time>2026-03-28T08:36:33.762Z</time></trkpt><trkpt lat="45.4661451" lon="10.4720967"><ele>158.0</ele><time>2026-03-28T08:36:34.763Z</time></trkpt><trkpt lat="45.4660298" lon="10.4721575"><ele>158.0</ele><time>2026-03-28T08:36:35.761Z</time></trkpt><trkpt lat="45.4659036" lon="10.472225"><ele>158.0</ele><time>2026-03-28T08:36:36.762Z</time></trkpt><trkpt lat="45.4657699" lon="10.4722926"><ele>158.0</ele><time>2026-03-28T08:36:37.762Z</time></trkpt><trkpt lat="45.4656303" lon="10.4723553"><ele>158.0</ele><time>2026-03-28T08:36:38.761Z</time></trkpt><trkpt lat="45.465494" lon="10.4724089"><ele>158.0</ele><time>2026-03-28T08:36:39.761Z</time></trkpt><trkpt lat="45.465365" lon="10.4724553"><ele>158.0</ele><time>2026-03-28T08:36:40.762Z</time></trkpt><trkpt lat="45.4652406" lon="10.472489"><ele>158.0</ele><time>2026-03-28T08:36:41.761Z</time></trkpt><trkpt lat="45.4651225" lon="10.4725134"><ele>158.0</ele><time>2026-03-28T08:36:42.761Z</time></trkpt><trkpt lat="45.4650109" lon="10.4725154"><ele>158.0</ele><time>2026-03-28T08:36:43.761Z</time></trkpt><trkpt lat="45.4649086" lon="10.4724995"><ele>158.0</ele><time>2026-03-28T08:36:44.762Z</time></trkpt><trkpt lat="45.4648028" lon="10.472487"><ele>158.0</ele><time>2026-03-28T08:36:45.762Z</time></trkpt><trkpt lat="45.4646916" lon="10.4724766"><ele>158.0</ele><time>2026-03-28T08:36:46.761Z</time></trkpt><trkpt lat="45.4645843" lon="10.4724605"><ele>158.0</ele><time>2026-03-28T08:36:47.762Z</time></trkpt><trkpt lat="45.4644865" lon="10.4724496"><ele>158.0</ele><time>2026-03-28T08:36:48.761Z</time></trkpt><trkpt lat="45.4643987" lon="10.4724393"><ele>158.14285714285717</ele><time>2026-03-28T08:36:49.762Z</time></trkpt><trkpt lat="45.4643153" lon="10.4724275"><ele>158.28571428571428</ele><time>2026-03-28T08:36:50.761Z</time></trkpt><trkpt lat="45.4642431" lon="10.4724238"><ele>158.42857142857144</ele><time>2026-03-28T08:36:51.761Z</time></trkpt><trkpt lat="45.4641785" lon="10.4724164"><ele>158.57142857142858</ele><time>2026-03-28T08:36:52.762Z</time></trkpt><trkpt lat="45.4640813" lon="10.472406"><ele>158.71428571428572</ele><time>2026-03-28T08:36:54.761Z</time></trkpt><trkpt lat="45.4640153" lon="10.4723919"><ele>158.85714285714286</ele><time>2026-03-28T08:36:57.762Z</time></trkpt><trkpt lat="45.4639518" lon="10.4723837"><ele>159.0</ele><time>2026-03-28T08:37:00.761Z</time></trkpt><trkpt lat="45.4638725" lon="10.4724547"><ele>159.0</ele><time>2026-03-28T08:37:03.761Z</time></trkpt><trkpt lat="45.4638491" lon="10.4725507"><ele>159.0</ele><time>2026-03-28T08:37:04.762Z</time></trkpt><trkpt lat="45.4638315" lon="10.4726671"><ele>159.0</ele><time>2026-03-28T08:37:05.762Z</time></trkpt><trkpt lat="45.4638117" lon="10.4728148"><ele>159.0</ele><time>2026-03-28T08:37:06.761Z</time></trkpt><trkpt lat="45.463791" lon="10.472978"><ele>159.0</ele><time>2026-03-28T08:37:07.761Z</time></trkpt><trkpt lat="45.4637756" lon="10.4731555"><ele>159.25</ele><time>2026-03-28T08:37:08.763Z</time></trkpt><trkpt lat="45.4637619" lon="10.4733353"><ele>159.5</ele><time>2026-03-28T08:37:09.761Z</time></trkpt><trkpt lat="45.4637491" lon="10.4735176"><ele>159.75</ele><time>2026-03-28T08:37:10.761Z</time></trkpt><trkpt lat="45.4637381" lon="10.4736877"><ele>160.0</ele><time>2026-03-28T08:37:11.761Z</time></trkpt><trkpt lat="45.4637291" lon="10.4738491"><ele>160.4</ele><time>2026-03-28T08:37:12.762Z</time></trkpt><trkpt lat="45.4637187" lon="10.4740091"><ele>160.8</ele><time>2026-03-28T08:37:13.762Z</time></trkpt><trkpt lat="45.4637074" lon="10.4741568"><ele>161.2</ele><time>2026-03-28T08:37:14.762Z</time></trkpt><trkpt lat="45.4636974" lon="10.4742906"><ele>161.6</ele><time>2026-03-28T08:37:15.762Z</time></trkpt><trkpt lat="45.4636937" lon="10.474412"><ele>162.0</ele><time>2026-03-28T08:37:16.761Z</time></trkpt><trkpt lat="45.4636857" lon="10.4745216"><ele>162.0</ele><time>2026-03-28T08:37:17.761Z</time></trkpt><trkpt lat="45.4636556" lon="10.4746092"><ele>162.0</ele><time>2026-03-28T08:37:18.762Z</time></trkpt><trkpt lat="45.4635487" lon="10.474641"><ele>162.0</ele><time>2026-03-28T08:37:20.761Z</time></trkpt><trkpt lat="45.4634916" lon="10.4746014"><ele>162.0</ele><time>2026-03-28T08:37:21.762Z</time></trkpt><trkpt lat="45.4634308" lon="10.4745411"><ele>162.0</ele><time>2026-03-28T08:37:22.761Z</time></trkpt><trkpt lat="45.4633636" lon="10.4744794"><ele>162.0</ele><time>2026-03-28T08:37:23.761Z</time></trkpt><trkpt lat="45.4632917" lon="10.4744057"><ele>162.0</ele><time>2026-03-28T08:37:24.762Z</time></trkpt><trkpt lat="45.463214" lon="10.4743308"><ele>162.0</ele><time>2026-03-28T08:37:25.762Z</time></trkpt><trkpt lat="45.4631405" lon="10.4742628"><ele>162.0</ele><time>2026-03-28T08:37:26.761Z</time></trkpt><trkpt lat="45.4630808" lon="10.4741988"><ele>162.0</ele><time>2026-03-28T08:37:27.762Z</time></trkpt><trkpt lat="45.4630292" lon="10.4741448"><ele>162.0</ele><time>2026-03-28T08:37:28.762Z</time></trkpt><trkpt lat="45.4629396" lon="10.4740657"><ele>162.0</ele><time>2026-03-28T08:37:30.761Z</time></trkpt><trkpt lat="45.4628813" lon="10.4740142"><ele>162.0</ele><time>2026-03-28T08:37:32.761Z</time></trkpt><trkpt lat="45.46282" lon="10.4739545"><ele>162.0</ele><time>2026-03-28T08:37:37.762Z</time></trkpt><trkpt lat="45.4627611" lon="10.4738731"><ele>162.0</ele><time>2026-03-28T08:37:41.762Z</time></trkpt><trkpt lat="45.4627093" lon="10.4737687"><ele>162.0</ele><time>2026-03-28T08:37:43.762Z</time></trkpt><trkpt lat="45.462617" lon="10.4737201"><ele>162.0</ele><time>2026-03-28T08:37:45.761Z</time></trkpt><trkpt lat="45.4625312" lon="10.4737897"><ele>162.0</ele><time>2026-03-28T08:37:47.761Z</time></trkpt><trkpt lat="45.4624767" lon="10.4738379"><ele>162.0</ele><time>2026-03-28T08:37:48.762Z</time></trkpt><trkpt lat="45.4624198" lon="10.4739022"><ele>162.0</ele><time>2026-03-28T08:37:49.762Z</time></trkpt><trkpt lat="45.4623527" lon="10.4739887"><ele>162.0</ele><time>2026-03-28T08:37:50.761Z</time></trkpt><trkpt lat="45.462283" lon="10.4740885"><ele>162.0</ele><time>2026-03-28T08:37:51.761Z</time></trkpt><trkpt lat="45.4622096" lon="10.4742103"><ele>162.0</ele><time>2026-03-28T08:37:52.762Z</time></trkpt><trkpt lat="45.462136" lon="10.4743302"><ele>161.0</ele><time>2026-03-28T08:37:53.761Z</time></trkpt><trkpt lat="45.4620628" lon="10.4744367"><ele>160.0</ele><time>2026-03-28T08:37:54.761Z</time></trkpt><trkpt lat="45.4619812" lon="10.4745605"><ele>159.0</ele><time>2026-03-28T08:37:55.762Z</time></trkpt><trkpt lat="45.461886" lon="10.4747024"><ele>158.0</ele><time>2026-03-28T08:37:56.761Z</time></trkpt><trkpt lat="45.4617853" lon="10.4748471"><ele>158.0</ele><time>2026-03-28T08:37:57.761Z</time></trkpt><trkpt lat="45.4616946" lon="10.4749754"><ele>158.0</ele><time>2026-03-28T08:37:58.762Z</time></trkpt><trkpt lat="45.4616252" lon="10.4750829"><ele>158.0</ele><time>2026-03-28T08:37:59.761Z</time></trkpt><trkpt lat="45.4615629" lon="10.4751743"><ele>158.0</ele><time>2026-03-28T08:38:00.762Z</time></trkpt><trkpt lat="45.4615051" lon="10.4752513"><ele>158.0</ele><time>2026-03-28T08:38:01.762Z</time></trkpt><trkpt lat="45.4614588" lon="10.4753172"><ele>158.0</ele><time>2026-03-28T08:38:02.761Z</time></trkpt><trkpt lat="45.4613838" lon="10.4754137"><ele>158.0</ele><time>2026-03-28T08:38:04.762Z</time></trkpt><trkpt lat="45.4612836" lon="10.4754288"><ele>158.0</ele><time>2026-03-28T08:38:06.761Z</time></trkpt><trkpt lat="45.4612177" lon="10.4753875"><ele>158.0</ele><time>2026-03-28T08:38:07.761Z</time></trkpt><trkpt lat="45.4611366" lon="10.4753201"><ele>158.0</ele><time>2026-03-28T08:38:08.761Z</time></trkpt><trkpt lat="45.4610473" lon="10.4752486"><ele>157.8</ele><time>2026-03-28T08:38:09.761Z</time></trkpt><trkpt lat="45.4609569" lon="10.4751811"><ele>157.60000000000002</ele><time>2026-03-28T08:38:10.762Z</time></trkpt><trkpt lat="45.4608722" lon="10.4751083"><ele>157.39999999999998</ele><time>2026-03-28T08:38:11.762Z</time></trkpt><trkpt lat="45.4607942" lon="10.4750358"><ele>157.2</ele><time>2026-03-28T08:38:12.762Z</time></trkpt><trkpt lat="45.46072" lon="10.4749713"><ele>157.0</ele><time>2026-03-28T08:38:13.761Z</time></trkpt><trkpt lat="45.4606544" lon="10.4749161"><ele>156.99999999999997</ele><time>2026-03-28T08:38:14.761Z</time></trkpt><trkpt lat="45.4605926" lon="10.474864"><ele>157.0</ele><time>2026-03-28T08:38:15.762Z</time></trkpt><trkpt lat="45.4605266" lon="10.4748116"><ele>157.0</ele><time>2026-03-28T08:38:16.761Z</time></trkpt><trkpt lat="45.4604622" lon="10.4747545"><ele>157.0</ele><time>2026-03-28T08:38:17.762Z</time></trkpt><trkpt lat="45.4604005" lon="10.4746952"><ele>157.0</ele><time>2026-03-28T08:38:18.761Z</time></trkpt><trkpt lat="45.4603426" lon="10.4746523"><ele>156.99999999999997</ele><time>2026-03-28T08:38:19.761Z</time></trkpt><trkpt lat="45.4602689" lon="10.4746535"><ele>157.0</ele><time>2026-03-28T08:38:21.761Z</time></trkpt><trkpt lat="45.4602236" lon="10.4747178"><ele>156.6</ele><time>2026-03-28T08:38:23.762Z</time></trkpt><trkpt lat="45.4601506" lon="10.4748538"><ele>156.2</ele><time>2026-03-28T08:38:25.762Z</time></trkpt><trkpt lat="45.4600854" lon="10.4749953"><ele>155.8</ele><time>2026-03-28T08:38:27.761Z</time></trkpt><trkpt lat="45.460046" lon="10.4750884"><ele>155.4</ele><time>2026-03-28T08:38:28.761Z</time></trkpt><trkpt lat="45.459996" lon="10.4752166"><ele>155.0</ele><time>2026-03-28T08:38:29.761Z</time></trkpt><trkpt lat="45.4599341" lon="10.4753787"><ele>155.0</ele><time>2026-03-28T08:38:30.762Z</time></trkpt><trkpt lat="45.4598655" lon="10.4755591"><ele>155.0</ele><time>2026-03-28T08:38:31.762Z</time></trkpt><trkpt lat="45.4597833" lon="10.4757784"><ele>155.0</ele><time>2026-03-28T08:38:32.762Z</time></trkpt><trkpt lat="45.4596769" lon="10.4760165"><ele>154.66666666666666</ele><time>2026-03-28T08:38:33.762Z</time></trkpt><trkpt lat="45.4595775" lon="10.4762345"><ele>154.33333333333334</ele><time>2026-03-28T08:38:34.762Z</time></trkpt><trkpt lat="45.4594891" lon="10.4764506"><ele>154.0</ele><time>2026-03-28T08:38:35.762Z</time></trkpt><trkpt lat="45.459408" lon="10.4766607"><ele>154.0</ele><time>2026-03-28T08:38:36.762Z</time></trkpt><trkpt lat="45.4593234" lon="10.4768724"><ele>154.0</ele><time>2026-03-28T08:38:37.762Z</time></trkpt><trkpt lat="45.4592356" lon="10.4770886"><ele>154.0</ele><time>2026-03-28T08:38:38.761Z</time></trkpt><trkpt lat="45.4591508" lon="10.477302"><ele>154.0</ele><time>2026-03-28T08:38:39.761Z</time></trkpt><trkpt lat="45.4590726" lon="10.4775099"><ele>154.0</ele><time>2026-03-28T08:38:40.762Z</time></trkpt><trkpt lat="45.4589975" lon="10.4777024"><ele>154.0</ele><time>2026-03-28T08:38:41.761Z</time></trkpt><trkpt lat="45.4589216" lon="10.477887"><ele>154.33333333333334</ele><time>2026-03-28T08:38:42.761Z</time></trkpt><trkpt lat="45.4588486" lon="10.4780728"><ele>154.66666666666666</ele><time>2026-03-28T08:38:43.762Z</time></trkpt><trkpt lat="45.4587838" lon="10.4782606"><ele>155.0</ele><time>2026-03-28T08:38:44.762Z</time></trkpt><trkpt lat="45.4587171" lon="10.4784604"><ele>155.33333333333331</ele><time>2026-03-28T08:38:45.761Z</time></trkpt><trkpt lat="45.4586512" lon="10.478665"><ele>155.66666666666666</ele><time>2026-03-28T08:38:46.761Z</time></trkpt><trkpt lat="45.4585861" lon="10.4788751"><ele>156.0</ele><time>2026-03-28T08:38:47.762Z</time></trkpt><trkpt lat="45.4585263" lon="10.4790885"><ele>156.66666666666666</ele><time>2026-03-28T08:38:48.761Z</time></trkpt><trkpt lat="45.458471" lon="10.4793017"><ele>157.33333333333331</ele><time>2026-03-28T08:38:49.762Z</time></trkpt><trkpt lat="45.4584106" lon="10.4795073"><ele>158.0</ele><time>2026-03-28T08:38:50.762Z</time></trkpt><trkpt lat="45.4583337" lon="10.4796986"><ele>158.0</ele><time>2026-03-28T08:38:51.762Z</time></trkpt><trkpt lat="45.4582421" lon="10.4798709"><ele>158.0</ele><time>2026-03-28T08:38:52.761Z</time></trkpt><trkpt lat="45.4581366" lon="10.4800299"><ele>158.0</ele><time>2026-03-28T08:38:53.761Z</time></trkpt><trkpt lat="45.4580211" lon="10.4801865"><ele>157.66666666666666</ele><time>2026-03-28T08:38:54.762Z</time></trkpt><trkpt lat="45.4578999" lon="10.4803441"><ele>157.33333333333334</ele><time>2026-03-28T08:38:55.762Z</time></trkpt><trkpt lat="45.4577781" lon="10.4805017"><ele>157.0</ele><time>2026-03-28T08:38:56.761Z</time></trkpt><trkpt lat="45.4576639" lon="10.4806499"><ele>157.0</ele><time>2026-03-28T08:38:57.762Z</time></trkpt><trkpt lat="45.4575581" lon="10.4807888"><ele>157.0</ele><time>2026-03-28T08:38:58.761Z</time></trkpt><trkpt lat="45.4574542" lon="10.4809168"><ele>157.0</ele><time>2026-03-28T08:38:59.761Z</time></trkpt><trkpt lat="45.4573571" lon="10.4810402"><ele>157.0</ele><time>2026-03-28T08:39:00.763Z</time></trkpt><trkpt lat="45.4572815" lon="10.4811786"><ele>157.5</ele><time>2026-03-28T08:39:01.761Z</time></trkpt><trkpt lat="45.457223" lon="10.4813407"><ele>158.0</ele><time>2026-03-28T08:39:02.762Z</time></trkpt><trkpt lat="45.4571889" lon="10.4815182"><ele>158.5</ele><time>2026-03-28T08:39:03.761Z</time></trkpt><trkpt lat="45.4571661" lon="10.4817097"><ele>159.0</ele><time>2026-03-28T08:39:04.762Z</time></trkpt><trkpt lat="45.4571496" lon="10.4819116"><ele>159.5</ele><time>2026-03-28T08:39:05.761Z</time></trkpt><trkpt lat="45.4571337" lon="10.4821209"><ele>160.0</ele><time>2026-03-28T08:39:06.762Z</time></trkpt><trkpt lat="45.457119" lon="10.4823357"><ele>160.5</ele><time>2026-03-28T08:39:07.761Z</time></trkpt><trkpt lat="45.457106" lon="10.4825442"><ele>161.0</ele><time>2026-03-28T08:39:08.761Z</time></trkpt><trkpt lat="45.4570976" lon="10.4827602"><ele>159.66666666666666</ele><time>2026-03-28T08:39:09.761Z</time></trkpt><trkpt lat="45.4570944" lon="10.4829853"><ele>158.33333333333334</ele><time>2026-03-28T08:39:10.761Z</time></trkpt><trkpt lat="45.4570903" lon="10.4832171"><ele>157.0</ele><time>2026-03-28T08:39:11.762Z</time></trkpt><trkpt lat="45.4570834" lon="10.4834535"><ele>157.0</ele><time>2026-03-28T08:39:12.761Z</time></trkpt><trkpt lat="45.4570824" lon="10.4836954"><ele>157.0</ele><time>2026-03-28T08:39:13.761Z</time></trkpt><trkpt lat="45.4570875" lon="10.4839324"><ele>157.0</ele><time>2026-03-28T08:39:14.761Z</time></trkpt><trkpt lat="45.4570995" lon="10.4841452"><ele>159.5</ele><time>2026-03-28T08:39:15.763Z</time></trkpt><trkpt lat="45.4571319" lon="10.4843377"><ele>162.0</ele><time>2026-03-28T08:39:16.761Z</time></trkpt><trkpt lat="45.4571911" lon="10.4845223"><ele>164.5</ele><time>2026-03-28T08:39:17.762Z</time></trkpt><trkpt lat="45.4572595" lon="10.4846981"><ele>167.0</ele><time>2026-03-28T08:39:18.761Z</time></trkpt><trkpt lat="45.457313" lon="10.4848798"><ele>167.0</ele><time>2026-03-28T08:39:19.762Z</time></trkpt><trkpt lat="45.4573352" lon="10.4850619"><ele>167.0</ele><time>2026-03-28T08:39:20.761Z</time></trkpt><trkpt lat="45.4573405" lon="10.4852344"><ele>167.0</ele><time>2026-03-28T08:39:21.762Z</time></trkpt><trkpt lat="45.4573429" lon="10.4853985"><ele>167.0</ele><time>2026-03-28T08:39:22.761Z</time></trkpt><trkpt lat="45.4573523" lon="10.4855608"><ele>167.0</ele><time>2026-03-28T08:39:23.761Z</time></trkpt><trkpt lat="45.4573752" lon="10.4857184"><ele>167.0</ele><time>2026-03-28T08:39:24.762Z</time></trkpt><trkpt lat="45.4574262" lon="10.4858857"><ele>167.0</ele><time>2026-03-28T08:39:25.763Z</time></trkpt><trkpt lat="45.4574893" lon="10.4860571"><ele>167.0</ele><time>2026-03-28T08:39:26.761Z</time></trkpt><trkpt lat="45.4575542" lon="10.4862098"><ele>166.16666666666666</ele><time>2026-03-28T08:39:27.762Z</time></trkpt><trkpt lat="45.4576214" lon="10.4863479"><ele>165.33333333333331</ele><time>2026-03-28T08:39:28.762Z</time></trkpt><trkpt lat="45.4576684" lon="10.4864674"><ele>164.5</ele><time>2026-03-28T08:39:29.763Z</time></trkpt><trkpt lat="45.4576956" lon="10.4865665"><ele>163.66666666666666</ele><time>2026-03-28T08:39:30.761Z</time></trkpt><trkpt lat="45.4577124" lon="10.4866579"><ele>162.83333333333334</ele><time>2026-03-28T08:39:31.761Z</time></trkpt><trkpt lat="45.4577148" lon="10.4867593"><ele>162.0</ele><time>2026-03-28T08:39:32.762Z</time></trkpt><trkpt lat="45.4576998" lon="10.4868753"><ele>162.0</ele><time>2026-03-28T08:39:33.761Z</time></trkpt><trkpt lat="45.4576752" lon="10.4869957"><ele>162.0</ele><time>2026-03-28T08:39:34.762Z</time></trkpt><trkpt lat="45.4576425" lon="10.4871161"><ele>162.0</ele><time>2026-03-28T08:39:35.761Z</time></trkpt><trkpt lat="45.4576174" lon="10.4872582"><ele>162.0</ele><time>2026-03-28T08:39:36.762Z</time></trkpt><trkpt lat="45.4576012" lon="10.4874013"><ele>162.0</ele><time>2026-03-28T08:39:37.761Z</time></trkpt><trkpt lat="45.4575985" lon="10.4875527"><ele>161.16666666666666</ele><time>2026-03-28T08:39:38.762Z</time></trkpt><trkpt lat="45.4576131" lon="10.4876834"><ele>160.33333333333334</ele><time>2026-03-28T08:39:39.762Z</time></trkpt><trkpt lat="45.4576419" lon="10.4877892"><ele>159.5</ele><time>2026-03-28T08:39:40.762Z</time></trkpt><trkpt lat="45.4576668" lon="10.487886"><ele>158.66666666666669</ele><time>2026-03-28T08:39:41.761Z</time></trkpt><trkpt lat="45.4576917" lon="10.4879774"><ele>157.83333333333334</ele><time>2026-03-28T08:39:42.761Z</time></trkpt><trkpt lat="45.4577195" lon="10.4880719"><ele>157.0</ele><time>2026-03-28T08:39:43.761Z</time></trkpt><trkpt lat="45.4577491" lon="10.4881544"><ele>157.0</ele><time>2026-03-28T08:39:44.762Z</time></trkpt><trkpt lat="45.457803" lon="10.4882948"><ele>157.0</ele><time>2026-03-28T08:39:46.761Z</time></trkpt><trkpt lat="45.4578447" lon="10.4884148"><ele>157.0</ele><time>2026-03-28T08:39:48.762Z</time></trkpt><trkpt lat="45.4578908" lon="10.4885321"><ele>157.0</ele><time>2026-03-28T08:39:50.762Z</time></trkpt><trkpt lat="45.4579377" lon="10.4886503"><ele>157.0</ele><time>2026-03-28T08:39:52.761Z</time></trkpt><trkpt lat="45.4579686" lon="10.4887346"><ele>157.85714285714283</ele><time>2026-03-28T08:39:55.762Z</time></trkpt><trkpt lat="45.4579998" lon="10.4888348"><ele>158.71428571428572</ele><time>2026-03-28T08:39:58.761Z</time></trkpt><trkpt lat="45.4580276" lon="10.4889171"><ele>159.57142857142856</ele><time>2026-03-28T08:40:01.762Z</time></trkpt><trkpt lat="45.4580456" lon="10.489006"><ele>160.42857142857142</ele><time>2026-03-28T08:40:04.762Z</time></trkpt><trkpt lat="45.4580873" lon="10.489125"><ele>161.28571428571428</ele><time>2026-03-28T08:40:08.761Z</time></trkpt><trkpt lat="45.4580823" lon="10.489219"><ele>162.14285714285714</ele><time>2026-03-28T08:40:11.761Z</time></trkpt><trkpt lat="45.4580792" lon="10.4893123"><ele>163.0</ele><time>2026-03-28T08:40:16.762Z</time></trkpt><trkpt lat="45.4580392" lon="10.489413"><ele>163.0</ele><time>2026-03-28T08:40:19.762Z</time></trkpt><trkpt lat="45.4579551" lon="10.4894651"><ele>163.0</ele><time>2026-03-28T08:40:21.761Z</time></trkpt><trkpt lat="45.4578487" lon="10.4895538"><ele>163.0</ele><time>2026-03-28T08:40:23.762Z</time></trkpt><trkpt lat="45.4577911" lon="10.489593"><ele>163.0</ele><time>2026-03-28T08:40:24.761Z</time></trkpt><trkpt lat="45.4577249" lon="10.4896343"><ele>163.0</ele><time>2026-03-28T08:40:25.761Z</time></trkpt><trkpt lat="45.4576531" lon="10.4896733"><ele>163.0</ele><time>2026-03-28T08:40:26.761Z</time></trkpt><trkpt lat="45.4575849" lon="10.4897064"><ele>163.2</ele><time>2026-03-28T08:40:27.762Z</time></trkpt><trkpt lat="45.4574715" lon="10.4897499"><ele>163.4</ele><time>2026-03-28T08:40:29.762Z</time></trkpt><trkpt lat="45.4573655" lon="10.4897485"><ele>163.6</ele><time>2026-03-28T08:40:31.762Z</time></trkpt><trkpt lat="45.4573072" lon="10.4896983"><ele>163.79999999999998</ele><time>2026-03-28T08:40:32.761Z</time></trkpt><trkpt lat="45.4572478" lon="10.4896256"><ele>164.0</ele><time>2026-03-28T08:40:33.761Z</time></trkpt><trkpt lat="45.4571858" lon="10.4895384"><ele>163.39999999999998</ele><time>2026-03-28T08:40:34.761Z</time></trkpt><trkpt lat="45.4571197" lon="10.4894507"><ele>162.8</ele><time>2026-03-28T08:40:35.761Z</time></trkpt><trkpt lat="45.4570531" lon="10.4893538"><ele>162.2</ele><time>2026-03-28T08:40:36.762Z</time></trkpt><trkpt lat="45.4569831" lon="10.48924"><ele>161.60000000000002</ele><time>2026-03-28T08:40:37.762Z</time></trkpt><trkpt lat="45.4569102" lon="10.4891217"><ele>161.0</ele><time>2026-03-28T08:40:38.762Z</time></trkpt><trkpt lat="45.4568509" lon="10.4890065"><ele>160.8</ele><time>2026-03-28T08:40:39.761Z</time></trkpt><trkpt lat="45.4568128" lon="10.4889006"><ele>160.60000000000002</ele><time>2026-03-28T08:40:40.761Z</time></trkpt><trkpt lat="45.4567869" lon="10.4888026"><ele>160.4</ele><time>2026-03-28T08:40:41.762Z</time></trkpt><trkpt lat="45.4567592" lon="10.4886387"><ele>160.2</ele><time>2026-03-28T08:40:43.762Z</time></trkpt><trkpt lat="45.4567552" lon="10.4884836"><ele>160.0</ele><time>2026-03-28T08:40:45.762Z</time></trkpt><trkpt lat="45.4567634" lon="10.4883424"><ele>159.75</ele><time>2026-03-28T08:40:46.761Z</time></trkpt><trkpt lat="45.4567771" lon="10.4881752"><ele>159.5</ele><time>2026-03-28T08:40:47.761Z</time></trkpt><trkpt lat="45.4567991" lon="10.4879872"><ele>159.25</ele><time>2026-03-28T08:40:48.761Z</time></trkpt><trkpt lat="45.4568167" lon="10.487782"><ele>159.0</ele><time>2026-03-28T08:40:49.762Z</time></trkpt><trkpt lat="45.4568269" lon="10.4875667"><ele>157.66666666666666</ele><time>2026-03-28T08:40:50.761Z</time></trkpt><trkpt lat="45.4568352" lon="10.4873454"><ele>156.33333333333331</ele><time>2026-03-28T08:40:51.761Z</time></trkpt><trkpt lat="45.4568418" lon="10.4871113"><ele>155.0</ele><time>2026-03-28T08:40:52.762Z</time></trkpt><trkpt lat="45.4568501" lon="10.4868654"><ele>155.0</ele><time>2026-03-28T08:40:53.761Z</time></trkpt><trkpt lat="45.4568572" lon="10.4866123"><ele>155.0</ele><time>2026-03-28T08:40:54.761Z</time></trkpt><trkpt lat="45.4568652" lon="10.4863534"><ele>155.0</ele><time>2026-03-28T08:40:55.762Z</time></trkpt><trkpt lat="45.456874" lon="10.4860901"><ele>155.0</ele><time>2026-03-28T08:40:56.761Z</time></trkpt><trkpt lat="45.4568738" lon="10.4858185"><ele>155.0</ele><time>2026-03-28T08:40:57.762Z</time></trkpt><trkpt lat="45.4568614" lon="10.4855456"><ele>155.0</ele><time>2026-03-28T08:40:58.762Z</time></trkpt><trkpt lat="45.4568386" lon="10.4852761"><ele>155.0</ele><time>2026-03-28T08:40:59.761Z</time></trkpt><trkpt lat="45.4568181" lon="10.4850255"><ele>155.0</ele><time>2026-03-28T08:41:00.762Z</time></trkpt><trkpt lat="45.4568007" lon="10.4847843"><ele>155.0</ele><time>2026-03-28T08:41:01.762Z</time></trkpt><trkpt lat="45.4567794" lon="10.4845461"><ele>155.33333333333331</ele><time>2026-03-28T08:41:02.761Z</time></trkpt><trkpt lat="45.4567488" lon="10.4843144"><ele>155.66666666666666</ele><time>2026-03-28T08:41:03.761Z</time></trkpt><trkpt lat="45.4567037" lon="10.484095"><ele>156.0</ele><time>2026-03-28T08:41:04.761Z</time></trkpt><trkpt lat="45.4566443" lon="10.4838958"><ele>156.25</ele><time>2026-03-28T08:41:05.761Z</time></trkpt><trkpt lat="45.4565782" lon="10.4837158"><ele>156.5</ele><time>2026-03-28T08:41:06.761Z</time></trkpt><trkpt lat="45.4565034" lon="10.4835485"><ele>156.75</ele><time>2026-03-28T08:41:07.762Z</time></trkpt><trkpt lat="45.4564192" lon="10.4833881"><ele>157.0</ele><time>2026-03-28T08:41:08.762Z</time></trkpt><trkpt lat="45.4563328" lon="10.4832411"><ele>156.25</ele><time>2026-03-28T08:41:09.761Z</time></trkpt><trkpt lat="45.4562505" lon="10.4831094"><ele>155.5</ele><time>2026-03-28T08:41:10.762Z</time></trkpt><trkpt lat="45.4561654" lon="10.4829796"><ele>154.75</ele><time>2026-03-28T08:41:11.761Z</time></trkpt><trkpt lat="45.456079" lon="10.4828465"><ele>154.0</ele><time>2026-03-28T08:41:12.762Z</time></trkpt><trkpt lat="45.4559886" lon="10.482709"><ele>153.75</ele><time>2026-03-28T08:41:13.762Z</time></trkpt><trkpt lat="45.4558976" lon="10.4825713"><ele>153.5</ele><time>2026-03-28T08:41:14.761Z</time></trkpt><trkpt lat="45.4558059" lon="10.4824303"><ele>153.25</ele><time>2026-03-28T08:41:15.762Z</time></trkpt><trkpt lat="45.4557152" lon="10.4822922"><ele>153.0</ele><time>2026-03-28T08:41:16.763Z</time></trkpt><trkpt lat="45.4556278" lon="10.4821605"><ele>153.5</ele><time>2026-03-28T08:41:17.761Z</time></trkpt><trkpt lat="45.4555402" lon="10.4820313"><ele>154.0</ele><time>2026-03-28T08:41:18.761Z</time></trkpt><trkpt lat="45.4554484" lon="10.4818953"><ele>154.5</ele><time>2026-03-28T08:41:19.762Z</time></trkpt><trkpt lat="45.4553509" lon="10.4817536"><ele>155.0</ele><time>2026-03-28T08:41:20.762Z</time></trkpt><trkpt lat="45.4552503" lon="10.4816073"><ele>154.25</ele><time>2026-03-28T08:41:21.761Z</time></trkpt><trkpt lat="45.4551468" lon="10.4814659"><ele>153.5</ele><time>2026-03-28T08:41:22.761Z</time></trkpt><trkpt lat="45.4550412" lon="10.4813278"><ele>152.75</ele><time>2026-03-28T08:41:23.762Z</time></trkpt><trkpt lat="45.4549397" lon="10.4811904"><ele>152.0</ele><time>2026-03-28T08:41:24.763Z</time></trkpt><trkpt lat="45.4548404" lon="10.4810549"><ele>152.0</ele><time>2026-03-28T08:41:25.761Z</time></trkpt><trkpt lat="45.4547384" lon="10.4809163"><ele>152.0</ele><time>2026-03-28T08:41:26.762Z</time></trkpt><trkpt lat="45.4546387" lon="10.4807702"><ele>152.0</ele><time>2026-03-28T08:41:27.761Z</time></trkpt><trkpt lat="45.454541" lon="10.4806204"><ele>152.0</ele><time>2026-03-28T08:41:28.762Z</time></trkpt><trkpt lat="45.4544485" lon="10.4804677"><ele>151.5</ele><time>2026-03-28T08:41:29.762Z</time></trkpt><trkpt lat="45.4543601" lon="10.4803082"><ele>151.0</ele><time>2026-03-28T08:41:30.761Z</time></trkpt><trkpt lat="45.4542716" lon="10.4801399"><ele>150.5</ele><time>2026-03-28T08:41:31.762Z</time></trkpt><trkpt lat="45.4541816" lon="10.4799647"><ele>150.0</ele><time>2026-03-28T08:41:32.762Z</time></trkpt><trkpt lat="45.4540869" lon="10.4797818"><ele>150.66666666666666</ele><time>2026-03-28T08:41:33.761Z</time></trkpt><trkpt lat="45.4539877" lon="10.4795951"><ele>151.33333333333331</ele><time>2026-03-28T08:41:34.761Z</time></trkpt><trkpt lat="45.453885" lon="10.4794098"><ele>152.0</ele><time>2026-03-28T08:41:35.762Z</time></trkpt><trkpt lat="45.4537841" lon="10.4792237"><ele>151.0</ele><time>2026-03-28T08:41:36.761Z</time></trkpt><trkpt lat="45.4536839" lon="10.4790276"><ele>150.0</ele><time>2026-03-28T08:41:37.762Z</time></trkpt><trkpt lat="45.4535862" lon="10.4788371"><ele>149.0</ele><time>2026-03-28T08:41:38.761Z</time></trkpt><trkpt lat="45.4534919" lon="10.4786584"><ele>149.0</ele><time>2026-03-28T08:41:39.762Z</time></trkpt><trkpt lat="45.4533962" lon="10.4784735"><ele>149.0</ele><time>2026-03-28T08:41:40.762Z</time></trkpt><trkpt lat="45.4533011" lon="10.4782883"><ele>149.0</ele><time>2026-03-28T08:41:41.761Z</time></trkpt><trkpt lat="45.4532015" lon="10.4780968"><ele>149.33333333333331</ele><time>2026-03-28T08:41:42.762Z</time></trkpt><trkpt lat="45.4531001" lon="10.4779041"><ele>149.66666666666666</ele><time>2026-03-28T08:41:43.761Z</time></trkpt><trkpt lat="45.4530002" lon="10.4777159"><ele>150.0</ele><time>2026-03-28T08:41:44.762Z</time></trkpt><trkpt lat="45.4529047" lon="10.4775389"><ele>149.66666666666666</ele><time>2026-03-28T08:41:45.762Z</time></trkpt><trkpt lat="45.4528078" lon="10.4773617"><ele>149.33333333333331</ele><time>2026-03-28T08:41:46.761Z</time></trkpt><trkpt lat="45.4527085" lon="10.4771852"><ele>149.0</ele><time>2026-03-28T08:41:47.762Z</time></trkpt><trkpt lat="45.452607" lon="10.4770075"><ele>149.0</ele><time>2026-03-28T08:41:48.761Z</time></trkpt><trkpt lat="45.4525009" lon="10.4768228"><ele>149.0</ele><time>2026-03-28T08:41:49.762Z</time></trkpt><trkpt lat="45.4523904" lon="10.476639"><ele>149.0</ele><time>2026-03-28T08:41:50.762Z</time></trkpt><trkpt lat="45.4522725" lon="10.4764554"><ele>149.0</ele><time>2026-03-28T08:41:51.761Z</time></trkpt><trkpt lat="45.4521491" lon="10.4762717"><ele>149.0</ele><time>2026-03-28T08:41:52.761Z</time></trkpt><trkpt lat="45.4520203" lon="10.4760901"><ele>149.0</ele><time>2026-03-28T08:41:53.761Z</time></trkpt><trkpt lat="45.4518921" lon="10.4759149"><ele>147.33333333333331</ele><time>2026-03-28T08:41:54.762Z</time></trkpt><trkpt lat="45.4517593" lon="10.4757411"><ele>145.66666666666666</ele><time>2026-03-28T08:41:55.761Z</time></trkpt><trkpt lat="45.4516239" lon="10.4755713"><ele>144.0</ele><time>2026-03-28T08:41:56.761Z</time></trkpt><trkpt lat="45.4514868" lon="10.4754031"><ele>144.0</ele><time>2026-03-28T08:41:57.762Z</time></trkpt><trkpt lat="45.4513525" lon="10.4752342"><ele>144.0</ele><time>2026-03-28T08:41:58.762Z</time></trkpt><trkpt lat="45.4512211" lon="10.4750621"><ele>144.0</ele><time>2026-03-28T08:41:59.762Z</time></trkpt><trkpt lat="45.4510916" lon="10.4748895"><ele>143.0</ele><time>2026-03-28T08:42:00.761Z</time></trkpt><trkpt lat="45.4509599" lon="10.4747123"><ele>142.0</ele><time>2026-03-28T08:42:01.761Z</time></trkpt><trkpt lat="45.4508335" lon="10.4745266"><ele>141.0</ele><time>2026-03-28T08:42:02.762Z</time></trkpt><trkpt lat="45.4507132" lon="10.4743324"><ele>141.0</ele><time>2026-03-28T08:42:03.762Z</time></trkpt><trkpt lat="45.4505998" lon="10.4741238"><ele>141.0</ele><time>2026-03-28T08:42:04.761Z</time></trkpt><trkpt lat="45.4504925" lon="10.473905"><ele>141.0</ele><time>2026-03-28T08:42:05.762Z</time></trkpt><trkpt lat="45.4503896" lon="10.4736782"><ele>140.0</ele><time>2026-03-28T08:42:06.761Z</time></trkpt><trkpt lat="45.450291" lon="10.4734455"><ele>139.0</ele><time>2026-03-28T08:42:07.762Z</time></trkpt><trkpt lat="45.4501984" lon="10.4732072"><ele>138.0</ele><time>2026-03-28T08:42:08.761Z</time></trkpt><trkpt lat="45.4501115" lon="10.4729649"><ele>138.66666666666666</ele><time>2026-03-28T08:42:09.762Z</time></trkpt><trkpt lat="45.4500232" lon="10.472724"><ele>139.33333333333331</ele><time>2026-03-28T08:42:10.762Z</time></trkpt><trkpt lat="45.4499372" lon="10.4724898"><ele>140.0</ele><time>2026-03-28T08:42:11.762Z</time></trkpt><trkpt lat="45.4498554" lon="10.4722664"><ele>139.66666666666666</ele><time>2026-03-28T08:42:12.762Z</time></trkpt><trkpt lat="45.449771" lon="10.4720434"><ele>139.33333333333334</ele><time>2026-03-28T08:42:13.762Z</time></trkpt><trkpt lat="45.4496922" lon="10.4718235"><ele>139.0</ele><time>2026-03-28T08:42:14.761Z</time></trkpt><trkpt lat="45.4496151" lon="10.4716064"><ele>139.0</ele><time>2026-03-28T08:42:15.762Z</time></trkpt><trkpt lat="45.4495355" lon="10.4713909"><ele>139.0</ele><time>2026-03-28T08:42:16.761Z</time></trkpt><trkpt lat="45.4494591" lon="10.4711833"><ele>139.0</ele><time>2026-03-28T08:42:17.761Z</time></trkpt><trkpt lat="45.4493866" lon="10.4709832"><ele>139.0</ele><time>2026-03-28T08:42:18.761Z</time></trkpt><trkpt lat="45.4493141" lon="10.4707804"><ele>139.0</ele><time>2026-03-28T08:42:19.761Z</time></trkpt><trkpt lat="45.4492392" lon="10.4705763"><ele>139.0</ele><time>2026-03-28T08:42:20.762Z</time></trkpt><trkpt lat="45.4491669" lon="10.4703811"><ele>139.0</ele><time>2026-03-28T08:42:21.761Z</time></trkpt><trkpt lat="45.4490987" lon="10.4701967"><ele>139.0</ele><time>2026-03-28T08:42:22.762Z</time></trkpt><trkpt lat="45.4490342" lon="10.4700224"><ele>139.0</ele><time>2026-03-28T08:42:23.762Z</time></trkpt><trkpt lat="45.4489729" lon="10.4698537"><ele>139.0</ele><time>2026-03-28T08:42:24.761Z</time></trkpt><trkpt lat="45.4489161" lon="10.469694"><ele>138.75</ele><time>2026-03-28T08:42:25.762Z</time></trkpt><trkpt lat="45.4488613" lon="10.4695413"><ele>138.5</ele><time>2026-03-28T08:42:26.762Z</time></trkpt><trkpt lat="45.4488116" lon="10.4693952"><ele>138.25</ele><time>2026-03-28T08:42:27.761Z</time></trkpt><trkpt lat="45.4487577" lon="10.4692619"><ele>138.0</ele><time>2026-03-28T08:42:28.762Z</time></trkpt><trkpt lat="45.4486816" lon="10.4691531"><ele>138.0</ele><time>2026-03-28T08:42:29.761Z</time></trkpt><trkpt lat="45.4485803" lon="10.4690822"><ele>138.0</ele><time>2026-03-28T08:42:30.762Z</time></trkpt><trkpt lat="45.4484658" lon="10.4690498"><ele>138.0</ele><time>2026-03-28T08:42:31.762Z</time></trkpt><trkpt lat="45.4483378" lon="10.4690191"><ele>138.0</ele><time>2026-03-28T08:42:32.762Z</time></trkpt><trkpt lat="45.4481978" lon="10.4689701"><ele>138.0</ele><time>2026-03-28T08:42:33.761Z</time></trkpt><trkpt lat="45.448044" lon="10.4689195"><ele>138.0</ele><time>2026-03-28T08:42:34.761Z</time></trkpt><trkpt lat="45.44788" lon="10.4688643"><ele>138.0</ele><time>2026-03-28T08:42:35.761Z</time></trkpt><trkpt lat="45.4477023" lon="10.4687952"><ele>136.66666666666666</ele><time>2026-03-28T08:42:36.762Z</time></trkpt><trkpt lat="45.4475273" lon="10.468717"><ele>135.33333333333331</ele><time>2026-03-28T08:42:37.762Z</time></trkpt><trkpt lat="45.4473673" lon="10.468635"><ele>134.0</ele><time>2026-03-28T08:42:38.761Z</time></trkpt><trkpt lat="45.4472196" lon="10.4685465"><ele>133.66666666666666</ele><time>2026-03-28T08:42:39.762Z</time></trkpt><trkpt lat="45.4470703" lon="10.4684707"><ele>133.33333333333334</ele><time>2026-03-28T08:42:40.762Z</time></trkpt><trkpt lat="45.4469086" lon="10.4684311"><ele>133.0</ele><time>2026-03-28T08:42:41.762Z</time></trkpt><trkpt lat="45.4467405" lon="10.468404"><ele>133.0</ele><time>2026-03-28T08:42:42.762Z</time></trkpt><trkpt lat="45.4465684" lon="10.46838"><ele>133.0</ele><time>2026-03-28T08:42:43.762Z</time></trkpt><trkpt lat="45.4464031" lon="10.4683647"><ele>133.0</ele><time>2026-03-28T08:42:44.761Z</time></trkpt><trkpt lat="45.4462477" lon="10.468356"><ele>133.0</ele><time>2026-03-28T08:42:45.761Z</time></trkpt><trkpt lat="45.4461029" lon="10.4683385"><ele>133.0</ele><time>2026-03-28T08:42:46.761Z</time></trkpt><trkpt lat="45.4459658" lon="10.4683114"><ele>133.0</ele><time>2026-03-28T08:42:47.762Z</time></trkpt><trkpt lat="45.445834" lon="10.4682857"><ele>133.0</ele><time>2026-03-28T08:42:48.762Z</time></trkpt><trkpt lat="45.4457045" lon="10.4682624"><ele>133.0</ele><time>2026-03-28T08:42:49.761Z</time></trkpt><trkpt lat="45.4455777" lon="10.4682326"><ele>133.0</ele><time>2026-03-28T08:42:50.761Z</time></trkpt><trkpt lat="45.4454551" lon="10.4682097"><ele>133.0</ele><time>2026-03-28T08:42:51.761Z</time></trkpt><trkpt lat="45.4453277" lon="10.4681965"><ele>133.0</ele><time>2026-03-28T08:42:52.762Z</time></trkpt><trkpt lat="45.4451937" lon="10.468195"><ele>132.5</ele><time>2026-03-28T08:42:53.762Z</time></trkpt><trkpt lat="45.4450556" lon="10.4681969"><ele>132.0</ele><time>2026-03-28T08:42:54.762Z</time></trkpt><trkpt lat="45.44492" lon="10.4682016"><ele>131.5</ele><time>2026-03-28T08:42:55.761Z</time></trkpt><trkpt lat="45.4447847" lon="10.4682089"><ele>131.0</ele><time>2026-03-28T08:42:56.762Z</time></trkpt><trkpt lat="45.444652" lon="10.4682134"><ele>131.25</ele><time>2026-03-28T08:42:57.762Z</time></trkpt><trkpt lat="45.4445227" lon="10.4682139"><ele>131.5</ele><time>2026-03-28T08:42:58.761Z</time></trkpt><trkpt lat="45.4443939" lon="10.4682043"><ele>131.75</ele><time>2026-03-28T08:42:59.762Z</time></trkpt><trkpt lat="45.4442647" lon="10.4681983"><ele>132.0</ele><time>2026-03-28T08:43:00.761Z</time></trkpt><trkpt lat="45.444128" lon="10.4682036"><ele>132.0</ele><time>2026-03-28T08:43:01.761Z</time></trkpt><trkpt lat="45.4439886" lon="10.4682216"><ele>132.0</ele><time>2026-03-28T08:43:02.761Z</time></trkpt><trkpt lat="45.4438573" lon="10.4682437"><ele>132.0</ele><time>2026-03-28T08:43:03.761Z</time></trkpt><trkpt lat="45.4437325" lon="10.46827"><ele>132.0</ele><time>2026-03-28T08:43:04.762Z</time></trkpt><trkpt lat="45.4436104" lon="10.4682965"><ele>132.0</ele><time>2026-03-28T08:43:05.761Z</time></trkpt><trkpt lat="45.4434898" lon="10.468326"><ele>132.0</ele><time>2026-03-28T08:43:06.761Z</time></trkpt><trkpt lat="45.4433747" lon="10.4683537"><ele>132.0</ele><time>2026-03-28T08:43:07.762Z</time></trkpt><trkpt lat="45.4432609" lon="10.4683651"><ele>132.0</ele><time>2026-03-28T08:43:08.762Z</time></trkpt><trkpt lat="45.4431374" lon="10.4683622"><ele>132.0</ele><time>2026-03-28T08:43:09.761Z</time></trkpt><trkpt lat="45.4430178" lon="10.4683551"><ele>132.0</ele><time>2026-03-28T08:43:10.761Z</time></trkpt><trkpt lat="45.4429053" lon="10.4683352"><ele>132.0</ele><time>2026-03-28T08:43:11.761Z</time></trkpt><trkpt lat="45.4427968" lon="10.4683127"><ele>132.0</ele><time>2026-03-28T08:43:12.761Z</time></trkpt><trkpt lat="45.4426771" lon="10.4682936"><ele>131.79999999999998</ele><time>2026-03-28T08:43:13.762Z</time></trkpt><trkpt lat="45.442562" lon="10.4682733"><ele>131.6</ele><time>2026-03-28T08:43:14.762Z</time></trkpt><trkpt lat="45.4424545" lon="10.4682619"><ele>131.39999999999998</ele><time>2026-03-28T08:43:15.762Z</time></trkpt><trkpt lat="45.4423499" lon="10.4682518"><ele>131.2</ele><time>2026-03-28T08:43:16.763Z</time></trkpt><trkpt lat="45.4422377" lon="10.4682426"><ele>131.0</ele><time>2026-03-28T08:43:17.761Z</time></trkpt><trkpt lat="45.4421208" lon="10.4682235"><ele>130.75</ele><time>2026-03-28T08:43:18.761Z</time></trkpt><trkpt lat="45.4420053" lon="10.4681922"><ele>130.5</ele><time>2026-03-28T08:43:19.761Z</time></trkpt><trkpt lat="45.4418906" lon="10.468152"><ele>130.25</ele><time>2026-03-28T08:43:20.761Z</time></trkpt><trkpt lat="45.4417791" lon="10.4681024"><ele>130.0</ele><time>2026-03-28T08:43:21.763Z</time></trkpt><trkpt lat="45.441679" lon="10.4680447"><ele>130.0</ele><time>2026-03-28T08:43:22.762Z</time></trkpt><trkpt lat="45.4415837" lon="10.4679899"><ele>130.0</ele><time>2026-03-28T08:43:23.761Z</time></trkpt><trkpt lat="45.4414879" lon="10.4679258"><ele>130.0</ele><time>2026-03-28T08:43:24.761Z</time></trkpt><trkpt lat="45.4413833" lon="10.4678564"><ele>130.0</ele><time>2026-03-28T08:43:25.761Z</time></trkpt><trkpt lat="45.4412772" lon="10.4677835"><ele>130.0</ele><time>2026-03-28T08:43:26.761Z</time></trkpt><trkpt lat="45.4411741" lon="10.4677023"><ele>129.5</ele><time>2026-03-28T08:43:27.761Z</time></trkpt><trkpt lat="45.4410764" lon="10.4676254"><ele>129.0</ele><time>2026-03-28T08:43:28.762Z</time></trkpt><trkpt lat="45.4409764" lon="10.4675416"><ele>128.5</ele><time>2026-03-28T08:43:29.761Z</time></trkpt><trkpt lat="45.4408765" lon="10.4674531"><ele>128.0</ele><time>2026-03-28T08:43:30.762Z</time></trkpt><trkpt lat="45.4407709" lon="10.4673683"><ele>128.0</ele><time>2026-03-28T08:43:31.761Z</time></trkpt><trkpt lat="45.4406558" lon="10.4672729"><ele>128.0</ele><time>2026-03-28T08:43:32.761Z</time></trkpt><trkpt lat="45.4405401" lon="10.4671804"><ele>128.0</ele><time>2026-03-28T08:43:33.761Z</time></trkpt><trkpt lat="45.4404254" lon="10.467095"><ele>128.0</ele><time>2026-03-28T08:43:34.761Z</time></trkpt><trkpt lat="45.4403027" lon="10.4670135"><ele>127.5</ele><time>2026-03-28T08:43:35.761Z</time></trkpt><trkpt lat="45.4401812" lon="10.466931"><ele>127.0</ele><time>2026-03-28T08:43:36.761Z</time></trkpt><trkpt lat="45.4400619" lon="10.4668655"><ele>126.5</ele><time>2026-03-28T08:43:37.762Z</time></trkpt><trkpt lat="45.4399275" lon="10.4668078"><ele>126.0</ele><time>2026-03-28T08:43:38.762Z</time></trkpt><trkpt lat="45.4397884" lon="10.4667576"><ele>126.0</ele><time>2026-03-28T08:43:39.762Z</time></trkpt><trkpt lat="45.4396426" lon="10.4667008"><ele>126.0</ele><time>2026-03-28T08:43:40.761Z</time></trkpt><trkpt lat="45.4395011" lon="10.4666515"><ele>126.0</ele><time>2026-03-28T08:43:41.761Z</time></trkpt><trkpt lat="45.4393688" lon="10.466611"><ele>126.0</ele><time>2026-03-28T08:43:42.762Z</time></trkpt><trkpt lat="45.4392434" lon="10.4665697"><ele>126.0</ele><time>2026-03-28T08:43:43.762Z</time></trkpt><trkpt lat="45.4391075" lon="10.4665303"><ele>126.0</ele><time>2026-03-28T08:43:44.762Z</time></trkpt><trkpt lat="45.4389669" lon="10.4664938"><ele>126.0</ele><time>2026-03-28T08:43:45.761Z</time></trkpt><trkpt lat="45.4388361" lon="10.4664647"><ele>126.0</ele><time>2026-03-28T08:43:46.762Z</time></trkpt><trkpt lat="45.4387026" lon="10.4664292"><ele>126.0</ele><time>2026-03-28T08:43:47.761Z</time></trkpt><trkpt lat="45.4385704" lon="10.4663814"><ele>126.0</ele><time>2026-03-28T08:43:48.761Z</time></trkpt><trkpt lat="45.438442" lon="10.4663223"><ele>126.0</ele><time>2026-03-28T08:43:49.762Z</time></trkpt><trkpt lat="45.4383211" lon="10.4662452"><ele>126.0</ele><time>2026-03-28T08:43:50.762Z</time></trkpt><trkpt lat="45.4382008" lon="10.4661555"><ele>126.33333333333334</ele><time>2026-03-28T08:43:51.761Z</time></trkpt><trkpt lat="45.4380639" lon="10.4660561"><ele>126.66666666666667</ele><time>2026-03-28T08:43:52.761Z</time></trkpt><trkpt lat="45.4379263" lon="10.4659454"><ele>127.0</ele><time>2026-03-28T08:43:53.761Z</time></trkpt><trkpt lat="45.4377956" lon="10.4658294"><ele>126.25</ele><time>2026-03-28T08:43:54.761Z</time></trkpt><trkpt lat="45.437671" lon="10.4657317"><ele>125.5</ele><time>2026-03-28T08:43:55.761Z</time></trkpt><trkpt lat="45.437557" lon="10.4656294"><ele>124.75</ele><time>2026-03-28T08:43:56.761Z</time></trkpt><trkpt lat="45.4374421" lon="10.465519"><ele>124.0</ele><time>2026-03-28T08:43:57.762Z</time></trkpt><trkpt lat="45.4373196" lon="10.4654297"><ele>124.0</ele><time>2026-03-28T08:43:58.761Z</time></trkpt><trkpt lat="45.4371918" lon="10.4653476"><ele>124.0</ele><time>2026-03-28T08:43:59.762Z</time></trkpt><trkpt lat="45.4370612" lon="10.465269"><ele>124.0</ele><time>2026-03-28T08:44:00.762Z</time></trkpt><trkpt lat="45.4369386" lon="10.4652038"><ele>124.0</ele><time>2026-03-28T08:44:01.761Z</time></trkpt><trkpt lat="45.4368281" lon="10.4651461"><ele>124.0</ele><time>2026-03-28T08:44:02.761Z</time></trkpt><trkpt lat="45.4367278" lon="10.4650924"><ele>124.0</ele><time>2026-03-28T08:44:03.762Z</time></trkpt><trkpt lat="45.4366382" lon="10.4650575"><ele>124.0</ele><time>2026-03-28T08:44:04.762Z</time></trkpt><trkpt lat="45.436563" lon="10.4650398"><ele>124.0</ele><time>2026-03-28T08:44:05.761Z</time></trkpt><trkpt lat="45.4364588" lon="10.4651015"><ele>124.0</ele><time>2026-03-28T08:44:07.761Z</time></trkpt><trkpt lat="45.436415" lon="10.4652941"><ele>124.25</ele><time>2026-03-28T08:44:09.761Z</time></trkpt><trkpt lat="45.4364006" lon="10.4654506"><ele>124.5</ele><time>2026-03-28T08:44:10.761Z</time></trkpt><trkpt lat="45.4363885" lon="10.4656407"><ele>124.75</ele><time>2026-03-28T08:44:11.762Z</time></trkpt><trkpt lat="45.4363745" lon="10.465842"><ele>125.0</ele><time>2026-03-28T08:44:12.762Z</time></trkpt><trkpt lat="45.4363685" lon="10.466037"><ele>125.0</ele><time>2026-03-28T08:44:13.762Z</time></trkpt><trkpt lat="45.4363736" lon="10.4662341"><ele>125.0</ele><time>2026-03-28T08:44:14.762Z</time></trkpt><trkpt lat="45.436385" lon="10.4664457"><ele>125.0</ele><time>2026-03-28T08:44:15.762Z</time></trkpt><trkpt lat="45.4363941" lon="10.466683"><ele>125.0</ele><time>2026-03-28T08:44:16.761Z</time></trkpt><trkpt lat="45.4363953" lon="10.4669184"><ele>125.0</ele><time>2026-03-28T08:44:17.761Z</time></trkpt><trkpt lat="45.4363924" lon="10.4671312"><ele>125.0</ele><time>2026-03-28T08:44:18.761Z</time></trkpt><trkpt lat="45.4363839" lon="10.4673314"><ele>125.0</ele><time>2026-03-28T08:44:19.761Z</time></trkpt><trkpt lat="45.4363761" lon="10.4675378"><ele>125.0</ele><time>2026-03-28T08:44:20.762Z</time></trkpt><trkpt lat="45.4363638" lon="10.4677578"><ele>125.0</ele><time>2026-03-28T08:44:21.762Z</time></trkpt><trkpt lat="45.4363606" lon="10.4679856"><ele>125.0</ele><time>2026-03-28T08:44:22.762Z</time></trkpt><trkpt lat="45.436364" lon="10.4682239"><ele>125.0</ele><time>2026-03-28T08:44:23.761Z</time></trkpt><trkpt lat="45.43636" lon="10.4684724"><ele>125.0</ele><time>2026-03-28T08:44:24.761Z</time></trkpt><trkpt lat="45.4363563" lon="10.4687207"><ele>125.33333333333333</ele><time>2026-03-28T08:44:25.762Z</time></trkpt><trkpt lat="45.4363508" lon="10.4689708"><ele>125.66666666666666</ele><time>2026-03-28T08:44:26.762Z</time></trkpt><trkpt lat="45.4363464" lon="10.4691926"><ele>126.0</ele><time>2026-03-28T08:44:27.761Z</time></trkpt><trkpt lat="45.4363472" lon="10.4693996"><ele>126.0</ele><time>2026-03-28T08:44:28.761Z</time></trkpt><trkpt lat="45.4363479" lon="10.4696029"><ele>126.0</ele><time>2026-03-28T08:44:29.761Z</time></trkpt><trkpt lat="45.4363504" lon="10.4697877"><ele>126.0</ele><time>2026-03-28T08:44:30.761Z</time></trkpt><trkpt lat="45.4363631" lon="10.4699722"><ele>126.0</ele><time>2026-03-28T08:44:31.763Z</time></trkpt><trkpt lat="45.4363686" lon="10.4701779"><ele>126.33333333333334</ele><time>2026-03-28T08:44:32.762Z</time></trkpt><trkpt lat="45.4363709" lon="10.4704118"><ele>126.66666666666667</ele><time>2026-03-28T08:44:33.761Z</time></trkpt><trkpt lat="45.4363717" lon="10.4706662"><ele>127.0</ele><time>2026-03-28T08:44:34.761Z</time></trkpt><trkpt lat="45.4363665" lon="10.4709055"><ele>127.0</ele><time>2026-03-28T08:44:35.761Z</time></trkpt><trkpt lat="45.4363645" lon="10.471138"><ele>127.0</ele><time>2026-03-28T08:44:36.761Z</time></trkpt><trkpt lat="45.43636" lon="10.4713838"><ele>127.0</ele><time>2026-03-28T08:44:37.761Z</time></trkpt><trkpt lat="45.436359" lon="10.4716278"><ele>127.0</ele><time>2026-03-28T08:44:38.762Z</time></trkpt><trkpt lat="45.4363544" lon="10.4718502"><ele>127.0</ele><time>2026-03-28T08:44:39.761Z</time></trkpt><trkpt lat="45.4363568" lon="10.4720914"><ele>127.0</ele><time>2026-03-28T08:44:40.761Z</time></trkpt><trkpt lat="45.4363609" lon="10.4723472"><ele>127.0</ele><time>2026-03-28T08:44:41.762Z</time></trkpt><trkpt lat="45.436366" lon="10.4726142"><ele>127.0</ele><time>2026-03-28T08:44:42.761Z</time></trkpt><trkpt lat="45.4363812" lon="10.4728858"><ele>127.0</ele><time>2026-03-28T08:44:43.761Z</time></trkpt><trkpt lat="45.4364049" lon="10.4731627"><ele>127.0</ele><time>2026-03-28T08:44:44.761Z</time></trkpt><trkpt lat="45.4364306" lon="10.4734339"><ele>127.0</ele><time>2026-03-28T08:44:45.761Z</time></trkpt><trkpt lat="45.4364609" lon="10.4737088"><ele>127.0</ele><time>2026-03-28T08:44:46.762Z</time></trkpt><trkpt lat="45.4364851" lon="10.4739607"><ele>127.0</ele><time>2026-03-28T08:44:47.761Z</time></trkpt><trkpt lat="45.4365037" lon="10.4741829"><ele>127.0</ele><time>2026-03-28T08:44:48.762Z</time></trkpt><trkpt lat="45.436519" lon="10.4744057"><ele>127.0</ele><time>2026-03-28T08:44:49.762Z</time></trkpt><trkpt lat="45.4365413" lon="10.4746272"><ele>127.33333333333334</ele><time>2026-03-28T08:44:50.761Z</time></trkpt><trkpt lat="45.436564" lon="10.474875"><ele>127.66666666666666</ele><time>2026-03-28T08:44:51.762Z</time></trkpt><trkpt lat="45.4365909" lon="10.4751473"><ele>128.0</ele><time>2026-03-28T08:44:52.762Z</time></trkpt><trkpt lat="45.436617" lon="10.4753917"><ele>128.0</ele><time>2026-03-28T08:44:53.761Z</time></trkpt><trkpt lat="45.4366443" lon="10.4756227"><ele>128.0</ele><time>2026-03-28T08:44:54.761Z</time></trkpt><trkpt lat="45.4366765" lon="10.4758623"><ele>128.0</ele><time>2026-03-28T08:44:55.761Z</time></trkpt><trkpt lat="45.43671" lon="10.4760957"><ele>128.0</ele><time>2026-03-28T08:44:56.761Z</time></trkpt><trkpt lat="45.4367401" lon="10.4763114"><ele>128.0</ele><time>2026-03-28T08:44:57.761Z</time></trkpt><trkpt lat="45.4367612" lon="10.4765069"><ele>128.0</ele><time>2026-03-28T08:44:58.761Z</time></trkpt><trkpt lat="45.4367863" lon="10.4766877"><ele>128.0</ele><time>2026-03-28T08:44:59.763Z</time></trkpt><trkpt lat="45.4368082" lon="10.476852"><ele>127.99999999999999</ele><time>2026-03-28T08:45:00.761Z</time></trkpt><trkpt lat="45.4368255" lon="10.4770015"><ele>128.0</ele><time>2026-03-28T08:45:01.761Z</time></trkpt><trkpt lat="45.4368416" lon="10.4771434"><ele>128.0</ele><time>2026-03-28T08:45:02.761Z</time></trkpt><trkpt lat="45.4368549" lon="10.477268"><ele>128.0</ele><time>2026-03-28T08:45:03.762Z</time></trkpt><trkpt lat="45.4368652" lon="10.4773662"><ele>127.99999999999999</ele><time>2026-03-28T08:45:04.761Z</time></trkpt><trkpt lat="45.4368843" lon="10.4774594"><ele>128.0</ele><time>2026-03-28T08:45:07.762Z</time></trkpt><trkpt lat="45.4369813" lon="10.4774955"><ele>128.25</ele><time>2026-03-28T08:45:09.762Z</time></trkpt><trkpt lat="45.4370783" lon="10.477512"><ele>128.5</ele><time>2026-03-28T08:45:10.761Z</time></trkpt><trkpt lat="45.4372205" lon="10.4775362"><ele>128.75</ele><time>2026-03-28T08:45:11.761Z</time></trkpt><trkpt lat="45.4373915" lon="10.4775697"><ele>129.0</ele><time>2026-03-28T08:45:12.761Z</time></trkpt><trkpt lat="45.4375721" lon="10.4775988"><ele>129.0</ele><time>2026-03-28T08:45:13.761Z</time></trkpt><trkpt lat="45.4377468" lon="10.477619"><ele>129.0</ele><time>2026-03-28T08:45:14.761Z</time></trkpt><trkpt lat="45.4379225" lon="10.4776395"><ele>129.0</ele><time>2026-03-28T08:45:15.762Z</time></trkpt><trkpt lat="45.4380953" lon="10.4776574"><ele>129.33333333333334</ele><time>2026-03-28T08:45:16.762Z</time></trkpt><trkpt lat="45.4382637" lon="10.4776759"><ele>129.66666666666669</ele><time>2026-03-28T08:45:17.762Z</time></trkpt><trkpt lat="45.4384267" lon="10.4776945"><ele>130.0</ele><time>2026-03-28T08:45:18.762Z</time></trkpt><trkpt lat="45.4385841" lon="10.4777122"><ele>130.0</ele><time>2026-03-28T08:45:19.762Z</time></trkpt><trkpt lat="45.4387461" lon="10.4777312"><ele>130.0</ele><time>2026-03-28T08:45:20.761Z</time></trkpt><trkpt lat="45.4389082" lon="10.4777598"><ele>130.0</ele><time>2026-03-28T08:45:21.761Z</time></trkpt><trkpt lat="45.4390728" lon="10.4777984"><ele>130.0</ele><time>2026-03-28T08:45:22.761Z</time></trkpt><trkpt lat="45.439239" lon="10.477839"><ele>130.0</ele><time>2026-03-28T08:45:23.762Z</time></trkpt><trkpt lat="45.439403" lon="10.477889"><ele>130.0</ele><time>2026-03-28T08:45:24.762Z</time></trkpt><trkpt lat="45.4395693" lon="10.4779543"><ele>130.33333333333334</ele><time>2026-03-28T08:45:25.761Z</time></trkpt><trkpt lat="45.4397431" lon="10.4780307"><ele>130.66666666666666</ele><time>2026-03-28T08:45:26.761Z</time></trkpt><trkpt lat="45.4399201" lon="10.4781103"><ele>131.0</ele><time>2026-03-28T08:45:27.762Z</time></trkpt><trkpt lat="45.4401052" lon="10.4781913"><ele>131.0</ele><time>2026-03-28T08:45:28.762Z</time></trkpt><trkpt lat="45.4402972" lon="10.4782694"><ele>131.0</ele><time>2026-03-28T08:45:29.762Z</time></trkpt><trkpt lat="45.4404957" lon="10.4783386"><ele>131.0</ele><time>2026-03-28T08:45:30.761Z</time></trkpt><trkpt lat="45.4406994" lon="10.4784044"><ele>131.33333333333331</ele><time>2026-03-28T08:45:31.762Z</time></trkpt><trkpt lat="45.4409042" lon="10.4784717"><ele>131.66666666666666</ele><time>2026-03-28T08:45:32.762Z</time></trkpt><trkpt lat="45.4411037" lon="10.4785363"><ele>132.0</ele><time>2026-03-28T08:45:33.761Z</time></trkpt><trkpt lat="45.4412915" lon="10.4785902"><ele>132.66666666666666</ele><time>2026-03-28T08:45:34.761Z</time></trkpt><trkpt lat="45.4414837" lon="10.4786318"><ele>133.33333333333331</ele><time>2026-03-28T08:45:35.762Z</time></trkpt><trkpt lat="45.4416758" lon="10.4786545"><ele>134.0</ele><time>2026-03-28T08:45:36.761Z</time></trkpt><trkpt lat="45.4418681" lon="10.4786506"><ele>134.0</ele><time>2026-03-28T08:45:37.761Z</time></trkpt><trkpt lat="45.4420606" lon="10.4786178"><ele>134.0</ele><time>2026-03-28T08:45:38.762Z</time></trkpt><trkpt lat="45.4422522" lon="10.4785496"><ele>134.0</ele><time>2026-03-28T08:45:39.761Z</time></trkpt><trkpt lat="45.4424395" lon="10.4784523"><ele>134.33333333333331</ele><time>2026-03-28T08:45:40.762Z</time></trkpt><trkpt lat="45.4426271" lon="10.4783504"><ele>134.66666666666666</ele><time>2026-03-28T08:45:41.761Z</time></trkpt><trkpt lat="45.4428105" lon="10.4782237"><ele>135.0</ele><time>2026-03-28T08:45:42.761Z</time></trkpt><trkpt lat="45.4430008" lon="10.4781212"><ele>135.0</ele><time>2026-03-28T08:45:43.761Z</time></trkpt><trkpt lat="45.4432041" lon="10.478045"><ele>135.0</ele><time>2026-03-28T08:45:44.761Z</time></trkpt><trkpt lat="45.4434208" lon="10.4779957"><ele>135.0</ele><time>2026-03-28T08:45:45.762Z</time></trkpt><trkpt lat="45.4436426" lon="10.4779769"><ele>135.5</ele><time>2026-03-28T08:45:46.762Z</time></trkpt><trkpt lat="45.4438694" lon="10.4779994"><ele>136.0</ele><time>2026-03-28T08:45:47.762Z</time></trkpt><trkpt lat="45.4440995" lon="10.4780457"><ele>136.0</ele><time>2026-03-28T08:45:48.762Z</time></trkpt><trkpt lat="45.4443306" lon="10.4781031"><ele>136.0</ele><time>2026-03-28T08:45:49.761Z</time></trkpt><trkpt lat="45.444563" lon="10.4781668"><ele>136.5</ele><time>2026-03-28T08:45:50.761Z</time></trkpt><trkpt lat="45.4447961" lon="10.4782328"><ele>137.0</ele><time>2026-03-28T08:45:51.761Z</time></trkpt><trkpt lat="45.445027" lon="10.4782986"><ele>137.0</ele><time>2026-03-28T08:45:52.762Z</time></trkpt><trkpt lat="45.4452595" lon="10.4783693"><ele>137.0</ele><time>2026-03-28T08:45:53.762Z</time></trkpt><trkpt lat="45.4454976" lon="10.478466"><ele>138.0</ele><time>2026-03-28T08:45:54.762Z</time></trkpt><trkpt lat="45.4457292" lon="10.4785874"><ele>139.0</ele><time>2026-03-28T08:45:55.761Z</time></trkpt><trkpt lat="45.4459555" lon="10.4787388"><ele>139.5</ele><time>2026-03-28T08:45:56.762Z</time></trkpt><trkpt lat="45.4461764" lon="10.4789006"><ele>140.0</ele><time>2026-03-28T08:45:57.762Z</time></trkpt><trkpt lat="45.4463802" lon="10.4790596"><ele>140.66666666666666</ele><time>2026-03-28T08:45:58.762Z</time></trkpt><trkpt lat="45.4465671" lon="10.4792138"><ele>141.33333333333334</ele><time>2026-03-28T08:45:59.762Z</time></trkpt><trkpt lat="45.4467479" lon="10.4793622"><ele>142.0</ele><time>2026-03-28T08:46:00.761Z</time></trkpt><trkpt lat="45.4469341" lon="10.479499"><ele>141.33333333333334</ele><time>2026-03-28T08:46:01.762Z</time></trkpt><trkpt lat="45.4471281" lon="10.4796193"><ele>140.66666666666666</ele><time>2026-03-28T08:46:02.761Z</time></trkpt><trkpt lat="45.4473269" lon="10.4797278"><ele>140.0</ele><time>2026-03-28T08:46:03.761Z</time></trkpt><trkpt lat="45.4475322" lon="10.4798331"><ele>140.0</ele><time>2026-03-28T08:46:04.761Z</time></trkpt><trkpt lat="45.447727" lon="10.4799399"><ele>140.0</ele><time>2026-03-28T08:46:05.761Z</time></trkpt><trkpt lat="45.447911" lon="10.4800381"><ele>140.0</ele><time>2026-03-28T08:46:06.762Z</time></trkpt><trkpt lat="45.448096" lon="10.4801274"><ele>140.0</ele><time>2026-03-28T08:46:07.761Z</time></trkpt><trkpt lat="45.4482809" lon="10.4802105"><ele>140.0</ele><time>2026-03-28T08:46:08.761Z</time></trkpt><trkpt lat="45.4484715" lon="10.4802825"><ele>140.0</ele><time>2026-03-28T08:46:09.762Z</time></trkpt><trkpt lat="45.4486667" lon="10.4803486"><ele>140.0</ele><time>2026-03-28T08:46:10.762Z</time></trkpt><trkpt lat="45.4488645" lon="10.4804106"><ele>140.0</ele><time>2026-03-28T08:46:11.762Z</time></trkpt><trkpt lat="45.449049" lon="10.480469"><ele>140.0</ele><time>2026-03-28T08:46:12.762Z</time></trkpt><trkpt lat="45.4492233" lon="10.4805231"><ele>140.0</ele><time>2026-03-28T08:46:13.763Z</time></trkpt><trkpt lat="45.4493801" lon="10.4805694"><ele>140.0</ele><time>2026-03-28T08:46:14.762Z</time></trkpt><trkpt lat="45.4495302" lon="10.4806141"><ele>140.0</ele><time>2026-03-28T08:46:15.762Z</time></trkpt><trkpt lat="45.44967" lon="10.4806523"><ele>140.75</ele><time>2026-03-28T08:46:16.761Z</time></trkpt><trkpt lat="45.4498005" lon="10.480689"><ele>141.5</ele><time>2026-03-28T08:46:17.761Z</time></trkpt><trkpt lat="45.4499213" lon="10.4807259"><ele>142.25</ele><time>2026-03-28T08:46:18.761Z</time></trkpt><trkpt lat="45.4500357" lon="10.4807583"><ele>143.0</ele><time>2026-03-28T08:46:19.762Z</time></trkpt><trkpt lat="45.450145" lon="10.4807879"><ele>143.0</ele><time>2026-03-28T08:46:20.761Z</time></trkpt><trkpt lat="45.4502534" lon="10.4808149"><ele>143.0</ele><time>2026-03-28T08:46:21.761Z</time></trkpt><trkpt lat="45.4503656" lon="10.4808416"><ele>143.0</ele><time>2026-03-28T08:46:22.761Z</time></trkpt><trkpt lat="45.450485" lon="10.4808707"><ele>143.0</ele><time>2026-03-28T08:46:23.761Z</time></trkpt><trkpt lat="45.4506083" lon="10.4809018"><ele>143.25</ele><time>2026-03-28T08:46:24.761Z</time></trkpt><trkpt lat="45.450737" lon="10.4809356"><ele>143.5</ele><time>2026-03-28T08:46:25.762Z</time></trkpt><trkpt lat="45.4508662" lon="10.4809655"><ele>143.75</ele><time>2026-03-28T08:46:26.762Z</time></trkpt><trkpt lat="45.4509968" lon="10.4809934"><ele>144.0</ele><time>2026-03-28T08:46:27.761Z</time></trkpt><trkpt lat="45.4511284" lon="10.4810251"><ele>144.0</ele><time>2026-03-28T08:46:28.762Z</time></trkpt><trkpt lat="45.4512553" lon="10.4810632"><ele>144.0</ele><time>2026-03-28T08:46:29.761Z</time></trkpt><trkpt lat="45.4513751" lon="10.4811006"><ele>144.0</ele><time>2026-03-28T08:46:30.762Z</time></trkpt><trkpt lat="45.4514954" lon="10.4811404"><ele>144.0</ele><time>2026-03-28T08:46:31.761Z</time></trkpt><trkpt lat="45.4516147" lon="10.4811805"><ele>143.75</ele><time>2026-03-28T08:46:32.762Z</time></trkpt><trkpt lat="45.4517347" lon="10.4812233"><ele>143.5</ele><time>2026-03-28T08:46:33.762Z</time></trkpt><trkpt lat="45.4518513" lon="10.4812696"><ele>143.25</ele><time>2026-03-28T08:46:34.761Z</time></trkpt><trkpt lat="45.4519583" lon="10.4813166"><ele>143.0</ele><time>2026-03-28T08:46:35.763Z</time></trkpt><trkpt lat="45.452058" lon="10.4813633"><ele>143.8</ele><time>2026-03-28T08:46:36.761Z</time></trkpt><trkpt lat="45.4521488" lon="10.4814134"><ele>144.60000000000002</ele><time>2026-03-28T08:46:37.761Z</time></trkpt><trkpt lat="45.4522421" lon="10.4814763"><ele>145.39999999999998</ele><time>2026-03-28T08:46:38.762Z</time></trkpt><trkpt lat="45.4523424" lon="10.4815591"><ele>146.2</ele><time>2026-03-28T08:46:39.761Z</time></trkpt><trkpt lat="45.4524426" lon="10.4816754"><ele>147.0</ele><time>2026-03-28T08:46:40.762Z</time></trkpt><trkpt lat="45.4525341" lon="10.4818243"><ele>147.0</ele><time>2026-03-28T08:46:41.761Z</time></trkpt><trkpt lat="45.4526134" lon="10.4820051"><ele>147.0</ele><time>2026-03-28T08:46:42.762Z</time></trkpt><trkpt lat="45.4526662" lon="10.4821926"><ele>147.0</ele><time>2026-03-28T08:46:43.762Z</time></trkpt><trkpt lat="45.4526973" lon="10.4823743"><ele>147.0</ele><time>2026-03-28T08:46:44.761Z</time></trkpt><trkpt lat="45.4527026" lon="10.4825469"><ele>147.2</ele><time>2026-03-28T08:46:45.761Z</time></trkpt><trkpt lat="45.4526971" lon="10.4827061"><ele>147.39999999999998</ele><time>2026-03-28T08:46:46.763Z</time></trkpt><trkpt lat="45.4526896" lon="10.482854"><ele>147.60000000000002</ele><time>2026-03-28T08:46:47.761Z</time></trkpt><trkpt lat="45.4526803" lon="10.4830053"><ele>147.8</ele><time>2026-03-28T08:46:48.761Z</time></trkpt><trkpt lat="45.4526705" lon="10.4831596"><ele>148.0</ele><time>2026-03-28T08:46:49.761Z</time></trkpt><trkpt lat="45.4526573" lon="10.4833164"><ele>148.4</ele><time>2026-03-28T08:46:50.761Z</time></trkpt><trkpt lat="45.4526483" lon="10.4834681"><ele>148.8</ele><time>2026-03-28T08:46:51.761Z</time></trkpt><trkpt lat="45.452647" lon="10.4836179"><ele>149.2</ele><time>2026-03-28T08:46:52.761Z</time></trkpt><trkpt lat="45.4526464" lon="10.4837697"><ele>149.6</ele><time>2026-03-28T08:46:53.761Z</time></trkpt><trkpt lat="45.4526573" lon="10.4839211"><ele>150.0</ele><time>2026-03-28T08:46:54.761Z</time></trkpt><trkpt lat="45.4526841" lon="10.4840604"><ele>150.0</ele><time>2026-03-28T08:46:55.762Z</time></trkpt><trkpt lat="45.4527137" lon="10.4841856"><ele>150.0</ele><time>2026-03-28T08:46:56.761Z</time></trkpt><trkpt lat="45.4527533" lon="10.4843039"><ele>150.0</ele><time>2026-03-28T08:46:57.761Z</time></trkpt><trkpt lat="45.4528029" lon="10.4844178"><ele>150.0</ele><time>2026-03-28T08:46:58.762Z</time></trkpt><trkpt lat="45.4528593" lon="10.4845267"><ele>150.0</ele><time>2026-03-28T08:46:59.761Z</time></trkpt><trkpt lat="45.4529132" lon="10.4846235"><ele>151.2</ele><time>2026-03-28T08:47:00.762Z</time></trkpt><trkpt lat="45.4529435" lon="10.484711"><ele>152.4</ele><time>2026-03-28T08:47:01.762Z</time></trkpt><trkpt lat="45.4529404" lon="10.4848665"><ele>153.6</ele><time>2026-03-28T08:47:03.761Z</time></trkpt><trkpt lat="45.4528883" lon="10.485006"><ele>154.8</ele><time>2026-03-28T08:47:05.761Z</time></trkpt><trkpt lat="45.4527952" lon="10.4850645"><ele>156.0</ele><time>2026-03-28T08:47:07.761Z</time></trkpt><trkpt lat="45.4527199" lon="10.4850817"><ele>156.0</ele><time>2026-03-28T08:47:08.761Z</time></trkpt><trkpt lat="45.4526274" lon="10.4850871"><ele>156.0</ele><time>2026-03-28T08:47:09.762Z</time></trkpt><trkpt lat="45.452526" lon="10.48509"><ele>156.0</ele><time>2026-03-28T08:47:10.761Z</time></trkpt><trkpt lat="45.4524067" lon="10.4850827"><ele>156.0</ele><time>2026-03-28T08:47:11.761Z</time></trkpt><trkpt lat="45.452278" lon="10.4850721"><ele>156.0</ele><time>2026-03-28T08:47:12.762Z</time></trkpt><trkpt lat="45.4521379" lon="10.4850452"><ele>156.0</ele><time>2026-03-28T08:47:13.761Z</time></trkpt><trkpt lat="45.4519882" lon="10.4850111"><ele>156.0</ele><time>2026-03-28T08:47:14.761Z</time></trkpt><trkpt lat="45.4518464" lon="10.4849691"><ele>156.0</ele><time>2026-03-28T08:47:15.762Z</time></trkpt><trkpt lat="45.4516985" lon="10.4849083"><ele>156.0</ele><time>2026-03-28T08:47:16.761Z</time></trkpt><trkpt lat="45.4515586" lon="10.4848366"><ele>156.0</ele><time>2026-03-28T08:47:17.761Z</time></trkpt><trkpt lat="45.4514258" lon="10.4847808"><ele>156.0</ele><time>2026-03-28T08:47:18.762Z</time></trkpt><trkpt lat="45.45129" lon="10.4847272"><ele>156.0</ele><time>2026-03-28T08:47:19.761Z</time></trkpt><trkpt lat="45.4511641" lon="10.484676"><ele>156.5</ele><time>2026-03-28T08:47:20.762Z</time></trkpt><trkpt lat="45.4510356" lon="10.484643"><ele>157.0</ele><time>2026-03-28T08:47:21.761Z</time></trkpt><trkpt lat="45.4509201" lon="10.4846248"><ele>157.5</ele><time>2026-03-28T08:47:22.762Z</time></trkpt><trkpt lat="45.4507879" lon="10.4846069"><ele>158.0</ele><time>2026-03-28T08:47:23.761Z</time></trkpt><trkpt lat="45.450662" lon="10.4845733"><ele>155.75</ele><time>2026-03-28T08:47:24.761Z</time></trkpt><trkpt lat="45.4505391" lon="10.4845236"><ele>153.5</ele><time>2026-03-28T08:47:25.762Z</time></trkpt><trkpt lat="45.4504025" lon="10.4844716"><ele>151.25</ele><time>2026-03-28T08:47:26.761Z</time></trkpt><trkpt lat="45.4502759" lon="10.4844396"><ele>149.0</ele><time>2026-03-28T08:47:27.762Z</time></trkpt><trkpt lat="45.4501601" lon="10.4844182"><ele>148.75</ele><time>2026-03-28T08:47:28.761Z</time></trkpt><trkpt lat="45.4500472" lon="10.4843888"><ele>148.5</ele><time>2026-03-28T08:47:29.762Z</time></trkpt><trkpt lat="45.4499373" lon="10.4843744"><ele>148.25</ele><time>2026-03-28T08:47:30.761Z</time></trkpt><trkpt lat="45.4498193" lon="10.4843759"><ele>148.0</ele><time>2026-03-28T08:47:31.762Z</time></trkpt><trkpt lat="45.4497046" lon="10.4843927"><ele>147.5</ele><time>2026-03-28T08:47:32.761Z</time></trkpt><trkpt lat="45.4495872" lon="10.4844166"><ele>147.0</ele><time>2026-03-28T08:47:33.762Z</time></trkpt><trkpt lat="45.4494701" lon="10.4844312"><ele>146.5</ele><time>2026-03-28T08:47:34.761Z</time></trkpt><trkpt lat="45.4493553" lon="10.4844388"><ele>146.0</ele><time>2026-03-28T08:47:35.761Z</time></trkpt><trkpt lat="45.4492385" lon="10.4844463"><ele>146.0</ele><time>2026-03-28T08:47:36.762Z</time></trkpt><trkpt lat="45.4491224" lon="10.4844485"><ele>146.0</ele><time>2026-03-28T08:47:37.761Z</time></trkpt><trkpt lat="45.4490012" lon="10.4844446"><ele>146.0</ele><time>2026-03-28T08:47:38.761Z</time></trkpt><trkpt lat="45.4488789" lon="10.4844445"><ele>146.0</ele><time>2026-03-28T08:47:39.761Z</time></trkpt><trkpt lat="45.4487654" lon="10.4844518"><ele>146.25</ele><time>2026-03-28T08:47:40.762Z</time></trkpt><trkpt lat="45.4486512" lon="10.4844565"><ele>146.5</ele><time>2026-03-28T08:47:41.761Z</time></trkpt><trkpt lat="45.4485477" lon="10.4844561"><ele>146.75</ele><time>2026-03-28T08:47:42.761Z</time></trkpt><trkpt lat="45.4484341" lon="10.4844423"><ele>147.0</ele><time>2026-03-28T08:47:43.762Z</time></trkpt><trkpt lat="45.4483148" lon="10.4844317"><ele>147.0</ele><time>2026-03-28T08:47:44.761Z</time></trkpt><trkpt lat="45.448192" lon="10.48442"><ele>147.0</ele><time>2026-03-28T08:47:45.761Z</time></trkpt><trkpt lat="45.4480776" lon="10.4844057"><ele>147.0</ele><time>2026-03-28T08:47:46.762Z</time></trkpt><trkpt lat="45.4479683" lon="10.4843914"><ele>147.0</ele><time>2026-03-28T08:47:47.762Z</time></trkpt><trkpt lat="45.4478762" lon="10.484363"><ele>147.0</ele><time>2026-03-28T08:47:48.762Z</time></trkpt><trkpt lat="45.4477948" lon="10.4843113"><ele>147.66666666666666</ele><time>2026-03-28T08:47:49.761Z</time></trkpt><trkpt lat="45.4477068" lon="10.4842378"><ele>148.33333333333334</ele><time>2026-03-28T08:47:50.762Z</time></trkpt><trkpt lat="45.4476361" lon="10.4841737"><ele>149.0</ele><time>2026-03-28T08:47:51.761Z</time></trkpt><trkpt lat="45.4475712" lon="10.4840993"><ele>149.66666666666669</ele><time>2026-03-28T08:47:52.762Z</time></trkpt><trkpt lat="45.4475152" lon="10.4840245"><ele>150.33333333333334</ele><time>2026-03-28T08:47:53.762Z</time></trkpt><trkpt lat="45.4474592" lon="10.483962"><ele>151.0</ele><time>2026-03-28T08:47:54.762Z</time></trkpt><trkpt lat="45.4473975" lon="10.4839133"><ele>151.0</ele><time>2026-03-28T08:47:55.762Z</time></trkpt><trkpt lat="45.4473223" lon="10.4838794"><ele>151.0</ele><time>2026-03-28T08:47:56.761Z</time></trkpt><trkpt lat="45.4472384" lon="10.4838507"><ele>151.0</ele><time>2026-03-28T08:47:57.762Z</time></trkpt><trkpt lat="45.4471514" lon="10.4838299"><ele>151.0</ele><time>2026-03-28T08:47:58.761Z</time></trkpt><trkpt lat="45.4470644" lon="10.4838071"><ele>151.0</ele><time>2026-03-28T08:47:59.761Z</time></trkpt><trkpt lat="45.4469668" lon="10.4837802"><ele>151.0</ele><time>2026-03-28T08:48:00.762Z</time></trkpt><trkpt lat="45.4468614" lon="10.4837587"><ele>149.6</ele><time>2026-03-28T08:48:01.761Z</time></trkpt><trkpt lat="45.4467513" lon="10.4837335"><ele>148.2</ele><time>2026-03-28T08:48:02.761Z</time></trkpt><trkpt lat="45.4466401" lon="10.4837123"><ele>146.8</ele><time>2026-03-28T08:48:03.762Z</time></trkpt><trkpt lat="45.4465366" lon="10.4836867"><ele>145.4</ele><time>2026-03-28T08:48:04.762Z</time></trkpt><trkpt lat="45.4464376" lon="10.4836569"><ele>144.0</ele><time>2026-03-28T08:48:05.761Z</time></trkpt><trkpt lat="45.4463279" lon="10.4836319"><ele>143.8</ele><time>2026-03-28T08:48:06.761Z</time></trkpt><trkpt lat="45.4462139" lon="10.4836096"><ele>143.60000000000002</ele><time>2026-03-28T08:48:07.762Z</time></trkpt><trkpt lat="45.4461044" lon="10.4835919"><ele>143.4</ele><time>2026-03-28T08:48:08.762Z</time></trkpt><trkpt lat="45.4459946" lon="10.4835704"><ele>143.20000000000002</ele><time>2026-03-28T08:48:09.762Z</time></trkpt><trkpt lat="45.4458849" lon="10.483551"><ele>143.0</ele><time>2026-03-28T08:48:10.761Z</time></trkpt><trkpt lat="45.4457761" lon="10.4835298"><ele>143.0</ele><time>2026-03-28T08:48:11.761Z</time></trkpt><trkpt lat="45.4456696" lon="10.4835087"><ele>143.0</ele><time>2026-03-28T08:48:12.761Z</time></trkpt><trkpt lat="45.4455627" lon="10.4834878"><ele>143.0</ele><time>2026-03-28T08:48:13.762Z</time></trkpt><trkpt lat="45.4454499" lon="10.48347"><ele>143.0</ele><time>2026-03-28T08:48:14.762Z</time></trkpt><trkpt lat="45.4453376" lon="10.4834474"><ele>143.0</ele><time>2026-03-28T08:48:15.762Z</time></trkpt><trkpt lat="45.4452026" lon="10.4834205"><ele>143.33333333333331</ele><time>2026-03-28T08:48:16.762Z</time></trkpt><trkpt lat="45.4450494" lon="10.4833856"><ele>143.66666666666666</ele><time>2026-03-28T08:48:17.762Z</time></trkpt><trkpt lat="45.4448947" lon="10.4833494"><ele>144.0</ele><time>2026-03-28T08:48:18.761Z</time></trkpt><trkpt lat="45.4447523" lon="10.4833206"><ele>144.0</ele><time>2026-03-28T08:48:19.762Z</time></trkpt><trkpt lat="45.4446052" lon="10.4833005"><ele>144.0</ele><time>2026-03-28T08:48:20.761Z</time></trkpt><trkpt lat="45.4444581" lon="10.4832868"><ele>144.0</ele><time>2026-03-28T08:48:21.761Z</time></trkpt><trkpt lat="45.4443211" lon="10.4832681"><ele>144.0</ele><time>2026-03-28T08:48:22.761Z</time></trkpt><trkpt lat="45.4441852" lon="10.4832485"><ele>144.0</ele><time>2026-03-28T08:48:23.761Z</time></trkpt><trkpt lat="45.444055" lon="10.4832129"><ele>144.0</ele><time>2026-03-28T08:48:24.761Z</time></trkpt><trkpt lat="45.4439262" lon="10.4831815"><ele>144.0</ele><time>2026-03-28T08:48:25.761Z</time></trkpt><trkpt lat="45.4437959" lon="10.4831374"><ele>144.0</ele><time>2026-03-28T08:48:26.761Z</time></trkpt><trkpt lat="45.4436748" lon="10.4831027"><ele>144.25</ele><time>2026-03-28T08:48:27.762Z</time></trkpt><trkpt lat="45.4435416" lon="10.4830779"><ele>144.5</ele><time>2026-03-28T08:48:28.762Z</time></trkpt><trkpt lat="45.4434075" lon="10.4830559"><ele>144.75</ele><time>2026-03-28T08:48:29.761Z</time></trkpt><trkpt lat="45.4432617" lon="10.4830289"><ele>145.0</ele><time>2026-03-28T08:48:30.761Z</time></trkpt><trkpt lat="45.4431161" lon="10.4829953"><ele>145.0</ele><time>2026-03-28T08:48:31.762Z</time></trkpt><trkpt lat="45.4429834" lon="10.4829619"><ele>145.0</ele><time>2026-03-28T08:48:32.761Z</time></trkpt><trkpt lat="45.4428526" lon="10.4829221"><ele>145.0</ele><time>2026-03-28T08:48:33.761Z</time></trkpt><trkpt lat="45.4427229" lon="10.4828665"><ele>145.0</ele><time>2026-03-28T08:48:34.761Z</time></trkpt><trkpt lat="45.4425919" lon="10.482783"><ele>143.66666666666669</ele><time>2026-03-28T08:48:35.762Z</time></trkpt><trkpt lat="45.4424442" lon="10.4826774"><ele>142.33333333333334</ele><time>2026-03-28T08:48:36.761Z</time></trkpt><trkpt lat="45.4422883" lon="10.4825544"><ele>141.0</ele><time>2026-03-28T08:48:37.761Z</time></trkpt><trkpt lat="45.4421377" lon="10.4824403"><ele>141.0</ele><time>2026-03-28T08:48:38.761Z</time></trkpt><trkpt lat="45.4419903" lon="10.4823378"><ele>141.0</ele><time>2026-03-28T08:48:39.761Z</time></trkpt><trkpt lat="45.4418453" lon="10.4822277"><ele>141.0</ele><time>2026-03-28T08:48:40.762Z</time></trkpt><trkpt lat="45.4417081" lon="10.4821175"><ele>140.25</ele><time>2026-03-28T08:48:41.762Z</time></trkpt><trkpt lat="45.4415697" lon="10.482014"><ele>139.5</ele><time>2026-03-28T08:48:42.761Z</time></trkpt><trkpt lat="45.441436" lon="10.4819186"><ele>138.75</ele><time>2026-03-28T08:48:43.761Z</time></trkpt><trkpt lat="45.4413099" lon="10.4818263"><ele>138.0</ele><time>2026-03-28T08:48:44.762Z</time></trkpt><trkpt lat="45.4411851" lon="10.4817366"><ele>138.0</ele><time>2026-03-28T08:48:45.761Z</time></trkpt><trkpt lat="45.4410649" lon="10.4816535"><ele>138.0</ele><time>2026-03-28T08:48:46.761Z</time></trkpt><trkpt lat="45.4409529" lon="10.4815651"><ele>138.0</ele><time>2026-03-28T08:48:47.762Z</time></trkpt><trkpt lat="45.4408403" lon="10.4814819"><ele>138.0</ele><time>2026-03-28T08:48:48.762Z</time></trkpt><trkpt lat="45.4407215" lon="10.4813976"><ele>138.0</ele><time>2026-03-28T08:48:49.761Z</time></trkpt><trkpt lat="45.4406043" lon="10.4813066"><ele>138.0</ele><time>2026-03-28T08:48:50.761Z</time></trkpt><trkpt lat="45.4404876" lon="10.4812166"><ele>138.0</ele><time>2026-03-28T08:48:51.761Z</time></trkpt><trkpt lat="45.4403648" lon="10.481143"><ele>138.0</ele><time>2026-03-28T08:48:52.762Z</time></trkpt><trkpt lat="45.4402327" lon="10.481082"><ele>136.66666666666666</ele><time>2026-03-28T08:48:53.762Z</time></trkpt><trkpt lat="45.4400897" lon="10.4810249"><ele>135.33333333333331</ele><time>2026-03-28T08:48:54.761Z</time></trkpt><trkpt lat="45.4399378" lon="10.4809687"><ele>134.0</ele><time>2026-03-28T08:48:55.761Z</time></trkpt><trkpt lat="45.4397878" lon="10.4809242"><ele>134.0</ele><time>2026-03-28T08:48:56.762Z</time></trkpt><trkpt lat="45.4396425" lon="10.4808901"><ele>134.0</ele><time>2026-03-28T08:48:57.762Z</time></trkpt><trkpt lat="45.4394949" lon="10.4808536"><ele>134.0</ele><time>2026-03-28T08:48:58.761Z</time></trkpt><trkpt lat="45.4393489" lon="10.480812"><ele>134.0</ele><time>2026-03-28T08:48:59.761Z</time></trkpt><trkpt lat="45.439204" lon="10.4807707"><ele>134.25</ele><time>2026-03-28T08:49:00.762Z</time></trkpt><trkpt lat="45.4390578" lon="10.4807302"><ele>134.5</ele><time>2026-03-28T08:49:01.761Z</time></trkpt><trkpt lat="45.4389152" lon="10.4806903"><ele>134.75</ele><time>2026-03-28T08:49:02.761Z</time></trkpt><trkpt lat="45.4387782" lon="10.4806522"><ele>135.0</ele><time>2026-03-28T08:49:03.762Z</time></trkpt><trkpt lat="45.4386461" lon="10.4806164"><ele>134.6</ele><time>2026-03-28T08:49:04.761Z</time></trkpt><trkpt lat="45.4385403" lon="10.4805881"><ele>134.2</ele><time>2026-03-28T08:49:05.761Z</time></trkpt><trkpt lat="45.4384462" lon="10.4805637"><ele>133.8</ele><time>2026-03-28T08:49:06.761Z</time></trkpt><trkpt lat="45.4383486" lon="10.4805368"><ele>133.4</ele><time>2026-03-28T08:49:07.762Z</time></trkpt><trkpt lat="45.4382397" lon="10.4805012"><ele>133.0</ele><time>2026-03-28T08:49:08.762Z</time></trkpt><trkpt lat="45.4381177" lon="10.4804775"><ele>133.0</ele><time>2026-03-28T08:49:09.762Z</time></trkpt><trkpt lat="45.4379875" lon="10.480458"><ele>133.0</ele><time>2026-03-28T08:49:10.762Z</time></trkpt><trkpt lat="45.4378489" lon="10.4804441"><ele>133.0</ele><time>2026-03-28T08:49:11.762Z</time></trkpt><trkpt lat="45.4377029" lon="10.4804391"><ele>133.0</ele><time>2026-03-28T08:49:12.762Z</time></trkpt><trkpt lat="45.4375533" lon="10.4804403"><ele>132.33333333333334</ele><time>2026-03-28T08:49:13.761Z</time></trkpt><trkpt lat="45.4374013" lon="10.4804473"><ele>131.66666666666666</ele><time>2026-03-28T08:49:14.761Z</time></trkpt><trkpt lat="45.4372498" lon="10.4804502"><ele>131.0</ele><time>2026-03-28T08:49:15.762Z</time></trkpt><trkpt lat="45.4370904" lon="10.4804508"><ele>131.0</ele><time>2026-03-28T08:49:16.762Z</time></trkpt><trkpt lat="45.4369307" lon="10.4804491"><ele>131.0</ele><time>2026-03-28T08:49:17.762Z</time></trkpt><trkpt lat="45.4367793" lon="10.4804537"><ele>131.0</ele><time>2026-03-28T08:49:18.762Z</time></trkpt><trkpt lat="45.4366229" lon="10.4804682"><ele>131.0</ele><time>2026-03-28T08:49:19.762Z</time></trkpt><trkpt lat="45.4364656" lon="10.4804986"><ele>131.0</ele><time>2026-03-28T08:49:20.761Z</time></trkpt><trkpt lat="45.4363125" lon="10.4805515"><ele>131.0</ele><time>2026-03-28T08:49:21.761Z</time></trkpt><trkpt lat="45.4361621" lon="10.4806223"><ele>131.0</ele><time>2026-03-28T08:49:22.762Z</time></trkpt><trkpt lat="45.4360126" lon="10.4807012"><ele>131.0</ele><time>2026-03-28T08:49:23.761Z</time></trkpt><trkpt lat="45.4358605" lon="10.4807846"><ele>131.0</ele><time>2026-03-28T08:49:24.761Z</time></trkpt><trkpt lat="45.4357052" lon="10.480865"><ele>131.0</ele><time>2026-03-28T08:49:25.761Z</time></trkpt><trkpt lat="45.435543" lon="10.4809476"><ele>131.0</ele><time>2026-03-28T08:49:26.762Z</time></trkpt><trkpt lat="45.4353764" lon="10.4810347"><ele>131.0</ele><time>2026-03-28T08:49:27.762Z</time></trkpt><trkpt lat="45.435205" lon="10.481124"><ele>131.0</ele><time>2026-03-28T08:49:28.761Z</time></trkpt><trkpt lat="45.435028" lon="10.4812075"><ele>131.0</ele><time>2026-03-28T08:49:29.761Z</time></trkpt><trkpt lat="45.4348434" lon="10.4812748"><ele>131.0</ele><time>2026-03-28T08:49:30.762Z</time></trkpt><trkpt lat="45.4346535" lon="10.4813304"><ele>131.0</ele><time>2026-03-28T08:49:31.762Z</time></trkpt><trkpt lat="45.4344632" lon="10.4813708"><ele>131.0</ele><time>2026-03-28T08:49:32.761Z</time></trkpt><trkpt lat="45.4342686" lon="10.4813974"><ele>131.0</ele><time>2026-03-28T08:49:33.761Z</time></trkpt><trkpt lat="45.4340792" lon="10.4814083"><ele>131.0</ele><time>2026-03-28T08:49:34.762Z</time></trkpt><trkpt lat="45.4338893" lon="10.4813991"><ele>131.0</ele><time>2026-03-28T08:49:35.762Z</time></trkpt><trkpt lat="45.4336963" lon="10.4813599"><ele>131.0</ele><time>2026-03-28T08:49:36.762Z</time></trkpt><trkpt lat="45.4335006" lon="10.481291"><ele>131.33333333333331</ele><time>2026-03-28T08:49:37.762Z</time></trkpt><trkpt lat="45.4333027" lon="10.481194"><ele>131.66666666666666</ele><time>2026-03-28T08:49:38.761Z</time></trkpt><trkpt lat="45.4331154" lon="10.4810954"><ele>132.0</ele><time>2026-03-28T08:49:39.761Z</time></trkpt><trkpt lat="45.432938" lon="10.4809962"><ele>132.0</ele><time>2026-03-28T08:49:40.762Z</time></trkpt><trkpt lat="45.4327718" lon="10.4809031"><ele>132.0</ele><time>2026-03-28T08:49:41.761Z</time></trkpt><trkpt lat="45.432611" lon="10.4808116"><ele>132.0</ele><time>2026-03-28T08:49:42.761Z</time></trkpt><trkpt lat="45.4324424" lon="10.4807202"><ele>132.0</ele><time>2026-03-28T08:49:43.762Z</time></trkpt><trkpt lat="45.4322726" lon="10.4806289"><ele>132.0</ele><time>2026-03-28T08:49:44.761Z</time></trkpt><trkpt lat="45.4320976" lon="10.4805398"><ele>132.0</ele><time>2026-03-28T08:49:45.761Z</time></trkpt><trkpt lat="45.4319172" lon="10.4804591"><ele>131.0</ele><time>2026-03-28T08:49:46.762Z</time></trkpt><trkpt lat="45.4317313" lon="10.4803931"><ele>130.0</ele><time>2026-03-28T08:49:47.761Z</time></trkpt><trkpt lat="45.4315449" lon="10.4803361"><ele>129.0</ele><time>2026-03-28T08:49:48.762Z</time></trkpt><trkpt lat="45.4313565" lon="10.480282"><ele>129.0</ele><time>2026-03-28T08:49:49.762Z</time></trkpt><trkpt lat="45.4311696" lon="10.4802308"><ele>129.0</ele><time>2026-03-28T08:49:50.761Z</time></trkpt><trkpt lat="45.4309818" lon="10.4801816"><ele>129.0</ele><time>2026-03-28T08:49:51.762Z</time></trkpt><trkpt lat="45.4307953" lon="10.4801334"><ele>129.0</ele><time>2026-03-28T08:49:52.761Z</time></trkpt><trkpt lat="45.4306092" lon="10.4800839"><ele>129.0</ele><time>2026-03-28T08:49:53.762Z</time></trkpt><trkpt lat="45.4304207" lon="10.4800346"><ele>129.0</ele><time>2026-03-28T08:49:54.762Z</time></trkpt><trkpt lat="45.4302328" lon="10.479989"><ele>129.66666666666666</ele><time>2026-03-28T08:49:55.761Z</time></trkpt><trkpt lat="45.4300427" lon="10.4799412"><ele>130.33333333333331</ele><time>2026-03-28T08:49:56.761Z</time></trkpt><trkpt lat="45.4298548" lon="10.4798888"><ele>131.0</ele><time>2026-03-28T08:49:57.761Z</time></trkpt><trkpt lat="45.4296659" lon="10.4798375"><ele>130.0</ele><time>2026-03-28T08:49:58.761Z</time></trkpt><trkpt lat="45.429479" lon="10.4797823"><ele>129.0</ele><time>2026-03-28T08:49:59.762Z</time></trkpt><trkpt lat="45.4292899" lon="10.4797467"><ele>128.0</ele><time>2026-03-28T08:50:00.762Z</time></trkpt><trkpt lat="45.4291027" lon="10.4797378"><ele>128.0</ele><time>2026-03-28T08:50:01.762Z</time></trkpt><trkpt lat="45.4289137" lon="10.4797339"><ele>128.0</ele><time>2026-03-28T08:50:02.762Z</time></trkpt><trkpt lat="45.4287255" lon="10.4797394"><ele>128.0</ele><time>2026-03-28T08:50:03.761Z</time></trkpt><trkpt lat="45.4285382" lon="10.4797465"><ele>127.0</ele><time>2026-03-28T08:50:04.763Z</time></trkpt><trkpt lat="45.4283513" lon="10.4797532"><ele>126.0</ele><time>2026-03-28T08:50:05.761Z</time></trkpt><trkpt lat="45.4281643" lon="10.4797577"><ele>125.0</ele><time>2026-03-28T08:50:06.761Z</time></trkpt><trkpt lat="45.4279791" lon="10.4797603"><ele>125.33333333333333</ele><time>2026-03-28T08:50:07.762Z</time></trkpt><trkpt lat="45.4277943" lon="10.4797645"><ele>125.66666666666666</ele><time>2026-03-28T08:50:08.762Z</time></trkpt><trkpt lat="45.427611" lon="10.4797661"><ele>126.0</ele><time>2026-03-28T08:50:09.761Z</time></trkpt><trkpt lat="45.4274349" lon="10.479755"><ele>126.0</ele><time>2026-03-28T08:50:10.761Z</time></trkpt><trkpt lat="45.4272708" lon="10.4797333"><ele>126.0</ele><time>2026-03-28T08:50:11.762Z</time></trkpt><trkpt lat="45.4271048" lon="10.4797037"><ele>126.0</ele><time>2026-03-28T08:50:12.762Z</time></trkpt><trkpt lat="45.4269336" lon="10.4796693"><ele>126.0</ele><time>2026-03-28T08:50:13.761Z</time></trkpt><trkpt lat="45.4267595" lon="10.4796266"><ele>126.0</ele><time>2026-03-28T08:50:14.761Z</time></trkpt><trkpt lat="45.4265865" lon="10.4795697"><ele>126.0</ele><time>2026-03-28T08:50:15.761Z</time></trkpt><trkpt lat="45.4264139" lon="10.4795068"><ele>125.33333333333334</ele><time>2026-03-28T08:50:16.761Z</time></trkpt><trkpt lat="45.4262393" lon="10.4794494"><ele>124.66666666666667</ele><time>2026-03-28T08:50:17.762Z</time></trkpt><trkpt lat="45.4260625" lon="10.4793922"><ele>124.0</ele><time>2026-03-28T08:50:18.762Z</time></trkpt><trkpt lat="45.4258933" lon="10.4793334"><ele>124.0</ele><time>2026-03-28T08:50:19.762Z</time></trkpt><trkpt lat="45.4257311" lon="10.4792741"><ele>124.0</ele><time>2026-03-28T08:50:20.761Z</time></trkpt><trkpt lat="45.4255683" lon="10.4792198"><ele>124.0</ele><time>2026-03-28T08:50:21.761Z</time></trkpt><trkpt lat="45.4254074" lon="10.4791684"><ele>124.33333333333334</ele><time>2026-03-28T08:50:22.762Z</time></trkpt><trkpt lat="45.4252497" lon="10.4791131"><ele>124.66666666666666</ele><time>2026-03-28T08:50:23.762Z</time></trkpt><trkpt lat="45.425094" lon="10.4790554"><ele>125.0</ele><time>2026-03-28T08:50:24.762Z</time></trkpt><trkpt lat="45.4249358" lon="10.4789978"><ele>125.0</ele><time>2026-03-28T08:50:25.761Z</time></trkpt><trkpt lat="45.4247748" lon="10.4789362"><ele>125.0</ele><time>2026-03-28T08:50:26.762Z</time></trkpt><trkpt lat="45.4246173" lon="10.4788753"><ele>125.0</ele><time>2026-03-28T08:50:27.762Z</time></trkpt><trkpt lat="45.4244672" lon="10.4788195"><ele>124.75</ele><time>2026-03-28T08:50:28.762Z</time></trkpt><trkpt lat="45.4243296" lon="10.4787678"><ele>124.5</ele><time>2026-03-28T08:50:29.761Z</time></trkpt><trkpt lat="45.4242049" lon="10.4787218"><ele>124.25</ele><time>2026-03-28T08:50:30.761Z</time></trkpt><trkpt lat="45.4240931" lon="10.4786795"><ele>124.0</ele><time>2026-03-28T08:50:31.761Z</time></trkpt><trkpt lat="45.4239867" lon="10.4786398"><ele>123.75</ele><time>2026-03-28T08:50:32.761Z</time></trkpt><trkpt lat="45.4238878" lon="10.4786035"><ele>123.5</ele><time>2026-03-28T08:50:33.761Z</time></trkpt><trkpt lat="45.4237847" lon="10.478564"><ele>123.25</ele><time>2026-03-28T08:50:34.761Z</time></trkpt><trkpt lat="45.423667" lon="10.4785125"><ele>123.0</ele><time>2026-03-28T08:50:35.763Z</time></trkpt><trkpt lat="45.4235426" lon="10.4784528"><ele>123.0</ele><time>2026-03-28T08:50:36.761Z</time></trkpt><trkpt lat="45.4234178" lon="10.4783906"><ele>123.0</ele><time>2026-03-28T08:50:37.762Z</time></trkpt><trkpt lat="45.4232982" lon="10.4783337"><ele>123.0</ele><time>2026-03-28T08:50:38.762Z</time></trkpt><trkpt lat="45.4231632" lon="10.4782695"><ele>123.0</ele><time>2026-03-28T08:50:39.762Z</time></trkpt><trkpt lat="45.4229979" lon="10.4781869"><ele>123.66666666666666</ele><time>2026-03-28T08:50:40.762Z</time></trkpt><trkpt lat="45.4228213" lon="10.4780907"><ele>124.33333333333333</ele><time>2026-03-28T08:50:41.762Z</time></trkpt><trkpt lat="45.4226532" lon="10.4779962"><ele>125.0</ele><time>2026-03-28T08:50:42.762Z</time></trkpt><trkpt lat="45.422498" lon="10.4779058"><ele>123.5</ele><time>2026-03-28T08:50:43.761Z</time></trkpt><trkpt lat="45.4223573" lon="10.4778223"><ele>122.0</ele><time>2026-03-28T08:50:44.762Z</time></trkpt><trkpt lat="45.4222294" lon="10.4777423"><ele>120.5</ele><time>2026-03-28T08:50:45.762Z</time></trkpt><trkpt lat="45.422114" lon="10.4776737"><ele>119.0</ele><time>2026-03-28T08:50:46.762Z</time></trkpt><trkpt lat="45.4220113" lon="10.4776129"><ele>119.0</ele><time>2026-03-28T08:50:47.762Z</time></trkpt><trkpt lat="45.4219134" lon="10.477556"><ele>119.0</ele><time>2026-03-28T08:50:48.761Z</time></trkpt><trkpt lat="45.4218155" lon="10.4774993"><ele>119.0</ele><time>2026-03-28T08:50:49.761Z</time></trkpt><trkpt lat="45.4217167" lon="10.4774425"><ele>119.0</ele><time>2026-03-28T08:50:50.762Z</time></trkpt><trkpt lat="45.4216099" lon="10.4773829"><ele>119.0</ele><time>2026-03-28T08:50:51.762Z</time></trkpt><trkpt lat="45.4214775" lon="10.4773446"><ele>119.0</ele><time>2026-03-28T08:50:52.761Z</time></trkpt><trkpt lat="45.4213402" lon="10.4773102"><ele>119.0</ele><time>2026-03-28T08:50:53.762Z</time></trkpt><trkpt lat="45.4211889" lon="10.4772667"><ele>119.0</ele><time>2026-03-28T08:50:54.761Z</time></trkpt><trkpt lat="45.4210401" lon="10.477222"><ele>119.0</ele><time>2026-03-28T08:50:55.762Z</time></trkpt><trkpt lat="45.4208831" lon="10.4771807"><ele>119.66666666666666</ele><time>2026-03-28T08:50:56.761Z</time></trkpt><trkpt lat="45.4207253" lon="10.4771365"><ele>120.33333333333334</ele><time>2026-03-28T08:50:57.762Z</time></trkpt><trkpt lat="45.4205777" lon="10.4770951"><ele>121.0</ele><time>2026-03-28T08:50:58.761Z</time></trkpt><trkpt lat="45.4204321" lon="10.4770582"><ele>119.5</ele><time>2026-03-28T08:50:59.762Z</time></trkpt><trkpt lat="45.4202954" lon="10.4770227"><ele>118.0</ele><time>2026-03-28T08:51:00.762Z</time></trkpt><trkpt lat="45.4201656" lon="10.4769932"><ele>116.5</ele><time>2026-03-28T08:51:01.761Z</time></trkpt><trkpt lat="45.4200395" lon="10.476963"><ele>115.0</ele><time>2026-03-28T08:51:02.762Z</time></trkpt><trkpt lat="45.4199099" lon="10.4769259"><ele>115.0</ele><time>2026-03-28T08:51:03.761Z</time></trkpt><trkpt lat="45.4197851" lon="10.4768914"><ele>115.0</ele><time>2026-03-28T08:51:04.762Z</time></trkpt><trkpt lat="45.4196677" lon="10.4768606"><ele>115.0</ele><time>2026-03-28T08:51:05.762Z</time></trkpt><trkpt lat="45.4195565" lon="10.4768329"><ele>115.0</ele><time>2026-03-28T08:51:06.762Z</time></trkpt><trkpt lat="45.4194546" lon="10.476808"><ele>115.33333333333334</ele><time>2026-03-28T08:51:07.762Z</time></trkpt><trkpt lat="45.419361" lon="10.4767838"><ele>115.66666666666667</ele><time>2026-03-28T08:51:08.761Z</time></trkpt><trkpt lat="45.4192735" lon="10.4767622"><ele>116.0</ele><time>2026-03-28T08:51:09.761Z</time></trkpt><trkpt lat="45.4191939" lon="10.4767397"><ele>116.33333333333334</ele><time>2026-03-28T08:51:10.762Z</time></trkpt><trkpt lat="45.419119" lon="10.4767199"><ele>116.66666666666667</ele><time>2026-03-28T08:51:11.762Z</time></trkpt><trkpt lat="45.4190481" lon="10.4767053"><ele>117.0</ele><time>2026-03-28T08:51:12.761Z</time></trkpt><trkpt lat="45.4189838" lon="10.4766975"><ele>117.0</ele><time>2026-03-28T08:51:13.761Z</time></trkpt><trkpt lat="45.4188726" lon="10.4766761"><ele>116.99999999999999</ele><time>2026-03-28T08:51:15.761Z</time></trkpt><trkpt lat="45.4187789" lon="10.4766544"><ele>116.99999999999999</ele><time>2026-03-28T08:51:17.761Z</time></trkpt><trkpt lat="45.4186805" lon="10.4767098"><ele>117.0</ele><time>2026-03-28T08:51:19.761Z</time></trkpt><trkpt lat="45.4186648" lon="10.4768969"><ele>117.0</ele><time>2026-03-28T08:51:21.762Z</time></trkpt><trkpt lat="45.418648" lon="10.4770206"><ele>118.0</ele><time>2026-03-28T08:51:22.761Z</time></trkpt><trkpt lat="45.4185798" lon="10.4771952"><ele>119.0</ele><time>2026-03-28T08:51:23.761Z</time></trkpt><trkpt lat="45.4184918" lon="10.4774013"><ele>120.0</ele><time>2026-03-28T08:51:24.762Z</time></trkpt><trkpt lat="45.4183479" lon="10.477604"><ele>120.0</ele><time>2026-03-28T08:51:25.761Z</time></trkpt><trkpt lat="45.4182395" lon="10.477779"><ele>120.0</ele><time>2026-03-28T08:51:26.762Z</time></trkpt><trkpt lat="45.4181503" lon="10.4779932"><ele>120.0</ele><time>2026-03-28T08:51:27.761Z</time></trkpt><trkpt lat="45.4180715" lon="10.4782642"><ele>121.0</ele><time>2026-03-28T08:51:28.761Z</time></trkpt><trkpt lat="45.4179979" lon="10.4785345"><ele>122.0</ele><time>2026-03-28T08:51:29.762Z</time></trkpt><trkpt lat="45.417929" lon="10.4787776"><ele>123.0</ele><time>2026-03-28T08:51:30.762Z</time></trkpt><trkpt lat="45.4178768" lon="10.4789932"><ele>123.0</ele><time>2026-03-28T08:51:31.761Z</time></trkpt><trkpt lat="45.4178479" lon="10.4791806"><ele>123.0</ele><time>2026-03-28T08:51:32.761Z</time></trkpt><trkpt lat="45.4178567" lon="10.47935"><ele>123.0</ele><time>2026-03-28T08:51:33.762Z</time></trkpt><trkpt lat="45.4179089" lon="10.4795392"><ele>123.0</ele><time>2026-03-28T08:51:34.761Z</time></trkpt><trkpt lat="45.4179743" lon="10.4797416"><ele>124.0</ele><time>2026-03-28T08:51:35.761Z</time></trkpt><trkpt lat="45.4180382" lon="10.4799264"><ele>125.0</ele><time>2026-03-28T08:51:36.762Z</time></trkpt><trkpt lat="45.4180988" lon="10.4801123"><ele>126.0</ele><time>2026-03-28T08:51:37.762Z</time></trkpt><trkpt lat="45.418152" lon="10.4803049"><ele>127.0</ele><time>2026-03-28T08:51:38.761Z</time></trkpt><trkpt lat="45.4182066" lon="10.4804763"><ele>127.0</ele><time>2026-03-28T08:51:39.762Z</time></trkpt><trkpt lat="45.4182751" lon="10.480628"><ele>127.0</ele><time>2026-03-28T08:51:40.761Z</time></trkpt><trkpt lat="45.4183608" lon="10.4807613"><ele>127.0</ele><time>2026-03-28T08:51:41.761Z</time></trkpt><trkpt lat="45.4184556" lon="10.4808652"><ele>127.0</ele><time>2026-03-28T08:51:42.762Z</time></trkpt><trkpt lat="45.4185459" lon="10.4809487"><ele>127.00000000000001</ele><time>2026-03-28T08:51:43.761Z</time></trkpt><trkpt lat="45.4186172" lon="10.4810261"><ele>127.0</ele><time>2026-03-28T08:51:44.761Z</time></trkpt><trkpt lat="45.4186737" lon="10.4811089"><ele>127.0</ele><time>2026-03-28T08:51:45.762Z</time></trkpt><trkpt lat="45.4187129" lon="10.4812034"><ele>127.0</ele><time>2026-03-28T08:51:46.761Z</time></trkpt><trkpt lat="45.4187309" lon="10.481301"><ele>127.00000000000001</ele><time>2026-03-28T08:51:47.762Z</time></trkpt><trkpt lat="45.4187298" lon="10.4813942"><ele>127.0</ele><time>2026-03-28T08:51:48.761Z</time></trkpt><trkpt lat="45.4187069" lon="10.4815503"><ele>127.00000000000001</ele><time>2026-03-28T08:51:50.762Z</time></trkpt><trkpt lat="45.4186824" lon="10.4816365"><ele>127.0</ele><time>2026-03-28T08:51:52.761Z</time></trkpt><trkpt lat="45.4186518" lon="10.4817451"><ele>127.0</ele><time>2026-03-28T08:51:55.763Z</time></trkpt><trkpt lat="45.4186628" lon="10.4818623"><ele>127.0</ele><time>2026-03-28T08:51:57.761Z</time></trkpt><trkpt lat="45.4187052" lon="10.4819395"><ele>127.00000000000001</ele><time>2026-03-28T08:51:58.761Z</time></trkpt><trkpt lat="45.4187511" lon="10.4820247"><ele>127.0</ele><time>2026-03-28T08:51:59.762Z</time></trkpt><trkpt lat="45.4187759" lon="10.4821436"><ele>127.0</ele><time>2026-03-28T08:52:00.762Z</time></trkpt><trkpt lat="45.4187832" lon="10.4822768"><ele>126.99999999999999</ele><time>2026-03-28T08:52:01.761Z</time></trkpt><trkpt lat="45.4187935" lon="10.4824171"><ele>126.99999999999999</ele><time>2026-03-28T08:52:02.761Z</time></trkpt><trkpt lat="45.4187953" lon="10.4825635"><ele>127.0</ele><time>2026-03-28T08:52:03.761Z</time></trkpt><trkpt lat="45.4187999" lon="10.4827054"><ele>127.0</ele><time>2026-03-28T08:52:04.761Z</time></trkpt><trkpt lat="45.4187971" lon="10.4828315"><ele>127.39999999999999</ele><time>2026-03-28T08:52:05.762Z</time></trkpt><trkpt lat="45.4188154" lon="10.4829497"><ele>127.79999999999998</ele><time>2026-03-28T08:52:06.762Z</time></trkpt><trkpt lat="45.4188731" lon="10.4830663"><ele>128.2</ele><time>2026-03-28T08:52:07.761Z</time></trkpt><trkpt lat="45.4189551" lon="10.4831699"><ele>128.6</ele><time>2026-03-28T08:52:08.761Z</time></trkpt><trkpt lat="45.4190381" lon="10.4832474"><ele>129.0</ele><time>2026-03-28T08:52:09.761Z</time></trkpt><trkpt lat="45.4191148" lon="10.4833172"><ele>128.83333333333334</ele><time>2026-03-28T08:52:10.761Z</time></trkpt><trkpt lat="45.419185" lon="10.4833995"><ele>128.66666666666666</ele><time>2026-03-28T08:52:11.762Z</time></trkpt><trkpt lat="45.4192435" lon="10.4834799"><ele>128.5</ele><time>2026-03-28T08:52:12.761Z</time></trkpt><trkpt lat="45.4192945" lon="10.4835593"><ele>128.33333333333331</ele><time>2026-03-28T08:52:13.762Z</time></trkpt><trkpt lat="45.4193371" lon="10.4836354"><ele>128.16666666666666</ele><time>2026-03-28T08:52:14.762Z</time></trkpt><trkpt lat="45.4193651" lon="10.4837227"><ele>128.0</ele><time>2026-03-28T08:52:15.763Z</time></trkpt><trkpt lat="45.4193724" lon="10.4838186"><ele>127.99999999999999</ele><time>2026-03-28T08:52:16.761Z</time></trkpt><trkpt lat="45.4193637" lon="10.4839143"><ele>128.0</ele><time>2026-03-28T08:52:17.762Z</time></trkpt><trkpt lat="45.4193547" lon="10.4840189"><ele>128.0</ele><time>2026-03-28T08:52:18.761Z</time></trkpt><trkpt lat="45.4193431" lon="10.4841279"><ele>128.0</ele><time>2026-03-28T08:52:19.761Z</time></trkpt><trkpt lat="45.419333" lon="10.4842424"><ele>127.99999999999999</ele><time>2026-03-28T08:52:20.761Z</time></trkpt><trkpt lat="45.4193286" lon="10.4843669"><ele>128.0</ele><time>2026-03-28T08:52:21.761Z</time></trkpt><trkpt lat="45.41934" lon="10.4844837"><ele>127.99999999999999</ele><time>2026-03-28T08:52:22.761Z</time></trkpt><trkpt lat="45.4193678" lon="10.4845836"><ele>128.0</ele><time>2026-03-28T08:52:23.761Z</time></trkpt><trkpt lat="45.4194142" lon="10.4846823"><ele>128.0</ele><time>2026-03-28T08:52:24.762Z</time></trkpt><trkpt lat="45.4194672" lon="10.4847718"><ele>128.0</ele><time>2026-03-28T08:52:25.761Z</time></trkpt><trkpt lat="45.4195205" lon="10.4848443"><ele>127.99999999999999</ele><time>2026-03-28T08:52:26.762Z</time></trkpt><trkpt lat="45.4195741" lon="10.4849121"><ele>128.0</ele><time>2026-03-28T08:52:27.761Z</time></trkpt><trkpt lat="45.4196259" lon="10.4849762"><ele>127.99999999999999</ele><time>2026-03-28T08:52:28.761Z</time></trkpt><trkpt lat="45.4196789" lon="10.4850376"><ele>128.0</ele><time>2026-03-28T08:52:29.761Z</time></trkpt><trkpt lat="45.4197386" lon="10.485093"><ele>128.0</ele><time>2026-03-28T08:52:30.761Z</time></trkpt><trkpt lat="45.4198046" lon="10.4851522"><ele>128.0</ele><time>2026-03-28T08:52:31.762Z</time></trkpt><trkpt lat="45.4198796" lon="10.4852165"><ele>127.99999999999999</ele><time>2026-03-28T08:52:32.762Z</time></trkpt><trkpt lat="45.4199701" lon="10.4852827"><ele>128.0</ele><time>2026-03-28T08:52:33.761Z</time></trkpt><trkpt lat="45.4200733" lon="10.4853457"><ele>128.0</ele><time>2026-03-28T08:52:34.761Z</time></trkpt><trkpt lat="45.4201825" lon="10.4854028"><ele>128.0</ele><time>2026-03-28T08:52:35.761Z</time></trkpt><trkpt lat="45.4202943" lon="10.4854421"><ele>128.0</ele><time>2026-03-28T08:52:36.762Z</time></trkpt><trkpt lat="45.4203994" lon="10.4854797"><ele>128.0</ele><time>2026-03-28T08:52:37.762Z</time></trkpt><trkpt lat="45.4205114" lon="10.4854919"><ele>130.75</ele><time>2026-03-28T08:52:38.762Z</time></trkpt><trkpt lat="45.4206247" lon="10.4854993"><ele>133.5</ele><time>2026-03-28T08:52:39.762Z</time></trkpt><trkpt lat="45.4207358" lon="10.485498"><ele>136.25</ele><time>2026-03-28T08:52:40.761Z</time></trkpt><trkpt lat="45.4208471" lon="10.4854848"><ele>139.0</ele><time>2026-03-28T08:52:41.761Z</time></trkpt><trkpt lat="45.4209608" lon="10.4854784"><ele>139.0</ele><time>2026-03-28T08:52:42.761Z</time></trkpt><trkpt lat="45.4210777" lon="10.4854757"><ele>139.0</ele><time>2026-03-28T08:52:43.762Z</time></trkpt><trkpt lat="45.4211918" lon="10.485486"><ele>139.0</ele><time>2026-03-28T08:52:44.761Z</time></trkpt><trkpt lat="45.4213107" lon="10.4855079"><ele>139.0</ele><time>2026-03-28T08:52:45.761Z</time></trkpt><trkpt lat="45.4214263" lon="10.4855441"><ele>139.25</ele><time>2026-03-28T08:52:46.761Z</time></trkpt><trkpt lat="45.421545" lon="10.4855913"><ele>139.5</ele><time>2026-03-28T08:52:47.762Z</time></trkpt><trkpt lat="45.4216676" lon="10.4856152"><ele>139.75</ele><time>2026-03-28T08:52:48.761Z</time></trkpt><trkpt lat="45.4217764" lon="10.4856507"><ele>140.0</ele><time>2026-03-28T08:52:49.761Z</time></trkpt><trkpt lat="45.4218777" lon="10.4856961"><ele>140.0</ele><time>2026-03-28T08:52:50.762Z</time></trkpt><trkpt lat="45.421977" lon="10.4857469"><ele>140.0</ele><time>2026-03-28T08:52:51.761Z</time></trkpt><trkpt lat="45.422074" lon="10.4858153"><ele>140.0</ele><time>2026-03-28T08:52:52.761Z</time></trkpt><trkpt lat="45.4221551" lon="10.4858903"><ele>140.0</ele><time>2026-03-28T08:52:53.762Z</time></trkpt><trkpt lat="45.4222267" lon="10.4859858"><ele>140.0</ele><time>2026-03-28T08:52:54.762Z</time></trkpt><trkpt lat="45.4222975" lon="10.4860984"><ele>140.4</ele><time>2026-03-28T08:52:55.762Z</time></trkpt><trkpt lat="45.422351" lon="10.4862209"><ele>140.8</ele><time>2026-03-28T08:52:56.762Z</time></trkpt><trkpt lat="45.4223879" lon="10.4863444"><ele>141.2</ele><time>2026-03-28T08:52:57.762Z</time></trkpt><trkpt lat="45.4224113" lon="10.486476"><ele>141.6</ele><time>2026-03-28T08:52:58.762Z</time></trkpt><trkpt lat="45.4224246" lon="10.4866232"><ele>142.0</ele><time>2026-03-28T08:52:59.762Z</time></trkpt><trkpt lat="45.4224265" lon="10.4867824"><ele>142.5</ele><time>2026-03-28T08:53:00.762Z</time></trkpt><trkpt lat="45.4224159" lon="10.4869641"><ele>143.0</ele><time>2026-03-28T08:53:01.762Z</time></trkpt><trkpt lat="45.4223967" lon="10.4871329"><ele>143.5</ele><time>2026-03-28T08:53:02.762Z</time></trkpt><trkpt lat="45.4223831" lon="10.4873089"><ele>144.0</ele><time>2026-03-28T08:53:03.762Z</time></trkpt><trkpt lat="45.4223862" lon="10.487486"><ele>144.75</ele><time>2026-03-28T08:53:04.762Z</time></trkpt><trkpt lat="45.4224019" lon="10.4876503"><ele>145.5</ele><time>2026-03-28T08:53:05.762Z</time></trkpt><trkpt lat="45.4224355" lon="10.4878138"><ele>146.25</ele><time>2026-03-28T08:53:06.762Z</time></trkpt><trkpt lat="45.4224766" lon="10.487965"><ele>147.0</ele><time>2026-03-28T08:53:07.762Z</time></trkpt><trkpt lat="45.4225299" lon="10.4880952"><ele>147.6</ele><time>2026-03-28T08:53:08.761Z</time></trkpt><trkpt lat="45.4225963" lon="10.4882044"><ele>148.2</ele><time>2026-03-28T08:53:09.762Z</time></trkpt><trkpt lat="45.4226768" lon="10.4882924"><ele>148.8</ele><time>2026-03-28T08:53:10.761Z</time></trkpt><trkpt lat="45.4227694" lon="10.4883802"><ele>149.4</ele><time>2026-03-28T08:53:11.761Z</time></trkpt><trkpt lat="45.4228645" lon="10.488467"><ele>150.0</ele><time>2026-03-28T08:53:12.761Z</time></trkpt><trkpt lat="45.4229733" lon="10.4885487"><ele>150.0</ele><time>2026-03-28T08:53:13.761Z</time></trkpt><trkpt lat="45.423074" lon="10.4886443"><ele>150.0</ele><time>2026-03-28T08:53:14.761Z</time></trkpt><trkpt lat="45.4231861" lon="10.4887526"><ele>150.0</ele><time>2026-03-28T08:53:15.761Z</time></trkpt><trkpt lat="45.4233025" lon="10.4888481"><ele>150.0</ele><time>2026-03-28T08:53:16.761Z</time></trkpt><trkpt lat="45.4234129" lon="10.4889365"><ele>150.75</ele><time>2026-03-28T08:53:17.761Z</time></trkpt><trkpt lat="45.4235111" lon="10.4890199"><ele>151.5</ele><time>2026-03-28T08:53:18.762Z</time></trkpt><trkpt lat="45.4236099" lon="10.4891026"><ele>152.25</ele><time>2026-03-28T08:53:19.761Z</time></trkpt><trkpt lat="45.423708" lon="10.489202"><ele>153.0</ele><time>2026-03-28T08:53:20.761Z</time></trkpt><trkpt lat="45.4238062" lon="10.4893122"><ele>153.0</ele><time>2026-03-28T08:53:21.762Z</time></trkpt><trkpt lat="45.4239003" lon="10.4894328"><ele>153.0</ele><time>2026-03-28T08:53:22.762Z</time></trkpt><trkpt lat="45.4239933" lon="10.4895612"><ele>153.0</ele><time>2026-03-28T08:53:23.761Z</time></trkpt><trkpt lat="45.4240808" lon="10.489684"><ele>153.0</ele><time>2026-03-28T08:53:24.761Z</time></trkpt><trkpt lat="45.4241575" lon="10.4897919"><ele>152.8</ele><time>2026-03-28T08:53:25.762Z</time></trkpt><trkpt lat="45.4242312" lon="10.4898863"><ele>152.60000000000002</ele><time>2026-03-28T08:53:26.762Z</time></trkpt><trkpt lat="45.4243069" lon="10.4899931"><ele>152.39999999999998</ele><time>2026-03-28T08:53:27.761Z</time></trkpt><trkpt lat="45.42439" lon="10.4900987"><ele>152.2</ele><time>2026-03-28T08:53:28.762Z</time></trkpt><trkpt lat="45.4244721" lon="10.4902051"><ele>152.0</ele><time>2026-03-28T08:53:29.761Z</time></trkpt><trkpt lat="45.4245583" lon="10.4903132"><ele>152.0</ele><time>2026-03-28T08:53:30.761Z</time></trkpt><trkpt lat="45.4246459" lon="10.4904242"><ele>152.0</ele><time>2026-03-28T08:53:31.762Z</time></trkpt><trkpt lat="45.4247371" lon="10.4905323"><ele>152.0</ele><time>2026-03-28T08:53:32.761Z</time></trkpt><trkpt lat="45.4248327" lon="10.4906468"><ele>152.0</ele><time>2026-03-28T08:53:33.762Z</time></trkpt><trkpt lat="45.4249095" lon="10.490761"><ele>152.2</ele><time>2026-03-28T08:53:34.761Z</time></trkpt><trkpt lat="45.4249668" lon="10.4908791"><ele>152.39999999999998</ele><time>2026-03-28T08:53:35.762Z</time></trkpt><trkpt lat="45.4250139" lon="10.4910036"><ele>152.60000000000002</ele><time>2026-03-28T08:53:36.762Z</time></trkpt><trkpt lat="45.4250252" lon="10.4911427"><ele>152.8</ele><time>2026-03-28T08:53:37.761Z</time></trkpt><trkpt lat="45.4250328" lon="10.4912919"><ele>153.0</ele><time>2026-03-28T08:53:38.762Z</time></trkpt><trkpt lat="45.4250347" lon="10.4914581"><ele>153.0</ele><time>2026-03-28T08:53:39.762Z</time></trkpt><trkpt lat="45.4250303" lon="10.4916037"><ele>153.0</ele><time>2026-03-28T08:53:40.762Z</time></trkpt><trkpt lat="45.4250222" lon="10.4917594"><ele>153.0</ele><time>2026-03-28T08:53:41.761Z</time></trkpt><trkpt lat="45.4250191" lon="10.4919165"><ele>153.0</ele><time>2026-03-28T08:53:42.761Z</time></trkpt><trkpt lat="45.4250247" lon="10.4920684"><ele>153.0</ele><time>2026-03-28T08:53:43.761Z</time></trkpt><trkpt lat="45.4250245" lon="10.4922049"><ele>152.16666666666666</ele><time>2026-03-28T08:53:44.761Z</time></trkpt><trkpt lat="45.4250268" lon="10.4923322"><ele>151.33333333333334</ele><time>2026-03-28T08:53:45.761Z</time></trkpt><trkpt lat="45.4250379" lon="10.4924499"><ele>150.5</ele><time>2026-03-28T08:53:46.761Z</time></trkpt><trkpt lat="45.4250592" lon="10.4925606"><ele>149.66666666666669</ele><time>2026-03-28T08:53:47.762Z</time></trkpt><trkpt lat="45.4250955" lon="10.4926624"><ele>148.83333333333334</ele><time>2026-03-28T08:53:48.762Z</time></trkpt><trkpt lat="45.4251468" lon="10.492758"><ele>148.0</ele><time>2026-03-28T08:53:49.761Z</time></trkpt><trkpt lat="45.4252143" lon="10.4928427"><ele>148.0</ele><time>2026-03-28T08:53:50.762Z</time></trkpt><trkpt lat="45.4252915" lon="10.4929115"><ele>148.0</ele><time>2026-03-28T08:53:51.762Z</time></trkpt><trkpt lat="45.4253762" lon="10.4929667"><ele>148.0</ele><time>2026-03-28T08:53:52.761Z</time></trkpt><trkpt lat="45.4254693" lon="10.4930179"><ele>148.0</ele><time>2026-03-28T08:53:53.762Z</time></trkpt><trkpt lat="45.425565" lon="10.4930753"><ele>148.0</ele><time>2026-03-28T08:53:54.761Z</time></trkpt><trkpt lat="45.4256609" lon="10.493136"><ele>147.4</ele><time>2026-03-28T08:53:55.761Z</time></trkpt><trkpt lat="45.4257538" lon="10.4931981"><ele>146.8</ele><time>2026-03-28T08:53:56.761Z</time></trkpt><trkpt lat="45.4258402" lon="10.4932537"><ele>146.2</ele><time>2026-03-28T08:53:57.762Z</time></trkpt><trkpt lat="45.4259286" lon="10.4933094"><ele>145.6</ele><time>2026-03-28T08:53:58.762Z</time></trkpt><trkpt lat="45.4260137" lon="10.4933628"><ele>145.0</ele><time>2026-03-28T08:53:59.761Z</time></trkpt><trkpt lat="45.4261013" lon="10.4934071"><ele>145.0</ele><time>2026-03-28T08:54:00.762Z</time></trkpt><trkpt lat="45.4261842" lon="10.4934527"><ele>145.0</ele><time>2026-03-28T08:54:01.761Z</time></trkpt><trkpt lat="45.4262682" lon="10.4934991"><ele>145.0</ele><time>2026-03-28T08:54:02.762Z</time></trkpt><trkpt lat="45.4263561" lon="10.4935526"><ele>145.0</ele><time>2026-03-28T08:54:03.761Z</time></trkpt><trkpt lat="45.4264437" lon="10.493611"><ele>145.0</ele><time>2026-03-28T08:54:04.762Z</time></trkpt><trkpt lat="45.4265306" lon="10.4936764"><ele>144.4</ele><time>2026-03-28T08:54:05.761Z</time></trkpt><trkpt lat="45.4266167" lon="10.4937491"><ele>143.8</ele><time>2026-03-28T08:54:06.762Z</time></trkpt><trkpt lat="45.4267018" lon="10.4938269"><ele>143.2</ele><time>2026-03-28T08:54:07.762Z</time></trkpt><trkpt lat="45.4267905" lon="10.4939039"><ele>142.6</ele><time>2026-03-28T08:54:08.761Z</time></trkpt><trkpt lat="45.426886" lon="10.4939824"><ele>142.0</ele><time>2026-03-28T08:54:09.761Z</time></trkpt><trkpt lat="45.4269845" lon="10.4940592"><ele>142.0</ele><time>2026-03-28T08:54:10.762Z</time></trkpt><trkpt lat="45.4270782" lon="10.4941046"><ele>142.0</ele><time>2026-03-28T08:54:11.761Z</time></trkpt><trkpt lat="45.4271659" lon="10.4941209"><ele>142.0</ele><time>2026-03-28T08:54:12.761Z</time></trkpt><trkpt lat="45.4272596" lon="10.4941202"><ele>142.0</ele><time>2026-03-28T08:54:13.761Z</time></trkpt><trkpt lat="45.4273607" lon="10.4941048"><ele>142.0</ele><time>2026-03-28T08:54:14.761Z</time></trkpt><trkpt lat="45.427465" lon="10.4940875"><ele>142.6</ele><time>2026-03-28T08:54:15.761Z</time></trkpt><trkpt lat="45.4275725" lon="10.4940786"><ele>143.2</ele><time>2026-03-28T08:54:16.763Z</time></trkpt><trkpt lat="45.4276815" lon="10.4940666"><ele>143.8</ele><time>2026-03-28T08:54:17.761Z</time></trkpt><trkpt lat="45.4277909" lon="10.494048"><ele>144.4</ele><time>2026-03-28T08:54:18.762Z</time></trkpt><trkpt lat="45.4278955" lon="10.4940498"><ele>145.0</ele><time>2026-03-28T08:54:19.762Z</time></trkpt><trkpt lat="45.4279969" lon="10.4940409"><ele>145.6</ele><time>2026-03-28T08:54:20.761Z</time></trkpt><trkpt lat="45.428098" lon="10.4940348"><ele>146.2</ele><time>2026-03-28T08:54:21.761Z</time></trkpt><trkpt lat="45.4282027" lon="10.4940484"><ele>146.8</ele><time>2026-03-28T08:54:22.761Z</time></trkpt><trkpt lat="45.4283132" lon="10.4940706"><ele>147.4</ele><time>2026-03-28T08:54:23.762Z</time></trkpt><trkpt lat="45.4284127" lon="10.4941194"><ele>148.0</ele><time>2026-03-28T08:54:24.761Z</time></trkpt><trkpt lat="45.4285089" lon="10.4941764"><ele>148.0</ele><time>2026-03-28T08:54:25.762Z</time></trkpt><trkpt lat="45.4286086" lon="10.4942413"><ele>148.0</ele><time>2026-03-28T08:54:26.762Z</time></trkpt><trkpt lat="45.4287121" lon="10.4943035"><ele>148.0</ele><time>2026-03-28T08:54:27.761Z</time></trkpt><trkpt lat="45.4288188" lon="10.4943618"><ele>148.0</ele><time>2026-03-28T08:54:28.762Z</time></trkpt><trkpt lat="45.4289255" lon="10.4944248"><ele>148.5</ele><time>2026-03-28T08:54:29.762Z</time></trkpt><trkpt lat="45.4290326" lon="10.4944892"><ele>149.0</ele><time>2026-03-28T08:54:30.761Z</time></trkpt><trkpt lat="45.4291385" lon="10.4945477"><ele>149.5</ele><time>2026-03-28T08:54:31.762Z</time></trkpt><trkpt lat="45.4292402" lon="10.4946108"><ele>150.0</ele><time>2026-03-28T08:54:32.761Z</time></trkpt><trkpt lat="45.4293392" lon="10.4946772"><ele>148.5</ele><time>2026-03-28T08:54:33.761Z</time></trkpt><trkpt lat="45.4294399" lon="10.4947428"><ele>147.0</ele><time>2026-03-28T08:54:34.762Z</time></trkpt><trkpt lat="45.429537" lon="10.4948181"><ele>145.5</ele><time>2026-03-28T08:54:35.761Z</time></trkpt><trkpt lat="45.4296358" lon="10.4949049"><ele>144.0</ele><time>2026-03-28T08:54:36.762Z</time></trkpt><trkpt lat="45.4297343" lon="10.4949996"><ele>145.2</ele><time>2026-03-28T08:54:37.761Z</time></trkpt><trkpt lat="45.4298337" lon="10.4950955"><ele>146.4</ele><time>2026-03-28T08:54:38.762Z</time></trkpt><trkpt lat="45.4299241" lon="10.4951904"><ele>147.6</ele><time>2026-03-28T08:54:39.761Z</time></trkpt><trkpt lat="45.4300047" lon="10.4952893"><ele>148.8</ele><time>2026-03-28T08:54:40.762Z</time></trkpt><trkpt lat="45.4300834" lon="10.4953951"><ele>150.0</ele><time>2026-03-28T08:54:41.761Z</time></trkpt><trkpt lat="45.4301558" lon="10.4955047"><ele>150.0</ele><time>2026-03-28T08:54:42.761Z</time></trkpt><trkpt lat="45.4302163" lon="10.4956209"><ele>150.0</ele><time>2026-03-28T08:54:43.761Z</time></trkpt><trkpt lat="45.4302698" lon="10.4957532"><ele>150.0</ele><time>2026-03-28T08:54:44.762Z</time></trkpt><trkpt lat="45.4303217" lon="10.4958941"><ele>150.0</ele><time>2026-03-28T08:54:45.761Z</time></trkpt><trkpt lat="45.4303849" lon="10.4960348"><ele>150.0</ele><time>2026-03-28T08:54:46.762Z</time></trkpt><trkpt lat="45.4304516" lon="10.4961724"><ele>152.0</ele><time>2026-03-28T08:54:47.762Z</time></trkpt><trkpt lat="45.430521" lon="10.496289"><ele>154.0</ele><time>2026-03-28T08:54:48.762Z</time></trkpt><trkpt lat="45.4306005" lon="10.4964095"><ele>156.0</ele><time>2026-03-28T08:54:49.762Z</time></trkpt><trkpt lat="45.4306878" lon="10.4965222"><ele>158.0</ele><time>2026-03-28T08:54:50.762Z</time></trkpt><trkpt lat="45.4307801" lon="10.4966276"><ele>158.0</ele><time>2026-03-28T08:54:51.761Z</time></trkpt><trkpt lat="45.4308784" lon="10.4967246"><ele>158.0</ele><time>2026-03-28T08:54:52.762Z</time></trkpt><trkpt lat="45.4309804" lon="10.4968152"><ele>158.0</ele><time>2026-03-28T08:54:53.762Z</time></trkpt><trkpt lat="45.4310746" lon="10.4968971"><ele>158.0</ele><time>2026-03-28T08:54:54.761Z</time></trkpt><trkpt lat="45.431158" lon="10.4969775"><ele>158.0</ele><time>2026-03-28T08:54:55.761Z</time></trkpt><trkpt lat="45.4312334" lon="10.4970548"><ele>158.0</ele><time>2026-03-28T08:54:56.762Z</time></trkpt><trkpt lat="45.4313063" lon="10.4971382"><ele>158.0</ele><time>2026-03-28T08:54:57.762Z</time></trkpt><trkpt lat="45.4313692" lon="10.497235"><ele>158.0</ele><time>2026-03-28T08:54:58.761Z</time></trkpt><trkpt lat="45.431424" lon="10.4973514"><ele>158.0</ele><time>2026-03-28T08:54:59.761Z</time></trkpt><trkpt lat="45.4314728" lon="10.4974839"><ele>157.5</ele><time>2026-03-28T08:55:00.761Z</time></trkpt><trkpt lat="45.4315293" lon="10.4976314"><ele>157.0</ele><time>2026-03-28T08:55:01.762Z</time></trkpt><trkpt lat="45.4315876" lon="10.4977896"><ele>156.5</ele><time>2026-03-28T08:55:02.762Z</time></trkpt><trkpt lat="45.4316381" lon="10.4979441"><ele>156.0</ele><time>2026-03-28T08:55:03.761Z</time></trkpt><trkpt lat="45.4316855" lon="10.4981021"><ele>154.8</ele><time>2026-03-28T08:55:04.762Z</time></trkpt><trkpt lat="45.4317241" lon="10.4982528"><ele>153.6</ele><time>2026-03-28T08:55:05.761Z</time></trkpt><trkpt lat="45.4317543" lon="10.498394"><ele>152.4</ele><time>2026-03-28T08:55:06.761Z</time></trkpt><trkpt lat="45.4317728" lon="10.4985262"><ele>151.2</ele><time>2026-03-28T08:55:07.762Z</time></trkpt><trkpt lat="45.4317748" lon="10.4986688"><ele>150.0</ele><time>2026-03-28T08:55:08.761Z</time></trkpt><trkpt lat="45.4317644" lon="10.4988176"><ele>150.0</ele><time>2026-03-28T08:55:09.762Z</time></trkpt><trkpt lat="45.4317485" lon="10.498971"><ele>150.0</ele><time>2026-03-28T08:55:10.761Z</time></trkpt><trkpt lat="45.4317327" lon="10.4991278"><ele>150.0</ele><time>2026-03-28T08:55:11.761Z</time></trkpt><trkpt lat="45.4317112" lon="10.4992898"><ele>150.0</ele><time>2026-03-28T08:55:12.763Z</time></trkpt><trkpt lat="45.4316859" lon="10.4994506"><ele>150.0</ele><time>2026-03-28T08:55:13.761Z</time></trkpt><trkpt lat="45.4316619" lon="10.499612"><ele>150.0</ele><time>2026-03-28T08:55:14.762Z</time></trkpt><trkpt lat="45.4316361" lon="10.4997713"><ele>150.0</ele><time>2026-03-28T08:55:15.761Z</time></trkpt><trkpt lat="45.4316039" lon="10.4999357"><ele>150.0</ele><time>2026-03-28T08:55:16.761Z</time></trkpt><trkpt lat="45.4315687" lon="10.5001102"><ele>150.0</ele><time>2026-03-28T08:55:17.761Z</time></trkpt><trkpt lat="45.431538" lon="10.5002892"><ele>150.0</ele><time>2026-03-28T08:55:18.762Z</time></trkpt><trkpt lat="45.431508" lon="10.5004728"><ele>150.0</ele><time>2026-03-28T08:55:19.762Z</time></trkpt><trkpt lat="45.4314761" lon="10.5006593"><ele>150.0</ele><time>2026-03-28T08:55:20.763Z</time></trkpt><trkpt lat="45.4314434" lon="10.5008388"><ele>149.6</ele><time>2026-03-28T08:55:21.761Z</time></trkpt><trkpt lat="45.4314105" lon="10.501014"><ele>149.2</ele><time>2026-03-28T08:55:22.761Z</time></trkpt><trkpt lat="45.4313838" lon="10.5011707"><ele>148.8</ele><time>2026-03-28T08:55:23.761Z</time></trkpt><trkpt lat="45.4313577" lon="10.5013159"><ele>148.4</ele><time>2026-03-28T08:55:24.761Z</time></trkpt><trkpt lat="45.4313347" lon="10.5014589"><ele>148.0</ele><time>2026-03-28T08:55:25.762Z</time></trkpt><trkpt lat="45.4313153" lon="10.5015889"><ele>147.83333333333334</ele><time>2026-03-28T08:55:26.762Z</time></trkpt><trkpt lat="45.4312936" lon="10.5017095"><ele>147.66666666666669</ele><time>2026-03-28T08:55:27.762Z</time></trkpt><trkpt lat="45.4312714" lon="10.5018152"><ele>147.5</ele><time>2026-03-28T08:55:28.762Z</time></trkpt><trkpt lat="45.4312522" lon="10.5019034"><ele>147.33333333333334</ele><time>2026-03-28T08:55:29.761Z</time></trkpt><trkpt lat="45.4312161" lon="10.5020132"><ele>147.16666666666666</ele><time>2026-03-28T08:55:31.761Z</time></trkpt><trkpt lat="45.4311437" lon="10.5020414"><ele>147.0</ele><time>2026-03-28T08:55:34.761Z</time></trkpt><trkpt lat="45.431078" lon="10.5019838"><ele>147.0</ele><time>2026-03-28T08:55:37.762Z</time></trkpt><trkpt lat="45.4309796" lon="10.5019136"><ele>147.0</ele><time>2026-03-28T08:55:39.762Z</time></trkpt><trkpt lat="45.4309256" lon="10.5018629"><ele>147.0</ele><time>2026-03-28T08:55:40.762Z</time></trkpt><trkpt lat="45.4308717" lon="10.5018018"><ele>147.0</ele><time>2026-03-28T08:55:41.762Z</time></trkpt><trkpt lat="45.430804" lon="10.5017347"><ele>147.0</ele><time>2026-03-28T08:55:42.761Z</time></trkpt><trkpt lat="45.4307328" lon="10.5016607"><ele>147.0</ele><time>2026-03-28T08:55:43.762Z</time></trkpt><trkpt lat="45.4306566" lon="10.5015794"><ele>147.0</ele><time>2026-03-28T08:55:44.761Z</time></trkpt><trkpt lat="45.4305772" lon="10.5014983"><ele>147.0</ele><time>2026-03-28T08:55:45.761Z</time></trkpt><trkpt lat="45.4304943" lon="10.501414"><ele>147.0</ele><time>2026-03-28T08:55:46.762Z</time></trkpt><trkpt lat="45.4304083" lon="10.5013315"><ele>147.0</ele><time>2026-03-28T08:55:47.762Z</time></trkpt><trkpt lat="45.4303255" lon="10.5012538"><ele>147.0</ele><time>2026-03-28T08:55:48.761Z</time></trkpt><trkpt lat="45.4302468" lon="10.5011765"><ele>146.66666666666666</ele><time>2026-03-28T08:55:49.762Z</time></trkpt><trkpt lat="45.4301706" lon="10.501104"><ele>146.33333333333334</ele><time>2026-03-28T08:55:50.761Z</time></trkpt><trkpt lat="45.4301017" lon="10.5010358"><ele>146.0</ele><time>2026-03-28T08:55:51.761Z</time></trkpt><trkpt lat="45.4300415" lon="10.5009747"><ele>145.66666666666669</ele><time>2026-03-28T08:55:52.761Z</time></trkpt><trkpt lat="45.4299873" lon="10.5009215"><ele>145.33333333333334</ele><time>2026-03-28T08:55:53.762Z</time></trkpt><trkpt lat="45.4298942" lon="10.50083"><ele>145.0</ele><time>2026-03-28T08:55:55.761Z</time></trkpt><trkpt lat="45.4298281" lon="10.500804"><ele>145.0</ele><time>2026-03-28T08:55:57.762Z</time></trkpt><trkpt lat="45.4297534" lon="10.500853"><ele>145.0</ele><time>2026-03-28T08:55:59.761Z</time></trkpt><trkpt lat="45.4296653" lon="10.5009906"><ele>145.0</ele><time>2026-03-28T08:56:01.762Z</time></trkpt><trkpt lat="45.4296162" lon="10.5010879"><ele>145.0</ele><time>2026-03-28T08:56:02.762Z</time></trkpt><trkpt lat="45.4295679" lon="10.5011854"><ele>145.0</ele><time>2026-03-28T08:56:03.761Z</time></trkpt><trkpt lat="45.4295196" lon="10.5012728"><ele>146.0</ele><time>2026-03-28T08:56:04.763Z</time></trkpt><trkpt lat="45.4294676" lon="10.5013602"><ele>147.0</ele><time>2026-03-28T08:56:05.761Z</time></trkpt><trkpt lat="45.4294073" lon="10.501442"><ele>148.0</ele><time>2026-03-28T08:56:06.761Z</time></trkpt><trkpt lat="45.4293465" lon="10.5015235"><ele>149.0</ele><time>2026-03-28T08:56:07.762Z</time></trkpt><trkpt lat="45.4292881" lon="10.5015976"><ele>150.0</ele><time>2026-03-28T08:56:08.762Z</time></trkpt><trkpt lat="45.4292296" lon="10.5016767"><ele>151.0</ele><time>2026-03-28T08:56:09.761Z</time></trkpt><trkpt lat="45.4291773" lon="10.5017515"><ele>151.0</ele><time>2026-03-28T08:56:10.761Z</time></trkpt><trkpt lat="45.4291383" lon="10.5018296"><ele>151.0</ele><time>2026-03-28T08:56:11.762Z</time></trkpt><trkpt lat="45.4290922" lon="10.5019124"><ele>151.0</ele><time>2026-03-28T08:56:12.761Z</time></trkpt><trkpt lat="45.4290679" lon="10.5020338"><ele>151.0</ele><time>2026-03-28T08:56:13.762Z</time></trkpt><trkpt lat="45.4290337" lon="10.5021397"><ele>151.0</ele><time>2026-03-28T08:56:14.761Z</time></trkpt><trkpt lat="45.4289989" lon="10.502242"><ele>151.0</ele><time>2026-03-28T08:56:15.761Z</time></trkpt><trkpt lat="45.4289648" lon="10.5023496"><ele>151.16666666666669</ele><time>2026-03-28T08:56:16.761Z</time></trkpt><trkpt lat="45.4289284" lon="10.5024593"><ele>151.33333333333334</ele><time>2026-03-28T08:56:17.763Z</time></trkpt><trkpt lat="45.4288938" lon="10.5025751"><ele>151.5</ele><time>2026-03-28T08:56:18.762Z</time></trkpt><trkpt lat="45.4288588" lon="10.5026832"><ele>151.66666666666666</ele><time>2026-03-28T08:56:19.761Z</time></trkpt><trkpt lat="45.4288163" lon="10.5027836"><ele>151.83333333333331</ele><time>2026-03-28T08:56:20.761Z</time></trkpt><trkpt lat="45.4287784" lon="10.5028787"><ele>152.0</ele><time>2026-03-28T08:56:21.762Z</time></trkpt><trkpt lat="45.428731" lon="10.5029537"><ele>151.66666666666666</ele><time>2026-03-28T08:56:22.761Z</time></trkpt><trkpt lat="45.4286766" lon="10.5030247"><ele>151.33333333333331</ele><time>2026-03-28T08:56:23.761Z</time></trkpt><trkpt lat="45.4286225" lon="10.503073"><ele>151.0</ele><time>2026-03-28T08:56:24.762Z</time></trkpt><trkpt lat="45.4285585" lon="10.5031206"><ele>150.66666666666666</ele><time>2026-03-28T08:56:25.762Z</time></trkpt><trkpt lat="45.4284985" lon="10.5031606"><ele>150.33333333333334</ele><time>2026-03-28T08:56:26.761Z</time></trkpt><trkpt lat="45.428404" lon="10.50322"><ele>150.0</ele><time>2026-03-28T08:56:28.762Z</time></trkpt><trkpt lat="45.4283192" lon="10.5032863"><ele>150.0</ele><time>2026-03-28T08:56:30.762Z</time></trkpt><trkpt lat="45.4282419" lon="10.5033956"><ele>150.0</ele><time>2026-03-28T08:56:32.762Z</time></trkpt><trkpt lat="45.4281834" lon="10.5035194"><ele>150.0</ele><time>2026-03-28T08:56:34.761Z</time></trkpt><trkpt lat="45.4281443" lon="10.5036058"><ele>150.0</ele><time>2026-03-28T08:56:35.761Z</time></trkpt><trkpt lat="45.4281008" lon="10.503681"><ele>150.0</ele><time>2026-03-28T08:56:36.761Z</time></trkpt><trkpt lat="45.4280546" lon="10.5037437"><ele>150.0</ele><time>2026-03-28T08:56:37.762Z</time></trkpt><trkpt lat="45.4279629" lon="10.5038052"><ele>147.8</ele><time>2026-03-28T08:56:39.761Z</time></trkpt><trkpt lat="45.4278444" lon="10.5038647"><ele>145.6</ele><time>2026-03-28T08:56:41.762Z</time></trkpt><trkpt lat="45.4277763" lon="10.5039206"><ele>143.4</ele><time>2026-03-28T08:56:42.761Z</time></trkpt><trkpt lat="45.4277034" lon="10.5039848"><ele>141.2</ele><time>2026-03-28T08:56:43.761Z</time></trkpt><trkpt lat="45.4276059" lon="10.504056"><ele>139.0</ele><time>2026-03-28T08:56:44.762Z</time></trkpt><trkpt lat="45.4275271" lon="10.5040928"><ele>139.0</ele><time>2026-03-28T08:56:45.762Z</time></trkpt><trkpt lat="45.4274379" lon="10.5041232"><ele>139.0</ele><time>2026-03-28T08:56:46.761Z</time></trkpt><trkpt lat="45.427353" lon="10.5041541"><ele>139.0</ele><time>2026-03-28T08:56:47.762Z</time></trkpt><trkpt lat="45.4272625" lon="10.5041564"><ele>139.0</ele><time>2026-03-28T08:56:48.762Z</time></trkpt><trkpt lat="45.4271558" lon="10.5041512"><ele>139.0</ele><time>2026-03-28T08:56:49.761Z</time></trkpt><trkpt lat="45.4270766" lon="10.5041469"><ele>139.16666666666669</ele><time>2026-03-28T08:56:50.762Z</time></trkpt><trkpt lat="45.4269951" lon="10.5041377"><ele>139.33333333333334</ele><time>2026-03-28T08:56:51.761Z</time></trkpt><trkpt lat="45.4268936" lon="10.5041348"><ele>139.5</ele><time>2026-03-28T08:56:52.762Z</time></trkpt><trkpt lat="45.4267958" lon="10.5041368"><ele>139.66666666666666</ele><time>2026-03-28T08:56:53.762Z</time></trkpt><trkpt lat="45.4267156" lon="10.5041359"><ele>139.83333333333331</ele><time>2026-03-28T08:56:54.761Z</time></trkpt><trkpt lat="45.4266326" lon="10.5041486"><ele>140.0</ele><time>2026-03-28T08:56:55.761Z</time></trkpt><trkpt lat="45.4265558" lon="10.5041818"><ele>140.0</ele><time>2026-03-28T08:56:56.761Z</time></trkpt><trkpt lat="45.4264572" lon="10.504249"><ele>140.0</ele><time>2026-03-28T08:56:57.762Z</time></trkpt><trkpt lat="45.4263575" lon="10.5043254"><ele>140.0</ele><time>2026-03-28T08:56:58.762Z</time></trkpt><trkpt lat="45.426268" lon="10.5044075"><ele>140.0</ele><time>2026-03-28T08:56:59.761Z</time></trkpt><trkpt lat="45.4261781" lon="10.5044855"><ele>140.0</ele><time>2026-03-28T08:57:00.762Z</time></trkpt><trkpt lat="45.4260947" lon="10.5045683"><ele>137.8</ele><time>2026-03-28T08:57:01.761Z</time></trkpt><trkpt lat="45.4260117" lon="10.5046417"><ele>135.6</ele><time>2026-03-28T08:57:02.761Z</time></trkpt><trkpt lat="45.4259291" lon="10.5047035"><ele>133.4</ele><time>2026-03-28T08:57:03.762Z</time></trkpt><trkpt lat="45.4258522" lon="10.5047722"><ele>131.2</ele><time>2026-03-28T08:57:04.761Z</time></trkpt><trkpt lat="45.4257956" lon="10.504848"><ele>129.0</ele><time>2026-03-28T08:57:05.762Z</time></trkpt><trkpt lat="45.4257045" lon="10.5049448"><ele>129.0</ele><time>2026-03-28T08:57:07.761Z</time></trkpt><trkpt lat="45.4256314" lon="10.5050109"><ele>129.0</ele><time>2026-03-28T08:57:09.762Z</time></trkpt><trkpt lat="45.4254956" lon="10.5050293"><ele>129.0</ele><time>2026-03-28T08:57:11.762Z</time></trkpt><trkpt lat="45.4253888" lon="10.5050113"><ele>129.0</ele><time>2026-03-28T08:57:12.762Z</time></trkpt><trkpt lat="45.4252073" lon="10.5049807"><ele>129.0</ele><time>2026-03-28T08:57:13.762Z</time></trkpt><trkpt lat="45.4250389" lon="10.5049682"><ele>129.0</ele><time>2026-03-28T08:57:14.761Z</time></trkpt><trkpt lat="45.4248005" lon="10.5049591"><ele>129.0</ele><time>2026-03-28T08:57:15.762Z</time></trkpt><trkpt lat="45.4246082" lon="10.5049511"><ele>129.0</ele><time>2026-03-28T08:57:16.762Z</time></trkpt><trkpt lat="45.4244191" lon="10.5049312"><ele>129.0</ele><time>2026-03-28T08:57:17.762Z</time></trkpt><trkpt lat="45.4242505" lon="10.5049035"><ele>129.0</ele><time>2026-03-28T08:57:18.762Z</time></trkpt><trkpt lat="45.4241017" lon="10.5048629"><ele>129.0</ele><time>2026-03-28T08:57:19.761Z</time></trkpt><trkpt lat="45.4239697" lon="10.5048109"><ele>129.0</ele><time>2026-03-28T08:57:20.762Z</time></trkpt><trkpt lat="45.4238257" lon="10.5047336"><ele>129.0</ele><time>2026-03-28T08:57:21.761Z</time></trkpt><trkpt lat="45.4236648" lon="10.5046021"><ele>128.33333333333334</ele><time>2026-03-28T08:57:22.761Z</time></trkpt><trkpt lat="45.4235183" lon="10.5044798"><ele>127.66666666666667</ele><time>2026-03-28T08:57:23.761Z</time></trkpt><trkpt lat="45.4233739" lon="10.5043569"><ele>127.0</ele><time>2026-03-28T08:57:24.762Z</time></trkpt><trkpt lat="45.4232195" lon="10.5042326"><ele>127.0</ele><time>2026-03-28T08:57:25.761Z</time></trkpt><trkpt lat="45.4230572" lon="10.5041282"><ele>127.0</ele><time>2026-03-28T08:57:26.762Z</time></trkpt><trkpt lat="45.4228853" lon="10.5040231"><ele>127.0</ele><time>2026-03-28T08:57:27.762Z</time></trkpt><trkpt lat="45.4227201" lon="10.5039209"><ele>127.0</ele><time>2026-03-28T08:57:28.762Z</time></trkpt><trkpt lat="45.4225417" lon="10.5038282"><ele>127.0</ele><time>2026-03-28T08:57:29.761Z</time></trkpt><trkpt lat="45.4223616" lon="10.5037542"><ele>127.0</ele><time>2026-03-28T08:57:30.761Z</time></trkpt><trkpt lat="45.4221904" lon="10.5036868"><ele>126.25</ele><time>2026-03-28T08:57:31.761Z</time></trkpt><trkpt lat="45.4220389" lon="10.5036231"><ele>125.5</ele><time>2026-03-28T08:57:32.762Z</time></trkpt><trkpt lat="45.4219101" lon="10.5035735"><ele>124.75</ele><time>2026-03-28T08:57:33.761Z</time></trkpt><trkpt lat="45.4217963" lon="10.5035245"><ele>124.0</ele><time>2026-03-28T08:57:34.761Z</time></trkpt><trkpt lat="45.421704" lon="10.5034364"><ele>124.0</ele><time>2026-03-28T08:57:35.762Z</time></trkpt><trkpt lat="45.4216272" lon="10.5033347"><ele>124.0</ele><time>2026-03-28T08:57:36.762Z</time></trkpt><trkpt lat="45.4215498" lon="10.5032462"><ele>124.0</ele><time>2026-03-28T08:57:37.762Z</time></trkpt><trkpt lat="45.4214772" lon="10.5031585"><ele>124.0</ele><time>2026-03-28T08:57:38.762Z</time></trkpt><trkpt lat="45.4214028" lon="10.5030951"><ele>124.0</ele><time>2026-03-28T08:57:39.761Z</time></trkpt><trkpt lat="45.4213301" lon="10.503095"><ele>124.00000000000001</ele><time>2026-03-28T08:57:40.761Z</time></trkpt><trkpt lat="45.4212718" lon="10.5031483"><ele>124.0</ele><time>2026-03-28T08:57:41.761Z</time></trkpt><trkpt lat="45.4212327" lon="10.5032404"><ele>124.0</ele><time>2026-03-28T08:57:42.762Z</time></trkpt><trkpt lat="45.4212001" lon="10.5033548"><ele>124.0</ele><time>2026-03-28T08:57:43.761Z</time></trkpt><trkpt lat="45.4211654" lon="10.5034871"><ele>124.00000000000001</ele><time>2026-03-28T08:57:44.762Z</time></trkpt><trkpt lat="45.4211268" lon="10.5036291"><ele>124.0</ele><time>2026-03-28T08:57:45.761Z</time></trkpt><trkpt lat="45.4210784" lon="10.5037799"><ele>124.0</ele><time>2026-03-28T08:57:46.761Z</time></trkpt><trkpt lat="45.4209901" lon="10.503955"><ele>124.0</ele><time>2026-03-28T08:57:47.761Z</time></trkpt><trkpt lat="45.4208908" lon="10.5041251"><ele>124.0</ele><time>2026-03-28T08:57:48.762Z</time></trkpt><trkpt lat="45.4208132" lon="10.5042975"><ele>124.0</ele><time>2026-03-28T08:57:49.761Z</time></trkpt><trkpt lat="45.4207632" lon="10.5044829"><ele>124.0</ele><time>2026-03-28T08:57:50.762Z</time></trkpt><trkpt lat="45.4207402" lon="10.5047241"><ele>124.0</ele><time>2026-03-28T08:57:51.762Z</time></trkpt><trkpt lat="45.4207085" lon="10.5050024"><ele>123.0</ele><time>2026-03-28T08:57:52.761Z</time></trkpt><trkpt lat="45.4206575" lon="10.505291"><ele>122.0</ele><time>2026-03-28T08:57:53.761Z</time></trkpt><trkpt lat="45.4206091" lon="10.5056138"><ele>121.0</ele><time>2026-03-28T08:57:54.761Z</time></trkpt><trkpt lat="45.4205759" lon="10.5059152"><ele>121.0</ele><time>2026-03-28T08:57:55.762Z</time></trkpt><trkpt lat="45.4205397" lon="10.506197"><ele>121.0</ele><time>2026-03-28T08:57:56.762Z</time></trkpt><trkpt lat="45.4205042" lon="10.5064594"><ele>121.0</ele><time>2026-03-28T08:57:57.761Z</time></trkpt><trkpt lat="45.4204749" lon="10.5067075"><ele>120.66666666666667</ele><time>2026-03-28T08:57:58.761Z</time></trkpt><trkpt lat="45.4204519" lon="10.5069402"><ele>120.33333333333334</ele><time>2026-03-28T08:57:59.762Z</time></trkpt><trkpt lat="45.4204305" lon="10.5071547"><ele>120.0</ele><time>2026-03-28T08:58:00.761Z</time></trkpt><trkpt lat="45.420411" lon="10.5073468"><ele>119.8</ele><time>2026-03-28T08:58:01.762Z</time></trkpt><trkpt lat="45.4203934" lon="10.5075083"><ele>119.6</ele><time>2026-03-28T08:58:02.761Z</time></trkpt><trkpt lat="45.4203857" lon="10.5076201"><ele>119.4</ele><time>2026-03-28T08:58:03.761Z</time></trkpt><trkpt lat="45.4203792" lon="10.5077415"><ele>119.2</ele><time>2026-03-28T08:58:05.761Z</time></trkpt><trkpt lat="45.4203925" lon="10.5078934"><ele>119.0</ele><time>2026-03-28T08:58:08.762Z</time></trkpt><trkpt lat="45.4204266" lon="10.5080019"><ele>118.80000000000001</ele><time>2026-03-28T08:58:09.761Z</time></trkpt><trkpt lat="45.4204702" lon="10.5081211"><ele>118.60000000000001</ele><time>2026-03-28T08:58:10.761Z</time></trkpt><trkpt lat="45.420511" lon="10.5082625"><ele>118.4</ele><time>2026-03-28T08:58:11.762Z</time></trkpt><trkpt lat="45.4205479" lon="10.5084242"><ele>118.2</ele><time>2026-03-28T08:58:12.762Z</time></trkpt><trkpt lat="45.4205866" lon="10.5085961"><ele>118.0</ele><time>2026-03-28T08:58:13.761Z</time></trkpt><trkpt lat="45.4206316" lon="10.5087725"><ele>117.25</ele><time>2026-03-28T08:58:14.761Z</time></trkpt><trkpt lat="45.4206829" lon="10.5089537"><ele>116.5</ele><time>2026-03-28T08:58:15.762Z</time></trkpt><trkpt lat="45.4207318" lon="10.5091385"><ele>115.75</ele><time>2026-03-28T08:58:16.761Z</time></trkpt><trkpt lat="45.4207781" lon="10.509329"><ele>115.0</ele><time>2026-03-28T08:58:17.761Z</time></trkpt><trkpt lat="45.4208329" lon="10.5095126"><ele>115.75</ele><time>2026-03-28T08:58:18.762Z</time></trkpt><trkpt lat="45.4209155" lon="10.5096687"><ele>116.5</ele><time>2026-03-28T08:58:19.761Z</time></trkpt><trkpt lat="45.4210106" lon="10.5098091"><ele>117.25</ele><time>2026-03-28T08:58:20.762Z</time></trkpt><trkpt lat="45.4211097" lon="10.5099326"><ele>118.0</ele><time>2026-03-28T08:58:21.761Z</time></trkpt><trkpt lat="45.421208" lon="10.5100343"><ele>118.00000000000001</ele><time>2026-03-28T08:58:22.761Z</time></trkpt><trkpt lat="45.4213004" lon="10.5101302"><ele>118.0</ele><time>2026-03-28T08:58:23.761Z</time></trkpt><trkpt lat="45.4213413" lon="10.5102447"><ele>118.0</ele><time>2026-03-28T08:58:24.762Z</time></trkpt><trkpt lat="45.4213382" lon="10.5103409"><ele>118.0</ele><time>2026-03-28T08:58:25.762Z</time></trkpt><trkpt lat="45.4213081" lon="10.5104264"><ele>118.00000000000001</ele><time>2026-03-28T08:58:27.761Z</time></trkpt><trkpt lat="45.4212485" lon="10.5104695"><ele>118.0</ele><time>2026-03-28T08:58:30.761Z</time></trkpt><trkpt lat="45.4211839" lon="10.5104772"><ele>119.0</ele><time>2026-03-28T08:58:31.762Z</time></trkpt><trkpt lat="45.4210732" lon="10.5104939"><ele>120.0</ele><time>2026-03-28T08:58:32.762Z</time></trkpt><trkpt lat="45.4209629" lon="10.5105369"><ele>121.0</ele><time>2026-03-28T08:58:33.761Z</time></trkpt><trkpt lat="45.4208566" lon="10.5106132"><ele>122.0</ele><time>2026-03-28T08:58:34.761Z</time></trkpt><trkpt lat="45.4207543" lon="10.510698"><ele>122.0</ele><time>2026-03-28T08:58:35.762Z</time></trkpt><trkpt lat="45.4206924" lon="10.5108629"><ele>122.0</ele><time>2026-03-28T08:58:36.762Z</time></trkpt><trkpt lat="45.4206405" lon="10.5110108"><ele>122.0</ele><time>2026-03-28T08:58:37.761Z</time></trkpt><trkpt lat="45.4206183" lon="10.5111753"><ele>122.0</ele><time>2026-03-28T08:58:38.761Z</time></trkpt><trkpt lat="45.4206216" lon="10.5113354"><ele>121.75</ele><time>2026-03-28T08:58:39.761Z</time></trkpt><trkpt lat="45.4206481" lon="10.5115135"><ele>121.5</ele><time>2026-03-28T08:58:40.761Z</time></trkpt><trkpt lat="45.4207063" lon="10.5116842"><ele>121.25</ele><time>2026-03-28T08:58:41.762Z</time></trkpt><trkpt lat="45.420775" lon="10.5118289"><ele>121.0</ele><time>2026-03-28T08:58:42.761Z</time></trkpt><trkpt lat="45.420823" lon="10.5119686"><ele>120.8</ele><time>2026-03-28T08:58:43.761Z</time></trkpt><trkpt lat="45.4208381" lon="10.5120996"><ele>120.6</ele><time>2026-03-28T08:58:44.762Z</time></trkpt><trkpt lat="45.4208121" lon="10.5121975"><ele>120.4</ele><time>2026-03-28T08:58:45.761Z</time></trkpt><trkpt lat="45.4207005" lon="10.5122371"><ele>120.2</ele><time>2026-03-28T08:58:47.762Z</time></trkpt><trkpt lat="45.4206048" lon="10.5122716"><ele>120.0</ele><time>2026-03-28T08:58:48.761Z</time></trkpt><trkpt lat="45.4204987" lon="10.5123331"><ele>120.25</ele><time>2026-03-28T08:58:49.761Z</time></trkpt><trkpt lat="45.4203762" lon="10.5123924"><ele>120.5</ele><time>2026-03-28T08:58:50.762Z</time></trkpt><trkpt lat="45.4202428" lon="10.512446"><ele>120.75</ele><time>2026-03-28T08:58:51.761Z</time></trkpt><trkpt lat="45.4201041" lon="10.5125118"><ele>121.0</ele><time>2026-03-28T08:58:52.762Z</time></trkpt><trkpt lat="45.4199399" lon="10.5125877"><ele>121.0</ele><time>2026-03-28T08:58:53.761Z</time></trkpt><trkpt lat="45.4197513" lon="10.5126549"><ele>121.0</ele><time>2026-03-28T08:58:54.762Z</time></trkpt><trkpt lat="45.4195174" lon="10.5127059"><ele>121.0</ele><time>2026-03-28T08:58:55.762Z</time></trkpt><trkpt lat="45.4192563" lon="10.5127419"><ele>121.5</ele><time>2026-03-28T08:58:56.762Z</time></trkpt><trkpt lat="45.4189619" lon="10.5127688"><ele>122.0</ele><time>2026-03-28T08:58:57.761Z</time></trkpt><trkpt lat="45.41865" lon="10.5127978"><ele>119.5</ele><time>2026-03-28T08:58:58.762Z</time></trkpt><trkpt lat="45.4183595" lon="10.5128247"><ele>117.0</ele><time>2026-03-28T08:58:59.762Z</time></trkpt><trkpt lat="45.4180546" lon="10.5128459"><ele>116.0</ele><time>2026-03-28T08:59:00.762Z</time></trkpt><trkpt lat="45.4177579" lon="10.5128655"><ele>115.0</ele><time>2026-03-28T08:59:01.762Z</time></trkpt><trkpt lat="45.4174763" lon="10.5128889"><ele>114.5</ele><time>2026-03-28T08:59:02.761Z</time></trkpt><trkpt lat="45.41721" lon="10.5129116"><ele>114.0</ele><time>2026-03-28T08:59:03.762Z</time></trkpt><trkpt lat="45.4169603" lon="10.5129285"><ele>114.0</ele><time>2026-03-28T08:59:04.762Z</time></trkpt><trkpt lat="45.4167243" lon="10.5129427"><ele>114.0</ele><time>2026-03-28T08:59:05.761Z</time></trkpt><trkpt lat="45.416497" lon="10.5129582"><ele>114.66666666666666</ele><time>2026-03-28T08:59:06.762Z</time></trkpt><trkpt lat="45.4162709" lon="10.5129773"><ele>115.33333333333333</ele><time>2026-03-28T08:59:07.761Z</time></trkpt><trkpt lat="45.4160623" lon="10.5129965"><ele>116.0</ele><time>2026-03-28T08:59:08.761Z</time></trkpt><trkpt lat="45.4158681" lon="10.5130089"><ele>116.0</ele><time>2026-03-28T08:59:09.762Z</time></trkpt><trkpt lat="45.415688" lon="10.5130059"><ele>116.0</ele><time>2026-03-28T08:59:10.761Z</time></trkpt><trkpt lat="45.4155311" lon="10.5129925"><ele>116.0</ele><time>2026-03-28T08:59:11.761Z</time></trkpt><trkpt lat="45.4153922" lon="10.5129716"><ele>116.19999999999999</ele><time>2026-03-28T08:59:12.762Z</time></trkpt><trkpt lat="45.4152764" lon="10.5129455"><ele>116.39999999999999</ele><time>2026-03-28T08:59:13.762Z</time></trkpt><trkpt lat="45.4151814" lon="10.5129188"><ele>116.6</ele><time>2026-03-28T08:59:14.761Z</time></trkpt><trkpt lat="45.4151081" lon="10.512895"><ele>116.8</ele><time>2026-03-28T08:59:15.762Z</time></trkpt><trkpt lat="45.4150316" lon="10.5129175"><ele>117.0</ele><time>2026-03-28T08:59:17.761Z</time></trkpt><trkpt lat="45.414993" lon="10.5130535"><ele>117.0</ele><time>2026-03-28T08:59:20.761Z</time></trkpt><trkpt lat="45.4149853" lon="10.5131434"><ele>117.0</ele><time>2026-03-28T08:59:21.762Z</time></trkpt><trkpt lat="45.4149749" lon="10.5132334"><ele>117.0</ele><time>2026-03-28T08:59:22.761Z</time></trkpt><trkpt lat="45.4149645" lon="10.5133325"><ele>117.0</ele><time>2026-03-28T08:59:23.761Z</time></trkpt><trkpt lat="45.4149581" lon="10.5134283"><ele>117.0</ele><time>2026-03-28T08:59:24.761Z</time></trkpt><trkpt lat="45.4149585" lon="10.5135242"><ele>117.0</ele><time>2026-03-28T08:59:25.762Z</time></trkpt><trkpt lat="45.4149557" lon="10.5137013"><ele>116.8</ele><time>2026-03-28T08:59:27.762Z</time></trkpt><trkpt lat="45.4149389" lon="10.5138508"><ele>116.6</ele><time>2026-03-28T08:59:29.761Z</time></trkpt><trkpt lat="45.4148777" lon="10.5139609"><ele>116.39999999999999</ele><time>2026-03-28T08:59:31.761Z</time></trkpt><trkpt lat="45.4147548" lon="10.5139959"><ele>116.19999999999999</ele><time>2026-03-28T08:59:33.761Z</time></trkpt><trkpt lat="45.4146594" lon="10.5140045"><ele>116.0</ele><time>2026-03-28T08:59:34.763Z</time></trkpt><trkpt lat="45.414537" lon="10.5140093"><ele>116.0</ele><time>2026-03-28T08:59:35.762Z</time></trkpt><trkpt lat="45.4143989" lon="10.5140256"><ele>116.0</ele><time>2026-03-28T08:59:36.761Z</time></trkpt><trkpt lat="45.4142738" lon="10.5140558"><ele>116.0</ele><time>2026-03-28T08:59:37.761Z</time></trkpt><trkpt lat="45.4141574" lon="10.5141137"><ele>116.0</ele><time>2026-03-28T08:59:38.761Z</time></trkpt><trkpt lat="45.4140292" lon="10.5141983"><ele>116.0</ele><time>2026-03-28T08:59:39.762Z</time></trkpt><trkpt lat="45.4139029" lon="10.5142567"><ele>116.0</ele><time>2026-03-28T08:59:40.761Z</time></trkpt><trkpt lat="45.413775" lon="10.5142974"><ele>116.0</ele><time>2026-03-28T08:59:41.762Z</time></trkpt><trkpt lat="45.413669" lon="10.5143385"><ele>116.0</ele><time>2026-03-28T08:59:42.761Z</time></trkpt><trkpt lat="45.4135732" lon="10.514389"><ele>116.0</ele><time>2026-03-28T08:59:43.762Z</time></trkpt><trkpt lat="45.4135068" lon="10.5144739"><ele>116.0</ele><time>2026-03-28T08:59:44.762Z</time></trkpt><trkpt lat="45.4134513" lon="10.5145814"><ele>116.0</ele><time>2026-03-28T08:59:45.761Z</time></trkpt><trkpt lat="45.4133978" lon="10.5147223"><ele>116.0</ele><time>2026-03-28T08:59:46.761Z</time></trkpt><trkpt lat="45.4133583" lon="10.5148923"><ele>116.0</ele><time>2026-03-28T08:59:47.762Z</time></trkpt><trkpt lat="45.413319" lon="10.5150915"><ele>116.0</ele><time>2026-03-28T08:59:48.762Z</time></trkpt><trkpt lat="45.4132678" lon="10.5153038"><ele>116.0</ele><time>2026-03-28T08:59:49.761Z</time></trkpt><trkpt lat="45.4132009" lon="10.5155292"><ele>116.0</ele><time>2026-03-28T08:59:50.761Z</time></trkpt><trkpt lat="45.4131362" lon="10.5157448"><ele>116.0</ele><time>2026-03-28T08:59:51.761Z</time></trkpt><trkpt lat="45.4130717" lon="10.5159487"><ele>116.0</ele><time>2026-03-28T08:59:52.761Z</time></trkpt><trkpt lat="45.4129997" lon="10.5161511"><ele>116.0</ele><time>2026-03-28T08:59:53.761Z</time></trkpt><trkpt lat="45.4129237" lon="10.516352"><ele>115.5</ele><time>2026-03-28T08:59:54.762Z</time></trkpt><trkpt lat="45.412856" lon="10.5165503"><ele>115.0</ele><time>2026-03-28T08:59:55.761Z</time></trkpt><trkpt lat="45.4127967" lon="10.5167403"><ele>114.5</ele><time>2026-03-28T08:59:56.761Z</time></trkpt><trkpt lat="45.4127398" lon="10.5169226"><ele>114.0</ele><time>2026-03-28T08:59:57.762Z</time></trkpt><trkpt lat="45.4126825" lon="10.5171111"><ele>114.0</ele><time>2026-03-28T08:59:58.761Z</time></trkpt><trkpt lat="45.4126146" lon="10.5172819"><ele>114.0</ele><time>2026-03-28T08:59:59.761Z</time></trkpt><trkpt lat="45.4125278" lon="10.5174563"><ele>114.0</ele><time>2026-03-28T09:00:00.762Z</time></trkpt><trkpt lat="45.4124235" lon="10.5176166"><ele>114.0</ele><time>2026-03-28T09:00:01.762Z</time></trkpt><trkpt lat="45.4123162" lon="10.5177542"><ele>114.0</ele><time>2026-03-28T09:00:02.761Z</time></trkpt><trkpt lat="45.4122025" lon="10.5178864"><ele>114.0</ele><time>2026-03-28T09:00:03.761Z</time></trkpt><trkpt lat="45.4120796" lon="10.5180249"><ele>114.0</ele><time>2026-03-28T09:00:04.763Z</time></trkpt><trkpt lat="45.4119744" lon="10.5181691"><ele>114.0</ele><time>2026-03-28T09:00:05.762Z</time></trkpt><trkpt lat="45.4118804" lon="10.5183298"><ele>115.25</ele><time>2026-03-28T09:00:06.761Z</time></trkpt><trkpt lat="45.4118014" lon="10.5184945"><ele>116.5</ele><time>2026-03-28T09:00:07.762Z</time></trkpt><trkpt lat="45.4117186" lon="10.5186556"><ele>117.75</ele><time>2026-03-28T09:00:08.762Z</time></trkpt><trkpt lat="45.4116483" lon="10.5187867"><ele>119.0</ele><time>2026-03-28T09:00:09.762Z</time></trkpt><trkpt lat="45.4115859" lon="10.5189024"><ele>118.99999999999999</ele><time>2026-03-28T09:00:10.761Z</time></trkpt><trkpt lat="45.4115308" lon="10.5189975"><ele>119.0</ele><time>2026-03-28T09:00:11.762Z</time></trkpt><trkpt lat="45.4114854" lon="10.5190836"><ele>119.0</ele><time>2026-03-28T09:00:12.761Z</time></trkpt><trkpt lat="45.4114444" lon="10.519155"><ele>119.0</ele><time>2026-03-28T09:00:13.761Z</time></trkpt><trkpt lat="45.4114" lon="10.5192992"><ele>118.99999999999999</ele><time>2026-03-28T09:00:15.761Z</time></trkpt><trkpt lat="45.4114439" lon="10.5194359"><ele>119.0</ele><time>2026-03-28T09:00:17.762Z</time></trkpt><trkpt lat="45.4114999" lon="10.5195249"><ele>118.6</ele><time>2026-03-28T09:00:18.761Z</time></trkpt><trkpt lat="45.4115516" lon="10.5196247"><ele>118.2</ele><time>2026-03-28T09:00:19.761Z</time></trkpt><trkpt lat="45.4115797" lon="10.51973"><ele>117.79999999999998</ele><time>2026-03-28T09:00:20.761Z</time></trkpt><trkpt lat="45.4115949" lon="10.5198529"><ele>117.39999999999999</ele><time>2026-03-28T09:00:21.761Z</time></trkpt><trkpt lat="45.4115994" lon="10.5200095"><ele>117.0</ele><time>2026-03-28T09:00:22.762Z</time></trkpt><trkpt lat="45.4115962" lon="10.5201846"><ele>117.0</ele><time>2026-03-28T09:00:23.761Z</time></trkpt><trkpt lat="45.4115919" lon="10.5203435"><ele>116.99999999999999</ele><time>2026-03-28T09:00:24.762Z</time></trkpt><trkpt lat="45.4115891" lon="10.5204789"><ele>116.99999999999999</ele><time>2026-03-28T09:00:25.761Z</time></trkpt><trkpt lat="45.4115847" lon="10.520608"><ele>117.0</ele><time>2026-03-28T09:00:26.762Z</time></trkpt><trkpt lat="45.4115925" lon="10.5207315"><ele>117.0</ele><time>2026-03-28T09:00:27.761Z</time></trkpt><trkpt lat="45.4116178" lon="10.5208389"><ele>116.8</ele><time>2026-03-28T09:00:28.761Z</time></trkpt><trkpt lat="45.4116653" lon="10.5209311"><ele>116.6</ele><time>2026-03-28T09:00:29.762Z</time></trkpt><trkpt lat="45.4117307" lon="10.5210108"><ele>116.39999999999999</ele><time>2026-03-28T09:00:30.762Z</time></trkpt><trkpt lat="45.4118169" lon="10.5210731"><ele>116.19999999999999</ele><time>2026-03-28T09:00:31.762Z</time></trkpt><trkpt lat="45.4119225" lon="10.5211366"><ele>116.0</ele><time>2026-03-28T09:00:32.761Z</time></trkpt><trkpt lat="45.4120131" lon="10.5211979"><ele>116.16666666666666</ele><time>2026-03-28T09:00:33.762Z</time></trkpt><trkpt lat="45.4120814" lon="10.5212741"><ele>116.33333333333333</ele><time>2026-03-28T09:00:34.762Z</time></trkpt><trkpt lat="45.4121355" lon="10.521366"><ele>116.5</ele><time>2026-03-28T09:00:35.762Z</time></trkpt><trkpt lat="45.4121683" lon="10.5214688"><ele>116.66666666666666</ele><time>2026-03-28T09:00:36.762Z</time></trkpt><trkpt lat="45.4121775" lon="10.5215852"><ele>116.83333333333333</ele><time>2026-03-28T09:00:37.762Z</time></trkpt><trkpt lat="45.412163" lon="10.5217118"><ele>117.0</ele><time>2026-03-28T09:00:38.761Z</time></trkpt><trkpt lat="45.4121339" lon="10.5218555"><ele>117.0</ele><time>2026-03-28T09:00:39.761Z</time></trkpt><trkpt lat="45.4121024" lon="10.5219722"><ele>117.0</ele><time>2026-03-28T09:00:40.762Z</time></trkpt><trkpt lat="45.4120794" lon="10.5220599"><ele>117.0</ele><time>2026-03-28T09:00:41.761Z</time></trkpt><trkpt lat="45.4120704" lon="10.5221759"><ele>117.0</ele><time>2026-03-28T09:00:43.761Z</time></trkpt><trkpt lat="45.4121338" lon="10.5222685"><ele>117.0</ele><time>2026-03-28T09:00:45.762Z</time></trkpt><trkpt lat="45.4121975" lon="10.522313"><ele>117.0</ele><time>2026-03-28T09:00:46.761Z</time></trkpt><trkpt lat="45.4122819" lon="10.5223615"><ele>117.75</ele><time>2026-03-28T09:00:47.762Z</time></trkpt><trkpt lat="45.4123809" lon="10.5224172"><ele>118.5</ele><time>2026-03-28T09:00:48.761Z</time></trkpt><trkpt lat="45.4124887" lon="10.5224757"><ele>119.25</ele><time>2026-03-28T09:00:49.762Z</time></trkpt><trkpt lat="45.4126108" lon="10.5225355"><ele>120.0</ele><time>2026-03-28T09:00:50.761Z</time></trkpt><trkpt lat="45.4127466" lon="10.5226012"><ele>120.0</ele><time>2026-03-28T09:00:51.761Z</time></trkpt><trkpt lat="45.4128674" lon="10.5226648"><ele>120.0</ele><time>2026-03-28T09:00:52.762Z</time></trkpt><trkpt lat="45.4130007" lon="10.5227355"><ele>120.0</ele><time>2026-03-28T09:00:53.762Z</time></trkpt><trkpt lat="45.4131415" lon="10.5228084"><ele>120.0</ele><time>2026-03-28T09:00:54.762Z</time></trkpt><trkpt lat="45.41327" lon="10.5228723"><ele>119.5</ele><time>2026-03-28T09:00:55.761Z</time></trkpt><trkpt lat="45.4133929" lon="10.5229255"><ele>119.0</ele><time>2026-03-28T09:00:56.762Z</time></trkpt><trkpt lat="45.4135231" lon="10.5229695"><ele>118.5</ele><time>2026-03-28T09:00:57.762Z</time></trkpt><trkpt lat="45.4136638" lon="10.5230068"><ele>118.0</ele><time>2026-03-28T09:00:58.761Z</time></trkpt><trkpt lat="45.4137891" lon="10.5230279"><ele>117.4</ele><time>2026-03-28T09:00:59.762Z</time></trkpt><trkpt lat="45.413899" lon="10.5230436"><ele>116.80000000000001</ele><time>2026-03-28T09:01:00.762Z</time></trkpt><trkpt lat="45.4139946" lon="10.5230536"><ele>116.2</ele><time>2026-03-28T09:01:01.761Z</time></trkpt><trkpt lat="45.414074" lon="10.5230618"><ele>115.6</ele><time>2026-03-28T09:01:02.761Z</time></trkpt><trkpt lat="45.4141411" lon="10.5230869"><ele>115.0</ele><time>2026-03-28T09:01:03.762Z</time></trkpt><trkpt lat="45.4142266" lon="10.5231756"><ele>115.0</ele><time>2026-03-28T09:01:05.761Z</time></trkpt><trkpt lat="45.4142384" lon="10.5233517"><ele>115.0</ele><time>2026-03-28T09:01:07.761Z</time></trkpt><trkpt lat="45.4142173" lon="10.5234923"><ele>115.0</ele><time>2026-03-28T09:01:08.762Z</time></trkpt><trkpt lat="45.4141776" lon="10.5236601"><ele>115.0</ele><time>2026-03-28T09:01:09.762Z</time></trkpt><trkpt lat="45.4141352" lon="10.5238375"><ele>115.0</ele><time>2026-03-28T09:01:10.762Z</time></trkpt><trkpt lat="45.4141058" lon="10.5239756"><ele>115.0</ele><time>2026-03-28T09:01:11.761Z</time></trkpt><trkpt lat="45.4140911" lon="10.5240784"><ele>115.0</ele><time>2026-03-28T09:01:12.761Z</time></trkpt><trkpt lat="45.4141166" lon="10.5242206"><ele>115.0</ele><time>2026-03-28T09:01:14.761Z</time></trkpt><trkpt lat="45.4142222" lon="10.5243367"><ele>115.0</ele><time>2026-03-28T09:01:16.761Z</time></trkpt><trkpt lat="45.4143048" lon="10.5243937"><ele>115.0</ele><time>2026-03-28T09:01:17.762Z</time></trkpt><trkpt lat="45.4143997" lon="10.5244521"><ele>115.0</ele><time>2026-03-28T09:01:18.762Z</time></trkpt><trkpt lat="45.414497" lon="10.5245229"><ele>115.0</ele><time>2026-03-28T09:01:19.762Z</time></trkpt><trkpt lat="45.4146032" lon="10.524613"><ele>115.0</ele><time>2026-03-28T09:01:20.762Z</time></trkpt><trkpt lat="45.4147091" lon="10.5247016"><ele>115.25</ele><time>2026-03-28T09:01:21.761Z</time></trkpt><trkpt lat="45.4148124" lon="10.5247925"><ele>115.5</ele><time>2026-03-28T09:01:22.763Z</time></trkpt><trkpt lat="45.4149151" lon="10.5248842"><ele>115.75</ele><time>2026-03-28T09:01:23.761Z</time></trkpt><trkpt lat="45.415032" lon="10.5249945"><ele>116.0</ele><time>2026-03-28T09:01:24.762Z</time></trkpt><trkpt lat="45.4151537" lon="10.5251119"><ele>116.0</ele><time>2026-03-28T09:01:25.761Z</time></trkpt><trkpt lat="45.4152772" lon="10.5252243"><ele>116.0</ele><time>2026-03-28T09:01:26.761Z</time></trkpt><trkpt lat="45.4154072" lon="10.5253413"><ele>116.0</ele><time>2026-03-28T09:01:27.761Z</time></trkpt><trkpt lat="45.4155313" lon="10.5254603"><ele>115.66666666666666</ele><time>2026-03-28T09:01:28.762Z</time></trkpt><trkpt lat="45.4156539" lon="10.5255779"><ele>115.33333333333334</ele><time>2026-03-28T09:01:29.761Z</time></trkpt><trkpt lat="45.4157834" lon="10.5257034"><ele>115.0</ele><time>2026-03-28T09:01:30.761Z</time></trkpt><trkpt lat="45.4159134" lon="10.5258247"><ele>115.0</ele><time>2026-03-28T09:01:31.762Z</time></trkpt><trkpt lat="45.4160456" lon="10.5259414"><ele>115.0</ele><time>2026-03-28T09:01:32.761Z</time></trkpt><trkpt lat="45.416181" lon="10.5260562"><ele>115.0</ele><time>2026-03-28T09:01:33.761Z</time></trkpt><trkpt lat="45.4163193" lon="10.5261714"><ele>114.33333333333334</ele><time>2026-03-28T09:01:34.762Z</time></trkpt><trkpt lat="45.4164535" lon="10.5262809"><ele>113.66666666666666</ele><time>2026-03-28T09:01:35.763Z</time></trkpt><trkpt lat="45.4165801" lon="10.5263845"><ele>113.0</ele><time>2026-03-28T09:01:36.761Z</time></trkpt><trkpt lat="45.4167189" lon="10.5264882"><ele>113.0</ele><time>2026-03-28T09:01:37.762Z</time></trkpt><trkpt lat="45.416869" lon="10.5265995"><ele>113.0</ele><time>2026-03-28T09:01:38.761Z</time></trkpt><trkpt lat="45.4170251" lon="10.5267142"><ele>113.0</ele><time>2026-03-28T09:01:39.762Z</time></trkpt><trkpt lat="45.4171839" lon="10.5268206"><ele>113.66666666666666</ele><time>2026-03-28T09:01:40.762Z</time></trkpt><trkpt lat="45.4173493" lon="10.5269264"><ele>114.33333333333334</ele><time>2026-03-28T09:01:41.761Z</time></trkpt><trkpt lat="45.4175135" lon="10.5270251"><ele>115.0</ele><time>2026-03-28T09:01:42.761Z</time></trkpt><trkpt lat="45.4176773" lon="10.5271254"><ele>115.0</ele><time>2026-03-28T09:01:43.761Z</time></trkpt><trkpt lat="45.4178442" lon="10.5272325"><ele>115.0</ele><time>2026-03-28T09:01:44.762Z</time></trkpt><trkpt lat="45.4180099" lon="10.5273375"><ele>115.0</ele><time>2026-03-28T09:01:45.761Z</time></trkpt><trkpt lat="45.418166" lon="10.5274334"><ele>116.0</ele><time>2026-03-28T09:01:46.761Z</time></trkpt><trkpt lat="45.4183151" lon="10.5275264"><ele>117.0</ele><time>2026-03-28T09:01:47.761Z</time></trkpt><trkpt lat="45.4184729" lon="10.5276281"><ele>118.0</ele><time>2026-03-28T09:01:48.762Z</time></trkpt><trkpt lat="45.418635" lon="10.527729"><ele>118.0</ele><time>2026-03-28T09:01:49.762Z</time></trkpt><trkpt lat="45.4187759" lon="10.5278123"><ele>118.0</ele><time>2026-03-28T09:01:50.761Z</time></trkpt><trkpt lat="45.4189038" lon="10.5278935"><ele>118.0</ele><time>2026-03-28T09:01:51.761Z</time></trkpt><trkpt lat="45.4190158" lon="10.5279734"><ele>118.0</ele><time>2026-03-28T09:01:52.761Z</time></trkpt><trkpt lat="45.4191174" lon="10.5280664"><ele>118.0</ele><time>2026-03-28T09:01:53.762Z</time></trkpt><trkpt lat="45.4192155" lon="10.5281807"><ele>118.0</ele><time>2026-03-28T09:01:54.761Z</time></trkpt><trkpt lat="45.4193034" lon="10.5282909"><ele>118.0</ele><time>2026-03-28T09:01:55.762Z</time></trkpt><trkpt lat="45.4193977" lon="10.5283941"><ele>118.0</ele><time>2026-03-28T09:01:56.761Z</time></trkpt><trkpt lat="45.4195019" lon="10.5284839"><ele>118.0</ele><time>2026-03-28T09:01:57.761Z</time></trkpt><trkpt lat="45.4196205" lon="10.5285623"><ele>118.0</ele><time>2026-03-28T09:01:58.762Z</time></trkpt><trkpt lat="45.4197505" lon="10.5286497"><ele>118.0</ele><time>2026-03-28T09:01:59.762Z</time></trkpt><trkpt lat="45.4198828" lon="10.5287553"><ele>118.0</ele><time>2026-03-28T09:02:00.761Z</time></trkpt><trkpt lat="45.4200047" lon="10.5288721"><ele>118.75</ele><time>2026-03-28T09:02:01.761Z</time></trkpt><trkpt lat="45.4201083" lon="10.5289954"><ele>119.5</ele><time>2026-03-28T09:02:02.761Z</time></trkpt><trkpt lat="45.4201991" lon="10.5291357"><ele>120.25</ele><time>2026-03-28T09:02:03.762Z</time></trkpt><trkpt lat="45.4203008" lon="10.5293067"><ele>121.0</ele><time>2026-03-28T09:02:04.761Z</time></trkpt><trkpt lat="45.4204055" lon="10.5294828"><ele>121.25</ele><time>2026-03-28T09:02:05.762Z</time></trkpt><trkpt lat="45.4204951" lon="10.5296435"><ele>121.5</ele><time>2026-03-28T09:02:06.761Z</time></trkpt><trkpt lat="45.4205843" lon="10.5297963"><ele>121.75</ele><time>2026-03-28T09:02:07.762Z</time></trkpt><trkpt lat="45.420667" lon="10.5299302"><ele>122.0</ele><time>2026-03-28T09:02:08.761Z</time></trkpt><trkpt lat="45.420747" lon="10.5300488"><ele>122.0</ele><time>2026-03-28T09:02:09.762Z</time></trkpt><trkpt lat="45.4208229" lon="10.5301515"><ele>121.99999999999999</ele><time>2026-03-28T09:02:10.761Z</time></trkpt><trkpt lat="45.4209009" lon="10.5302301"><ele>121.99999999999999</ele><time>2026-03-28T09:02:11.762Z</time></trkpt><trkpt lat="45.420974" lon="10.5302881"><ele>122.0</ele><time>2026-03-28T09:02:12.761Z</time></trkpt><trkpt lat="45.4210486" lon="10.5303459"><ele>122.0</ele><time>2026-03-28T09:02:13.761Z</time></trkpt><trkpt lat="45.421136" lon="10.5304006"><ele>122.25</ele><time>2026-03-28T09:02:14.762Z</time></trkpt><trkpt lat="45.4212406" lon="10.5304325"><ele>122.5</ele><time>2026-03-28T09:02:15.762Z</time></trkpt><trkpt lat="45.4213557" lon="10.530441"><ele>122.75</ele><time>2026-03-28T09:02:16.761Z</time></trkpt><trkpt lat="45.4214778" lon="10.5304419"><ele>123.0</ele><time>2026-03-28T09:02:17.761Z</time></trkpt><trkpt lat="45.4216025" lon="10.5304482"><ele>124.25</ele><time>2026-03-28T09:02:18.761Z</time></trkpt><trkpt lat="45.4217219" lon="10.5304956"><ele>125.5</ele><time>2026-03-28T09:02:19.762Z</time></trkpt><trkpt lat="45.4218282" lon="10.5305884"><ele>126.75</ele><time>2026-03-28T09:02:20.761Z</time></trkpt><trkpt lat="45.4219204" lon="10.5307042"><ele>128.0</ele><time>2026-03-28T09:02:21.761Z</time></trkpt><trkpt lat="45.4219861" lon="10.5308306"><ele>128.0</ele><time>2026-03-28T09:02:22.761Z</time></trkpt><trkpt lat="45.4220293" lon="10.530954"><ele>128.0</ele><time>2026-03-28T09:02:24.761Z</time></trkpt><trkpt lat="45.4220653" lon="10.5310686"><ele>128.0</ele><time>2026-03-28T09:02:27.761Z</time></trkpt><trkpt lat="45.4220831" lon="10.5312029"><ele>128.0</ele><time>2026-03-28T09:02:29.762Z</time></trkpt><trkpt lat="45.4220762" lon="10.5313413"><ele>128.0</ele><time>2026-03-28T09:02:31.761Z</time></trkpt><trkpt lat="45.4220737" lon="10.5314548"><ele>128.83333333333331</ele><time>2026-03-28T09:02:33.762Z</time></trkpt><trkpt lat="45.4220731" lon="10.5315782"><ele>129.66666666666666</ele><time>2026-03-28T09:02:35.761Z</time></trkpt><trkpt lat="45.4220656" lon="10.5316873"><ele>130.5</ele><time>2026-03-28T09:02:38.762Z</time></trkpt><trkpt lat="45.4220491" lon="10.5317894"><ele>131.33333333333334</ele><time>2026-03-28T09:02:42.762Z</time></trkpt><trkpt lat="45.4220049" lon="10.5319477"><ele>132.16666666666669</ele><time>2026-03-28T09:02:44.761Z</time></trkpt><trkpt lat="45.4219734" lon="10.532031"><ele>133.0</ele><time>2026-03-28T09:02:45.761Z</time></trkpt><trkpt lat="45.421938" lon="10.5321112"><ele>133.66666666666669</ele><time>2026-03-28T09:02:46.762Z</time></trkpt><trkpt lat="45.4219027" lon="10.5322002"><ele>134.33333333333334</ele><time>2026-03-28T09:02:47.762Z</time></trkpt><trkpt lat="45.4218615" lon="10.5322903"><ele>135.0</ele><time>2026-03-28T09:02:48.762Z</time></trkpt><trkpt lat="45.4218095" lon="10.5323857"><ele>135.66666666666666</ele><time>2026-03-28T09:02:49.762Z</time></trkpt><trkpt lat="45.4217476" lon="10.5324884"><ele>136.33333333333331</ele><time>2026-03-28T09:02:50.763Z</time></trkpt><trkpt lat="45.4216774" lon="10.5325903"><ele>137.0</ele><time>2026-03-28T09:02:51.761Z</time></trkpt><trkpt lat="45.4215874" lon="10.5326762"><ele>137.0</ele><time>2026-03-28T09:02:52.761Z</time></trkpt><trkpt lat="45.4214852" lon="10.5327533"><ele>137.0</ele><time>2026-03-28T09:02:53.762Z</time></trkpt><trkpt lat="45.421374" lon="10.5328151"><ele>137.0</ele><time>2026-03-28T09:02:54.762Z</time></trkpt><trkpt lat="45.4212532" lon="10.5328696"><ele>137.0</ele><time>2026-03-28T09:02:55.762Z</time></trkpt><trkpt lat="45.421129" lon="10.532926"><ele>137.25</ele><time>2026-03-28T09:02:56.761Z</time></trkpt><trkpt lat="45.4209991" lon="10.53299"><ele>137.5</ele><time>2026-03-28T09:02:57.761Z</time></trkpt><trkpt lat="45.4208665" lon="10.533055"><ele>137.75</ele><time>2026-03-28T09:02:58.761Z</time></trkpt><trkpt lat="45.4207311" lon="10.5331281"><ele>138.0</ele><time>2026-03-28T09:02:59.762Z</time></trkpt><trkpt lat="45.4205922" lon="10.5332039"><ele>135.33333333333334</ele><time>2026-03-28T09:03:00.761Z</time></trkpt><trkpt lat="45.4204554" lon="10.5332908"><ele>132.66666666666669</ele><time>2026-03-28T09:03:01.761Z</time></trkpt><trkpt lat="45.4203171" lon="10.5333843"><ele>130.0</ele><time>2026-03-28T09:03:02.761Z</time></trkpt><trkpt lat="45.420177" lon="10.533488"><ele>130.0</ele><time>2026-03-28T09:03:03.761Z</time></trkpt><trkpt lat="45.4200389" lon="10.5335987"><ele>130.0</ele><time>2026-03-28T09:03:04.762Z</time></trkpt><trkpt lat="45.4199037" lon="10.533716"><ele>130.0</ele><time>2026-03-28T09:03:05.761Z</time></trkpt><trkpt lat="45.4197711" lon="10.5338294"><ele>130.66666666666669</ele><time>2026-03-28T09:03:06.761Z</time></trkpt><trkpt lat="45.4196387" lon="10.53394"><ele>131.33333333333334</ele><time>2026-03-28T09:03:07.761Z</time></trkpt><trkpt lat="45.4195107" lon="10.5340554"><ele>132.0</ele><time>2026-03-28T09:03:08.762Z</time></trkpt><trkpt lat="45.4193835" lon="10.5341738"><ele>132.0</ele><time>2026-03-28T09:03:09.761Z</time></trkpt><trkpt lat="45.4192537" lon="10.5342906"><ele>132.0</ele><time>2026-03-28T09:03:10.761Z</time></trkpt><trkpt lat="45.4191215" lon="10.5344053"><ele>132.0</ele><time>2026-03-28T09:03:11.762Z</time></trkpt><trkpt lat="45.4189867" lon="10.5345129"><ele>131.0</ele><time>2026-03-28T09:03:12.762Z</time></trkpt><trkpt lat="45.4188407" lon="10.5346083"><ele>130.0</ele><time>2026-03-28T09:03:13.762Z</time></trkpt><trkpt lat="45.4186849" lon="10.5346865"><ele>129.0</ele><time>2026-03-28T09:03:14.762Z</time></trkpt><trkpt lat="45.4185226" lon="10.5347533"><ele>129.0</ele><time>2026-03-28T09:03:15.761Z</time></trkpt><trkpt lat="45.4183614" lon="10.5348137"><ele>129.0</ele><time>2026-03-28T09:03:16.761Z</time></trkpt><trkpt lat="45.4182007" lon="10.5348729"><ele>129.0</ele><time>2026-03-28T09:03:17.761Z</time></trkpt><trkpt lat="45.4180356" lon="10.534947"><ele>128.0</ele><time>2026-03-28T09:03:18.762Z</time></trkpt><trkpt lat="45.4178802" lon="10.5350415"><ele>127.0</ele><time>2026-03-28T09:03:19.762Z</time></trkpt><trkpt lat="45.4177425" lon="10.535159"><ele>126.0</ele><time>2026-03-28T09:03:20.761Z</time></trkpt><trkpt lat="45.4176125" lon="10.5353019"><ele>126.66666666666666</ele><time>2026-03-28T09:03:21.761Z</time></trkpt><trkpt lat="45.4174823" lon="10.5354381"><ele>127.33333333333333</ele><time>2026-03-28T09:03:22.762Z</time></trkpt><trkpt lat="45.4173519" lon="10.5355504"><ele>128.0</ele><time>2026-03-28T09:03:23.761Z</time></trkpt><trkpt lat="45.417214" lon="10.5356328"><ele>127.5</ele><time>2026-03-28T09:03:24.761Z</time></trkpt><trkpt lat="45.4170704" lon="10.5356918"><ele>127.0</ele><time>2026-03-28T09:03:25.762Z</time></trkpt><trkpt lat="45.4169345" lon="10.5357303"><ele>126.5</ele><time>2026-03-28T09:03:26.761Z</time></trkpt><trkpt lat="45.4168071" lon="10.535767"><ele>126.0</ele><time>2026-03-28T09:03:27.761Z</time></trkpt><trkpt lat="45.4166824" lon="10.5357972"><ele>126.0</ele><time>2026-03-28T09:03:28.762Z</time></trkpt><trkpt lat="45.4165534" lon="10.535821"><ele>126.0</ele><time>2026-03-28T09:03:29.762Z</time></trkpt><trkpt lat="45.4164216" lon="10.5358627"><ele>126.0</ele><time>2026-03-28T09:03:30.761Z</time></trkpt><trkpt lat="45.4162869" lon="10.5359407"><ele>126.0</ele><time>2026-03-28T09:03:31.761Z</time></trkpt><trkpt lat="45.4161487" lon="10.536055"><ele>126.33333333333334</ele><time>2026-03-28T09:03:32.762Z</time></trkpt><trkpt lat="45.416007" lon="10.5361905"><ele>126.66666666666667</ele><time>2026-03-28T09:03:33.762Z</time></trkpt><trkpt lat="45.4158705" lon="10.5363362"><ele>127.0</ele><time>2026-03-28T09:03:34.761Z</time></trkpt><trkpt lat="45.4157431" lon="10.5364923"><ele>127.0</ele><time>2026-03-28T09:03:35.762Z</time></trkpt><trkpt lat="45.4156287" lon="10.5366604"><ele>127.0</ele><time>2026-03-28T09:03:36.762Z</time></trkpt><trkpt lat="45.4155185" lon="10.5368464"><ele>127.0</ele><time>2026-03-28T09:03:37.763Z</time></trkpt><trkpt lat="45.4154177" lon="10.5370597"><ele>126.66666666666667</ele><time>2026-03-28T09:03:38.761Z</time></trkpt><trkpt lat="45.415324" lon="10.5372903"><ele>126.33333333333334</ele><time>2026-03-28T09:03:39.761Z</time></trkpt><trkpt lat="45.4152233" lon="10.537518"><ele>126.0</ele><time>2026-03-28T09:03:40.761Z</time></trkpt><trkpt lat="45.4151096" lon="10.5377343"><ele>129.0</ele><time>2026-03-28T09:03:41.761Z</time></trkpt><trkpt lat="45.4149815" lon="10.5379361"><ele>132.0</ele><time>2026-03-28T09:03:42.761Z</time></trkpt><trkpt lat="45.4148379" lon="10.538118"><ele>135.0</ele><time>2026-03-28T09:03:43.762Z</time></trkpt><trkpt lat="45.4146829" lon="10.5382867"><ele>134.66666666666666</ele><time>2026-03-28T09:03:44.762Z</time></trkpt><trkpt lat="45.4145205" lon="10.5384514"><ele>134.33333333333331</ele><time>2026-03-28T09:03:45.762Z</time></trkpt><trkpt lat="45.414353" lon="10.5386161"><ele>134.0</ele><time>2026-03-28T09:03:46.761Z</time></trkpt><trkpt lat="45.4141856" lon="10.5387819"><ele>134.0</ele><time>2026-03-28T09:03:47.761Z</time></trkpt><trkpt lat="45.4140216" lon="10.5389404"><ele>134.0</ele><time>2026-03-28T09:03:48.761Z</time></trkpt><trkpt lat="45.4138642" lon="10.5390933"><ele>134.0</ele><time>2026-03-28T09:03:49.763Z</time></trkpt><trkpt lat="45.4137006" lon="10.5392467"><ele>133.33333333333331</ele><time>2026-03-28T09:03:50.761Z</time></trkpt><trkpt lat="45.4135298" lon="10.539386"><ele>132.66666666666666</ele><time>2026-03-28T09:03:51.761Z</time></trkpt><trkpt lat="45.4133577" lon="10.539505"><ele>132.0</ele><time>2026-03-28T09:03:52.761Z</time></trkpt><trkpt lat="45.4131985" lon="10.5396192"><ele>132.0</ele><time>2026-03-28T09:03:53.761Z</time></trkpt><trkpt lat="45.4130513" lon="10.5397301"><ele>132.0</ele><time>2026-03-28T09:03:54.762Z</time></trkpt><trkpt lat="45.4129201" lon="10.5398472"><ele>132.0</ele><time>2026-03-28T09:03:55.762Z</time></trkpt><trkpt lat="45.4127986" lon="10.5399897"><ele>131.0</ele><time>2026-03-28T09:03:56.761Z</time></trkpt><trkpt lat="45.4126913" lon="10.5401675"><ele>130.0</ele><time>2026-03-28T09:03:57.761Z</time></trkpt><trkpt lat="45.4125957" lon="10.5403816"><ele>129.0</ele><time>2026-03-28T09:03:58.761Z</time></trkpt><trkpt lat="45.412503" lon="10.5406121"><ele>129.0</ele><time>2026-03-28T09:03:59.762Z</time></trkpt><trkpt lat="45.4124026" lon="10.5408503"><ele>129.0</ele><time>2026-03-28T09:04:00.761Z</time></trkpt><trkpt lat="45.4122941" lon="10.5410846"><ele>129.0</ele><time>2026-03-28T09:04:01.761Z</time></trkpt><trkpt lat="45.4121788" lon="10.5413015"><ele>128.33333333333334</ele><time>2026-03-28T09:04:02.762Z</time></trkpt><trkpt lat="45.4120544" lon="10.5415012"><ele>127.66666666666667</ele><time>2026-03-28T09:04:03.761Z</time></trkpt><trkpt lat="45.4119314" lon="10.5417087"><ele>127.0</ele><time>2026-03-28T09:04:04.761Z</time></trkpt><trkpt lat="45.4118152" lon="10.5419248"><ele>126.66666666666667</ele><time>2026-03-28T09:04:05.762Z</time></trkpt><trkpt lat="45.4117047" lon="10.5421537"><ele>126.33333333333334</ele><time>2026-03-28T09:04:06.761Z</time></trkpt><trkpt lat="45.4116008" lon="10.5423801"><ele>126.0</ele><time>2026-03-28T09:04:07.763Z</time></trkpt><trkpt lat="45.4114995" lon="10.5425939"><ele>126.0</ele><time>2026-03-28T09:04:08.761Z</time></trkpt><trkpt lat="45.4113977" lon="10.5428026"><ele>126.0</ele><time>2026-03-28T09:04:09.762Z</time></trkpt><trkpt lat="45.4113004" lon="10.5430114"><ele>126.0</ele><time>2026-03-28T09:04:10.762Z</time></trkpt><trkpt lat="45.4112186" lon="10.5432168"><ele>125.0</ele><time>2026-03-28T09:04:11.762Z</time></trkpt><trkpt lat="45.4111577" lon="10.5434189"><ele>124.0</ele><time>2026-03-28T09:04:12.761Z</time></trkpt><trkpt lat="45.4111148" lon="10.5436173"><ele>123.0</ele><time>2026-03-28T09:04:13.761Z</time></trkpt><trkpt lat="45.4110716" lon="10.5438166"><ele>122.0</ele><time>2026-03-28T09:04:14.762Z</time></trkpt><trkpt lat="45.4109966" lon="10.5440034"><ele>122.0</ele><time>2026-03-28T09:04:15.762Z</time></trkpt><trkpt lat="45.4108815" lon="10.544154"><ele>122.0</ele><time>2026-03-28T09:04:16.762Z</time></trkpt><trkpt lat="45.4107647" lon="10.5443012"><ele>122.0</ele><time>2026-03-28T09:04:17.761Z</time></trkpt><trkpt lat="45.4106545" lon="10.5444436"><ele>121.66666666666666</ele><time>2026-03-28T09:04:18.762Z</time></trkpt><trkpt lat="45.4105447" lon="10.5445828"><ele>121.33333333333334</ele><time>2026-03-28T09:04:19.762Z</time></trkpt><trkpt lat="45.4104311" lon="10.5447228"><ele>121.0</ele><time>2026-03-28T09:04:20.762Z</time></trkpt><trkpt lat="45.4103135" lon="10.5448653"><ele>121.0</ele><time>2026-03-28T09:04:21.761Z</time></trkpt><trkpt lat="45.4101922" lon="10.5450126"><ele>121.0</ele><time>2026-03-28T09:04:22.761Z</time></trkpt><trkpt lat="45.4100668" lon="10.5451593"><ele>121.0</ele><time>2026-03-28T09:04:23.761Z</time></trkpt><trkpt lat="45.4099373" lon="10.5453074"><ele>121.33333333333334</ele><time>2026-03-28T09:04:24.761Z</time></trkpt><trkpt lat="45.4098118" lon="10.5454435"><ele>121.66666666666666</ele><time>2026-03-28T09:04:25.762Z</time></trkpt><trkpt lat="45.4096902" lon="10.5455762"><ele>122.0</ele><time>2026-03-28T09:04:26.762Z</time></trkpt><trkpt lat="45.4095605" lon="10.5457032"><ele>120.0</ele><time>2026-03-28T09:04:27.762Z</time></trkpt><trkpt lat="45.4094265" lon="10.5457939"><ele>118.0</ele><time>2026-03-28T09:04:28.762Z</time></trkpt><trkpt lat="45.4092919" lon="10.5458552"><ele>116.0</ele><time>2026-03-28T09:04:29.761Z</time></trkpt><trkpt lat="45.4091581" lon="10.5458954"><ele>114.0</ele><time>2026-03-28T09:04:30.762Z</time></trkpt><trkpt lat="45.4090263" lon="10.5459058"><ele>114.0</ele><time>2026-03-28T09:04:31.762Z</time></trkpt><trkpt lat="45.4088913" lon="10.5458922"><ele>114.0</ele><time>2026-03-28T09:04:32.761Z</time></trkpt><trkpt lat="45.4087519" lon="10.5458698"><ele>114.0</ele><time>2026-03-28T09:04:33.762Z</time></trkpt><trkpt lat="45.4086048" lon="10.5458529"><ele>114.0</ele><time>2026-03-28T09:04:34.762Z</time></trkpt><trkpt lat="45.408471" lon="10.5458407"><ele>113.5</ele><time>2026-03-28T09:04:35.761Z</time></trkpt><trkpt lat="45.4083339" lon="10.5458247"><ele>113.0</ele><time>2026-03-28T09:04:36.761Z</time></trkpt><trkpt lat="45.408197" lon="10.5458187"><ele>112.5</ele><time>2026-03-28T09:04:37.761Z</time></trkpt><trkpt lat="45.4080597" lon="10.5458352"><ele>112.0</ele><time>2026-03-28T09:04:38.762Z</time></trkpt><trkpt lat="45.4079026" lon="10.5458718"><ele>112.0</ele><time>2026-03-28T09:04:39.762Z</time></trkpt><trkpt lat="45.4077342" lon="10.5459169"><ele>112.0</ele><time>2026-03-28T09:04:40.761Z</time></trkpt><trkpt lat="45.4075766" lon="10.5459563"><ele>112.0</ele><time>2026-03-28T09:04:41.761Z</time></trkpt><trkpt lat="45.4074382" lon="10.5459907"><ele>112.0</ele><time>2026-03-28T09:04:42.762Z</time></trkpt><trkpt lat="45.407316" lon="10.5460383"><ele>112.0</ele><time>2026-03-28T09:04:43.762Z</time></trkpt><trkpt lat="45.4072123" lon="10.5461002"><ele>112.0</ele><time>2026-03-28T09:04:44.762Z</time></trkpt><trkpt lat="45.4071076" lon="10.5461841"><ele>112.0</ele><time>2026-03-28T09:04:45.761Z</time></trkpt><trkpt lat="45.40701" lon="10.5462881"><ele>113.0</ele><time>2026-03-28T09:04:46.762Z</time></trkpt><trkpt lat="45.4069147" lon="10.5464097"><ele>114.0</ele><time>2026-03-28T09:04:47.762Z</time></trkpt><trkpt lat="45.4068084" lon="10.5465477"><ele>115.0</ele><time>2026-03-28T09:04:48.761Z</time></trkpt><trkpt lat="45.4066999" lon="10.5466907"><ele>116.0</ele><time>2026-03-28T09:04:49.762Z</time></trkpt><trkpt lat="45.4065869" lon="10.5468364"><ele>116.0</ele><time>2026-03-28T09:04:50.762Z</time></trkpt><trkpt lat="45.4064684" lon="10.5469682"><ele>116.0</ele><time>2026-03-28T09:04:51.761Z</time></trkpt><trkpt lat="45.4063519" lon="10.547084"><ele>116.0</ele><time>2026-03-28T09:04:52.763Z</time></trkpt><trkpt lat="45.4062311" lon="10.5471729"><ele>116.0</ele><time>2026-03-28T09:04:53.763Z</time></trkpt><trkpt lat="45.4060954" lon="10.5472427"><ele>117.5</ele><time>2026-03-28T09:04:54.762Z</time></trkpt><trkpt lat="45.4059509" lon="10.5473073"><ele>119.0</ele><time>2026-03-28T09:04:55.761Z</time></trkpt><trkpt lat="45.4058051" lon="10.547379"><ele>120.5</ele><time>2026-03-28T09:04:56.762Z</time></trkpt><trkpt lat="45.4056816" lon="10.5474358"><ele>122.0</ele><time>2026-03-28T09:04:57.762Z</time></trkpt><trkpt lat="45.4055687" lon="10.5474881"><ele>122.25</ele><time>2026-03-28T09:04:58.761Z</time></trkpt><trkpt lat="45.4054482" lon="10.5475617"><ele>122.5</ele><time>2026-03-28T09:04:59.762Z</time></trkpt><trkpt lat="45.4053179" lon="10.5476534"><ele>122.75</ele><time>2026-03-28T09:05:00.761Z</time></trkpt><trkpt lat="45.40518" lon="10.5477671"><ele>123.0</ele><time>2026-03-28T09:05:01.761Z</time></trkpt><trkpt lat="45.4050363" lon="10.5478882"><ele>123.0</ele><time>2026-03-28T09:05:02.763Z</time></trkpt><trkpt lat="45.4048977" lon="10.5480008"><ele>123.0</ele><time>2026-03-28T09:05:03.761Z</time></trkpt><trkpt lat="45.4047676" lon="10.548115"><ele>123.0</ele><time>2026-03-28T09:05:04.761Z</time></trkpt><trkpt lat="45.4046313" lon="10.5482271"><ele>121.75</ele><time>2026-03-28T09:05:05.762Z</time></trkpt><trkpt lat="45.4045044" lon="10.5483306"><ele>120.5</ele><time>2026-03-28T09:05:06.762Z</time></trkpt><trkpt lat="45.4043844" lon="10.5484351"><ele>119.25</ele><time>2026-03-28T09:05:07.761Z</time></trkpt><trkpt lat="45.4042684" lon="10.5485329"><ele>118.0</ele><time>2026-03-28T09:05:08.762Z</time></trkpt><trkpt lat="45.4041645" lon="10.5486235"><ele>117.75</ele><time>2026-03-28T09:05:09.762Z</time></trkpt><trkpt lat="45.4040692" lon="10.5487185"><ele>117.5</ele><time>2026-03-28T09:05:10.762Z</time></trkpt><trkpt lat="45.4039787" lon="10.5488173"><ele>117.25</ele><time>2026-03-28T09:05:11.762Z</time></trkpt><trkpt lat="45.4038886" lon="10.548939"><ele>117.0</ele><time>2026-03-28T09:05:12.761Z</time></trkpt><trkpt lat="45.403795" lon="10.549065"><ele>117.0</ele><time>2026-03-28T09:05:13.762Z</time></trkpt><trkpt lat="45.4036922" lon="10.5491897"><ele>117.0</ele><time>2026-03-28T09:05:14.761Z</time></trkpt><trkpt lat="45.4035874" lon="10.5492904"><ele>117.0</ele><time>2026-03-28T09:05:15.761Z</time></trkpt><trkpt lat="45.4034745" lon="10.5493711"><ele>117.0</ele><time>2026-03-28T09:05:16.761Z</time></trkpt><trkpt lat="45.4033503" lon="10.5494395"><ele>117.0</ele><time>2026-03-28T09:05:17.761Z</time></trkpt><trkpt lat="45.4032298" lon="10.5494876"><ele>117.0</ele><time>2026-03-28T09:05:18.761Z</time></trkpt><trkpt lat="45.4031059" lon="10.5495122"><ele>117.0</ele><time>2026-03-28T09:05:19.762Z</time></trkpt><trkpt lat="45.4029921" lon="10.5495069"><ele>117.0</ele><time>2026-03-28T09:05:20.762Z</time></trkpt><trkpt lat="45.4028748" lon="10.5494853"><ele>117.19999999999999</ele><time>2026-03-28T09:05:21.762Z</time></trkpt><trkpt lat="45.4027624" lon="10.5494693"><ele>117.39999999999999</ele><time>2026-03-28T09:05:22.761Z</time></trkpt><trkpt lat="45.4026618" lon="10.5494825"><ele>117.60000000000001</ele><time>2026-03-28T09:05:23.761Z</time></trkpt><trkpt lat="45.4025727" lon="10.5495114"><ele>117.80000000000001</ele><time>2026-03-28T09:05:24.761Z</time></trkpt><trkpt lat="45.4024892" lon="10.5495534"><ele>118.0</ele><time>2026-03-28T09:05:25.761Z</time></trkpt><trkpt lat="45.402407" lon="10.5496141"><ele>118.0</ele><time>2026-03-28T09:05:26.761Z</time></trkpt><trkpt lat="45.4023289" lon="10.5496903"><ele>118.0</ele><time>2026-03-28T09:05:27.762Z</time></trkpt><trkpt lat="45.4022465" lon="10.5497857"><ele>118.0</ele><time>2026-03-28T09:05:28.761Z</time></trkpt><trkpt lat="45.4021507" lon="10.5499082"><ele>118.0</ele><time>2026-03-28T09:05:29.761Z</time></trkpt><trkpt lat="45.4020455" lon="10.5500432"><ele>117.66666666666667</ele><time>2026-03-28T09:05:30.761Z</time></trkpt><trkpt lat="45.4019365" lon="10.5501975"><ele>117.33333333333334</ele><time>2026-03-28T09:05:31.761Z</time></trkpt><trkpt lat="45.4018334" lon="10.550345"><ele>117.0</ele><time>2026-03-28T09:05:32.761Z</time></trkpt><trkpt lat="45.4017198" lon="10.5504977"><ele>117.0</ele><time>2026-03-28T09:05:33.762Z</time></trkpt><trkpt lat="45.4016146" lon="10.5506346"><ele>117.0</ele><time>2026-03-28T09:05:34.761Z</time></trkpt><trkpt lat="45.4015119" lon="10.550767"><ele>117.0</ele><time>2026-03-28T09:05:35.761Z</time></trkpt><trkpt lat="45.401422" lon="10.550877"><ele>117.0</ele><time>2026-03-28T09:05:36.761Z</time></trkpt><trkpt lat="45.4013344" lon="10.5509664"><ele>116.39999999999999</ele><time>2026-03-28T09:05:37.762Z</time></trkpt><trkpt lat="45.4012512" lon="10.5510377"><ele>115.79999999999998</ele><time>2026-03-28T09:05:38.762Z</time></trkpt><trkpt lat="45.4011679" lon="10.551084"><ele>115.2</ele><time>2026-03-28T09:05:39.761Z</time></trkpt><trkpt lat="45.4010715" lon="10.551112"><ele>114.6</ele><time>2026-03-28T09:05:40.762Z</time></trkpt><trkpt lat="45.4009552" lon="10.5511214"><ele>114.0</ele><time>2026-03-28T09:05:41.762Z</time></trkpt><trkpt lat="45.4008188" lon="10.5511178"><ele>114.0</ele><time>2026-03-28T09:05:42.761Z</time></trkpt><trkpt lat="45.4006754" lon="10.551115"><ele>114.0</ele><time>2026-03-28T09:05:43.762Z</time></trkpt><trkpt lat="45.4005363" lon="10.5511262"><ele>114.0</ele><time>2026-03-28T09:05:44.762Z</time></trkpt><trkpt lat="45.4003998" lon="10.5511572"><ele>114.0</ele><time>2026-03-28T09:05:45.762Z</time></trkpt><trkpt lat="45.4002775" lon="10.5512077"><ele>113.25</ele><time>2026-03-28T09:05:46.761Z</time></trkpt><trkpt lat="45.4001491" lon="10.5512999"><ele>112.5</ele><time>2026-03-28T09:05:47.762Z</time></trkpt><trkpt lat="45.4000304" lon="10.5514005"><ele>111.75</ele><time>2026-03-28T09:05:48.761Z</time></trkpt><trkpt lat="45.3999215" lon="10.5514783"><ele>111.0</ele><time>2026-03-28T09:05:49.761Z</time></trkpt><trkpt lat="45.3998161" lon="10.5515263"><ele>111.0</ele><time>2026-03-28T09:05:50.762Z</time></trkpt><trkpt lat="45.3997107" lon="10.5515476"><ele>111.0</ele><time>2026-03-28T09:05:51.762Z</time></trkpt><trkpt lat="45.3995937" lon="10.5515574"><ele>111.0</ele><time>2026-03-28T09:05:52.761Z</time></trkpt><trkpt lat="45.3994683" lon="10.5515673"><ele>111.0</ele><time>2026-03-28T09:05:53.761Z</time></trkpt><trkpt lat="45.3993401" lon="10.5515817"><ele>112.0</ele><time>2026-03-28T09:05:54.762Z</time></trkpt><trkpt lat="45.3992216" lon="10.5515754"><ele>113.0</ele><time>2026-03-28T09:05:55.761Z</time></trkpt><trkpt lat="45.3991098" lon="10.5515693"><ele>114.0</ele><time>2026-03-28T09:05:56.762Z</time></trkpt><trkpt lat="45.3990035" lon="10.5515837"><ele>115.0</ele><time>2026-03-28T09:05:57.761Z</time></trkpt><trkpt lat="45.3988887" lon="10.5516173"><ele>116.6</ele><time>2026-03-28T09:05:58.761Z</time></trkpt><trkpt lat="45.3987674" lon="10.5516677"><ele>118.2</ele><time>2026-03-28T09:05:59.761Z</time></trkpt><trkpt lat="45.3986672" lon="10.5517268"><ele>119.80000000000001</ele><time>2026-03-28T09:06:00.762Z</time></trkpt><trkpt lat="45.3985745" lon="10.5517829"><ele>121.4</ele><time>2026-03-28T09:06:01.761Z</time></trkpt><trkpt lat="45.3984866" lon="10.5518302"><ele>123.0</ele><time>2026-03-28T09:06:02.762Z</time></trkpt><trkpt lat="45.3983958" lon="10.5518779"><ele>123.0</ele><time>2026-03-28T09:06:03.762Z</time></trkpt><trkpt lat="45.3983004" lon="10.5519126"><ele>123.00000000000001</ele><time>2026-03-28T09:06:04.762Z</time></trkpt><trkpt lat="45.3982041" lon="10.5519303"><ele>123.00000000000001</ele><time>2026-03-28T09:06:05.761Z</time></trkpt><trkpt lat="45.3981049" lon="10.5519433"><ele>123.0</ele><time>2026-03-28T09:06:06.761Z</time></trkpt><trkpt lat="45.3980037" lon="10.5519352"><ele>123.0</ele><time>2026-03-28T09:06:07.761Z</time></trkpt><trkpt lat="45.3979052" lon="10.5519204"><ele>122.83333333333333</ele><time>2026-03-28T09:06:08.762Z</time></trkpt><trkpt lat="45.3978055" lon="10.5518972"><ele>122.66666666666666</ele><time>2026-03-28T09:06:09.761Z</time></trkpt><trkpt lat="45.3977124" lon="10.5518776"><ele>122.5</ele><time>2026-03-28T09:06:10.762Z</time></trkpt><trkpt lat="45.3976489" lon="10.5518603"><ele>122.33333333333333</ele><time>2026-03-28T09:06:11.761Z</time></trkpt><trkpt lat="45.3975651" lon="10.551831"><ele>122.16666666666666</ele><time>2026-03-28T09:06:13.761Z</time></trkpt><trkpt lat="45.397474" lon="10.5518078"><ele>122.0</ele><time>2026-03-28T09:06:15.761Z</time></trkpt><trkpt lat="45.3974038" lon="10.5517954"><ele>121.99999999999999</ele><time>2026-03-28T09:06:16.761Z</time></trkpt><trkpt lat="45.3973268" lon="10.5517822"><ele>122.0</ele><time>2026-03-28T09:06:17.762Z</time></trkpt><trkpt lat="45.3972433" lon="10.5517662"><ele>122.0</ele><time>2026-03-28T09:06:18.761Z</time></trkpt><trkpt lat="45.3971576" lon="10.5517536"><ele>122.0</ele><time>2026-03-28T09:06:19.761Z</time></trkpt><trkpt lat="45.397083" lon="10.5517444"><ele>121.99999999999999</ele><time>2026-03-28T09:06:20.761Z</time></trkpt><trkpt lat="45.3969822" lon="10.5517649"><ele>122.0</ele><time>2026-03-28T09:06:22.761Z</time></trkpt><trkpt lat="45.3969363" lon="10.5518355"><ele>121.8</ele><time>2026-03-28T09:06:24.761Z</time></trkpt><trkpt lat="45.3969114" lon="10.5519687"><ele>121.6</ele><time>2026-03-28T09:06:26.761Z</time></trkpt><trkpt lat="45.3969043" lon="10.5520796"><ele>121.39999999999999</ele><time>2026-03-28T09:06:27.762Z</time></trkpt><trkpt lat="45.3969004" lon="10.5522079"><ele>121.19999999999999</ele><time>2026-03-28T09:06:28.761Z</time></trkpt><trkpt lat="45.396931" lon="10.552348"><ele>121.0</ele><time>2026-03-28T09:06:29.761Z</time></trkpt><trkpt lat="45.3969798" lon="10.5524911"><ele>123.25</ele><time>2026-03-28T09:06:30.761Z</time></trkpt><trkpt lat="45.3970309" lon="10.5526451"><ele>125.5</ele><time>2026-03-28T09:06:31.762Z</time></trkpt><trkpt lat="45.3970796" lon="10.5528005"><ele>127.75</ele><time>2026-03-28T09:06:32.761Z</time></trkpt><trkpt lat="45.3971233" lon="10.552959"><ele>130.0</ele><time>2026-03-28T09:06:33.761Z</time></trkpt><trkpt lat="45.397156" lon="10.5531346"><ele>126.25</ele><time>2026-03-28T09:06:34.762Z</time></trkpt><trkpt lat="45.3972003" lon="10.5533108"><ele>122.5</ele><time>2026-03-28T09:06:35.762Z</time></trkpt><trkpt lat="45.3972503" lon="10.553467"><ele>118.75</ele><time>2026-03-28T09:06:36.761Z</time></trkpt><trkpt lat="45.3973017" lon="10.5536153"><ele>115.0</ele><time>2026-03-28T09:06:37.761Z</time></trkpt><trkpt lat="45.3973561" lon="10.5537722"><ele>114.6</ele><time>2026-03-28T09:06:38.762Z</time></trkpt><trkpt lat="45.3974104" lon="10.5539124"><ele>114.2</ele><time>2026-03-28T09:06:39.762Z</time></trkpt><trkpt lat="45.3974626" lon="10.5540445"><ele>113.80000000000001</ele><time>2026-03-28T09:06:40.762Z</time></trkpt><trkpt lat="45.3975124" lon="10.5541901"><ele>113.4</ele><time>2026-03-28T09:06:41.761Z</time></trkpt><trkpt lat="45.3975595" lon="10.554338"><ele>113.0</ele><time>2026-03-28T09:06:42.761Z</time></trkpt><trkpt lat="45.3975961" lon="10.5544867"><ele>112.25</ele><time>2026-03-28T09:06:43.762Z</time></trkpt><trkpt lat="45.3976145" lon="10.5546352"><ele>111.5</ele><time>2026-03-28T09:06:44.761Z</time></trkpt><trkpt lat="45.3976118" lon="10.5547979"><ele>110.75</ele><time>2026-03-28T09:06:45.761Z</time></trkpt><trkpt lat="45.3975868" lon="10.5549738"><ele>110.0</ele><time>2026-03-28T09:06:46.761Z</time></trkpt><trkpt lat="45.3975436" lon="10.5551669"><ele>110.0</ele><time>2026-03-28T09:06:47.761Z</time></trkpt><trkpt lat="45.3974935" lon="10.5553681"><ele>110.0</ele><time>2026-03-28T09:06:48.762Z</time></trkpt><trkpt lat="45.3974382" lon="10.5555758"><ele>110.0</ele><time>2026-03-28T09:06:49.761Z</time></trkpt><trkpt lat="45.3973859" lon="10.5557962"><ele>108.66666666666666</ele><time>2026-03-28T09:06:50.762Z</time></trkpt><trkpt lat="45.3973479" lon="10.5560297"><ele>107.33333333333334</ele><time>2026-03-28T09:06:51.762Z</time></trkpt><trkpt lat="45.3973163" lon="10.5562689"><ele>106.0</ele><time>2026-03-28T09:06:52.762Z</time></trkpt><trkpt lat="45.3972874" lon="10.5565105"><ele>106.0</ele><time>2026-03-28T09:06:53.762Z</time></trkpt><trkpt lat="45.3972592" lon="10.556743"><ele>106.0</ele><time>2026-03-28T09:06:54.762Z</time></trkpt><trkpt lat="45.397233" lon="10.5569646"><ele>106.0</ele><time>2026-03-28T09:06:55.762Z</time></trkpt><trkpt lat="45.3971955" lon="10.5571584"><ele>106.75</ele><time>2026-03-28T09:06:56.761Z</time></trkpt><trkpt lat="45.3971298" lon="10.5573133"><ele>107.5</ele><time>2026-03-28T09:06:57.761Z</time></trkpt><trkpt lat="45.3970446" lon="10.5574705"><ele>108.25</ele><time>2026-03-28T09:06:58.761Z</time></trkpt><trkpt lat="45.3969509" lon="10.5576444"><ele>109.0</ele><time>2026-03-28T09:06:59.762Z</time></trkpt><trkpt lat="45.3968721" lon="10.5578485"><ele>107.33333333333334</ele><time>2026-03-28T09:07:00.762Z</time></trkpt><trkpt lat="45.3968139" lon="10.5580807"><ele>105.66666666666666</ele><time>2026-03-28T09:07:01.762Z</time></trkpt><trkpt lat="45.3967713" lon="10.5583396"><ele>104.0</ele><time>2026-03-28T09:07:02.761Z</time></trkpt><trkpt lat="45.3967558" lon="10.5586172"><ele>103.33333333333333</ele><time>2026-03-28T09:07:03.762Z</time></trkpt><trkpt lat="45.3967688" lon="10.5589041"><ele>102.66666666666666</ele><time>2026-03-28T09:07:04.761Z</time></trkpt><trkpt lat="45.3967904" lon="10.5592003"><ele>102.0</ele><time>2026-03-28T09:07:05.762Z</time></trkpt><trkpt lat="45.3968078" lon="10.5594988"><ele>102.66666666666666</ele><time>2026-03-28T09:07:06.762Z</time></trkpt><trkpt lat="45.3968256" lon="10.559795"><ele>103.33333333333333</ele><time>2026-03-28T09:07:07.762Z</time></trkpt><trkpt lat="45.3968421" lon="10.560081"><ele>104.0</ele><time>2026-03-28T09:07:08.762Z</time></trkpt><trkpt lat="45.3968505" lon="10.5603465"><ele>104.0</ele><time>2026-03-28T09:07:09.761Z</time></trkpt><trkpt lat="45.3968563" lon="10.5605971"><ele>104.0</ele><time>2026-03-28T09:07:10.761Z</time></trkpt><trkpt lat="45.3968565" lon="10.5608501"><ele>104.0</ele><time>2026-03-28T09:07:11.761Z</time></trkpt><trkpt lat="45.3968358" lon="10.561109"><ele>104.0</ele><time>2026-03-28T09:07:12.761Z</time></trkpt><trkpt lat="45.3967919" lon="10.5613678"><ele>104.0</ele><time>2026-03-28T09:07:13.762Z</time></trkpt><trkpt lat="45.3967415" lon="10.5616254"><ele>104.0</ele><time>2026-03-28T09:07:14.762Z</time></trkpt><trkpt lat="45.3966858" lon="10.5618873"><ele>103.0</ele><time>2026-03-28T09:07:15.761Z</time></trkpt><trkpt lat="45.3966209" lon="10.5621489"><ele>102.0</ele><time>2026-03-28T09:07:16.761Z</time></trkpt><trkpt lat="45.3965493" lon="10.5623942"><ele>101.0</ele><time>2026-03-28T09:07:17.761Z</time></trkpt><trkpt lat="45.3964795" lon="10.5626205"><ele>101.0</ele><time>2026-03-28T09:07:18.761Z</time></trkpt><trkpt lat="45.3964094" lon="10.5628266"><ele>101.0</ele><time>2026-03-28T09:07:19.762Z</time></trkpt><trkpt lat="45.3963417" lon="10.5630149"><ele>101.0</ele><time>2026-03-28T09:07:20.761Z</time></trkpt><trkpt lat="45.3962785" lon="10.5631896"><ele>101.0</ele><time>2026-03-28T09:07:21.761Z</time></trkpt><trkpt lat="45.3962241" lon="10.5633291"><ele>101.0</ele><time>2026-03-28T09:07:22.762Z</time></trkpt><trkpt lat="45.3961755" lon="10.5634365"><ele>101.0</ele><time>2026-03-28T09:07:23.762Z</time></trkpt><trkpt lat="45.3961424" lon="10.5635191"><ele>101.0</ele><time>2026-03-28T09:07:24.761Z</time></trkpt><trkpt lat="45.3961678" lon="10.5636989"><ele>101.0</ele><time>2026-03-28T09:07:26.762Z</time></trkpt><trkpt lat="45.3962328" lon="10.5637997"><ele>101.0</ele><time>2026-03-28T09:07:27.761Z</time></trkpt><trkpt lat="45.3963225" lon="10.5639147"><ele>101.66666666666666</ele><time>2026-03-28T09:07:28.762Z</time></trkpt><trkpt lat="45.3964211" lon="10.564054"><ele>102.33333333333334</ele><time>2026-03-28T09:07:29.761Z</time></trkpt><trkpt lat="45.3965276" lon="10.5642159"><ele>103.0</ele><time>2026-03-28T09:07:30.761Z</time></trkpt><trkpt lat="45.3966507" lon="10.5643848"><ele>102.66666666666667</ele><time>2026-03-28T09:07:31.761Z</time></trkpt><trkpt lat="45.3967831" lon="10.5645635"><ele>102.33333333333334</ele><time>2026-03-28T09:07:32.762Z</time></trkpt><trkpt lat="45.3969111" lon="10.5647429"><ele>102.0</ele><time>2026-03-28T09:07:33.762Z</time></trkpt><trkpt lat="45.3970354" lon="10.5649158"><ele>102.0</ele><time>2026-03-28T09:07:34.761Z</time></trkpt><trkpt lat="45.397157" lon="10.5650763"><ele>102.0</ele><time>2026-03-28T09:07:35.762Z</time></trkpt><trkpt lat="45.397281" lon="10.5652366"><ele>102.0</ele><time>2026-03-28T09:07:36.761Z</time></trkpt><trkpt lat="45.3973742" lon="10.5654172"><ele>102.0</ele><time>2026-03-28T09:07:37.762Z</time></trkpt><trkpt lat="45.3974335" lon="10.5656148"><ele>102.0</ele><time>2026-03-28T09:07:38.762Z</time></trkpt><trkpt lat="45.3974834" lon="10.5658284"><ele>102.0</ele><time>2026-03-28T09:07:39.761Z</time></trkpt><trkpt lat="45.3975581" lon="10.5660331"><ele>102.66666666666666</ele><time>2026-03-28T09:07:40.762Z</time></trkpt><trkpt lat="45.3976688" lon="10.5662263"><ele>103.33333333333333</ele><time>2026-03-28T09:07:41.762Z</time></trkpt><trkpt lat="45.3977977" lon="10.5664251"><ele>104.0</ele><time>2026-03-28T09:07:42.762Z</time></trkpt><trkpt lat="45.3979391" lon="10.5666347"><ele>104.33333333333333</ele><time>2026-03-28T09:07:43.762Z</time></trkpt><trkpt lat="45.3980899" lon="10.5668537"><ele>104.66666666666666</ele><time>2026-03-28T09:07:44.761Z</time></trkpt><trkpt lat="45.3982548" lon="10.5670704"><ele>105.0</ele><time>2026-03-28T09:07:45.761Z</time></trkpt><trkpt lat="45.3984356" lon="10.5672792"><ele>105.0</ele><time>2026-03-28T09:07:46.761Z</time></trkpt><trkpt lat="45.3986111" lon="10.5674747"><ele>105.0</ele><time>2026-03-28T09:07:47.762Z</time></trkpt><trkpt lat="45.3987691" lon="10.5676577"><ele>105.0</ele><time>2026-03-28T09:07:48.761Z</time></trkpt><trkpt lat="45.3989098" lon="10.5678356"><ele>106.33333333333334</ele><time>2026-03-28T09:07:49.762Z</time></trkpt><trkpt lat="45.3990438" lon="10.5680158"><ele>107.66666666666667</ele><time>2026-03-28T09:07:50.762Z</time></trkpt><trkpt lat="45.399167" lon="10.5681828"><ele>109.0</ele><time>2026-03-28T09:07:51.761Z</time></trkpt><trkpt lat="45.3992833" lon="10.5683349"><ele>109.0</ele><time>2026-03-28T09:07:52.762Z</time></trkpt><trkpt lat="45.3993931" lon="10.5684721"><ele>109.0</ele><time>2026-03-28T09:07:53.761Z</time></trkpt><trkpt lat="45.3994866" lon="10.5685913"><ele>109.0</ele><time>2026-03-28T09:07:54.762Z</time></trkpt><trkpt lat="45.3995539" lon="10.5686859"><ele>109.0</ele><time>2026-03-28T09:07:55.762Z</time></trkpt><trkpt lat="45.3996089" lon="10.5687877"><ele>110.0</ele><time>2026-03-28T09:07:57.761Z</time></trkpt><trkpt lat="45.3995935" lon="10.568935"><ele>111.0</ele><time>2026-03-28T09:08:00.762Z</time></trkpt><trkpt lat="45.3995316" lon="10.5690211"><ele>112.0</ele><time>2026-03-28T09:08:01.761Z</time></trkpt><trkpt lat="45.3994613" lon="10.5691183"><ele>113.0</ele><time>2026-03-28T09:08:02.762Z</time></trkpt><trkpt lat="45.3993781" lon="10.5692279"><ele>114.0</ele><time>2026-03-28T09:08:03.761Z</time></trkpt><trkpt lat="45.3992852" lon="10.5693585"><ele>114.0</ele><time>2026-03-28T09:08:04.761Z</time></trkpt><trkpt lat="45.3991814" lon="10.5695111"><ele>114.0</ele><time>2026-03-28T09:08:05.761Z</time></trkpt><trkpt lat="45.3990665" lon="10.5696728"><ele>114.0</ele><time>2026-03-28T09:08:06.761Z</time></trkpt><trkpt lat="45.3989402" lon="10.5698482"><ele>115.66666666666666</ele><time>2026-03-28T09:08:07.761Z</time></trkpt><trkpt lat="45.3988085" lon="10.5700352"><ele>117.33333333333333</ele><time>2026-03-28T09:08:08.762Z</time></trkpt><trkpt lat="45.3986753" lon="10.5702186"><ele>119.0</ele><time>2026-03-28T09:08:09.762Z</time></trkpt><trkpt lat="45.3985487" lon="10.570381"><ele>119.0</ele><time>2026-03-28T09:08:10.762Z</time></trkpt><trkpt lat="45.3984227" lon="10.5705314"><ele>119.0</ele><time>2026-03-28T09:08:11.761Z</time></trkpt><trkpt lat="45.3982901" lon="10.5706858"><ele>119.0</ele><time>2026-03-28T09:08:12.762Z</time></trkpt><trkpt lat="45.3981551" lon="10.5708389"><ele>119.0</ele><time>2026-03-28T09:08:13.762Z</time></trkpt><trkpt lat="45.3980138" lon="10.5709947"><ele>119.0</ele><time>2026-03-28T09:08:14.761Z</time></trkpt><trkpt lat="45.3978703" lon="10.571154"><ele>119.0</ele><time>2026-03-28T09:08:15.761Z</time></trkpt><trkpt lat="45.3977267" lon="10.5713187"><ele>118.66666666666666</ele><time>2026-03-28T09:08:16.762Z</time></trkpt><trkpt lat="45.397578" lon="10.5714931"><ele>118.33333333333334</ele><time>2026-03-28T09:08:17.762Z</time></trkpt><trkpt lat="45.3974194" lon="10.5716813"><ele>118.0</ele><time>2026-03-28T09:08:18.761Z</time></trkpt><trkpt lat="45.3972548" lon="10.571881"><ele>117.5</ele><time>2026-03-28T09:08:19.761Z</time></trkpt><trkpt lat="45.3970811" lon="10.5720864"><ele>117.0</ele><time>2026-03-28T09:08:20.761Z</time></trkpt><trkpt lat="45.3969087" lon="10.5722903"><ele>117.0</ele><time>2026-03-28T09:08:21.762Z</time></trkpt><trkpt lat="45.3967435" lon="10.5724759"><ele>117.0</ele><time>2026-03-28T09:08:22.761Z</time></trkpt><trkpt lat="45.3965757" lon="10.5726563"><ele>117.0</ele><time>2026-03-28T09:08:23.762Z</time></trkpt><trkpt lat="45.3963954" lon="10.5728192"><ele>117.66666666666666</ele><time>2026-03-28T09:08:24.762Z</time></trkpt><trkpt lat="45.3961966" lon="10.5729523"><ele>118.33333333333333</ele><time>2026-03-28T09:08:25.762Z</time></trkpt><trkpt lat="45.3959876" lon="10.5730763"><ele>119.0</ele><time>2026-03-28T09:08:26.761Z</time></trkpt><trkpt lat="45.3957701" lon="10.5732127"><ele>119.0</ele><time>2026-03-28T09:08:27.762Z</time></trkpt><trkpt lat="45.3955474" lon="10.5733888"><ele>119.0</ele><time>2026-03-28T09:08:28.762Z</time></trkpt><trkpt lat="45.3953356" lon="10.5736113"><ele>119.0</ele><time>2026-03-28T09:08:29.762Z</time></trkpt><trkpt lat="45.3951263" lon="10.5738425"><ele>119.0</ele><time>2026-03-28T09:08:30.762Z</time></trkpt><trkpt lat="45.3949267" lon="10.5740512"><ele>119.0</ele><time>2026-03-28T09:08:31.762Z</time></trkpt><trkpt lat="45.3947294" lon="10.5742563"><ele>119.0</ele><time>2026-03-28T09:08:32.762Z</time></trkpt><trkpt lat="45.3945399" lon="10.5744735"><ele>119.0</ele><time>2026-03-28T09:08:33.761Z</time></trkpt><trkpt lat="45.3943581" lon="10.5746904"><ele>119.0</ele><time>2026-03-28T09:08:34.761Z</time></trkpt><trkpt lat="45.3941813" lon="10.5749062"><ele>119.0</ele><time>2026-03-28T09:08:35.762Z</time></trkpt><trkpt lat="45.394014" lon="10.5751161"><ele>119.0</ele><time>2026-03-28T09:08:36.761Z</time></trkpt><trkpt lat="45.3938579" lon="10.5753121"><ele>119.0</ele><time>2026-03-28T09:08:37.762Z</time></trkpt><trkpt lat="45.3937202" lon="10.5754885"><ele>118.66666666666666</ele><time>2026-03-28T09:08:38.761Z</time></trkpt><trkpt lat="45.3936005" lon="10.5756618"><ele>118.33333333333334</ele><time>2026-03-28T09:08:39.762Z</time></trkpt><trkpt lat="45.3935007" lon="10.575841"><ele>118.0</ele><time>2026-03-28T09:08:40.761Z</time></trkpt><trkpt lat="45.3934109" lon="10.5760207"><ele>118.66666666666667</ele><time>2026-03-28T09:08:41.762Z</time></trkpt><trkpt lat="45.3933233" lon="10.5761969"><ele>119.33333333333334</ele><time>2026-03-28T09:08:42.763Z</time></trkpt><trkpt lat="45.3932352" lon="10.5763792"><ele>120.0</ele><time>2026-03-28T09:08:43.761Z</time></trkpt><trkpt lat="45.3931501" lon="10.5765649"><ele>120.0</ele><time>2026-03-28T09:08:44.762Z</time></trkpt><trkpt lat="45.3930629" lon="10.5767538"><ele>120.0</ele><time>2026-03-28T09:08:45.761Z</time></trkpt><trkpt lat="45.392972" lon="10.5769414"><ele>120.0</ele><time>2026-03-28T09:08:46.762Z</time></trkpt><trkpt lat="45.3928752" lon="10.5771259"><ele>119.33333333333334</ele><time>2026-03-28T09:08:47.762Z</time></trkpt><trkpt lat="45.3927737" lon="10.577309"><ele>118.66666666666667</ele><time>2026-03-28T09:08:48.763Z</time></trkpt><trkpt lat="45.3926716" lon="10.5774911"><ele>118.0</ele><time>2026-03-28T09:08:49.762Z</time></trkpt><trkpt lat="45.3925714" lon="10.5776609"><ele>118.0</ele><time>2026-03-28T09:08:50.762Z</time></trkpt><trkpt lat="45.3924674" lon="10.5778322"><ele>118.0</ele><time>2026-03-28T09:08:51.762Z</time></trkpt><trkpt lat="45.392356" lon="10.5780031"><ele>118.0</ele><time>2026-03-28T09:08:52.762Z</time></trkpt><trkpt lat="45.3922373" lon="10.5781736"><ele>117.66666666666667</ele><time>2026-03-28T09:08:53.762Z</time></trkpt><trkpt lat="45.3921167" lon="10.5783503"><ele>117.33333333333334</ele><time>2026-03-28T09:08:54.762Z</time></trkpt><trkpt lat="45.3919928" lon="10.578533"><ele>117.0</ele><time>2026-03-28T09:08:55.763Z</time></trkpt><trkpt lat="45.3918618" lon="10.5787184"><ele>117.0</ele><time>2026-03-28T09:08:56.763Z</time></trkpt><trkpt lat="45.3917249" lon="10.5789028"><ele>117.0</ele><time>2026-03-28T09:08:57.762Z</time></trkpt><trkpt lat="45.3915802" lon="10.5790786"><ele>117.0</ele><time>2026-03-28T09:08:58.763Z</time></trkpt><trkpt lat="45.3914349" lon="10.579228"><ele>117.33333333333334</ele><time>2026-03-28T09:08:59.764Z</time></trkpt><trkpt lat="45.3913015" lon="10.5793723"><ele>117.66666666666667</ele><time>2026-03-28T09:09:00.763Z</time></trkpt><trkpt lat="45.3911895" lon="10.5795291"><ele>118.0</ele><time>2026-03-28T09:09:01.762Z</time></trkpt><trkpt lat="45.3911092" lon="10.5797019"><ele>118.80000000000001</ele><time>2026-03-28T09:09:02.763Z</time></trkpt><trkpt lat="45.3910415" lon="10.5798582"><ele>119.60000000000001</ele><time>2026-03-28T09:09:03.763Z</time></trkpt><trkpt lat="45.3910023" lon="10.5799753"><ele>120.39999999999999</ele><time>2026-03-28T09:09:04.762Z</time></trkpt><trkpt lat="45.3909733" lon="10.5800685"><ele>121.19999999999999</ele><time>2026-03-28T09:09:05.762Z</time></trkpt><trkpt lat="45.391004" lon="10.5802199"><ele>122.0</ele><time>2026-03-28T09:09:07.762Z</time></trkpt><trkpt lat="45.391106" lon="10.5803077"><ele>122.0</ele><time>2026-03-28T09:09:09.763Z</time></trkpt><trkpt lat="45.3911312" lon="10.5804598"><ele>121.99999999999999</ele><time>2026-03-28T09:09:11.762Z</time></trkpt><trkpt lat="45.391108" lon="10.5805643"><ele>121.99999999999999</ele><time>2026-03-28T09:09:12.762Z</time></trkpt><trkpt lat="45.3910658" lon="10.5806928"><ele>122.0</ele><time>2026-03-28T09:09:13.763Z</time></trkpt><trkpt lat="45.3910108" lon="10.5808377"><ele>122.0</ele><time>2026-03-28T09:09:14.764Z</time></trkpt><trkpt lat="45.3909689" lon="10.5809762"><ele>122.0</ele><time>2026-03-28T09:09:15.762Z</time></trkpt><trkpt lat="45.3909227" lon="10.5811238"><ele>121.99999999999999</ele><time>2026-03-28T09:09:16.762Z</time></trkpt><trkpt lat="45.3908682" lon="10.5812683"><ele>121.99999999999999</ele><time>2026-03-28T09:09:17.763Z</time></trkpt><trkpt lat="45.3908047" lon="10.5813844"><ele>122.0</ele><time>2026-03-28T09:09:18.763Z</time></trkpt><trkpt lat="45.3907387" lon="10.581482"><ele>122.0</ele><time>2026-03-28T09:09:19.762Z</time></trkpt><trkpt lat="45.3906944" lon="10.5815723"><ele>121.19999999999999</ele><time>2026-03-28T09:09:20.763Z</time></trkpt><trkpt lat="45.3906496" lon="10.5816775"><ele>120.39999999999999</ele><time>2026-03-28T09:09:21.763Z</time></trkpt><trkpt lat="45.390601" lon="10.5818038"><ele>119.60000000000001</ele><time>2026-03-28T09:09:22.762Z</time></trkpt><trkpt lat="45.3905548" lon="10.5819412"><ele>118.80000000000001</ele><time>2026-03-28T09:09:23.763Z</time></trkpt><trkpt lat="45.3905094" lon="10.5820763"><ele>118.0</ele><time>2026-03-28T09:09:24.763Z</time></trkpt><trkpt lat="45.3904569" lon="10.5822238"><ele>118.0</ele><time>2026-03-28T09:09:25.762Z</time></trkpt><trkpt lat="45.3904035" lon="10.5823732"><ele>118.0</ele><time>2026-03-28T09:09:26.762Z</time></trkpt><trkpt lat="45.3903421" lon="10.5825182"><ele>118.0</ele><time>2026-03-28T09:09:27.762Z</time></trkpt><trkpt lat="45.3902723" lon="10.5826728"><ele>118.0</ele><time>2026-03-28T09:09:28.763Z</time></trkpt><trkpt lat="45.3902056" lon="10.5828123"><ele>118.4</ele><time>2026-03-28T09:09:29.762Z</time></trkpt><trkpt lat="45.3901404" lon="10.5829474"><ele>118.80000000000001</ele><time>2026-03-28T09:09:30.762Z</time></trkpt><trkpt lat="45.3900849" lon="10.5830638"><ele>119.2</ele><time>2026-03-28T09:09:31.762Z</time></trkpt><trkpt lat="45.3900373" lon="10.5831596"><ele>119.6</ele><time>2026-03-28T09:09:32.763Z</time></trkpt><trkpt lat="45.3899959" lon="10.5832432"><ele>120.0</ele><time>2026-03-28T09:09:33.763Z</time></trkpt><trkpt lat="45.3899346" lon="10.5833729"><ele>120.0</ele><time>2026-03-28T09:09:35.762Z</time></trkpt><trkpt lat="45.3899047" lon="10.5834962"><ele>120.0</ele><time>2026-03-28T09:09:37.762Z</time></trkpt><trkpt lat="45.3898995" lon="10.5836235"><ele>120.0</ele><time>2026-03-28T09:09:39.762Z</time></trkpt><trkpt lat="45.3899351" lon="10.583761"><ele>120.0</ele><time>2026-03-28T09:09:41.763Z</time></trkpt><trkpt lat="45.390023" lon="10.5838782"><ele>120.0</ele><time>2026-03-28T09:09:43.762Z</time></trkpt><trkpt lat="45.3900832" lon="10.5839143"><ele>119.8</ele><time>2026-03-28T09:09:44.762Z</time></trkpt><trkpt lat="45.3901588" lon="10.5839384"><ele>119.6</ele><time>2026-03-28T09:09:45.763Z</time></trkpt><trkpt lat="45.3902467" lon="10.5839486"><ele>119.4</ele><time>2026-03-28T09:09:46.763Z</time></trkpt><trkpt lat="45.3903504" lon="10.583955"><ele>119.2</ele><time>2026-03-28T09:09:47.762Z</time></trkpt><trkpt lat="45.3904582" lon="10.5839537"><ele>119.0</ele><time>2026-03-28T09:09:48.762Z</time></trkpt><trkpt lat="45.3905702" lon="10.5839505"><ele>119.0</ele><time>2026-03-28T09:09:49.763Z</time></trkpt><trkpt lat="45.3906808" lon="10.5839502"><ele>119.0</ele><time>2026-03-28T09:09:50.763Z</time></trkpt><trkpt lat="45.3907876" lon="10.583945"><ele>119.0</ele><time>2026-03-28T09:09:51.762Z</time></trkpt><trkpt lat="45.3908857" lon="10.5839454"><ele>119.0</ele><time>2026-03-28T09:09:52.763Z</time></trkpt><trkpt lat="45.3909734" lon="10.583953"><ele>119.0</ele><time>2026-03-28T09:09:53.763Z</time></trkpt><trkpt lat="45.391053" lon="10.5839722"><ele>119.0</ele><time>2026-03-28T09:09:54.763Z</time></trkpt><trkpt lat="45.3911252" lon="10.5840089"><ele>119.0</ele><time>2026-03-28T09:09:55.763Z</time></trkpt><trkpt lat="45.3911992" lon="10.5840707"><ele>119.0</ele><time>2026-03-28T09:09:56.763Z</time></trkpt><trkpt lat="45.3912841" lon="10.5841601"><ele>119.0</ele><time>2026-03-28T09:09:57.762Z</time></trkpt><trkpt lat="45.3913823" lon="10.5842681"><ele>119.0</ele><time>2026-03-28T09:09:58.764Z</time></trkpt><trkpt lat="45.3914657" lon="10.5843631"><ele>118.33333333333333</ele><time>2026-03-28T09:09:59.762Z</time></trkpt><trkpt lat="45.3915426" lon="10.5844474"><ele>117.66666666666666</ele><time>2026-03-28T09:10:00.762Z</time></trkpt><trkpt lat="45.3916128" lon="10.584529"><ele>117.0</ele><time>2026-03-28T09:10:01.762Z</time></trkpt><trkpt lat="45.391673" lon="10.5846085"><ele>116.33333333333334</ele><time>2026-03-28T09:10:02.762Z</time></trkpt><trkpt lat="45.3917193" lon="10.5846921"><ele>115.66666666666667</ele><time>2026-03-28T09:10:03.763Z</time></trkpt><trkpt lat="45.3917532" lon="10.5847871"><ele>115.0</ele><time>2026-03-28T09:10:04.763Z</time></trkpt><trkpt lat="45.3917689" lon="10.5848892"><ele>115.0</ele><time>2026-03-28T09:10:05.763Z</time></trkpt><trkpt lat="45.3917661" lon="10.5849946"><ele>115.0</ele><time>2026-03-28T09:10:06.763Z</time></trkpt><trkpt lat="45.3917519" lon="10.5851179"><ele>115.0</ele><time>2026-03-28T09:10:07.763Z</time></trkpt><trkpt lat="45.3917319" lon="10.5852654"><ele>115.0</ele><time>2026-03-28T09:10:08.763Z</time></trkpt><trkpt lat="45.3917124" lon="10.5854454"><ele>115.0</ele><time>2026-03-28T09:10:09.762Z</time></trkpt><trkpt lat="45.391688" lon="10.5856453"><ele>115.0</ele><time>2026-03-28T09:10:10.763Z</time></trkpt><trkpt lat="45.3916632" lon="10.5858376"><ele>115.0</ele><time>2026-03-28T09:10:11.762Z</time></trkpt><trkpt lat="45.3916365" lon="10.586016"><ele>115.0</ele><time>2026-03-28T09:10:12.762Z</time></trkpt><trkpt lat="45.3915988" lon="10.5861846"><ele>115.0</ele><time>2026-03-28T09:10:13.763Z</time></trkpt><trkpt lat="45.391548" lon="10.5863494"><ele>115.0</ele><time>2026-03-28T09:10:14.763Z</time></trkpt><trkpt lat="45.3914801" lon="10.5865182"><ele>115.0</ele><time>2026-03-28T09:10:15.762Z</time></trkpt><trkpt lat="45.391412" lon="10.5866795"><ele>115.0</ele><time>2026-03-28T09:10:16.762Z</time></trkpt><trkpt lat="45.3913633" lon="10.5868318"><ele>115.0</ele><time>2026-03-28T09:10:17.762Z</time></trkpt><trkpt lat="45.3913314" lon="10.5869801"><ele>115.0</ele><time>2026-03-28T09:10:18.762Z</time></trkpt><trkpt lat="45.3913162" lon="10.5871248"><ele>115.0</ele><time>2026-03-28T09:10:19.763Z</time></trkpt><trkpt lat="45.391321" lon="10.5872576"><ele>115.0</ele><time>2026-03-28T09:10:20.763Z</time></trkpt><trkpt lat="45.3913434" lon="10.5873797"><ele>115.0</ele><time>2026-03-28T09:10:21.763Z</time></trkpt><trkpt lat="45.3913861" lon="10.5874853"><ele>115.0</ele><time>2026-03-28T09:10:22.762Z</time></trkpt><trkpt lat="45.3914487" lon="10.5875751"><ele>115.0</ele><time>2026-03-28T09:10:23.762Z</time></trkpt><trkpt lat="45.3915335" lon="10.5876615"><ele>115.0</ele><time>2026-03-28T09:10:24.763Z</time></trkpt><trkpt lat="45.3916283" lon="10.5877654"><ele>115.0</ele><time>2026-03-28T09:10:25.763Z</time></trkpt><trkpt lat="45.3917054" lon="10.5878835"><ele>115.0</ele><time>2026-03-28T09:10:26.762Z</time></trkpt><trkpt lat="45.3917758" lon="10.5880296"><ele>115.75</ele><time>2026-03-28T09:10:27.762Z</time></trkpt><trkpt lat="45.3918466" lon="10.5882042"><ele>116.5</ele><time>2026-03-28T09:10:28.763Z</time></trkpt><trkpt lat="45.3919029" lon="10.5883922"><ele>117.25</ele><time>2026-03-28T09:10:29.763Z</time></trkpt><trkpt lat="45.391946" lon="10.5885957"><ele>118.0</ele><time>2026-03-28T09:10:30.762Z</time></trkpt><trkpt lat="45.3919848" lon="10.5888119"><ele>118.0</ele><time>2026-03-28T09:10:31.762Z</time></trkpt><trkpt lat="45.3920168" lon="10.5890417"><ele>118.0</ele><time>2026-03-28T09:10:32.762Z</time></trkpt><trkpt lat="45.3920412" lon="10.5892829"><ele>118.0</ele><time>2026-03-28T09:10:33.762Z</time></trkpt><trkpt lat="45.392052" lon="10.5895272"><ele>117.66666666666667</ele><time>2026-03-28T09:10:34.763Z</time></trkpt><trkpt lat="45.3920495" lon="10.5897481"><ele>117.33333333333334</ele><time>2026-03-28T09:10:35.763Z</time></trkpt><trkpt lat="45.3920501" lon="10.5899672"><ele>117.0</ele><time>2026-03-28T09:10:36.763Z</time></trkpt><trkpt lat="45.3920535" lon="10.5902186"><ele>116.75</ele><time>2026-03-28T09:10:37.762Z</time></trkpt><trkpt lat="45.3920609" lon="10.5904369"><ele>116.5</ele><time>2026-03-28T09:10:38.762Z</time></trkpt><trkpt lat="45.3920716" lon="10.5906364"><ele>116.25</ele><time>2026-03-28T09:10:39.762Z</time></trkpt><trkpt lat="45.3920972" lon="10.5908139"><ele>116.0</ele><time>2026-03-28T09:10:40.763Z</time></trkpt><trkpt lat="45.392136" lon="10.5909653"><ele>116.5</ele><time>2026-03-28T09:10:41.763Z</time></trkpt><trkpt lat="45.3921913" lon="10.5910988"><ele>117.0</ele><time>2026-03-28T09:10:42.762Z</time></trkpt><trkpt lat="45.3922701" lon="10.5912441"><ele>117.5</ele><time>2026-03-28T09:10:43.763Z</time></trkpt><trkpt lat="45.3923667" lon="10.591406"><ele>118.0</ele><time>2026-03-28T09:10:44.763Z</time></trkpt><trkpt lat="45.3924498" lon="10.591561"><ele>118.5</ele><time>2026-03-28T09:10:45.762Z</time></trkpt><trkpt lat="45.3925215" lon="10.5917311"><ele>119.0</ele><time>2026-03-28T09:10:46.762Z</time></trkpt><trkpt lat="45.3925764" lon="10.5919037"><ele>119.5</ele><time>2026-03-28T09:10:47.762Z</time></trkpt><trkpt lat="45.3926047" lon="10.5920672"><ele>120.0</ele><time>2026-03-28T09:10:48.763Z</time></trkpt><trkpt lat="45.3926139" lon="10.5922272"><ele>120.0</ele><time>2026-03-28T09:10:49.763Z</time></trkpt><trkpt lat="45.3926052" lon="10.592392"><ele>120.0</ele><time>2026-03-28T09:10:50.762Z</time></trkpt><trkpt lat="45.3925818" lon="10.5925362"><ele>120.0</ele><time>2026-03-28T09:10:51.762Z</time></trkpt><trkpt lat="45.3925669" lon="10.5926651"><ele>120.0</ele><time>2026-03-28T09:10:52.762Z</time></trkpt><trkpt lat="45.3925657" lon="10.5927783"><ele>120.0</ele><time>2026-03-28T09:10:53.763Z</time></trkpt><trkpt lat="45.3925858" lon="10.5928884"><ele>119.8</ele><time>2026-03-28T09:10:54.762Z</time></trkpt><trkpt lat="45.3926251" lon="10.5929688"><ele>119.6</ele><time>2026-03-28T09:10:55.762Z</time></trkpt><trkpt lat="45.3926861" lon="10.593042"><ele>119.4</ele><time>2026-03-28T09:10:56.763Z</time></trkpt><trkpt lat="45.3927674" lon="10.5931027"><ele>119.2</ele><time>2026-03-28T09:10:57.763Z</time></trkpt><trkpt lat="45.3928649" lon="10.5931545"><ele>119.0</ele><time>2026-03-28T09:10:58.763Z</time></trkpt><trkpt lat="45.39297" lon="10.5931933"><ele>118.4</ele><time>2026-03-28T09:10:59.762Z</time></trkpt><trkpt lat="45.3930645" lon="10.593227"><ele>117.80000000000001</ele><time>2026-03-28T09:11:00.762Z</time></trkpt><trkpt lat="45.3931586" lon="10.5932675"><ele>117.19999999999999</ele><time>2026-03-28T09:11:01.762Z</time></trkpt><trkpt lat="45.393267" lon="10.5933335"><ele>116.6</ele><time>2026-03-28T09:11:02.762Z</time></trkpt><trkpt lat="45.3933716" lon="10.5934237"><ele>116.0</ele><time>2026-03-28T09:11:03.763Z</time></trkpt><trkpt lat="45.3934865" lon="10.5935232"><ele>116.0</ele><time>2026-03-28T09:11:04.762Z</time></trkpt><trkpt lat="45.3936011" lon="10.5936157"><ele>116.0</ele><time>2026-03-28T09:11:05.762Z</time></trkpt><trkpt lat="45.3937082" lon="10.5936941"><ele>116.0</ele><time>2026-03-28T09:11:06.762Z</time></trkpt><trkpt lat="45.3937993" lon="10.5937671"><ele>116.0</ele><time>2026-03-28T09:11:07.762Z</time></trkpt><trkpt lat="45.3938699" lon="10.5938438"><ele>116.0</ele><time>2026-03-28T09:11:08.763Z</time></trkpt><trkpt lat="45.3939141" lon="10.5939314"><ele>115.6</ele><time>2026-03-28T09:11:09.763Z</time></trkpt><trkpt lat="45.3939421" lon="10.5940418"><ele>115.19999999999999</ele><time>2026-03-28T09:11:10.762Z</time></trkpt><trkpt lat="45.3939554" lon="10.5941711"><ele>114.80000000000001</ele><time>2026-03-28T09:11:11.762Z</time></trkpt><trkpt lat="45.3939584" lon="10.5943317"><ele>114.4</ele><time>2026-03-28T09:11:12.762Z</time></trkpt><trkpt lat="45.3939477" lon="10.5945196"><ele>114.0</ele><time>2026-03-28T09:11:13.763Z</time></trkpt><trkpt lat="45.3939319" lon="10.5947331"><ele>113.75</ele><time>2026-03-28T09:11:14.763Z</time></trkpt><trkpt lat="45.3939212" lon="10.5949219"><ele>113.5</ele><time>2026-03-28T09:11:15.763Z</time></trkpt><trkpt lat="45.3939035" lon="10.5951049"><ele>113.25</ele><time>2026-03-28T09:11:16.762Z</time></trkpt><trkpt lat="45.3938857" lon="10.5952793"><ele>113.0</ele><time>2026-03-28T09:11:17.763Z</time></trkpt><trkpt lat="45.3938786" lon="10.5954319"><ele>113.49999999999999</ele><time>2026-03-28T09:11:18.763Z</time></trkpt><trkpt lat="45.3938803" lon="10.5955615"><ele>114.0</ele><time>2026-03-28T09:11:19.763Z</time></trkpt><trkpt lat="45.393901" lon="10.5956729"><ele>114.5</ele><time>2026-03-28T09:11:20.762Z</time></trkpt><trkpt lat="45.3939363" lon="10.5957587"><ele>115.0</ele><time>2026-03-28T09:11:21.762Z</time></trkpt><trkpt lat="45.3939906" lon="10.5958272"><ele>115.49999999999999</ele><time>2026-03-28T09:11:22.763Z</time></trkpt><trkpt lat="45.3940587" lon="10.5958858"><ele>116.0</ele><time>2026-03-28T09:11:23.762Z</time></trkpt><trkpt lat="45.3941254" lon="10.595931"><ele>116.0</ele><time>2026-03-28T09:11:24.762Z</time></trkpt><trkpt lat="45.3942048" lon="10.5959756"><ele>116.0</ele><time>2026-03-28T09:11:25.763Z</time></trkpt><trkpt lat="45.3942892" lon="10.5960124"><ele>116.0</ele><time>2026-03-28T09:11:26.763Z</time></trkpt><trkpt lat="45.3943682" lon="10.5960459"><ele>116.0</ele><time>2026-03-28T09:11:27.763Z</time></trkpt><trkpt lat="45.3944602" lon="10.5960798"><ele>116.0</ele><time>2026-03-28T09:11:28.762Z</time></trkpt><trkpt lat="45.394562" lon="10.5961218"><ele>115.6</ele><time>2026-03-28T09:11:29.763Z</time></trkpt><trkpt lat="45.3946787" lon="10.5961589"><ele>115.19999999999999</ele><time>2026-03-28T09:11:30.763Z</time></trkpt><trkpt lat="45.3947832" lon="10.5961836"><ele>114.80000000000001</ele><time>2026-03-28T09:11:31.762Z</time></trkpt><trkpt lat="45.394884" lon="10.5962095"><ele>114.4</ele><time>2026-03-28T09:11:32.764Z</time></trkpt><trkpt lat="45.3949867" lon="10.5962439"><ele>114.0</ele><time>2026-03-28T09:11:33.763Z</time></trkpt><trkpt lat="45.3950889" lon="10.5962774"><ele>113.6</ele><time>2026-03-28T09:11:34.762Z</time></trkpt><trkpt lat="45.3951874" lon="10.5963224"><ele>113.2</ele><time>2026-03-28T09:11:35.763Z</time></trkpt><trkpt lat="45.3952743" lon="10.5963839"><ele>112.79999999999998</ele><time>2026-03-28T09:11:36.762Z</time></trkpt><trkpt lat="45.3953589" lon="10.5964686"><ele>112.39999999999999</ele><time>2026-03-28T09:11:37.763Z</time></trkpt><trkpt lat="45.3954362" lon="10.5965796"><ele>112.0</ele><time>2026-03-28T09:11:38.762Z</time></trkpt><trkpt lat="45.3955088" lon="10.5967039"><ele>111.19999999999999</ele><time>2026-03-28T09:11:39.763Z</time></trkpt><trkpt lat="45.3955773" lon="10.5968165"><ele>110.39999999999999</ele><time>2026-03-28T09:11:40.763Z</time></trkpt><trkpt lat="45.3956454" lon="10.5969123"><ele>109.60000000000001</ele><time>2026-03-28T09:11:41.762Z</time></trkpt><trkpt lat="45.3957188" lon="10.596987"><ele>108.80000000000001</ele><time>2026-03-28T09:11:42.763Z</time></trkpt><trkpt lat="45.3958023" lon="10.5970393"><ele>108.0</ele><time>2026-03-28T09:11:43.762Z</time></trkpt><trkpt lat="45.3959024" lon="10.5970915"><ele>108.0</ele><time>2026-03-28T09:11:44.763Z</time></trkpt><trkpt lat="45.3960042" lon="10.5971304"><ele>108.00000000000001</ele><time>2026-03-28T09:11:45.762Z</time></trkpt><trkpt lat="45.396105" lon="10.5971597"><ele>108.00000000000001</ele><time>2026-03-28T09:11:46.763Z</time></trkpt><trkpt lat="45.3962081" lon="10.5971856"><ele>108.0</ele><time>2026-03-28T09:11:47.763Z</time></trkpt><trkpt lat="45.3963195" lon="10.5972397"><ele>108.0</ele><time>2026-03-28T09:11:48.762Z</time></trkpt><trkpt lat="45.3964349" lon="10.5972779"><ele>107.0</ele><time>2026-03-28T09:11:49.763Z</time></trkpt><trkpt lat="45.3965481" lon="10.597271"><ele>106.00000000000001</ele><time>2026-03-28T09:11:50.762Z</time></trkpt><trkpt lat="45.3966514" lon="10.5972312"><ele>105.0</ele><time>2026-03-28T09:11:51.762Z</time></trkpt><trkpt lat="45.3967604" lon="10.5971784"><ele>104.0</ele><time>2026-03-28T09:11:52.762Z</time></trkpt><trkpt lat="45.3968573" lon="10.597141"><ele>103.0</ele><time>2026-03-28T09:11:53.763Z</time></trkpt><trkpt lat="45.3969589" lon="10.5971155"><ele>103.00000000000001</ele><time>2026-03-28T09:11:54.763Z</time></trkpt><trkpt lat="45.3970603" lon="10.5971022"><ele>103.0</ele><time>2026-03-28T09:11:55.762Z</time></trkpt><trkpt lat="45.3971422" lon="10.5970991"><ele>103.0</ele><time>2026-03-28T09:11:56.763Z</time></trkpt><trkpt lat="45.3972095" lon="10.5971048"><ele>103.0</ele><time>2026-03-28T09:11:57.763Z</time></trkpt><trkpt lat="45.3972913" lon="10.5971449"><ele>103.00000000000001</ele><time>2026-03-28T09:11:59.762Z</time></trkpt><trkpt lat="45.397309" lon="10.5972553"><ele>103.0</ele><time>2026-03-28T09:12:01.763Z</time></trkpt><trkpt lat="45.3973052" lon="10.5973669"><ele>103.25</ele><time>2026-03-28T09:12:02.762Z</time></trkpt><trkpt lat="45.3972889" lon="10.5975058"><ele>103.5</ele><time>2026-03-28T09:12:03.763Z</time></trkpt><trkpt lat="45.3972675" lon="10.5976615"><ele>103.75</ele><time>2026-03-28T09:12:04.762Z</time></trkpt><trkpt lat="45.3972396" lon="10.5978401"><ele>104.0</ele><time>2026-03-28T09:12:05.762Z</time></trkpt><trkpt lat="45.3972116" lon="10.5979988"><ele>103.75</ele><time>2026-03-28T09:12:06.763Z</time></trkpt><trkpt lat="45.3971728" lon="10.5981635"><ele>103.5</ele><time>2026-03-28T09:12:07.762Z</time></trkpt><trkpt lat="45.3971309" lon="10.598329"><ele>103.25</ele><time>2026-03-28T09:12:08.762Z</time></trkpt><trkpt lat="45.3970917" lon="10.598475"><ele>103.0</ele><time>2026-03-28T09:12:09.763Z</time></trkpt><trkpt lat="45.3970512" lon="10.5986125"><ele>102.66666666666667</ele><time>2026-03-28T09:12:10.762Z</time></trkpt><trkpt lat="45.3970096" lon="10.5987685"><ele>102.33333333333334</ele><time>2026-03-28T09:12:11.763Z</time></trkpt><trkpt lat="45.3969798" lon="10.5988925"><ele>102.0</ele><time>2026-03-28T09:12:12.762Z</time></trkpt><trkpt lat="45.3969532" lon="10.5990103"><ele>101.66666666666666</ele><time>2026-03-28T09:12:13.762Z</time></trkpt><trkpt lat="45.3969317" lon="10.599111"><ele>101.33333333333333</ele><time>2026-03-28T09:12:14.762Z</time></trkpt><trkpt lat="45.3969148" lon="10.5991994"><ele>101.0</ele><time>2026-03-28T09:12:15.763Z</time></trkpt><trkpt lat="45.3969031" lon="10.5992914"><ele>100.99999999999999</ele><time>2026-03-28T09:12:16.763Z</time></trkpt><trkpt lat="45.3968784" lon="10.5994031"><ele>101.0</ele><time>2026-03-28T09:12:17.763Z</time></trkpt><trkpt lat="45.3968505" lon="10.5995295"><ele>101.0</ele><time>2026-03-28T09:12:18.762Z</time></trkpt><trkpt lat="45.3968193" lon="10.5996463"><ele>101.0</ele><time>2026-03-28T09:12:19.763Z</time></trkpt><trkpt lat="45.3967852" lon="10.5997471"><ele>100.99999999999999</ele><time>2026-03-28T09:12:20.763Z</time></trkpt><trkpt lat="45.3967345" lon="10.5998525"><ele>101.0</ele><time>2026-03-28T09:12:21.762Z</time></trkpt><trkpt lat="45.3966764" lon="10.5999632"><ele>101.33333333333333</ele><time>2026-03-28T09:12:22.762Z</time></trkpt><trkpt lat="45.396626" lon="10.6000807"><ele>101.66666666666666</ele><time>2026-03-28T09:12:23.763Z</time></trkpt><trkpt lat="45.3965842" lon="10.6002089"><ele>102.0</ele><time>2026-03-28T09:12:24.762Z</time></trkpt><trkpt lat="45.3965516" lon="10.6003201"><ele>102.33333333333334</ele><time>2026-03-28T09:12:25.762Z</time></trkpt><trkpt lat="45.3965219" lon="10.6004144"><ele>102.66666666666667</ele><time>2026-03-28T09:12:26.762Z</time></trkpt><trkpt lat="45.3964969" lon="10.6004981"><ele>103.0</ele><time>2026-03-28T09:12:27.763Z</time></trkpt><trkpt lat="45.3964524" lon="10.6006513"><ele>102.66666666666667</ele><time>2026-03-28T09:12:29.763Z</time></trkpt><trkpt lat="45.3964209" lon="10.600746"><ele>102.33333333333334</ele><time>2026-03-28T09:12:30.763Z</time></trkpt><trkpt lat="45.3963881" lon="10.6008545"><ele>102.0</ele><time>2026-03-28T09:12:31.762Z</time></trkpt><trkpt lat="45.3963566" lon="10.600949"><ele>101.66666666666666</ele><time>2026-03-28T09:12:32.763Z</time></trkpt><trkpt lat="45.3963209" lon="10.6010547"><ele>101.33333333333333</ele><time>2026-03-28T09:12:33.763Z</time></trkpt><trkpt lat="45.396291" lon="10.6011473"><ele>101.0</ele><time>2026-03-28T09:12:34.762Z</time></trkpt><trkpt lat="45.3962638" lon="10.6012339"><ele>100.99999999999999</ele><time>2026-03-28T09:12:35.763Z</time></trkpt><trkpt lat="45.3962396" lon="10.6013212"><ele>101.0</ele><time>2026-03-28T09:12:36.762Z</time></trkpt><trkpt lat="45.3962132" lon="10.6014116"><ele>101.0</ele><time>2026-03-28T09:12:37.763Z</time></trkpt><trkpt lat="45.3961842" lon="10.6015053"><ele>101.0</ele><time>2026-03-28T09:12:38.763Z</time></trkpt><trkpt lat="45.3961527" lon="10.6016062"><ele>100.99999999999999</ele><time>2026-03-28T09:12:39.762Z</time></trkpt><trkpt lat="45.3961224" lon="10.601719"><ele>101.0</ele><time>2026-03-28T09:12:40.763Z</time></trkpt><trkpt lat="45.3960817" lon="10.6018739"><ele>101.25</ele><time>2026-03-28T09:12:41.762Z</time></trkpt><trkpt lat="45.3960337" lon="10.602036"><ele>101.5</ele><time>2026-03-28T09:12:42.763Z</time></trkpt><trkpt lat="45.395982" lon="10.6021988"><ele>101.75</ele><time>2026-03-28T09:12:43.763Z</time></trkpt><trkpt lat="45.3959261" lon="10.6023691"><ele>102.0</ele><time>2026-03-28T09:12:44.762Z</time></trkpt><trkpt lat="45.3958674" lon="10.6025528"><ele>102.0</ele><time>2026-03-28T09:12:45.763Z</time></trkpt><trkpt lat="45.3958109" lon="10.602723"><ele>102.0</ele><time>2026-03-28T09:12:46.763Z</time></trkpt><trkpt lat="45.3957574" lon="10.602905"><ele>102.0</ele><time>2026-03-28T09:12:47.762Z</time></trkpt><trkpt lat="45.395703" lon="10.6030772"><ele>102.0</ele><time>2026-03-28T09:12:48.763Z</time></trkpt><trkpt lat="45.3956496" lon="10.6032465"><ele>101.5</ele><time>2026-03-28T09:12:49.762Z</time></trkpt><trkpt lat="45.3955945" lon="10.603407"><ele>101.0</ele><time>2026-03-28T09:12:50.763Z</time></trkpt><trkpt lat="45.3955422" lon="10.6035609"><ele>100.5</ele><time>2026-03-28T09:12:51.762Z</time></trkpt><trkpt lat="45.3954966" lon="10.6037017"><ele>100.0</ele><time>2026-03-28T09:12:52.762Z</time></trkpt><trkpt lat="45.3954527" lon="10.6038381"><ele>100.0</ele><time>2026-03-28T09:12:53.763Z</time></trkpt><trkpt lat="45.3954125" lon="10.6039548"><ele>100.0</ele><time>2026-03-28T09:12:54.762Z</time></trkpt><trkpt lat="45.3953755" lon="10.6040774"><ele>100.0</ele><time>2026-03-28T09:12:55.763Z</time></trkpt><trkpt lat="45.3953238" lon="10.6042342"><ele>100.0</ele><time>2026-03-28T09:12:56.762Z</time></trkpt><trkpt lat="45.3952765" lon="10.6043741"><ele>100.0</ele><time>2026-03-28T09:12:57.763Z</time></trkpt><trkpt lat="45.3952364" lon="10.6045077"><ele>100.0</ele><time>2026-03-28T09:12:58.763Z</time></trkpt><trkpt lat="45.3952066" lon="10.6046328"><ele>100.0</ele><time>2026-03-28T09:12:59.763Z</time></trkpt><trkpt lat="45.395175" lon="10.6047723"><ele>100.0</ele><time>2026-03-28T09:13:00.762Z</time></trkpt><trkpt lat="45.3951432" lon="10.6049259"><ele>100.0</ele><time>2026-03-28T09:13:01.763Z</time></trkpt><trkpt lat="45.3951116" lon="10.605083"><ele>100.0</ele><time>2026-03-28T09:13:02.762Z</time></trkpt><trkpt lat="45.3950851" lon="10.6052266"><ele>100.75</ele><time>2026-03-28T09:13:03.763Z</time></trkpt><trkpt lat="45.3950582" lon="10.6053837"><ele>101.5</ele><time>2026-03-28T09:13:04.762Z</time></trkpt><trkpt lat="45.3950303" lon="10.605539"><ele>102.25</ele><time>2026-03-28T09:13:05.763Z</time></trkpt><trkpt lat="45.3949994" lon="10.6056957"><ele>103.0</ele><time>2026-03-28T09:13:06.763Z</time></trkpt><trkpt lat="45.3949735" lon="10.605855"><ele>103.0</ele><time>2026-03-28T09:13:07.762Z</time></trkpt><trkpt lat="45.3949425" lon="10.6060331"><ele>103.0</ele><time>2026-03-28T09:13:08.762Z</time></trkpt><trkpt lat="45.394913" lon="10.6061962"><ele>103.0</ele><time>2026-03-28T09:13:09.764Z</time></trkpt><trkpt lat="45.3948863" lon="10.6063484"><ele>103.0</ele><time>2026-03-28T09:13:10.762Z</time></trkpt><trkpt lat="45.3948551" lon="10.6065279"><ele>102.75</ele><time>2026-03-28T09:13:11.764Z</time></trkpt><trkpt lat="45.3948364" lon="10.6067046"><ele>102.5</ele><time>2026-03-28T09:13:12.763Z</time></trkpt><trkpt lat="45.394823" lon="10.6069137"><ele>102.25</ele><time>2026-03-28T09:13:13.762Z</time></trkpt><trkpt lat="45.3948209" lon="10.6071306"><ele>102.0</ele><time>2026-03-28T09:13:14.763Z</time></trkpt><trkpt lat="45.394814" lon="10.6073565"><ele>102.66666666666666</ele><time>2026-03-28T09:13:15.763Z</time></trkpt><trkpt lat="45.3948066" lon="10.6075925"><ele>103.33333333333333</ele><time>2026-03-28T09:13:16.762Z</time></trkpt><trkpt lat="45.3947993" lon="10.6078494"><ele>104.0</ele><time>2026-03-28T09:13:17.763Z</time></trkpt><trkpt lat="45.3947903" lon="10.6080869"><ele>104.0</ele><time>2026-03-28T09:13:18.762Z</time></trkpt><trkpt lat="45.3947762" lon="10.6083214"><ele>104.0</ele><time>2026-03-28T09:13:19.763Z</time></trkpt><trkpt lat="45.3947517" lon="10.6085517"><ele>104.0</ele><time>2026-03-28T09:13:20.762Z</time></trkpt><trkpt lat="45.3947147" lon="10.6087963"><ele>101.33333333333333</ele><time>2026-03-28T09:13:21.762Z</time></trkpt><trkpt lat="45.3946702" lon="10.6090279"><ele>98.66666666666666</ele><time>2026-03-28T09:13:22.762Z</time></trkpt><trkpt lat="45.3946155" lon="10.6092344"><ele>96.0</ele><time>2026-03-28T09:13:23.762Z</time></trkpt><trkpt lat="45.3945471" lon="10.6094323"><ele>96.5</ele><time>2026-03-28T09:13:24.763Z</time></trkpt><trkpt lat="45.3944742" lon="10.6096127"><ele>97.0</ele><time>2026-03-28T09:13:25.763Z</time></trkpt><trkpt lat="45.3944101" lon="10.6097807"><ele>97.5</ele><time>2026-03-28T09:13:26.763Z</time></trkpt><trkpt lat="45.3943589" lon="10.6099415"><ele>98.0</ele><time>2026-03-28T09:13:27.762Z</time></trkpt><trkpt lat="45.3943209" lon="10.6101033"><ele>98.0</ele><time>2026-03-28T09:13:28.762Z</time></trkpt><trkpt lat="45.3942941" lon="10.6102564"><ele>98.0</ele><time>2026-03-28T09:13:29.763Z</time></trkpt><trkpt lat="45.3942804" lon="10.6104155"><ele>98.0</ele><time>2026-03-28T09:13:30.762Z</time></trkpt><trkpt lat="45.3942784" lon="10.6105828"><ele>98.0</ele><time>2026-03-28T09:13:31.763Z</time></trkpt><trkpt lat="45.3942767" lon="10.6107371"><ele>98.0</ele><time>2026-03-28T09:13:32.762Z</time></trkpt><trkpt lat="45.3942833" lon="10.6108741"><ele>98.4</ele><time>2026-03-28T09:13:33.763Z</time></trkpt><trkpt lat="45.3942869" lon="10.6109993"><ele>98.80000000000001</ele><time>2026-03-28T09:13:34.762Z</time></trkpt><trkpt lat="45.3942995" lon="10.6110905"><ele>99.2</ele><time>2026-03-28T09:13:35.762Z</time></trkpt><trkpt lat="45.3943544" lon="10.6112118"><ele>99.6</ele><time>2026-03-28T09:13:37.762Z</time></trkpt><trkpt lat="45.3944465" lon="10.6112124"><ele>100.0</ele><time>2026-03-28T09:13:39.762Z</time></trkpt><trkpt lat="45.3945535" lon="10.6111485"><ele>100.0</ele><time>2026-03-28T09:13:41.763Z</time></trkpt><trkpt lat="45.3946251" lon="10.6111017"><ele>100.0</ele><time>2026-03-28T09:13:42.763Z</time></trkpt><trkpt lat="45.3947062" lon="10.6110545"><ele>100.0</ele><time>2026-03-28T09:13:43.763Z</time></trkpt><trkpt lat="45.3947927" lon="10.6110082"><ele>100.0</ele><time>2026-03-28T09:13:44.762Z</time></trkpt><trkpt lat="45.3948916" lon="10.6109477"><ele>100.0</ele><time>2026-03-28T09:13:45.762Z</time></trkpt><trkpt lat="45.3950052" lon="10.610877"><ele>102.5</ele><time>2026-03-28T09:13:46.763Z</time></trkpt><trkpt lat="45.3951251" lon="10.6108099"><ele>105.0</ele><time>2026-03-28T09:13:47.763Z</time></trkpt><trkpt lat="45.3952322" lon="10.6107626"><ele>107.5</ele><time>2026-03-28T09:13:48.762Z</time></trkpt><trkpt lat="45.3953515" lon="10.6107179"><ele>110.0</ele><time>2026-03-28T09:13:49.762Z</time></trkpt><trkpt lat="45.3954796" lon="10.610678"><ele>111.0</ele><time>2026-03-28T09:13:50.763Z</time></trkpt><trkpt lat="45.395585" lon="10.6106383"><ele>112.0</ele><time>2026-03-28T09:13:51.763Z</time></trkpt><trkpt lat="45.3956869" lon="10.610607"><ele>113.0</ele><time>2026-03-28T09:13:52.764Z</time></trkpt><trkpt lat="45.3957715" lon="10.6105692"><ele>114.0</ele><time>2026-03-28T09:13:53.762Z</time></trkpt><trkpt lat="45.3958511" lon="10.6105167"><ele>115.0</ele><time>2026-03-28T09:13:54.762Z</time></trkpt><trkpt lat="45.3959128" lon="10.6104454"><ele>115.0</ele><time>2026-03-28T09:13:55.763Z</time></trkpt><trkpt lat="45.3959753" lon="10.6103424"><ele>115.0</ele><time>2026-03-28T09:13:56.762Z</time></trkpt><trkpt lat="45.3960406" lon="10.6102258"><ele>115.0</ele><time>2026-03-28T09:13:57.762Z</time></trkpt><trkpt lat="45.3961179" lon="10.6100879"><ele>115.0</ele><time>2026-03-28T09:13:58.762Z</time></trkpt><trkpt lat="45.3961967" lon="10.6099431"><ele>115.25</ele><time>2026-03-28T09:13:59.763Z</time></trkpt><trkpt lat="45.3962619" lon="10.6098222"><ele>115.5</ele><time>2026-03-28T09:14:00.762Z</time></trkpt><trkpt lat="45.3963149" lon="10.6096891"><ele>115.75</ele><time>2026-03-28T09:14:01.763Z</time></trkpt><trkpt lat="45.3963687" lon="10.609515"><ele>116.0</ele><time>2026-03-28T09:14:02.763Z</time></trkpt><trkpt lat="45.3964192" lon="10.6093669"><ele>116.66666666666666</ele><time>2026-03-28T09:14:03.762Z</time></trkpt><trkpt lat="45.3964603" lon="10.6092573"><ele>117.33333333333333</ele><time>2026-03-28T09:14:04.762Z</time></trkpt><trkpt lat="45.3965018" lon="10.6091658"><ele>118.0</ele><time>2026-03-28T09:14:05.762Z</time></trkpt><trkpt lat="45.396558" lon="10.6091078"><ele>118.66666666666666</ele><time>2026-03-28T09:14:06.763Z</time></trkpt><trkpt lat="45.39663" lon="10.60908"><ele>119.33333333333333</ele><time>2026-03-28T09:14:07.762Z</time></trkpt><trkpt lat="45.3967281" lon="10.6090734"><ele>120.0</ele><time>2026-03-28T09:14:08.762Z</time></trkpt><trkpt lat="45.3968493" lon="10.6090865"><ele>120.0</ele><time>2026-03-28T09:14:09.763Z</time></trkpt><trkpt lat="45.3969979" lon="10.609103"><ele>120.0</ele><time>2026-03-28T09:14:10.763Z</time></trkpt><trkpt lat="45.397167" lon="10.609109"><ele>120.0</ele><time>2026-03-28T09:14:11.763Z</time></trkpt><trkpt lat="45.3973428" lon="10.6091118"><ele>120.66666666666666</ele><time>2026-03-28T09:14:12.763Z</time></trkpt><trkpt lat="45.3974935" lon="10.6091032"><ele>121.33333333333333</ele><time>2026-03-28T09:14:13.764Z</time></trkpt><trkpt lat="45.3976578" lon="10.6090807"><ele>122.0</ele><time>2026-03-28T09:14:14.763Z</time></trkpt><trkpt lat="45.3978143" lon="10.6090441"><ele>122.0</ele><time>2026-03-28T09:14:15.763Z</time></trkpt><trkpt lat="45.3979503" lon="10.6090051"><ele>122.0</ele><time>2026-03-28T09:14:16.762Z</time></trkpt><trkpt lat="45.3980741" lon="10.6089685"><ele>122.0</ele><time>2026-03-28T09:14:17.763Z</time></trkpt><trkpt lat="45.3981811" lon="10.6089423"><ele>122.0</ele><time>2026-03-28T09:14:18.762Z</time></trkpt><trkpt lat="45.398266" lon="10.6089235"><ele>122.0</ele><time>2026-03-28T09:14:19.762Z</time></trkpt><trkpt lat="45.3983293" lon="10.6089163"><ele>121.99999999999999</ele><time>2026-03-28T09:14:20.762Z</time></trkpt><trkpt lat="45.3983916" lon="10.6089415"><ele>121.99999999999999</ele><time>2026-03-28T09:14:22.762Z</time></trkpt><trkpt lat="45.398399" lon="10.6090483"><ele>122.0</ele><time>2026-03-28T09:14:24.763Z</time></trkpt><trkpt lat="45.3983821" lon="10.6091963"><ele>122.0</ele><time>2026-03-28T09:14:25.763Z</time></trkpt><trkpt lat="45.3983478" lon="10.6094101"><ele>123.0</ele><time>2026-03-28T09:14:26.763Z</time></trkpt><trkpt lat="45.3983075" lon="10.6096581"><ele>124.0</ele><time>2026-03-28T09:14:27.762Z</time></trkpt><trkpt lat="45.3982769" lon="10.6098837"><ele>125.0</ele><time>2026-03-28T09:14:28.763Z</time></trkpt><trkpt lat="45.3982511" lon="10.6101071"><ele>125.0</ele><time>2026-03-28T09:14:29.763Z</time></trkpt><trkpt lat="45.3982254" lon="10.610332"><ele>125.0</ele><time>2026-03-28T09:14:30.763Z</time></trkpt><trkpt lat="45.3981918" lon="10.6105614"><ele>125.0</ele><time>2026-03-28T09:14:31.762Z</time></trkpt><trkpt lat="45.3981476" lon="10.6107894"><ele>125.0</ele><time>2026-03-28T09:14:32.763Z</time></trkpt><trkpt lat="45.3980875" lon="10.6110409"><ele>125.0</ele><time>2026-03-28T09:14:33.762Z</time></trkpt><trkpt lat="45.3979993" lon="10.611329"><ele>125.0</ele><time>2026-03-28T09:14:34.762Z</time></trkpt><trkpt lat="45.3979092" lon="10.6115895"><ele>122.66666666666666</ele><time>2026-03-28T09:14:35.762Z</time></trkpt><trkpt lat="45.3978297" lon="10.6118154"><ele>120.33333333333334</ele><time>2026-03-28T09:14:36.763Z</time></trkpt><trkpt lat="45.3977563" lon="10.612017"><ele>118.0</ele><time>2026-03-28T09:14:37.763Z</time></trkpt><trkpt lat="45.3976908" lon="10.6122132"><ele>118.0</ele><time>2026-03-28T09:14:38.762Z</time></trkpt><trkpt lat="45.3976381" lon="10.6124086"><ele>118.0</ele><time>2026-03-28T09:14:39.763Z</time></trkpt><trkpt lat="45.3975975" lon="10.6126217"><ele>118.0</ele><time>2026-03-28T09:14:40.763Z</time></trkpt><trkpt lat="45.3975716" lon="10.6128626"><ele>118.0</ele><time>2026-03-28T09:14:41.763Z</time></trkpt><trkpt lat="45.3975702" lon="10.6131435"><ele>118.0</ele><time>2026-03-28T09:14:42.762Z</time></trkpt><trkpt lat="45.3975882" lon="10.613471"><ele>118.0</ele><time>2026-03-28T09:14:43.762Z</time></trkpt><trkpt lat="45.3976041" lon="10.6138233"><ele>118.0</ele><time>2026-03-28T09:14:44.762Z</time></trkpt><trkpt lat="45.3976099" lon="10.614167"><ele>118.0</ele><time>2026-03-28T09:14:45.763Z</time></trkpt><trkpt lat="45.3976157" lon="10.614476"><ele>118.0</ele><time>2026-03-28T09:14:46.763Z</time></trkpt><trkpt lat="45.3976227" lon="10.6147647"><ele>118.0</ele><time>2026-03-28T09:14:47.763Z</time></trkpt><trkpt lat="45.3976229" lon="10.6150327"><ele>118.0</ele><time>2026-03-28T09:14:48.762Z</time></trkpt><trkpt lat="45.3976135" lon="10.615284"><ele>118.0</ele><time>2026-03-28T09:14:49.763Z</time></trkpt><trkpt lat="45.3976024" lon="10.6155406"><ele>118.0</ele><time>2026-03-28T09:14:50.763Z</time></trkpt><trkpt lat="45.3975904" lon="10.6158067"><ele>118.0</ele><time>2026-03-28T09:14:51.762Z</time></trkpt><trkpt lat="45.3975785" lon="10.6160764"><ele>117.33333333333334</ele><time>2026-03-28T09:14:52.762Z</time></trkpt><trkpt lat="45.3975625" lon="10.6163493"><ele>116.66666666666666</ele><time>2026-03-28T09:14:53.763Z</time></trkpt><trkpt lat="45.3975467" lon="10.6166217"><ele>116.0</ele><time>2026-03-28T09:14:54.763Z</time></trkpt><trkpt lat="45.3975355" lon="10.6168981"><ele>115.33333333333333</ele><time>2026-03-28T09:14:55.763Z</time></trkpt><trkpt lat="45.3975254" lon="10.6171746"><ele>114.66666666666666</ele><time>2026-03-28T09:14:56.763Z</time></trkpt><trkpt lat="45.3975094" lon="10.6174502"><ele>114.0</ele><time>2026-03-28T09:14:57.762Z</time></trkpt><trkpt lat="45.397488" lon="10.617739"><ele>113.0</ele><time>2026-03-28T09:14:58.762Z</time></trkpt><trkpt lat="45.3974692" lon="10.6180231"><ele>112.0</ele><time>2026-03-28T09:14:59.762Z</time></trkpt><trkpt lat="45.3974604" lon="10.6182932"><ele>111.0</ele><time>2026-03-28T09:15:00.763Z</time></trkpt><trkpt lat="45.3974497" lon="10.6185524"><ele>108.66666666666666</ele><time>2026-03-28T09:15:01.763Z</time></trkpt><trkpt lat="45.3974282" lon="10.6187979"><ele>106.33333333333333</ele><time>2026-03-28T09:15:02.762Z</time></trkpt><trkpt lat="45.3973898" lon="10.6190378"><ele>104.0</ele><time>2026-03-28T09:15:03.762Z</time></trkpt><trkpt lat="45.3973348" lon="10.6192789"><ele>102.66666666666666</ele><time>2026-03-28T09:15:04.763Z</time></trkpt><trkpt lat="45.3972614" lon="10.6195144"><ele>101.33333333333334</ele><time>2026-03-28T09:15:05.763Z</time></trkpt><trkpt lat="45.3971669" lon="10.6197365"><ele>100.0</ele><time>2026-03-28T09:15:06.763Z</time></trkpt><trkpt lat="45.3970475" lon="10.6199451"><ele>100.0</ele><time>2026-03-28T09:15:07.762Z</time></trkpt><trkpt lat="45.3969038" lon="10.6201513"><ele>100.0</ele><time>2026-03-28T09:15:08.762Z</time></trkpt><trkpt lat="45.3967519" lon="10.6203397"><ele>100.0</ele><time>2026-03-28T09:15:09.762Z</time></trkpt><trkpt lat="45.3966064" lon="10.6205141"><ele>99.0</ele><time>2026-03-28T09:15:10.762Z</time></trkpt><trkpt lat="45.3964656" lon="10.6206762"><ele>98.0</ele><time>2026-03-28T09:15:11.762Z</time></trkpt><trkpt lat="45.3963392" lon="10.6208185"><ele>97.0</ele><time>2026-03-28T09:15:12.763Z</time></trkpt><trkpt lat="45.3962248" lon="10.6209486"><ele>96.19999999999999</ele><time>2026-03-28T09:15:13.762Z</time></trkpt><trkpt lat="45.3961274" lon="10.6210646"><ele>95.4</ele><time>2026-03-28T09:15:14.762Z</time></trkpt><trkpt lat="45.3960431" lon="10.621166"><ele>94.6</ele><time>2026-03-28T09:15:15.763Z</time></trkpt><trkpt lat="45.3959724" lon="10.6212453"><ele>93.80000000000001</ele><time>2026-03-28T09:15:16.763Z</time></trkpt><trkpt lat="45.395892" lon="10.6213248"><ele>93.0</ele><time>2026-03-28T09:15:18.762Z</time></trkpt><trkpt lat="45.3958128" lon="10.6213397"><ele>93.0</ele><time>2026-03-28T09:15:21.763Z</time></trkpt><trkpt lat="45.3957698" lon="10.6212316"><ele>93.0</ele><time>2026-03-28T09:15:23.762Z</time></trkpt><trkpt lat="45.3957724" lon="10.6211391"><ele>93.0</ele><time>2026-03-28T09:15:25.763Z</time></trkpt><trkpt lat="45.3957748" lon="10.6210291"><ele>93.0</ele><time>2026-03-28T09:15:28.762Z</time></trkpt><trkpt lat="45.3957787" lon="10.6209191"><ele>93.0</ele><time>2026-03-28T09:15:31.762Z</time></trkpt><trkpt lat="45.395769" lon="10.6207721"><ele>93.0</ele><time>2026-03-28T09:15:35.762Z</time></trkpt><trkpt lat="45.3957573" lon="10.6205879"><ele>93.0</ele><time>2026-03-28T09:15:37.762Z</time></trkpt><trkpt lat="45.3957443" lon="10.6204791"><ele>93.0</ele><time>2026-03-28T09:15:38.762Z</time></trkpt><trkpt lat="45.3957276" lon="10.6203516"><ele>93.0</ele><time>2026-03-28T09:15:39.762Z</time></trkpt><trkpt lat="45.3957118" lon="10.6202123"><ele>93.0</ele><time>2026-03-28T09:15:40.762Z</time></trkpt><trkpt lat="45.3956797" lon="10.6200674"><ele>93.0</ele><time>2026-03-28T09:15:41.763Z</time></trkpt><trkpt lat="45.395638" lon="10.6199232"><ele>93.0</ele><time>2026-03-28T09:15:42.762Z</time></trkpt><trkpt lat="45.3955912" lon="10.6197811"><ele>93.0</ele><time>2026-03-28T09:15:43.762Z</time></trkpt><trkpt lat="45.3955414" lon="10.6196374"><ele>93.0</ele><time>2026-03-28T09:15:44.762Z</time></trkpt><trkpt lat="45.3954887" lon="10.6194896"><ele>93.0</ele><time>2026-03-28T09:15:45.762Z</time></trkpt><trkpt lat="45.3954345" lon="10.6193392"><ele>93.25</ele><time>2026-03-28T09:15:46.763Z</time></trkpt><trkpt lat="45.3953796" lon="10.6191864"><ele>93.5</ele><time>2026-03-28T09:15:47.763Z</time></trkpt><trkpt lat="45.3953201" lon="10.6190276"><ele>93.75</ele><time>2026-03-28T09:15:48.762Z</time></trkpt><trkpt lat="45.395261" lon="10.618863"><ele>94.0</ele><time>2026-03-28T09:15:49.762Z</time></trkpt><trkpt lat="45.3952023" lon="10.6186949"><ele>94.75</ele><time>2026-03-28T09:15:50.762Z</time></trkpt><trkpt lat="45.3951383" lon="10.6185173"><ele>95.5</ele><time>2026-03-28T09:15:51.763Z</time></trkpt><trkpt lat="45.3950703" lon="10.618325"><ele>96.25</ele><time>2026-03-28T09:15:52.763Z</time></trkpt><trkpt lat="45.3949993" lon="10.6181258"><ele>97.0</ele><time>2026-03-28T09:15:53.762Z</time></trkpt><trkpt lat="45.3949226" lon="10.6179195"><ele>96.0</ele><time>2026-03-28T09:15:54.762Z</time></trkpt><trkpt lat="45.3948312" lon="10.6176963"><ele>95.0</ele><time>2026-03-28T09:15:55.763Z</time></trkpt><trkpt lat="45.3947294" lon="10.6174585"><ele>94.0</ele><time>2026-03-28T09:15:56.762Z</time></trkpt><trkpt lat="45.3946225" lon="10.6172276"><ele>94.0</ele><time>2026-03-28T09:15:57.762Z</time></trkpt><trkpt lat="45.3945111" lon="10.6170034"><ele>94.0</ele><time>2026-03-28T09:15:58.763Z</time></trkpt><trkpt lat="45.3944024" lon="10.6167831"><ele>94.0</ele><time>2026-03-28T09:15:59.762Z</time></trkpt><trkpt lat="45.3942958" lon="10.6165708"><ele>96.0</ele><time>2026-03-28T09:16:00.762Z</time></trkpt><trkpt lat="45.3941917" lon="10.6163622"><ele>98.0</ele><time>2026-03-28T09:16:01.763Z</time></trkpt><trkpt lat="45.3940877" lon="10.6161449"><ele>100.0</ele><time>2026-03-28T09:16:02.762Z</time></trkpt><trkpt lat="45.3939896" lon="10.6159172"><ele>100.66666666666667</ele><time>2026-03-28T09:16:03.762Z</time></trkpt><trkpt lat="45.3938987" lon="10.6156783"><ele>101.33333333333334</ele><time>2026-03-28T09:16:04.762Z</time></trkpt><trkpt lat="45.393807" lon="10.6154315"><ele>102.0</ele><time>2026-03-28T09:16:05.763Z</time></trkpt><trkpt lat="45.3937129" lon="10.615185"><ele>101.0</ele><time>2026-03-28T09:16:06.762Z</time></trkpt><trkpt lat="45.3936185" lon="10.614938"><ele>100.0</ele><time>2026-03-28T09:16:07.763Z</time></trkpt><trkpt lat="45.3935268" lon="10.6146889"><ele>99.0</ele><time>2026-03-28T09:16:08.762Z</time></trkpt><trkpt lat="45.393433" lon="10.6144369"><ele>99.0</ele><time>2026-03-28T09:16:09.763Z</time></trkpt><trkpt lat="45.393338" lon="10.6141849"><ele>99.0</ele><time>2026-03-28T09:16:10.763Z</time></trkpt><trkpt lat="45.3932415" lon="10.6139332"><ele>99.0</ele><time>2026-03-28T09:16:11.763Z</time></trkpt><trkpt lat="45.393144" lon="10.6136877"><ele>99.0</ele><time>2026-03-28T09:16:12.762Z</time></trkpt><trkpt lat="45.3930462" lon="10.6134653"><ele>99.0</ele><time>2026-03-28T09:16:13.762Z</time></trkpt><trkpt lat="45.3929446" lon="10.6132667"><ele>99.0</ele><time>2026-03-28T09:16:14.762Z</time></trkpt><trkpt lat="45.3928404" lon="10.6130828"><ele>97.0</ele><time>2026-03-28T09:16:15.763Z</time></trkpt><trkpt lat="45.3927286" lon="10.6129003"><ele>95.0</ele><time>2026-03-28T09:16:16.762Z</time></trkpt><trkpt lat="45.3926249" lon="10.6127359"><ele>93.0</ele><time>2026-03-28T09:16:17.763Z</time></trkpt><trkpt lat="45.3925217" lon="10.6125833"><ele>93.0</ele><time>2026-03-28T09:16:18.762Z</time></trkpt><trkpt lat="45.3924234" lon="10.6124396"><ele>93.0</ele><time>2026-03-28T09:16:19.763Z</time></trkpt><trkpt lat="45.3923353" lon="10.6123084"><ele>93.0</ele><time>2026-03-28T09:16:20.763Z</time></trkpt><trkpt lat="45.3922533" lon="10.612191"><ele>93.0</ele><time>2026-03-28T09:16:21.762Z</time></trkpt><trkpt lat="45.3921669" lon="10.6121239"><ele>93.4</ele><time>2026-03-28T09:16:22.763Z</time></trkpt><trkpt lat="45.3920666" lon="10.612104"><ele>93.80000000000001</ele><time>2026-03-28T09:16:23.762Z</time></trkpt><trkpt lat="45.3919598" lon="10.6121204"><ele>94.2</ele><time>2026-03-28T09:16:24.764Z</time></trkpt><trkpt lat="45.3918529" lon="10.612143"><ele>94.6</ele><time>2026-03-28T09:16:25.762Z</time></trkpt><trkpt lat="45.3917403" lon="10.6121688"><ele>95.0</ele><time>2026-03-28T09:16:26.763Z</time></trkpt><trkpt lat="45.3916134" lon="10.6121992"><ele>95.0</ele><time>2026-03-28T09:16:27.762Z</time></trkpt><trkpt lat="45.3914783" lon="10.6122318"><ele>95.0</ele><time>2026-03-28T09:16:28.763Z</time></trkpt><trkpt lat="45.3913441" lon="10.6122546"><ele>95.0</ele><time>2026-03-28T09:16:29.762Z</time></trkpt><trkpt lat="45.3912054" lon="10.6122722"><ele>95.0</ele><time>2026-03-28T09:16:30.762Z</time></trkpt><trkpt lat="45.3910623" lon="10.6122746"><ele>95.5</ele><time>2026-03-28T09:16:31.762Z</time></trkpt><trkpt lat="45.3909262" lon="10.6122475"><ele>96.0</ele><time>2026-03-28T09:16:32.763Z</time></trkpt><trkpt lat="45.3907981" lon="10.6121928"><ele>96.5</ele><time>2026-03-28T09:16:33.762Z</time></trkpt><trkpt lat="45.3906774" lon="10.612129"><ele>97.0</ele><time>2026-03-28T09:16:34.763Z</time></trkpt><trkpt lat="45.3905576" lon="10.6120683"><ele>97.0</ele><time>2026-03-28T09:16:35.762Z</time></trkpt><trkpt lat="45.3904341" lon="10.6120015"><ele>97.0</ele><time>2026-03-28T09:16:36.763Z</time></trkpt><trkpt lat="45.3903019" lon="10.6119308"><ele>97.0</ele><time>2026-03-28T09:16:37.762Z</time></trkpt><trkpt lat="45.3901669" lon="10.6118583"><ele>97.0</ele><time>2026-03-28T09:16:38.763Z</time></trkpt><trkpt lat="45.3900272" lon="10.6117725"><ele>97.33333333333334</ele><time>2026-03-28T09:16:39.762Z</time></trkpt><trkpt lat="45.3898827" lon="10.6116817"><ele>97.66666666666666</ele><time>2026-03-28T09:16:40.762Z</time></trkpt><trkpt lat="45.389731" lon="10.6116047"><ele>98.0</ele><time>2026-03-28T09:16:41.762Z</time></trkpt><trkpt lat="45.3895783" lon="10.6115322"><ele>98.33333333333333</ele><time>2026-03-28T09:16:42.763Z</time></trkpt><trkpt lat="45.3894201" lon="10.6114564"><ele>98.66666666666666</ele><time>2026-03-28T09:16:43.763Z</time></trkpt><trkpt lat="45.3892566" lon="10.6113855"><ele>99.0</ele><time>2026-03-28T09:16:44.763Z</time></trkpt><trkpt lat="45.3890818" lon="10.6113362"><ele>99.0</ele><time>2026-03-28T09:16:45.763Z</time></trkpt><trkpt lat="45.3889012" lon="10.6113113"><ele>99.0</ele><time>2026-03-28T09:16:46.763Z</time></trkpt><trkpt lat="45.3887171" lon="10.6112895"><ele>99.0</ele><time>2026-03-28T09:16:47.762Z</time></trkpt><trkpt lat="45.3885307" lon="10.6112641"><ele>99.0</ele><time>2026-03-28T09:16:48.763Z</time></trkpt><trkpt lat="45.3883425" lon="10.6112366"><ele>99.0</ele><time>2026-03-28T09:16:49.763Z</time></trkpt><trkpt lat="45.3881515" lon="10.6112088"><ele>99.0</ele><time>2026-03-28T09:16:50.762Z</time></trkpt><trkpt lat="45.3879578" lon="10.6111843"><ele>99.0</ele><time>2026-03-28T09:16:51.762Z</time></trkpt><trkpt lat="45.3877633" lon="10.6111612"><ele>99.0</ele><time>2026-03-28T09:16:52.762Z</time></trkpt><trkpt lat="45.3875691" lon="10.6111401"><ele>99.0</ele><time>2026-03-28T09:16:53.763Z</time></trkpt><trkpt lat="45.3873742" lon="10.6111218"><ele>99.0</ele><time>2026-03-28T09:16:54.763Z</time></trkpt><trkpt lat="45.387179" lon="10.6111022"><ele>99.0</ele><time>2026-03-28T09:16:55.762Z</time></trkpt><trkpt lat="45.3869842" lon="10.6110755"><ele>99.0</ele><time>2026-03-28T09:16:56.763Z</time></trkpt><trkpt lat="45.3867897" lon="10.6110419"><ele>99.33333333333334</ele><time>2026-03-28T09:16:57.762Z</time></trkpt><trkpt lat="45.3865955" lon="10.6110097"><ele>99.66666666666667</ele><time>2026-03-28T09:16:58.762Z</time></trkpt><trkpt lat="45.3864023" lon="10.6109809"><ele>100.0</ele><time>2026-03-28T09:16:59.763Z</time></trkpt><trkpt lat="45.3862187" lon="10.610959"><ele>100.33333333333334</ele><time>2026-03-28T09:17:00.763Z</time></trkpt><trkpt lat="45.3860479" lon="10.6109655"><ele>100.66666666666666</ele><time>2026-03-28T09:17:01.763Z</time></trkpt><trkpt lat="45.385875" lon="10.6110283"><ele>101.0</ele><time>2026-03-28T09:17:02.762Z</time></trkpt><trkpt lat="45.3856997" lon="10.6111431"><ele>101.0</ele><time>2026-03-28T09:17:03.763Z</time></trkpt><trkpt lat="45.3855287" lon="10.6113057"><ele>101.0</ele><time>2026-03-28T09:17:04.762Z</time></trkpt><trkpt lat="45.3853494" lon="10.6114969"><ele>101.0</ele><time>2026-03-28T09:17:05.762Z</time></trkpt><trkpt lat="45.3851406" lon="10.6116845"><ele>102.0</ele><time>2026-03-28T09:17:06.762Z</time></trkpt><trkpt lat="45.3848953" lon="10.6118422"><ele>103.0</ele><time>2026-03-28T09:17:07.763Z</time></trkpt><trkpt lat="45.3846507" lon="10.6119726"><ele>104.0</ele><time>2026-03-28T09:17:08.762Z</time></trkpt><trkpt lat="45.3844224" lon="10.6120936"><ele>105.0</ele><time>2026-03-28T09:17:09.763Z</time></trkpt><trkpt lat="45.384201" lon="10.6122119"><ele>105.0</ele><time>2026-03-28T09:17:10.763Z</time></trkpt><trkpt lat="45.3839862" lon="10.6123235"><ele>105.0</ele><time>2026-03-28T09:17:11.763Z</time></trkpt><trkpt lat="45.3837834" lon="10.6124284"><ele>105.0</ele><time>2026-03-28T09:17:12.763Z</time></trkpt><trkpt lat="45.3835928" lon="10.6125378"><ele>104.33333333333334</ele><time>2026-03-28T09:17:13.762Z</time></trkpt><trkpt lat="45.3834075" lon="10.6126773"><ele>103.66666666666667</ele><time>2026-03-28T09:17:14.763Z</time></trkpt><trkpt lat="45.3832304" lon="10.6128409"><ele>103.0</ele><time>2026-03-28T09:17:15.763Z</time></trkpt><trkpt lat="45.3830607" lon="10.613015"><ele>103.0</ele><time>2026-03-28T09:17:16.762Z</time></trkpt><trkpt lat="45.3829078" lon="10.613185"><ele>103.0</ele><time>2026-03-28T09:17:17.763Z</time></trkpt><trkpt lat="45.3827728" lon="10.6133556"><ele>103.0</ele><time>2026-03-28T09:17:18.762Z</time></trkpt><trkpt lat="45.3826498" lon="10.6135214"><ele>102.66666666666667</ele><time>2026-03-28T09:17:19.763Z</time></trkpt><trkpt lat="45.3825322" lon="10.6136837"><ele>102.33333333333334</ele><time>2026-03-28T09:17:20.762Z</time></trkpt><trkpt lat="45.3824153" lon="10.6138426"><ele>102.0</ele><time>2026-03-28T09:17:21.763Z</time></trkpt><trkpt lat="45.3822955" lon="10.613996"><ele>102.0</ele><time>2026-03-28T09:17:22.762Z</time></trkpt><trkpt lat="45.3821829" lon="10.6141389"><ele>102.0</ele><time>2026-03-28T09:17:23.763Z</time></trkpt><trkpt lat="45.3820904" lon="10.6142556"><ele>102.0</ele><time>2026-03-28T09:17:24.762Z</time></trkpt><trkpt lat="45.3820192" lon="10.6143471"><ele>102.0</ele><time>2026-03-28T09:17:25.762Z</time></trkpt><trkpt lat="45.3819822" lon="10.6144292"><ele>102.0</ele><time>2026-03-28T09:17:26.763Z</time></trkpt><trkpt lat="45.3819948" lon="10.6146318"><ele>102.19999999999999</ele><time>2026-03-28T09:17:28.762Z</time></trkpt><trkpt lat="45.3819968" lon="10.6147658"><ele>102.4</ele><time>2026-03-28T09:17:29.762Z</time></trkpt><trkpt lat="45.3819884" lon="10.6149079"><ele>102.6</ele><time>2026-03-28T09:17:30.763Z</time></trkpt><trkpt lat="45.3819813" lon="10.6150554"><ele>102.80000000000001</ele><time>2026-03-28T09:17:31.762Z</time></trkpt><trkpt lat="45.3819819" lon="10.6152121"><ele>103.0</ele><time>2026-03-28T09:17:32.763Z</time></trkpt><trkpt lat="45.381978" lon="10.6154022"><ele>103.33333333333334</ele><time>2026-03-28T09:17:33.763Z</time></trkpt><trkpt lat="45.3819756" lon="10.6156161"><ele>103.66666666666666</ele><time>2026-03-28T09:17:34.763Z</time></trkpt><trkpt lat="45.3819756" lon="10.6158608"><ele>104.0</ele><time>2026-03-28T09:17:35.762Z</time></trkpt><trkpt lat="45.3819736" lon="10.6161304"><ele>103.66666666666666</ele><time>2026-03-28T09:17:36.763Z</time></trkpt><trkpt lat="45.3819687" lon="10.6164082"><ele>103.33333333333334</ele><time>2026-03-28T09:17:37.763Z</time></trkpt><trkpt lat="45.3819633" lon="10.6166564"><ele>103.0</ele><time>2026-03-28T09:17:38.762Z</time></trkpt><trkpt lat="45.3819571" lon="10.6168785"><ele>102.25</ele><time>2026-03-28T09:17:39.762Z</time></trkpt><trkpt lat="45.3819557" lon="10.6170813"><ele>101.5</ele><time>2026-03-28T09:17:40.763Z</time></trkpt><trkpt lat="45.3819536" lon="10.6172594"><ele>100.75</ele><time>2026-03-28T09:17:41.763Z</time></trkpt><trkpt lat="45.381948" lon="10.6174214"><ele>100.0</ele><time>2026-03-28T09:17:42.763Z</time></trkpt><trkpt lat="45.3819474" lon="10.6175673"><ele>100.0</ele><time>2026-03-28T09:17:43.762Z</time></trkpt><trkpt lat="45.3819493" lon="10.6177026"><ele>100.0</ele><time>2026-03-28T09:17:44.763Z</time></trkpt><trkpt lat="45.3819571" lon="10.6178429"><ele>100.0</ele><time>2026-03-28T09:17:45.762Z</time></trkpt><trkpt lat="45.3819834" lon="10.6179909"><ele>100.0</ele><time>2026-03-28T09:17:46.762Z</time></trkpt><trkpt lat="45.3820116" lon="10.6181525"><ele>100.0</ele><time>2026-03-28T09:17:47.763Z</time></trkpt><trkpt lat="45.3820252" lon="10.6183133"><ele>100.5</ele><time>2026-03-28T09:17:48.762Z</time></trkpt><trkpt lat="45.3820327" lon="10.618459"><ele>101.0</ele><time>2026-03-28T09:17:49.762Z</time></trkpt><trkpt lat="45.3820488" lon="10.6186168"><ele>101.5</ele><time>2026-03-28T09:17:50.764Z</time></trkpt><trkpt lat="45.3820855" lon="10.6187978"><ele>102.0</ele><time>2026-03-28T09:17:51.762Z</time></trkpt><trkpt lat="45.3821153" lon="10.6189824"><ele>102.39999999999999</ele><time>2026-03-28T09:17:52.762Z</time></trkpt><trkpt lat="45.3821336" lon="10.6191395"><ele>102.8</ele><time>2026-03-28T09:17:53.762Z</time></trkpt><trkpt lat="45.3821444" lon="10.6192821"><ele>103.2</ele><time>2026-03-28T09:17:54.762Z</time></trkpt><trkpt lat="45.3821114" lon="10.6194218"><ele>103.6</ele><time>2026-03-28T09:17:55.762Z</time></trkpt><trkpt lat="45.3820826" lon="10.6195862"><ele>104.0</ele><time>2026-03-28T09:17:56.763Z</time></trkpt><trkpt lat="45.3820421" lon="10.6197675"><ele>104.0</ele><time>2026-03-28T09:17:57.764Z</time></trkpt><trkpt lat="45.3819888" lon="10.6199562"><ele>104.0</ele><time>2026-03-28T09:17:58.762Z</time></trkpt><trkpt lat="45.381936" lon="10.6201297"><ele>104.0</ele><time>2026-03-28T09:17:59.762Z</time></trkpt><trkpt lat="45.3818835" lon="10.6202869"><ele>104.0</ele><time>2026-03-28T09:18:00.763Z</time></trkpt><trkpt lat="45.3818388" lon="10.6204184"><ele>103.4</ele><time>2026-03-28T09:18:01.762Z</time></trkpt><trkpt lat="45.3818077" lon="10.6205459"><ele>102.80000000000001</ele><time>2026-03-28T09:18:02.763Z</time></trkpt><trkpt lat="45.3817947" lon="10.6206686"><ele>102.19999999999999</ele><time>2026-03-28T09:18:03.763Z</time></trkpt><trkpt lat="45.3817817" lon="10.6208454"><ele>101.6</ele><time>2026-03-28T09:18:04.763Z</time></trkpt><trkpt lat="45.3817723" lon="10.6210414"><ele>101.0</ele><time>2026-03-28T09:18:05.762Z</time></trkpt><trkpt lat="45.3817675" lon="10.6212175"><ele>100.75</ele><time>2026-03-28T09:18:06.762Z</time></trkpt><trkpt lat="45.3817697" lon="10.6213938"><ele>100.5</ele><time>2026-03-28T09:18:07.763Z</time></trkpt><trkpt lat="45.3817694" lon="10.6215924"><ele>100.25</ele><time>2026-03-28T09:18:08.762Z</time></trkpt><trkpt lat="45.3817669" lon="10.6218052"><ele>100.0</ele><time>2026-03-28T09:18:09.762Z</time></trkpt><trkpt lat="45.3817556" lon="10.6220194"><ele>100.0</ele><time>2026-03-28T09:18:10.763Z</time></trkpt><trkpt lat="45.3817474" lon="10.6222126"><ele>100.0</ele><time>2026-03-28T09:18:11.762Z</time></trkpt><trkpt lat="45.3817369" lon="10.6223821"><ele>100.0</ele><time>2026-03-28T09:18:12.762Z</time></trkpt><trkpt lat="45.3817272" lon="10.6225552"><ele>100.0</ele><time>2026-03-28T09:18:13.762Z</time></trkpt><trkpt lat="45.3817051" lon="10.6227488"><ele>100.0</ele><time>2026-03-28T09:18:14.762Z</time></trkpt><trkpt lat="45.3816842" lon="10.6229299"><ele>100.0</ele><time>2026-03-28T09:18:15.763Z</time></trkpt><trkpt lat="45.3816749" lon="10.6230817"><ele>100.0</ele><time>2026-03-28T09:18:16.763Z</time></trkpt><trkpt lat="45.3816817" lon="10.6232216"><ele>100.0</ele><time>2026-03-28T09:18:17.763Z</time></trkpt><trkpt lat="45.3817045" lon="10.6233734"><ele>100.0</ele><time>2026-03-28T09:18:18.762Z</time></trkpt><trkpt lat="45.3817117" lon="10.6235414"><ele>100.33333333333334</ele><time>2026-03-28T09:18:19.763Z</time></trkpt><trkpt lat="45.3817043" lon="10.6237411"><ele>100.66666666666666</ele><time>2026-03-28T09:18:20.762Z</time></trkpt><trkpt lat="45.3816844" lon="10.6239663"><ele>101.0</ele><time>2026-03-28T09:18:21.762Z</time></trkpt><trkpt lat="45.3816649" lon="10.6242151"><ele>101.0</ele><time>2026-03-28T09:18:22.762Z</time></trkpt><trkpt lat="45.3816515" lon="10.624478"><ele>101.0</ele><time>2026-03-28T09:18:23.763Z</time></trkpt><trkpt lat="45.381642" lon="10.6247319"><ele>101.0</ele><time>2026-03-28T09:18:24.762Z</time></trkpt><trkpt lat="45.3816283" lon="10.6249739"><ele>100.66666666666666</ele><time>2026-03-28T09:18:25.763Z</time></trkpt><trkpt lat="45.3816012" lon="10.6252264"><ele>100.33333333333334</ele><time>2026-03-28T09:18:26.762Z</time></trkpt><trkpt lat="45.3815724" lon="10.6254711"><ele>100.0</ele><time>2026-03-28T09:18:27.762Z</time></trkpt><trkpt lat="45.3815444" lon="10.6257084"><ele>100.0</ele><time>2026-03-28T09:18:28.763Z</time></trkpt><trkpt lat="45.3815132" lon="10.6259551"><ele>100.0</ele><time>2026-03-28T09:18:29.762Z</time></trkpt><trkpt lat="45.3814737" lon="10.6262195"><ele>100.0</ele><time>2026-03-28T09:18:30.762Z</time></trkpt><trkpt lat="45.381434" lon="10.6264849"><ele>100.33333333333334</ele><time>2026-03-28T09:18:31.763Z</time></trkpt><trkpt lat="45.3813986" lon="10.6267185"><ele>100.66666666666666</ele><time>2026-03-28T09:18:32.763Z</time></trkpt><trkpt lat="45.3813642" lon="10.6269409"><ele>101.0</ele><time>2026-03-28T09:18:33.762Z</time></trkpt><trkpt lat="45.3813363" lon="10.6271387"><ele>100.8</ele><time>2026-03-28T09:18:34.762Z</time></trkpt><trkpt lat="45.3813131" lon="10.6273228"><ele>100.6</ele><time>2026-03-28T09:18:35.763Z</time></trkpt><trkpt lat="45.3812923" lon="10.6274871"><ele>100.4</ele><time>2026-03-28T09:18:36.763Z</time></trkpt><trkpt lat="45.3812773" lon="10.6276241"><ele>100.2</ele><time>2026-03-28T09:18:37.762Z</time></trkpt><trkpt lat="45.3812572" lon="10.6277313"><ele>100.0</ele><time>2026-03-28T09:18:38.763Z</time></trkpt><trkpt lat="45.3811882" lon="10.6278402"><ele>100.0</ele><time>2026-03-28T09:18:40.763Z</time></trkpt><trkpt lat="45.3810589" lon="10.627888"><ele>100.0</ele><time>2026-03-28T09:18:42.763Z</time></trkpt><trkpt lat="45.3809689" lon="10.6279293"><ele>100.0</ele><time>2026-03-28T09:18:43.762Z</time></trkpt><trkpt lat="45.3808636" lon="10.6279781"><ele>100.0</ele><time>2026-03-28T09:18:44.762Z</time></trkpt><trkpt lat="45.3807298" lon="10.6280361"><ele>100.0</ele><time>2026-03-28T09:18:45.763Z</time></trkpt><trkpt lat="45.3805878" lon="10.6281021"><ele>100.0</ele><time>2026-03-28T09:18:46.762Z</time></trkpt><trkpt lat="45.3804529" lon="10.6281874"><ele>100.0</ele><time>2026-03-28T09:18:47.762Z</time></trkpt><trkpt lat="45.3803356" lon="10.6282911"><ele>100.0</ele><time>2026-03-28T09:18:48.763Z</time></trkpt><trkpt lat="45.3802348" lon="10.6283904"><ele>101.6</ele><time>2026-03-28T09:18:49.763Z</time></trkpt><trkpt lat="45.3801425" lon="10.6284679"><ele>103.2</ele><time>2026-03-28T09:18:50.762Z</time></trkpt><trkpt lat="45.3800392" lon="10.6285225"><ele>104.80000000000001</ele><time>2026-03-28T09:18:51.763Z</time></trkpt><trkpt lat="45.3799334" lon="10.6285321"><ele>106.4</ele><time>2026-03-28T09:18:52.763Z</time></trkpt><trkpt lat="45.3798178" lon="10.6285125"><ele>108.0</ele><time>2026-03-28T09:18:53.762Z</time></trkpt><trkpt lat="45.3796915" lon="10.6284751"><ele>108.5</ele><time>2026-03-28T09:18:54.763Z</time></trkpt><trkpt lat="45.3795647" lon="10.6284302"><ele>109.0</ele><time>2026-03-28T09:18:55.762Z</time></trkpt><trkpt lat="45.3794368" lon="10.6284082"><ele>109.5</ele><time>2026-03-28T09:18:56.763Z</time></trkpt><trkpt lat="45.3793355" lon="10.6284047"><ele>110.0</ele><time>2026-03-28T09:18:57.763Z</time></trkpt><trkpt lat="45.3792421" lon="10.6284281"><ele>110.0</ele><time>2026-03-28T09:18:58.762Z</time></trkpt><trkpt lat="45.3791214" lon="10.6284542"><ele>110.0</ele><time>2026-03-28T09:18:59.763Z</time></trkpt><trkpt lat="45.37897" lon="10.6284837"><ele>110.0</ele><time>2026-03-28T09:19:00.762Z</time></trkpt><trkpt lat="45.3788275" lon="10.6285216"><ele>110.0</ele><time>2026-03-28T09:19:01.763Z</time></trkpt><trkpt lat="45.3786939" lon="10.6285799"><ele>108.33333333333333</ele><time>2026-03-28T09:19:02.762Z</time></trkpt><trkpt lat="45.3785553" lon="10.6286379"><ele>106.66666666666666</ele><time>2026-03-28T09:19:03.762Z</time></trkpt><trkpt lat="45.3784042" lon="10.6287833"><ele>105.0</ele><time>2026-03-28T09:19:04.762Z</time></trkpt><trkpt lat="45.3782519" lon="10.6289199"><ele>105.0</ele><time>2026-03-28T09:19:05.763Z</time></trkpt><trkpt lat="45.378089" lon="10.6290744"><ele>105.0</ele><time>2026-03-28T09:19:06.763Z</time></trkpt><trkpt lat="45.3779469" lon="10.6292034"><ele>105.0</ele><time>2026-03-28T09:19:07.763Z</time></trkpt><trkpt lat="45.377831" lon="10.6293362"><ele>105.25</ele><time>2026-03-28T09:19:08.762Z</time></trkpt><trkpt lat="45.3777278" lon="10.6294816"><ele>105.5</ele><time>2026-03-28T09:19:09.762Z</time></trkpt><trkpt lat="45.3776341" lon="10.6296246"><ele>105.75</ele><time>2026-03-28T09:19:10.763Z</time></trkpt><trkpt lat="45.3775515" lon="10.6297541"><ele>106.0</ele><time>2026-03-28T09:19:11.763Z</time></trkpt><trkpt lat="45.3774708" lon="10.6298854"><ele>106.0</ele><time>2026-03-28T09:19:12.762Z</time></trkpt><trkpt lat="45.3773962" lon="10.630005"><ele>106.0</ele><time>2026-03-28T09:19:13.763Z</time></trkpt><trkpt lat="45.377319" lon="10.6301113"><ele>106.0</ele><time>2026-03-28T09:19:14.762Z</time></trkpt><trkpt lat="45.377232" lon="10.6302082"><ele>106.0</ele><time>2026-03-28T09:19:15.763Z</time></trkpt><trkpt lat="45.3771417" lon="10.6302634"><ele>106.0</ele><time>2026-03-28T09:19:16.762Z</time></trkpt><trkpt lat="45.3770282" lon="10.6302969"><ele>107.19999999999999</ele><time>2026-03-28T09:19:17.763Z</time></trkpt><trkpt lat="45.3768963" lon="10.6303295"><ele>108.39999999999999</ele><time>2026-03-28T09:19:18.763Z</time></trkpt><trkpt lat="45.3767881" lon="10.6303667"><ele>109.6</ele><time>2026-03-28T09:19:19.762Z</time></trkpt><trkpt lat="45.3766923" lon="10.6304266"><ele>110.8</ele><time>2026-03-28T09:19:20.762Z</time></trkpt><trkpt lat="45.3766156" lon="10.6305093"><ele>112.0</ele><time>2026-03-28T09:19:21.763Z</time></trkpt><trkpt lat="45.3765417" lon="10.6306251"><ele>112.0</ele><time>2026-03-28T09:19:22.762Z</time></trkpt><trkpt lat="45.3764673" lon="10.6307897"><ele>112.0</ele><time>2026-03-28T09:19:23.762Z</time></trkpt><trkpt lat="45.3763928" lon="10.6310039"><ele>112.0</ele><time>2026-03-28T09:19:24.763Z</time></trkpt><trkpt lat="45.3763203" lon="10.6312349"><ele>117.33333333333334</ele><time>2026-03-28T09:19:25.762Z</time></trkpt><trkpt lat="45.3762567" lon="10.6314629"><ele>122.66666666666666</ele><time>2026-03-28T09:19:26.763Z</time></trkpt><trkpt lat="45.3761958" lon="10.631677"><ele>128.0</ele><time>2026-03-28T09:19:27.762Z</time></trkpt><trkpt lat="45.3761396" lon="10.6318795"><ele>126.0</ele><time>2026-03-28T09:19:28.763Z</time></trkpt><trkpt lat="45.3760882" lon="10.6320725"><ele>124.0</ele><time>2026-03-28T09:19:29.762Z</time></trkpt><trkpt lat="45.3760462" lon="10.6322615"><ele>122.0</ele><time>2026-03-28T09:19:30.763Z</time></trkpt><trkpt lat="45.3760134" lon="10.6324464"><ele>120.0</ele><time>2026-03-28T09:19:31.763Z</time></trkpt><trkpt lat="45.3759887" lon="10.6326264"><ele>120.0</ele><time>2026-03-28T09:19:32.763Z</time></trkpt><trkpt lat="45.3759666" lon="10.6328005"><ele>120.0</ele><time>2026-03-28T09:19:33.762Z</time></trkpt><trkpt lat="45.37595" lon="10.6329692"><ele>120.0</ele><time>2026-03-28T09:19:34.763Z</time></trkpt><trkpt lat="45.3759395" lon="10.6331294"><ele>120.0</ele><time>2026-03-28T09:19:35.763Z</time></trkpt><trkpt lat="45.3759307" lon="10.6332746"><ele>118.2</ele><time>2026-03-28T09:19:36.762Z</time></trkpt><trkpt lat="45.3759122" lon="10.6334105"><ele>116.4</ele><time>2026-03-28T09:19:37.763Z</time></trkpt><trkpt lat="45.3758917" lon="10.6335387"><ele>114.6</ele><time>2026-03-28T09:19:38.762Z</time></trkpt><trkpt lat="45.3758735" lon="10.6336541"><ele>112.8</ele><time>2026-03-28T09:19:39.763Z</time></trkpt><trkpt lat="45.3758739" lon="10.633756"><ele>111.0</ele><time>2026-03-28T09:19:40.763Z</time></trkpt><trkpt lat="45.3759225" lon="10.6339042"><ele>110.4</ele><time>2026-03-28T09:19:42.763Z</time></trkpt><trkpt lat="45.3759656" lon="10.633981"><ele>109.8</ele><time>2026-03-28T09:19:43.763Z</time></trkpt><trkpt lat="45.3760208" lon="10.6340791"><ele>109.20000000000002</ele><time>2026-03-28T09:19:44.763Z</time></trkpt><trkpt lat="45.3760954" lon="10.6341822"><ele>108.60000000000001</ele><time>2026-03-28T09:19:45.763Z</time></trkpt><trkpt lat="45.3761789" lon="10.6342715"><ele>108.0</ele><time>2026-03-28T09:19:46.762Z</time></trkpt><trkpt lat="45.3762554" lon="10.6343568"><ele>108.0</ele><time>2026-03-28T09:19:47.762Z</time></trkpt><trkpt lat="45.376323" lon="10.6344466"><ele>108.00000000000001</ele><time>2026-03-28T09:19:48.763Z</time></trkpt><trkpt lat="45.3763779" lon="10.6345441"><ele>108.00000000000001</ele><time>2026-03-28T09:19:49.762Z</time></trkpt><trkpt lat="45.3764235" lon="10.6346672"><ele>108.0</ele><time>2026-03-28T09:19:50.763Z</time></trkpt><trkpt lat="45.3764689" lon="10.6348183"><ele>108.0</ele><time>2026-03-28T09:19:51.762Z</time></trkpt><trkpt lat="45.3765103" lon="10.634981"><ele>107.60000000000001</ele><time>2026-03-28T09:19:52.763Z</time></trkpt><trkpt lat="45.3765524" lon="10.6351244"><ele>107.20000000000002</ele><time>2026-03-28T09:19:53.762Z</time></trkpt><trkpt lat="45.3765729" lon="10.6352556"><ele>106.8</ele><time>2026-03-28T09:19:54.763Z</time></trkpt><trkpt lat="45.3765762" lon="10.6353593"><ele>106.4</ele><time>2026-03-28T09:19:55.762Z</time></trkpt><trkpt lat="45.3765501" lon="10.6354829"><ele>106.0</ele><time>2026-03-28T09:19:57.762Z</time></trkpt><trkpt lat="45.3764907" lon="10.6356564"><ele>107.33333333333334</ele><time>2026-03-28T09:19:59.762Z</time></trkpt><trkpt lat="45.3764625" lon="10.6357475"><ele>108.66666666666667</ele><time>2026-03-28T09:20:00.762Z</time></trkpt><trkpt lat="45.3764215" lon="10.6358327"><ele>110.0</ele><time>2026-03-28T09:20:02.763Z</time></trkpt><trkpt lat="45.3763498" lon="10.6358367"><ele>111.33333333333334</ele><time>2026-03-28T09:20:07.762Z</time></trkpt><trkpt lat="45.3762941" lon="10.6357848"><ele>112.66666666666667</ele><time>2026-03-28T09:20:08.762Z</time></trkpt><trkpt lat="45.3762262" lon="10.6357097"><ele>114.0</ele><time>2026-03-28T09:20:09.762Z</time></trkpt><trkpt lat="45.3761354" lon="10.6356326"><ele>114.4</ele><time>2026-03-28T09:20:10.764Z</time></trkpt><trkpt lat="45.3760426" lon="10.6355562"><ele>114.80000000000001</ele><time>2026-03-28T09:20:11.763Z</time></trkpt><trkpt lat="45.3759568" lon="10.6354846"><ele>115.19999999999999</ele><time>2026-03-28T09:20:12.763Z</time></trkpt><trkpt lat="45.3758731" lon="10.6354267"><ele>115.6</ele><time>2026-03-28T09:20:13.763Z</time></trkpt><trkpt lat="45.3757892" lon="10.6353838"><ele>116.0</ele><time>2026-03-28T09:20:14.763Z</time></trkpt><trkpt lat="45.3757054" lon="10.6353563"><ele>115.99999999999999</ele><time>2026-03-28T09:20:15.762Z</time></trkpt><trkpt lat="45.3756246" lon="10.6353419"><ele>116.0</ele><time>2026-03-28T09:20:16.762Z</time></trkpt><trkpt lat="45.3755456" lon="10.6353413"><ele>116.0</ele><time>2026-03-28T09:20:17.763Z</time></trkpt><trkpt lat="45.3754657" lon="10.6353682"><ele>116.0</ele><time>2026-03-28T09:20:18.762Z</time></trkpt><trkpt lat="45.3753841" lon="10.6354186"><ele>115.99999999999999</ele><time>2026-03-28T09:20:19.762Z</time></trkpt><trkpt lat="45.3753108" lon="10.6354841"><ele>116.0</ele><time>2026-03-28T09:20:20.762Z</time></trkpt><trkpt lat="45.3752465" lon="10.6355628"><ele>115.33333333333333</ele><time>2026-03-28T09:20:21.763Z</time></trkpt><trkpt lat="45.3751885" lon="10.6356421"><ele>114.66666666666666</ele><time>2026-03-28T09:20:22.762Z</time></trkpt><trkpt lat="45.3751396" lon="10.6357098"><ele>114.0</ele><time>2026-03-28T09:20:23.762Z</time></trkpt><trkpt lat="45.3750831" lon="10.635773"><ele>113.33333333333334</ele><time>2026-03-28T09:20:25.762Z</time></trkpt><trkpt lat="45.3750143" lon="10.6358476"><ele>112.66666666666667</ele><time>2026-03-28T09:20:32.763Z</time></trkpt><trkpt lat="45.374951" lon="10.6359001"><ele>112.0</ele><time>2026-03-28T09:20:34.762Z</time></trkpt><trkpt lat="45.3748874" lon="10.6360047"><ele>112.0</ele><time>2026-03-28T09:20:47.762Z</time></trkpt><trkpt lat="45.3748435" lon="10.6360729"><ele>112.0</ele><time>2026-03-28T09:20:48.762Z</time></trkpt><trkpt lat="45.3747856" lon="10.6361458"><ele>112.0</ele><time>2026-03-28T09:20:49.763Z</time></trkpt><trkpt lat="45.3747187" lon="10.6362104"><ele>112.0</ele><time>2026-03-28T09:20:50.762Z</time></trkpt><trkpt lat="45.3746533" lon="10.6362742"><ele>112.0</ele><time>2026-03-28T09:20:51.763Z</time></trkpt><trkpt lat="45.3745944" lon="10.6363349"><ele>112.0</ele><time>2026-03-28T09:20:52.763Z</time></trkpt><trkpt lat="45.3745403" lon="10.6363873"><ele>112.0</ele><time>2026-03-28T09:20:53.762Z</time></trkpt><trkpt lat="45.3744888" lon="10.6364396"><ele>111.6</ele><time>2026-03-28T09:20:54.763Z</time></trkpt><trkpt lat="45.3744492" lon="10.6365763"><ele>111.19999999999999</ele><time>2026-03-28T09:20:56.762Z</time></trkpt><trkpt lat="45.3744968" lon="10.6367387"><ele>110.8</ele><time>2026-03-28T09:20:58.762Z</time></trkpt><trkpt lat="45.3745315" lon="10.6368514"><ele>110.4</ele><time>2026-03-28T09:20:59.762Z</time></trkpt><trkpt lat="45.3745657" lon="10.6369876"><ele>110.0</ele><time>2026-03-28T09:21:00.763Z</time></trkpt><trkpt lat="45.3745977" lon="10.6371388"><ele>110.0</ele><time>2026-03-28T09:21:01.763Z</time></trkpt><trkpt lat="45.3746154" lon="10.6372958"><ele>110.0</ele><time>2026-03-28T09:21:02.762Z</time></trkpt><trkpt lat="45.3746074" lon="10.637441"><ele>110.0</ele><time>2026-03-28T09:21:03.762Z</time></trkpt><trkpt lat="45.3746055" lon="10.6375778"><ele>110.0</ele><time>2026-03-28T09:21:04.762Z</time></trkpt><trkpt lat="45.3746136" lon="10.6376975"><ele>110.0</ele><time>2026-03-28T09:21:05.763Z</time></trkpt><trkpt lat="45.3746298" lon="10.6378185"><ele>110.4</ele><time>2026-03-28T09:21:06.762Z</time></trkpt><trkpt lat="45.3746494" lon="10.6379483"><ele>110.8</ele><time>2026-03-28T09:21:07.762Z</time></trkpt><trkpt lat="45.3746717" lon="10.6380839"><ele>111.19999999999999</ele><time>2026-03-28T09:21:08.763Z</time></trkpt><trkpt lat="45.3746991" lon="10.6382183"><ele>111.6</ele><time>2026-03-28T09:21:09.762Z</time></trkpt><trkpt lat="45.374716" lon="10.6383179"><ele>112.0</ele><time>2026-03-28T09:21:10.762Z</time></trkpt><trkpt lat="45.374742" lon="10.6384568"><ele>112.83333333333334</ele><time>2026-03-28T09:21:12.762Z</time></trkpt><trkpt lat="45.374761" lon="10.6385524"><ele>113.66666666666667</ele><time>2026-03-28T09:21:14.762Z</time></trkpt><trkpt lat="45.374782" lon="10.6386941"><ele>114.5</ele><time>2026-03-28T09:21:16.762Z</time></trkpt><trkpt lat="45.374803" lon="10.6388511"><ele>115.33333333333334</ele><time>2026-03-28T09:21:18.762Z</time></trkpt><trkpt lat="45.3748162" lon="10.6389536"><ele>116.16666666666667</ele><time>2026-03-28T09:21:19.762Z</time></trkpt><trkpt lat="45.3748233" lon="10.6390846"><ele>117.0</ele><time>2026-03-28T09:21:20.762Z</time></trkpt><trkpt lat="45.3748273" lon="10.6392334"><ele>117.25</ele><time>2026-03-28T09:21:21.763Z</time></trkpt><trkpt lat="45.3748312" lon="10.6393846"><ele>117.5</ele><time>2026-03-28T09:21:22.763Z</time></trkpt><trkpt lat="45.3748486" lon="10.6395438"><ele>117.75</ele><time>2026-03-28T09:21:23.763Z</time></trkpt><trkpt lat="45.3748862" lon="10.6397113"><ele>118.0</ele><time>2026-03-28T09:21:24.763Z</time></trkpt><trkpt lat="45.3749354" lon="10.639879"><ele>118.0</ele><time>2026-03-28T09:21:25.762Z</time></trkpt><trkpt lat="45.3750024" lon="10.6400342"><ele>118.0</ele><time>2026-03-28T09:21:26.762Z</time></trkpt><trkpt lat="45.3750826" lon="10.6401785"><ele>118.0</ele><time>2026-03-28T09:21:27.763Z</time></trkpt><trkpt lat="45.3751613" lon="10.6403174"><ele>118.0</ele><time>2026-03-28T09:21:28.762Z</time></trkpt><trkpt lat="45.3752305" lon="10.6404557"><ele>117.0</ele><time>2026-03-28T09:21:29.762Z</time></trkpt><trkpt lat="45.37529" lon="10.640594"><ele>116.00000000000001</ele><time>2026-03-28T09:21:30.762Z</time></trkpt><trkpt lat="45.3753084" lon="10.6407427"><ele>115.00000000000001</ele><time>2026-03-28T09:21:31.763Z</time></trkpt><trkpt lat="45.3752951" lon="10.6408874"><ele>114.0</ele><time>2026-03-28T09:21:32.762Z</time></trkpt><trkpt lat="45.375252" lon="10.6410044"><ele>113.0</ele><time>2026-03-28T09:21:33.763Z</time></trkpt><trkpt lat="45.3751916" lon="10.6410714"><ele>113.0</ele><time>2026-03-28T09:21:34.762Z</time></trkpt><trkpt lat="45.3750956" lon="10.6411195"><ele>113.0</ele><time>2026-03-28T09:21:35.763Z</time></trkpt><trkpt lat="45.374957" lon="10.6411591"><ele>113.0</ele><time>2026-03-28T09:21:36.763Z</time></trkpt><trkpt lat="45.3747954" lon="10.6411866"><ele>113.0</ele><time>2026-03-28T09:21:37.763Z</time></trkpt><trkpt lat="45.3746298" lon="10.6411974"><ele>111.66666666666666</ele><time>2026-03-28T09:21:38.763Z</time></trkpt><trkpt lat="45.3744692" lon="10.6411947"><ele>110.33333333333334</ele><time>2026-03-28T09:21:39.762Z</time></trkpt><trkpt lat="45.3743166" lon="10.6412008"><ele>109.0</ele><time>2026-03-28T09:21:40.762Z</time></trkpt><trkpt lat="45.3741613" lon="10.6412096"><ele>109.0</ele><time>2026-03-28T09:21:41.763Z</time></trkpt><trkpt lat="45.3739962" lon="10.6412301"><ele>109.0</ele><time>2026-03-28T09:21:42.762Z</time></trkpt><trkpt lat="45.3738129" lon="10.6412967"><ele>109.0</ele><time>2026-03-28T09:21:43.763Z</time></trkpt><trkpt lat="45.3736228" lon="10.6414398"><ele>108.0</ele><time>2026-03-28T09:21:44.762Z</time></trkpt><trkpt lat="45.3734337" lon="10.6416141"><ele>107.0</ele><time>2026-03-28T09:21:45.763Z</time></trkpt><trkpt lat="45.3732645" lon="10.6417618"><ele>106.0</ele><time>2026-03-28T09:21:46.762Z</time></trkpt><trkpt lat="45.3731019" lon="10.6419047"><ele>106.0</ele><time>2026-03-28T09:21:47.762Z</time></trkpt><trkpt lat="45.3729524" lon="10.6420421"><ele>106.0</ele><time>2026-03-28T09:21:48.763Z</time></trkpt><trkpt lat="45.3728066" lon="10.6421548"><ele>106.0</ele><time>2026-03-28T09:21:49.762Z</time></trkpt><trkpt lat="45.3726442" lon="10.6422344"><ele>106.0</ele><time>2026-03-28T09:21:50.762Z</time></trkpt><trkpt lat="45.3724659" lon="10.6422825"><ele>106.0</ele><time>2026-03-28T09:21:51.763Z</time></trkpt><trkpt lat="45.3722831" lon="10.642322"><ele>106.0</ele><time>2026-03-28T09:21:52.763Z</time></trkpt><trkpt lat="45.3721015" lon="10.6423632"><ele>107.0</ele><time>2026-03-28T09:21:53.763Z</time></trkpt><trkpt lat="45.3719289" lon="10.642397"><ele>108.0</ele><time>2026-03-28T09:21:54.763Z</time></trkpt><trkpt lat="45.371766" lon="10.6424221"><ele>109.0</ele><time>2026-03-28T09:21:55.762Z</time></trkpt><trkpt lat="45.3716058" lon="10.6424501"><ele>109.0</ele><time>2026-03-28T09:21:56.762Z</time></trkpt><trkpt lat="45.371449" lon="10.6424842"><ele>109.0</ele><time>2026-03-28T09:21:57.763Z</time></trkpt><trkpt lat="45.3712957" lon="10.6425287"><ele>109.0</ele><time>2026-03-28T09:21:58.762Z</time></trkpt><trkpt lat="45.3711581" lon="10.6426222"><ele>108.66666666666667</ele><time>2026-03-28T09:21:59.762Z</time></trkpt><trkpt lat="45.3710417" lon="10.6427606"><ele>108.33333333333334</ele><time>2026-03-28T09:22:00.762Z</time></trkpt><trkpt lat="45.3709285" lon="10.6429095"><ele>108.0</ele><time>2026-03-28T09:22:01.762Z</time></trkpt><trkpt lat="45.3708125" lon="10.6430731"><ele>108.0</ele><time>2026-03-28T09:22:02.763Z</time></trkpt><trkpt lat="45.3706962" lon="10.6432463"><ele>108.0</ele><time>2026-03-28T09:22:03.763Z</time></trkpt><trkpt lat="45.3705633" lon="10.6434041"><ele>108.0</ele><time>2026-03-28T09:22:04.763Z</time></trkpt><trkpt lat="45.3704013" lon="10.6435083"><ele>108.33333333333334</ele><time>2026-03-28T09:22:05.762Z</time></trkpt><trkpt lat="45.3702144" lon="10.6435917"><ele>108.66666666666667</ele><time>2026-03-28T09:22:06.762Z</time></trkpt><trkpt lat="45.3700223" lon="10.6436679"><ele>109.0</ele><time>2026-03-28T09:22:07.763Z</time></trkpt><trkpt lat="45.3698266" lon="10.6437403"><ele>109.66666666666667</ele><time>2026-03-28T09:22:08.762Z</time></trkpt><trkpt lat="45.3696368" lon="10.6438169"><ele>110.33333333333334</ele><time>2026-03-28T09:22:09.762Z</time></trkpt><trkpt lat="45.3694531" lon="10.6439083"><ele>111.0</ele><time>2026-03-28T09:22:10.763Z</time></trkpt><trkpt lat="45.369271" lon="10.6440056"><ele>111.0</ele><time>2026-03-28T09:22:11.763Z</time></trkpt><trkpt lat="45.3690891" lon="10.6440997"><ele>111.0</ele><time>2026-03-28T09:22:12.762Z</time></trkpt><trkpt lat="45.3689164" lon="10.6441915"><ele>111.0</ele><time>2026-03-28T09:22:13.762Z</time></trkpt><trkpt lat="45.3687402" lon="10.6442442"><ele>110.66666666666666</ele><time>2026-03-28T09:22:14.762Z</time></trkpt><trkpt lat="45.3685565" lon="10.6442665"><ele>110.33333333333333</ele><time>2026-03-28T09:22:15.763Z</time></trkpt><trkpt lat="45.3683762" lon="10.6442832"><ele>110.0</ele><time>2026-03-28T09:22:16.762Z</time></trkpt><trkpt lat="45.3682052" lon="10.6443075"><ele>110.0</ele><time>2026-03-28T09:22:17.763Z</time></trkpt><trkpt lat="45.3680408" lon="10.6443176"><ele>110.0</ele><time>2026-03-28T09:22:18.763Z</time></trkpt><trkpt lat="45.3678832" lon="10.6442911"><ele>110.0</ele><time>2026-03-28T09:22:19.763Z</time></trkpt><trkpt lat="45.3677352" lon="10.6442398"><ele>110.0</ele><time>2026-03-28T09:22:20.762Z</time></trkpt><trkpt lat="45.3675902" lon="10.6441774"><ele>110.0</ele><time>2026-03-28T09:22:21.762Z</time></trkpt><trkpt lat="45.3674415" lon="10.6440959"><ele>110.0</ele><time>2026-03-28T09:22:22.762Z</time></trkpt><trkpt lat="45.3672997" lon="10.6439816"><ele>109.66666666666666</ele><time>2026-03-28T09:22:23.763Z</time></trkpt><trkpt lat="45.3671675" lon="10.6438425"><ele>109.33333333333334</ele><time>2026-03-28T09:22:24.763Z</time></trkpt><trkpt lat="45.3670362" lon="10.6436963"><ele>109.0</ele><time>2026-03-28T09:22:25.762Z</time></trkpt><trkpt lat="45.3669006" lon="10.6435538"><ele>108.33333333333334</ele><time>2026-03-28T09:22:26.763Z</time></trkpt><trkpt lat="45.3667606" lon="10.6434156"><ele>107.66666666666666</ele><time>2026-03-28T09:22:27.762Z</time></trkpt><trkpt lat="45.366607" lon="10.6433004"><ele>107.0</ele><time>2026-03-28T09:22:28.763Z</time></trkpt><trkpt lat="45.3664472" lon="10.643225"><ele>106.66666666666666</ele><time>2026-03-28T09:22:29.763Z</time></trkpt><trkpt lat="45.3662944" lon="10.6431801"><ele>106.33333333333334</ele><time>2026-03-28T09:22:30.763Z</time></trkpt><trkpt lat="45.366145" lon="10.6431876"><ele>106.0</ele><time>2026-03-28T09:22:31.763Z</time></trkpt><trkpt lat="45.3659976" lon="10.6432472"><ele>106.0</ele><time>2026-03-28T09:22:32.762Z</time></trkpt><trkpt lat="45.365862" lon="10.643357"><ele>106.0</ele><time>2026-03-28T09:22:33.762Z</time></trkpt><trkpt lat="45.3657415" lon="10.6434864"><ele>106.0</ele><time>2026-03-28T09:22:34.762Z</time></trkpt><trkpt lat="45.3656228" lon="10.6435979"><ele>106.0</ele><time>2026-03-28T09:22:35.762Z</time></trkpt><trkpt lat="45.3655022" lon="10.6436928"><ele>106.25</ele><time>2026-03-28T09:22:36.763Z</time></trkpt><trkpt lat="45.3653729" lon="10.6437878"><ele>106.5</ele><time>2026-03-28T09:22:37.763Z</time></trkpt><trkpt lat="45.365237" lon="10.6438646"><ele>106.75</ele><time>2026-03-28T09:22:38.763Z</time></trkpt><trkpt lat="45.3650941" lon="10.6439113"><ele>107.0</ele><time>2026-03-28T09:22:39.762Z</time></trkpt><trkpt lat="45.3649481" lon="10.6439262"><ele>107.0</ele><time>2026-03-28T09:22:40.762Z</time></trkpt><trkpt lat="45.3648033" lon="10.6439103"><ele>107.0</ele><time>2026-03-28T09:22:41.762Z</time></trkpt><trkpt lat="45.3646667" lon="10.643879"><ele>107.0</ele><time>2026-03-28T09:22:42.762Z</time></trkpt><trkpt lat="45.3645353" lon="10.643843"><ele>107.0</ele><time>2026-03-28T09:22:43.763Z</time></trkpt><trkpt lat="45.3643999" lon="10.6438037"><ele>107.25</ele><time>2026-03-28T09:22:44.762Z</time></trkpt><trkpt lat="45.3642649" lon="10.6437648"><ele>107.5</ele><time>2026-03-28T09:22:45.762Z</time></trkpt><trkpt lat="45.3641361" lon="10.643694"><ele>107.75</ele><time>2026-03-28T09:22:46.763Z</time></trkpt><trkpt lat="45.3640022" lon="10.6436625"><ele>108.0</ele><time>2026-03-28T09:22:47.763Z</time></trkpt><trkpt lat="45.36386" lon="10.6437002"><ele>109.66666666666666</ele><time>2026-03-28T09:22:48.763Z</time></trkpt><trkpt lat="45.3637199" lon="10.6437752"><ele>111.33333333333333</ele><time>2026-03-28T09:22:49.762Z</time></trkpt><trkpt lat="45.3635793" lon="10.6438616"><ele>113.0</ele><time>2026-03-28T09:22:50.763Z</time></trkpt><trkpt lat="45.363435" lon="10.6439599"><ele>113.0</ele><time>2026-03-28T09:22:51.763Z</time></trkpt><trkpt lat="45.3632891" lon="10.6440573"><ele>113.0</ele><time>2026-03-28T09:22:52.763Z</time></trkpt><trkpt lat="45.3631418" lon="10.6441507"><ele>113.0</ele><time>2026-03-28T09:22:53.762Z</time></trkpt><trkpt lat="45.3629908" lon="10.6442388"><ele>114.33333333333333</ele><time>2026-03-28T09:22:54.763Z</time></trkpt><trkpt lat="45.3628355" lon="10.6443194"><ele>115.66666666666666</ele><time>2026-03-28T09:22:55.762Z</time></trkpt><trkpt lat="45.362666" lon="10.6443761"><ele>117.0</ele><time>2026-03-28T09:22:56.762Z</time></trkpt><trkpt lat="45.3624835" lon="10.6443827"><ele>117.0</ele><time>2026-03-28T09:22:57.763Z</time></trkpt><trkpt lat="45.3623035" lon="10.6443833"><ele>117.0</ele><time>2026-03-28T09:22:58.762Z</time></trkpt><trkpt lat="45.3621396" lon="10.6443965"><ele>117.0</ele><time>2026-03-28T09:22:59.763Z</time></trkpt><trkpt lat="45.3619768" lon="10.6444413"><ele>121.0</ele><time>2026-03-28T09:23:00.763Z</time></trkpt><trkpt lat="45.36183" lon="10.6445419"><ele>125.0</ele><time>2026-03-28T09:23:01.762Z</time></trkpt><trkpt lat="45.3616965" lon="10.6446793"><ele>129.0</ele><time>2026-03-28T09:23:02.762Z</time></trkpt><trkpt lat="45.3615648" lon="10.6448204"><ele>129.0</ele><time>2026-03-28T09:23:03.762Z</time></trkpt><trkpt lat="45.3614336" lon="10.6449178"><ele>129.0</ele><time>2026-03-28T09:23:04.762Z</time></trkpt><trkpt lat="45.3613021" lon="10.6449823"><ele>129.0</ele><time>2026-03-28T09:23:05.763Z</time></trkpt><trkpt lat="45.3611697" lon="10.6450102"><ele>129.0</ele><time>2026-03-28T09:23:06.763Z</time></trkpt><trkpt lat="45.3610393" lon="10.645007"><ele>128.66666666666666</ele><time>2026-03-28T09:23:07.763Z</time></trkpt><trkpt lat="45.360906" lon="10.6449651"><ele>128.33333333333331</ele><time>2026-03-28T09:23:08.763Z</time></trkpt><trkpt lat="45.3607606" lon="10.6449026"><ele>128.0</ele><time>2026-03-28T09:23:09.762Z</time></trkpt><trkpt lat="45.360605" lon="10.6448381"><ele>125.66666666666666</ele><time>2026-03-28T09:23:10.762Z</time></trkpt><trkpt lat="45.3604388" lon="10.6447706"><ele>123.33333333333334</ele><time>2026-03-28T09:23:11.763Z</time></trkpt><trkpt lat="45.3602662" lon="10.6447053"><ele>121.0</ele><time>2026-03-28T09:23:12.762Z</time></trkpt><trkpt lat="45.3600807" lon="10.6446517"><ele>121.0</ele><time>2026-03-28T09:23:13.763Z</time></trkpt><trkpt lat="45.3598818" lon="10.6446051"><ele>121.0</ele><time>2026-03-28T09:23:14.763Z</time></trkpt><trkpt lat="45.3597035" lon="10.6445558"><ele>121.0</ele><time>2026-03-28T09:23:15.762Z</time></trkpt><trkpt lat="45.359534" lon="10.6445054"><ele>122.0</ele><time>2026-03-28T09:23:16.763Z</time></trkpt><trkpt lat="45.3593766" lon="10.6444574"><ele>123.0</ele><time>2026-03-28T09:23:17.762Z</time></trkpt><trkpt lat="45.3592176" lon="10.6444144"><ele>124.0</ele><time>2026-03-28T09:23:18.762Z</time></trkpt><trkpt lat="45.3590533" lon="10.6443723"><ele>124.0</ele><time>2026-03-28T09:23:19.762Z</time></trkpt><trkpt lat="45.3588825" lon="10.6443288"><ele>124.0</ele><time>2026-03-28T09:23:20.762Z</time></trkpt><trkpt lat="45.3587089" lon="10.6442922"><ele>124.0</ele><time>2026-03-28T09:23:21.763Z</time></trkpt><trkpt lat="45.3585487" lon="10.6442614"><ele>123.75</ele><time>2026-03-28T09:23:22.763Z</time></trkpt><trkpt lat="45.3583983" lon="10.6442327"><ele>123.5</ele><time>2026-03-28T09:23:23.763Z</time></trkpt><trkpt lat="45.3582649" lon="10.6442066"><ele>123.25</ele><time>2026-03-28T09:23:24.762Z</time></trkpt><trkpt lat="45.3581477" lon="10.6441726"><ele>123.0</ele><time>2026-03-28T09:23:25.763Z</time></trkpt><trkpt lat="45.3580514" lon="10.6441253"><ele>122.5</ele><time>2026-03-28T09:23:26.762Z</time></trkpt><trkpt lat="45.3579869" lon="10.6440775"><ele>122.0</ele><time>2026-03-28T09:23:27.763Z</time></trkpt><trkpt lat="45.3579165" lon="10.6440409"><ele>121.5</ele><time>2026-03-28T09:23:29.762Z</time></trkpt><trkpt lat="45.3578397" lon="10.6440455"><ele>121.0</ele><time>2026-03-28T09:23:33.763Z</time></trkpt><trkpt lat="45.357719" lon="10.6441112"><ele>120.5</ele><time>2026-03-28T09:23:36.763Z</time></trkpt><trkpt lat="45.3576438" lon="10.644156"><ele>120.0</ele><time>2026-03-28T09:23:37.763Z</time></trkpt><trkpt lat="45.3575482" lon="10.6441888"><ele>120.0</ele><time>2026-03-28T09:23:38.763Z</time></trkpt><trkpt lat="45.35744" lon="10.644192"><ele>120.0</ele><time>2026-03-28T09:23:39.762Z</time></trkpt><trkpt lat="45.357317" lon="10.6441797"><ele>120.0</ele><time>2026-03-28T09:23:40.762Z</time></trkpt><trkpt lat="45.3571821" lon="10.6441757"><ele>120.0</ele><time>2026-03-28T09:23:41.763Z</time></trkpt><trkpt lat="45.3570381" lon="10.6441758"><ele>119.66666666666666</ele><time>2026-03-28T09:23:42.763Z</time></trkpt><trkpt lat="45.3568855" lon="10.6441741"><ele>119.33333333333333</ele><time>2026-03-28T09:23:43.762Z</time></trkpt><trkpt lat="45.3567266" lon="10.6441686"><ele>119.0</ele><time>2026-03-28T09:23:44.763Z</time></trkpt><trkpt lat="45.3565641" lon="10.6441591"><ele>119.0</ele><time>2026-03-28T09:23:45.763Z</time></trkpt><trkpt lat="45.3563964" lon="10.644138"><ele>119.0</ele><time>2026-03-28T09:23:46.762Z</time></trkpt><trkpt lat="45.3562256" lon="10.6440922"><ele>119.0</ele><time>2026-03-28T09:23:47.762Z</time></trkpt><trkpt lat="45.3560604" lon="10.6440096"><ele>119.33333333333333</ele><time>2026-03-28T09:23:48.762Z</time></trkpt><trkpt lat="45.355895" lon="10.6439153"><ele>119.66666666666666</ele><time>2026-03-28T09:23:49.763Z</time></trkpt><trkpt lat="45.3557273" lon="10.6438247"><ele>120.0</ele><time>2026-03-28T09:23:50.762Z</time></trkpt><trkpt lat="45.3555685" lon="10.6437367"><ele>119.33333333333334</ele><time>2026-03-28T09:23:51.762Z</time></trkpt><trkpt lat="45.3554166" lon="10.6436467"><ele>118.66666666666667</ele><time>2026-03-28T09:23:52.762Z</time></trkpt><trkpt lat="45.3552695" lon="10.6435455"><ele>118.0</ele><time>2026-03-28T09:23:53.763Z</time></trkpt><trkpt lat="45.3551279" lon="10.6434791"><ele>118.0</ele><time>2026-03-28T09:23:54.763Z</time></trkpt><trkpt lat="45.3549726" lon="10.64347"><ele>118.0</ele><time>2026-03-28T09:23:55.762Z</time></trkpt><trkpt lat="45.3548125" lon="10.6435257"><ele>118.0</ele><time>2026-03-28T09:23:56.763Z</time></trkpt><trkpt lat="45.3546438" lon="10.6436233"><ele>115.66666666666667</ele><time>2026-03-28T09:23:57.762Z</time></trkpt><trkpt lat="45.3544702" lon="10.643747"><ele>113.33333333333334</ele><time>2026-03-28T09:23:58.762Z</time></trkpt><trkpt lat="45.3542868" lon="10.6438747"><ele>111.0</ele><time>2026-03-28T09:23:59.763Z</time></trkpt><trkpt lat="45.3541017" lon="10.6439956"><ele>111.0</ele><time>2026-03-28T09:24:00.762Z</time></trkpt><trkpt lat="45.3539187" lon="10.6441161"><ele>111.0</ele><time>2026-03-28T09:24:01.762Z</time></trkpt><trkpt lat="45.3537447" lon="10.6442352"><ele>111.0</ele><time>2026-03-28T09:24:02.763Z</time></trkpt><trkpt lat="45.3535747" lon="10.6443621"><ele>109.0</ele><time>2026-03-28T09:24:03.763Z</time></trkpt><trkpt lat="45.3534024" lon="10.6444944"><ele>107.0</ele><time>2026-03-28T09:24:04.762Z</time></trkpt><trkpt lat="45.3532316" lon="10.6446342"><ele>105.0</ele><time>2026-03-28T09:24:05.763Z</time></trkpt><trkpt lat="45.3530628" lon="10.6447797"><ele>106.66666666666666</ele><time>2026-03-28T09:24:06.762Z</time></trkpt><trkpt lat="45.3528961" lon="10.6449333"><ele>108.33333333333333</ele><time>2026-03-28T09:24:07.762Z</time></trkpt><trkpt lat="45.3527328" lon="10.6450893"><ele>110.0</ele><time>2026-03-28T09:24:08.762Z</time></trkpt><trkpt lat="45.3525791" lon="10.645232"><ele>109.66666666666666</ele><time>2026-03-28T09:24:09.763Z</time></trkpt><trkpt lat="45.3524297" lon="10.6453641"><ele>109.33333333333334</ele><time>2026-03-28T09:24:10.762Z</time></trkpt><trkpt lat="45.3522853" lon="10.6454945"><ele>109.0</ele><time>2026-03-28T09:24:11.762Z</time></trkpt><trkpt lat="45.3521559" lon="10.6456127"><ele>109.0</ele><time>2026-03-28T09:24:12.763Z</time></trkpt><trkpt lat="45.3520362" lon="10.6457101"><ele>109.0</ele><time>2026-03-28T09:24:13.762Z</time></trkpt><trkpt lat="45.3519284" lon="10.6457866"><ele>109.0</ele><time>2026-03-28T09:24:14.762Z</time></trkpt><trkpt lat="45.3518371" lon="10.6458517"><ele>109.0</ele><time>2026-03-28T09:24:15.763Z</time></trkpt><trkpt lat="45.3517533" lon="10.6458758"><ele>109.0</ele><time>2026-03-28T09:24:16.763Z</time></trkpt><trkpt lat="45.3516945" lon="10.6458377"><ele>109.0</ele><time>2026-03-28T09:24:17.762Z</time></trkpt><trkpt lat="45.3516651" lon="10.6456591"><ele>109.0</ele><time>2026-03-28T09:24:19.763Z</time></trkpt><trkpt lat="45.3516821" lon="10.6455252"><ele>109.0</ele><time>2026-03-28T09:24:20.762Z</time></trkpt><trkpt lat="45.3517114" lon="10.6453805"><ele>109.0</ele><time>2026-03-28T09:24:21.763Z</time></trkpt><trkpt lat="45.3517602" lon="10.645221"><ele>109.25</ele><time>2026-03-28T09:24:22.762Z</time></trkpt><trkpt lat="45.3518297" lon="10.6450605"><ele>109.5</ele><time>2026-03-28T09:24:23.763Z</time></trkpt><trkpt lat="45.3519166" lon="10.6448991"><ele>109.75</ele><time>2026-03-28T09:24:24.762Z</time></trkpt><trkpt lat="45.352014" lon="10.6447417"><ele>110.0</ele><time>2026-03-28T09:24:25.763Z</time></trkpt><trkpt lat="45.3520956" lon="10.6446048"><ele>109.99999999999999</ele><time>2026-03-28T09:24:26.762Z</time></trkpt><trkpt lat="45.352151" lon="10.6445084"><ele>110.0</ele><time>2026-03-28T09:24:27.763Z</time></trkpt><trkpt lat="45.3521966" lon="10.644437"><ele>110.0</ele><time>2026-03-28T09:24:28.763Z</time></trkpt><trkpt lat="45.3522486" lon="10.6443517"><ele>110.0</ele><time>2026-03-28T09:24:30.763Z</time></trkpt><trkpt lat="45.3522272" lon="10.6442436"><ele>109.99999999999999</ele><time>2026-03-28T09:24:37.762Z</time></trkpt><trkpt lat="45.3521685" lon="10.6442067"><ele>110.0</ele><time>2026-03-28T09:24:38.763Z</time></trkpt><trkpt lat="45.352082" lon="10.6441731"><ele>110.25</ele><time>2026-03-28T09:24:39.763Z</time></trkpt><trkpt lat="45.3519798" lon="10.6441209"><ele>110.5</ele><time>2026-03-28T09:24:40.763Z</time></trkpt><trkpt lat="45.3518715" lon="10.6440484"><ele>110.75</ele><time>2026-03-28T09:24:41.763Z</time></trkpt><trkpt lat="45.3517661" lon="10.6439582"><ele>111.0</ele><time>2026-03-28T09:24:42.762Z</time></trkpt><trkpt lat="45.3516334" lon="10.6438498"><ele>111.0</ele><time>2026-03-28T09:24:43.763Z</time></trkpt><trkpt lat="45.3515011" lon="10.6437421"><ele>111.0</ele><time>2026-03-28T09:24:44.762Z</time></trkpt><trkpt lat="45.3513731" lon="10.6436498"><ele>111.0</ele><time>2026-03-28T09:24:45.763Z</time></trkpt><trkpt lat="45.3512262" lon="10.6435603"><ele>110.0</ele><time>2026-03-28T09:24:46.763Z</time></trkpt><trkpt lat="45.3510752" lon="10.6434824"><ele>109.0</ele><time>2026-03-28T09:24:47.762Z</time></trkpt><trkpt lat="45.3509317" lon="10.6434058"><ele>108.0</ele><time>2026-03-28T09:24:48.763Z</time></trkpt><trkpt lat="45.3507767" lon="10.6433159"><ele>108.0</ele><time>2026-03-28T09:24:49.762Z</time></trkpt><trkpt lat="45.3506098" lon="10.6432249"><ele>108.0</ele><time>2026-03-28T09:24:50.763Z</time></trkpt><trkpt lat="45.3504591" lon="10.6431493"><ele>108.0</ele><time>2026-03-28T09:24:51.763Z</time></trkpt><trkpt lat="45.3503181" lon="10.6430822"><ele>107.75</ele><time>2026-03-28T09:24:52.762Z</time></trkpt><trkpt lat="45.3501898" lon="10.6430292"><ele>107.5</ele><time>2026-03-28T09:24:53.763Z</time></trkpt><trkpt lat="45.3500702" lon="10.642974"><ele>107.25</ele><time>2026-03-28T09:24:54.762Z</time></trkpt><trkpt lat="45.3499622" lon="10.6429185"><ele>107.0</ele><time>2026-03-28T09:24:55.763Z</time></trkpt><trkpt lat="45.3498585" lon="10.6428632"><ele>107.0</ele><time>2026-03-28T09:24:56.763Z</time></trkpt><trkpt lat="45.3497461" lon="10.6428091"><ele>107.0</ele><time>2026-03-28T09:24:57.763Z</time></trkpt><trkpt lat="45.3496289" lon="10.6427662"><ele>107.0</ele><time>2026-03-28T09:24:58.762Z</time></trkpt><trkpt lat="45.3495107" lon="10.6427274"><ele>107.0</ele><time>2026-03-28T09:24:59.763Z</time></trkpt><trkpt lat="45.3493794" lon="10.6426914"><ele>106.5</ele><time>2026-03-28T09:25:00.762Z</time></trkpt><trkpt lat="45.3492677" lon="10.6426547"><ele>106.0</ele><time>2026-03-28T09:25:01.763Z</time></trkpt><trkpt lat="45.3491395" lon="10.6426153"><ele>105.5</ele><time>2026-03-28T09:25:02.762Z</time></trkpt><trkpt lat="45.3490023" lon="10.642576"><ele>105.0</ele><time>2026-03-28T09:25:03.762Z</time></trkpt><trkpt lat="45.3488969" lon="10.642545"><ele>105.8</ele><time>2026-03-28T09:25:04.762Z</time></trkpt><trkpt lat="45.3488152" lon="10.6425105"><ele>106.6</ele><time>2026-03-28T09:25:05.764Z</time></trkpt><trkpt lat="45.3487563" lon="10.6424615"><ele>107.4</ele><time>2026-03-28T09:25:06.762Z</time></trkpt><trkpt lat="45.3487239" lon="10.6422939"><ele>108.2</ele><time>2026-03-28T09:25:08.762Z</time></trkpt><trkpt lat="45.3487265" lon="10.6421545"><ele>109.0</ele><time>2026-03-28T09:25:09.763Z</time></trkpt><trkpt lat="45.3487353" lon="10.6420376"><ele>108.66666666666667</ele><time>2026-03-28T09:25:10.763Z</time></trkpt><trkpt lat="45.3487382" lon="10.6419324"><ele>108.33333333333334</ele><time>2026-03-28T09:25:11.762Z</time></trkpt><trkpt lat="45.3487279" lon="10.6418394"><ele>108.0</ele><time>2026-03-28T09:25:12.763Z</time></trkpt><trkpt lat="45.3486457" lon="10.6417598"><ele>107.66666666666666</ele><time>2026-03-28T09:25:14.762Z</time></trkpt><trkpt lat="45.3485678" lon="10.6417636"><ele>107.33333333333333</ele><time>2026-03-28T09:25:15.762Z</time></trkpt><trkpt lat="45.3484658" lon="10.6417806"><ele>107.0</ele><time>2026-03-28T09:25:16.763Z</time></trkpt><trkpt lat="45.3483799" lon="10.6418013"><ele>107.0</ele><time>2026-03-28T09:25:17.763Z</time></trkpt><trkpt lat="45.3482866" lon="10.641822"><ele>106.99999999999999</ele><time>2026-03-28T09:25:18.762Z</time></trkpt><trkpt lat="45.3482003" lon="10.6418362"><ele>106.99999999999999</ele><time>2026-03-28T09:25:19.762Z</time></trkpt><trkpt lat="45.3481278" lon="10.6418558"><ele>107.0</ele><time>2026-03-28T09:25:20.762Z</time></trkpt><trkpt lat="45.3480317" lon="10.6418724"><ele>107.0</ele><time>2026-03-28T09:25:21.763Z</time></trkpt><trkpt lat="45.3479241" lon="10.6418947"><ele>107.0</ele><time>2026-03-28T09:25:22.763Z</time></trkpt><trkpt lat="45.3478241" lon="10.6419169"><ele>106.99999999999999</ele><time>2026-03-28T09:25:23.763Z</time></trkpt><trkpt lat="45.3477279" lon="10.6419387"><ele>106.99999999999999</ele><time>2026-03-28T09:25:24.762Z</time></trkpt><trkpt lat="45.3476362" lon="10.6419583"><ele>107.0</ele><time>2026-03-28T09:25:25.763Z</time></trkpt><trkpt lat="45.3475497" lon="10.6419726"><ele>107.0</ele><time>2026-03-28T09:25:26.763Z</time></trkpt><trkpt lat="45.3474606" lon="10.6419873"><ele>106.99999999999999</ele><time>2026-03-28T09:25:27.762Z</time></trkpt><trkpt lat="45.3473604" lon="10.6420117"><ele>107.0</ele><time>2026-03-28T09:25:28.763Z</time></trkpt><trkpt lat="45.3472601" lon="10.6420343"><ele>107.0</ele><time>2026-03-28T09:25:29.763Z</time></trkpt><trkpt lat="45.3471742" lon="10.6420523"><ele>107.0</ele><time>2026-03-28T09:25:30.762Z</time></trkpt><trkpt lat="45.3470964" lon="10.64207"><ele>106.99999999999999</ele><time>2026-03-28T09:25:31.762Z</time></trkpt><trkpt lat="45.3470321" lon="10.6420801"><ele>107.0</ele><time>2026-03-28T09:25:32.762Z</time></trkpt><trkpt lat="45.3469667" lon="10.6420973"><ele>106.49999999999999</ele><time>2026-03-28T09:25:33.762Z</time></trkpt><trkpt lat="45.3468885" lon="10.6421158"><ele>106.0</ele><time>2026-03-28T09:25:34.763Z</time></trkpt><trkpt lat="45.3468048" lon="10.6421306"><ele>105.5</ele><time>2026-03-28T09:25:35.762Z</time></trkpt><trkpt lat="45.3467043" lon="10.6421122"><ele>105.0</ele><time>2026-03-28T09:25:37.763Z</time></trkpt><trkpt lat="45.3466534" lon="10.6420155"><ele>104.49999999999999</ele><time>2026-03-28T09:25:39.763Z</time></trkpt><trkpt lat="45.3466262" lon="10.641925"><ele>104.0</ele><time>2026-03-28T09:25:40.762Z</time></trkpt><trkpt lat="45.3466006" lon="10.6418145"><ele>105.2</ele><time>2026-03-28T09:25:41.763Z</time></trkpt><trkpt lat="45.3465614" lon="10.6416916"><ele>106.4</ele><time>2026-03-28T09:25:42.762Z</time></trkpt><trkpt lat="45.3465075" lon="10.6415362"><ele>107.6</ele><time>2026-03-28T09:25:43.762Z</time></trkpt><trkpt lat="45.3464513" lon="10.6413915"><ele>108.8</ele><time>2026-03-28T09:25:44.763Z</time></trkpt><trkpt lat="45.3464036" lon="10.6412581"><ele>110.0</ele><time>2026-03-28T09:25:45.763Z</time></trkpt><trkpt lat="45.3463689" lon="10.641139"><ele>110.2</ele><time>2026-03-28T09:25:46.763Z</time></trkpt><trkpt lat="45.3463523" lon="10.6410307"><ele>110.4</ele><time>2026-03-28T09:25:47.762Z</time></trkpt><trkpt lat="45.3463643" lon="10.6409163"><ele>110.6</ele><time>2026-03-28T09:25:48.762Z</time></trkpt><trkpt lat="45.3463887" lon="10.6407487"><ele>110.8</ele><time>2026-03-28T09:25:49.763Z</time></trkpt><trkpt lat="45.3464091" lon="10.640557"><ele>111.0</ele><time>2026-03-28T09:25:50.762Z</time></trkpt><trkpt lat="45.3464153" lon="10.6403812"><ele>111.25</ele><time>2026-03-28T09:25:51.762Z</time></trkpt><trkpt lat="45.3464001" lon="10.6402031"><ele>111.5</ele><time>2026-03-28T09:25:52.762Z</time></trkpt><trkpt lat="45.3463608" lon="10.6400071"><ele>111.75</ele><time>2026-03-28T09:25:53.763Z</time></trkpt><trkpt lat="45.3463201" lon="10.6398061"><ele>112.0</ele><time>2026-03-28T09:25:54.762Z</time></trkpt><trkpt lat="45.3462865" lon="10.6395884"><ele>115.25</ele><time>2026-03-28T09:25:55.762Z</time></trkpt><trkpt lat="45.3462565" lon="10.6393698"><ele>118.5</ele><time>2026-03-28T09:25:56.763Z</time></trkpt><trkpt lat="45.3462361" lon="10.6391759"><ele>121.75</ele><time>2026-03-28T09:25:57.762Z</time></trkpt><trkpt lat="45.346223" lon="10.6390024"><ele>125.0</ele><time>2026-03-28T09:25:58.762Z</time></trkpt><trkpt lat="45.3462041" lon="10.6388528"><ele>125.0</ele><time>2026-03-28T09:25:59.762Z</time></trkpt><trkpt lat="45.3461778" lon="10.6387293"><ele>125.0</ele><time>2026-03-28T09:26:00.763Z</time></trkpt><trkpt lat="45.3461289" lon="10.6386028"><ele>125.0</ele><time>2026-03-28T09:26:01.763Z</time></trkpt><trkpt lat="45.34606" lon="10.6384415"><ele>125.0</ele><time>2026-03-28T09:26:02.763Z</time></trkpt><trkpt lat="45.346002" lon="10.6382957"><ele>125.0</ele><time>2026-03-28T09:26:03.762Z</time></trkpt><trkpt lat="45.3459517" lon="10.6381569"><ele>124.83333333333333</ele><time>2026-03-28T09:26:04.763Z</time></trkpt><trkpt lat="45.3459105" lon="10.6380335"><ele>124.66666666666666</ele><time>2026-03-28T09:26:05.763Z</time></trkpt><trkpt lat="45.3458802" lon="10.637935"><ele>124.5</ele><time>2026-03-28T09:26:06.762Z</time></trkpt><trkpt lat="45.3458396" lon="10.6378113"><ele>124.33333333333334</ele><time>2026-03-28T09:26:08.764Z</time></trkpt><trkpt lat="45.3457991" lon="10.6377423"><ele>124.16666666666667</ele><time>2026-03-28T09:26:10.762Z</time></trkpt><trkpt lat="45.3457277" lon="10.6376467"><ele>124.0</ele><time>2026-03-28T09:26:12.763Z</time></trkpt><trkpt lat="45.3456707" lon="10.6375782"><ele>124.0</ele><time>2026-03-28T09:26:13.762Z</time></trkpt><trkpt lat="45.3455977" lon="10.6374967"><ele>124.0</ele><time>2026-03-28T09:26:14.763Z</time></trkpt><trkpt lat="45.3455151" lon="10.63742"><ele>124.0</ele><time>2026-03-28T09:26:15.762Z</time></trkpt><trkpt lat="45.3454212" lon="10.6373491"><ele>124.0</ele><time>2026-03-28T09:26:16.763Z</time></trkpt><trkpt lat="45.3453201" lon="10.6372899"><ele>124.0</ele><time>2026-03-28T09:26:17.762Z</time></trkpt><trkpt lat="45.3452129" lon="10.6372253"><ele>123.75</ele><time>2026-03-28T09:26:18.762Z</time></trkpt><trkpt lat="45.345105" lon="10.6371298"><ele>123.5</ele><time>2026-03-28T09:26:19.763Z</time></trkpt><trkpt lat="45.345" lon="10.6370063"><ele>123.25</ele><time>2026-03-28T09:26:20.763Z</time></trkpt><trkpt lat="45.3448956" lon="10.6368656"><ele>123.0</ele><time>2026-03-28T09:26:21.763Z</time></trkpt><trkpt lat="45.344798" lon="10.6367065"><ele>123.0</ele><time>2026-03-28T09:26:22.763Z</time></trkpt><trkpt lat="45.3447171" lon="10.6365231"><ele>123.0</ele><time>2026-03-28T09:26:23.763Z</time></trkpt><trkpt lat="45.3446596" lon="10.6363325"><ele>123.0</ele><time>2026-03-28T09:26:24.762Z</time></trkpt><trkpt lat="45.3446047" lon="10.6361565"><ele>123.0</ele><time>2026-03-28T09:26:25.762Z</time></trkpt><trkpt lat="45.3445492" lon="10.6359931"><ele>124.0</ele><time>2026-03-28T09:26:26.763Z</time></trkpt><trkpt lat="45.3444663" lon="10.6358433"><ele>125.0</ele><time>2026-03-28T09:26:27.762Z</time></trkpt><trkpt lat="45.3443653" lon="10.6356977"><ele>126.0</ele><time>2026-03-28T09:26:28.762Z</time></trkpt><trkpt lat="45.344262" lon="10.6355579"><ele>127.0</ele><time>2026-03-28T09:26:29.762Z</time></trkpt><trkpt lat="45.3441447" lon="10.6354123"><ele>127.0</ele><time>2026-03-28T09:26:30.763Z</time></trkpt><trkpt lat="45.3440265" lon="10.6352674"><ele>127.0</ele><time>2026-03-28T09:26:31.762Z</time></trkpt><trkpt lat="45.3439202" lon="10.6351279"><ele>127.0</ele><time>2026-03-28T09:26:32.762Z</time></trkpt><trkpt lat="45.3438332" lon="10.6349776"><ele>127.0</ele><time>2026-03-28T09:26:33.763Z</time></trkpt><trkpt lat="45.3437746" lon="10.6348097"><ele>125.0</ele><time>2026-03-28T09:26:34.763Z</time></trkpt><trkpt lat="45.343727" lon="10.6346079"><ele>123.0</ele><time>2026-03-28T09:26:35.762Z</time></trkpt><trkpt lat="45.3436985" lon="10.634424"><ele>121.0</ele><time>2026-03-28T09:26:36.762Z</time></trkpt><trkpt lat="45.3436782" lon="10.6342398"><ele>119.0</ele><time>2026-03-28T09:26:37.763Z</time></trkpt><trkpt lat="45.3436555" lon="10.6340643"><ele>119.0</ele><time>2026-03-28T09:26:38.762Z</time></trkpt><trkpt lat="45.3436435" lon="10.6338918"><ele>119.0</ele><time>2026-03-28T09:26:39.763Z</time></trkpt><trkpt lat="45.3436677" lon="10.6337193"><ele>119.0</ele><time>2026-03-28T09:26:40.762Z</time></trkpt><trkpt lat="45.3437152" lon="10.6335589"><ele>119.0</ele><time>2026-03-28T09:26:41.763Z</time></trkpt><trkpt lat="45.3437837" lon="10.6334115"><ele>121.25</ele><time>2026-03-28T09:26:42.762Z</time></trkpt><trkpt lat="45.3438574" lon="10.6332685"><ele>123.5</ele><time>2026-03-28T09:26:43.763Z</time></trkpt><trkpt lat="45.3439094" lon="10.6331185"><ele>125.75</ele><time>2026-03-28T09:26:44.762Z</time></trkpt><trkpt lat="45.3439284" lon="10.6329466"><ele>128.0</ele><time>2026-03-28T09:26:45.763Z</time></trkpt><trkpt lat="45.3439308" lon="10.6327582"><ele>128.33333333333331</ele><time>2026-03-28T09:26:46.762Z</time></trkpt><trkpt lat="45.3439374" lon="10.6325335"><ele>128.66666666666666</ele><time>2026-03-28T09:26:47.763Z</time></trkpt><trkpt lat="45.3439581" lon="10.6323006"><ele>129.0</ele><time>2026-03-28T09:26:48.763Z</time></trkpt><trkpt lat="45.3439825" lon="10.6320949"><ele>130.0</ele><time>2026-03-28T09:26:49.762Z</time></trkpt><trkpt lat="45.3440038" lon="10.6318899"><ele>131.0</ele><time>2026-03-28T09:26:50.762Z</time></trkpt><trkpt lat="45.3440258" lon="10.6316924"><ele>132.0</ele><time>2026-03-28T09:26:51.762Z</time></trkpt><trkpt lat="45.3440465" lon="10.6315113"><ele>133.0</ele><time>2026-03-28T09:26:52.763Z</time></trkpt><trkpt lat="45.3440573" lon="10.6313488"><ele>133.0</ele><time>2026-03-28T09:26:53.762Z</time></trkpt><trkpt lat="45.3440692" lon="10.6312016"><ele>133.0</ele><time>2026-03-28T09:26:54.763Z</time></trkpt><trkpt lat="45.3440946" lon="10.6310529"><ele>133.0</ele><time>2026-03-28T09:26:55.763Z</time></trkpt><trkpt lat="45.3441322" lon="10.6309003"><ele>133.0</ele><time>2026-03-28T09:26:56.763Z</time></trkpt><trkpt lat="45.344178" lon="10.6307465"><ele>133.0</ele><time>2026-03-28T09:26:57.762Z</time></trkpt><trkpt lat="45.3442334" lon="10.6306022"><ele>133.20000000000002</ele><time>2026-03-28T09:26:58.763Z</time></trkpt><trkpt lat="45.3442937" lon="10.6304777"><ele>133.4</ele><time>2026-03-28T09:26:59.762Z</time></trkpt><trkpt lat="45.344352" lon="10.6303536"><ele>133.60000000000002</ele><time>2026-03-28T09:27:00.763Z</time></trkpt><trkpt lat="45.3444045" lon="10.6302364"><ele>133.8</ele><time>2026-03-28T09:27:01.763Z</time></trkpt><trkpt lat="45.3444429" lon="10.6301336"><ele>134.0</ele><time>2026-03-28T09:27:02.762Z</time></trkpt><trkpt lat="45.3444561" lon="10.630041"><ele>134.0</ele><time>2026-03-28T09:27:03.763Z</time></trkpt><trkpt lat="45.3444252" lon="10.6298975"><ele>134.0</ele><time>2026-03-28T09:27:05.762Z</time></trkpt><trkpt lat="45.3443292" lon="10.629815"><ele>134.0</ele><time>2026-03-28T09:27:07.762Z</time></trkpt><trkpt lat="45.3442666" lon="10.6298008"><ele>134.0</ele><time>2026-03-28T09:27:08.762Z</time></trkpt><trkpt lat="45.3441918" lon="10.6297869"><ele>134.0</ele><time>2026-03-28T09:27:09.763Z</time></trkpt><trkpt lat="45.3441247" lon="10.6297995"><ele>134.0</ele><time>2026-03-28T09:27:10.762Z</time></trkpt><trkpt lat="45.3440564" lon="10.6298409"><ele>134.0</ele><time>2026-03-28T09:27:11.763Z</time></trkpt><trkpt lat="45.3439822" lon="10.6299187"><ele>134.0</ele><time>2026-03-28T09:27:12.763Z</time></trkpt><trkpt lat="45.3438859" lon="10.6300403"><ele>134.0</ele><time>2026-03-28T09:27:13.762Z</time></trkpt><trkpt lat="45.3437661" lon="10.6301717"><ele>134.0</ele><time>2026-03-28T09:27:14.763Z</time></trkpt><trkpt lat="45.3436213" lon="10.6303009"><ele>133.66666666666666</ele><time>2026-03-28T09:27:15.762Z</time></trkpt><trkpt lat="45.343463" lon="10.6304356"><ele>133.33333333333334</ele><time>2026-03-28T09:27:16.762Z</time></trkpt><trkpt lat="45.3433004" lon="10.6305762"><ele>133.0</ele><time>2026-03-28T09:27:17.763Z</time></trkpt><trkpt lat="45.3431469" lon="10.6307108"><ele>131.33333333333334</ele><time>2026-03-28T09:27:18.762Z</time></trkpt><trkpt lat="45.3429998" lon="10.6308432"><ele>129.66666666666666</ele><time>2026-03-28T09:27:19.762Z</time></trkpt><trkpt lat="45.3428568" lon="10.6309706"><ele>128.0</ele><time>2026-03-28T09:27:20.762Z</time></trkpt><trkpt lat="45.3427112" lon="10.6311"><ele>129.33333333333331</ele><time>2026-03-28T09:27:21.763Z</time></trkpt><trkpt lat="45.342565" lon="10.6312243"><ele>130.66666666666666</ele><time>2026-03-28T09:27:22.764Z</time></trkpt><trkpt lat="45.3424164" lon="10.6313465"><ele>132.0</ele><time>2026-03-28T09:27:23.762Z</time></trkpt><trkpt lat="45.3422925" lon="10.631471"><ele>130.5</ele><time>2026-03-28T09:27:24.763Z</time></trkpt><trkpt lat="45.3422" lon="10.6316001"><ele>129.0</ele><time>2026-03-28T09:27:25.762Z</time></trkpt><trkpt lat="45.3421222" lon="10.6317528"><ele>127.5</ele><time>2026-03-28T09:27:26.763Z</time></trkpt><trkpt lat="45.3420466" lon="10.631936"><ele>126.0</ele><time>2026-03-28T09:27:27.762Z</time></trkpt><trkpt lat="45.3419602" lon="10.6321523"><ele>126.0</ele><time>2026-03-28T09:27:28.762Z</time></trkpt><trkpt lat="45.34186" lon="10.6323735"><ele>126.0</ele><time>2026-03-28T09:27:29.763Z</time></trkpt><trkpt lat="45.3417432" lon="10.6325994"><ele>126.0</ele><time>2026-03-28T09:27:30.762Z</time></trkpt><trkpt lat="45.3416098" lon="10.6328113"><ele>125.33333333333334</ele><time>2026-03-28T09:27:31.762Z</time></trkpt><trkpt lat="45.3414894" lon="10.6329837"><ele>124.66666666666667</ele><time>2026-03-28T09:27:32.762Z</time></trkpt><trkpt lat="45.341373" lon="10.6331246"><ele>124.0</ele><time>2026-03-28T09:27:33.762Z</time></trkpt><trkpt lat="45.3412543" lon="10.6332265"><ele>124.0</ele><time>2026-03-28T09:27:34.762Z</time></trkpt><trkpt lat="45.3411294" lon="10.6333065"><ele>124.0</ele><time>2026-03-28T09:27:35.763Z</time></trkpt><trkpt lat="45.3410165" lon="10.6333813"><ele>124.0</ele><time>2026-03-28T09:27:36.762Z</time></trkpt><trkpt lat="45.3409061" lon="10.6334486"><ele>124.0</ele><time>2026-03-28T09:27:37.763Z</time></trkpt><trkpt lat="45.3407982" lon="10.6335028"><ele>124.0</ele><time>2026-03-28T09:27:38.763Z</time></trkpt><trkpt lat="45.340696" lon="10.6335496"><ele>124.0</ele><time>2026-03-28T09:27:39.762Z</time></trkpt><trkpt lat="45.3405969" lon="10.6336129"><ele>124.0</ele><time>2026-03-28T09:27:40.763Z</time></trkpt><trkpt lat="45.3404748" lon="10.6336787"><ele>124.0</ele><time>2026-03-28T09:27:41.762Z</time></trkpt><trkpt lat="45.3403552" lon="10.6337341"><ele>123.75</ele><time>2026-03-28T09:27:42.763Z</time></trkpt><trkpt lat="45.3402302" lon="10.633778"><ele>123.5</ele><time>2026-03-28T09:27:43.763Z</time></trkpt><trkpt lat="45.3400889" lon="10.6338313"><ele>123.25</ele><time>2026-03-28T09:27:44.762Z</time></trkpt><trkpt lat="45.3399446" lon="10.6338877"><ele>123.0</ele><time>2026-03-28T09:27:45.764Z</time></trkpt><trkpt lat="45.3398114" lon="10.6339436"><ele>122.0</ele><time>2026-03-28T09:27:46.762Z</time></trkpt><trkpt lat="45.3396844" lon="10.6339971"><ele>121.0</ele><time>2026-03-28T09:27:47.762Z</time></trkpt><trkpt lat="45.3395672" lon="10.6340445"><ele>120.0</ele><time>2026-03-28T09:27:48.763Z</time></trkpt><trkpt lat="45.3394584" lon="10.6340901"><ele>119.0</ele><time>2026-03-28T09:27:49.762Z</time></trkpt><trkpt lat="45.3393535" lon="10.634141"><ele>119.0</ele><time>2026-03-28T09:27:50.763Z</time></trkpt><trkpt lat="45.3392697" lon="10.6341816"><ele>119.0</ele><time>2026-03-28T09:27:51.762Z</time></trkpt><trkpt lat="45.3392022" lon="10.6341962"><ele>119.0</ele><time>2026-03-28T09:27:52.763Z</time></trkpt><trkpt lat="45.3391132" lon="10.6341544"><ele>119.0</ele><time>2026-03-28T09:27:54.763Z</time></trkpt><trkpt lat="45.339058" lon="10.6340237"><ele>119.0</ele><time>2026-03-28T09:27:56.762Z</time></trkpt><trkpt lat="45.3389711" lon="10.6339748"><ele>117.75</ele><time>2026-03-28T09:27:58.762Z</time></trkpt><trkpt lat="45.3388648" lon="10.6340375"><ele>116.5</ele><time>2026-03-28T09:28:00.762Z</time></trkpt><trkpt lat="45.3387844" lon="10.6341017"><ele>115.25</ele><time>2026-03-28T09:28:01.762Z</time></trkpt><trkpt lat="45.3386813" lon="10.634187"><ele>114.0</ele><time>2026-03-28T09:28:02.762Z</time></trkpt><trkpt lat="45.3385669" lon="10.6342817"><ele>114.0</ele><time>2026-03-28T09:28:03.763Z</time></trkpt><trkpt lat="45.3384597" lon="10.6343663"><ele>114.0</ele><time>2026-03-28T09:28:04.762Z</time></trkpt><trkpt lat="45.3383567" lon="10.6344525"><ele>114.0</ele><time>2026-03-28T09:28:05.763Z</time></trkpt><trkpt lat="45.3382427" lon="10.6345621"><ele>114.0</ele><time>2026-03-28T09:28:06.762Z</time></trkpt><trkpt lat="45.3381279" lon="10.6346654"><ele>113.5</ele><time>2026-03-28T09:28:07.763Z</time></trkpt><trkpt lat="45.3380209" lon="10.6347683"><ele>113.0</ele><time>2026-03-28T09:28:08.762Z</time></trkpt><trkpt lat="45.3379176" lon="10.6348633"><ele>112.5</ele><time>2026-03-28T09:28:09.763Z</time></trkpt><trkpt lat="45.3378239" lon="10.6349556"><ele>112.0</ele><time>2026-03-28T09:28:10.763Z</time></trkpt><trkpt lat="45.337737" lon="10.6350411"><ele>112.0</ele><time>2026-03-28T09:28:11.763Z</time></trkpt><trkpt lat="45.3376608" lon="10.6351217"><ele>111.99999999999999</ele><time>2026-03-28T09:28:12.763Z</time></trkpt><trkpt lat="45.3376018" lon="10.6352011"><ele>111.99999999999999</ele><time>2026-03-28T09:28:13.762Z</time></trkpt><trkpt lat="45.3375582" lon="10.6352693"><ele>112.0</ele><time>2026-03-28T09:28:14.762Z</time></trkpt><trkpt lat="45.337454" lon="10.6352902"><ele>112.0</ele><time>2026-03-28T09:28:16.763Z</time></trkpt><trkpt lat="45.3373466" lon="10.6352226"><ele>112.0</ele><time>2026-03-28T09:28:18.763Z</time></trkpt><trkpt lat="45.3372395" lon="10.635088"><ele>112.0</ele><time>2026-03-28T09:28:20.763Z</time></trkpt><trkpt lat="45.3371469" lon="10.6350038"><ele>112.0</ele><time>2026-03-28T09:28:21.763Z</time></trkpt><trkpt lat="45.3370536" lon="10.6349227"><ele>112.0</ele><time>2026-03-28T09:28:22.762Z</time></trkpt><trkpt lat="45.3369645" lon="10.6348577"><ele>110.6</ele><time>2026-03-28T09:28:23.763Z</time></trkpt><trkpt lat="45.3368722" lon="10.634784"><ele>109.19999999999999</ele><time>2026-03-28T09:28:24.762Z</time></trkpt><trkpt lat="45.336793" lon="10.6347065"><ele>107.8</ele><time>2026-03-28T09:28:25.762Z</time></trkpt><trkpt lat="45.3367205" lon="10.6346116"><ele>106.4</ele><time>2026-03-28T09:28:26.763Z</time></trkpt><trkpt lat="45.3366683" lon="10.6345219"><ele>105.0</ele><time>2026-03-28T09:28:27.762Z</time></trkpt><trkpt lat="45.3366288" lon="10.6344361"><ele>105.0</ele><time>2026-03-28T09:28:28.763Z</time></trkpt><trkpt lat="45.3365249" lon="10.6343637"><ele>105.0</ele><time>2026-03-28T09:28:30.763Z</time></trkpt><trkpt lat="45.3364497" lon="10.6343794"><ele>105.0</ele><time>2026-03-28T09:28:31.762Z</time></trkpt><trkpt lat="45.336361" lon="10.6344117"><ele>105.0</ele><time>2026-03-28T09:28:32.763Z</time></trkpt><trkpt lat="45.3362589" lon="10.6344424"><ele>105.0</ele><time>2026-03-28T09:28:33.762Z</time></trkpt><trkpt lat="45.3361488" lon="10.6344876"><ele>104.4</ele><time>2026-03-28T09:28:34.763Z</time></trkpt><trkpt lat="45.3360609" lon="10.6345544"><ele>103.8</ele><time>2026-03-28T09:28:35.762Z</time></trkpt><trkpt lat="45.3359902" lon="10.6346354"><ele>103.19999999999999</ele><time>2026-03-28T09:28:36.762Z</time></trkpt><trkpt lat="45.3359331" lon="10.6347377"><ele>102.6</ele><time>2026-03-28T09:28:37.762Z</time></trkpt><trkpt lat="45.3358679" lon="10.6348704"><ele>102.0</ele><time>2026-03-28T09:28:38.762Z</time></trkpt><trkpt lat="45.3357844" lon="10.6350113"><ele>102.0</ele><time>2026-03-28T09:28:39.762Z</time></trkpt><trkpt lat="45.3357082" lon="10.63516"><ele>102.0</ele><time>2026-03-28T09:28:40.764Z</time></trkpt><trkpt lat="45.3356411" lon="10.6353236"><ele>102.0</ele><time>2026-03-28T09:28:41.762Z</time></trkpt><trkpt lat="45.3355691" lon="10.6355002"><ele>102.0</ele><time>2026-03-28T09:28:42.762Z</time></trkpt><trkpt lat="45.3354974" lon="10.6356624"><ele>100.75</ele><time>2026-03-28T09:28:43.763Z</time></trkpt><trkpt lat="45.3354213" lon="10.6358114"><ele>99.5</ele><time>2026-03-28T09:28:44.762Z</time></trkpt><trkpt lat="45.33535" lon="10.6359411"><ele>98.25</ele><time>2026-03-28T09:28:45.762Z</time></trkpt><trkpt lat="45.3352486" lon="10.6360353"><ele>97.0</ele><time>2026-03-28T09:28:46.763Z</time></trkpt><trkpt lat="45.3351445" lon="10.6361427"><ele>97.0</ele><time>2026-03-28T09:28:47.762Z</time></trkpt><trkpt lat="45.3350287" lon="10.63626"><ele>97.0</ele><time>2026-03-28T09:28:48.762Z</time></trkpt><trkpt lat="45.3349117" lon="10.6363646"><ele>97.0</ele><time>2026-03-28T09:28:49.762Z</time></trkpt><trkpt lat="45.3348012" lon="10.6364704"><ele>97.0</ele><time>2026-03-28T09:28:50.763Z</time></trkpt><trkpt lat="45.3347024" lon="10.6365773"><ele>97.0</ele><time>2026-03-28T09:28:51.763Z</time></trkpt><trkpt lat="45.3346188" lon="10.636688"><ele>97.0</ele><time>2026-03-28T09:28:52.762Z</time></trkpt><trkpt lat="45.3345509" lon="10.6368027"><ele>97.0</ele><time>2026-03-28T09:28:53.762Z</time></trkpt><trkpt lat="45.3344941" lon="10.6369123"><ele>97.0</ele><time>2026-03-28T09:28:54.762Z</time></trkpt><trkpt lat="45.3344247" lon="10.6370376"><ele>97.0</ele><time>2026-03-28T09:28:55.763Z</time></trkpt><trkpt lat="45.3343507" lon="10.6371582"><ele>96.0</ele><time>2026-03-28T09:28:56.762Z</time></trkpt><trkpt lat="45.334288" lon="10.6372693"><ele>95.0</ele><time>2026-03-28T09:28:57.762Z</time></trkpt><trkpt lat="45.334222" lon="10.637355"><ele>94.0</ele><time>2026-03-28T09:28:58.762Z</time></trkpt><trkpt lat="45.3341408" lon="10.6374232"><ele>93.0</ele><time>2026-03-28T09:28:59.763Z</time></trkpt><trkpt lat="45.334052" lon="10.6375005"><ele>92.0</ele><time>2026-03-28T09:29:00.763Z</time></trkpt><trkpt lat="45.3338976" lon="10.6375746"><ele>91.0</ele><time>2026-03-28T09:29:01.763Z</time></trkpt><trkpt lat="45.3337473" lon="10.6376541"><ele>90.0</ele><time>2026-03-28T09:29:02.762Z</time></trkpt><trkpt lat="45.3335918" lon="10.6377326"><ele>89.0</ele><time>2026-03-28T09:29:03.763Z</time></trkpt><trkpt lat="45.3334398" lon="10.6378058"><ele>89.0</ele><time>2026-03-28T09:29:04.762Z</time></trkpt><trkpt lat="45.3333089" lon="10.6378774"><ele>89.0</ele><time>2026-03-28T09:29:05.763Z</time></trkpt><trkpt lat="45.3331967" lon="10.6379686"><ele>89.0</ele><time>2026-03-28T09:29:06.762Z</time></trkpt><trkpt lat="45.3330832" lon="10.6380842"><ele>89.0</ele><time>2026-03-28T09:29:07.763Z</time></trkpt><trkpt lat="45.3329683" lon="10.6382148"><ele>91.0</ele><time>2026-03-28T09:29:08.762Z</time></trkpt><trkpt lat="45.3328635" lon="10.6383404"><ele>93.0</ele><time>2026-03-28T09:29:09.763Z</time></trkpt><trkpt lat="45.3327515" lon="10.6384536"><ele>95.0</ele><time>2026-03-28T09:29:10.762Z</time></trkpt><trkpt lat="45.3326938" lon="10.638508"><ele>97.0</ele><time>2026-03-28T09:29:11.763Z</time></trkpt><trkpt lat="45.3325966" lon="10.6386054"><ele>94.25</ele><time>2026-03-28T09:29:12.763Z</time></trkpt><trkpt lat="45.3324921" lon="10.6387122"><ele>91.5</ele><time>2026-03-28T09:29:13.763Z</time></trkpt><trkpt lat="45.3323918" lon="10.6387803"><ele>88.75</ele><time>2026-03-28T09:29:14.762Z</time></trkpt><trkpt lat="45.3322882" lon="10.6388593"><ele>86.0</ele><time>2026-03-28T09:29:15.762Z</time></trkpt><trkpt lat="45.3321869" lon="10.6389363"><ele>85.6</ele><time>2026-03-28T09:29:16.763Z</time></trkpt><trkpt lat="45.3320955" lon="10.6390245"><ele>85.19999999999999</ele><time>2026-03-28T09:29:17.762Z</time></trkpt><trkpt lat="45.332022" lon="10.639127"><ele>84.80000000000001</ele><time>2026-03-28T09:29:18.762Z</time></trkpt><trkpt lat="45.3319469" lon="10.6392375"><ele>84.4</ele><time>2026-03-28T09:29:19.762Z</time></trkpt><trkpt lat="45.3318566" lon="10.639341"><ele>84.0</ele><time>2026-03-28T09:29:20.763Z</time></trkpt><trkpt lat="45.3317689" lon="10.63942"><ele>84.0</ele><time>2026-03-28T09:29:21.762Z</time></trkpt><trkpt lat="45.331703" lon="10.6395017"><ele>84.0</ele><time>2026-03-28T09:29:22.762Z</time></trkpt><trkpt lat="45.3316598" lon="10.6395955"><ele>84.0</ele><time>2026-03-28T09:29:23.763Z</time></trkpt><trkpt lat="45.3316288" lon="10.6397176"><ele>84.0</ele><time>2026-03-28T09:29:24.763Z</time></trkpt><trkpt lat="45.3316047" lon="10.6398037"><ele>84.0</ele><time>2026-03-28T09:29:25.763Z</time></trkpt><trkpt lat="45.3315453" lon="10.6398916"><ele>84.0</ele><time>2026-03-28T09:29:27.762Z</time></trkpt><trkpt lat="45.3314092" lon="10.6398875"><ele>85.0</ele><time>2026-03-28T09:29:29.763Z</time></trkpt><trkpt lat="45.3312734" lon="10.6398777"><ele>86.0</ele><time>2026-03-28T09:29:30.762Z</time></trkpt><trkpt lat="45.3311019" lon="10.6398766"><ele>87.0</ele><time>2026-03-28T09:29:31.763Z</time></trkpt><trkpt lat="45.3308919" lon="10.6398739"><ele>87.0</ele><time>2026-03-28T09:29:32.763Z</time></trkpt><trkpt lat="45.3306714" lon="10.6398526"><ele>87.0</ele><time>2026-03-28T09:29:33.762Z</time></trkpt><trkpt lat="45.3304709" lon="10.6398017"><ele>87.0</ele><time>2026-03-28T09:29:34.763Z</time></trkpt><trkpt lat="45.3302964" lon="10.6397329"><ele>87.0</ele><time>2026-03-28T09:29:35.762Z</time></trkpt><trkpt lat="45.3301379" lon="10.6396751"><ele>87.0</ele><time>2026-03-28T09:29:36.763Z</time></trkpt><trkpt lat="45.330004" lon="10.6396292"><ele>87.0</ele><time>2026-03-28T09:29:37.762Z</time></trkpt><trkpt lat="45.3298972" lon="10.6396086"><ele>87.0</ele><time>2026-03-28T09:29:38.763Z</time></trkpt><trkpt lat="45.3297971" lon="10.6396283"><ele>86.0</ele><time>2026-03-28T09:29:39.762Z</time></trkpt><trkpt lat="45.329704" lon="10.6396877"><ele>85.0</ele><time>2026-03-28T09:29:40.763Z</time></trkpt><trkpt lat="45.3296143" lon="10.6397842"><ele>84.0</ele><time>2026-03-28T09:29:41.762Z</time></trkpt><trkpt lat="45.3295373" lon="10.6398753"><ele>83.0</ele><time>2026-03-28T09:29:42.763Z</time></trkpt><trkpt lat="45.3294815" lon="10.6399452"><ele>82.0</ele><time>2026-03-28T09:29:43.762Z</time></trkpt><trkpt lat="45.3294279" lon="10.6400426"><ele>82.0</ele><time>2026-03-28T09:29:46.763Z</time></trkpt><trkpt lat="45.3294525" lon="10.6402229"><ele>82.0</ele><time>2026-03-28T09:29:48.762Z</time></trkpt><trkpt lat="45.3294865" lon="10.640361"><ele>82.0</ele><time>2026-03-28T09:29:49.762Z</time></trkpt><trkpt lat="45.3295133" lon="10.6405454"><ele>82.0</ele><time>2026-03-28T09:29:50.762Z</time></trkpt><trkpt lat="45.3295552" lon="10.6407502"><ele>82.25</ele><time>2026-03-28T09:29:51.763Z</time></trkpt><trkpt lat="45.329604" lon="10.6409728"><ele>82.5</ele><time>2026-03-28T09:29:52.762Z</time></trkpt><trkpt lat="45.3296099" lon="10.641178"><ele>82.75</ele><time>2026-03-28T09:29:53.762Z</time></trkpt><trkpt lat="45.3295768" lon="10.6413709"><ele>83.0</ele><time>2026-03-28T09:29:54.763Z</time></trkpt><trkpt lat="45.3294945" lon="10.6415624"><ele>83.0</ele><time>2026-03-28T09:29:55.763Z</time></trkpt><trkpt lat="45.3293852" lon="10.6417622"><ele>83.0</ele><time>2026-03-28T09:29:56.762Z</time></trkpt><trkpt lat="45.3292881" lon="10.6419938"><ele>83.0</ele><time>2026-03-28T09:29:57.763Z</time></trkpt><trkpt lat="45.329217" lon="10.6422564"><ele>82.66666666666667</ele><time>2026-03-28T09:29:58.763Z</time></trkpt><trkpt lat="45.3291695" lon="10.642558"><ele>82.33333333333333</ele><time>2026-03-28T09:29:59.762Z</time></trkpt><trkpt lat="45.3291351" lon="10.6428765"><ele>82.0</ele><time>2026-03-28T09:30:00.762Z</time></trkpt><trkpt lat="45.3291112" lon="10.6432102"><ele>82.5</ele><time>2026-03-28T09:30:01.763Z</time></trkpt><trkpt lat="45.3290927" lon="10.64355"><ele>83.0</ele><time>2026-03-28T09:30:02.762Z</time></trkpt><trkpt lat="45.3290756" lon="10.6438914"><ele>83.0</ele><time>2026-03-28T09:30:03.763Z</time></trkpt><trkpt lat="45.329058" lon="10.6442287"><ele>83.0</ele><time>2026-03-28T09:30:04.762Z</time></trkpt><trkpt lat="45.3290408" lon="10.6445586"><ele>83.66666666666667</ele><time>2026-03-28T09:30:05.762Z</time></trkpt><trkpt lat="45.3290282" lon="10.6448642"><ele>84.33333333333333</ele><time>2026-03-28T09:30:06.762Z</time></trkpt><trkpt lat="45.3290209" lon="10.6451524"><ele>85.0</ele><time>2026-03-28T09:30:07.763Z</time></trkpt><trkpt lat="45.3290117" lon="10.6454363"><ele>85.5</ele><time>2026-03-28T09:30:08.762Z</time></trkpt><trkpt lat="45.328991" lon="10.6456943"><ele>86.0</ele><time>2026-03-28T09:30:09.763Z</time></trkpt><trkpt lat="45.3289514" lon="10.6459194"><ele>86.5</ele><time>2026-03-28T09:30:10.762Z</time></trkpt><trkpt lat="45.3289197" lon="10.6460578"><ele>87.0</ele><time>2026-03-28T09:30:11.763Z</time></trkpt><trkpt lat="45.3288965" lon="10.6461473"><ele>87.6</ele><time>2026-03-28T09:30:12.763Z</time></trkpt><trkpt lat="45.3288644" lon="10.6462345"><ele>88.19999999999999</ele><time>2026-03-28T09:30:13.763Z</time></trkpt><trkpt lat="45.3288214" lon="10.6463587"><ele>88.8</ele><time>2026-03-28T09:30:14.763Z</time></trkpt><trkpt lat="45.3287719" lon="10.6464941"><ele>89.4</ele><time>2026-03-28T09:30:15.762Z</time></trkpt><trkpt lat="45.3287205" lon="10.6466484"><ele>90.0</ele><time>2026-03-28T09:30:16.763Z</time></trkpt><trkpt lat="45.3286628" lon="10.6468166"><ele>89.75</ele><time>2026-03-28T09:30:17.763Z</time></trkpt><trkpt lat="45.3285933" lon="10.6469865"><ele>89.5</ele><time>2026-03-28T09:30:18.763Z</time></trkpt><trkpt lat="45.328499" lon="10.6471429"><ele>89.25</ele><time>2026-03-28T09:30:19.762Z</time></trkpt><trkpt lat="45.3283856" lon="10.6472813"><ele>89.0</ele><time>2026-03-28T09:30:20.762Z</time></trkpt><trkpt lat="45.3282626" lon="10.6474437"><ele>89.0</ele><time>2026-03-28T09:30:21.762Z</time></trkpt><trkpt lat="45.3281291" lon="10.6476516"><ele>89.0</ele><time>2026-03-28T09:30:22.763Z</time></trkpt><trkpt lat="45.3279798" lon="10.6479068"><ele>89.0</ele><time>2026-03-28T09:30:23.763Z</time></trkpt><trkpt lat="45.3278237" lon="10.6482049"><ele>94.5</ele><time>2026-03-28T09:30:24.763Z</time></trkpt><trkpt lat="45.3276606" lon="10.6485358"><ele>100.0</ele><time>2026-03-28T09:30:25.762Z</time></trkpt><trkpt lat="45.3275144" lon="10.6488472"><ele>100.0</ele><time>2026-03-28T09:30:26.762Z</time></trkpt><trkpt lat="45.3273855" lon="10.6491455"><ele>100.0</ele><time>2026-03-28T09:30:27.763Z</time></trkpt><trkpt lat="45.3272689" lon="10.6494274"><ele>103.33333333333334</ele><time>2026-03-28T09:30:28.763Z</time></trkpt><trkpt lat="45.32716" lon="10.6496896"><ele>106.66666666666666</ele><time>2026-03-28T09:30:29.762Z</time></trkpt><trkpt lat="45.3270547" lon="10.6499451"><ele>110.0</ele><time>2026-03-28T09:30:30.762Z</time></trkpt><trkpt lat="45.3269501" lon="10.6501967"><ele>108.0</ele><time>2026-03-28T09:30:31.762Z</time></trkpt><trkpt lat="45.3268507" lon="10.6504433"><ele>106.0</ele><time>2026-03-28T09:30:32.762Z</time></trkpt><trkpt lat="45.326746" lon="10.6506766"><ele>104.0</ele><time>2026-03-28T09:30:33.764Z</time></trkpt><trkpt lat="45.3266348" lon="10.6508756"><ele>104.0</ele><time>2026-03-28T09:30:34.763Z</time></trkpt><trkpt lat="45.3265094" lon="10.6510522"><ele>104.0</ele><time>2026-03-28T09:30:35.762Z</time></trkpt><trkpt lat="45.326374" lon="10.651204"><ele>104.0</ele><time>2026-03-28T09:30:36.763Z</time></trkpt><trkpt lat="45.3262345" lon="10.6513459"><ele>108.66666666666666</ele><time>2026-03-28T09:30:37.763Z</time></trkpt><trkpt lat="45.3260997" lon="10.651503"><ele>113.33333333333334</ele><time>2026-03-28T09:30:38.763Z</time></trkpt><trkpt lat="45.3259716" lon="10.6516745"><ele>118.0</ele><time>2026-03-28T09:30:39.762Z</time></trkpt><trkpt lat="45.3258395" lon="10.6518385"><ele>120.33333333333334</ele><time>2026-03-28T09:30:40.763Z</time></trkpt><trkpt lat="45.3257064" lon="10.6519946"><ele>122.66666666666666</ele><time>2026-03-28T09:30:41.762Z</time></trkpt><trkpt lat="45.3255768" lon="10.6521602"><ele>125.0</ele><time>2026-03-28T09:30:42.762Z</time></trkpt><trkpt lat="45.3254656" lon="10.6523347"><ele>125.0</ele><time>2026-03-28T09:30:43.763Z</time></trkpt><trkpt lat="45.3253723" lon="10.6525051"><ele>125.0</ele><time>2026-03-28T09:30:44.762Z</time></trkpt><trkpt lat="45.3253023" lon="10.6527026"><ele>125.0</ele><time>2026-03-28T09:30:45.762Z</time></trkpt><trkpt lat="45.3252316" lon="10.6528948"><ele>124.4</ele><time>2026-03-28T09:30:46.762Z</time></trkpt><trkpt lat="45.3251559" lon="10.6530675"><ele>123.8</ele><time>2026-03-28T09:30:47.763Z</time></trkpt><trkpt lat="45.3250915" lon="10.6532001"><ele>123.19999999999999</ele><time>2026-03-28T09:30:48.763Z</time></trkpt><trkpt lat="45.325031" lon="10.6533108"><ele>122.6</ele><time>2026-03-28T09:30:49.762Z</time></trkpt><trkpt lat="45.3249674" lon="10.6534066"><ele>122.0</ele><time>2026-03-28T09:30:50.763Z</time></trkpt><trkpt lat="45.3248999" lon="10.6535022"><ele>121.99999999999999</ele><time>2026-03-28T09:30:51.762Z</time></trkpt><trkpt lat="45.3248332" lon="10.6536004"><ele>122.0</ele><time>2026-03-28T09:30:52.763Z</time></trkpt><trkpt lat="45.324764" lon="10.6536898"><ele>122.0</ele><time>2026-03-28T09:30:53.762Z</time></trkpt><trkpt lat="45.3247021" lon="10.6537725"><ele>122.0</ele><time>2026-03-28T09:30:54.762Z</time></trkpt><trkpt lat="45.3246527" lon="10.6538439"><ele>121.99999999999999</ele><time>2026-03-28T09:30:55.763Z</time></trkpt><trkpt lat="45.3246146" lon="10.6539517"><ele>122.0</ele><time>2026-03-28T09:30:57.762Z</time></trkpt><trkpt lat="45.324675" lon="10.6539935"><ele>122.19999999999999</ele><time>2026-03-28T09:30:59.763Z</time></trkpt><trkpt lat="45.3247785" lon="10.6539925"><ele>122.39999999999999</ele><time>2026-03-28T09:31:01.762Z</time></trkpt><trkpt lat="45.3248446" lon="10.654031"><ele>122.60000000000001</ele><time>2026-03-28T09:31:02.762Z</time></trkpt><trkpt lat="45.3249146" lon="10.654091"><ele>122.80000000000001</ele><time>2026-03-28T09:31:03.763Z</time></trkpt><trkpt lat="45.3249924" lon="10.6541696"><ele>123.0</ele><time>2026-03-28T09:31:04.764Z</time></trkpt><trkpt lat="45.3250735" lon="10.6542567"><ele>123.0</ele><time>2026-03-28T09:31:05.762Z</time></trkpt><trkpt lat="45.32516" lon="10.6543573"><ele>123.0</ele><time>2026-03-28T09:31:06.763Z</time></trkpt><trkpt lat="45.3252528" lon="10.6544676"><ele>123.0</ele><time>2026-03-28T09:31:07.762Z</time></trkpt><trkpt lat="45.3253341" lon="10.6546039"><ele>123.0</ele><time>2026-03-28T09:31:08.762Z</time></trkpt><trkpt lat="45.3253797" lon="10.6547704"><ele>123.25</ele><time>2026-03-28T09:31:09.763Z</time></trkpt><trkpt lat="45.3253969" lon="10.6549554"><ele>123.5</ele><time>2026-03-28T09:31:10.762Z</time></trkpt><trkpt lat="45.3253807" lon="10.6551504"><ele>123.75</ele><time>2026-03-28T09:31:11.763Z</time></trkpt><trkpt lat="45.3253425" lon="10.6553573"><ele>124.0</ele><time>2026-03-28T09:31:12.762Z</time></trkpt><trkpt lat="45.3253006" lon="10.6555568"><ele>123.0</ele><time>2026-03-28T09:31:13.762Z</time></trkpt><trkpt lat="45.3252557" lon="10.6557486"><ele>122.0</ele><time>2026-03-28T09:31:14.763Z</time></trkpt><trkpt lat="45.3252125" lon="10.6559374"><ele>121.0</ele><time>2026-03-28T09:31:15.762Z</time></trkpt><trkpt lat="45.3251713" lon="10.6561218"><ele>120.0</ele><time>2026-03-28T09:31:16.763Z</time></trkpt><trkpt lat="45.3251255" lon="10.6563031"><ele>117.25</ele><time>2026-03-28T09:31:17.762Z</time></trkpt><trkpt lat="45.3250856" lon="10.6564841"><ele>114.5</ele><time>2026-03-28T09:31:18.764Z</time></trkpt><trkpt lat="45.3250652" lon="10.6566672"><ele>111.75</ele><time>2026-03-28T09:31:19.763Z</time></trkpt><trkpt lat="45.3250748" lon="10.6568543"><ele>109.0</ele><time>2026-03-28T09:31:20.763Z</time></trkpt><trkpt lat="45.3251076" lon="10.6570441"><ele>108.25</ele><time>2026-03-28T09:31:21.762Z</time></trkpt><trkpt lat="45.3251473" lon="10.6572369"><ele>107.5</ele><time>2026-03-28T09:31:22.762Z</time></trkpt><trkpt lat="45.3251825" lon="10.6574302"><ele>106.75</ele><time>2026-03-28T09:31:23.763Z</time></trkpt><trkpt lat="45.3252159" lon="10.6576209"><ele>106.0</ele><time>2026-03-28T09:31:24.762Z</time></trkpt><trkpt lat="45.3252506" lon="10.6578049"><ele>106.0</ele><time>2026-03-28T09:31:25.763Z</time></trkpt><trkpt lat="45.3252791" lon="10.6579734"><ele>106.0</ele><time>2026-03-28T09:31:26.762Z</time></trkpt><trkpt lat="45.3253037" lon="10.6581334"><ele>106.0</ele><time>2026-03-28T09:31:27.763Z</time></trkpt><trkpt lat="45.3253229" lon="10.6582757"><ele>106.0</ele><time>2026-03-28T09:31:28.762Z</time></trkpt><trkpt lat="45.3253412" lon="10.6583776"><ele>106.0</ele><time>2026-03-28T09:31:29.762Z</time></trkpt><trkpt lat="45.325384" lon="10.6584799"><ele>106.00000000000001</ele><time>2026-03-28T09:31:31.762Z</time></trkpt><trkpt lat="45.3254669" lon="10.6585156"><ele>106.0</ele><time>2026-03-28T09:31:33.763Z</time></trkpt><trkpt lat="45.3255375" lon="10.6584936"><ele>106.0</ele><time>2026-03-28T09:31:34.762Z</time></trkpt><trkpt lat="45.3256232" lon="10.6584638"><ele>106.0</ele><time>2026-03-28T09:31:35.763Z</time></trkpt><trkpt lat="45.3257189" lon="10.6584386"><ele>106.00000000000001</ele><time>2026-03-28T09:31:36.762Z</time></trkpt><trkpt lat="45.3258207" lon="10.658402"><ele>106.0</ele><time>2026-03-28T09:31:37.763Z</time></trkpt><trkpt lat="45.3259276" lon="10.6583624"><ele>105.4</ele><time>2026-03-28T09:31:38.762Z</time></trkpt><trkpt lat="45.3260309" lon="10.6583326"><ele>104.8</ele><time>2026-03-28T09:31:39.762Z</time></trkpt><trkpt lat="45.3261278" lon="10.6583034"><ele>104.2</ele><time>2026-03-28T09:31:40.762Z</time></trkpt><trkpt lat="45.3262252" lon="10.6582771"><ele>103.60000000000001</ele><time>2026-03-28T09:31:41.763Z</time></trkpt><trkpt lat="45.3263276" lon="10.6582543"><ele>103.0</ele><time>2026-03-28T09:31:42.762Z</time></trkpt><trkpt lat="45.3264289" lon="10.6582254"><ele>102.60000000000001</ele><time>2026-03-28T09:31:43.762Z</time></trkpt><trkpt lat="45.3265241" lon="10.6581986"><ele>102.2</ele><time>2026-03-28T09:31:44.763Z</time></trkpt><trkpt lat="45.3266124" lon="10.6581932"><ele>101.8</ele><time>2026-03-28T09:31:45.762Z</time></trkpt><trkpt lat="45.3266904" lon="10.6582461"><ele>101.4</ele><time>2026-03-28T09:31:46.763Z</time></trkpt><trkpt lat="45.3267533" lon="10.6583447"><ele>101.0</ele><time>2026-03-28T09:31:47.763Z</time></trkpt><trkpt lat="45.326787" lon="10.6584791"><ele>100.0</ele><time>2026-03-28T09:31:48.762Z</time></trkpt><trkpt lat="45.3267983" lon="10.6586349"><ele>99.0</ele><time>2026-03-28T09:31:49.762Z</time></trkpt><trkpt lat="45.3268082" lon="10.6588047"><ele>98.0</ele><time>2026-03-28T09:31:50.762Z</time></trkpt><trkpt lat="45.3268047" lon="10.6589871"><ele>97.0</ele><time>2026-03-28T09:31:51.764Z</time></trkpt><trkpt lat="45.3267781" lon="10.6591676"><ele>97.0</ele><time>2026-03-28T09:31:52.762Z</time></trkpt><trkpt lat="45.3267528" lon="10.6593424"><ele>97.0</ele><time>2026-03-28T09:31:53.762Z</time></trkpt><trkpt lat="45.3267311" lon="10.6594997"><ele>97.0</ele><time>2026-03-28T09:31:54.763Z</time></trkpt><trkpt lat="45.3267002" lon="10.6596258"><ele>97.0</ele><time>2026-03-28T09:31:55.762Z</time></trkpt><trkpt lat="45.3266514" lon="10.6597367"><ele>97.0</ele><time>2026-03-28T09:31:56.762Z</time></trkpt><trkpt lat="45.3266262" lon="10.6598454"><ele>96.6</ele><time>2026-03-28T09:31:57.763Z</time></trkpt><trkpt lat="45.3266486" lon="10.6599547"><ele>96.19999999999999</ele><time>2026-03-28T09:31:58.762Z</time></trkpt><trkpt lat="45.3266886" lon="10.660068"><ele>95.8</ele><time>2026-03-28T09:31:59.762Z</time></trkpt><trkpt lat="45.3267077" lon="10.6602106"><ele>95.4</ele><time>2026-03-28T09:32:00.763Z</time></trkpt><trkpt lat="45.3267305" lon="10.6603773"><ele>95.0</ele><time>2026-03-28T09:32:01.762Z</time></trkpt><trkpt lat="45.3267622" lon="10.6605631"><ele>94.25</ele><time>2026-03-28T09:32:02.762Z</time></trkpt><trkpt lat="45.3267938" lon="10.6607659"><ele>93.5</ele><time>2026-03-28T09:32:03.762Z</time></trkpt><trkpt lat="45.3268207" lon="10.6609783"><ele>92.75</ele><time>2026-03-28T09:32:04.762Z</time></trkpt><trkpt lat="45.3268403" lon="10.6611858"><ele>92.0</ele><time>2026-03-28T09:32:05.763Z</time></trkpt><trkpt lat="45.3268506" lon="10.6613882"><ele>91.25</ele><time>2026-03-28T09:32:06.763Z</time></trkpt><trkpt lat="45.3268544" lon="10.6615845"><ele>90.5</ele><time>2026-03-28T09:32:07.763Z</time></trkpt><trkpt lat="45.3268534" lon="10.6617732"><ele>89.75</ele><time>2026-03-28T09:32:08.763Z</time></trkpt><trkpt lat="45.3268435" lon="10.6619549"><ele>89.0</ele><time>2026-03-28T09:32:09.762Z</time></trkpt><trkpt lat="45.3268273" lon="10.6621173"><ele>89.0</ele><time>2026-03-28T09:32:10.763Z</time></trkpt><trkpt lat="45.326811" lon="10.6622618"><ele>89.0</ele><time>2026-03-28T09:32:11.762Z</time></trkpt><trkpt lat="45.3267897" lon="10.6623995"><ele>89.0</ele><time>2026-03-28T09:32:12.762Z</time></trkpt><trkpt lat="45.3267452" lon="10.662518"><ele>89.0</ele><time>2026-03-28T09:32:13.763Z</time></trkpt><trkpt lat="45.3267262" lon="10.6626347"><ele>89.0</ele><time>2026-03-28T09:32:14.762Z</time></trkpt><trkpt lat="45.3267552" lon="10.6627411"><ele>88.80000000000001</ele><time>2026-03-28T09:32:15.763Z</time></trkpt><trkpt lat="45.326817" lon="10.6628166"><ele>88.60000000000001</ele><time>2026-03-28T09:32:16.762Z</time></trkpt><trkpt lat="45.3268988" lon="10.662878"><ele>88.4</ele><time>2026-03-28T09:32:17.763Z</time></trkpt><trkpt lat="45.3269791" lon="10.6629568"><ele>88.2</ele><time>2026-03-28T09:32:18.762Z</time></trkpt><trkpt lat="45.3270644" lon="10.6630373"><ele>88.0</ele><time>2026-03-28T09:32:19.762Z</time></trkpt><trkpt lat="45.3271469" lon="10.6631027"><ele>88.2</ele><time>2026-03-28T09:32:20.763Z</time></trkpt><trkpt lat="45.3272286" lon="10.6631641"><ele>88.4</ele><time>2026-03-28T09:32:21.762Z</time></trkpt><trkpt lat="45.3273086" lon="10.6632249"><ele>88.60000000000001</ele><time>2026-03-28T09:32:22.762Z</time></trkpt><trkpt lat="45.3273847" lon="10.6632916"><ele>88.80000000000001</ele><time>2026-03-28T09:32:23.763Z</time></trkpt><trkpt lat="45.3274608" lon="10.6633615"><ele>89.0</ele><time>2026-03-28T09:32:24.763Z</time></trkpt><trkpt lat="45.327546" lon="10.6634369"><ele>89.0</ele><time>2026-03-28T09:32:25.762Z</time></trkpt><trkpt lat="45.3276421" lon="10.6635146"><ele>89.0</ele><time>2026-03-28T09:32:26.762Z</time></trkpt><trkpt lat="45.3277474" lon="10.6635979"><ele>89.0</ele><time>2026-03-28T09:32:27.763Z</time></trkpt><trkpt lat="45.3278548" lon="10.6636866"><ele>89.0</ele><time>2026-03-28T09:32:28.763Z</time></trkpt><trkpt lat="45.3279642" lon="10.6637768"><ele>88.25</ele><time>2026-03-28T09:32:29.762Z</time></trkpt><trkpt lat="45.328076" lon="10.6638682"><ele>87.5</ele><time>2026-03-28T09:32:30.762Z</time></trkpt><trkpt lat="45.3281984" lon="10.6639578"><ele>86.75</ele><time>2026-03-28T09:32:31.763Z</time></trkpt><trkpt lat="45.3283305" lon="10.6640424"><ele>86.0</ele><time>2026-03-28T09:32:32.763Z</time></trkpt><trkpt lat="45.3284702" lon="10.6641221"><ele>86.0</ele><time>2026-03-28T09:32:33.762Z</time></trkpt><trkpt lat="45.3286153" lon="10.6642033"><ele>86.0</ele><time>2026-03-28T09:32:34.762Z</time></trkpt><trkpt lat="45.3287655" lon="10.664285"><ele>86.0</ele><time>2026-03-28T09:32:35.762Z</time></trkpt><trkpt lat="45.3289175" lon="10.6643627"><ele>87.0</ele><time>2026-03-28T09:32:36.762Z</time></trkpt><trkpt lat="45.3290713" lon="10.6644431"><ele>88.0</ele><time>2026-03-28T09:32:37.762Z</time></trkpt><trkpt lat="45.329223" lon="10.6645376"><ele>89.0</ele><time>2026-03-28T09:32:38.763Z</time></trkpt><trkpt lat="45.3293629" lon="10.6646646"><ele>89.33333333333334</ele><time>2026-03-28T09:32:39.763Z</time></trkpt><trkpt lat="45.329482" lon="10.6648304"><ele>89.66666666666667</ele><time>2026-03-28T09:32:40.762Z</time></trkpt><trkpt lat="45.3295949" lon="10.6650054"><ele>90.0</ele><time>2026-03-28T09:32:41.762Z</time></trkpt><trkpt lat="45.329706" lon="10.6651859"><ele>90.33333333333333</ele><time>2026-03-28T09:32:42.763Z</time></trkpt><trkpt lat="45.3298145" lon="10.665368"><ele>90.66666666666666</ele><time>2026-03-28T09:32:43.763Z</time></trkpt><trkpt lat="45.3299229" lon="10.6655456"><ele>91.0</ele><time>2026-03-28T09:32:44.763Z</time></trkpt><trkpt lat="45.3300283" lon="10.6657249"><ele>91.0</ele><time>2026-03-28T09:32:45.762Z</time></trkpt><trkpt lat="45.3301259" lon="10.6659123"><ele>91.0</ele><time>2026-03-28T09:32:46.763Z</time></trkpt><trkpt lat="45.3302125" lon="10.6661112"><ele>91.0</ele><time>2026-03-28T09:32:47.762Z</time></trkpt><trkpt lat="45.330295" lon="10.6663131"><ele>90.33333333333333</ele><time>2026-03-28T09:32:48.762Z</time></trkpt><trkpt lat="45.3303726" lon="10.6665199"><ele>89.66666666666667</ele><time>2026-03-28T09:32:49.763Z</time></trkpt><trkpt lat="45.3304481" lon="10.6667304"><ele>89.0</ele><time>2026-03-28T09:32:50.762Z</time></trkpt><trkpt lat="45.3305241" lon="10.6669418"><ele>89.66666666666667</ele><time>2026-03-28T09:32:51.763Z</time></trkpt><trkpt lat="45.330599" lon="10.6671546"><ele>90.33333333333333</ele><time>2026-03-28T09:32:52.762Z</time></trkpt><trkpt lat="45.3306723" lon="10.6673679"><ele>91.0</ele><time>2026-03-28T09:32:53.762Z</time></trkpt><trkpt lat="45.3307451" lon="10.6675816"><ele>91.33333333333333</ele><time>2026-03-28T09:32:54.763Z</time></trkpt><trkpt lat="45.3308169" lon="10.6677945"><ele>91.66666666666667</ele><time>2026-03-28T09:32:55.762Z</time></trkpt><trkpt lat="45.3308903" lon="10.6680082"><ele>92.0</ele><time>2026-03-28T09:32:56.763Z</time></trkpt><trkpt lat="45.3309653" lon="10.6682219"><ele>92.0</ele><time>2026-03-28T09:32:57.763Z</time></trkpt><trkpt lat="45.3310459" lon="10.6684364"><ele>92.0</ele><time>2026-03-28T09:32:58.762Z</time></trkpt><trkpt lat="45.3311372" lon="10.6686458"><ele>92.0</ele><time>2026-03-28T09:32:59.763Z</time></trkpt><trkpt lat="45.3312435" lon="10.6688429"><ele>92.33333333333334</ele><time>2026-03-28T09:33:00.763Z</time></trkpt><trkpt lat="45.3313642" lon="10.6690271"><ele>92.66666666666667</ele><time>2026-03-28T09:33:01.762Z</time></trkpt><trkpt lat="45.3315025" lon="10.669187"><ele>93.0</ele><time>2026-03-28T09:33:02.762Z</time></trkpt><trkpt lat="45.3316546" lon="10.6693205"><ele>92.0</ele><time>2026-03-28T09:33:03.763Z</time></trkpt><trkpt lat="45.3318159" lon="10.6694399"><ele>91.0</ele><time>2026-03-28T09:33:04.762Z</time></trkpt><trkpt lat="45.331982" lon="10.6695473"><ele>90.0</ele><time>2026-03-28T09:33:05.762Z</time></trkpt><trkpt lat="45.3321503" lon="10.6696452"><ele>89.0</ele><time>2026-03-28T09:33:06.762Z</time></trkpt><trkpt lat="45.33232" lon="10.6697366"><ele>88.0</ele><time>2026-03-28T09:33:07.763Z</time></trkpt><trkpt lat="45.3324907" lon="10.6698214"><ele>87.0</ele><time>2026-03-28T09:33:08.762Z</time></trkpt><trkpt lat="45.3326615" lon="10.6699011"><ele>87.0</ele><time>2026-03-28T09:33:09.763Z</time></trkpt><trkpt lat="45.3328314" lon="10.6699772"><ele>87.0</ele><time>2026-03-28T09:33:10.762Z</time></trkpt><trkpt lat="45.3329984" lon="10.6700599"><ele>87.0</ele><time>2026-03-28T09:33:11.762Z</time></trkpt><trkpt lat="45.3331531" lon="10.6701512"><ele>87.0</ele><time>2026-03-28T09:33:12.763Z</time></trkpt><trkpt lat="45.3332962" lon="10.6702482"><ele>87.0</ele><time>2026-03-28T09:33:13.762Z</time></trkpt><trkpt lat="45.3334278" lon="10.6703483"><ele>87.0</ele><time>2026-03-28T09:33:14.762Z</time></trkpt><trkpt lat="45.3335479" lon="10.6704506"><ele>87.0</ele><time>2026-03-28T09:33:15.763Z</time></trkpt><trkpt lat="45.3336581" lon="10.6705565"><ele>86.6</ele><time>2026-03-28T09:33:16.762Z</time></trkpt><trkpt lat="45.3337606" lon="10.6706636"><ele>86.19999999999999</ele><time>2026-03-28T09:33:17.763Z</time></trkpt><trkpt lat="45.3338578" lon="10.6707651"><ele>85.8</ele><time>2026-03-28T09:33:18.763Z</time></trkpt><trkpt lat="45.3339321" lon="10.6708454"><ele>85.4</ele><time>2026-03-28T09:33:19.763Z</time></trkpt><trkpt lat="45.3339792" lon="10.670923"><ele>85.0</ele><time>2026-03-28T09:33:20.763Z</time></trkpt><trkpt lat="45.3339503" lon="10.6710477"><ele>84.6</ele><time>2026-03-28T09:33:23.763Z</time></trkpt><trkpt lat="45.3338786" lon="10.6711839"><ele>84.2</ele><time>2026-03-28T09:33:25.762Z</time></trkpt><trkpt lat="45.3338342" lon="10.6712815"><ele>83.80000000000001</ele><time>2026-03-28T09:33:26.763Z</time></trkpt><trkpt lat="45.333787" lon="10.6713917"><ele>83.4</ele><time>2026-03-28T09:33:27.762Z</time></trkpt><trkpt lat="45.3337277" lon="10.6715253"><ele>83.0</ele><time>2026-03-28T09:33:28.762Z</time></trkpt><trkpt lat="45.3336664" lon="10.6716599"><ele>83.0</ele><time>2026-03-28T09:33:29.763Z</time></trkpt><trkpt lat="45.3336105" lon="10.671776"><ele>83.0</ele><time>2026-03-28T09:33:30.762Z</time></trkpt><trkpt lat="45.3335466" lon="10.6719005"><ele>83.0</ele><time>2026-03-28T09:33:31.762Z</time></trkpt><trkpt lat="45.3334813" lon="10.6720191"><ele>83.0</ele><time>2026-03-28T09:33:32.762Z</time></trkpt><trkpt lat="45.3334175" lon="10.6721272"><ele>83.0</ele><time>2026-03-28T09:33:33.763Z</time></trkpt><trkpt lat="45.3333618" lon="10.6722319"><ele>82.5</ele><time>2026-03-28T09:33:34.762Z</time></trkpt><trkpt lat="45.3333182" lon="10.6723331"><ele>82.0</ele><time>2026-03-28T09:33:35.762Z</time></trkpt><trkpt lat="45.3332884" lon="10.6724366"><ele>81.5</ele><time>2026-03-28T09:33:36.763Z</time></trkpt><trkpt lat="45.333275" lon="10.6725459"><ele>81.0</ele><time>2026-03-28T09:33:37.762Z</time></trkpt><trkpt lat="45.3332756" lon="10.6726626"><ele>80.5</ele><time>2026-03-28T09:33:38.763Z</time></trkpt><trkpt lat="45.3332804" lon="10.6727812"><ele>80.0</ele><time>2026-03-28T09:33:39.763Z</time></trkpt><trkpt lat="45.3332815" lon="10.6728879"><ele>80.0</ele><time>2026-03-28T09:33:40.762Z</time></trkpt><trkpt lat="45.3332761" lon="10.6729878"><ele>80.0</ele><time>2026-03-28T09:33:41.762Z</time></trkpt><trkpt lat="45.33329" lon="10.6731154"><ele>80.0</ele><time>2026-03-28T09:33:43.762Z</time></trkpt><trkpt lat="45.3333583" lon="10.6732727"><ele>80.0</ele><time>2026-03-28T09:33:45.764Z</time></trkpt><trkpt lat="45.333401" lon="10.6734042"><ele>80.0</ele><time>2026-03-28T09:33:46.762Z</time></trkpt><trkpt lat="45.3334491" lon="10.6735567"><ele>80.4</ele><time>2026-03-28T09:33:47.763Z</time></trkpt><trkpt lat="45.3334865" lon="10.673688"><ele>80.8</ele><time>2026-03-28T09:33:48.763Z</time></trkpt><trkpt lat="45.3335212" lon="10.6737975"><ele>81.19999999999999</ele><time>2026-03-28T09:33:49.763Z</time></trkpt><trkpt lat="45.3335555" lon="10.6739292"><ele>81.6</ele><time>2026-03-28T09:33:51.762Z</time></trkpt><trkpt lat="45.3335268" lon="10.6740652"><ele>82.0</ele><time>2026-03-28T09:33:53.763Z</time></trkpt><trkpt lat="45.3334785" lon="10.6741612"><ele>82.0</ele><time>2026-03-28T09:33:54.764Z</time></trkpt><trkpt lat="45.3334355" lon="10.6742895"><ele>82.0</ele><time>2026-03-28T09:33:55.763Z</time></trkpt><trkpt lat="45.333407" lon="10.674418"><ele>82.0</ele><time>2026-03-28T09:33:56.762Z</time></trkpt><trkpt lat="45.3333934" lon="10.6745398"><ele>82.0</ele><time>2026-03-28T09:33:57.762Z</time></trkpt><trkpt lat="45.3333997" lon="10.6746777"><ele>82.0</ele><time>2026-03-28T09:33:58.762Z</time></trkpt><trkpt lat="45.3334385" lon="10.6748236"><ele>82.0</ele><time>2026-03-28T09:33:59.763Z</time></trkpt><trkpt lat="45.3335019" lon="10.6749794"><ele>82.0</ele><time>2026-03-28T09:34:00.762Z</time></trkpt><trkpt lat="45.3335572" lon="10.6751154"><ele>82.0</ele><time>2026-03-28T09:34:01.762Z</time></trkpt><trkpt lat="45.3336026" lon="10.6752465"><ele>82.0</ele><time>2026-03-28T09:34:02.763Z</time></trkpt><trkpt lat="45.3336533" lon="10.6753543"><ele>82.0</ele><time>2026-03-28T09:34:03.763Z</time></trkpt><trkpt lat="45.3337043" lon="10.6754387"><ele>82.0</ele><time>2026-03-28T09:34:04.763Z</time></trkpt><trkpt lat="45.3337683" lon="10.6754901"><ele>82.0</ele><time>2026-03-28T09:34:05.762Z</time></trkpt><trkpt lat="45.3338367" lon="10.6755268"><ele>82.0</ele><time>2026-03-28T09:34:06.763Z</time></trkpt><trkpt lat="45.3339103" lon="10.6756539"><ele>82.0</ele><time>2026-03-28T09:34:08.762Z</time></trkpt><trkpt lat="45.333909" lon="10.6757556"><ele>82.0</ele><time>2026-03-28T09:34:09.762Z</time></trkpt><trkpt lat="45.3339029" lon="10.6758763"><ele>82.0</ele><time>2026-03-28T09:34:10.763Z</time></trkpt><trkpt lat="45.333901" lon="10.6760192"><ele>83.0</ele><time>2026-03-28T09:34:11.763Z</time></trkpt><trkpt lat="45.3338989" lon="10.676177"><ele>84.0</ele><time>2026-03-28T09:34:12.762Z</time></trkpt><trkpt lat="45.33391" lon="10.6763486"><ele>85.0</ele><time>2026-03-28T09:34:13.762Z</time></trkpt><trkpt lat="45.3339304" lon="10.676529"><ele>86.0</ele><time>2026-03-28T09:34:14.763Z</time></trkpt><trkpt lat="45.3339515" lon="10.676715"><ele>86.0</ele><time>2026-03-28T09:34:15.762Z</time></trkpt><trkpt lat="45.3339719" lon="10.6768883"><ele>86.0</ele><time>2026-03-28T09:34:16.763Z</time></trkpt><trkpt lat="45.3339937" lon="10.6770416"><ele>86.0</ele><time>2026-03-28T09:34:17.763Z</time></trkpt><trkpt lat="45.3340137" lon="10.677173"><ele>86.0</ele><time>2026-03-28T09:34:18.762Z</time></trkpt><trkpt lat="45.3340353" lon="10.6772912"><ele>86.0</ele><time>2026-03-28T09:34:19.762Z</time></trkpt><trkpt lat="45.3340647" lon="10.6774143"><ele>86.33333333333334</ele><time>2026-03-28T09:34:20.763Z</time></trkpt><trkpt lat="45.3341" lon="10.6775375"><ele>86.66666666666667</ele><time>2026-03-28T09:34:21.762Z</time></trkpt><trkpt lat="45.3341392" lon="10.6776544"><ele>87.0</ele><time>2026-03-28T09:34:22.762Z</time></trkpt><trkpt lat="45.3341822" lon="10.6777572"><ele>87.33333333333333</ele><time>2026-03-28T09:34:23.762Z</time></trkpt><trkpt lat="45.3342259" lon="10.6778687"><ele>87.66666666666666</ele><time>2026-03-28T09:34:24.763Z</time></trkpt><trkpt lat="45.3342599" lon="10.6779799"><ele>88.0</ele><time>2026-03-28T09:34:25.763Z</time></trkpt><trkpt lat="45.3342913" lon="10.6781014"><ele>88.0</ele><time>2026-03-28T09:34:26.762Z</time></trkpt><trkpt lat="45.3343199" lon="10.6782005"><ele>88.0</ele><time>2026-03-28T09:34:27.763Z</time></trkpt><trkpt lat="45.3343532" lon="10.6782886"><ele>88.0</ele><time>2026-03-28T09:34:28.763Z</time></trkpt><trkpt lat="45.3344016" lon="10.6783815"><ele>88.0</ele><time>2026-03-28T09:34:29.763Z</time></trkpt><trkpt lat="45.3344623" lon="10.6784724"><ele>88.0</ele><time>2026-03-28T09:34:30.762Z</time></trkpt><trkpt lat="45.334523" lon="10.678545"><ele>88.0</ele><time>2026-03-28T09:34:31.762Z</time></trkpt><trkpt lat="45.3345898" lon="10.6786065"><ele>88.0</ele><time>2026-03-28T09:34:32.763Z</time></trkpt><trkpt lat="45.3346603" lon="10.6786537"><ele>88.0</ele><time>2026-03-28T09:34:33.763Z</time></trkpt><trkpt lat="45.3347263" lon="10.6786732"><ele>88.0</ele><time>2026-03-28T09:34:34.762Z</time></trkpt><trkpt lat="45.334791" lon="10.678655"><ele>88.0</ele><time>2026-03-28T09:34:35.763Z</time></trkpt><trkpt lat="45.3348677" lon="10.6786132"><ele>88.0</ele><time>2026-03-28T09:34:36.762Z</time></trkpt><trkpt lat="45.3349683" lon="10.6785464"><ele>88.0</ele><time>2026-03-28T09:34:37.762Z</time></trkpt><trkpt lat="45.335062" lon="10.678472"><ele>89.0</ele><time>2026-03-28T09:34:38.763Z</time></trkpt><trkpt lat="45.3351414" lon="10.6784115"><ele>90.0</ele><time>2026-03-28T09:34:39.762Z</time></trkpt><trkpt lat="45.3352168" lon="10.6783789"><ele>91.0</ele><time>2026-03-28T09:34:40.763Z</time></trkpt><trkpt lat="45.335299" lon="10.6783743"><ele>92.0</ele><time>2026-03-28T09:34:41.762Z</time></trkpt><trkpt lat="45.335364" lon="10.6784035"><ele>93.0</ele><time>2026-03-28T09:34:42.763Z</time></trkpt><trkpt lat="45.3354831" lon="10.6785331"><ele>91.0</ele><time>2026-03-28T09:34:44.762Z</time></trkpt><trkpt lat="45.3355629" lon="10.6786504"><ele>89.0</ele><time>2026-03-28T09:34:45.762Z</time></trkpt><trkpt lat="45.3356444" lon="10.6787769"><ele>87.0</ele><time>2026-03-28T09:34:46.763Z</time></trkpt><trkpt lat="45.3357254" lon="10.6789058"><ele>85.0</ele><time>2026-03-28T09:34:47.762Z</time></trkpt><trkpt lat="45.3358118" lon="10.6790488"><ele>85.0</ele><time>2026-03-28T09:34:48.763Z</time></trkpt><trkpt lat="45.3358953" lon="10.6791897"><ele>85.0</ele><time>2026-03-28T09:34:49.763Z</time></trkpt><trkpt lat="45.3359862" lon="10.6793403"><ele>85.0</ele><time>2026-03-28T09:34:50.762Z</time></trkpt><trkpt lat="45.3360866" lon="10.6794977"><ele>85.0</ele><time>2026-03-28T09:34:51.763Z</time></trkpt><trkpt lat="45.336176" lon="10.6796358"><ele>85.0</ele><time>2026-03-28T09:34:52.762Z</time></trkpt><trkpt lat="45.3362663" lon="10.6797798"><ele>85.0</ele><time>2026-03-28T09:34:53.763Z</time></trkpt><trkpt lat="45.3363548" lon="10.6799174"><ele>85.0</ele><time>2026-03-28T09:34:54.762Z</time></trkpt><trkpt lat="45.3364338" lon="10.6800353"><ele>85.0</ele><time>2026-03-28T09:34:55.763Z</time></trkpt><trkpt lat="45.3364907" lon="10.6801301"><ele>85.0</ele><time>2026-03-28T09:34:56.762Z</time></trkpt><trkpt lat="45.3365365" lon="10.6802055"><ele>85.0</ele><time>2026-03-28T09:34:57.763Z</time></trkpt><trkpt lat="45.33658" lon="10.6802723"><ele>85.0</ele><time>2026-03-28T09:34:58.763Z</time></trkpt><trkpt lat="45.3366622" lon="10.6804031"><ele>85.0</ele><time>2026-03-28T09:35:00.763Z</time></trkpt><trkpt lat="45.336734" lon="10.6804731"><ele>85.0</ele><time>2026-03-28T09:35:02.762Z</time></trkpt><trkpt lat="45.3368412" lon="10.6804015"><ele>85.0</ele><time>2026-03-28T09:35:04.762Z</time></trkpt><trkpt lat="45.3369229" lon="10.6802915"><ele>85.0</ele><time>2026-03-28T09:35:05.763Z</time></trkpt><trkpt lat="45.3370429" lon="10.6801308"><ele>85.0</ele><time>2026-03-28T09:35:06.762Z</time></trkpt><trkpt lat="45.3371879" lon="10.6799417"><ele>86.0</ele><time>2026-03-28T09:35:07.763Z</time></trkpt><trkpt lat="45.3373255" lon="10.6797625"><ele>87.0</ele><time>2026-03-28T09:35:08.762Z</time></trkpt><trkpt lat="45.3374641" lon="10.6795725"><ele>88.0</ele><time>2026-03-28T09:35:09.762Z</time></trkpt><trkpt lat="45.3375983" lon="10.6793916"><ele>88.0</ele><time>2026-03-28T09:35:10.763Z</time></trkpt><trkpt lat="45.3377569" lon="10.6792174"><ele>88.0</ele><time>2026-03-28T09:35:11.762Z</time></trkpt><trkpt lat="45.3379134" lon="10.6790778"><ele>88.0</ele><time>2026-03-28T09:35:12.762Z</time></trkpt><trkpt lat="45.3380545" lon="10.6789534"><ele>88.0</ele><time>2026-03-28T09:35:13.763Z</time></trkpt><trkpt lat="45.3381759" lon="10.6788348"><ele>88.0</ele><time>2026-03-28T09:35:14.762Z</time></trkpt><trkpt lat="45.3382802" lon="10.6787376"><ele>88.0</ele><time>2026-03-28T09:35:15.763Z</time></trkpt><trkpt lat="45.3383671" lon="10.6786591"><ele>88.0</ele><time>2026-03-28T09:35:16.762Z</time></trkpt><trkpt lat="45.338438" lon="10.6785932"><ele>88.0</ele><time>2026-03-28T09:35:17.762Z</time></trkpt><trkpt lat="45.3384969" lon="10.6785499"><ele>88.0</ele><time>2026-03-28T09:35:18.762Z</time></trkpt><trkpt lat="45.3385744" lon="10.6785982"><ele>88.0</ele><time>2026-03-28T09:35:20.763Z</time></trkpt><trkpt lat="45.338646" lon="10.6787418"><ele>88.0</ele><time>2026-03-28T09:35:22.763Z</time></trkpt><trkpt lat="45.3386884" lon="10.6788649"><ele>88.0</ele><time>2026-03-28T09:35:23.763Z</time></trkpt><trkpt lat="45.3387475" lon="10.6789933"><ele>88.0</ele><time>2026-03-28T09:35:24.763Z</time></trkpt><trkpt lat="45.3388216" lon="10.6791403"><ele>88.0</ele><time>2026-03-28T09:35:25.763Z</time></trkpt><trkpt lat="45.3388822" lon="10.6792869"><ele>88.0</ele><time>2026-03-28T09:35:26.762Z</time></trkpt><trkpt lat="45.3389419" lon="10.6794229"><ele>88.0</ele><time>2026-03-28T09:35:27.763Z</time></trkpt><trkpt lat="45.3390039" lon="10.6795465"><ele>88.4</ele><time>2026-03-28T09:35:28.762Z</time></trkpt><trkpt lat="45.3390582" lon="10.6796604"><ele>88.80000000000001</ele><time>2026-03-28T09:35:29.762Z</time></trkpt><trkpt lat="45.339101" lon="10.6797771"><ele>89.2</ele><time>2026-03-28T09:35:30.763Z</time></trkpt><trkpt lat="45.3391465" lon="10.679902"><ele>89.6</ele><time>2026-03-28T09:35:31.762Z</time></trkpt><trkpt lat="45.3391894" lon="10.6800142"><ele>90.0</ele><time>2026-03-28T09:35:32.762Z</time></trkpt><trkpt lat="45.3392373" lon="10.680151"><ele>90.0</ele><time>2026-03-28T09:35:33.763Z</time></trkpt><trkpt lat="45.3392924" lon="10.6802766"><ele>90.0</ele><time>2026-03-28T09:35:34.762Z</time></trkpt><trkpt lat="45.3393376" lon="10.6804081"><ele>90.0</ele><time>2026-03-28T09:35:35.763Z</time></trkpt><trkpt lat="45.3393933" lon="10.6805535"><ele>90.0</ele><time>2026-03-28T09:35:36.762Z</time></trkpt><trkpt lat="45.3394547" lon="10.6806999"><ele>90.0</ele><time>2026-03-28T09:35:37.762Z</time></trkpt><trkpt lat="45.3395148" lon="10.6808342"><ele>90.0</ele><time>2026-03-28T09:35:38.762Z</time></trkpt><trkpt lat="45.3395715" lon="10.6809691"><ele>90.0</ele><time>2026-03-28T09:35:39.763Z</time></trkpt><trkpt lat="45.3396314" lon="10.6811145"><ele>90.0</ele><time>2026-03-28T09:35:40.763Z</time></trkpt><trkpt lat="45.3396943" lon="10.6812534"><ele>90.0</ele><time>2026-03-28T09:35:41.762Z</time></trkpt><trkpt lat="45.3397508" lon="10.6813847"><ele>90.2</ele><time>2026-03-28T09:35:42.763Z</time></trkpt><trkpt lat="45.3398066" lon="10.6815117"><ele>90.4</ele><time>2026-03-28T09:35:43.762Z</time></trkpt><trkpt lat="45.3398547" lon="10.6816326"><ele>90.6</ele><time>2026-03-28T09:35:44.762Z</time></trkpt><trkpt lat="45.3398962" lon="10.6817478"><ele>90.8</ele><time>2026-03-28T09:35:45.762Z</time></trkpt><trkpt lat="45.3399391" lon="10.6818721"><ele>91.0</ele><time>2026-03-28T09:35:46.763Z</time></trkpt><trkpt lat="45.3399752" lon="10.6819899"><ele>91.0</ele><time>2026-03-28T09:35:47.763Z</time></trkpt><trkpt lat="45.3399915" lon="10.6821086"><ele>91.0</ele><time>2026-03-28T09:35:48.763Z</time></trkpt><trkpt lat="45.3399879" lon="10.68225"><ele>91.0</ele><time>2026-03-28T09:35:49.763Z</time></trkpt><trkpt lat="45.339988" lon="10.6824053"><ele>91.0</ele><time>2026-03-28T09:35:50.763Z</time></trkpt><trkpt lat="45.34" lon="10.6825691"><ele>91.0</ele><time>2026-03-28T09:35:51.762Z</time></trkpt><trkpt lat="45.3400203" lon="10.6827221"><ele>91.25</ele><time>2026-03-28T09:35:52.763Z</time></trkpt><trkpt lat="45.3400614" lon="10.6828841"><ele>91.5</ele><time>2026-03-28T09:35:53.762Z</time></trkpt><trkpt lat="45.3401197" lon="10.6830657"><ele>91.75</ele><time>2026-03-28T09:35:54.762Z</time></trkpt><trkpt lat="45.340182" lon="10.6832501"><ele>92.0</ele><time>2026-03-28T09:35:55.764Z</time></trkpt><trkpt lat="45.3402378" lon="10.6834205"><ele>92.0</ele><time>2026-03-28T09:35:56.763Z</time></trkpt><trkpt lat="45.3402899" lon="10.6835874"><ele>92.0</ele><time>2026-03-28T09:35:57.763Z</time></trkpt><trkpt lat="45.3403429" lon="10.6837573"><ele>92.0</ele><time>2026-03-28T09:35:58.762Z</time></trkpt><trkpt lat="45.3403908" lon="10.6839116"><ele>92.0</ele><time>2026-03-28T09:35:59.762Z</time></trkpt><trkpt lat="45.3404372" lon="10.6840542"><ele>91.6</ele><time>2026-03-28T09:36:00.762Z</time></trkpt><trkpt lat="45.3404745" lon="10.6841866"><ele>91.19999999999999</ele><time>2026-03-28T09:36:01.762Z</time></trkpt><trkpt lat="45.3405086" lon="10.6843262"><ele>90.8</ele><time>2026-03-28T09:36:02.762Z</time></trkpt><trkpt lat="45.3405361" lon="10.6844709"><ele>90.4</ele><time>2026-03-28T09:36:03.763Z</time></trkpt><trkpt lat="45.3405567" lon="10.6846278"><ele>90.0</ele><time>2026-03-28T09:36:04.762Z</time></trkpt><trkpt lat="45.340579" lon="10.6847967"><ele>90.2</ele><time>2026-03-28T09:36:05.762Z</time></trkpt><trkpt lat="45.3406" lon="10.6849501"><ele>90.4</ele><time>2026-03-28T09:36:06.763Z</time></trkpt><trkpt lat="45.3406244" lon="10.6850932"><ele>90.6</ele><time>2026-03-28T09:36:07.763Z</time></trkpt><trkpt lat="45.3406457" lon="10.6852245"><ele>90.8</ele><time>2026-03-28T09:36:08.763Z</time></trkpt><trkpt lat="45.34067" lon="10.685366"><ele>91.0</ele><time>2026-03-28T09:36:09.763Z</time></trkpt><trkpt lat="45.3406962" lon="10.6855074"><ele>91.0</ele><time>2026-03-28T09:36:10.763Z</time></trkpt><trkpt lat="45.3407231" lon="10.6856512"><ele>91.0</ele><time>2026-03-28T09:36:11.763Z</time></trkpt><trkpt lat="45.3407513" lon="10.6858031"><ele>91.0</ele><time>2026-03-28T09:36:12.762Z</time></trkpt><trkpt lat="45.3407804" lon="10.6859417"><ele>91.0</ele><time>2026-03-28T09:36:13.762Z</time></trkpt><trkpt lat="45.3408078" lon="10.6860702"><ele>91.0</ele><time>2026-03-28T09:36:14.763Z</time></trkpt><trkpt lat="45.3408319" lon="10.6861981"><ele>90.75</ele><time>2026-03-28T09:36:15.763Z</time></trkpt><trkpt lat="45.3408667" lon="10.686342"><ele>90.5</ele><time>2026-03-28T09:36:16.762Z</time></trkpt><trkpt lat="45.3409069" lon="10.6865133"><ele>90.25</ele><time>2026-03-28T09:36:17.762Z</time></trkpt><trkpt lat="45.3409331" lon="10.6866663"><ele>90.0</ele><time>2026-03-28T09:36:18.762Z</time></trkpt><trkpt lat="45.3409552" lon="10.6868219"><ele>90.25</ele><time>2026-03-28T09:36:19.762Z</time></trkpt><trkpt lat="45.3409633" lon="10.6869935"><ele>90.5</ele><time>2026-03-28T09:36:20.762Z</time></trkpt><trkpt lat="45.3409616" lon="10.6871466"><ele>90.75</ele><time>2026-03-28T09:36:21.763Z</time></trkpt><trkpt lat="45.3409784" lon="10.6873001"><ele>91.0</ele><time>2026-03-28T09:36:22.762Z</time></trkpt><trkpt lat="45.3410015" lon="10.6874687"><ele>91.0</ele><time>2026-03-28T09:36:23.762Z</time></trkpt><trkpt lat="45.3410319" lon="10.6876311"><ele>91.0</ele><time>2026-03-28T09:36:24.763Z</time></trkpt><trkpt lat="45.3410635" lon="10.687799"><ele>91.0</ele><time>2026-03-28T09:36:25.763Z</time></trkpt><trkpt lat="45.3410933" lon="10.6879645"><ele>91.0</ele><time>2026-03-28T09:36:26.762Z</time></trkpt><trkpt lat="45.3411229" lon="10.688127"><ele>91.0</ele><time>2026-03-28T09:36:27.762Z</time></trkpt><trkpt lat="45.3411548" lon="10.68829"><ele>91.0</ele><time>2026-03-28T09:36:28.763Z</time></trkpt><trkpt lat="45.3411946" lon="10.688461"><ele>91.0</ele><time>2026-03-28T09:36:29.763Z</time></trkpt><trkpt lat="45.3412395" lon="10.6886414"><ele>91.0</ele><time>2026-03-28T09:36:30.763Z</time></trkpt><trkpt lat="45.3412825" lon="10.6888234"><ele>91.0</ele><time>2026-03-28T09:36:31.762Z</time></trkpt><trkpt lat="45.341332" lon="10.6890222"><ele>91.0</ele><time>2026-03-28T09:36:32.762Z</time></trkpt><trkpt lat="45.3413908" lon="10.6892378"><ele>91.0</ele><time>2026-03-28T09:36:33.763Z</time></trkpt><trkpt lat="45.3414432" lon="10.6894262"><ele>91.0</ele><time>2026-03-28T09:36:34.763Z</time></trkpt><trkpt lat="45.3414887" lon="10.6895852"><ele>91.0</ele><time>2026-03-28T09:36:35.762Z</time></trkpt><trkpt lat="45.34153" lon="10.6897229"><ele>91.0</ele><time>2026-03-28T09:36:36.762Z</time></trkpt><trkpt lat="45.3415768" lon="10.6898501"><ele>91.0</ele><time>2026-03-28T09:36:37.763Z</time></trkpt><trkpt lat="45.3416329" lon="10.6899958"><ele>91.0</ele><time>2026-03-28T09:36:38.763Z</time></trkpt><trkpt lat="45.3416891" lon="10.6901573"><ele>91.33333333333333</ele><time>2026-03-28T09:36:39.762Z</time></trkpt><trkpt lat="45.3417503" lon="10.6903637"><ele>91.66666666666667</ele><time>2026-03-28T09:36:40.762Z</time></trkpt><trkpt lat="45.3418148" lon="10.6905719"><ele>92.0</ele><time>2026-03-28T09:36:41.762Z</time></trkpt><trkpt lat="45.3418882" lon="10.6907685"><ele>92.0</ele><time>2026-03-28T09:36:42.763Z</time></trkpt><trkpt lat="45.3419433" lon="10.6909611"><ele>92.0</ele><time>2026-03-28T09:36:43.763Z</time></trkpt><trkpt lat="45.3419807" lon="10.6911565"><ele>92.0</ele><time>2026-03-28T09:36:44.763Z</time></trkpt><trkpt lat="45.3420038" lon="10.6913793"><ele>92.0</ele><time>2026-03-28T09:36:45.763Z</time></trkpt><trkpt lat="45.3420089" lon="10.6915973"><ele>92.25</ele><time>2026-03-28T09:36:46.762Z</time></trkpt><trkpt lat="45.3420062" lon="10.6918052"><ele>92.5</ele><time>2026-03-28T09:36:47.762Z</time></trkpt><trkpt lat="45.3420136" lon="10.6920127"><ele>92.75</ele><time>2026-03-28T09:36:48.762Z</time></trkpt><trkpt lat="45.3420242" lon="10.6921909"><ele>93.0</ele><time>2026-03-28T09:36:49.763Z</time></trkpt><trkpt lat="45.3420387" lon="10.6923674"><ele>93.25</ele><time>2026-03-28T09:36:50.764Z</time></trkpt><trkpt lat="45.342059" lon="10.6925324"><ele>93.5</ele><time>2026-03-28T09:36:51.763Z</time></trkpt><trkpt lat="45.3420856" lon="10.6926964"><ele>93.75</ele><time>2026-03-28T09:36:52.763Z</time></trkpt><trkpt lat="45.3421265" lon="10.6928642"><ele>94.0</ele><time>2026-03-28T09:36:53.762Z</time></trkpt><trkpt lat="45.3421761" lon="10.6930436"><ele>95.75</ele><time>2026-03-28T09:36:54.762Z</time></trkpt><trkpt lat="45.3422321" lon="10.6932349"><ele>97.5</ele><time>2026-03-28T09:36:55.763Z</time></trkpt><trkpt lat="45.3422841" lon="10.6934207"><ele>99.25</ele><time>2026-03-28T09:36:56.763Z</time></trkpt><trkpt lat="45.3423309" lon="10.6935887"><ele>101.0</ele><time>2026-03-28T09:36:57.763Z</time></trkpt><trkpt lat="45.3423753" lon="10.6937432"><ele>101.0</ele><time>2026-03-28T09:36:58.762Z</time></trkpt><trkpt lat="45.3424183" lon="10.6938833"><ele>101.0</ele><time>2026-03-28T09:36:59.762Z</time></trkpt><trkpt lat="45.3424608" lon="10.6940195"><ele>101.0</ele><time>2026-03-28T09:37:00.763Z</time></trkpt><trkpt lat="45.3424986" lon="10.6941337"><ele>101.0</ele><time>2026-03-28T09:37:01.763Z</time></trkpt><trkpt lat="45.3425318" lon="10.6942418"><ele>101.0</ele><time>2026-03-28T09:37:02.762Z</time></trkpt><trkpt lat="45.3425696" lon="10.6943644"><ele>100.75</ele><time>2026-03-28T09:37:03.763Z</time></trkpt><trkpt lat="45.3426093" lon="10.694521"><ele>100.5</ele><time>2026-03-28T09:37:04.763Z</time></trkpt><trkpt lat="45.3426399" lon="10.6947036"><ele>100.25</ele><time>2026-03-28T09:37:05.763Z</time></trkpt><trkpt lat="45.3426712" lon="10.6949144"><ele>100.0</ele><time>2026-03-28T09:37:06.762Z</time></trkpt><trkpt lat="45.3427117" lon="10.695154"><ele>99.66666666666667</ele><time>2026-03-28T09:37:07.762Z</time></trkpt><trkpt lat="45.3427506" lon="10.6954411"><ele>99.33333333333334</ele><time>2026-03-28T09:37:08.763Z</time></trkpt><trkpt lat="45.3427842" lon="10.6956677"><ele>99.0</ele><time>2026-03-28T09:37:09.762Z</time></trkpt><trkpt lat="45.3428107" lon="10.6958725"><ele>99.0</ele><time>2026-03-28T09:37:10.762Z</time></trkpt><trkpt lat="45.3428297" lon="10.6960525"><ele>99.0</ele><time>2026-03-28T09:37:11.762Z</time></trkpt><trkpt lat="45.3428449" lon="10.6962026"><ele>99.0</ele><time>2026-03-28T09:37:12.762Z</time></trkpt><trkpt lat="45.342864" lon="10.6963345"><ele>99.0</ele><time>2026-03-28T09:37:13.763Z</time></trkpt><trkpt lat="45.3428901" lon="10.6964801"><ele>99.0</ele><time>2026-03-28T09:37:14.762Z</time></trkpt><trkpt lat="45.342926" lon="10.6966303"><ele>98.75</ele><time>2026-03-28T09:37:15.762Z</time></trkpt><trkpt lat="45.3429727" lon="10.6967929"><ele>98.5</ele><time>2026-03-28T09:37:16.762Z</time></trkpt><trkpt lat="45.3430375" lon="10.6969824"><ele>98.25</ele><time>2026-03-28T09:37:17.763Z</time></trkpt><trkpt lat="45.3431089" lon="10.6972032"><ele>98.0</ele><time>2026-03-28T09:37:18.763Z</time></trkpt><trkpt lat="45.3431889" lon="10.6974613"><ele>98.33333333333333</ele><time>2026-03-28T09:37:19.763Z</time></trkpt><trkpt lat="45.3432638" lon="10.697695"><ele>98.66666666666666</ele><time>2026-03-28T09:37:20.762Z</time></trkpt><trkpt lat="45.3433345" lon="10.6979063"><ele>99.0</ele><time>2026-03-28T09:37:21.763Z</time></trkpt><trkpt lat="45.3433982" lon="10.698105"><ele>99.0</ele><time>2026-03-28T09:37:22.762Z</time></trkpt><trkpt lat="45.3434744" lon="10.6983005"><ele>99.0</ele><time>2026-03-28T09:37:23.762Z</time></trkpt><trkpt lat="45.3435851" lon="10.6984947"><ele>99.0</ele><time>2026-03-28T09:37:24.762Z</time></trkpt><trkpt lat="45.343723" lon="10.6987077"><ele>99.0</ele><time>2026-03-28T09:37:25.763Z</time></trkpt><trkpt lat="45.3438624" lon="10.698964"><ele>99.0</ele><time>2026-03-28T09:37:26.762Z</time></trkpt><trkpt lat="45.3440053" lon="10.6992718"><ele>97.5</ele><time>2026-03-28T09:37:27.763Z</time></trkpt><trkpt lat="45.3441566" lon="10.6996312"><ele>96.0</ele><time>2026-03-28T09:37:28.763Z</time></trkpt><trkpt lat="45.3443103" lon="10.7000277"><ele>96.0</ele><time>2026-03-28T09:37:29.762Z</time></trkpt><trkpt lat="45.3444603" lon="10.7004101"><ele>96.0</ele><time>2026-03-28T09:37:30.762Z</time></trkpt><trkpt lat="45.344579" lon="10.7007014"><ele>96.0</ele><time>2026-03-28T09:37:31.763Z</time></trkpt><trkpt lat="45.3446701" lon="10.7009282"><ele>96.0</ele><time>2026-03-28T09:37:32.762Z</time></trkpt><trkpt lat="45.3447358" lon="10.7010965"><ele>96.0</ele><time>2026-03-28T09:37:33.763Z</time></trkpt><trkpt lat="45.3447837" lon="10.7012245"><ele>96.0</ele><time>2026-03-28T09:37:34.762Z</time></trkpt><trkpt lat="45.3448228" lon="10.7013232"><ele>96.0</ele><time>2026-03-28T09:37:35.762Z</time></trkpt><trkpt lat="45.3448783" lon="10.70141"><ele>96.0</ele><time>2026-03-28T09:37:37.763Z</time></trkpt><trkpt lat="45.3449589" lon="10.7013751"><ele>96.0</ele><time>2026-03-28T09:37:39.763Z</time></trkpt><trkpt lat="45.3450136" lon="10.7012746"><ele>96.0</ele><time>2026-03-28T09:37:40.762Z</time></trkpt><trkpt lat="45.3450768" lon="10.7011453"><ele>96.0</ele><time>2026-03-28T09:37:41.762Z</time></trkpt><trkpt lat="45.3451334" lon="10.7010292"><ele>96.25</ele><time>2026-03-28T09:37:42.763Z</time></trkpt><trkpt lat="45.3451938" lon="10.7008893"><ele>96.5</ele><time>2026-03-28T09:37:43.763Z</time></trkpt><trkpt lat="45.3452568" lon="10.7007257"><ele>96.75</ele><time>2026-03-28T09:37:44.764Z</time></trkpt><trkpt lat="45.3453357" lon="10.7005403"><ele>97.0</ele><time>2026-03-28T09:37:45.762Z</time></trkpt><trkpt lat="45.3454368" lon="10.7003212"><ele>98.33333333333334</ele><time>2026-03-28T09:37:46.762Z</time></trkpt><trkpt lat="45.3455397" lon="10.700112"><ele>99.66666666666666</ele><time>2026-03-28T09:37:47.763Z</time></trkpt><trkpt lat="45.3456541" lon="10.6999181"><ele>101.0</ele><time>2026-03-28T09:37:48.763Z</time></trkpt><trkpt lat="45.3457762" lon="10.6997274"><ele>103.66666666666666</ele><time>2026-03-28T09:37:49.762Z</time></trkpt><trkpt lat="45.3458808" lon="10.6995463"><ele>106.33333333333334</ele><time>2026-03-28T09:37:50.762Z</time></trkpt><trkpt lat="45.3459792" lon="10.6993754"><ele>109.0</ele><time>2026-03-28T09:37:51.763Z</time></trkpt><trkpt lat="45.3460628" lon="10.6992108"><ele>109.5</ele><time>2026-03-28T09:37:52.763Z</time></trkpt><trkpt lat="45.3461289" lon="10.6990478"><ele>110.0</ele><time>2026-03-28T09:37:53.763Z</time></trkpt><trkpt lat="45.3461903" lon="10.6988911"><ele>110.5</ele><time>2026-03-28T09:37:54.762Z</time></trkpt><trkpt lat="45.3462388" lon="10.698733"><ele>111.0</ele><time>2026-03-28T09:37:55.762Z</time></trkpt><trkpt lat="45.3462767" lon="10.6985718"><ele>110.0</ele><time>2026-03-28T09:37:56.763Z</time></trkpt><trkpt lat="45.3463199" lon="10.6984136"><ele>109.0</ele><time>2026-03-28T09:37:57.763Z</time></trkpt><trkpt lat="45.3463724" lon="10.6982479"><ele>108.0</ele><time>2026-03-28T09:37:58.763Z</time></trkpt><trkpt lat="45.3464359" lon="10.6980864"><ele>107.0</ele><time>2026-03-28T09:37:59.762Z</time></trkpt><trkpt lat="45.3465075" lon="10.6979216"><ele>105.0</ele><time>2026-03-28T09:38:00.762Z</time></trkpt><trkpt lat="45.3465936" lon="10.6977496"><ele>103.0</ele><time>2026-03-28T09:38:01.763Z</time></trkpt><trkpt lat="45.3466857" lon="10.6975803"><ele>101.0</ele><time>2026-03-28T09:38:02.762Z</time></trkpt><trkpt lat="45.3467779" lon="10.697405"><ele>101.0</ele><time>2026-03-28T09:38:03.763Z</time></trkpt><trkpt lat="45.3468721" lon="10.6972348"><ele>101.0</ele><time>2026-03-28T09:38:04.762Z</time></trkpt><trkpt lat="45.3469786" lon="10.6970754"><ele>101.0</ele><time>2026-03-28T09:38:05.762Z</time></trkpt><trkpt lat="45.3471003" lon="10.6969277"><ele>100.33333333333333</ele><time>2026-03-28T09:38:06.763Z</time></trkpt><trkpt lat="45.347237" lon="10.6967998"><ele>99.66666666666666</ele><time>2026-03-28T09:38:07.763Z</time></trkpt><trkpt lat="45.347389" lon="10.6966974"><ele>99.0</ele><time>2026-03-28T09:38:08.762Z</time></trkpt><trkpt lat="45.347547" lon="10.6966094"><ele>99.0</ele><time>2026-03-28T09:38:09.762Z</time></trkpt><trkpt lat="45.3476902" lon="10.696525"><ele>99.0</ele><time>2026-03-28T09:38:10.762Z</time></trkpt><trkpt lat="45.3478187" lon="10.6964317"><ele>99.0</ele><time>2026-03-28T09:38:11.763Z</time></trkpt><trkpt lat="45.3479322" lon="10.6963331"><ele>99.0</ele><time>2026-03-28T09:38:12.762Z</time></trkpt><trkpt lat="45.3480342" lon="10.6962564"><ele>98.5</ele><time>2026-03-28T09:38:13.762Z</time></trkpt><trkpt lat="45.3481391" lon="10.6962034"><ele>98.0</ele><time>2026-03-28T09:38:14.762Z</time></trkpt><trkpt lat="45.3482689" lon="10.6961731"><ele>97.5</ele><time>2026-03-28T09:38:15.762Z</time></trkpt><trkpt lat="45.3484118" lon="10.6961545"><ele>97.0</ele><time>2026-03-28T09:38:16.764Z</time></trkpt><trkpt lat="45.3485753" lon="10.696163"><ele>97.0</ele><time>2026-03-28T09:38:17.762Z</time></trkpt><trkpt lat="45.3487279" lon="10.6961731"><ele>97.0</ele><time>2026-03-28T09:38:18.762Z</time></trkpt><trkpt lat="45.3488747" lon="10.6961716"><ele>97.0</ele><time>2026-03-28T09:38:19.762Z</time></trkpt><trkpt lat="45.3490147" lon="10.6961605"><ele>97.0</ele><time>2026-03-28T09:38:20.762Z</time></trkpt><trkpt lat="45.349145" lon="10.6961643"><ele>96.19999999999999</ele><time>2026-03-28T09:38:21.762Z</time></trkpt><trkpt lat="45.3492664" lon="10.6961892"><ele>95.4</ele><time>2026-03-28T09:38:22.763Z</time></trkpt><trkpt lat="45.3493693" lon="10.6962542"><ele>94.6</ele><time>2026-03-28T09:38:23.763Z</time></trkpt><trkpt lat="45.3494411" lon="10.6963592"><ele>93.80000000000001</ele><time>2026-03-28T09:38:24.763Z</time></trkpt><trkpt lat="45.3494824" lon="10.6964998"><ele>93.0</ele><time>2026-03-28T09:38:25.763Z</time></trkpt><trkpt lat="45.349492" lon="10.6966678"><ele>93.0</ele><time>2026-03-28T09:38:26.762Z</time></trkpt><trkpt lat="45.3495002" lon="10.6968498"><ele>93.0</ele><time>2026-03-28T09:38:27.762Z</time></trkpt><trkpt lat="45.3495033" lon="10.6970452"><ele>93.0</ele><time>2026-03-28T09:38:28.763Z</time></trkpt><trkpt lat="45.3495047" lon="10.6972475"><ele>93.0</ele><time>2026-03-28T09:38:29.762Z</time></trkpt><trkpt lat="45.3495186" lon="10.6974538"><ele>93.66666666666667</ele><time>2026-03-28T09:38:30.763Z</time></trkpt><trkpt lat="45.3495493" lon="10.6976724"><ele>94.33333333333334</ele><time>2026-03-28T09:38:31.763Z</time></trkpt><trkpt lat="45.3495781" lon="10.6979163"><ele>95.0</ele><time>2026-03-28T09:38:32.762Z</time></trkpt><trkpt lat="45.3495957" lon="10.6981756"><ele>95.33333333333334</ele><time>2026-03-28T09:38:33.763Z</time></trkpt><trkpt lat="45.3496137" lon="10.6984471"><ele>95.66666666666667</ele><time>2026-03-28T09:38:34.762Z</time></trkpt><trkpt lat="45.3496292" lon="10.6987205"><ele>96.0</ele><time>2026-03-28T09:38:35.762Z</time></trkpt><trkpt lat="45.3496333" lon="10.698979"><ele>96.33333333333334</ele><time>2026-03-28T09:38:36.763Z</time></trkpt><trkpt lat="45.3496349" lon="10.6992235"><ele>96.66666666666667</ele><time>2026-03-28T09:38:37.763Z</time></trkpt><trkpt lat="45.3496432" lon="10.6994659"><ele>97.0</ele><time>2026-03-28T09:38:38.762Z</time></trkpt><trkpt lat="45.3496412" lon="10.6997221"><ele>97.0</ele><time>2026-03-28T09:38:39.762Z</time></trkpt><trkpt lat="45.3496156" lon="10.6999791"><ele>97.0</ele><time>2026-03-28T09:38:40.763Z</time></trkpt><trkpt lat="45.3495801" lon="10.7002549"><ele>97.0</ele><time>2026-03-28T09:38:41.763Z</time></trkpt><trkpt lat="45.3495598" lon="10.7005391"><ele>96.0</ele><time>2026-03-28T09:38:42.762Z</time></trkpt><trkpt lat="45.3495363" lon="10.7007966"><ele>95.0</ele><time>2026-03-28T09:38:43.762Z</time></trkpt><trkpt lat="45.3495034" lon="10.7010361"><ele>94.0</ele><time>2026-03-28T09:38:44.763Z</time></trkpt><trkpt lat="45.3494781" lon="10.7012648"><ele>93.66666666666666</ele><time>2026-03-28T09:38:45.763Z</time></trkpt><trkpt lat="45.3494624" lon="10.7014808"><ele>93.33333333333333</ele><time>2026-03-28T09:38:46.763Z</time></trkpt><trkpt lat="45.3494619" lon="10.7017317"><ele>93.0</ele><time>2026-03-28T09:38:47.762Z</time></trkpt><trkpt lat="45.349481" lon="10.7020216"><ele>92.0</ele><time>2026-03-28T09:38:48.762Z</time></trkpt><trkpt lat="45.3494972" lon="10.702342"><ele>91.0</ele><time>2026-03-28T09:38:49.763Z</time></trkpt><trkpt lat="45.3495109" lon="10.7026782"><ele>89.0</ele><time>2026-03-28T09:38:50.762Z</time></trkpt><trkpt lat="45.3495314" lon="10.703012"><ele>87.0</ele><time>2026-03-28T09:38:51.763Z</time></trkpt><trkpt lat="45.3495572" lon="10.7033288"><ele>86.0</ele><time>2026-03-28T09:38:52.762Z</time></trkpt><trkpt lat="45.3495767" lon="10.7036338"><ele>85.0</ele><time>2026-03-28T09:38:53.763Z</time></trkpt><trkpt lat="45.3495779" lon="10.7039276"><ele>84.0</ele><time>2026-03-28T09:38:54.762Z</time></trkpt><trkpt lat="45.3495568" lon="10.7042028"><ele>84.0</ele><time>2026-03-28T09:38:55.762Z</time></trkpt><trkpt lat="45.3495198" lon="10.7044513"><ele>84.0</ele><time>2026-03-28T09:38:56.762Z</time></trkpt><trkpt lat="45.3494907" lon="10.7046844"><ele>84.0</ele><time>2026-03-28T09:38:57.763Z</time></trkpt><trkpt lat="45.3494884" lon="10.7049229"><ele>84.0</ele><time>2026-03-28T09:38:58.762Z</time></trkpt><trkpt lat="45.3495103" lon="10.7051595"><ele>84.0</ele><time>2026-03-28T09:38:59.762Z</time></trkpt><trkpt lat="45.3495615" lon="10.7053752"><ele>84.0</ele><time>2026-03-28T09:39:00.762Z</time></trkpt><trkpt lat="45.3496448" lon="10.7055859"><ele>79.0</ele><time>2026-03-28T09:39:01.762Z</time></trkpt><trkpt lat="45.349747" lon="10.7057897"><ele>74.0</ele><time>2026-03-28T09:39:02.762Z</time></trkpt><trkpt lat="45.3498576" lon="10.7059916"><ele>69.0</ele><time>2026-03-28T09:39:03.762Z</time></trkpt><trkpt lat="45.3499657" lon="10.7061978"><ele>68.0</ele><time>2026-03-28T09:39:04.762Z</time></trkpt><trkpt lat="45.3500661" lon="10.7064004"><ele>67.0</ele><time>2026-03-28T09:39:05.762Z</time></trkpt><trkpt lat="45.3501663" lon="10.7066027"><ele>66.0</ele><time>2026-03-28T09:39:06.763Z</time></trkpt><trkpt lat="45.3502661" lon="10.7068127"><ele>66.0</ele><time>2026-03-28T09:39:07.763Z</time></trkpt><trkpt lat="45.3503576" lon="10.7070264"><ele>66.0</ele><time>2026-03-28T09:39:08.762Z</time></trkpt><trkpt lat="45.3504454" lon="10.7072433"><ele>66.0</ele><time>2026-03-28T09:39:09.762Z</time></trkpt><trkpt lat="45.3505344" lon="10.7074585"><ele>67.33333333333333</ele><time>2026-03-28T09:39:10.763Z</time></trkpt><trkpt lat="45.3506222" lon="10.7076742"><ele>68.66666666666666</ele><time>2026-03-28T09:39:11.763Z</time></trkpt><trkpt lat="45.3507095" lon="10.7078824"><ele>70.0</ele><time>2026-03-28T09:39:12.762Z</time></trkpt><trkpt lat="45.3508044" lon="10.7080886"><ele>70.33333333333333</ele><time>2026-03-28T09:39:13.762Z</time></trkpt><trkpt lat="45.3509003" lon="10.7083059"><ele>70.66666666666667</ele><time>2026-03-28T09:39:14.763Z</time></trkpt><trkpt lat="45.350972" lon="10.7085119"><ele>71.0</ele><time>2026-03-28T09:39:15.762Z</time></trkpt><trkpt lat="45.351041" lon="10.7087298"><ele>70.33333333333334</ele><time>2026-03-28T09:39:16.763Z</time></trkpt><trkpt lat="45.3511158" lon="10.708962"><ele>69.66666666666667</ele><time>2026-03-28T09:39:17.763Z</time></trkpt><trkpt lat="45.3511948" lon="10.7091987"><ele>69.0</ele><time>2026-03-28T09:39:18.763Z</time></trkpt><trkpt lat="45.3512634" lon="10.7094225"><ele>68.66666666666667</ele><time>2026-03-28T09:39:19.763Z</time></trkpt><trkpt lat="45.351334" lon="10.7096687"><ele>68.33333333333334</ele><time>2026-03-28T09:39:20.762Z</time></trkpt><trkpt lat="45.351412" lon="10.7099322"><ele>68.0</ele><time>2026-03-28T09:39:21.763Z</time></trkpt><trkpt lat="45.3515076" lon="10.7102159"><ele>67.0</ele><time>2026-03-28T09:39:22.763Z</time></trkpt><trkpt lat="45.3516273" lon="10.7105066"><ele>66.0</ele><time>2026-03-28T09:39:23.762Z</time></trkpt><trkpt lat="45.351753" lon="10.7107681"><ele>66.0</ele><time>2026-03-28T09:39:24.763Z</time></trkpt><trkpt lat="45.3518822" lon="10.71101"><ele>66.0</ele><time>2026-03-28T09:39:25.763Z</time></trkpt><trkpt lat="45.3520073" lon="10.711226"><ele>66.0</ele><time>2026-03-28T09:39:26.762Z</time></trkpt><trkpt lat="45.3521224" lon="10.7114167"><ele>66.33333333333333</ele><time>2026-03-28T09:39:27.762Z</time></trkpt><trkpt lat="45.3522311" lon="10.7115947"><ele>66.66666666666666</ele><time>2026-03-28T09:39:28.763Z</time></trkpt><trkpt lat="45.3523345" lon="10.7117612"><ele>67.0</ele><time>2026-03-28T09:39:29.763Z</time></trkpt><trkpt lat="45.3524272" lon="10.7119056"><ele>67.0</ele><time>2026-03-28T09:39:30.762Z</time></trkpt><trkpt lat="45.3525071" lon="10.7120371"><ele>67.0</ele><time>2026-03-28T09:39:31.763Z</time></trkpt><trkpt lat="45.3525723" lon="10.7121668"><ele>67.0</ele><time>2026-03-28T09:39:32.763Z</time></trkpt><trkpt lat="45.3526363" lon="10.7123046"><ele>67.0</ele><time>2026-03-28T09:39:33.763Z</time></trkpt><trkpt lat="45.3527228" lon="10.7124614"><ele>67.0</ele><time>2026-03-28T09:39:34.763Z</time></trkpt><trkpt lat="45.352828" lon="10.7126552"><ele>67.0</ele><time>2026-03-28T09:39:35.762Z</time></trkpt><trkpt lat="45.3529562" lon="10.7128865"><ele>67.0</ele><time>2026-03-28T09:39:36.762Z</time></trkpt><trkpt lat="45.3531002" lon="10.713138"><ele>67.33333333333333</ele><time>2026-03-28T09:39:37.763Z</time></trkpt><trkpt lat="45.3532237" lon="10.7133576"><ele>67.66666666666667</ele><time>2026-03-28T09:39:38.762Z</time></trkpt><trkpt lat="45.3533401" lon="10.713568"><ele>68.0</ele><time>2026-03-28T09:39:39.762Z</time></trkpt><trkpt lat="45.3534512" lon="10.7137644"><ele>68.0</ele><time>2026-03-28T09:39:40.762Z</time></trkpt><trkpt lat="45.3535504" lon="10.7139653"><ele>68.0</ele><time>2026-03-28T09:39:41.763Z</time></trkpt><trkpt lat="45.3536276" lon="10.7141772"><ele>68.0</ele><time>2026-03-28T09:39:42.763Z</time></trkpt><trkpt lat="45.3536898" lon="10.7144351"><ele>67.33333333333334</ele><time>2026-03-28T09:39:43.762Z</time></trkpt><trkpt lat="45.3537354" lon="10.7147219"><ele>66.66666666666667</ele><time>2026-03-28T09:39:44.762Z</time></trkpt><trkpt lat="45.3537725" lon="10.715032"><ele>66.0</ele><time>2026-03-28T09:39:45.763Z</time></trkpt><trkpt lat="45.3537987" lon="10.7153825"><ele>64.5</ele><time>2026-03-28T09:39:46.763Z</time></trkpt><trkpt lat="45.3538012" lon="10.7157618"><ele>63.0</ele><time>2026-03-28T09:39:47.762Z</time></trkpt><trkpt lat="45.3537819" lon="10.7161039"><ele>62.66666666666667</ele><time>2026-03-28T09:39:48.762Z</time></trkpt><trkpt lat="45.3537696" lon="10.7164319"><ele>62.333333333333336</ele><time>2026-03-28T09:39:49.762Z</time></trkpt><trkpt lat="45.3537892" lon="10.716737"><ele>62.0</ele><time>2026-03-28T09:39:50.762Z</time></trkpt><trkpt lat="45.3538339" lon="10.7170302"><ele>62.333333333333336</ele><time>2026-03-28T09:39:51.763Z</time></trkpt><trkpt lat="45.3539027" lon="10.7173194"><ele>62.66666666666667</ele><time>2026-03-28T09:39:52.763Z</time></trkpt><trkpt lat="45.3539958" lon="10.7175844"><ele>63.0</ele><time>2026-03-28T09:39:53.762Z</time></trkpt><trkpt lat="45.3541129" lon="10.7178235"><ele>63.0</ele><time>2026-03-28T09:39:54.763Z</time></trkpt><trkpt lat="45.3542357" lon="10.718054"><ele>63.0</ele><time>2026-03-28T09:39:55.763Z</time></trkpt><trkpt lat="45.354354" lon="10.7182823"><ele>63.0</ele><time>2026-03-28T09:39:56.762Z</time></trkpt><trkpt lat="45.354472" lon="10.7185022"><ele>62.66666666666667</ele><time>2026-03-28T09:39:57.763Z</time></trkpt><trkpt lat="45.3545907" lon="10.7187129"><ele>62.333333333333336</ele><time>2026-03-28T09:39:58.762Z</time></trkpt><trkpt lat="45.354707" lon="10.7189233"><ele>62.0</ele><time>2026-03-28T09:39:59.763Z</time></trkpt><trkpt lat="45.3548189" lon="10.7191364"><ele>62.66666666666667</ele><time>2026-03-28T09:40:00.762Z</time></trkpt><trkpt lat="45.3549272" lon="10.719345"><ele>63.33333333333333</ele><time>2026-03-28T09:40:01.764Z</time></trkpt><trkpt lat="45.3550309" lon="10.7195369"><ele>64.0</ele><time>2026-03-28T09:40:02.762Z</time></trkpt><trkpt lat="45.3551344" lon="10.7197261"><ele>64.0</ele><time>2026-03-28T09:40:03.762Z</time></trkpt><trkpt lat="45.3552319" lon="10.7199108"><ele>64.0</ele><time>2026-03-28T09:40:04.763Z</time></trkpt><trkpt lat="45.3553204" lon="10.7200816"><ele>64.0</ele><time>2026-03-28T09:40:05.762Z</time></trkpt><trkpt lat="45.3554049" lon="10.7202418"><ele>63.25</ele><time>2026-03-28T09:40:06.762Z</time></trkpt><trkpt lat="45.3554871" lon="10.7203885"><ele>62.5</ele><time>2026-03-28T09:40:07.762Z</time></trkpt><trkpt lat="45.3555695" lon="10.7205351"><ele>61.75</ele><time>2026-03-28T09:40:08.763Z</time></trkpt><trkpt lat="45.3556538" lon="10.7206903"><ele>61.0</ele><time>2026-03-28T09:40:09.763Z</time></trkpt><trkpt lat="45.3557265" lon="10.7208393"><ele>61.599999999999994</ele><time>2026-03-28T09:40:10.763Z</time></trkpt><trkpt lat="45.3557953" lon="10.7209646"><ele>62.199999999999996</ele><time>2026-03-28T09:40:11.762Z</time></trkpt><trkpt lat="45.355868" lon="10.7210732"><ele>62.800000000000004</ele><time>2026-03-28T09:40:12.762Z</time></trkpt><trkpt lat="45.3559417" lon="10.7211576"><ele>63.400000000000006</ele><time>2026-03-28T09:40:13.762Z</time></trkpt><trkpt lat="45.3560086" lon="10.7212303"><ele>64.0</ele><time>2026-03-28T09:40:14.762Z</time></trkpt><trkpt lat="45.3560608" lon="10.7213036"><ele>64.0</ele><time>2026-03-28T09:40:15.763Z</time></trkpt><trkpt lat="45.3561161" lon="10.7214403"><ele>64.0</ele><time>2026-03-28T09:40:17.763Z</time></trkpt><trkpt lat="45.3560967" lon="10.7216223"><ele>64.0</ele><time>2026-03-28T09:40:19.763Z</time></trkpt><trkpt lat="45.3560563" lon="10.7217427"><ele>64.0</ele><time>2026-03-28T09:40:20.762Z</time></trkpt><trkpt lat="45.3559789" lon="10.7219449"><ele>62.75</ele><time>2026-03-28T09:40:21.762Z</time></trkpt><trkpt lat="45.3559139" lon="10.7221321"><ele>61.5</ele><time>2026-03-28T09:40:22.763Z</time></trkpt><trkpt lat="45.3558549" lon="10.7223106"><ele>60.25</ele><time>2026-03-28T09:40:23.762Z</time></trkpt><trkpt lat="45.3558009" lon="10.7224838"><ele>59.0</ele><time>2026-03-28T09:40:24.763Z</time></trkpt><trkpt lat="45.3557495" lon="10.722651"><ele>59.25</ele><time>2026-03-28T09:40:25.762Z</time></trkpt><trkpt lat="45.3556949" lon="10.7228071"><ele>59.5</ele><time>2026-03-28T09:40:26.763Z</time></trkpt><trkpt lat="45.3556333" lon="10.7229711"><ele>59.75</ele><time>2026-03-28T09:40:27.763Z</time></trkpt><trkpt lat="45.3555712" lon="10.7231402"><ele>60.0</ele><time>2026-03-28T09:40:28.762Z</time></trkpt><trkpt lat="45.3555112" lon="10.7233049"><ele>60.0</ele><time>2026-03-28T09:40:29.763Z</time></trkpt><trkpt lat="45.3554479" lon="10.7234713"><ele>60.0</ele><time>2026-03-28T09:40:30.762Z</time></trkpt><trkpt lat="45.3553831" lon="10.7236435"><ele>60.0</ele><time>2026-03-28T09:40:31.762Z</time></trkpt><trkpt lat="45.3553195" lon="10.7238179"><ele>60.0</ele><time>2026-03-28T09:40:32.762Z</time></trkpt><trkpt lat="45.3552584" lon="10.723997"><ele>60.0</ele><time>2026-03-28T09:40:33.763Z</time></trkpt><trkpt lat="45.3551947" lon="10.724176"><ele>60.0</ele><time>2026-03-28T09:40:34.763Z</time></trkpt><trkpt lat="45.3551324" lon="10.7243429"><ele>60.0</ele><time>2026-03-28T09:40:35.763Z</time></trkpt><trkpt lat="45.3550746" lon="10.7245064"><ele>60.0</ele><time>2026-03-28T09:40:36.762Z</time></trkpt><trkpt lat="45.3550214" lon="10.7246585"><ele>60.0</ele><time>2026-03-28T09:40:37.762Z</time></trkpt><trkpt lat="45.3549737" lon="10.7248037"><ele>60.0</ele><time>2026-03-28T09:40:38.762Z</time></trkpt><trkpt lat="45.3549242" lon="10.7249366"><ele>60.0</ele><time>2026-03-28T09:40:39.763Z</time></trkpt><trkpt lat="45.3548764" lon="10.725067"><ele>60.0</ele><time>2026-03-28T09:40:40.762Z</time></trkpt><trkpt lat="45.3548337" lon="10.7252084"><ele>60.0</ele><time>2026-03-28T09:40:41.763Z</time></trkpt><trkpt lat="45.3547835" lon="10.7253611"><ele>59.25</ele><time>2026-03-28T09:40:42.762Z</time></trkpt><trkpt lat="45.3547269" lon="10.7255222"><ele>58.5</ele><time>2026-03-28T09:40:43.763Z</time></trkpt><trkpt lat="45.3546686" lon="10.725691"><ele>57.75</ele><time>2026-03-28T09:40:44.762Z</time></trkpt><trkpt lat="45.3546051" lon="10.7258638"><ele>57.0</ele><time>2026-03-28T09:40:45.763Z</time></trkpt><trkpt lat="45.3545303" lon="10.7260353"><ele>57.5</ele><time>2026-03-28T09:40:46.762Z</time></trkpt><trkpt lat="45.3544588" lon="10.7262216"><ele>58.0</ele><time>2026-03-28T09:40:47.763Z</time></trkpt><trkpt lat="45.3543926" lon="10.7264199"><ele>58.5</ele><time>2026-03-28T09:40:48.763Z</time></trkpt><trkpt lat="45.3543266" lon="10.7266029"><ele>59.0</ele><time>2026-03-28T09:40:49.762Z</time></trkpt><trkpt lat="45.3542604" lon="10.7267761"><ele>59.25</ele><time>2026-03-28T09:40:50.762Z</time></trkpt><trkpt lat="45.3542005" lon="10.7269399"><ele>59.5</ele><time>2026-03-28T09:40:51.763Z</time></trkpt><trkpt lat="45.354145" lon="10.7270982"><ele>59.75</ele><time>2026-03-28T09:40:52.763Z</time></trkpt><trkpt lat="45.3540852" lon="10.727264"><ele>60.0</ele><time>2026-03-28T09:40:53.763Z</time></trkpt><trkpt lat="45.3540244" lon="10.7274325"><ele>60.0</ele><time>2026-03-28T09:40:54.762Z</time></trkpt><trkpt lat="45.3539611" lon="10.7276034"><ele>60.0</ele><time>2026-03-28T09:40:55.762Z</time></trkpt><trkpt lat="45.3539039" lon="10.7277708"><ele>60.0</ele><time>2026-03-28T09:40:56.762Z</time></trkpt><trkpt lat="45.3538552" lon="10.727928"><ele>60.0</ele><time>2026-03-28T09:40:57.762Z</time></trkpt><trkpt lat="45.3538059" lon="10.7280716"><ele>63.2</ele><time>2026-03-28T09:40:58.762Z</time></trkpt><trkpt lat="45.3537508" lon="10.7281874"><ele>66.4</ele><time>2026-03-28T09:40:59.762Z</time></trkpt><trkpt lat="45.3536936" lon="10.7282772"><ele>69.6</ele><time>2026-03-28T09:41:00.762Z</time></trkpt><trkpt lat="45.3536602" lon="10.7283585"><ele>72.8</ele><time>2026-03-28T09:41:01.763Z</time></trkpt><trkpt lat="45.3537147" lon="10.7285278"><ele>76.0</ele><time>2026-03-28T09:41:03.763Z</time></trkpt><trkpt lat="45.3537938" lon="10.728599"><ele>77.5</ele><time>2026-03-28T09:41:04.762Z</time></trkpt><trkpt lat="45.3538911" lon="10.7286701"><ele>79.0</ele><time>2026-03-28T09:41:05.763Z</time></trkpt><trkpt lat="45.3540061" lon="10.7287303"><ele>80.5</ele><time>2026-03-28T09:41:06.763Z</time></trkpt><trkpt lat="45.354128" lon="10.728786"><ele>82.0</ele><time>2026-03-28T09:41:07.763Z</time></trkpt><trkpt lat="45.3542527" lon="10.7288499"><ele>82.0</ele><time>2026-03-28T09:41:08.762Z</time></trkpt><trkpt lat="45.3543697" lon="10.7289146"><ele>82.0</ele><time>2026-03-28T09:41:09.762Z</time></trkpt><trkpt lat="45.3544935" lon="10.7289703"><ele>82.0</ele><time>2026-03-28T09:41:10.764Z</time></trkpt><trkpt lat="45.3546223" lon="10.7290281"><ele>82.0</ele><time>2026-03-28T09:41:11.762Z</time></trkpt><trkpt lat="45.3547529" lon="10.7290866"><ele>81.5</ele><time>2026-03-28T09:41:12.762Z</time></trkpt><trkpt lat="45.3548881" lon="10.7291436"><ele>81.0</ele><time>2026-03-28T09:41:13.762Z</time></trkpt><trkpt lat="45.3550254" lon="10.7291928"><ele>80.5</ele><time>2026-03-28T09:41:14.762Z</time></trkpt><trkpt lat="45.3551654" lon="10.7292284"><ele>80.0</ele><time>2026-03-28T09:41:15.762Z</time></trkpt><trkpt lat="45.3553115" lon="10.7292638"><ele>80.0</ele><time>2026-03-28T09:41:16.763Z</time></trkpt><trkpt lat="45.3554486" lon="10.7292982"><ele>80.0</ele><time>2026-03-28T09:41:17.763Z</time></trkpt><trkpt lat="45.3555709" lon="10.7293252"><ele>80.0</ele><time>2026-03-28T09:41:18.763Z</time></trkpt><trkpt lat="45.3556972" lon="10.7293527"><ele>80.0</ele><time>2026-03-28T09:41:19.762Z</time></trkpt><trkpt lat="45.3558284" lon="10.7293751"><ele>79.75</ele><time>2026-03-28T09:41:20.762Z</time></trkpt><trkpt lat="45.3559623" lon="10.7293793"><ele>79.5</ele><time>2026-03-28T09:41:21.762Z</time></trkpt><trkpt lat="45.3560967" lon="10.7293728"><ele>79.25</ele><time>2026-03-28T09:41:22.762Z</time></trkpt><trkpt lat="45.3562219" lon="10.7293644"><ele>79.0</ele><time>2026-03-28T09:41:23.763Z</time></trkpt><trkpt lat="45.356338" lon="10.729344"><ele>79.80000000000001</ele><time>2026-03-28T09:41:24.762Z</time></trkpt><trkpt lat="45.3564357" lon="10.7293203"><ele>80.60000000000001</ele><time>2026-03-28T09:41:25.763Z</time></trkpt><trkpt lat="45.3565159" lon="10.7292958"><ele>81.4</ele><time>2026-03-28T09:41:26.763Z</time></trkpt><trkpt lat="45.3566118" lon="10.7293563"><ele>82.2</ele><time>2026-03-28T09:41:28.762Z</time></trkpt><trkpt lat="45.3565323" lon="10.7294771"><ele>83.0</ele><time>2026-03-28T09:41:31.762Z</time></trkpt><trkpt lat="45.3564452" lon="10.7295282"><ele>86.5</ele><time>2026-03-28T09:41:32.763Z</time></trkpt><trkpt lat="45.3563249" lon="10.7295949"><ele>90.0</ele><time>2026-03-28T09:41:33.762Z</time></trkpt><trkpt lat="45.3562168" lon="10.7296573"><ele>93.5</ele><time>2026-03-28T09:41:34.763Z</time></trkpt><trkpt lat="45.3561007" lon="10.7297291"><ele>97.0</ele><time>2026-03-28T09:41:35.762Z</time></trkpt><trkpt lat="45.3559836" lon="10.7298062"><ele>97.0</ele><time>2026-03-28T09:41:36.763Z</time></trkpt><trkpt lat="45.3558658" lon="10.7298941"><ele>97.0</ele><time>2026-03-28T09:41:37.762Z</time></trkpt><trkpt lat="45.3557703" lon="10.7300047"><ele>97.0</ele><time>2026-03-28T09:41:38.763Z</time></trkpt><trkpt lat="45.3557171" lon="10.7301372"><ele>97.0</ele><time>2026-03-28T09:41:39.762Z</time></trkpt><trkpt lat="45.3557083" lon="10.7302733"><ele>98.00000000000001</ele><time>2026-03-28T09:41:40.763Z</time></trkpt><trkpt lat="45.3557233" lon="10.7304088"><ele>99.0</ele><time>2026-03-28T09:41:41.762Z</time></trkpt><trkpt lat="45.3557441" lon="10.7305232"><ele>100.0</ele><time>2026-03-28T09:41:42.763Z</time></trkpt><trkpt lat="45.3557647" lon="10.7306355"><ele>101.0</ele><time>2026-03-28T09:41:43.763Z</time></trkpt><trkpt lat="45.3557846" lon="10.7307497"><ele>102.00000000000001</ele><time>2026-03-28T09:41:44.763Z</time></trkpt><trkpt lat="45.3558058" lon="10.7308639"><ele>103.0</ele><time>2026-03-28T09:41:45.763Z</time></trkpt><trkpt lat="45.3558303" lon="10.7309752"><ele>102.83333333333334</ele><time>2026-03-28T09:41:46.764Z</time></trkpt><trkpt lat="45.355851" lon="10.7310833"><ele>102.66666666666667</ele><time>2026-03-28T09:41:47.762Z</time></trkpt><trkpt lat="45.3558661" lon="10.7311774"><ele>102.5</ele><time>2026-03-28T09:41:48.763Z</time></trkpt><trkpt lat="45.3558945" lon="10.7313275"><ele>102.33333333333334</ele><time>2026-03-28T09:41:50.763Z</time></trkpt><trkpt lat="45.3559166" lon="10.7314553"><ele>102.16666666666667</ele><time>2026-03-28T09:41:52.762Z</time></trkpt><trkpt lat="45.3559126" lon="10.7315929"><ele>102.0</ele><time>2026-03-28T09:41:54.763Z</time></trkpt><trkpt lat="45.3558888" lon="10.7317474"><ele>102.0</ele><time>2026-03-28T09:41:56.763Z</time></trkpt><trkpt lat="45.3558632" lon="10.7318373"><ele>102.0</ele><time>2026-03-28T09:41:57.762Z</time></trkpt><trkpt lat="45.3558285" lon="10.7319277"><ele>102.0</ele><time>2026-03-28T09:41:58.762Z</time></trkpt><trkpt lat="45.3557912" lon="10.732021"><ele>102.0</ele><time>2026-03-28T09:41:59.762Z</time></trkpt><trkpt lat="45.3557534" lon="10.7321139"><ele>102.0</ele><time>2026-03-28T09:42:00.763Z</time></trkpt><trkpt lat="45.355717" lon="10.7322024"><ele>102.0</ele><time>2026-03-28T09:42:01.762Z</time></trkpt><trkpt lat="45.3556575" lon="10.7323464"><ele>100.6</ele><time>2026-03-28T09:42:03.763Z</time></trkpt><trkpt lat="45.3556179" lon="10.7324317"><ele>99.19999999999999</ele><time>2026-03-28T09:42:05.762Z</time></trkpt><trkpt lat="45.3555726" lon="10.7325279"><ele>97.8</ele><time>2026-03-28T09:42:08.762Z</time></trkpt><trkpt lat="45.3555112" lon="10.7326341"><ele>96.4</ele><time>2026-03-28T09:42:11.762Z</time></trkpt><trkpt lat="45.3554586" lon="10.7327394"><ele>95.0</ele><time>2026-03-28T09:42:13.763Z</time></trkpt><trkpt lat="45.3553917" lon="10.7328749"><ele>94.83333333333334</ele><time>2026-03-28T09:42:15.762Z</time></trkpt><trkpt lat="45.3553594" lon="10.7329523"><ele>94.66666666666667</ele><time>2026-03-28T09:42:16.762Z</time></trkpt><trkpt lat="45.3553284" lon="10.7330325"><ele>94.5</ele><time>2026-03-28T09:42:17.762Z</time></trkpt><trkpt lat="45.3552945" lon="10.7331159"><ele>94.33333333333333</ele><time>2026-03-28T09:42:18.763Z</time></trkpt><trkpt lat="45.355236" lon="10.7332577"><ele>94.16666666666666</ele><time>2026-03-28T09:42:20.762Z</time></trkpt><trkpt lat="45.3551886" lon="10.7333667"><ele>94.0</ele><time>2026-03-28T09:42:22.762Z</time></trkpt><trkpt lat="45.3551539" lon="10.7334684"><ele>93.83333333333333</ele><time>2026-03-28T09:42:25.762Z</time></trkpt><trkpt lat="45.3551222" lon="10.7335685"><ele>93.66666666666666</ele><time>2026-03-28T09:42:28.763Z</time></trkpt><trkpt lat="45.3550984" lon="10.7336547"><ele>93.5</ele><time>2026-03-28T09:42:31.763Z</time></trkpt><trkpt lat="45.3550621" lon="10.7337521"><ele>93.33333333333333</ele><time>2026-03-28T09:42:34.763Z</time></trkpt><trkpt lat="45.3550318" lon="10.7338356"><ele>93.16666666666667</ele><time>2026-03-28T09:42:36.762Z</time></trkpt><trkpt lat="45.3549884" lon="10.7339511"><ele>93.0</ele><time>2026-03-28T09:42:38.762Z</time></trkpt><trkpt lat="45.3549399" lon="10.7340509"><ele>93.0</ele><time>2026-03-28T09:42:40.763Z</time></trkpt><trkpt lat="45.3549052" lon="10.7341287"><ele>93.0</ele><time>2026-03-28T09:42:42.762Z</time></trkpt><trkpt lat="45.3548803" lon="10.7342205"><ele>93.0</ele><time>2026-03-28T09:42:45.763Z</time></trkpt><trkpt lat="45.354932" lon="10.7343227"><ele>93.0</ele><time>2026-03-28T09:42:48.763Z</time></trkpt><trkpt lat="45.3550358" lon="10.7343551"><ele>93.0</ele><time>2026-03-28T09:42:50.762Z</time></trkpt><trkpt lat="45.3551357" lon="10.7343796"><ele>93.0</ele><time>2026-03-28T09:42:52.763Z</time></trkpt><trkpt lat="45.3552592" lon="10.7343981"><ele>93.16666666666667</ele><time>2026-03-28T09:42:54.762Z</time></trkpt><trkpt lat="45.3553226" lon="10.7344224"><ele>93.33333333333333</ele><time>2026-03-28T09:42:55.762Z</time></trkpt><trkpt lat="45.3553977" lon="10.7344491"><ele>93.5</ele><time>2026-03-28T09:42:56.763Z</time></trkpt><trkpt lat="45.3554827" lon="10.7344802"><ele>93.66666666666666</ele><time>2026-03-28T09:42:57.763Z</time></trkpt><trkpt lat="45.3555667" lon="10.7345156"><ele>93.83333333333333</ele><time>2026-03-28T09:42:58.762Z</time></trkpt><trkpt lat="45.3556513" lon="10.7345541"><ele>94.0</ele><time>2026-03-28T09:42:59.762Z</time></trkpt><trkpt lat="45.3557279" lon="10.7345967"><ele>94.0</ele><time>2026-03-28T09:43:00.763Z</time></trkpt><trkpt lat="45.3557996" lon="10.7346318"><ele>94.0</ele><time>2026-03-28T09:43:01.762Z</time></trkpt><trkpt lat="45.3558698" lon="10.7346678"><ele>94.0</ele><time>2026-03-28T09:43:02.763Z</time></trkpt><trkpt lat="45.3559573" lon="10.7347137"><ele>94.0</ele><time>2026-03-28T09:43:03.763Z</time></trkpt><trkpt lat="45.3560501" lon="10.7347807"><ele>94.0</ele><time>2026-03-28T09:43:04.762Z</time></trkpt><trkpt lat="45.3561442" lon="10.7348291"><ele>94.0</ele><time>2026-03-28T09:43:05.762Z</time></trkpt><trkpt lat="45.3562423" lon="10.7348638"><ele>94.0</ele><time>2026-03-28T09:43:06.763Z</time></trkpt><trkpt lat="45.3563412" lon="10.7348989"><ele>94.0</ele><time>2026-03-28T09:43:07.762Z</time></trkpt><trkpt lat="45.3564451" lon="10.7349317"><ele>94.0</ele><time>2026-03-28T09:43:08.762Z</time></trkpt><trkpt lat="45.3565496" lon="10.7349656"><ele>94.0</ele><time>2026-03-28T09:43:09.762Z</time></trkpt><trkpt lat="45.3566545" lon="10.7349912"><ele>94.0</ele><time>2026-03-28T09:43:10.763Z</time></trkpt><trkpt lat="45.3567614" lon="10.7350121"><ele>93.80000000000001</ele><time>2026-03-28T09:43:11.762Z</time></trkpt><trkpt lat="45.3568686" lon="10.7350231"><ele>93.60000000000001</ele><time>2026-03-28T09:43:12.762Z</time></trkpt><trkpt lat="45.3569669" lon="10.7350334"><ele>93.4</ele><time>2026-03-28T09:43:13.762Z</time></trkpt><trkpt lat="45.357059" lon="10.7350381"><ele>93.2</ele><time>2026-03-28T09:43:14.763Z</time></trkpt><trkpt lat="45.35715" lon="10.7350285"><ele>93.0</ele><time>2026-03-28T09:43:15.763Z</time></trkpt><trkpt lat="45.3572365" lon="10.7350156"><ele>93.0</ele><time>2026-03-28T09:43:16.762Z</time></trkpt><trkpt lat="45.3573151" lon="10.7350016"><ele>93.0</ele><time>2026-03-28T09:43:17.762Z</time></trkpt><trkpt lat="45.357389" lon="10.7349915"><ele>93.0</ele><time>2026-03-28T09:43:18.763Z</time></trkpt><trkpt lat="45.3574638" lon="10.7349831"><ele>93.0</ele><time>2026-03-28T09:43:19.762Z</time></trkpt><trkpt lat="45.357532" lon="10.7349738"><ele>93.0</ele><time>2026-03-28T09:43:20.763Z</time></trkpt><trkpt lat="45.3576267" lon="10.7349554"><ele>93.0</ele><time>2026-03-28T09:43:22.763Z</time></trkpt><trkpt lat="45.3577183" lon="10.7349334"><ele>93.0</ele><time>2026-03-28T09:43:25.762Z</time></trkpt><trkpt lat="45.3577941" lon="10.7349113"><ele>93.0</ele><time>2026-03-28T09:43:27.763Z</time></trkpt><trkpt lat="45.3578829" lon="10.7349037"><ele>93.0</ele><time>2026-03-28T09:43:29.763Z</time></trkpt><trkpt lat="45.3579528" lon="10.734899"><ele>93.0</ele><time>2026-03-28T09:43:31.762Z</time></trkpt><trkpt lat="45.3580315" lon="10.7348987"><ele>93.0</ele><time>2026-03-28T09:43:33.762Z</time></trkpt><trkpt lat="45.3581614" lon="10.734886"><ele>93.0</ele><time>2026-03-28T09:43:35.762Z</time></trkpt><trkpt lat="45.3582441" lon="10.7348872"><ele>93.60000000000001</ele><time>2026-03-28T09:43:36.763Z</time></trkpt><trkpt lat="45.3583388" lon="10.7348983"><ele>94.2</ele><time>2026-03-28T09:43:37.763Z</time></trkpt><trkpt lat="45.3584424" lon="10.7349139"><ele>94.8</ele><time>2026-03-28T09:43:38.762Z</time></trkpt><trkpt lat="45.3585548" lon="10.7349278"><ele>95.4</ele><time>2026-03-28T09:43:39.762Z</time></trkpt><trkpt lat="45.3586758" lon="10.7349393"><ele>96.0</ele><time>2026-03-28T09:43:40.763Z</time></trkpt><trkpt lat="45.3588012" lon="10.7349528"><ele>96.25</ele><time>2026-03-28T09:43:41.763Z</time></trkpt><trkpt lat="45.3589295" lon="10.7349694"><ele>96.5</ele><time>2026-03-28T09:43:42.762Z</time></trkpt><trkpt lat="45.3590634" lon="10.7349892"><ele>96.75</ele><time>2026-03-28T09:43:43.762Z</time></trkpt><trkpt lat="45.3591999" lon="10.7350125"><ele>97.0</ele><time>2026-03-28T09:43:44.763Z</time></trkpt><trkpt lat="45.3593281" lon="10.7350309"><ele>97.0</ele><time>2026-03-28T09:43:45.762Z</time></trkpt><trkpt lat="45.3594487" lon="10.735047"><ele>97.0</ele><time>2026-03-28T09:43:46.763Z</time></trkpt><trkpt lat="45.3595609" lon="10.7350603"><ele>97.0</ele><time>2026-03-28T09:43:47.762Z</time></trkpt><trkpt lat="45.3596662" lon="10.7350727"><ele>97.0</ele><time>2026-03-28T09:43:48.762Z</time></trkpt><trkpt lat="45.359762" lon="10.7350861"><ele>97.0</ele><time>2026-03-28T09:43:49.763Z</time></trkpt><trkpt lat="45.3598473" lon="10.7351012"><ele>96.8</ele><time>2026-03-28T09:43:50.762Z</time></trkpt><trkpt lat="45.3599095" lon="10.7351368"><ele>96.6</ele><time>2026-03-28T09:43:51.763Z</time></trkpt><trkpt lat="45.3599457" lon="10.7352997"><ele>96.39999999999999</ele><time>2026-03-28T09:43:53.763Z</time></trkpt><trkpt lat="45.3599378" lon="10.7354079"><ele>96.19999999999999</ele><time>2026-03-28T09:43:54.762Z</time></trkpt><trkpt lat="45.3599247" lon="10.7355329"><ele>96.0</ele><time>2026-03-28T09:43:55.762Z</time></trkpt><trkpt lat="45.3599149" lon="10.7356726"><ele>95.5</ele><time>2026-03-28T09:43:56.763Z</time></trkpt><trkpt lat="45.359903" lon="10.7358284"><ele>95.0</ele><time>2026-03-28T09:43:57.762Z</time></trkpt><trkpt lat="45.3598918" lon="10.7359974"><ele>94.5</ele><time>2026-03-28T09:43:58.763Z</time></trkpt><trkpt lat="45.3598814" lon="10.7361733"><ele>94.0</ele><time>2026-03-28T09:43:59.762Z</time></trkpt><trkpt lat="45.3598674" lon="10.7363479"><ele>94.0</ele><time>2026-03-28T09:44:00.763Z</time></trkpt><trkpt lat="45.3598517" lon="10.7365318"><ele>94.0</ele><time>2026-03-28T09:44:01.762Z</time></trkpt><trkpt lat="45.3598358" lon="10.7367224"><ele>94.0</ele><time>2026-03-28T09:44:02.763Z</time></trkpt><trkpt lat="45.3598213" lon="10.7369138"><ele>94.0</ele><time>2026-03-28T09:44:03.762Z</time></trkpt><trkpt lat="45.359806" lon="10.7371126"><ele>94.0</ele><time>2026-03-28T09:44:04.762Z</time></trkpt><trkpt lat="45.3597889" lon="10.7373132"><ele>94.0</ele><time>2026-03-28T09:44:05.762Z</time></trkpt><trkpt lat="45.3597699" lon="10.7374982"><ele>94.0</ele><time>2026-03-28T09:44:06.762Z</time></trkpt><trkpt lat="45.3597557" lon="10.7376694"><ele>94.0</ele><time>2026-03-28T09:44:07.764Z</time></trkpt><trkpt lat="45.3597432" lon="10.7378253"><ele>93.80000000000001</ele><time>2026-03-28T09:44:08.763Z</time></trkpt><trkpt lat="45.3597198" lon="10.7379614"><ele>93.60000000000001</ele><time>2026-03-28T09:44:09.763Z</time></trkpt><trkpt lat="45.3597019" lon="10.7380966"><ele>93.4</ele><time>2026-03-28T09:44:10.762Z</time></trkpt><trkpt lat="45.359716" lon="10.7382443"><ele>93.2</ele><time>2026-03-28T09:44:11.763Z</time></trkpt><trkpt lat="45.3597486" lon="10.7384022"><ele>93.0</ele><time>2026-03-28T09:44:12.762Z</time></trkpt><trkpt lat="45.3597856" lon="10.7385656"><ele>93.0</ele><time>2026-03-28T09:44:13.763Z</time></trkpt><trkpt lat="45.3598171" lon="10.7387202"><ele>93.0</ele><time>2026-03-28T09:44:14.762Z</time></trkpt><trkpt lat="45.3598436" lon="10.7388584"><ele>93.0</ele><time>2026-03-28T09:44:15.762Z</time></trkpt><trkpt lat="45.3598477" lon="10.7389895"><ele>93.0</ele><time>2026-03-28T09:44:16.763Z</time></trkpt><trkpt lat="45.3598759" lon="10.7391025"><ele>93.0</ele><time>2026-03-28T09:44:17.762Z</time></trkpt><trkpt lat="45.3599416" lon="10.7391932"><ele>93.0</ele><time>2026-03-28T09:44:18.763Z</time></trkpt><trkpt lat="45.3600295" lon="10.7392527"><ele>93.0</ele><time>2026-03-28T09:44:19.763Z</time></trkpt><trkpt lat="45.3601325" lon="10.7393011"><ele>93.0</ele><time>2026-03-28T09:44:20.763Z</time></trkpt><trkpt lat="45.3602369" lon="10.7393729"><ele>93.0</ele><time>2026-03-28T09:44:21.763Z</time></trkpt><trkpt lat="45.3603418" lon="10.7394588"><ele>93.0</ele><time>2026-03-28T09:44:22.762Z</time></trkpt><trkpt lat="45.3604578" lon="10.7395337"><ele>93.75</ele><time>2026-03-28T09:44:23.764Z</time></trkpt><trkpt lat="45.3605737" lon="10.739593"><ele>94.5</ele><time>2026-03-28T09:44:24.762Z</time></trkpt><trkpt lat="45.3606803" lon="10.7396512"><ele>95.25</ele><time>2026-03-28T09:44:25.763Z</time></trkpt><trkpt lat="45.3607757" lon="10.7397157"><ele>96.0</ele><time>2026-03-28T09:44:26.762Z</time></trkpt><trkpt lat="45.3608632" lon="10.7398042"><ele>96.0</ele><time>2026-03-28T09:44:27.762Z</time></trkpt><trkpt lat="45.3609362" lon="10.7399239"><ele>96.0</ele><time>2026-03-28T09:44:28.763Z</time></trkpt><trkpt lat="45.3609984" lon="10.7400706"><ele>96.0</ele><time>2026-03-28T09:44:29.763Z</time></trkpt><trkpt lat="45.3610639" lon="10.7402293"><ele>96.0</ele><time>2026-03-28T09:44:30.763Z</time></trkpt><trkpt lat="45.3611339" lon="10.7403838"><ele>96.0</ele><time>2026-03-28T09:44:31.763Z</time></trkpt><trkpt lat="45.3612071" lon="10.7405471"><ele>96.0</ele><time>2026-03-28T09:44:32.762Z</time></trkpt><trkpt lat="45.3612759" lon="10.7407201"><ele>96.0</ele><time>2026-03-28T09:44:33.762Z</time></trkpt><trkpt lat="45.3613423" lon="10.7408986"><ele>96.0</ele><time>2026-03-28T09:44:34.763Z</time></trkpt><trkpt lat="45.3614086" lon="10.7410791"><ele>95.0</ele><time>2026-03-28T09:44:35.762Z</time></trkpt><trkpt lat="45.3614769" lon="10.7412565"><ele>94.0</ele><time>2026-03-28T09:44:36.762Z</time></trkpt><trkpt lat="45.3615411" lon="10.7414454"><ele>93.0</ele><time>2026-03-28T09:44:37.763Z</time></trkpt><trkpt lat="45.3615962" lon="10.7416377"><ele>92.0</ele><time>2026-03-28T09:44:38.763Z</time></trkpt><trkpt lat="45.3616489" lon="10.7418302"><ele>92.0</ele><time>2026-03-28T09:44:39.763Z</time></trkpt><trkpt lat="45.3617038" lon="10.7420205"><ele>92.0</ele><time>2026-03-28T09:44:40.762Z</time></trkpt><trkpt lat="45.3617589" lon="10.7422129"><ele>92.0</ele><time>2026-03-28T09:44:41.762Z</time></trkpt><trkpt lat="45.3618129" lon="10.7424069"><ele>92.0</ele><time>2026-03-28T09:44:42.762Z</time></trkpt><trkpt lat="45.3618673" lon="10.7426053"><ele>92.0</ele><time>2026-03-28T09:44:43.763Z</time></trkpt><trkpt lat="45.3619216" lon="10.7428063"><ele>92.0</ele><time>2026-03-28T09:44:44.762Z</time></trkpt><trkpt lat="45.361977" lon="10.7430078"><ele>92.0</ele><time>2026-03-28T09:44:45.762Z</time></trkpt><trkpt lat="45.3620349" lon="10.7432054"><ele>92.0</ele><time>2026-03-28T09:44:46.763Z</time></trkpt><trkpt lat="45.3620943" lon="10.7434015"><ele>92.0</ele><time>2026-03-28T09:44:47.763Z</time></trkpt><trkpt lat="45.3621557" lon="10.7435979"><ele>92.0</ele><time>2026-03-28T09:44:48.762Z</time></trkpt><trkpt lat="45.3622204" lon="10.7437932"><ele>92.25</ele><time>2026-03-28T09:44:49.763Z</time></trkpt><trkpt lat="45.3622816" lon="10.7439841"><ele>92.5</ele><time>2026-03-28T09:44:50.763Z</time></trkpt><trkpt lat="45.3623389" lon="10.7441655"><ele>92.75</ele><time>2026-03-28T09:44:51.762Z</time></trkpt><trkpt lat="45.3623972" lon="10.7443425"><ele>93.0</ele><time>2026-03-28T09:44:52.763Z</time></trkpt><trkpt lat="45.3624544" lon="10.744518"><ele>93.0</ele><time>2026-03-28T09:44:53.763Z</time></trkpt><trkpt lat="45.3625113" lon="10.7446983"><ele>93.0</ele><time>2026-03-28T09:44:54.762Z</time></trkpt><trkpt lat="45.3625664" lon="10.7448835"><ele>93.0</ele><time>2026-03-28T09:44:55.762Z</time></trkpt><trkpt lat="45.362618" lon="10.7450743"><ele>93.0</ele><time>2026-03-28T09:44:56.763Z</time></trkpt><trkpt lat="45.3626726" lon="10.7452681"><ele>93.0</ele><time>2026-03-28T09:44:57.763Z</time></trkpt><trkpt lat="45.36273" lon="10.7454631"><ele>93.0</ele><time>2026-03-28T09:44:58.762Z</time></trkpt><trkpt lat="45.3627874" lon="10.7456609"><ele>93.0</ele><time>2026-03-28T09:44:59.763Z</time></trkpt><trkpt lat="45.3628475" lon="10.7458599"><ele>92.66666666666667</ele><time>2026-03-28T09:45:00.762Z</time></trkpt><trkpt lat="45.3629125" lon="10.7460558"><ele>92.33333333333334</ele><time>2026-03-28T09:45:01.763Z</time></trkpt><trkpt lat="45.3629803" lon="10.7462496"><ele>92.0</ele><time>2026-03-28T09:45:02.763Z</time></trkpt><trkpt lat="45.3630537" lon="10.746441"><ele>92.0</ele><time>2026-03-28T09:45:03.762Z</time></trkpt><trkpt lat="45.3631256" lon="10.7466324"><ele>92.0</ele><time>2026-03-28T09:45:04.763Z</time></trkpt><trkpt lat="45.3632022" lon="10.7468205"><ele>92.0</ele><time>2026-03-28T09:45:05.762Z</time></trkpt><trkpt lat="45.3632856" lon="10.7470001"><ele>92.0</ele><time>2026-03-28T09:45:06.762Z</time></trkpt><trkpt lat="45.3633757" lon="10.7471739"><ele>92.0</ele><time>2026-03-28T09:45:07.763Z</time></trkpt><trkpt lat="45.3634711" lon="10.7473424"><ele>92.0</ele><time>2026-03-28T09:45:08.762Z</time></trkpt><trkpt lat="45.3635676" lon="10.7475091"><ele>92.0</ele><time>2026-03-28T09:45:09.763Z</time></trkpt><trkpt lat="45.3636669" lon="10.7476727"><ele>92.0</ele><time>2026-03-28T09:45:10.762Z</time></trkpt><trkpt lat="45.363764" lon="10.7478403"><ele>92.0</ele><time>2026-03-28T09:45:11.763Z</time></trkpt><trkpt lat="45.36385" lon="10.7480177"><ele>92.33333333333334</ele><time>2026-03-28T09:45:12.762Z</time></trkpt><trkpt lat="45.3639269" lon="10.7482031"><ele>92.66666666666667</ele><time>2026-03-28T09:45:13.763Z</time></trkpt><trkpt lat="45.3640044" lon="10.7483874"><ele>93.0</ele><time>2026-03-28T09:45:14.763Z</time></trkpt><trkpt lat="45.3640832" lon="10.7485709"><ele>93.0</ele><time>2026-03-28T09:45:15.762Z</time></trkpt><trkpt lat="45.364161" lon="10.7487574"><ele>93.0</ele><time>2026-03-28T09:45:16.762Z</time></trkpt><trkpt lat="45.3642386" lon="10.748946"><ele>93.0</ele><time>2026-03-28T09:45:17.763Z</time></trkpt><trkpt lat="45.364316" lon="10.7491355"><ele>93.0</ele><time>2026-03-28T09:45:18.763Z</time></trkpt><trkpt lat="45.3643916" lon="10.7493244"><ele>93.0</ele><time>2026-03-28T09:45:19.762Z</time></trkpt><trkpt lat="45.3644658" lon="10.7495131"><ele>93.0</ele><time>2026-03-28T09:45:20.762Z</time></trkpt><trkpt lat="45.3645438" lon="10.7497082"><ele>93.0</ele><time>2026-03-28T09:45:21.763Z</time></trkpt><trkpt lat="45.364627" lon="10.7499085"><ele>93.0</ele><time>2026-03-28T09:45:22.763Z</time></trkpt><trkpt lat="45.364715" lon="10.7501123"><ele>93.0</ele><time>2026-03-28T09:45:23.762Z</time></trkpt><trkpt lat="45.3648051" lon="10.7503189"><ele>94.0</ele><time>2026-03-28T09:45:24.762Z</time></trkpt><trkpt lat="45.3649008" lon="10.7505256"><ele>95.0</ele><time>2026-03-28T09:45:25.762Z</time></trkpt><trkpt lat="45.3650008" lon="10.7507326"><ele>96.0</ele><time>2026-03-28T09:45:26.763Z</time></trkpt><trkpt lat="45.3650999" lon="10.7509431"><ele>95.33333333333333</ele><time>2026-03-28T09:45:27.762Z</time></trkpt><trkpt lat="45.3652005" lon="10.7511526"><ele>94.66666666666666</ele><time>2026-03-28T09:45:28.762Z</time></trkpt><trkpt lat="45.3653039" lon="10.7513611"><ele>94.0</ele><time>2026-03-28T09:45:29.762Z</time></trkpt><trkpt lat="45.365413" lon="10.7515642"><ele>94.0</ele><time>2026-03-28T09:45:30.762Z</time></trkpt><trkpt lat="45.3655253" lon="10.7517623"><ele>94.0</ele><time>2026-03-28T09:45:31.762Z</time></trkpt><trkpt lat="45.3656332" lon="10.7519638"><ele>94.0</ele><time>2026-03-28T09:45:32.763Z</time></trkpt><trkpt lat="45.365735" lon="10.7521729"><ele>94.0</ele><time>2026-03-28T09:45:33.762Z</time></trkpt><trkpt lat="45.3658313" lon="10.7523852"><ele>94.0</ele><time>2026-03-28T09:45:34.763Z</time></trkpt><trkpt lat="45.3659237" lon="10.7525978"><ele>94.0</ele><time>2026-03-28T09:45:35.763Z</time></trkpt><trkpt lat="45.3660147" lon="10.7528072"><ele>94.0</ele><time>2026-03-28T09:45:36.763Z</time></trkpt><trkpt lat="45.3661055" lon="10.7530134"><ele>94.0</ele><time>2026-03-28T09:45:37.762Z</time></trkpt><trkpt lat="45.3661909" lon="10.7532197"><ele>94.0</ele><time>2026-03-28T09:45:38.762Z</time></trkpt><trkpt lat="45.366273" lon="10.7534238"><ele>93.66666666666666</ele><time>2026-03-28T09:45:39.762Z</time></trkpt><trkpt lat="45.3663507" lon="10.7536318"><ele>93.33333333333333</ele><time>2026-03-28T09:45:40.762Z</time></trkpt><trkpt lat="45.3664243" lon="10.7538497"><ele>93.0</ele><time>2026-03-28T09:45:41.762Z</time></trkpt><trkpt lat="45.3664982" lon="10.7540712"><ele>93.0</ele><time>2026-03-28T09:45:42.762Z</time></trkpt><trkpt lat="45.3665752" lon="10.7542932"><ele>93.0</ele><time>2026-03-28T09:45:43.763Z</time></trkpt><trkpt lat="45.3666597" lon="10.7545135"><ele>93.0</ele><time>2026-03-28T09:45:44.763Z</time></trkpt><trkpt lat="45.3667505" lon="10.7547279"><ele>93.33333333333333</ele><time>2026-03-28T09:45:45.763Z</time></trkpt><trkpt lat="45.3668472" lon="10.754941"><ele>93.66666666666666</ele><time>2026-03-28T09:45:46.762Z</time></trkpt><trkpt lat="45.3669445" lon="10.7551537"><ele>94.0</ele><time>2026-03-28T09:45:47.762Z</time></trkpt><trkpt lat="45.3670447" lon="10.7553638"><ele>94.0</ele><time>2026-03-28T09:45:48.763Z</time></trkpt><trkpt lat="45.3671464" lon="10.7555749"><ele>94.0</ele><time>2026-03-28T09:45:49.763Z</time></trkpt><trkpt lat="45.3672491" lon="10.7557845"><ele>94.0</ele><time>2026-03-28T09:45:50.762Z</time></trkpt><trkpt lat="45.3673453" lon="10.7559808"><ele>94.33333333333333</ele><time>2026-03-28T09:45:51.762Z</time></trkpt><trkpt lat="45.3674337" lon="10.7561641"><ele>94.66666666666667</ele><time>2026-03-28T09:45:52.762Z</time></trkpt><trkpt lat="45.3675178" lon="10.7563357"><ele>95.0</ele><time>2026-03-28T09:45:53.763Z</time></trkpt><trkpt lat="45.3676065" lon="10.7565061"><ele>95.0</ele><time>2026-03-28T09:45:54.763Z</time></trkpt><trkpt lat="45.3676939" lon="10.7566717"><ele>95.0</ele><time>2026-03-28T09:45:55.763Z</time></trkpt><trkpt lat="45.3677652" lon="10.7568297"><ele>95.0</ele><time>2026-03-28T09:45:56.762Z</time></trkpt><trkpt lat="45.3678166" lon="10.7570059"><ele>95.0</ele><time>2026-03-28T09:45:57.762Z</time></trkpt><trkpt lat="45.3678435" lon="10.7571964"><ele>95.25</ele><time>2026-03-28T09:45:58.763Z</time></trkpt><trkpt lat="45.3678642" lon="10.757394"><ele>95.5</ele><time>2026-03-28T09:45:59.763Z</time></trkpt><trkpt lat="45.3678919" lon="10.7575958"><ele>95.75</ele><time>2026-03-28T09:46:00.762Z</time></trkpt><trkpt lat="45.3679172" lon="10.7577904"><ele>96.0</ele><time>2026-03-28T09:46:01.762Z</time></trkpt><trkpt lat="45.3679433" lon="10.757976"><ele>96.25</ele><time>2026-03-28T09:46:02.762Z</time></trkpt><trkpt lat="45.3679789" lon="10.7581668"><ele>96.5</ele><time>2026-03-28T09:46:03.762Z</time></trkpt><trkpt lat="45.3680136" lon="10.7583652"><ele>96.75</ele><time>2026-03-28T09:46:04.763Z</time></trkpt><trkpt lat="45.3680438" lon="10.7585671"><ele>97.0</ele><time>2026-03-28T09:46:05.762Z</time></trkpt><trkpt lat="45.3680748" lon="10.7587744"><ele>97.0</ele><time>2026-03-28T09:46:06.762Z</time></trkpt><trkpt lat="45.3681087" lon="10.7589862"><ele>97.0</ele><time>2026-03-28T09:46:07.763Z</time></trkpt><trkpt lat="45.3681455" lon="10.7592048"><ele>97.0</ele><time>2026-03-28T09:46:08.762Z</time></trkpt><trkpt lat="45.3681806" lon="10.7594295"><ele>97.0</ele><time>2026-03-28T09:46:09.762Z</time></trkpt><trkpt lat="45.3682158" lon="10.759661"><ele>97.0</ele><time>2026-03-28T09:46:10.763Z</time></trkpt><trkpt lat="45.3682514" lon="10.7598942"><ele>97.0</ele><time>2026-03-28T09:46:11.763Z</time></trkpt><trkpt lat="45.3682883" lon="10.7601246"><ele>97.5</ele><time>2026-03-28T09:46:12.762Z</time></trkpt><trkpt lat="45.3683294" lon="10.7603375"><ele>98.0</ele><time>2026-03-28T09:46:13.762Z</time></trkpt><trkpt lat="45.3683714" lon="10.7605351"><ele>98.5</ele><time>2026-03-28T09:46:14.763Z</time></trkpt><trkpt lat="45.3684132" lon="10.7607161"><ele>99.0</ele><time>2026-03-28T09:46:15.762Z</time></trkpt><trkpt lat="45.3684513" lon="10.760873"><ele>99.0</ele><time>2026-03-28T09:46:16.763Z</time></trkpt><trkpt lat="45.36849" lon="10.760971"><ele>99.0</ele><time>2026-03-28T09:46:17.762Z</time></trkpt><trkpt lat="45.3685405" lon="10.7610884"><ele>99.0</ele><time>2026-03-28T09:46:19.763Z</time></trkpt><trkpt lat="45.3685535" lon="10.7611807"><ele>99.0</ele><time>2026-03-28T09:46:20.762Z</time></trkpt><trkpt lat="45.3685892" lon="10.7613015"><ele>99.0</ele><time>2026-03-28T09:46:21.763Z</time></trkpt><trkpt lat="45.3686412" lon="10.7614491"><ele>99.0</ele><time>2026-03-28T09:46:22.762Z</time></trkpt><trkpt lat="45.3686924" lon="10.7616072"><ele>99.0</ele><time>2026-03-28T09:46:23.762Z</time></trkpt><trkpt lat="45.368746" lon="10.7617778"><ele>99.0</ele><time>2026-03-28T09:46:24.762Z</time></trkpt><trkpt lat="45.3688043" lon="10.7619554"><ele>99.0</ele><time>2026-03-28T09:46:25.763Z</time></trkpt><trkpt lat="45.3688656" lon="10.7621414"><ele>99.0</ele><time>2026-03-28T09:46:26.762Z</time></trkpt><trkpt lat="45.3689236" lon="10.762326"><ele>99.0</ele><time>2026-03-28T09:46:27.763Z</time></trkpt><trkpt lat="45.3689751" lon="10.7625034"><ele>99.0</ele><time>2026-03-28T09:46:28.763Z</time></trkpt><trkpt lat="45.3690187" lon="10.7626753"><ele>99.0</ele><time>2026-03-28T09:46:29.763Z</time></trkpt><trkpt lat="45.369061" lon="10.7628378"><ele>98.25</ele><time>2026-03-28T09:46:30.763Z</time></trkpt><trkpt lat="45.3691005" lon="10.7629984"><ele>97.5</ele><time>2026-03-28T09:46:31.762Z</time></trkpt><trkpt lat="45.3691404" lon="10.7631611"><ele>96.75</ele><time>2026-03-28T09:46:32.763Z</time></trkpt><trkpt lat="45.3691829" lon="10.7633243"><ele>96.0</ele><time>2026-03-28T09:46:33.762Z</time></trkpt><trkpt lat="45.3692237" lon="10.7634904"><ele>96.25</ele><time>2026-03-28T09:46:34.762Z</time></trkpt><trkpt lat="45.3692554" lon="10.7636603"><ele>96.5</ele><time>2026-03-28T09:46:35.762Z</time></trkpt><trkpt lat="45.3692697" lon="10.7638339"><ele>96.75</ele><time>2026-03-28T09:46:36.763Z</time></trkpt><trkpt lat="45.3692631" lon="10.7640074"><ele>97.0</ele><time>2026-03-28T09:46:37.763Z</time></trkpt><trkpt lat="45.3692462" lon="10.764177"><ele>97.0</ele><time>2026-03-28T09:46:38.762Z</time></trkpt><trkpt lat="45.3692326" lon="10.7643469"><ele>97.0</ele><time>2026-03-28T09:46:39.762Z</time></trkpt><trkpt lat="45.3692258" lon="10.7645151"><ele>97.0</ele><time>2026-03-28T09:46:40.763Z</time></trkpt><trkpt lat="45.3692236" lon="10.7646699"><ele>97.0</ele><time>2026-03-28T09:46:41.762Z</time></trkpt><trkpt lat="45.3692293" lon="10.7648156"><ele>97.00000000000001</ele><time>2026-03-28T09:46:42.763Z</time></trkpt><trkpt lat="45.3692377" lon="10.7649422"><ele>97.0</ele><time>2026-03-28T09:46:43.762Z</time></trkpt><trkpt lat="45.3692425" lon="10.7650443"><ele>97.0</ele><time>2026-03-28T09:46:44.762Z</time></trkpt><trkpt lat="45.3692401" lon="10.7651342"><ele>97.0</ele><time>2026-03-28T09:46:45.763Z</time></trkpt><trkpt lat="45.3692228" lon="10.7652222"><ele>97.00000000000001</ele><time>2026-03-28T09:46:46.762Z</time></trkpt><trkpt lat="45.3691945" lon="10.7653264"><ele>97.0</ele><time>2026-03-28T09:46:47.762Z</time></trkpt><trkpt lat="45.3691567" lon="10.7654488"><ele>97.0</ele><time>2026-03-28T09:46:48.763Z</time></trkpt><trkpt lat="45.3691079" lon="10.7655887"><ele>97.0</ele><time>2026-03-28T09:46:49.763Z</time></trkpt><trkpt lat="45.369048" lon="10.7657397"><ele>97.0</ele><time>2026-03-28T09:46:50.763Z</time></trkpt><trkpt lat="45.3689845" lon="10.765906"><ele>97.0</ele><time>2026-03-28T09:46:51.762Z</time></trkpt><trkpt lat="45.3689175" lon="10.7660948"><ele>95.66666666666667</ele><time>2026-03-28T09:46:52.762Z</time></trkpt><trkpt lat="45.3688421" lon="10.7663101"><ele>94.33333333333334</ele><time>2026-03-28T09:46:53.763Z</time></trkpt><trkpt lat="45.3687724" lon="10.7665238"><ele>93.0</ele><time>2026-03-28T09:46:54.762Z</time></trkpt><trkpt lat="45.3687058" lon="10.7667497"><ele>93.0</ele><time>2026-03-28T09:46:55.763Z</time></trkpt><trkpt lat="45.3686459" lon="10.7669566"><ele>93.0</ele><time>2026-03-28T09:46:56.763Z</time></trkpt><trkpt lat="45.368591" lon="10.7671578"><ele>93.0</ele><time>2026-03-28T09:46:57.762Z</time></trkpt><trkpt lat="45.3685463" lon="10.7673473"><ele>93.0</ele><time>2026-03-28T09:46:58.762Z</time></trkpt><trkpt lat="45.3685075" lon="10.7675408"><ele>93.0</ele><time>2026-03-28T09:46:59.763Z</time></trkpt><trkpt lat="45.3684667" lon="10.7677396"><ele>93.0</ele><time>2026-03-28T09:47:00.762Z</time></trkpt><trkpt lat="45.3684289" lon="10.7679473"><ele>93.0</ele><time>2026-03-28T09:47:01.763Z</time></trkpt><trkpt lat="45.3684025" lon="10.7681619"><ele>93.0</ele><time>2026-03-28T09:47:02.763Z</time></trkpt><trkpt lat="45.3683792" lon="10.7683936"><ele>93.33333333333333</ele><time>2026-03-28T09:47:03.762Z</time></trkpt><trkpt lat="45.3683554" lon="10.768633"><ele>93.66666666666666</ele><time>2026-03-28T09:47:04.762Z</time></trkpt><trkpt lat="45.3683326" lon="10.7688728"><ele>94.0</ele><time>2026-03-28T09:47:05.763Z</time></trkpt><trkpt lat="45.3683118" lon="10.7690912"><ele>94.0</ele><time>2026-03-28T09:47:06.763Z</time></trkpt><trkpt lat="45.3682976" lon="10.769308"><ele>94.0</ele><time>2026-03-28T09:47:07.762Z</time></trkpt><trkpt lat="45.3682906" lon="10.769527"><ele>94.0</ele><time>2026-03-28T09:47:08.762Z</time></trkpt><trkpt lat="45.3682953" lon="10.7697385"><ele>94.25</ele><time>2026-03-28T09:47:09.763Z</time></trkpt><trkpt lat="45.368303" lon="10.7699375"><ele>94.5</ele><time>2026-03-28T09:47:10.763Z</time></trkpt><trkpt lat="45.3683083" lon="10.7701428"><ele>94.75</ele><time>2026-03-28T09:47:11.763Z</time></trkpt><trkpt lat="45.3682998" lon="10.770342"><ele>95.0</ele><time>2026-03-28T09:47:12.763Z</time></trkpt><trkpt lat="45.3682798" lon="10.7705504"><ele>95.0</ele><time>2026-03-28T09:47:13.762Z</time></trkpt><trkpt lat="45.3682571" lon="10.7707601"><ele>95.0</ele><time>2026-03-28T09:47:14.762Z</time></trkpt><trkpt lat="45.3682313" lon="10.7709604"><ele>95.0</ele><time>2026-03-28T09:47:15.762Z</time></trkpt><trkpt lat="45.3682035" lon="10.7711515"><ele>95.0</ele><time>2026-03-28T09:47:16.762Z</time></trkpt><trkpt lat="45.3681632" lon="10.7713495"><ele>95.66666666666667</ele><time>2026-03-28T09:47:17.764Z</time></trkpt><trkpt lat="45.3681057" lon="10.771543"><ele>96.33333333333334</ele><time>2026-03-28T09:47:18.762Z</time></trkpt><trkpt lat="45.3680393" lon="10.7717418"><ele>97.0</ele><time>2026-03-28T09:47:19.762Z</time></trkpt><trkpt lat="45.3679805" lon="10.7719589"><ele>95.33333333333334</ele><time>2026-03-28T09:47:20.763Z</time></trkpt><trkpt lat="45.367928" lon="10.7721864"><ele>93.66666666666667</ele><time>2026-03-28T09:47:21.763Z</time></trkpt><trkpt lat="45.3678806" lon="10.7724123"><ele>92.0</ele><time>2026-03-28T09:47:22.762Z</time></trkpt><trkpt lat="45.3678418" lon="10.7726445"><ele>91.66666666666667</ele><time>2026-03-28T09:47:23.762Z</time></trkpt><trkpt lat="45.3678115" lon="10.7728836"><ele>91.33333333333333</ele><time>2026-03-28T09:47:24.763Z</time></trkpt><trkpt lat="45.3677833" lon="10.7731125"><ele>91.0</ele><time>2026-03-28T09:47:25.763Z</time></trkpt><trkpt lat="45.3677553" lon="10.7733148"><ele>91.0</ele><time>2026-03-28T09:47:26.762Z</time></trkpt><trkpt lat="45.3677282" lon="10.7735159"><ele>91.0</ele><time>2026-03-28T09:47:27.762Z</time></trkpt><trkpt lat="45.3677047" lon="10.7737062"><ele>91.0</ele><time>2026-03-28T09:47:28.762Z</time></trkpt><trkpt lat="45.3676841" lon="10.7739033"><ele>91.0</ele><time>2026-03-28T09:47:29.763Z</time></trkpt><trkpt lat="45.3676617" lon="10.7741086"><ele>92.0</ele><time>2026-03-28T09:47:30.763Z</time></trkpt><trkpt lat="45.3676365" lon="10.7743214"><ele>93.0</ele><time>2026-03-28T09:47:31.763Z</time></trkpt><trkpt lat="45.3676108" lon="10.7745419"><ele>94.0</ele><time>2026-03-28T09:47:32.762Z</time></trkpt><trkpt lat="45.3675894" lon="10.7747672"><ele>94.0</ele><time>2026-03-28T09:47:33.762Z</time></trkpt><trkpt lat="45.3675668" lon="10.7749947"><ele>94.0</ele><time>2026-03-28T09:47:34.762Z</time></trkpt><trkpt lat="45.3675453" lon="10.7752264"><ele>94.0</ele><time>2026-03-28T09:47:35.764Z</time></trkpt><trkpt lat="45.3675266" lon="10.7754432"><ele>94.0</ele><time>2026-03-28T09:47:36.763Z</time></trkpt><trkpt lat="45.3675048" lon="10.7756583"><ele>94.0</ele><time>2026-03-28T09:47:37.762Z</time></trkpt><trkpt lat="45.367486" lon="10.7758657"><ele>94.0</ele><time>2026-03-28T09:47:38.762Z</time></trkpt><trkpt lat="45.3674717" lon="10.7760642"><ele>94.0</ele><time>2026-03-28T09:47:39.763Z</time></trkpt><trkpt lat="45.3674552" lon="10.7762533"><ele>94.25</ele><time>2026-03-28T09:47:40.763Z</time></trkpt><trkpt lat="45.3674378" lon="10.7764353"><ele>94.5</ele><time>2026-03-28T09:47:41.763Z</time></trkpt><trkpt lat="45.3674276" lon="10.776615"><ele>94.75</ele><time>2026-03-28T09:47:42.762Z</time></trkpt><trkpt lat="45.3674227" lon="10.7767982"><ele>95.0</ele><time>2026-03-28T09:47:43.763Z</time></trkpt><trkpt lat="45.3674221" lon="10.776985"><ele>94.5</ele><time>2026-03-28T09:47:44.763Z</time></trkpt><trkpt lat="45.3674291" lon="10.7771715"><ele>94.0</ele><time>2026-03-28T09:47:45.763Z</time></trkpt><trkpt lat="45.3674398" lon="10.7773467"><ele>93.5</ele><time>2026-03-28T09:47:46.762Z</time></trkpt><trkpt lat="45.3674535" lon="10.7775145"><ele>93.0</ele><time>2026-03-28T09:47:47.762Z</time></trkpt><trkpt lat="45.3674737" lon="10.7776807"><ele>92.4</ele><time>2026-03-28T09:47:48.763Z</time></trkpt><trkpt lat="45.3674948" lon="10.777845"><ele>91.80000000000001</ele><time>2026-03-28T09:47:49.763Z</time></trkpt><trkpt lat="45.3675095" lon="10.7780011"><ele>91.2</ele><time>2026-03-28T09:47:50.762Z</time></trkpt><trkpt lat="45.3675162" lon="10.7781483"><ele>90.6</ele><time>2026-03-28T09:47:51.762Z</time></trkpt><trkpt lat="45.3675109" lon="10.778291"><ele>90.0</ele><time>2026-03-28T09:47:52.762Z</time></trkpt><trkpt lat="45.3674937" lon="10.7784463"><ele>89.5</ele><time>2026-03-28T09:47:53.762Z</time></trkpt><trkpt lat="45.3674685" lon="10.7786045"><ele>89.0</ele><time>2026-03-28T09:47:54.763Z</time></trkpt><trkpt lat="45.3674342" lon="10.7787634"><ele>88.5</ele><time>2026-03-28T09:47:55.763Z</time></trkpt><trkpt lat="45.3673941" lon="10.7789235"><ele>88.0</ele><time>2026-03-28T09:47:56.763Z</time></trkpt><trkpt lat="45.3673549" lon="10.7790776"><ele>88.0</ele><time>2026-03-28T09:47:57.762Z</time></trkpt><trkpt lat="45.3673222" lon="10.7792239"><ele>88.0</ele><time>2026-03-28T09:47:58.762Z</time></trkpt><trkpt lat="45.3672923" lon="10.7793558"><ele>88.0</ele><time>2026-03-28T09:47:59.762Z</time></trkpt><trkpt lat="45.3672717" lon="10.7794572"><ele>88.0</ele><time>2026-03-28T09:48:00.763Z</time></trkpt><trkpt lat="45.3672749" lon="10.7795835"><ele>88.0</ele><time>2026-03-28T09:48:02.762Z</time></trkpt><trkpt lat="45.3673478" lon="10.7796383"><ele>87.80000000000001</ele><time>2026-03-28T09:48:04.763Z</time></trkpt><trkpt lat="45.3674186" lon="10.7796531"><ele>87.6</ele><time>2026-03-28T09:48:05.762Z</time></trkpt><trkpt lat="45.3674976" lon="10.7796702"><ele>87.4</ele><time>2026-03-28T09:48:06.763Z</time></trkpt><trkpt lat="45.3675951" lon="10.7796995"><ele>87.19999999999999</ele><time>2026-03-28T09:48:07.762Z</time></trkpt><trkpt lat="45.3677069" lon="10.7797436"><ele>87.0</ele><time>2026-03-28T09:48:08.763Z</time></trkpt><trkpt lat="45.367825" lon="10.7797928"><ele>87.0</ele><time>2026-03-28T09:48:09.762Z</time></trkpt><trkpt lat="45.3679531" lon="10.7798434"><ele>87.0</ele><time>2026-03-28T09:48:10.763Z</time></trkpt><trkpt lat="45.3680915" lon="10.7798989"><ele>87.0</ele><time>2026-03-28T09:48:11.762Z</time></trkpt><trkpt lat="45.3682413" lon="10.7799546"><ele>87.0</ele><time>2026-03-28T09:48:12.762Z</time></trkpt><trkpt lat="45.3683964" lon="10.7800074"><ele>88.33333333333333</ele><time>2026-03-28T09:48:13.763Z</time></trkpt><trkpt lat="45.3685512" lon="10.780067"><ele>89.66666666666666</ele><time>2026-03-28T09:48:14.762Z</time></trkpt><trkpt lat="45.3687012" lon="10.7801213"><ele>91.0</ele><time>2026-03-28T09:48:15.762Z</time></trkpt><trkpt lat="45.368851" lon="10.7801808"><ele>91.33333333333333</ele><time>2026-03-28T09:48:16.763Z</time></trkpt><trkpt lat="45.3690031" lon="10.7802468"><ele>91.66666666666667</ele><time>2026-03-28T09:48:17.763Z</time></trkpt><trkpt lat="45.369154" lon="10.7803084"><ele>92.0</ele><time>2026-03-28T09:48:18.762Z</time></trkpt><trkpt lat="45.3692928" lon="10.7803607"><ele>92.0</ele><time>2026-03-28T09:48:19.763Z</time></trkpt><trkpt lat="45.3694383" lon="10.7804186"><ele>92.0</ele><time>2026-03-28T09:48:20.762Z</time></trkpt><trkpt lat="45.3695782" lon="10.7804821"><ele>92.0</ele><time>2026-03-28T09:48:21.762Z</time></trkpt><trkpt lat="45.3697077" lon="10.7805486"><ele>92.0</ele><time>2026-03-28T09:48:22.762Z</time></trkpt><trkpt lat="45.3698284" lon="10.7806219"><ele>92.0</ele><time>2026-03-28T09:48:23.762Z</time></trkpt><trkpt lat="45.3699309" lon="10.7806961"><ele>92.0</ele><time>2026-03-28T09:48:24.763Z</time></trkpt><trkpt lat="45.3700212" lon="10.7807772"><ele>92.0</ele><time>2026-03-28T09:48:25.762Z</time></trkpt><trkpt lat="45.3700991" lon="10.7808751"><ele>92.0</ele><time>2026-03-28T09:48:26.763Z</time></trkpt><trkpt lat="45.3701677" lon="10.7809838"><ele>92.0</ele><time>2026-03-28T09:48:27.763Z</time></trkpt><trkpt lat="45.3702328" lon="10.7811002"><ele>92.0</ele><time>2026-03-28T09:48:28.762Z</time></trkpt><trkpt lat="45.3703014" lon="10.7811932"><ele>92.0</ele><time>2026-03-28T09:48:29.763Z</time></trkpt><trkpt lat="45.3703793" lon="10.7812633"><ele>92.0</ele><time>2026-03-28T09:48:30.762Z</time></trkpt><trkpt lat="45.3704587" lon="10.781304"><ele>92.0</ele><time>2026-03-28T09:48:31.763Z</time></trkpt><trkpt lat="45.37054" lon="10.781332"><ele>92.0</ele><time>2026-03-28T09:48:32.763Z</time></trkpt><trkpt lat="45.3706169" lon="10.781356"><ele>92.0</ele><time>2026-03-28T09:48:33.762Z</time></trkpt><trkpt lat="45.3706963" lon="10.7813789"><ele>91.66666666666667</ele><time>2026-03-28T09:48:34.763Z</time></trkpt><trkpt lat="45.3707866" lon="10.7814125"><ele>91.33333333333334</ele><time>2026-03-28T09:48:35.763Z</time></trkpt><trkpt lat="45.3708671" lon="10.7814501"><ele>91.0</ele><time>2026-03-28T09:48:36.762Z</time></trkpt><trkpt lat="45.3709472" lon="10.781499"><ele>90.66666666666667</ele><time>2026-03-28T09:48:37.763Z</time></trkpt><trkpt lat="45.3710217" lon="10.781554"><ele>90.33333333333333</ele><time>2026-03-28T09:48:38.763Z</time></trkpt><trkpt lat="45.3711055" lon="10.7816237"><ele>90.0</ele><time>2026-03-28T09:48:39.763Z</time></trkpt><trkpt lat="45.3711783" lon="10.7816966"><ele>90.0</ele><time>2026-03-28T09:48:40.762Z</time></trkpt><trkpt lat="45.3712492" lon="10.7817775"><ele>90.0</ele><time>2026-03-28T09:48:41.763Z</time></trkpt><trkpt lat="45.37132" lon="10.7818745"><ele>90.0</ele><time>2026-03-28T09:48:42.763Z</time></trkpt><trkpt lat="45.3714012" lon="10.7819771"><ele>90.0</ele><time>2026-03-28T09:48:43.762Z</time></trkpt><trkpt lat="45.3714908" lon="10.7820656"><ele>90.0</ele><time>2026-03-28T09:48:44.763Z</time></trkpt><trkpt lat="45.3715713" lon="10.7821397"><ele>89.5</ele><time>2026-03-28T09:48:45.762Z</time></trkpt><trkpt lat="45.3716537" lon="10.7821982"><ele>89.0</ele><time>2026-03-28T09:48:46.762Z</time></trkpt><trkpt lat="45.3717374" lon="10.7822511"><ele>88.5</ele><time>2026-03-28T09:48:47.763Z</time></trkpt><trkpt lat="45.3718098" lon="10.782301"><ele>88.0</ele><time>2026-03-28T09:48:48.762Z</time></trkpt><trkpt lat="45.3718703" lon="10.7823541"><ele>87.5</ele><time>2026-03-28T09:48:49.763Z</time></trkpt><trkpt lat="45.3719364" lon="10.7824206"><ele>87.0</ele><time>2026-03-28T09:48:50.762Z</time></trkpt><trkpt lat="45.3719986" lon="10.7824889"><ele>87.0</ele><time>2026-03-28T09:48:51.763Z</time></trkpt><trkpt lat="45.3720579" lon="10.7825498"><ele>87.0</ele><time>2026-03-28T09:48:52.762Z</time></trkpt><trkpt lat="45.3721173" lon="10.7826123"><ele>87.0</ele><time>2026-03-28T09:48:53.762Z</time></trkpt><trkpt lat="45.3721841" lon="10.7826841"><ele>87.0</ele><time>2026-03-28T09:48:54.763Z</time></trkpt><trkpt lat="45.3722533" lon="10.7827607"><ele>87.0</ele><time>2026-03-28T09:48:55.762Z</time></trkpt><trkpt lat="45.3723365" lon="10.7828535"><ele>87.0</ele><time>2026-03-28T09:48:56.763Z</time></trkpt><trkpt lat="45.3724256" lon="10.7829663"><ele>85.25</ele><time>2026-03-28T09:48:57.762Z</time></trkpt><trkpt lat="45.3725155" lon="10.7830837"><ele>83.5</ele><time>2026-03-28T09:48:58.763Z</time></trkpt><trkpt lat="45.3726058" lon="10.7832015"><ele>81.75</ele><time>2026-03-28T09:48:59.763Z</time></trkpt><trkpt lat="45.3727014" lon="10.7833108"><ele>80.0</ele><time>2026-03-28T09:49:00.763Z</time></trkpt><trkpt lat="45.372812" lon="10.7834131"><ele>80.0</ele><time>2026-03-28T09:49:01.762Z</time></trkpt><trkpt lat="45.3729243" lon="10.7835069"><ele>80.0</ele><time>2026-03-28T09:49:02.763Z</time></trkpt><trkpt lat="45.3730217" lon="10.7835851"><ele>80.0</ele><time>2026-03-28T09:49:03.762Z</time></trkpt><trkpt lat="45.3731245" lon="10.7836528"><ele>80.0</ele><time>2026-03-28T09:49:04.763Z</time></trkpt><trkpt lat="45.3732338" lon="10.7836969"><ele>77.5</ele><time>2026-03-28T09:49:05.762Z</time></trkpt><trkpt lat="45.3733546" lon="10.7837229"><ele>75.0</ele><time>2026-03-28T09:49:06.763Z</time></trkpt><trkpt lat="45.3734816" lon="10.7837298"><ele>72.5</ele><time>2026-03-28T09:49:07.763Z</time></trkpt><trkpt lat="45.3736198" lon="10.7837394"><ele>70.0</ele><time>2026-03-28T09:49:08.762Z</time></trkpt><trkpt lat="45.3737657" lon="10.7837539"><ele>70.0</ele><time>2026-03-28T09:49:09.762Z</time></trkpt><trkpt lat="45.3739005" lon="10.7837704"><ele>70.0</ele><time>2026-03-28T09:49:10.763Z</time></trkpt><trkpt lat="45.3740241" lon="10.7837863"><ele>70.0</ele><time>2026-03-28T09:49:11.763Z</time></trkpt><trkpt lat="45.3741374" lon="10.7838023"><ele>70.0</ele><time>2026-03-28T09:49:12.762Z</time></trkpt><trkpt lat="45.3742392" lon="10.7838195"><ele>70.0</ele><time>2026-03-28T09:49:13.762Z</time></trkpt><trkpt lat="45.3743354" lon="10.7838312"><ele>70.0</ele><time>2026-03-28T09:49:14.763Z</time></trkpt><trkpt lat="45.374416" lon="10.7838441"><ele>70.0</ele><time>2026-03-28T09:49:15.763Z</time></trkpt><trkpt lat="45.3745237" lon="10.7838094"><ele>70.0</ele><time>2026-03-28T09:49:17.762Z</time></trkpt><trkpt lat="45.3746315" lon="10.7836564"><ele>70.0</ele><time>2026-03-28T09:49:19.762Z</time></trkpt><trkpt lat="45.3747244" lon="10.7835204"><ele>70.33333333333333</ele><time>2026-03-28T09:49:20.762Z</time></trkpt><trkpt lat="45.3748445" lon="10.7833526"><ele>70.66666666666667</ele><time>2026-03-28T09:49:21.762Z</time></trkpt><trkpt lat="45.37499" lon="10.7832048"><ele>71.0</ele><time>2026-03-28T09:49:22.763Z</time></trkpt><trkpt lat="45.375138" lon="10.7831181"><ele>71.0</ele><time>2026-03-28T09:49:23.763Z</time></trkpt><trkpt lat="45.3752981" lon="10.7830707"><ele>71.0</ele><time>2026-03-28T09:49:24.762Z</time></trkpt><trkpt lat="45.3754618" lon="10.7830096"><ele>71.0</ele><time>2026-03-28T09:49:25.763Z</time></trkpt><trkpt lat="45.3756192" lon="10.7829527"><ele>70.33333333333334</ele><time>2026-03-28T09:49:26.763Z</time></trkpt><trkpt lat="45.375773" lon="10.7828891"><ele>69.66666666666667</ele><time>2026-03-28T09:49:27.763Z</time></trkpt><trkpt lat="45.3759262" lon="10.7827996"><ele>69.0</ele><time>2026-03-28T09:49:28.763Z</time></trkpt><trkpt lat="45.3760702" lon="10.7826733"><ele>69.33333333333333</ele><time>2026-03-28T09:49:29.763Z</time></trkpt><trkpt lat="45.3762021" lon="10.7824975"><ele>69.66666666666666</ele><time>2026-03-28T09:49:30.763Z</time></trkpt><trkpt lat="45.3763294" lon="10.7822801"><ele>70.0</ele><time>2026-03-28T09:49:31.763Z</time></trkpt><trkpt lat="45.3764573" lon="10.7820385"><ele>72.0</ele><time>2026-03-28T09:49:32.762Z</time></trkpt><trkpt lat="45.3765825" lon="10.7817747"><ele>74.0</ele><time>2026-03-28T09:49:33.762Z</time></trkpt><trkpt lat="45.3767" lon="10.7814767"><ele>74.0</ele><time>2026-03-28T09:49:34.762Z</time></trkpt><trkpt lat="45.3768059" lon="10.7811691"><ele>74.0</ele><time>2026-03-28T09:49:35.762Z</time></trkpt><trkpt lat="45.3768896" lon="10.7808527"><ele>75.0</ele><time>2026-03-28T09:49:36.762Z</time></trkpt><trkpt lat="45.3769474" lon="10.7805276"><ele>76.0</ele><time>2026-03-28T09:49:37.762Z</time></trkpt><trkpt lat="45.3769987" lon="10.7802076"><ele>80.0</ele><time>2026-03-28T09:49:38.762Z</time></trkpt><trkpt lat="45.3770576" lon="10.7798934"><ele>84.0</ele><time>2026-03-28T09:49:39.762Z</time></trkpt><trkpt lat="45.377123" lon="10.7795861"><ele>81.66666666666667</ele><time>2026-03-28T09:49:40.762Z</time></trkpt><trkpt lat="45.3771927" lon="10.7792853"><ele>79.33333333333334</ele><time>2026-03-28T09:49:41.762Z</time></trkpt><trkpt lat="45.3772718" lon="10.7789909"><ele>77.0</ele><time>2026-03-28T09:49:42.764Z</time></trkpt><trkpt lat="45.3773603" lon="10.778702"><ele>77.66666666666667</ele><time>2026-03-28T09:49:43.763Z</time></trkpt><trkpt lat="45.3774517" lon="10.7784151"><ele>78.33333333333333</ele><time>2026-03-28T09:49:44.762Z</time></trkpt><trkpt lat="45.3775502" lon="10.7781334"><ele>79.0</ele><time>2026-03-28T09:49:45.763Z</time></trkpt><trkpt lat="45.3776613" lon="10.777874"><ele>81.33333333333333</ele><time>2026-03-28T09:49:46.763Z</time></trkpt><trkpt lat="45.3777725" lon="10.7776387"><ele>83.66666666666667</ele><time>2026-03-28T09:49:47.762Z</time></trkpt><trkpt lat="45.3778713" lon="10.7774314"><ele>86.0</ele><time>2026-03-28T09:49:48.762Z</time></trkpt><trkpt lat="45.3779648" lon="10.777277"><ele>83.25</ele><time>2026-03-28T09:49:49.762Z</time></trkpt><trkpt lat="45.3780629" lon="10.7771964"><ele>80.5</ele><time>2026-03-28T09:49:50.763Z</time></trkpt><trkpt lat="45.3781781" lon="10.7771807"><ele>77.75</ele><time>2026-03-28T09:49:51.763Z</time></trkpt><trkpt lat="45.3783067" lon="10.7772346"><ele>75.0</ele><time>2026-03-28T09:49:52.763Z</time></trkpt><trkpt lat="45.3784468" lon="10.7773308"><ele>75.0</ele><time>2026-03-28T09:49:53.763Z</time></trkpt><trkpt lat="45.3785892" lon="10.7773959"><ele>75.0</ele><time>2026-03-28T09:49:54.762Z</time></trkpt><trkpt lat="45.378725" lon="10.7774089"><ele>75.0</ele><time>2026-03-28T09:49:55.762Z</time></trkpt><trkpt lat="45.3788845" lon="10.7773685"><ele>75.0</ele><time>2026-03-28T09:49:56.763Z</time></trkpt><trkpt lat="45.3790543" lon="10.7772686"><ele>74.33333333333333</ele><time>2026-03-28T09:49:57.762Z</time></trkpt><trkpt lat="45.3792445" lon="10.7771466"><ele>73.66666666666666</ele><time>2026-03-28T09:49:58.762Z</time></trkpt><trkpt lat="45.3794469" lon="10.7770207"><ele>73.0</ele><time>2026-03-28T09:49:59.762Z</time></trkpt><trkpt lat="45.3796546" lon="10.776875"><ele>75.0</ele><time>2026-03-28T09:50:00.762Z</time></trkpt><trkpt lat="45.3798564" lon="10.7767046"><ele>77.0</ele><time>2026-03-28T09:50:01.762Z</time></trkpt><trkpt lat="45.3800587" lon="10.7765384"><ele>77.0</ele><time>2026-03-28T09:50:02.762Z</time></trkpt><trkpt lat="45.3802758" lon="10.7764072"><ele>77.0</ele><time>2026-03-28T09:50:03.763Z</time></trkpt><trkpt lat="45.3804949" lon="10.7762947"><ele>76.5</ele><time>2026-03-28T09:50:04.763Z</time></trkpt><trkpt lat="45.3807119" lon="10.7761815"><ele>76.0</ele><time>2026-03-28T09:50:05.763Z</time></trkpt><trkpt lat="45.3809237" lon="10.7760718"><ele>77.0</ele><time>2026-03-28T09:50:06.762Z</time></trkpt><trkpt lat="45.3811281" lon="10.775967"><ele>78.0</ele><time>2026-03-28T09:50:07.762Z</time></trkpt><trkpt lat="45.3813174" lon="10.7758609"><ele>79.0</ele><time>2026-03-28T09:50:08.763Z</time></trkpt><trkpt lat="45.3814913" lon="10.7757546"><ele>79.0</ele><time>2026-03-28T09:50:09.763Z</time></trkpt><trkpt lat="45.3816463" lon="10.7756527"><ele>79.0</ele><time>2026-03-28T09:50:10.762Z</time></trkpt><trkpt lat="45.3817774" lon="10.7755643"><ele>79.0</ele><time>2026-03-28T09:50:11.762Z</time></trkpt><trkpt lat="45.3818713" lon="10.7754489"><ele>79.0</ele><time>2026-03-28T09:50:12.764Z</time></trkpt><trkpt lat="45.3819206" lon="10.7753029"><ele>80.5</ele><time>2026-03-28T09:50:13.763Z</time></trkpt><trkpt lat="45.3819195" lon="10.7751532"><ele>82.0</ele><time>2026-03-28T09:50:14.762Z</time></trkpt><trkpt lat="45.3818831" lon="10.7750053"><ele>83.5</ele><time>2026-03-28T09:50:15.762Z</time></trkpt><trkpt lat="45.3818362" lon="10.7748383"><ele>85.0</ele><time>2026-03-28T09:50:16.762Z</time></trkpt><trkpt lat="45.3817862" lon="10.7746457"><ele>85.0</ele><time>2026-03-28T09:50:17.762Z</time></trkpt><trkpt lat="45.3817284" lon="10.7744575"><ele>85.0</ele><time>2026-03-28T09:50:18.762Z</time></trkpt><trkpt lat="45.3817027" lon="10.7742563"><ele>85.0</ele><time>2026-03-28T09:50:19.762Z</time></trkpt><trkpt lat="45.3817106" lon="10.7740389"><ele>85.0</ele><time>2026-03-28T09:50:20.762Z</time></trkpt><trkpt lat="45.3817043" lon="10.7738219"><ele>87.5</ele><time>2026-03-28T09:50:21.762Z</time></trkpt><trkpt lat="45.3816959" lon="10.7736285"><ele>90.0</ele><time>2026-03-28T09:50:22.762Z</time></trkpt><trkpt lat="45.3816859" lon="10.773433"><ele>92.5</ele><time>2026-03-28T09:50:23.762Z</time></trkpt><trkpt lat="45.3816845" lon="10.7732538"><ele>95.0</ele><time>2026-03-28T09:50:24.763Z</time></trkpt><trkpt lat="45.381699" lon="10.7730852"><ele>96.0</ele><time>2026-03-28T09:50:25.764Z</time></trkpt><trkpt lat="45.3817233" lon="10.7729186"><ele>97.0</ele><time>2026-03-28T09:50:26.763Z</time></trkpt><trkpt lat="45.3817663" lon="10.7727512"><ele>98.0</ele><time>2026-03-28T09:50:27.762Z</time></trkpt><trkpt lat="45.3818158" lon="10.7725745"><ele>99.0</ele><time>2026-03-28T09:50:28.762Z</time></trkpt><trkpt lat="45.3818712" lon="10.7723892"><ele>99.25</ele><time>2026-03-28T09:50:29.762Z</time></trkpt><trkpt lat="45.381931" lon="10.7722025"><ele>99.5</ele><time>2026-03-28T09:50:30.762Z</time></trkpt><trkpt lat="45.3819927" lon="10.77201"><ele>99.75</ele><time>2026-03-28T09:50:31.763Z</time></trkpt><trkpt lat="45.3820515" lon="10.771817"><ele>100.0</ele><time>2026-03-28T09:50:32.762Z</time></trkpt><trkpt lat="45.3821145" lon="10.7716243"><ele>102.25</ele><time>2026-03-28T09:50:33.763Z</time></trkpt><trkpt lat="45.3821963" lon="10.7714446"><ele>104.5</ele><time>2026-03-28T09:50:34.763Z</time></trkpt><trkpt lat="45.3822879" lon="10.7712825"><ele>106.75</ele><time>2026-03-28T09:50:35.763Z</time></trkpt><trkpt lat="45.382376" lon="10.7711393"><ele>109.0</ele><time>2026-03-28T09:50:36.762Z</time></trkpt><trkpt lat="45.3824667" lon="10.7710006"><ele>109.2</ele><time>2026-03-28T09:50:37.763Z</time></trkpt><trkpt lat="45.3825461" lon="10.7708836"><ele>109.4</ele><time>2026-03-28T09:50:38.763Z</time></trkpt><trkpt lat="45.3826138" lon="10.77077"><ele>109.6</ele><time>2026-03-28T09:50:39.763Z</time></trkpt><trkpt lat="45.3826689" lon="10.7706646"><ele>109.8</ele><time>2026-03-28T09:50:40.762Z</time></trkpt><trkpt lat="45.382709" lon="10.7705632"><ele>110.0</ele><time>2026-03-28T09:50:41.762Z</time></trkpt><trkpt lat="45.3828038" lon="10.770536"><ele>110.0</ele><time>2026-03-28T09:50:43.763Z</time></trkpt><trkpt lat="45.3828839" lon="10.7706505"><ele>110.0</ele><time>2026-03-28T09:50:45.762Z</time></trkpt><trkpt lat="45.3829287" lon="10.770739"><ele>110.0</ele><time>2026-03-28T09:50:46.763Z</time></trkpt><trkpt lat="45.3829811" lon="10.7708404"><ele>110.0</ele><time>2026-03-28T09:50:47.763Z</time></trkpt><trkpt lat="45.383038" lon="10.7709508"><ele>110.0</ele><time>2026-03-28T09:50:48.762Z</time></trkpt><trkpt lat="45.3831013" lon="10.7710681"><ele>110.6</ele><time>2026-03-28T09:50:49.762Z</time></trkpt><trkpt lat="45.3831661" lon="10.7711881"><ele>111.2</ele><time>2026-03-28T09:50:50.762Z</time></trkpt><trkpt lat="45.3832334" lon="10.7713099"><ele>111.80000000000001</ele><time>2026-03-28T09:50:51.764Z</time></trkpt><trkpt lat="45.3833066" lon="10.7714297"><ele>112.4</ele><time>2026-03-28T09:50:52.762Z</time></trkpt><trkpt lat="45.3833856" lon="10.7715469"><ele>113.0</ele><time>2026-03-28T09:50:53.762Z</time></trkpt><trkpt lat="45.3834752" lon="10.7716637"><ele>113.0</ele><time>2026-03-28T09:50:54.763Z</time></trkpt><trkpt lat="45.3835691" lon="10.7717771"><ele>113.0</ele><time>2026-03-28T09:50:55.763Z</time></trkpt><trkpt lat="45.3836592" lon="10.7718824"><ele>113.0</ele><time>2026-03-28T09:50:56.762Z</time></trkpt><trkpt lat="45.3837491" lon="10.771986"><ele>113.0</ele><time>2026-03-28T09:50:57.763Z</time></trkpt><trkpt lat="45.3838399" lon="10.7720879"><ele>113.80000000000001</ele><time>2026-03-28T09:50:58.762Z</time></trkpt><trkpt lat="45.3839296" lon="10.7721846"><ele>114.60000000000001</ele><time>2026-03-28T09:50:59.762Z</time></trkpt><trkpt lat="45.3840216" lon="10.7722738"><ele>115.39999999999999</ele><time>2026-03-28T09:51:00.763Z</time></trkpt><trkpt lat="45.384115" lon="10.7723616"><ele>116.19999999999999</ele><time>2026-03-28T09:51:01.763Z</time></trkpt><trkpt lat="45.3842031" lon="10.7724539"><ele>117.0</ele><time>2026-03-28T09:51:02.763Z</time></trkpt><trkpt lat="45.3842886" lon="10.7725546"><ele>117.0</ele><time>2026-03-28T09:51:03.762Z</time></trkpt><trkpt lat="45.3843692" lon="10.7726524"><ele>116.99999999999999</ele><time>2026-03-28T09:51:04.762Z</time></trkpt><trkpt lat="45.3844506" lon="10.7727451"><ele>116.99999999999999</ele><time>2026-03-28T09:51:05.762Z</time></trkpt><trkpt lat="45.3845219" lon="10.7728242"><ele>117.0</ele><time>2026-03-28T09:51:06.763Z</time></trkpt><trkpt lat="45.3845898" lon="10.7728946"><ele>117.0</ele><time>2026-03-28T09:51:07.763Z</time></trkpt><trkpt lat="45.3846649" lon="10.772956"><ele>117.0</ele><time>2026-03-28T09:51:08.763Z</time></trkpt><trkpt lat="45.3847438" lon="10.7730074"><ele>117.0</ele><time>2026-03-28T09:51:09.762Z</time></trkpt><trkpt lat="45.3848227" lon="10.7730488"><ele>117.0</ele><time>2026-03-28T09:51:10.763Z</time></trkpt><trkpt lat="45.3849039" lon="10.7730832"><ele>117.0</ele><time>2026-03-28T09:51:11.763Z</time></trkpt><trkpt lat="45.3849913" lon="10.7731117"><ele>117.0</ele><time>2026-03-28T09:51:12.762Z</time></trkpt><trkpt lat="45.3850762" lon="10.7731414"><ele>117.0</ele><time>2026-03-28T09:51:13.762Z</time></trkpt><trkpt lat="45.3851606" lon="10.773163"><ele>117.0</ele><time>2026-03-28T09:51:14.762Z</time></trkpt><trkpt lat="45.3852483" lon="10.7731858"><ele>117.0</ele><time>2026-03-28T09:51:15.762Z</time></trkpt><trkpt lat="45.3853369" lon="10.773205"><ele>117.0</ele><time>2026-03-28T09:51:16.763Z</time></trkpt><trkpt lat="45.3854214" lon="10.7732267"><ele>117.0</ele><time>2026-03-28T09:51:17.763Z</time></trkpt><trkpt lat="45.3854928" lon="10.7732596"><ele>117.0</ele><time>2026-03-28T09:51:18.762Z</time></trkpt><trkpt lat="45.3855518" lon="10.773312"><ele>117.0</ele><time>2026-03-28T09:51:19.762Z</time></trkpt><trkpt lat="45.3856116" lon="10.7733778"><ele>117.33333333333333</ele><time>2026-03-28T09:51:20.762Z</time></trkpt><trkpt lat="45.3856658" lon="10.7734466"><ele>117.66666666666666</ele><time>2026-03-28T09:51:21.763Z</time></trkpt><trkpt lat="45.3857254" lon="10.7735106"><ele>118.0</ele><time>2026-03-28T09:51:22.762Z</time></trkpt><trkpt lat="45.3857826" lon="10.7735785"><ele>118.33333333333333</ele><time>2026-03-28T09:51:23.763Z</time></trkpt><trkpt lat="45.385844" lon="10.7736503"><ele>118.66666666666666</ele><time>2026-03-28T09:51:24.763Z</time></trkpt><trkpt lat="45.3859139" lon="10.7737128"><ele>119.0</ele><time>2026-03-28T09:51:25.763Z</time></trkpt><trkpt lat="45.3860008" lon="10.7737662"><ele>119.0</ele><time>2026-03-28T09:51:26.763Z</time></trkpt><trkpt lat="45.3860885" lon="10.7738282"><ele>119.0</ele><time>2026-03-28T09:51:27.762Z</time></trkpt><trkpt lat="45.3861945" lon="10.7739138"><ele>119.0</ele><time>2026-03-28T09:51:28.763Z</time></trkpt><trkpt lat="45.3862959" lon="10.7740162"><ele>119.0</ele><time>2026-03-28T09:51:29.762Z</time></trkpt><trkpt lat="45.3863906" lon="10.7741319"><ele>119.5</ele><time>2026-03-28T09:51:30.762Z</time></trkpt><trkpt lat="45.3864865" lon="10.7742449"><ele>120.0</ele><time>2026-03-28T09:51:31.762Z</time></trkpt><trkpt lat="45.3865796" lon="10.7743526"><ele>120.5</ele><time>2026-03-28T09:51:32.762Z</time></trkpt><trkpt lat="45.3866713" lon="10.7744466"><ele>121.0</ele><time>2026-03-28T09:51:33.762Z</time></trkpt><trkpt lat="45.38677" lon="10.7745338"><ele>121.0</ele><time>2026-03-28T09:51:34.763Z</time></trkpt><trkpt lat="45.3868565" lon="10.7746244"><ele>121.0</ele><time>2026-03-28T09:51:35.763Z</time></trkpt><trkpt lat="45.3869273" lon="10.7747371"><ele>121.0</ele><time>2026-03-28T09:51:36.762Z</time></trkpt><trkpt lat="45.3870018" lon="10.7748721"><ele>121.0</ele><time>2026-03-28T09:51:37.762Z</time></trkpt><trkpt lat="45.3870821" lon="10.7750009"><ele>121.0</ele><time>2026-03-28T09:51:38.762Z</time></trkpt><trkpt lat="45.3871669" lon="10.7751269"><ele>121.0</ele><time>2026-03-28T09:51:39.763Z</time></trkpt><trkpt lat="45.3872499" lon="10.775241"><ele>121.0</ele><time>2026-03-28T09:51:40.762Z</time></trkpt><trkpt lat="45.3873335" lon="10.7753448"><ele>121.0</ele><time>2026-03-28T09:51:41.763Z</time></trkpt><trkpt lat="45.3874224" lon="10.7754493"><ele>121.19999999999999</ele><time>2026-03-28T09:51:42.762Z</time></trkpt><trkpt lat="45.3875152" lon="10.7755454"><ele>121.39999999999999</ele><time>2026-03-28T09:51:43.762Z</time></trkpt><trkpt lat="45.3876162" lon="10.7756268"><ele>121.6</ele><time>2026-03-28T09:51:44.763Z</time></trkpt><trkpt lat="45.3877098" lon="10.7756965"><ele>121.8</ele><time>2026-03-28T09:51:45.763Z</time></trkpt><trkpt lat="45.3878013" lon="10.7757666"><ele>122.0</ele><time>2026-03-28T09:51:46.762Z</time></trkpt><trkpt lat="45.3878838" lon="10.7758575"><ele>122.0</ele><time>2026-03-28T09:51:47.763Z</time></trkpt><trkpt lat="45.387958" lon="10.7759495"><ele>121.99999999999999</ele><time>2026-03-28T09:51:48.763Z</time></trkpt><trkpt lat="45.3880326" lon="10.7760459"><ele>121.99999999999999</ele><time>2026-03-28T09:51:49.762Z</time></trkpt><trkpt lat="45.3880974" lon="10.7761466"><ele>122.0</ele><time>2026-03-28T09:51:50.763Z</time></trkpt><trkpt lat="45.3881692" lon="10.7762634"><ele>122.0</ele><time>2026-03-28T09:51:51.762Z</time></trkpt><trkpt lat="45.3882343" lon="10.7763689"><ele>121.6</ele><time>2026-03-28T09:51:52.762Z</time></trkpt><trkpt lat="45.3882988" lon="10.7764855"><ele>121.19999999999999</ele><time>2026-03-28T09:51:53.762Z</time></trkpt><trkpt lat="45.3883644" lon="10.7766125"><ele>120.8</ele><time>2026-03-28T09:51:54.763Z</time></trkpt><trkpt lat="45.3884218" lon="10.7767377"><ele>120.4</ele><time>2026-03-28T09:51:55.763Z</time></trkpt><trkpt lat="45.3884853" lon="10.7768578"><ele>120.0</ele><time>2026-03-28T09:51:56.762Z</time></trkpt><trkpt lat="45.3885475" lon="10.7769962"><ele>116.5</ele><time>2026-03-28T09:51:57.763Z</time></trkpt><trkpt lat="45.388614" lon="10.7771457"><ele>113.0</ele><time>2026-03-28T09:51:58.763Z</time></trkpt><trkpt lat="45.3886732" lon="10.7772899"><ele>109.5</ele><time>2026-03-28T09:51:59.762Z</time></trkpt><trkpt lat="45.3887216" lon="10.7774387"><ele>106.0</ele><time>2026-03-28T09:52:00.763Z</time></trkpt><trkpt lat="45.3887585" lon="10.7775895"><ele>107.0</ele><time>2026-03-28T09:52:01.762Z</time></trkpt><trkpt lat="45.3887921" lon="10.7777257"><ele>108.0</ele><time>2026-03-28T09:52:02.763Z</time></trkpt><trkpt lat="45.38882" lon="10.7778415"><ele>109.0</ele><time>2026-03-28T09:52:03.762Z</time></trkpt><trkpt lat="45.3888503" lon="10.7779452"><ele>110.0</ele><time>2026-03-28T09:52:04.763Z</time></trkpt><trkpt lat="45.3888888" lon="10.778024"><ele>111.0</ele><time>2026-03-28T09:52:05.763Z</time></trkpt><trkpt lat="45.3890092" lon="10.778132"><ele>111.0</ele><time>2026-03-28T09:52:07.762Z</time></trkpt><trkpt lat="45.3890959" lon="10.7781777"><ele>111.0</ele><time>2026-03-28T09:52:08.763Z</time></trkpt><trkpt lat="45.3891889" lon="10.7782286"><ele>111.0</ele><time>2026-03-28T09:52:09.763Z</time></trkpt><trkpt lat="45.3892817" lon="10.7782837"><ele>111.0</ele><time>2026-03-28T09:52:10.763Z</time></trkpt><trkpt lat="45.3893617" lon="10.7783362"><ele>111.0</ele><time>2026-03-28T09:52:11.762Z</time></trkpt><trkpt lat="45.3894364" lon="10.7783862"><ele>111.0</ele><time>2026-03-28T09:52:12.762Z</time></trkpt><trkpt lat="45.3895184" lon="10.7784426"><ele>111.0</ele><time>2026-03-28T09:52:13.763Z</time></trkpt><trkpt lat="45.3895972" lon="10.7784981"><ele>111.0</ele><time>2026-03-28T09:52:14.763Z</time></trkpt><trkpt lat="45.3896787" lon="10.7785537"><ele>111.0</ele><time>2026-03-28T09:52:15.762Z</time></trkpt><trkpt lat="45.3897644" lon="10.7786081"><ele>111.0</ele><time>2026-03-28T09:52:16.762Z</time></trkpt><trkpt lat="45.3898257" lon="10.7786482"><ele>111.0</ele><time>2026-03-28T09:52:17.763Z</time></trkpt><trkpt lat="45.3899319" lon="10.7787211"><ele>110.66666666666667</ele><time>2026-03-28T09:52:19.763Z</time></trkpt><trkpt lat="45.3899937" lon="10.7787601"><ele>110.33333333333334</ele><time>2026-03-28T09:52:20.762Z</time></trkpt><trkpt lat="45.3900642" lon="10.7788041"><ele>110.0</ele><time>2026-03-28T09:52:21.762Z</time></trkpt><trkpt lat="45.3901391" lon="10.7788583"><ele>109.66666666666667</ele><time>2026-03-28T09:52:22.762Z</time></trkpt><trkpt lat="45.3902198" lon="10.7789184"><ele>109.33333333333334</ele><time>2026-03-28T09:52:23.762Z</time></trkpt><trkpt lat="45.3902901" lon="10.7789624"><ele>109.0</ele><time>2026-03-28T09:52:24.762Z</time></trkpt><trkpt lat="45.3903932" lon="10.7789466"><ele>109.0</ele><time>2026-03-28T09:52:26.762Z</time></trkpt><trkpt lat="45.3904327" lon="10.7787962"><ele>109.0</ele><time>2026-03-28T09:52:28.763Z</time></trkpt><trkpt lat="45.3904591" lon="10.7786731"><ele>109.0</ele><time>2026-03-28T09:52:29.763Z</time></trkpt><trkpt lat="45.3904884" lon="10.7785252"><ele>109.0</ele><time>2026-03-28T09:52:30.762Z</time></trkpt><trkpt lat="45.3905223" lon="10.7783462"><ele>109.0</ele><time>2026-03-28T09:52:31.762Z</time></trkpt><trkpt lat="45.3905593" lon="10.7781928"><ele>110.2</ele><time>2026-03-28T09:52:32.763Z</time></trkpt><trkpt lat="45.3906133" lon="10.7780665"><ele>111.4</ele><time>2026-03-28T09:52:33.763Z</time></trkpt><trkpt lat="45.390681" lon="10.7779589"><ele>112.6</ele><time>2026-03-28T09:52:34.762Z</time></trkpt><trkpt lat="45.3907688" lon="10.7778598"><ele>113.8</ele><time>2026-03-28T09:52:35.762Z</time></trkpt><trkpt lat="45.3908424" lon="10.7777623"><ele>115.0</ele><time>2026-03-28T09:52:36.763Z</time></trkpt><trkpt lat="45.3908967" lon="10.7776626"><ele>115.50000000000001</ele><time>2026-03-28T09:52:37.763Z</time></trkpt><trkpt lat="45.3909483" lon="10.7775564"><ele>116.0</ele><time>2026-03-28T09:52:38.763Z</time></trkpt><trkpt lat="45.3909751" lon="10.7774664"><ele>116.5</ele><time>2026-03-28T09:52:39.763Z</time></trkpt><trkpt lat="45.3909859" lon="10.7773409"><ele>117.0</ele><time>2026-03-28T09:52:40.763Z</time></trkpt><trkpt lat="45.3909801" lon="10.7771865"><ele>117.50000000000001</ele><time>2026-03-28T09:52:41.763Z</time></trkpt><trkpt lat="45.3909741" lon="10.7770557"><ele>118.0</ele><time>2026-03-28T09:52:42.762Z</time></trkpt><trkpt lat="45.3909594" lon="10.776929"><ele>117.33333333333334</ele><time>2026-03-28T09:52:43.763Z</time></trkpt><trkpt lat="45.3909398" lon="10.7768188"><ele>116.66666666666667</ele><time>2026-03-28T09:52:44.762Z</time></trkpt><trkpt lat="45.3909116" lon="10.7767227"><ele>116.0</ele><time>2026-03-28T09:52:45.762Z</time></trkpt><trkpt lat="45.3908607" lon="10.776624"><ele>115.33333333333334</ele><time>2026-03-28T09:52:46.763Z</time></trkpt><trkpt lat="45.3907992" lon="10.7765145"><ele>114.66666666666667</ele><time>2026-03-28T09:52:47.762Z</time></trkpt><trkpt lat="45.3907373" lon="10.7764167"><ele>114.0</ele><time>2026-03-28T09:52:48.763Z</time></trkpt><trkpt lat="45.3906828" lon="10.7763285"><ele>114.0</ele><time>2026-03-28T09:52:49.763Z</time></trkpt><trkpt lat="45.3906318" lon="10.7762374"><ele>114.0</ele><time>2026-03-28T09:52:50.762Z</time></trkpt><trkpt lat="45.3905966" lon="10.7761424"><ele>114.0</ele><time>2026-03-28T09:52:51.762Z</time></trkpt><trkpt lat="45.390577" lon="10.7760406"><ele>114.0</ele><time>2026-03-28T09:52:52.762Z</time></trkpt><trkpt lat="45.3905738" lon="10.775937"><ele>114.0</ele><time>2026-03-28T09:52:53.762Z</time></trkpt><trkpt lat="45.3905918" lon="10.7758172"><ele>114.0</ele><time>2026-03-28T09:52:54.762Z</time></trkpt><trkpt lat="45.3906082" lon="10.7756867"><ele>112.5</ele><time>2026-03-28T09:52:55.763Z</time></trkpt><trkpt lat="45.3906103" lon="10.7755637"><ele>111.0</ele><time>2026-03-28T09:52:56.763Z</time></trkpt><trkpt lat="45.3906079" lon="10.7754514"><ele>109.5</ele><time>2026-03-28T09:52:57.762Z</time></trkpt><trkpt lat="45.3906003" lon="10.7753559"><ele>108.0</ele><time>2026-03-28T09:52:58.762Z</time></trkpt><trkpt lat="45.3905986" lon="10.7752633"><ele>106.5</ele><time>2026-03-28T09:52:59.762Z</time></trkpt><trkpt lat="45.3905996" lon="10.7751501"><ele>105.0</ele><time>2026-03-28T09:53:00.762Z</time></trkpt><trkpt lat="45.390594" lon="10.7750099"><ele>104.75</ele><time>2026-03-28T09:53:01.762Z</time></trkpt><trkpt lat="45.3905837" lon="10.7748379"><ele>104.5</ele><time>2026-03-28T09:53:02.762Z</time></trkpt><trkpt lat="45.3905598" lon="10.7746654"><ele>104.25</ele><time>2026-03-28T09:53:03.763Z</time></trkpt><trkpt lat="45.3905306" lon="10.7745103"><ele>104.0</ele><time>2026-03-28T09:53:04.763Z</time></trkpt><trkpt lat="45.3904962" lon="10.7743644"><ele>104.80000000000001</ele><time>2026-03-28T09:53:05.764Z</time></trkpt><trkpt lat="45.3904607" lon="10.7742281"><ele>105.60000000000001</ele><time>2026-03-28T09:53:06.762Z</time></trkpt><trkpt lat="45.3904208" lon="10.7740833"><ele>106.4</ele><time>2026-03-28T09:53:07.762Z</time></trkpt><trkpt lat="45.3903901" lon="10.7739577"><ele>107.2</ele><time>2026-03-28T09:53:08.762Z</time></trkpt><trkpt lat="45.3903727" lon="10.7738461"><ele>108.0</ele><time>2026-03-28T09:53:09.763Z</time></trkpt><trkpt lat="45.3903812" lon="10.7737439"><ele>108.0</ele><time>2026-03-28T09:53:10.762Z</time></trkpt><trkpt lat="45.3904128" lon="10.7736613"><ele>108.0</ele><time>2026-03-28T09:53:11.762Z</time></trkpt><trkpt lat="45.3904678" lon="10.7736024"><ele>108.0</ele><time>2026-03-28T09:53:12.762Z</time></trkpt><trkpt lat="45.3905501" lon="10.7735594"><ele>108.0</ele><time>2026-03-28T09:53:13.762Z</time></trkpt><trkpt lat="45.390646" lon="10.7735189"><ele>108.0</ele><time>2026-03-28T09:53:14.762Z</time></trkpt><trkpt lat="45.3907469" lon="10.7734704"><ele>108.0</ele><time>2026-03-28T09:53:15.763Z</time></trkpt><trkpt lat="45.3908434" lon="10.7734102"><ele>106.0</ele><time>2026-03-28T09:53:16.762Z</time></trkpt><trkpt lat="45.3909294" lon="10.773344"><ele>104.00000000000001</ele><time>2026-03-28T09:53:17.762Z</time></trkpt><trkpt lat="45.3910211" lon="10.7732855"><ele>102.0</ele><time>2026-03-28T09:53:18.763Z</time></trkpt><trkpt lat="45.3911143" lon="10.7732097"><ele>100.0</ele><time>2026-03-28T09:53:19.763Z</time></trkpt><trkpt lat="45.3912001" lon="10.7731325"><ele>98.0</ele><time>2026-03-28T09:53:20.762Z</time></trkpt><trkpt lat="45.3912834" lon="10.7730531"><ele>96.25</ele><time>2026-03-28T09:53:21.762Z</time></trkpt><trkpt lat="45.391371" lon="10.7729448"><ele>94.5</ele><time>2026-03-28T09:53:22.762Z</time></trkpt><trkpt lat="45.3914673" lon="10.7728238"><ele>92.75</ele><time>2026-03-28T09:53:23.762Z</time></trkpt><trkpt lat="45.3915636" lon="10.7727255"><ele>91.0</ele><time>2026-03-28T09:53:24.762Z</time></trkpt><trkpt lat="45.3916554" lon="10.7726342"><ele>90.0</ele><time>2026-03-28T09:53:25.762Z</time></trkpt><trkpt lat="45.3917628" lon="10.7725237"><ele>89.0</ele><time>2026-03-28T09:53:26.762Z</time></trkpt><trkpt lat="45.3918649" lon="10.7724255"><ele>88.0</ele><time>2026-03-28T09:53:27.763Z</time></trkpt><trkpt lat="45.3919573" lon="10.7723136"><ele>87.0</ele><time>2026-03-28T09:53:28.763Z</time></trkpt><trkpt lat="45.3920256" lon="10.7721857"><ele>87.0</ele><time>2026-03-28T09:53:29.763Z</time></trkpt><trkpt lat="45.3920975" lon="10.7720655"><ele>87.0</ele><time>2026-03-28T09:53:30.763Z</time></trkpt><trkpt lat="45.392174" lon="10.7719622"><ele>87.0</ele><time>2026-03-28T09:53:31.763Z</time></trkpt><trkpt lat="45.3922585" lon="10.7718689"><ele>87.0</ele><time>2026-03-28T09:53:32.763Z</time></trkpt><trkpt lat="45.3923469" lon="10.7717981"><ele>87.0</ele><time>2026-03-28T09:53:33.764Z</time></trkpt><trkpt lat="45.3924383" lon="10.7717203"><ele>86.8</ele><time>2026-03-28T09:53:34.763Z</time></trkpt><trkpt lat="45.3925131" lon="10.7716284"><ele>86.6</ele><time>2026-03-28T09:53:35.762Z</time></trkpt><trkpt lat="45.3925695" lon="10.7715252"><ele>86.39999999999999</ele><time>2026-03-28T09:53:36.762Z</time></trkpt><trkpt lat="45.3925944" lon="10.7714203"><ele>86.19999999999999</ele><time>2026-03-28T09:53:37.763Z</time></trkpt><trkpt lat="45.3925947" lon="10.771304"><ele>86.0</ele><time>2026-03-28T09:53:38.762Z</time></trkpt><trkpt lat="45.3925762" lon="10.771156"><ele>85.75</ele><time>2026-03-28T09:53:39.763Z</time></trkpt><trkpt lat="45.3925465" lon="10.7709827"><ele>85.5</ele><time>2026-03-28T09:53:40.762Z</time></trkpt><trkpt lat="45.3925156" lon="10.7708069"><ele>85.25</ele><time>2026-03-28T09:53:41.762Z</time></trkpt><trkpt lat="45.392488" lon="10.770655"><ele>85.0</ele><time>2026-03-28T09:53:42.763Z</time></trkpt><trkpt lat="45.392476" lon="10.7705267"><ele>85.0</ele><time>2026-03-28T09:53:43.763Z</time></trkpt><trkpt lat="45.3924896" lon="10.7704201"><ele>85.0</ele><time>2026-03-28T09:53:44.763Z</time></trkpt><trkpt lat="45.3925728" lon="10.7703128"><ele>85.0</ele><time>2026-03-28T09:53:46.763Z</time></trkpt><trkpt lat="45.3926453" lon="10.7702854"><ele>85.0</ele><time>2026-03-28T09:53:47.763Z</time></trkpt><trkpt lat="45.3927444" lon="10.7702996"><ele>85.0</ele><time>2026-03-28T09:53:48.763Z</time></trkpt><trkpt lat="45.3928677" lon="10.7702975"><ele>85.0</ele><time>2026-03-28T09:53:49.762Z</time></trkpt><trkpt lat="45.3929986" lon="10.7702851"><ele>85.0</ele><time>2026-03-28T09:53:50.764Z</time></trkpt><trkpt lat="45.3931253" lon="10.7702802"><ele>85.0</ele><time>2026-03-28T09:53:51.762Z</time></trkpt><trkpt lat="45.3932644" lon="10.7702803"><ele>85.0</ele><time>2026-03-28T09:53:52.762Z</time></trkpt><trkpt lat="45.3934" lon="10.7702917"><ele>85.5</ele><time>2026-03-28T09:53:53.763Z</time></trkpt><trkpt lat="45.3935227" lon="10.7703163"><ele>86.0</ele><time>2026-03-28T09:53:54.763Z</time></trkpt><trkpt lat="45.3936498" lon="10.7703456"><ele>86.5</ele><time>2026-03-28T09:53:55.762Z</time></trkpt><trkpt lat="45.3937841" lon="10.7703861"><ele>87.0</ele><time>2026-03-28T09:53:56.762Z</time></trkpt><trkpt lat="45.3939204" lon="10.7704336"><ele>89.0</ele><time>2026-03-28T09:53:57.763Z</time></trkpt><trkpt lat="45.3940571" lon="10.7704984"><ele>91.0</ele><time>2026-03-28T09:53:58.763Z</time></trkpt><trkpt lat="45.3941762" lon="10.7705636"><ele>93.0</ele><time>2026-03-28T09:53:59.763Z</time></trkpt><trkpt lat="45.3942834" lon="10.7706409"><ele>95.0</ele><time>2026-03-28T09:54:00.763Z</time></trkpt><trkpt lat="45.3943772" lon="10.7707267"><ele>95.0</ele><time>2026-03-28T09:54:01.762Z</time></trkpt><trkpt lat="45.3944675" lon="10.7708192"><ele>95.0</ele><time>2026-03-28T09:54:02.762Z</time></trkpt><trkpt lat="45.3945583" lon="10.7709253"><ele>95.0</ele><time>2026-03-28T09:54:03.762Z</time></trkpt><trkpt lat="45.3946625" lon="10.7710511"><ele>95.0</ele><time>2026-03-28T09:54:04.762Z</time></trkpt><trkpt lat="45.3947757" lon="10.7711937"><ele>96.66666666666667</ele><time>2026-03-28T09:54:05.763Z</time></trkpt><trkpt lat="45.394896" lon="10.7713518"><ele>98.33333333333334</ele><time>2026-03-28T09:54:06.762Z</time></trkpt><trkpt lat="45.3950147" lon="10.7715237"><ele>100.0</ele><time>2026-03-28T09:54:07.762Z</time></trkpt><trkpt lat="45.3951373" lon="10.7716996"><ele>97.66666666666667</ele><time>2026-03-28T09:54:08.763Z</time></trkpt><trkpt lat="45.3952312" lon="10.7718743"><ele>95.33333333333334</ele><time>2026-03-28T09:54:09.762Z</time></trkpt><trkpt lat="45.3953253" lon="10.7720509"><ele>93.0</ele><time>2026-03-28T09:54:10.762Z</time></trkpt><trkpt lat="45.3953937" lon="10.7722577"><ele>93.0</ele><time>2026-03-28T09:54:11.762Z</time></trkpt><trkpt lat="45.3954633" lon="10.7724349"><ele>93.0</ele><time>2026-03-28T09:54:12.763Z</time></trkpt><trkpt lat="45.3955346" lon="10.7726201"><ele>93.0</ele><time>2026-03-28T09:54:13.762Z</time></trkpt><trkpt lat="45.3956131" lon="10.7728181"><ele>98.0</ele><time>2026-03-28T09:54:14.763Z</time></trkpt><trkpt lat="45.3956961" lon="10.7730355"><ele>103.0</ele><time>2026-03-28T09:54:15.762Z</time></trkpt><trkpt lat="45.3957616" lon="10.7732256"><ele>108.0</ele><time>2026-03-28T09:54:16.762Z</time></trkpt><trkpt lat="45.3958106" lon="10.7734108"><ele>107.25</ele><time>2026-03-28T09:54:17.763Z</time></trkpt><trkpt lat="45.395847" lon="10.7735801"><ele>106.5</ele><time>2026-03-28T09:54:18.762Z</time></trkpt><trkpt lat="45.3958809" lon="10.7737385"><ele>105.75</ele><time>2026-03-28T09:54:19.763Z</time></trkpt><trkpt lat="45.395912" lon="10.7738983"><ele>105.0</ele><time>2026-03-28T09:54:20.762Z</time></trkpt><trkpt lat="45.3959437" lon="10.7740295"><ele>105.0</ele><time>2026-03-28T09:54:21.762Z</time></trkpt><trkpt lat="45.3959786" lon="10.7741461"><ele>105.0</ele><time>2026-03-28T09:54:22.763Z</time></trkpt><trkpt lat="45.3960288" lon="10.7742311"><ele>105.0</ele><time>2026-03-28T09:54:23.763Z</time></trkpt><trkpt lat="45.3960921" lon="10.7742988"><ele>105.0</ele><time>2026-03-28T09:54:24.763Z</time></trkpt><trkpt lat="45.3961772" lon="10.7743512"><ele>105.0</ele><time>2026-03-28T09:54:25.762Z</time></trkpt><trkpt lat="45.3962768" lon="10.7743799"><ele>105.0</ele><time>2026-03-28T09:54:26.762Z</time></trkpt><trkpt lat="45.3963921" lon="10.7744037"><ele>106.2</ele><time>2026-03-28T09:54:27.763Z</time></trkpt><trkpt lat="45.3965171" lon="10.77443"><ele>107.4</ele><time>2026-03-28T09:54:28.763Z</time></trkpt><trkpt lat="45.3966423" lon="10.7744466"><ele>108.6</ele><time>2026-03-28T09:54:29.762Z</time></trkpt><trkpt lat="45.3967492" lon="10.7744563"><ele>109.8</ele><time>2026-03-28T09:54:30.762Z</time></trkpt><trkpt lat="45.3968389" lon="10.7744654"><ele>111.0</ele><time>2026-03-28T09:54:31.762Z</time></trkpt><trkpt lat="45.3969383" lon="10.7745131"><ele>111.0</ele><time>2026-03-28T09:54:33.762Z</time></trkpt><trkpt lat="45.3969596" lon="10.7746128"><ele>111.0</ele><time>2026-03-28T09:54:35.762Z</time></trkpt><trkpt lat="45.3969094" lon="10.7748126"><ele>111.0</ele><time>2026-03-28T09:54:37.763Z</time></trkpt><trkpt lat="45.3968846" lon="10.7749519"><ele>111.0</ele><time>2026-03-28T09:54:38.762Z</time></trkpt><trkpt lat="45.396855" lon="10.7751229"><ele>111.0</ele><time>2026-03-28T09:54:39.762Z</time></trkpt><trkpt lat="45.3968317" lon="10.7752745"><ele>111.4</ele><time>2026-03-28T09:54:40.763Z</time></trkpt><trkpt lat="45.3968106" lon="10.7754245"><ele>111.8</ele><time>2026-03-28T09:54:41.762Z</time></trkpt><trkpt lat="45.3967949" lon="10.7755637"><ele>112.20000000000002</ele><time>2026-03-28T09:54:42.762Z</time></trkpt><trkpt lat="45.3967876" lon="10.7756938"><ele>112.60000000000001</ele><time>2026-03-28T09:54:43.762Z</time></trkpt><trkpt lat="45.3967797" lon="10.7758076"><ele>113.0</ele><time>2026-03-28T09:54:44.764Z</time></trkpt><trkpt lat="45.3967718" lon="10.7759205"><ele>113.0</ele><time>2026-03-28T09:54:45.763Z</time></trkpt><trkpt lat="45.396764" lon="10.7760297"><ele>113.00000000000001</ele><time>2026-03-28T09:54:46.763Z</time></trkpt><trkpt lat="45.3967907" lon="10.7761803"><ele>113.00000000000001</ele><time>2026-03-28T09:54:48.762Z</time></trkpt><trkpt lat="45.3968939" lon="10.7762571"><ele>113.0</ele><time>2026-03-28T09:54:50.762Z</time></trkpt><trkpt lat="45.3969758" lon="10.7762729"><ele>113.0</ele><time>2026-03-28T09:54:51.762Z</time></trkpt><trkpt lat="45.3970866" lon="10.7762948"><ele>114.25</ele><time>2026-03-28T09:54:52.762Z</time></trkpt><trkpt lat="45.3972023" lon="10.7763197"><ele>115.5</ele><time>2026-03-28T09:54:53.763Z</time></trkpt><trkpt lat="45.3973219" lon="10.776359"><ele>116.75</ele><time>2026-03-28T09:54:54.762Z</time></trkpt><trkpt lat="45.3974343" lon="10.7763888"><ele>118.0</ele><time>2026-03-28T09:54:55.762Z</time></trkpt><trkpt lat="45.3975462" lon="10.7764115"><ele>118.00000000000001</ele><time>2026-03-28T09:54:56.763Z</time></trkpt><trkpt lat="45.3976529" lon="10.7764197"><ele>118.0</ele><time>2026-03-28T09:54:57.763Z</time></trkpt><trkpt lat="45.3977427" lon="10.7764046"><ele>118.0</ele><time>2026-03-28T09:54:58.763Z</time></trkpt><trkpt lat="45.3978258" lon="10.7763854"><ele>118.0</ele><time>2026-03-28T09:54:59.763Z</time></trkpt><trkpt lat="45.3978943" lon="10.7764001"><ele>118.00000000000001</ele><time>2026-03-28T09:55:00.763Z</time></trkpt><trkpt lat="45.3979537" lon="10.7764382"><ele>118.0</ele><time>2026-03-28T09:55:01.762Z</time></trkpt><trkpt lat="45.398017" lon="10.7765974"><ele>118.50000000000001</ele><time>2026-03-28T09:55:03.763Z</time></trkpt><trkpt lat="45.3980403" lon="10.7767202"><ele>119.0</ele><time>2026-03-28T09:55:04.762Z</time></trkpt><trkpt lat="45.3980695" lon="10.7768138"><ele>119.5</ele><time>2026-03-28T09:55:05.762Z</time></trkpt><trkpt lat="45.3981198" lon="10.7768752"><ele>120.0</ele><time>2026-03-28T09:55:06.764Z</time></trkpt><trkpt lat="45.3981832" lon="10.7769076"><ele>120.50000000000001</ele><time>2026-03-28T09:55:07.763Z</time></trkpt><trkpt lat="45.3982712" lon="10.7769174"><ele>121.0</ele><time>2026-03-28T09:55:08.762Z</time></trkpt><trkpt lat="45.3983834" lon="10.7769433"><ele>121.4</ele><time>2026-03-28T09:55:09.763Z</time></trkpt><trkpt lat="45.3984858" lon="10.7769728"><ele>121.8</ele><time>2026-03-28T09:55:10.762Z</time></trkpt><trkpt lat="45.3985797" lon="10.7770041"><ele>122.20000000000002</ele><time>2026-03-28T09:55:11.763Z</time></trkpt><trkpt lat="45.3986536" lon="10.777069"><ele>122.60000000000001</ele><time>2026-03-28T09:55:12.762Z</time></trkpt><trkpt lat="45.3987082" lon="10.7771522"><ele>123.0</ele><time>2026-03-28T09:55:13.763Z</time></trkpt><trkpt lat="45.3987489" lon="10.7772669"><ele>123.0</ele><time>2026-03-28T09:55:14.762Z</time></trkpt><trkpt lat="45.3987996" lon="10.7774073"><ele>123.0</ele><time>2026-03-28T09:55:15.763Z</time></trkpt><trkpt lat="45.398881" lon="10.7775432"><ele>123.0</ele><time>2026-03-28T09:55:16.763Z</time></trkpt><trkpt lat="45.3989803" lon="10.7776681"><ele>123.0</ele><time>2026-03-28T09:55:17.762Z</time></trkpt><trkpt lat="45.3990634" lon="10.7777663"><ele>123.0</ele><time>2026-03-28T09:55:18.762Z</time></trkpt><trkpt lat="45.3991169" lon="10.7778503"><ele>123.00000000000001</ele><time>2026-03-28T09:55:19.763Z</time></trkpt><trkpt lat="45.3991454" lon="10.7779373"><ele>123.00000000000001</ele><time>2026-03-28T09:55:20.763Z</time></trkpt><trkpt lat="45.3991585" lon="10.7780458"><ele>123.0</ele><time>2026-03-28T09:55:21.762Z</time></trkpt><trkpt lat="45.3991725" lon="10.7782005"><ele>123.0</ele><time>2026-03-28T09:55:22.763Z</time></trkpt><trkpt lat="45.399194" lon="10.77839"><ele>122.75</ele><time>2026-03-28T09:55:23.763Z</time></trkpt><trkpt lat="45.3992208" lon="10.778582"><ele>122.5</ele><time>2026-03-28T09:55:24.763Z</time></trkpt><trkpt lat="45.3992426" lon="10.778758"><ele>122.25</ele><time>2026-03-28T09:55:25.763Z</time></trkpt><trkpt lat="45.3992632" lon="10.7789512"><ele>122.0</ele><time>2026-03-28T09:55:26.763Z</time></trkpt><trkpt lat="45.3992865" lon="10.779126"><ele>122.0</ele><time>2026-03-28T09:55:27.763Z</time></trkpt><trkpt lat="45.3993081" lon="10.7792905"><ele>121.99999999999999</ele><time>2026-03-28T09:55:28.762Z</time></trkpt><trkpt lat="45.3993225" lon="10.7794339"><ele>121.99999999999999</ele><time>2026-03-28T09:55:29.762Z</time></trkpt><trkpt lat="45.399329" lon="10.7795608"><ele>122.0</ele><time>2026-03-28T09:55:30.763Z</time></trkpt><trkpt lat="45.3993282" lon="10.7796879"><ele>122.0</ele><time>2026-03-28T09:55:31.762Z</time></trkpt><trkpt lat="45.3993347" lon="10.7797792"><ele>121.8</ele><time>2026-03-28T09:55:32.763Z</time></trkpt><trkpt lat="45.3993856" lon="10.7798881"><ele>121.6</ele><time>2026-03-28T09:55:34.762Z</time></trkpt><trkpt lat="45.3995174" lon="10.7799049"><ele>121.39999999999999</ele><time>2026-03-28T09:55:36.762Z</time></trkpt><trkpt lat="45.3996137" lon="10.7798857"><ele>121.19999999999999</ele><time>2026-03-28T09:55:37.763Z</time></trkpt><trkpt lat="45.3997246" lon="10.7798655"><ele>121.0</ele><time>2026-03-28T09:55:38.763Z</time></trkpt><trkpt lat="45.3998618" lon="10.779857"><ele>121.0</ele><time>2026-03-28T09:55:39.762Z</time></trkpt><trkpt lat="45.4000083" lon="10.7798574"><ele>121.0</ele><time>2026-03-28T09:55:40.763Z</time></trkpt><trkpt lat="45.4001494" lon="10.7798499"><ele>121.0</ele><time>2026-03-28T09:55:41.763Z</time></trkpt><trkpt lat="45.4002802" lon="10.7798502"><ele>121.0</ele><time>2026-03-28T09:55:42.762Z</time></trkpt><trkpt lat="45.4003947" lon="10.779847"><ele>121.0</ele><time>2026-03-28T09:55:43.762Z</time></trkpt><trkpt lat="45.4004937" lon="10.7798724"><ele>121.0</ele><time>2026-03-28T09:55:44.762Z</time></trkpt><trkpt lat="45.4005948" lon="10.77993"><ele>121.0</ele><time>2026-03-28T09:55:45.762Z</time></trkpt><trkpt lat="45.4007017" lon="10.7800159"><ele>121.0</ele><time>2026-03-28T09:55:46.762Z</time></trkpt><trkpt lat="45.4008297" lon="10.7801164"><ele>121.0</ele><time>2026-03-28T09:55:47.762Z</time></trkpt><trkpt lat="45.400953" lon="10.7802188"><ele>121.0</ele><time>2026-03-28T09:55:48.763Z</time></trkpt><trkpt lat="45.4010715" lon="10.7803076"><ele>121.0</ele><time>2026-03-28T09:55:49.762Z</time></trkpt><trkpt lat="45.4011803" lon="10.7803909"><ele>121.0</ele><time>2026-03-28T09:55:50.762Z</time></trkpt><trkpt lat="45.4012844" lon="10.7804533"><ele>121.66666666666667</ele><time>2026-03-28T09:55:51.762Z</time></trkpt><trkpt lat="45.4013772" lon="10.7805087"><ele>122.33333333333334</ele><time>2026-03-28T09:55:52.762Z</time></trkpt><trkpt lat="45.4014655" lon="10.780549"><ele>123.0</ele><time>2026-03-28T09:55:53.763Z</time></trkpt><trkpt lat="45.4015369" lon="10.7806088"><ele>123.66666666666666</ele><time>2026-03-28T09:55:54.763Z</time></trkpt><trkpt lat="45.4015896" lon="10.7806878"><ele>124.33333333333333</ele><time>2026-03-28T09:55:55.764Z</time></trkpt><trkpt lat="45.4016352" lon="10.7808041"><ele>125.0</ele><time>2026-03-28T09:55:56.762Z</time></trkpt><trkpt lat="45.4016809" lon="10.7809451"><ele>124.0</ele><time>2026-03-28T09:55:57.763Z</time></trkpt><trkpt lat="45.4017398" lon="10.7810961"><ele>123.0</ele><time>2026-03-28T09:55:58.762Z</time></trkpt><trkpt lat="45.401811" lon="10.7812404"><ele>122.0</ele><time>2026-03-28T09:55:59.763Z</time></trkpt><trkpt lat="45.4018977" lon="10.7813817"><ele>121.0</ele><time>2026-03-28T09:56:00.763Z</time></trkpt><trkpt lat="45.4019916" lon="10.7815133"><ele>121.0</ele><time>2026-03-28T09:56:01.763Z</time></trkpt><trkpt lat="45.4020914" lon="10.7816154"><ele>121.0</ele><time>2026-03-28T09:56:02.762Z</time></trkpt><trkpt lat="45.4022016" lon="10.7816977"><ele>121.0</ele><time>2026-03-28T09:56:03.762Z</time></trkpt><trkpt lat="45.4023156" lon="10.7817915"><ele>121.0</ele><time>2026-03-28T09:56:04.762Z</time></trkpt><trkpt lat="45.4024212" lon="10.7819014"><ele>120.75</ele><time>2026-03-28T09:56:05.762Z</time></trkpt><trkpt lat="45.4025156" lon="10.7820267"><ele>120.5</ele><time>2026-03-28T09:56:06.762Z</time></trkpt><trkpt lat="45.4026019" lon="10.7821699"><ele>120.25</ele><time>2026-03-28T09:56:07.762Z</time></trkpt><trkpt lat="45.4026828" lon="10.7822895"><ele>120.0</ele><time>2026-03-28T09:56:08.763Z</time></trkpt><trkpt lat="45.4027505" lon="10.7824015"><ele>120.0</ele><time>2026-03-28T09:56:09.762Z</time></trkpt><trkpt lat="45.4028101" lon="10.7825034"><ele>120.0</ele><time>2026-03-28T09:56:10.763Z</time></trkpt><trkpt lat="45.4028701" lon="10.7825985"><ele>120.0</ele><time>2026-03-28T09:56:11.763Z</time></trkpt><trkpt lat="45.4029316" lon="10.7827027"><ele>120.0</ele><time>2026-03-28T09:56:12.763Z</time></trkpt><trkpt lat="45.4029983" lon="10.7828151"><ele>120.0</ele><time>2026-03-28T09:56:13.763Z</time></trkpt><trkpt lat="45.4030663" lon="10.7828989"><ele>119.83333333333333</ele><time>2026-03-28T09:56:14.762Z</time></trkpt><trkpt lat="45.403137" lon="10.7829637"><ele>119.66666666666666</ele><time>2026-03-28T09:56:15.762Z</time></trkpt><trkpt lat="45.4031831" lon="10.7830253"><ele>119.5</ele><time>2026-03-28T09:56:16.762Z</time></trkpt><trkpt lat="45.4032172" lon="10.7831155"><ele>119.33333333333333</ele><time>2026-03-28T09:56:17.762Z</time></trkpt><trkpt lat="45.4032597" lon="10.7832232"><ele>119.16666666666666</ele><time>2026-03-28T09:56:18.762Z</time></trkpt><trkpt lat="45.403329" lon="10.78333"><ele>119.0</ele><time>2026-03-28T09:56:19.762Z</time></trkpt><trkpt lat="45.4034144" lon="10.7834412"><ele>119.25</ele><time>2026-03-28T09:56:20.762Z</time></trkpt><trkpt lat="45.4034747" lon="10.783541"><ele>119.5</ele><time>2026-03-28T09:56:21.763Z</time></trkpt><trkpt lat="45.4035482" lon="10.7836839"><ele>119.75</ele><time>2026-03-28T09:56:22.762Z</time></trkpt><trkpt lat="45.4036472" lon="10.7838403"><ele>120.0</ele><time>2026-03-28T09:56:23.763Z</time></trkpt><trkpt lat="45.4037423" lon="10.7839831"><ele>120.0</ele><time>2026-03-28T09:56:24.763Z</time></trkpt><trkpt lat="45.4038296" lon="10.7841175"><ele>120.0</ele><time>2026-03-28T09:56:25.763Z</time></trkpt><trkpt lat="45.4039053" lon="10.7842426"><ele>120.0</ele><time>2026-03-28T09:56:26.763Z</time></trkpt><trkpt lat="45.4039691" lon="10.7843679"><ele>120.0</ele><time>2026-03-28T09:56:27.763Z</time></trkpt><trkpt lat="45.4040197" lon="10.7844963"><ele>120.75</ele><time>2026-03-28T09:56:28.762Z</time></trkpt><trkpt lat="45.4040629" lon="10.7846446"><ele>121.5</ele><time>2026-03-28T09:56:29.763Z</time></trkpt><trkpt lat="45.4040869" lon="10.7848089"><ele>122.25</ele><time>2026-03-28T09:56:30.762Z</time></trkpt><trkpt lat="45.404095" lon="10.7849702"><ele>123.0</ele><time>2026-03-28T09:56:31.763Z</time></trkpt><trkpt lat="45.4040976" lon="10.7851411"><ele>123.25</ele><time>2026-03-28T09:56:32.762Z</time></trkpt><trkpt lat="45.404108" lon="10.78532"><ele>123.5</ele><time>2026-03-28T09:56:33.762Z</time></trkpt><trkpt lat="45.4041196" lon="10.7854943"><ele>123.75</ele><time>2026-03-28T09:56:34.763Z</time></trkpt><trkpt lat="45.4041334" lon="10.7856575"><ele>124.0</ele><time>2026-03-28T09:56:35.763Z</time></trkpt><trkpt lat="45.4041632" lon="10.7858039"><ele>124.0</ele><time>2026-03-28T09:56:36.762Z</time></trkpt><trkpt lat="45.4042077" lon="10.7859569"><ele>124.0</ele><time>2026-03-28T09:56:37.762Z</time></trkpt><trkpt lat="45.4042467" lon="10.7861159"><ele>124.0</ele><time>2026-03-28T09:56:38.763Z</time></trkpt><trkpt lat="45.4042858" lon="10.7862593"><ele>124.0</ele><time>2026-03-28T09:56:39.762Z</time></trkpt><trkpt lat="45.4043079" lon="10.7863959"><ele>124.0</ele><time>2026-03-28T09:56:40.762Z</time></trkpt><trkpt lat="45.4043042" lon="10.7865234"><ele>124.0</ele><time>2026-03-28T09:56:41.763Z</time></trkpt><trkpt lat="45.4042813" lon="10.7866384"><ele>124.0</ele><time>2026-03-28T09:56:42.763Z</time></trkpt><trkpt lat="45.40426" lon="10.7867772"><ele>124.0</ele><time>2026-03-28T09:56:43.762Z</time></trkpt><trkpt lat="45.4042586" lon="10.7869341"><ele>124.0</ele><time>2026-03-28T09:56:44.762Z</time></trkpt><trkpt lat="45.4042742" lon="10.7871072"><ele>124.0</ele><time>2026-03-28T09:56:45.763Z</time></trkpt><trkpt lat="45.4042921" lon="10.7872691"><ele>123.0</ele><time>2026-03-28T09:56:46.762Z</time></trkpt><trkpt lat="45.4043154" lon="10.7874281"><ele>122.0</ele><time>2026-03-28T09:56:47.762Z</time></trkpt><trkpt lat="45.4043474" lon="10.7875719"><ele>121.0</ele><time>2026-03-28T09:56:48.763Z</time></trkpt><trkpt lat="45.404389" lon="10.7877031"><ele>120.0</ele><time>2026-03-28T09:56:49.762Z</time></trkpt><trkpt lat="45.4044502" lon="10.7878447"><ele>119.0</ele><time>2026-03-28T09:56:50.763Z</time></trkpt><trkpt lat="45.4045157" lon="10.7879725"><ele>118.2</ele><time>2026-03-28T09:56:51.762Z</time></trkpt><trkpt lat="45.4045864" lon="10.7880808"><ele>117.4</ele><time>2026-03-28T09:56:52.763Z</time></trkpt><trkpt lat="45.4046597" lon="10.7881758"><ele>116.6</ele><time>2026-03-28T09:56:53.762Z</time></trkpt><trkpt lat="45.4047322" lon="10.788255"><ele>115.8</ele><time>2026-03-28T09:56:54.763Z</time></trkpt><trkpt lat="45.404798" lon="10.7883413"><ele>115.0</ele><time>2026-03-28T09:56:55.762Z</time></trkpt><trkpt lat="45.4048445" lon="10.7884541"><ele>113.75</ele><time>2026-03-28T09:56:56.763Z</time></trkpt><trkpt lat="45.4048723" lon="10.788608"><ele>112.5</ele><time>2026-03-28T09:56:57.762Z</time></trkpt><trkpt lat="45.4048934" lon="10.7887917"><ele>111.25</ele><time>2026-03-28T09:56:58.763Z</time></trkpt><trkpt lat="45.404904" lon="10.788996"><ele>110.0</ele><time>2026-03-28T09:56:59.762Z</time></trkpt><trkpt lat="45.4049081" lon="10.7891989"><ele>110.25</ele><time>2026-03-28T09:57:00.763Z</time></trkpt><trkpt lat="45.4049066" lon="10.7893805"><ele>110.5</ele><time>2026-03-28T09:57:01.763Z</time></trkpt><trkpt lat="45.404907" lon="10.7895473"><ele>110.75</ele><time>2026-03-28T09:57:02.762Z</time></trkpt><trkpt lat="45.4049121" lon="10.7897042"><ele>111.0</ele><time>2026-03-28T09:57:03.763Z</time></trkpt><trkpt lat="45.4049177" lon="10.789849"><ele>111.0</ele><time>2026-03-28T09:57:04.762Z</time></trkpt><trkpt lat="45.4049162" lon="10.7899813"><ele>111.0</ele><time>2026-03-28T09:57:05.762Z</time></trkpt><trkpt lat="45.4049162" lon="10.7901058"><ele>111.0</ele><time>2026-03-28T09:57:06.763Z</time></trkpt><trkpt lat="45.4049187" lon="10.7902358"><ele>111.0</ele><time>2026-03-28T09:57:07.763Z</time></trkpt><trkpt lat="45.4049207" lon="10.7903686"><ele>111.0</ele><time>2026-03-28T09:57:08.762Z</time></trkpt><trkpt lat="45.4049218" lon="10.7905016"><ele>110.8</ele><time>2026-03-28T09:57:09.764Z</time></trkpt><trkpt lat="45.4049269" lon="10.7906361"><ele>110.6</ele><time>2026-03-28T09:57:10.762Z</time></trkpt><trkpt lat="45.4049315" lon="10.7907678"><ele>110.4</ele><time>2026-03-28T09:57:11.764Z</time></trkpt><trkpt lat="45.4049364" lon="10.7909015"><ele>110.2</ele><time>2026-03-28T09:57:12.762Z</time></trkpt><trkpt lat="45.4049412" lon="10.7910294"><ele>110.0</ele><time>2026-03-28T09:57:13.763Z</time></trkpt><trkpt lat="45.4049442" lon="10.7911577"><ele>110.28571428571428</ele><time>2026-03-28T09:57:14.762Z</time></trkpt><trkpt lat="45.4049429" lon="10.791273"><ele>110.57142857142857</ele><time>2026-03-28T09:57:15.763Z</time></trkpt><trkpt lat="45.4049413" lon="10.7913642"><ele>110.85714285714286</ele><time>2026-03-28T09:57:16.763Z</time></trkpt><trkpt lat="45.4049706" lon="10.7914565"><ele>111.14285714285714</ele><time>2026-03-28T09:57:18.762Z</time></trkpt><trkpt lat="45.4050525" lon="10.7914807"><ele>111.42857142857143</ele><time>2026-03-28T09:57:20.763Z</time></trkpt><trkpt lat="45.4051183" lon="10.7914721"><ele>111.71428571428571</ele><time>2026-03-28T09:57:21.762Z</time></trkpt><trkpt lat="45.405185" lon="10.7914659"><ele>112.0</ele><time>2026-03-28T09:57:22.762Z</time></trkpt><trkpt lat="45.4052494" lon="10.791458"><ele>112.0</ele><time>2026-03-28T09:57:23.762Z</time></trkpt><trkpt lat="45.4053708" lon="10.7914528"><ele>111.99999999999999</ele><time>2026-03-28T09:57:25.762Z</time></trkpt><trkpt lat="45.405496" lon="10.7914494"><ele>111.99999999999999</ele><time>2026-03-28T09:57:27.763Z</time></trkpt><trkpt lat="45.4055608" lon="10.7914382"><ele>112.0</ele><time>2026-03-28T09:57:28.762Z</time></trkpt><trkpt lat="45.4056853" lon="10.7914381"><ele>112.0</ele><time>2026-03-28T09:57:30.762Z</time></trkpt><trkpt lat="45.4058014" lon="10.7914144"><ele>112.14285714285714</ele><time>2026-03-28T09:57:32.762Z</time></trkpt><trkpt lat="45.4058675" lon="10.7914063"><ele>112.28571428571428</ele><time>2026-03-28T09:57:33.762Z</time></trkpt><trkpt lat="45.4059376" lon="10.7914004"><ele>112.42857142857143</ele><time>2026-03-28T09:57:34.763Z</time></trkpt><trkpt lat="45.4060108" lon="10.7913976"><ele>112.57142857142857</ele><time>2026-03-28T09:57:35.763Z</time></trkpt><trkpt lat="45.4060878" lon="10.7913978"><ele>112.71428571428571</ele><time>2026-03-28T09:57:36.762Z</time></trkpt><trkpt lat="45.4061649" lon="10.791399"><ele>112.85714285714286</ele><time>2026-03-28T09:57:37.762Z</time></trkpt><trkpt lat="45.406242" lon="10.7913988"><ele>113.0</ele><time>2026-03-28T09:57:38.763Z</time></trkpt><trkpt lat="45.4063195" lon="10.7913948"><ele>112.83333333333333</ele><time>2026-03-28T09:57:39.763Z</time></trkpt><trkpt lat="45.406399" lon="10.7913886"><ele>112.66666666666666</ele><time>2026-03-28T09:57:40.762Z</time></trkpt><trkpt lat="45.4064816" lon="10.7913828"><ele>112.5</ele><time>2026-03-28T09:57:41.762Z</time></trkpt><trkpt lat="45.406567" lon="10.7913791"><ele>112.33333333333334</ele><time>2026-03-28T09:57:42.763Z</time></trkpt><trkpt lat="45.406654" lon="10.791377"><ele>112.16666666666667</ele><time>2026-03-28T09:57:43.762Z</time></trkpt><trkpt lat="45.4067433" lon="10.7913735"><ele>112.0</ele><time>2026-03-28T09:57:44.763Z</time></trkpt><trkpt lat="45.4068352" lon="10.79137"><ele>112.0</ele><time>2026-03-28T09:57:45.763Z</time></trkpt><trkpt lat="45.4069278" lon="10.791369"><ele>111.99999999999999</ele><time>2026-03-28T09:57:46.762Z</time></trkpt><trkpt lat="45.4070221" lon="10.7913672"><ele>111.99999999999999</ele><time>2026-03-28T09:57:47.763Z</time></trkpt><trkpt lat="45.4071168" lon="10.7913623"><ele>112.0</ele><time>2026-03-28T09:57:48.762Z</time></trkpt><trkpt lat="45.4072101" lon="10.7913594"><ele>112.0</ele><time>2026-03-28T09:57:49.762Z</time></trkpt><trkpt lat="45.4073023" lon="10.7913533"><ele>112.0</ele><time>2026-03-28T09:57:50.762Z</time></trkpt><trkpt lat="45.4073931" lon="10.7913507"><ele>111.99999999999999</ele><time>2026-03-28T09:57:51.763Z</time></trkpt><trkpt lat="45.4074825" lon="10.7913551"><ele>111.99999999999999</ele><time>2026-03-28T09:57:52.763Z</time></trkpt><trkpt lat="45.407572" lon="10.7913642"><ele>112.0</ele><time>2026-03-28T09:57:53.762Z</time></trkpt><trkpt lat="45.4076623" lon="10.7913627"><ele>112.0</ele><time>2026-03-28T09:57:54.763Z</time></trkpt><trkpt lat="45.4077539" lon="10.7913564"><ele>112.0</ele><time>2026-03-28T09:57:55.762Z</time></trkpt><trkpt lat="45.4078492" lon="10.7913521"><ele>111.99999999999999</ele><time>2026-03-28T09:57:56.762Z</time></trkpt><trkpt lat="45.4079455" lon="10.7913451"><ele>111.99999999999999</ele><time>2026-03-28T09:57:57.763Z</time></trkpt><trkpt lat="45.4080406" lon="10.7913308"><ele>112.0</ele><time>2026-03-28T09:57:58.763Z</time></trkpt><trkpt lat="45.4081395" lon="10.7913116"><ele>112.0</ele><time>2026-03-28T09:57:59.763Z</time></trkpt><trkpt lat="45.4082356" lon="10.7913004"><ele>112.19999999999999</ele><time>2026-03-28T09:58:00.763Z</time></trkpt><trkpt lat="45.4083345" lon="10.7912997"><ele>112.39999999999999</ele><time>2026-03-28T09:58:01.762Z</time></trkpt><trkpt lat="45.4084345" lon="10.7912957"><ele>112.60000000000001</ele><time>2026-03-28T09:58:02.763Z</time></trkpt><trkpt lat="45.4085339" lon="10.7912909"><ele>112.80000000000001</ele><time>2026-03-28T09:58:03.762Z</time></trkpt><trkpt lat="45.4086319" lon="10.7912712"><ele>113.0</ele><time>2026-03-28T09:58:04.763Z</time></trkpt><trkpt lat="45.4087246" lon="10.7912564"><ele>112.99999999999999</ele><time>2026-03-28T09:58:05.763Z</time></trkpt><trkpt lat="45.4088179" lon="10.7912585"><ele>113.0</ele><time>2026-03-28T09:58:06.764Z</time></trkpt><trkpt lat="45.4089098" lon="10.791254"><ele>113.0</ele><time>2026-03-28T09:58:07.762Z</time></trkpt><trkpt lat="45.4089968" lon="10.7912511"><ele>113.0</ele><time>2026-03-28T09:58:08.762Z</time></trkpt><trkpt lat="45.4090759" lon="10.7912444"><ele>112.99999999999999</ele><time>2026-03-28T09:58:09.763Z</time></trkpt><trkpt lat="45.4091466" lon="10.7912355"><ele>113.0</ele><time>2026-03-28T09:58:10.762Z</time></trkpt><trkpt lat="45.4092526" lon="10.7912308"><ele>113.0</ele><time>2026-03-28T09:58:12.763Z</time></trkpt><trkpt lat="45.4093173" lon="10.7911512"><ele>113.00000000000001</ele><time>2026-03-28T09:58:24.763Z</time></trkpt><trkpt lat="45.4093175" lon="10.7909752"><ele>113.00000000000001</ele><time>2026-03-28T09:58:26.762Z</time></trkpt><trkpt lat="45.4093121" lon="10.7908808"><ele>113.0</ele><time>2026-03-28T09:58:27.762Z</time></trkpt><trkpt lat="45.4093016" lon="10.7906907"><ele>113.0</ele><time>2026-03-28T09:58:29.762Z</time></trkpt><trkpt lat="45.4092979" lon="10.7905712"><ele>113.16666666666666</ele><time>2026-03-28T09:58:30.763Z</time></trkpt><trkpt lat="45.4093008" lon="10.7904566"><ele>113.33333333333333</ele><time>2026-03-28T09:58:31.762Z</time></trkpt><trkpt lat="45.4093209" lon="10.7903671"><ele>113.5</ele><time>2026-03-28T09:58:32.763Z</time></trkpt><trkpt lat="45.4094121" lon="10.790251"><ele>113.66666666666666</ele><time>2026-03-28T09:58:34.763Z</time></trkpt><trkpt lat="45.4094851" lon="10.7901909"><ele>113.83333333333333</ele><time>2026-03-28T09:58:35.763Z</time></trkpt><trkpt lat="45.4095605" lon="10.7901304"><ele>114.0</ele><time>2026-03-28T09:58:36.763Z</time></trkpt><trkpt lat="45.409645" lon="10.7900594"><ele>114.4</ele><time>2026-03-28T09:58:37.762Z</time></trkpt><trkpt lat="45.4097334" lon="10.789979"><ele>114.80000000000001</ele><time>2026-03-28T09:58:38.762Z</time></trkpt><trkpt lat="45.4098266" lon="10.7898968"><ele>115.19999999999999</ele><time>2026-03-28T09:58:39.762Z</time></trkpt><trkpt lat="45.4099204" lon="10.7898075"><ele>115.6</ele><time>2026-03-28T09:58:40.763Z</time></trkpt><trkpt lat="45.4100155" lon="10.7897133"><ele>116.0</ele><time>2026-03-28T09:58:41.764Z</time></trkpt><trkpt lat="45.4101133" lon="10.7896213"><ele>116.0</ele><time>2026-03-28T09:58:42.763Z</time></trkpt><trkpt lat="45.4102084" lon="10.7895337"><ele>116.0</ele><time>2026-03-28T09:58:43.762Z</time></trkpt><trkpt lat="45.4103039" lon="10.7894441"><ele>116.0</ele><time>2026-03-28T09:58:44.762Z</time></trkpt><trkpt lat="45.4103951" lon="10.7893543"><ele>116.0</ele><time>2026-03-28T09:58:45.762Z</time></trkpt><trkpt lat="45.4104827" lon="10.7892698"><ele>116.0</ele><time>2026-03-28T09:58:46.763Z</time></trkpt><trkpt lat="45.41057" lon="10.789189"><ele>116.19999999999999</ele><time>2026-03-28T09:58:47.763Z</time></trkpt><trkpt lat="45.4106555" lon="10.7891111"><ele>116.39999999999999</ele><time>2026-03-28T09:58:48.762Z</time></trkpt><trkpt lat="45.4107398" lon="10.7890359"><ele>116.6</ele><time>2026-03-28T09:58:49.762Z</time></trkpt><trkpt lat="45.4108239" lon="10.7889636"><ele>116.8</ele><time>2026-03-28T09:58:50.762Z</time></trkpt><trkpt lat="45.410905" lon="10.7888907"><ele>117.0</ele><time>2026-03-28T09:58:51.763Z</time></trkpt><trkpt lat="45.4109856" lon="10.7888158"><ele>117.0</ele><time>2026-03-28T09:58:52.763Z</time></trkpt><trkpt lat="45.4110688" lon="10.7887399"><ele>116.99999999999999</ele><time>2026-03-28T09:58:53.763Z</time></trkpt><trkpt lat="45.4111533" lon="10.7886548"><ele>116.99999999999999</ele><time>2026-03-28T09:58:54.762Z</time></trkpt><trkpt lat="45.411236" lon="10.7885597"><ele>117.0</ele><time>2026-03-28T09:58:55.763Z</time></trkpt><trkpt lat="45.4113169" lon="10.7884594"><ele>117.0</ele><time>2026-03-28T09:58:56.763Z</time></trkpt><trkpt lat="45.4114022" lon="10.7883521"><ele>117.25</ele><time>2026-03-28T09:58:57.762Z</time></trkpt><trkpt lat="45.4115014" lon="10.7882321"><ele>117.5</ele><time>2026-03-28T09:58:58.762Z</time></trkpt><trkpt lat="45.4116121" lon="10.7881123"><ele>117.75</ele><time>2026-03-28T09:58:59.762Z</time></trkpt><trkpt lat="45.411714" lon="10.7880094"><ele>118.0</ele><time>2026-03-28T09:59:00.762Z</time></trkpt><trkpt lat="45.4118124" lon="10.7879142"><ele>118.0</ele><time>2026-03-28T09:59:01.763Z</time></trkpt><trkpt lat="45.4119063" lon="10.7878328"><ele>118.00000000000001</ele><time>2026-03-28T09:59:02.762Z</time></trkpt><trkpt lat="45.4119885" lon="10.7877532"><ele>118.00000000000001</ele><time>2026-03-28T09:59:03.763Z</time></trkpt><trkpt lat="45.4120563" lon="10.7876628"><ele>118.0</ele><time>2026-03-28T09:59:04.763Z</time></trkpt><trkpt lat="45.4121109" lon="10.7875639"><ele>118.0</ele><time>2026-03-28T09:59:05.763Z</time></trkpt><trkpt lat="45.412159" lon="10.7874444"><ele>118.0</ele><time>2026-03-28T09:59:06.763Z</time></trkpt><trkpt lat="45.4121911" lon="10.7873028"><ele>118.00000000000001</ele><time>2026-03-28T09:59:07.762Z</time></trkpt><trkpt lat="45.4122127" lon="10.7871524"><ele>118.00000000000001</ele><time>2026-03-28T09:59:08.763Z</time></trkpt><trkpt lat="45.4122355" lon="10.7870228"><ele>118.0</ele><time>2026-03-28T09:59:09.762Z</time></trkpt><trkpt lat="45.4122677" lon="10.7869081"><ele>118.0</ele><time>2026-03-28T09:59:10.762Z</time></trkpt><trkpt lat="45.4123119" lon="10.7868007"><ele>117.60000000000001</ele><time>2026-03-28T09:59:11.763Z</time></trkpt><trkpt lat="45.4123728" lon="10.7866995"><ele>117.20000000000002</ele><time>2026-03-28T09:59:12.762Z</time></trkpt><trkpt lat="45.4124453" lon="10.7866011"><ele>116.8</ele><time>2026-03-28T09:59:13.763Z</time></trkpt><trkpt lat="45.4125269" lon="10.7864986"><ele>116.4</ele><time>2026-03-28T09:59:14.762Z</time></trkpt><trkpt lat="45.4126239" lon="10.7863772"><ele>116.0</ele><time>2026-03-28T09:59:15.763Z</time></trkpt><trkpt lat="45.4127358" lon="10.7862212"><ele>116.0</ele><time>2026-03-28T09:59:16.762Z</time></trkpt><trkpt lat="45.4128521" lon="10.7860662"><ele>116.0</ele><time>2026-03-28T09:59:17.763Z</time></trkpt><trkpt lat="45.4129624" lon="10.7859213"><ele>116.0</ele><time>2026-03-28T09:59:18.762Z</time></trkpt><trkpt lat="45.4130715" lon="10.7857667"><ele>116.75</ele><time>2026-03-28T09:59:19.762Z</time></trkpt><trkpt lat="45.4131627" lon="10.7856273"><ele>117.5</ele><time>2026-03-28T09:59:20.762Z</time></trkpt><trkpt lat="45.4132372" lon="10.7855058"><ele>118.25</ele><time>2026-03-28T09:59:21.763Z</time></trkpt><trkpt lat="45.4133055" lon="10.785389"><ele>119.0</ele><time>2026-03-28T09:59:22.763Z</time></trkpt><trkpt lat="45.4133804" lon="10.7852639"><ele>119.75</ele><time>2026-03-28T09:59:23.763Z</time></trkpt><trkpt lat="45.4134583" lon="10.7851341"><ele>120.5</ele><time>2026-03-28T09:59:24.762Z</time></trkpt><trkpt lat="45.4135357" lon="10.7849988"><ele>121.25</ele><time>2026-03-28T09:59:25.763Z</time></trkpt><trkpt lat="45.4136202" lon="10.7848518"><ele>122.0</ele><time>2026-03-28T09:59:26.763Z</time></trkpt><trkpt lat="45.4137015" lon="10.7847168"><ele>122.0</ele><time>2026-03-28T09:59:27.763Z</time></trkpt><trkpt lat="45.413775" lon="10.7845911"><ele>121.99999999999999</ele><time>2026-03-28T09:59:28.763Z</time></trkpt><trkpt lat="45.4138403" lon="10.7844708"><ele>121.99999999999999</ele><time>2026-03-28T09:59:29.762Z</time></trkpt><trkpt lat="45.4138965" lon="10.7843651"><ele>122.0</ele><time>2026-03-28T09:59:30.763Z</time></trkpt><trkpt lat="45.4139424" lon="10.7842803"><ele>122.0</ele><time>2026-03-28T09:59:31.762Z</time></trkpt><trkpt lat="45.4140056" lon="10.7841862"><ele>121.99999999999999</ele><time>2026-03-28T09:59:33.763Z</time></trkpt><trkpt lat="45.4140752" lon="10.784178"><ele>122.0</ele><time>2026-03-28T09:59:36.763Z</time></trkpt><trkpt lat="45.4141405" lon="10.784217"><ele>122.0</ele><time>2026-03-28T10:01:38.761Z</time></trkpt><trkpt lat="45.4142454" lon="10.7842987"><ele>122.0</ele><time>2026-03-28T10:01:40.761Z</time></trkpt><trkpt lat="45.4143091" lon="10.7843429"><ele>121.99999999999999</ele><time>2026-03-28T10:01:41.761Z</time></trkpt><trkpt lat="45.4143729" lon="10.7843841"><ele>122.0</ele><time>2026-03-28T10:01:42.762Z</time></trkpt><trkpt lat="45.4144333" lon="10.784425"><ele>121.99999999999999</ele><time>2026-03-28T10:01:43.762Z</time></trkpt><trkpt lat="45.4144941" lon="10.7844625"><ele>122.0</ele><time>2026-03-28T10:01:44.763Z</time></trkpt><trkpt lat="45.4145522" lon="10.7844983"><ele>122.0</ele><time>2026-03-28T10:01:45.762Z</time></trkpt><trkpt lat="45.4146613" lon="10.7845624"><ele>122.0</ele><time>2026-03-28T10:01:47.761Z</time></trkpt><trkpt lat="45.4147668" lon="10.784639"><ele>121.99999999999999</ele><time>2026-03-28T10:01:49.761Z</time></trkpt><trkpt lat="45.4148267" lon="10.7846794"><ele>122.0</ele><time>2026-03-28T10:01:50.761Z</time></trkpt><trkpt lat="45.4148926" lon="10.7847187"><ele>122.0</ele><time>2026-03-28T10:01:51.761Z</time></trkpt><trkpt lat="45.415002" lon="10.7847756"><ele>121.99999999999999</ele><time>2026-03-28T10:01:53.761Z</time></trkpt><trkpt lat="45.4150857" lon="10.7848378"><ele>121.99999999999999</ele><time>2026-03-28T10:01:55.761Z</time></trkpt><trkpt lat="45.4151639" lon="10.7848963"><ele>122.0</ele><time>2026-03-28T10:01:57.761Z</time></trkpt><trkpt lat="45.4152478" lon="10.7849529"><ele>122.0</ele><time>2026-03-28T10:01:59.762Z</time></trkpt><trkpt lat="45.4153335" lon="10.7850072"><ele>121.99999999999999</ele><time>2026-03-28T10:02:01.761Z</time></trkpt><trkpt lat="45.4154197" lon="10.7850607"><ele>122.0</ele><time>2026-03-28T10:02:03.762Z</time></trkpt><trkpt lat="45.4155144" lon="10.7851266"><ele>122.0</ele><time>2026-03-28T10:02:05.761Z</time></trkpt><trkpt lat="45.4155723" lon="10.7851642"><ele>122.0</ele><time>2026-03-28T10:02:06.761Z</time></trkpt><trkpt lat="45.4156398" lon="10.7852096"><ele>121.99999999999999</ele><time>2026-03-28T10:02:07.761Z</time></trkpt><trkpt lat="45.4157109" lon="10.7852604"><ele>122.0</ele><time>2026-03-28T10:02:08.762Z</time></trkpt><trkpt lat="45.4157773" lon="10.7853034"><ele>121.83333333333333</ele><time>2026-03-28T10:02:09.761Z</time></trkpt><trkpt lat="45.4158406" lon="10.7853434"><ele>121.66666666666666</ele><time>2026-03-28T10:02:10.762Z</time></trkpt><trkpt lat="45.4158987" lon="10.7853798"><ele>121.5</ele><time>2026-03-28T10:02:11.762Z</time></trkpt><trkpt lat="45.4160043" lon="10.78545"><ele>121.33333333333334</ele><time>2026-03-28T10:02:13.761Z</time></trkpt><trkpt lat="45.4160908" lon="10.7855074"><ele>121.16666666666667</ele><time>2026-03-28T10:02:15.762Z</time></trkpt><trkpt lat="45.4161664" lon="10.7855549"><ele>121.0</ele><time>2026-03-28T10:02:17.761Z</time></trkpt><trkpt lat="45.4162453" lon="10.7855994"><ele>121.8</ele><time>2026-03-28T10:02:19.762Z</time></trkpt><trkpt lat="45.4163486" lon="10.78567"><ele>122.6</ele><time>2026-03-28T10:02:21.761Z</time></trkpt><trkpt lat="45.4164672" lon="10.7857465"><ele>123.4</ele><time>2026-03-28T10:02:23.762Z</time></trkpt><trkpt lat="45.4165381" lon="10.7858025"><ele>124.2</ele><time>2026-03-28T10:02:24.761Z</time></trkpt><trkpt lat="45.4166169" lon="10.7858573"><ele>125.0</ele><time>2026-03-28T10:02:25.762Z</time></trkpt><trkpt lat="45.4166984" lon="10.7859048"><ele>125.0</ele><time>2026-03-28T10:02:26.761Z</time></trkpt><trkpt lat="45.4167926" lon="10.7859668"><ele>125.0</ele><time>2026-03-28T10:02:27.761Z</time></trkpt><trkpt lat="45.4168959" lon="10.7860443"><ele>125.0</ele><time>2026-03-28T10:02:28.761Z</time></trkpt><trkpt lat="45.4169997" lon="10.7861144"><ele>125.0</ele><time>2026-03-28T10:02:29.761Z</time></trkpt><trkpt lat="45.4171078" lon="10.7861841"><ele>125.0</ele><time>2026-03-28T10:02:30.761Z</time></trkpt><trkpt lat="45.4172256" lon="10.7862597"><ele>125.0</ele><time>2026-03-28T10:02:31.761Z</time></trkpt><trkpt lat="45.4173403" lon="10.7863331"><ele>125.0</ele><time>2026-03-28T10:02:32.761Z</time></trkpt><trkpt lat="45.4174578" lon="10.7864041"><ele>125.0</ele><time>2026-03-28T10:02:33.762Z</time></trkpt><trkpt lat="45.4175777" lon="10.7864756"><ele>125.0</ele><time>2026-03-28T10:02:34.761Z</time></trkpt><trkpt lat="45.4176981" lon="10.7865611"><ele>125.0</ele><time>2026-03-28T10:02:35.762Z</time></trkpt><trkpt lat="45.4178231" lon="10.786642"><ele>125.0</ele><time>2026-03-28T10:02:36.761Z</time></trkpt><trkpt lat="45.4179495" lon="10.7867208"><ele>125.0</ele><time>2026-03-28T10:02:37.761Z</time></trkpt><trkpt lat="45.418086" lon="10.7868114"><ele>125.0</ele><time>2026-03-28T10:02:38.761Z</time></trkpt><trkpt lat="45.4182154" lon="10.7869035"><ele>125.0</ele><time>2026-03-28T10:02:39.761Z</time></trkpt><trkpt lat="45.4183344" lon="10.7869907"><ele>125.0</ele><time>2026-03-28T10:02:40.762Z</time></trkpt><trkpt lat="45.4184455" lon="10.7870752"><ele>125.0</ele><time>2026-03-28T10:02:41.761Z</time></trkpt><trkpt lat="45.4185487" lon="10.7871503"><ele>125.0</ele><time>2026-03-28T10:02:42.761Z</time></trkpt><trkpt lat="45.4186517" lon="10.7872098"><ele>125.0</ele><time>2026-03-28T10:02:43.761Z</time></trkpt><trkpt lat="45.4187481" lon="10.787265"><ele>125.0</ele><time>2026-03-28T10:02:44.761Z</time></trkpt><trkpt lat="45.4188381" lon="10.7873089"><ele>125.0</ele><time>2026-03-28T10:02:45.761Z</time></trkpt><trkpt lat="45.4189207" lon="10.7873423"><ele>125.0</ele><time>2026-03-28T10:02:46.762Z</time></trkpt><trkpt lat="45.4189987" lon="10.7873744"><ele>124.66666666666666</ele><time>2026-03-28T10:02:47.761Z</time></trkpt><trkpt lat="45.4190706" lon="10.7873911"><ele>124.33333333333333</ele><time>2026-03-28T10:02:48.761Z</time></trkpt><trkpt lat="45.4191411" lon="10.7873807"><ele>124.0</ele><time>2026-03-28T10:02:49.762Z</time></trkpt><trkpt lat="45.4191986" lon="10.7873387"><ele>123.66666666666666</ele><time>2026-03-28T10:02:50.761Z</time></trkpt><trkpt lat="45.4192544" lon="10.7872127"><ele>123.33333333333333</ele><time>2026-03-28T10:02:52.762Z</time></trkpt><trkpt lat="45.4192903" lon="10.7870554"><ele>123.0</ele><time>2026-03-28T10:02:54.762Z</time></trkpt><trkpt lat="45.4193626" lon="10.7869597"><ele>123.0</ele><time>2026-03-28T10:02:56.761Z</time></trkpt><trkpt lat="45.4194486" lon="10.7869738"><ele>123.00000000000001</ele><time>2026-03-28T10:02:58.761Z</time></trkpt><trkpt lat="45.4195688" lon="10.787044"><ele>123.00000000000001</ele><time>2026-03-28T10:03:00.761Z</time></trkpt><trkpt lat="45.4196445" lon="10.7870926"><ele>123.0</ele><time>2026-03-28T10:03:01.761Z</time></trkpt><trkpt lat="45.4197309" lon="10.7871393"><ele>123.0</ele><time>2026-03-28T10:03:02.761Z</time></trkpt><trkpt lat="45.4198194" lon="10.7871907"><ele>123.4</ele><time>2026-03-28T10:03:03.762Z</time></trkpt><trkpt lat="45.4198997" lon="10.7872378"><ele>123.80000000000001</ele><time>2026-03-28T10:03:04.761Z</time></trkpt><trkpt lat="45.4199767" lon="10.7872903"><ele>124.2</ele><time>2026-03-28T10:03:05.762Z</time></trkpt><trkpt lat="45.4200574" lon="10.7873566"><ele>124.6</ele><time>2026-03-28T10:03:06.761Z</time></trkpt><trkpt lat="45.4201404" lon="10.7874417"><ele>125.0</ele><time>2026-03-28T10:03:07.762Z</time></trkpt><trkpt lat="45.4202228" lon="10.7875445"><ele>125.0</ele><time>2026-03-28T10:03:08.761Z</time></trkpt><trkpt lat="45.4203025" lon="10.7876646"><ele>125.0</ele><time>2026-03-28T10:03:09.761Z</time></trkpt><trkpt lat="45.4203755" lon="10.7877944"><ele>125.0</ele><time>2026-03-28T10:03:10.762Z</time></trkpt><trkpt lat="45.4204486" lon="10.7879056"><ele>125.0</ele><time>2026-03-28T10:03:11.761Z</time></trkpt><trkpt lat="45.4205304" lon="10.7880084"><ele>125.0</ele><time>2026-03-28T10:03:12.762Z</time></trkpt><trkpt lat="45.4206125" lon="10.7881024"><ele>126.0</ele><time>2026-03-28T10:03:13.761Z</time></trkpt><trkpt lat="45.4206997" lon="10.7881969"><ele>127.0</ele><time>2026-03-28T10:03:14.762Z</time></trkpt><trkpt lat="45.4207953" lon="10.7882983"><ele>128.0</ele><time>2026-03-28T10:03:15.761Z</time></trkpt><trkpt lat="45.4208905" lon="10.7883994"><ele>129.0</ele><time>2026-03-28T10:03:16.761Z</time></trkpt><trkpt lat="45.4209777" lon="10.788497"><ele>129.0</ele><time>2026-03-28T10:03:17.762Z</time></trkpt><trkpt lat="45.4210609" lon="10.7885894"><ele>129.0</ele><time>2026-03-28T10:03:18.761Z</time></trkpt><trkpt lat="45.4211396" lon="10.788681"><ele>129.0</ele><time>2026-03-28T10:03:19.761Z</time></trkpt><trkpt lat="45.4212132" lon="10.7887696"><ele>129.0</ele><time>2026-03-28T10:03:20.762Z</time></trkpt><trkpt lat="45.4212888" lon="10.7888618"><ele>129.0</ele><time>2026-03-28T10:03:21.761Z</time></trkpt><trkpt lat="45.4213639" lon="10.788955"><ele>129.2</ele><time>2026-03-28T10:03:22.762Z</time></trkpt><trkpt lat="45.4214399" lon="10.7890567"><ele>129.4</ele><time>2026-03-28T10:03:23.761Z</time></trkpt><trkpt lat="45.4215118" lon="10.7891669"><ele>129.6</ele><time>2026-03-28T10:03:24.761Z</time></trkpt><trkpt lat="45.4215773" lon="10.7892714"><ele>129.8</ele><time>2026-03-28T10:03:25.761Z</time></trkpt><trkpt lat="45.4216358" lon="10.7893751"><ele>130.0</ele><time>2026-03-28T10:03:26.762Z</time></trkpt><trkpt lat="45.4216952" lon="10.7894921"><ele>130.2</ele><time>2026-03-28T10:03:27.762Z</time></trkpt><trkpt lat="45.4217465" lon="10.7896094"><ele>130.4</ele><time>2026-03-28T10:03:28.761Z</time></trkpt><trkpt lat="45.4217986" lon="10.7897335"><ele>130.6</ele><time>2026-03-28T10:03:29.762Z</time></trkpt><trkpt lat="45.4218449" lon="10.7898597"><ele>130.8</ele><time>2026-03-28T10:03:30.761Z</time></trkpt><trkpt lat="45.4218875" lon="10.789974"><ele>131.0</ele><time>2026-03-28T10:03:31.762Z</time></trkpt><trkpt lat="45.4219235" lon="10.7900763"><ele>131.0</ele><time>2026-03-28T10:03:32.761Z</time></trkpt><trkpt lat="45.4219557" lon="10.7901746"><ele>131.0</ele><time>2026-03-28T10:03:33.762Z</time></trkpt><trkpt lat="45.4219856" lon="10.7902753"><ele>131.0</ele><time>2026-03-28T10:03:34.761Z</time></trkpt><trkpt lat="45.4220224" lon="10.7903645"><ele>131.0</ele><time>2026-03-28T10:03:35.761Z</time></trkpt><trkpt lat="45.4220671" lon="10.7904473"><ele>131.0</ele><time>2026-03-28T10:03:36.762Z</time></trkpt><trkpt lat="45.4221241" lon="10.7905077"><ele>131.0</ele><time>2026-03-28T10:03:37.761Z</time></trkpt><trkpt lat="45.4221915" lon="10.7905181"><ele>131.0</ele><time>2026-03-28T10:03:38.762Z</time></trkpt><trkpt lat="45.4222497" lon="10.7904771"><ele>131.0</ele><time>2026-03-28T10:03:39.761Z</time></trkpt><trkpt lat="45.4223162" lon="10.7904242"><ele>131.0</ele><time>2026-03-28T10:03:40.761Z</time></trkpt><trkpt lat="45.4224059" lon="10.7903913"><ele>131.0</ele><time>2026-03-28T10:03:41.761Z</time></trkpt><trkpt lat="45.4225086" lon="10.7903787"><ele>131.0</ele><time>2026-03-28T10:03:42.762Z</time></trkpt><trkpt lat="45.422619" lon="10.790362"><ele>131.0</ele><time>2026-03-28T10:03:43.761Z</time></trkpt><trkpt lat="45.4227313" lon="10.7903421"><ele>131.0</ele><time>2026-03-28T10:03:44.762Z</time></trkpt><trkpt lat="45.4228495" lon="10.7903262"><ele>131.0</ele><time>2026-03-28T10:03:45.762Z</time></trkpt><trkpt lat="45.4229649" lon="10.7902937"><ele>131.0</ele><time>2026-03-28T10:03:46.762Z</time></trkpt><trkpt lat="45.4230681" lon="10.7902618"><ele>131.0</ele><time>2026-03-28T10:03:47.762Z</time></trkpt><trkpt lat="45.4231666" lon="10.790237"><ele>131.0</ele><time>2026-03-28T10:03:48.761Z</time></trkpt><trkpt lat="45.4232611" lon="10.7902143"><ele>130.8</ele><time>2026-03-28T10:03:49.761Z</time></trkpt><trkpt lat="45.4233599" lon="10.7901942"><ele>130.6</ele><time>2026-03-28T10:03:50.761Z</time></trkpt><trkpt lat="45.4234562" lon="10.7901774"><ele>130.4</ele><time>2026-03-28T10:03:51.762Z</time></trkpt><trkpt lat="45.4235268" lon="10.7901611"><ele>130.2</ele><time>2026-03-28T10:03:52.761Z</time></trkpt><trkpt lat="45.4236511" lon="10.790126"><ele>130.0</ele><time>2026-03-28T10:03:54.761Z</time></trkpt><trkpt lat="45.4237245" lon="10.7900919"><ele>130.0</ele><time>2026-03-28T10:03:55.763Z</time></trkpt><trkpt lat="45.4238022" lon="10.7900453"><ele>130.0</ele><time>2026-03-28T10:03:56.761Z</time></trkpt><trkpt lat="45.423883" lon="10.7899971"><ele>130.0</ele><time>2026-03-28T10:03:57.761Z</time></trkpt><trkpt lat="45.4239557" lon="10.7899686"><ele>130.0</ele><time>2026-03-28T10:03:58.762Z</time></trkpt><trkpt lat="45.424036" lon="10.7900462"><ele>130.0</ele><time>2026-03-28T10:04:00.762Z</time></trkpt><trkpt lat="45.4240611" lon="10.7902483"><ele>130.25</ele><time>2026-03-28T10:04:02.762Z</time></trkpt><trkpt lat="45.4240713" lon="10.7904038"><ele>130.5</ele><time>2026-03-28T10:04:03.761Z</time></trkpt><trkpt lat="45.4240857" lon="10.7905909"><ele>130.75</ele><time>2026-03-28T10:04:04.762Z</time></trkpt><trkpt lat="45.4241037" lon="10.7907809"><ele>131.0</ele><time>2026-03-28T10:04:05.761Z</time></trkpt><trkpt lat="45.424118" lon="10.7909861"><ele>131.0</ele><time>2026-03-28T10:04:06.761Z</time></trkpt><trkpt lat="45.424123" lon="10.7911961"><ele>131.0</ele><time>2026-03-28T10:04:07.762Z</time></trkpt><trkpt lat="45.4241237" lon="10.7913995"><ele>131.0</ele><time>2026-03-28T10:04:08.761Z</time></trkpt><trkpt lat="45.4241255" lon="10.7915919"><ele>131.0</ele><time>2026-03-28T10:04:09.761Z</time></trkpt><trkpt lat="45.424126" lon="10.7917644"><ele>130.66666666666666</ele><time>2026-03-28T10:04:10.762Z</time></trkpt><trkpt lat="45.4241214" lon="10.7919113"><ele>130.33333333333331</ele><time>2026-03-28T10:04:11.762Z</time></trkpt><trkpt lat="45.4241291" lon="10.7920317"><ele>130.0</ele><time>2026-03-28T10:04:12.761Z</time></trkpt><trkpt lat="45.4241615" lon="10.792118"><ele>129.66666666666666</ele><time>2026-03-28T10:04:13.761Z</time></trkpt><trkpt lat="45.4242183" lon="10.7921686"><ele>129.33333333333334</ele><time>2026-03-28T10:04:14.763Z</time></trkpt><trkpt lat="45.4243077" lon="10.7922"><ele>129.0</ele><time>2026-03-28T10:04:15.762Z</time></trkpt><trkpt lat="45.424421" lon="10.7922371"><ele>129.0</ele><time>2026-03-28T10:04:16.761Z</time></trkpt><trkpt lat="45.424556" lon="10.7922846"><ele>129.0</ele><time>2026-03-28T10:04:17.761Z</time></trkpt><trkpt lat="45.4246976" lon="10.7923299"><ele>129.0</ele><time>2026-03-28T10:04:18.762Z</time></trkpt><trkpt lat="45.4248316" lon="10.7923689"><ele>129.0</ele><time>2026-03-28T10:04:19.762Z</time></trkpt><trkpt lat="45.4249587" lon="10.7924134"><ele>128.33333333333334</ele><time>2026-03-28T10:04:20.762Z</time></trkpt><trkpt lat="45.4250682" lon="10.7924549"><ele>127.66666666666666</ele><time>2026-03-28T10:04:21.761Z</time></trkpt><trkpt lat="45.4251464" lon="10.7924841"><ele>127.0</ele><time>2026-03-28T10:04:22.761Z</time></trkpt><trkpt lat="45.4252185" lon="10.7925273"><ele>126.33333333333333</ele><time>2026-03-28T10:04:24.761Z</time></trkpt><trkpt lat="45.425287" lon="10.7925265"><ele>125.66666666666666</ele><time>2026-03-28T10:04:28.762Z</time></trkpt><trkpt lat="45.4253772" lon="10.7925293"><ele>125.0</ele><time>2026-03-28T10:04:30.761Z</time></trkpt><trkpt lat="45.4254457" lon="10.7925188"><ele>125.25</ele><time>2026-03-28T10:04:31.762Z</time></trkpt><trkpt lat="45.4255357" lon="10.7924862"><ele>125.5</ele><time>2026-03-28T10:04:32.761Z</time></trkpt><trkpt lat="45.4256644" lon="10.7924376"><ele>125.75</ele><time>2026-03-28T10:04:33.762Z</time></trkpt><trkpt lat="45.4258122" lon="10.7923902"><ele>126.0</ele><time>2026-03-28T10:04:34.762Z</time></trkpt><trkpt lat="45.4259831" lon="10.7923353"><ele>126.0</ele><time>2026-03-28T10:04:35.761Z</time></trkpt><trkpt lat="45.4261665" lon="10.7922718"><ele>126.0</ele><time>2026-03-28T10:04:36.761Z</time></trkpt><trkpt lat="45.4263645" lon="10.7922051"><ele>126.0</ele><time>2026-03-28T10:04:37.761Z</time></trkpt><trkpt lat="45.4265879" lon="10.7921396"><ele>125.0</ele><time>2026-03-28T10:04:38.761Z</time></trkpt><trkpt lat="45.426839" lon="10.7920673"><ele>124.0</ele><time>2026-03-28T10:04:39.762Z</time></trkpt><trkpt lat="45.4271054" lon="10.7919812"><ele>124.0</ele><time>2026-03-28T10:04:40.761Z</time></trkpt><trkpt lat="45.4273834" lon="10.7918863"><ele>124.0</ele><time>2026-03-28T10:04:41.761Z</time></trkpt><trkpt lat="45.4276699" lon="10.7917921"><ele>124.0</ele><time>2026-03-28T10:04:42.762Z</time></trkpt><trkpt lat="45.4279558" lon="10.791701"><ele>124.0</ele><time>2026-03-28T10:04:43.761Z</time></trkpt><trkpt lat="45.4282162" lon="10.7916157"><ele>124.5</ele><time>2026-03-28T10:04:44.762Z</time></trkpt><trkpt lat="45.4284584" lon="10.791535"><ele>125.0</ele><time>2026-03-28T10:04:45.761Z</time></trkpt><trkpt lat="45.4286766" lon="10.79146"><ele>125.0</ele><time>2026-03-28T10:04:46.763Z</time></trkpt><trkpt lat="45.428869" lon="10.7913959"><ele>125.0</ele><time>2026-03-28T10:04:47.761Z</time></trkpt><trkpt lat="45.4290425" lon="10.7913375"><ele>125.0</ele><time>2026-03-28T10:04:48.762Z</time></trkpt><trkpt lat="45.429197" lon="10.7912882"><ele>125.0</ele><time>2026-03-28T10:04:49.762Z</time></trkpt><trkpt lat="45.4293353" lon="10.7912464"><ele>125.0</ele><time>2026-03-28T10:04:50.762Z</time></trkpt><trkpt lat="45.4294531" lon="10.7912094"><ele>125.0</ele><time>2026-03-28T10:04:51.762Z</time></trkpt><trkpt lat="45.4295511" lon="10.7911778"><ele>125.0</ele><time>2026-03-28T10:04:52.761Z</time></trkpt><trkpt lat="45.4296303" lon="10.7911589"><ele>125.0</ele><time>2026-03-28T10:04:53.761Z</time></trkpt><trkpt lat="45.4296964" lon="10.7911457"><ele>125.16666666666666</ele><time>2026-03-28T10:04:54.762Z</time></trkpt><trkpt lat="45.4297729" lon="10.791131"><ele>125.33333333333333</ele><time>2026-03-28T10:04:56.761Z</time></trkpt><trkpt lat="45.4298531" lon="10.7911552"><ele>125.5</ele><time>2026-03-28T10:04:59.762Z</time></trkpt><trkpt lat="45.4299425" lon="10.7912864"><ele>125.66666666666666</ele><time>2026-03-28T10:05:01.762Z</time></trkpt><trkpt lat="45.4299894" lon="10.7913786"><ele>125.83333333333333</ele><time>2026-03-28T10:05:02.761Z</time></trkpt><trkpt lat="45.4300385" lon="10.7914654"><ele>126.0</ele><time>2026-03-28T10:05:03.762Z</time></trkpt><trkpt lat="45.4301005" lon="10.7915339"><ele>126.0</ele><time>2026-03-28T10:05:04.762Z</time></trkpt><trkpt lat="45.4301895" lon="10.7915793"><ele>126.0</ele><time>2026-03-28T10:05:05.761Z</time></trkpt><trkpt lat="45.4302969" lon="10.7915764"><ele>126.0</ele><time>2026-03-28T10:05:06.761Z</time></trkpt><trkpt lat="45.4304308" lon="10.7915414"><ele>126.0</ele><time>2026-03-28T10:05:07.761Z</time></trkpt><trkpt lat="45.4305898" lon="10.7915088"><ele>126.33333333333334</ele><time>2026-03-28T10:05:08.762Z</time></trkpt><trkpt lat="45.4307633" lon="10.791497"><ele>126.66666666666667</ele><time>2026-03-28T10:05:09.761Z</time></trkpt><trkpt lat="45.4309354" lon="10.7914767"><ele>127.0</ele><time>2026-03-28T10:05:10.761Z</time></trkpt><trkpt lat="45.4310966" lon="10.79145"><ele>127.0</ele><time>2026-03-28T10:05:11.761Z</time></trkpt><trkpt lat="45.4312509" lon="10.791436"><ele>127.0</ele><time>2026-03-28T10:05:12.761Z</time></trkpt><trkpt lat="45.4313974" lon="10.7914417"><ele>127.0</ele><time>2026-03-28T10:05:13.762Z</time></trkpt><trkpt lat="45.431541" lon="10.7914747"><ele>127.0</ele><time>2026-03-28T10:05:14.761Z</time></trkpt><trkpt lat="45.4316816" lon="10.7915332"><ele>127.0</ele><time>2026-03-28T10:05:15.762Z</time></trkpt><trkpt lat="45.4318143" lon="10.7916128"><ele>127.0</ele><time>2026-03-28T10:05:16.762Z</time></trkpt><trkpt lat="45.4319419" lon="10.7916941"><ele>127.0</ele><time>2026-03-28T10:05:17.762Z</time></trkpt><trkpt lat="45.4320799" lon="10.791774"><ele>127.0</ele><time>2026-03-28T10:05:18.762Z</time></trkpt><trkpt lat="45.4322265" lon="10.7918639"><ele>127.0</ele><time>2026-03-28T10:05:19.762Z</time></trkpt><trkpt lat="45.4323908" lon="10.7919826"><ele>127.0</ele><time>2026-03-28T10:05:20.761Z</time></trkpt><trkpt lat="45.4325581" lon="10.7921196"><ele>127.0</ele><time>2026-03-28T10:05:21.761Z</time></trkpt><trkpt lat="45.4327342" lon="10.7922248"><ele>127.0</ele><time>2026-03-28T10:05:22.762Z</time></trkpt><trkpt lat="45.4329286" lon="10.7922827"><ele>127.0</ele><time>2026-03-28T10:05:23.762Z</time></trkpt><trkpt lat="45.4331442" lon="10.7923296"><ele>127.0</ele><time>2026-03-28T10:05:24.762Z</time></trkpt><trkpt lat="45.4333831" lon="10.7923622"><ele>129.0</ele><time>2026-03-28T10:05:25.761Z</time></trkpt><trkpt lat="45.4336217" lon="10.7923779"><ele>131.0</ele><time>2026-03-28T10:05:26.762Z</time></trkpt><trkpt lat="45.4338421" lon="10.7923854"><ele>131.0</ele><time>2026-03-28T10:05:27.762Z</time></trkpt><trkpt lat="45.4340531" lon="10.7923907"><ele>131.0</ele><time>2026-03-28T10:05:28.761Z</time></trkpt><trkpt lat="45.4342663" lon="10.7923824"><ele>131.0</ele><time>2026-03-28T10:05:29.761Z</time></trkpt><trkpt lat="45.4344762" lon="10.7923602"><ele>131.0</ele><time>2026-03-28T10:05:30.762Z</time></trkpt><trkpt lat="45.4346857" lon="10.7923318"><ele>131.0</ele><time>2026-03-28T10:05:31.762Z</time></trkpt><trkpt lat="45.4348913" lon="10.7923107"><ele>131.0</ele><time>2026-03-28T10:05:32.761Z</time></trkpt><trkpt lat="45.4350921" lon="10.7922907"><ele>131.0</ele><time>2026-03-28T10:05:33.763Z</time></trkpt><trkpt lat="45.4352883" lon="10.7922638"><ele>131.0</ele><time>2026-03-28T10:05:34.762Z</time></trkpt><trkpt lat="45.435479" lon="10.7922355"><ele>131.0</ele><time>2026-03-28T10:05:35.761Z</time></trkpt><trkpt lat="45.4356674" lon="10.7922106"><ele>132.0</ele><time>2026-03-28T10:05:36.762Z</time></trkpt><trkpt lat="45.435854" lon="10.7921848"><ele>133.0</ele><time>2026-03-28T10:05:37.761Z</time></trkpt><trkpt lat="45.4360378" lon="10.7921566"><ele>134.0</ele><time>2026-03-28T10:05:38.761Z</time></trkpt><trkpt lat="45.4362214" lon="10.7921274"><ele>133.66666666666666</ele><time>2026-03-28T10:05:39.761Z</time></trkpt><trkpt lat="45.4364031" lon="10.7921004"><ele>133.33333333333334</ele><time>2026-03-28T10:05:40.762Z</time></trkpt><trkpt lat="45.4365795" lon="10.7920742"><ele>133.0</ele><time>2026-03-28T10:05:41.761Z</time></trkpt><trkpt lat="45.4367191" lon="10.7920539"><ele>133.0</ele><time>2026-03-28T10:05:42.761Z</time></trkpt><trkpt lat="45.4368196" lon="10.7920371"><ele>133.0</ele><time>2026-03-28T10:05:43.762Z</time></trkpt><trkpt lat="45.4368989" lon="10.7919512"><ele>133.0</ele><time>2026-03-28T10:05:45.761Z</time></trkpt><trkpt lat="45.4369039" lon="10.7917997"><ele>133.0</ele><time>2026-03-28T10:05:47.762Z</time></trkpt><trkpt lat="45.4369263" lon="10.7917096"><ele>133.0</ele><time>2026-03-28T10:05:48.761Z</time></trkpt><trkpt lat="45.4369649" lon="10.7916154"><ele>133.16666666666669</ele><time>2026-03-28T10:05:49.761Z</time></trkpt><trkpt lat="45.4370038" lon="10.7915124"><ele>133.33333333333334</ele><time>2026-03-28T10:05:50.761Z</time></trkpt><trkpt lat="45.4370248" lon="10.7914001"><ele>133.5</ele><time>2026-03-28T10:05:51.762Z</time></trkpt><trkpt lat="45.4370239" lon="10.7912804"><ele>133.66666666666666</ele><time>2026-03-28T10:05:52.762Z</time></trkpt><trkpt lat="45.4369976" lon="10.7911682"><ele>133.83333333333331</ele><time>2026-03-28T10:05:53.761Z</time></trkpt><trkpt lat="45.4369548" lon="10.7910485"><ele>134.0</ele><time>2026-03-28T10:05:54.761Z</time></trkpt><trkpt lat="45.4368909" lon="10.79093"><ele>134.0</ele><time>2026-03-28T10:05:55.762Z</time></trkpt><trkpt lat="45.4368287" lon="10.7908071"><ele>134.0</ele><time>2026-03-28T10:05:56.762Z</time></trkpt><trkpt lat="45.4367581" lon="10.7906939"><ele>134.0</ele><time>2026-03-28T10:05:57.762Z</time></trkpt><trkpt lat="45.4367002" lon="10.790612"><ele>134.0</ele><time>2026-03-28T10:05:58.761Z</time></trkpt><trkpt lat="45.4366567" lon="10.7905469"><ele>134.0</ele><time>2026-03-28T10:05:59.762Z</time></trkpt><trkpt lat="45.4366466" lon="10.7904345"><ele>134.0</ele><time>2026-03-28T10:06:01.761Z</time></trkpt><trkpt lat="45.4367039" lon="10.79032"><ele>134.0</ele><time>2026-03-28T10:06:03.761Z</time></trkpt><trkpt lat="45.4367558" lon="10.7902558"><ele>134.0</ele><time>2026-03-28T10:06:04.762Z</time></trkpt><trkpt lat="45.4368162" lon="10.7901652"><ele>134.0</ele><time>2026-03-28T10:06:05.763Z</time></trkpt><trkpt lat="45.4368856" lon="10.7900567"><ele>134.0</ele><time>2026-03-28T10:06:06.761Z</time></trkpt><trkpt lat="45.4369595" lon="10.7899506"><ele>134.0</ele><time>2026-03-28T10:06:07.761Z</time></trkpt><trkpt lat="45.4370231" lon="10.7898491"><ele>133.5</ele><time>2026-03-28T10:06:08.762Z</time></trkpt><trkpt lat="45.4370844" lon="10.7897514"><ele>133.0</ele><time>2026-03-28T10:06:09.762Z</time></trkpt><trkpt lat="45.4371458" lon="10.7896653"><ele>132.5</ele><time>2026-03-28T10:06:10.761Z</time></trkpt><trkpt lat="45.4371955" lon="10.7895873"><ele>132.0</ele><time>2026-03-28T10:06:11.762Z</time></trkpt><trkpt lat="45.4372498" lon="10.7894518"><ele>131.5</ele><time>2026-03-28T10:06:13.761Z</time></trkpt><trkpt lat="45.4372743" lon="10.7893614"><ele>131.0</ele><time>2026-03-28T10:06:15.761Z</time></trkpt><trkpt lat="45.437207" lon="10.7892883"><ele>130.6</ele><time>2026-03-28T10:25:48.757Z</time></trkpt><trkpt lat="45.4371195" lon="10.789253"><ele>130.2</ele><time>2026-03-28T10:25:50.757Z</time></trkpt><trkpt lat="45.4370196" lon="10.7891939"><ele>129.8</ele><time>2026-03-28T10:25:52.757Z</time></trkpt><trkpt lat="45.4369426" lon="10.789126"><ele>129.4</ele><time>2026-03-28T10:25:54.758Z</time></trkpt><trkpt lat="45.4369232" lon="10.7890107"><ele>129.0</ele><time>2026-03-28T10:25:56.757Z</time></trkpt><trkpt lat="45.4369556" lon="10.7889093"><ele>129.0</ele><time>2026-03-28T10:25:58.757Z</time></trkpt><trkpt lat="45.4370227" lon="10.7887954"><ele>129.0</ele><time>2026-03-28T10:26:00.758Z</time></trkpt><trkpt lat="45.4370463" lon="10.788656"><ele>129.0</ele><time>2026-03-28T10:26:02.758Z</time></trkpt><trkpt lat="45.4370458" lon="10.7885463"><ele>129.0</ele><time>2026-03-28T10:26:03.757Z</time></trkpt><trkpt lat="45.4370396" lon="10.7884193"><ele>129.0</ele><time>2026-03-28T10:26:04.757Z</time></trkpt><trkpt lat="45.4370249" lon="10.7882659"><ele>128.83333333333334</ele><time>2026-03-28T10:26:05.758Z</time></trkpt><trkpt lat="45.4370141" lon="10.7881444"><ele>128.66666666666666</ele><time>2026-03-28T10:26:06.759Z</time></trkpt><trkpt lat="45.4369983" lon="10.7880381"><ele>128.5</ele><time>2026-03-28T10:26:07.757Z</time></trkpt><trkpt lat="45.4369779" lon="10.7879099"><ele>128.33333333333331</ele><time>2026-03-28T10:26:08.758Z</time></trkpt><trkpt lat="45.4369606" lon="10.7877938"><ele>128.16666666666666</ele><time>2026-03-28T10:26:09.757Z</time></trkpt><trkpt lat="45.4369536" lon="10.7876641"><ele>128.0</ele><time>2026-03-28T10:26:10.758Z</time></trkpt><trkpt lat="45.4369595" lon="10.7875241"><ele>127.99999999999999</ele><time>2026-03-28T10:26:11.758Z</time></trkpt><trkpt lat="45.4369721" lon="10.7873991"><ele>128.0</ele><time>2026-03-28T10:26:12.758Z</time></trkpt><trkpt lat="45.4369995" lon="10.7872706"><ele>128.0</ele><time>2026-03-28T10:26:13.757Z</time></trkpt><trkpt lat="45.4370331" lon="10.7871533"><ele>128.0</ele><time>2026-03-28T10:26:14.758Z</time></trkpt><trkpt lat="45.437062" lon="10.7870475"><ele>127.99999999999999</ele><time>2026-03-28T10:26:15.757Z</time></trkpt><trkpt lat="45.4370944" lon="10.786931"><ele>128.0</ele><time>2026-03-28T10:26:16.758Z</time></trkpt><trkpt lat="45.4371521" lon="10.7867443"><ele>127.83333333333333</ele><time>2026-03-28T10:26:18.758Z</time></trkpt><trkpt lat="45.4371859" lon="10.7866228"><ele>127.66666666666666</ele><time>2026-03-28T10:26:19.758Z</time></trkpt><trkpt lat="45.4372157" lon="10.7864985"><ele>127.5</ele><time>2026-03-28T10:26:20.758Z</time></trkpt><trkpt lat="45.4372448" lon="10.7863854"><ele>127.33333333333334</ele><time>2026-03-28T10:26:21.757Z</time></trkpt><trkpt lat="45.4372686" lon="10.7862848"><ele>127.16666666666667</ele><time>2026-03-28T10:26:22.758Z</time></trkpt><trkpt lat="45.4372905" lon="10.7861708"><ele>127.0</ele><time>2026-03-28T10:26:23.758Z</time></trkpt><trkpt lat="45.4373171" lon="10.7860565"><ele>128.2</ele><time>2026-03-28T10:26:24.758Z</time></trkpt><trkpt lat="45.4373452" lon="10.7859396"><ele>129.39999999999998</ele><time>2026-03-28T10:26:25.757Z</time></trkpt><trkpt lat="45.4373779" lon="10.7858031"><ele>130.60000000000002</ele><time>2026-03-28T10:26:26.758Z</time></trkpt><trkpt lat="45.4374122" lon="10.7856742"><ele>131.8</ele><time>2026-03-28T10:26:27.757Z</time></trkpt><trkpt lat="45.4374467" lon="10.7855509"><ele>133.0</ele><time>2026-03-28T10:26:28.758Z</time></trkpt><trkpt lat="45.4374751" lon="10.7854328"><ele>133.0</ele><time>2026-03-28T10:26:29.757Z</time></trkpt><trkpt lat="45.4375063" lon="10.7853114"><ele>133.0</ele><time>2026-03-28T10:26:30.758Z</time></trkpt><trkpt lat="45.4375335" lon="10.7851797"><ele>133.0</ele><time>2026-03-28T10:26:31.757Z</time></trkpt><trkpt lat="45.4375568" lon="10.7850572"><ele>133.0</ele><time>2026-03-28T10:26:32.758Z</time></trkpt><trkpt lat="45.437573" lon="10.7849565"><ele>133.0</ele><time>2026-03-28T10:26:33.757Z</time></trkpt><trkpt lat="45.4375849" lon="10.7848449"><ele>133.0</ele><time>2026-03-28T10:26:34.758Z</time></trkpt><trkpt lat="45.4375968" lon="10.7847172"><ele>133.4</ele><time>2026-03-28T10:26:35.757Z</time></trkpt><trkpt lat="45.4376066" lon="10.7845934"><ele>133.8</ele><time>2026-03-28T10:26:36.757Z</time></trkpt><trkpt lat="45.4376159" lon="10.7844597"><ele>134.2</ele><time>2026-03-28T10:26:37.757Z</time></trkpt><trkpt lat="45.4376268" lon="10.7843358"><ele>134.6</ele><time>2026-03-28T10:26:38.757Z</time></trkpt><trkpt lat="45.4376372" lon="10.7841996"><ele>135.0</ele><time>2026-03-28T10:26:39.758Z</time></trkpt><trkpt lat="45.4376458" lon="10.7840724"><ele>135.0</ele><time>2026-03-28T10:26:40.757Z</time></trkpt><trkpt lat="45.437655" lon="10.7839529"><ele>135.0</ele><time>2026-03-28T10:26:41.757Z</time></trkpt><trkpt lat="45.4376635" lon="10.783839"><ele>135.0</ele><time>2026-03-28T10:26:42.758Z</time></trkpt><trkpt lat="45.4376697" lon="10.783731"><ele>135.0</ele><time>2026-03-28T10:26:43.758Z</time></trkpt><trkpt lat="45.4376848" lon="10.7835318"><ele>135.0</ele><time>2026-03-28T10:26:45.757Z</time></trkpt><trkpt lat="45.4376985" lon="10.7833924"><ele>133.75</ele><time>2026-03-28T10:26:46.757Z</time></trkpt><trkpt lat="45.4377218" lon="10.7832264"><ele>132.5</ele><time>2026-03-28T10:26:47.757Z</time></trkpt><trkpt lat="45.4377444" lon="10.7830519"><ele>131.25</ele><time>2026-03-28T10:26:48.758Z</time></trkpt><trkpt lat="45.4377648" lon="10.7828836"><ele>130.0</ele><time>2026-03-28T10:26:49.758Z</time></trkpt><trkpt lat="45.4377807" lon="10.7827161"><ele>128.8</ele><time>2026-03-28T10:26:50.757Z</time></trkpt><trkpt lat="45.437779" lon="10.7825729"><ele>127.6</ele><time>2026-03-28T10:26:51.758Z</time></trkpt><trkpt lat="45.437788" lon="10.7824633"><ele>126.4</ele><time>2026-03-28T10:26:52.758Z</time></trkpt><trkpt lat="45.4378244" lon="10.7823758"><ele>125.2</ele><time>2026-03-28T10:26:53.758Z</time></trkpt><trkpt lat="45.4379426" lon="10.7823095"><ele>124.0</ele><time>2026-03-28T10:26:55.757Z</time></trkpt><trkpt lat="45.4380357" lon="10.7823175"><ele>123.5</ele><time>2026-03-28T10:26:56.758Z</time></trkpt><trkpt lat="45.4381496" lon="10.78233"><ele>123.0</ele><time>2026-03-28T10:26:57.757Z</time></trkpt><trkpt lat="45.4382919" lon="10.782341"><ele>122.5</ele><time>2026-03-28T10:26:58.758Z</time></trkpt><trkpt lat="45.4384597" lon="10.7823588"><ele>122.0</ele><time>2026-03-28T10:26:59.757Z</time></trkpt><trkpt lat="45.4386393" lon="10.7823777"><ele>122.33333333333333</ele><time>2026-03-28T10:27:00.758Z</time></trkpt><trkpt lat="45.438811" lon="10.7823907"><ele>122.66666666666666</ele><time>2026-03-28T10:27:01.757Z</time></trkpt><trkpt lat="45.4389685" lon="10.7824052"><ele>123.0</ele><time>2026-03-28T10:27:02.758Z</time></trkpt><trkpt lat="45.4391128" lon="10.7824204"><ele>123.0</ele><time>2026-03-28T10:27:03.757Z</time></trkpt><trkpt lat="45.4392435" lon="10.7824315"><ele>123.0</ele><time>2026-03-28T10:27:04.758Z</time></trkpt><trkpt lat="45.43936" lon="10.7824423"><ele>123.0</ele><time>2026-03-28T10:27:05.758Z</time></trkpt><trkpt lat="45.4394681" lon="10.7824584"><ele>123.0</ele><time>2026-03-28T10:27:06.758Z</time></trkpt><trkpt lat="45.4395688" lon="10.7824728"><ele>123.2</ele><time>2026-03-28T10:27:07.757Z</time></trkpt><trkpt lat="45.4396511" lon="10.7824832"><ele>123.4</ele><time>2026-03-28T10:27:08.758Z</time></trkpt><trkpt lat="45.4397525" lon="10.7824885"><ele>123.60000000000001</ele><time>2026-03-28T10:27:10.757Z</time></trkpt><trkpt lat="45.4398403" lon="10.7823891"><ele>123.80000000000001</ele><time>2026-03-28T10:27:46.758Z</time></trkpt><trkpt lat="45.4398574" lon="10.7822823"><ele>124.0</ele><time>2026-03-28T10:27:47.757Z</time></trkpt><trkpt lat="45.4398675" lon="10.7821556"><ele>124.0</ele><time>2026-03-28T10:27:48.758Z</time></trkpt><trkpt lat="45.4398828" lon="10.7820189"><ele>124.0</ele><time>2026-03-28T10:27:49.758Z</time></trkpt><trkpt lat="45.439896" lon="10.7818674"><ele>124.0</ele><time>2026-03-28T10:27:50.757Z</time></trkpt><trkpt lat="45.4399057" lon="10.7817156"><ele>124.0</ele><time>2026-03-28T10:27:51.757Z</time></trkpt><trkpt lat="45.4399177" lon="10.7815621"><ele>124.0</ele><time>2026-03-28T10:27:52.757Z</time></trkpt><trkpt lat="45.4399233" lon="10.7814128"><ele>123.66666666666667</ele><time>2026-03-28T10:27:53.758Z</time></trkpt><trkpt lat="45.4399332" lon="10.7812693"><ele>123.33333333333334</ele><time>2026-03-28T10:27:54.757Z</time></trkpt><trkpt lat="45.4399473" lon="10.7811356"><ele>123.0</ele><time>2026-03-28T10:27:55.757Z</time></trkpt><trkpt lat="45.4399672" lon="10.7810151"><ele>122.66666666666666</ele><time>2026-03-28T10:27:56.758Z</time></trkpt><trkpt lat="45.4400071" lon="10.7809185"><ele>122.33333333333333</ele><time>2026-03-28T10:27:57.757Z</time></trkpt><trkpt lat="45.4400676" lon="10.7808571"><ele>122.0</ele><time>2026-03-28T10:27:58.757Z</time></trkpt><trkpt lat="45.4401429" lon="10.7808364"><ele>121.8</ele><time>2026-03-28T10:27:59.757Z</time></trkpt><trkpt lat="45.4402283" lon="10.7808504"><ele>121.6</ele><time>2026-03-28T10:28:00.757Z</time></trkpt><trkpt lat="45.4403212" lon="10.7808866"><ele>121.39999999999999</ele><time>2026-03-28T10:28:01.757Z</time></trkpt><trkpt lat="45.440423" lon="10.7809359"><ele>121.19999999999999</ele><time>2026-03-28T10:28:02.757Z</time></trkpt><trkpt lat="45.4405328" lon="10.780985"><ele>121.0</ele><time>2026-03-28T10:28:03.758Z</time></trkpt><trkpt lat="45.4406485" lon="10.7810459"><ele>120.75</ele><time>2026-03-28T10:28:04.758Z</time></trkpt><trkpt lat="45.440763" lon="10.7811213"><ele>120.5</ele><time>2026-03-28T10:28:05.758Z</time></trkpt><trkpt lat="45.4408694" lon="10.7812024"><ele>120.25</ele><time>2026-03-28T10:28:06.758Z</time></trkpt><trkpt lat="45.4409726" lon="10.7812868"><ele>120.0</ele><time>2026-03-28T10:28:07.758Z</time></trkpt><trkpt lat="45.4410702" lon="10.7813639"><ele>120.0</ele><time>2026-03-28T10:28:08.757Z</time></trkpt><trkpt lat="45.4411587" lon="10.7814344"><ele>120.0</ele><time>2026-03-28T10:28:09.757Z</time></trkpt><trkpt lat="45.4412509" lon="10.781498"><ele>120.0</ele><time>2026-03-28T10:28:10.757Z</time></trkpt><trkpt lat="45.4413546" lon="10.7815709"><ele>120.0</ele><time>2026-03-28T10:28:11.757Z</time></trkpt><trkpt lat="45.4414637" lon="10.781666"><ele>120.0</ele><time>2026-03-28T10:28:12.757Z</time></trkpt><trkpt lat="45.4415797" lon="10.7817638"><ele>119.66666666666666</ele><time>2026-03-28T10:28:13.757Z</time></trkpt><trkpt lat="45.4417159" lon="10.7818547"><ele>119.33333333333333</ele><time>2026-03-28T10:28:14.757Z</time></trkpt><trkpt lat="45.4418582" lon="10.7819327"><ele>119.0</ele><time>2026-03-28T10:28:15.757Z</time></trkpt><trkpt lat="45.4420111" lon="10.7819898"><ele>118.66666666666666</ele><time>2026-03-28T10:28:16.758Z</time></trkpt><trkpt lat="45.4421694" lon="10.7820334"><ele>118.33333333333334</ele><time>2026-03-28T10:28:17.757Z</time></trkpt><trkpt lat="45.4423324" lon="10.7820783"><ele>118.0</ele><time>2026-03-28T10:28:18.758Z</time></trkpt><trkpt lat="45.4424992" lon="10.7821325"><ele>118.0</ele><time>2026-03-28T10:28:19.757Z</time></trkpt><trkpt lat="45.4426683" lon="10.7821975"><ele>118.0</ele><time>2026-03-28T10:28:20.757Z</time></trkpt><trkpt lat="45.4428413" lon="10.7822541"><ele>118.0</ele><time>2026-03-28T10:28:21.758Z</time></trkpt><trkpt lat="45.4430178" lon="10.7822935"><ele>118.33333333333334</ele><time>2026-03-28T10:28:22.758Z</time></trkpt><trkpt lat="45.4431988" lon="10.7823263"><ele>118.66666666666666</ele><time>2026-03-28T10:28:23.757Z</time></trkpt><trkpt lat="45.4433829" lon="10.7823606"><ele>119.0</ele><time>2026-03-28T10:28:24.757Z</time></trkpt><trkpt lat="45.4435689" lon="10.7823972"><ele>119.0</ele><time>2026-03-28T10:28:25.757Z</time></trkpt><trkpt lat="45.4437571" lon="10.7824359"><ele>119.0</ele><time>2026-03-28T10:28:26.757Z</time></trkpt><trkpt lat="45.4439476" lon="10.7824749"><ele>119.0</ele><time>2026-03-28T10:28:27.757Z</time></trkpt><trkpt lat="45.4441425" lon="10.7825083"><ele>119.66666666666666</ele><time>2026-03-28T10:28:28.757Z</time></trkpt><trkpt lat="45.4443391" lon="10.7825403"><ele>120.33333333333334</ele><time>2026-03-28T10:28:29.757Z</time></trkpt><trkpt lat="45.4445298" lon="10.7825752"><ele>121.0</ele><time>2026-03-28T10:28:30.757Z</time></trkpt><trkpt lat="45.4447058" lon="10.7826101"><ele>121.0</ele><time>2026-03-28T10:28:31.757Z</time></trkpt><trkpt lat="45.444871" lon="10.7826459"><ele>121.0</ele><time>2026-03-28T10:28:32.757Z</time></trkpt><trkpt lat="45.4450249" lon="10.7826823"><ele>121.0</ele><time>2026-03-28T10:28:33.758Z</time></trkpt><trkpt lat="45.4451713" lon="10.7827063"><ele>121.0</ele><time>2026-03-28T10:28:34.757Z</time></trkpt><trkpt lat="45.4453268" lon="10.782704"><ele>121.0</ele><time>2026-03-28T10:28:35.757Z</time></trkpt><trkpt lat="45.4454807" lon="10.7826584"><ele>121.0</ele><time>2026-03-28T10:28:36.757Z</time></trkpt><trkpt lat="45.4456332" lon="10.7825808"><ele>120.33333333333334</ele><time>2026-03-28T10:28:37.758Z</time></trkpt><trkpt lat="45.4457919" lon="10.7824945"><ele>119.66666666666666</ele><time>2026-03-28T10:28:38.757Z</time></trkpt><trkpt lat="45.4459454" lon="10.7824105"><ele>119.0</ele><time>2026-03-28T10:28:39.757Z</time></trkpt><trkpt lat="45.446089" lon="10.782344"><ele>119.0</ele><time>2026-03-28T10:28:40.757Z</time></trkpt><trkpt lat="45.4462312" lon="10.7822814"><ele>119.0</ele><time>2026-03-28T10:28:41.758Z</time></trkpt><trkpt lat="45.4463724" lon="10.7822157"><ele>119.0</ele><time>2026-03-28T10:28:42.758Z</time></trkpt><trkpt lat="45.4465135" lon="10.7821467"><ele>119.0</ele><time>2026-03-28T10:28:43.757Z</time></trkpt><trkpt lat="45.4466423" lon="10.7820683"><ele>118.75</ele><time>2026-03-28T10:28:44.757Z</time></trkpt><trkpt lat="45.4467619" lon="10.7819763"><ele>118.5</ele><time>2026-03-28T10:28:45.757Z</time></trkpt><trkpt lat="45.4468766" lon="10.7818593"><ele>118.25</ele><time>2026-03-28T10:28:46.758Z</time></trkpt><trkpt lat="45.446985" lon="10.781718"><ele>118.0</ele><time>2026-03-28T10:28:47.757Z</time></trkpt><trkpt lat="45.447091" lon="10.7815626"><ele>116.33333333333334</ele><time>2026-03-28T10:28:48.758Z</time></trkpt><trkpt lat="45.447199" lon="10.781406"><ele>114.66666666666666</ele><time>2026-03-28T10:28:49.757Z</time></trkpt><trkpt lat="45.4473099" lon="10.7812517"><ele>113.0</ele><time>2026-03-28T10:28:50.757Z</time></trkpt><trkpt lat="45.4474285" lon="10.7811128"><ele>113.0</ele><time>2026-03-28T10:28:51.758Z</time></trkpt><trkpt lat="45.4475623" lon="10.7809998"><ele>113.0</ele><time>2026-03-28T10:28:52.757Z</time></trkpt><trkpt lat="45.447709" lon="10.7809137"><ele>113.0</ele><time>2026-03-28T10:28:53.757Z</time></trkpt><trkpt lat="45.4478587" lon="10.7808416"><ele>113.75</ele><time>2026-03-28T10:28:54.758Z</time></trkpt><trkpt lat="45.4479921" lon="10.7807751"><ele>114.5</ele><time>2026-03-28T10:28:55.757Z</time></trkpt><trkpt lat="45.4481193" lon="10.7807144"><ele>115.25</ele><time>2026-03-28T10:28:56.757Z</time></trkpt><trkpt lat="45.4482419" lon="10.7806619"><ele>116.0</ele><time>2026-03-28T10:28:57.757Z</time></trkpt><trkpt lat="45.4483634" lon="10.7806068"><ele>116.0</ele><time>2026-03-28T10:28:58.758Z</time></trkpt><trkpt lat="45.4484871" lon="10.7805447"><ele>116.0</ele><time>2026-03-28T10:28:59.757Z</time></trkpt><trkpt lat="45.4486043" lon="10.7804703"><ele>116.0</ele><time>2026-03-28T10:29:00.758Z</time></trkpt><trkpt lat="45.4487123" lon="10.7803694"><ele>116.0</ele><time>2026-03-28T10:29:01.758Z</time></trkpt><trkpt lat="45.4488164" lon="10.7802496"><ele>116.4</ele><time>2026-03-28T10:29:02.757Z</time></trkpt><trkpt lat="45.4489025" lon="10.7801304"><ele>116.8</ele><time>2026-03-28T10:29:03.757Z</time></trkpt><trkpt lat="45.4489777" lon="10.7800231"><ele>117.20000000000002</ele><time>2026-03-28T10:29:04.757Z</time></trkpt><trkpt lat="45.4490317" lon="10.7799212"><ele>117.60000000000001</ele><time>2026-03-28T10:29:05.758Z</time></trkpt><trkpt lat="45.4490492" lon="10.7798329"><ele>118.0</ele><time>2026-03-28T10:29:06.757Z</time></trkpt><trkpt lat="45.4490132" lon="10.7796913"><ele>118.0</ele><time>2026-03-28T10:29:08.758Z</time></trkpt><trkpt lat="45.448954" lon="10.7796093"><ele>118.0</ele><time>2026-03-28T10:29:09.757Z</time></trkpt><trkpt lat="45.4488674" lon="10.7795222"><ele>118.0</ele><time>2026-03-28T10:29:10.757Z</time></trkpt><trkpt lat="45.4487717" lon="10.7794201"><ele>118.0</ele><time>2026-03-28T10:29:11.758Z</time></trkpt><trkpt lat="45.4486552" lon="10.7792885"><ele>117.66666666666667</ele><time>2026-03-28T10:29:12.757Z</time></trkpt><trkpt lat="45.448519" lon="10.7791361"><ele>117.33333333333334</ele><time>2026-03-28T10:29:13.758Z</time></trkpt><trkpt lat="45.4483755" lon="10.7789614"><ele>117.0</ele><time>2026-03-28T10:29:14.758Z</time></trkpt><trkpt lat="45.4482251" lon="10.7787698"><ele>117.0</ele><time>2026-03-28T10:29:15.758Z</time></trkpt><trkpt lat="45.4480703" lon="10.7785681"><ele>117.0</ele><time>2026-03-28T10:29:16.758Z</time></trkpt><trkpt lat="45.4479177" lon="10.7783647"><ele>117.0</ele><time>2026-03-28T10:29:17.757Z</time></trkpt><trkpt lat="45.4477648" lon="10.7781672"><ele>116.66666666666666</ele><time>2026-03-28T10:29:18.758Z</time></trkpt><trkpt lat="45.4476113" lon="10.7779751"><ele>116.33333333333333</ele><time>2026-03-28T10:29:19.757Z</time></trkpt><trkpt lat="45.4474577" lon="10.7777755"><ele>116.0</ele><time>2026-03-28T10:29:20.757Z</time></trkpt><trkpt lat="45.4473043" lon="10.7775702"><ele>116.0</ele><time>2026-03-28T10:29:21.758Z</time></trkpt><trkpt lat="45.4471484" lon="10.7773685"><ele>116.0</ele><time>2026-03-28T10:29:22.758Z</time></trkpt><trkpt lat="45.4470007" lon="10.7771771"><ele>116.0</ele><time>2026-03-28T10:29:23.757Z</time></trkpt><trkpt lat="45.4468555" lon="10.7769862"><ele>116.0</ele><time>2026-03-28T10:29:24.757Z</time></trkpt><trkpt lat="45.446726" lon="10.7768092"><ele>116.0</ele><time>2026-03-28T10:29:25.757Z</time></trkpt><trkpt lat="45.4466021" lon="10.7766262"><ele>116.0</ele><time>2026-03-28T10:29:26.758Z</time></trkpt><trkpt lat="45.4464893" lon="10.7764396"><ele>116.0</ele><time>2026-03-28T10:29:27.757Z</time></trkpt><trkpt lat="45.4463883" lon="10.7762542"><ele>116.0</ele><time>2026-03-28T10:29:28.757Z</time></trkpt><trkpt lat="45.4463015" lon="10.7760784"><ele>116.0</ele><time>2026-03-28T10:29:29.757Z</time></trkpt><trkpt lat="45.4462247" lon="10.7758932"><ele>114.66666666666666</ele><time>2026-03-28T10:29:30.757Z</time></trkpt><trkpt lat="45.4461614" lon="10.7757036"><ele>113.33333333333334</ele><time>2026-03-28T10:29:31.758Z</time></trkpt><trkpt lat="45.4461031" lon="10.7754995"><ele>112.0</ele><time>2026-03-28T10:29:32.758Z</time></trkpt><trkpt lat="45.4460366" lon="10.7752737"><ele>112.66666666666667</ele><time>2026-03-28T10:29:33.757Z</time></trkpt><trkpt lat="45.4459588" lon="10.7750247"><ele>113.33333333333334</ele><time>2026-03-28T10:29:34.758Z</time></trkpt><trkpt lat="45.4458859" lon="10.7747712"><ele>114.0</ele><time>2026-03-28T10:29:35.758Z</time></trkpt><trkpt lat="45.4458234" lon="10.7745283"><ele>113.66666666666666</ele><time>2026-03-28T10:29:36.757Z</time></trkpt><trkpt lat="45.4457702" lon="10.7742865"><ele>113.33333333333333</ele><time>2026-03-28T10:29:37.757Z</time></trkpt><trkpt lat="45.4457244" lon="10.7740679"><ele>113.0</ele><time>2026-03-28T10:29:38.758Z</time></trkpt><trkpt lat="45.4456735" lon="10.7738586"><ele>113.0</ele><time>2026-03-28T10:29:39.757Z</time></trkpt><trkpt lat="45.445613" lon="10.7736486"><ele>113.0</ele><time>2026-03-28T10:29:40.757Z</time></trkpt><trkpt lat="45.4455446" lon="10.7734299"><ele>113.0</ele><time>2026-03-28T10:29:41.757Z</time></trkpt><trkpt lat="45.4454768" lon="10.7732226"><ele>112.66666666666666</ele><time>2026-03-28T10:29:42.757Z</time></trkpt><trkpt lat="45.4454076" lon="10.7730303"><ele>112.33333333333334</ele><time>2026-03-28T10:29:43.758Z</time></trkpt><trkpt lat="45.4453272" lon="10.7728337"><ele>112.0</ele><time>2026-03-28T10:29:44.758Z</time></trkpt><trkpt lat="45.4452351" lon="10.7726519"><ele>111.75</ele><time>2026-03-28T10:29:45.757Z</time></trkpt><trkpt lat="45.445147" lon="10.7724933"><ele>111.5</ele><time>2026-03-28T10:29:46.757Z</time></trkpt><trkpt lat="45.4450772" lon="10.7723426"><ele>111.25</ele><time>2026-03-28T10:29:47.758Z</time></trkpt><trkpt lat="45.4450252" lon="10.7721893"><ele>111.0</ele><time>2026-03-28T10:29:48.758Z</time></trkpt><trkpt lat="45.4449976" lon="10.7720393"><ele>111.0</ele><time>2026-03-28T10:29:49.757Z</time></trkpt><trkpt lat="45.4449822" lon="10.7718737"><ele>111.0</ele><time>2026-03-28T10:29:50.757Z</time></trkpt><trkpt lat="45.4449696" lon="10.7716839"><ele>111.0</ele><time>2026-03-28T10:29:51.758Z</time></trkpt><trkpt lat="45.444958" lon="10.7714694"><ele>111.0</ele><time>2026-03-28T10:29:52.757Z</time></trkpt><trkpt lat="45.4449451" lon="10.7712368"><ele>113.33333333333334</ele><time>2026-03-28T10:29:53.757Z</time></trkpt><trkpt lat="45.444929" lon="10.7710061"><ele>115.66666666666667</ele><time>2026-03-28T10:29:54.758Z</time></trkpt><trkpt lat="45.4449126" lon="10.7707857"><ele>118.0</ele><time>2026-03-28T10:29:55.758Z</time></trkpt><trkpt lat="45.4448942" lon="10.7705877"><ele>118.0</ele><time>2026-03-28T10:29:56.757Z</time></trkpt><trkpt lat="45.4448731" lon="10.7703856"><ele>118.0</ele><time>2026-03-28T10:29:57.758Z</time></trkpt><trkpt lat="45.444846" lon="10.7702019"><ele>118.0</ele><time>2026-03-28T10:29:58.757Z</time></trkpt><trkpt lat="45.4448011" lon="10.7700291"><ele>118.0</ele><time>2026-03-28T10:29:59.757Z</time></trkpt><trkpt lat="45.4447419" lon="10.7698797"><ele>118.75</ele><time>2026-03-28T10:30:00.758Z</time></trkpt><trkpt lat="45.4446786" lon="10.7697557"><ele>119.5</ele><time>2026-03-28T10:30:01.758Z</time></trkpt><trkpt lat="45.4446166" lon="10.7696077"><ele>120.25</ele><time>2026-03-28T10:30:02.757Z</time></trkpt><trkpt lat="45.4445565" lon="10.7694515"><ele>121.0</ele><time>2026-03-28T10:30:03.757Z</time></trkpt><trkpt lat="45.4444977" lon="10.7693127"><ele>121.0</ele><time>2026-03-28T10:30:04.758Z</time></trkpt><trkpt lat="45.4444472" lon="10.7691616"><ele>121.0</ele><time>2026-03-28T10:30:05.758Z</time></trkpt><trkpt lat="45.4443819" lon="10.7690175"><ele>121.0</ele><time>2026-03-28T10:30:06.757Z</time></trkpt><trkpt lat="45.4443111" lon="10.7688903"><ele>121.0</ele><time>2026-03-28T10:30:07.758Z</time></trkpt><trkpt lat="45.4442365" lon="10.7687739"><ele>121.0</ele><time>2026-03-28T10:30:08.757Z</time></trkpt><trkpt lat="45.4441571" lon="10.7686766"><ele>121.0</ele><time>2026-03-28T10:30:09.757Z</time></trkpt><trkpt lat="45.444079" lon="10.768594"><ele>121.0</ele><time>2026-03-28T10:30:10.758Z</time></trkpt><trkpt lat="45.4440013" lon="10.7685193"><ele>121.0</ele><time>2026-03-28T10:30:11.758Z</time></trkpt><trkpt lat="45.4439338" lon="10.7684495"><ele>121.0</ele><time>2026-03-28T10:30:12.758Z</time></trkpt><trkpt lat="45.4438758" lon="10.7683162"><ele>120.0</ele><time>2026-03-28T10:30:14.758Z</time></trkpt><trkpt lat="45.4438998" lon="10.7682287"><ele>119.0</ele><time>2026-03-28T10:30:16.757Z</time></trkpt><trkpt lat="45.4439973" lon="10.7681815"><ele>118.0</ele><time>2026-03-28T10:30:18.757Z</time></trkpt><trkpt lat="45.4440925" lon="10.7681704"><ele>117.0</ele><time>2026-03-28T10:30:19.757Z</time></trkpt><trkpt lat="45.4441971" lon="10.7681574"><ele>116.0</ele><time>2026-03-28T10:30:20.758Z</time></trkpt><trkpt lat="45.4443267" lon="10.768144"><ele>116.0</ele><time>2026-03-28T10:30:21.758Z</time></trkpt><trkpt lat="45.4444763" lon="10.7681315"><ele>116.0</ele><time>2026-03-28T10:30:22.757Z</time></trkpt><trkpt lat="45.4446358" lon="10.7681148"><ele>116.0</ele><time>2026-03-28T10:30:23.757Z</time></trkpt><trkpt lat="45.4448056" lon="10.7680982"><ele>116.0</ele><time>2026-03-28T10:30:24.758Z</time></trkpt><trkpt lat="45.4449852" lon="10.7680769"><ele>116.0</ele><time>2026-03-28T10:30:25.757Z</time></trkpt><trkpt lat="45.4451711" lon="10.7680546"><ele>116.0</ele><time>2026-03-28T10:30:26.758Z</time></trkpt><trkpt lat="45.4453636" lon="10.7680357"><ele>115.33333333333333</ele><time>2026-03-28T10:30:27.757Z</time></trkpt><trkpt lat="45.4455603" lon="10.7680219"><ele>114.66666666666666</ele><time>2026-03-28T10:30:28.758Z</time></trkpt><trkpt lat="45.4457624" lon="10.768016"><ele>114.0</ele><time>2026-03-28T10:30:29.758Z</time></trkpt><trkpt lat="45.4459756" lon="10.7680319"><ele>114.0</ele><time>2026-03-28T10:30:30.757Z</time></trkpt><trkpt lat="45.4462006" lon="10.7680804"><ele>114.0</ele><time>2026-03-28T10:30:31.758Z</time></trkpt><trkpt lat="45.4464375" lon="10.7681586"><ele>113.0</ele><time>2026-03-28T10:30:32.758Z</time></trkpt><trkpt lat="45.4466759" lon="10.7682562"><ele>112.0</ele><time>2026-03-28T10:30:33.758Z</time></trkpt><trkpt lat="45.4469132" lon="10.768375"><ele>113.0</ele><time>2026-03-28T10:30:34.758Z</time></trkpt><trkpt lat="45.4471421" lon="10.7685076"><ele>114.0</ele><time>2026-03-28T10:30:35.757Z</time></trkpt><trkpt lat="45.4473639" lon="10.7686471"><ele>114.33333333333334</ele><time>2026-03-28T10:30:36.758Z</time></trkpt><trkpt lat="45.4475754" lon="10.7687828"><ele>114.66666666666667</ele><time>2026-03-28T10:30:37.757Z</time></trkpt><trkpt lat="45.4477719" lon="10.7689122"><ele>115.0</ele><time>2026-03-28T10:30:38.757Z</time></trkpt><trkpt lat="45.4479597" lon="10.7690402"><ele>114.66666666666667</ele><time>2026-03-28T10:30:39.758Z</time></trkpt><trkpt lat="45.4481381" lon="10.769175"><ele>114.33333333333334</ele><time>2026-03-28T10:30:40.757Z</time></trkpt><trkpt lat="45.4483046" lon="10.7693161"><ele>114.0</ele><time>2026-03-28T10:30:41.757Z</time></trkpt><trkpt lat="45.4484591" lon="10.7694624"><ele>113.66666666666666</ele><time>2026-03-28T10:30:42.757Z</time></trkpt><trkpt lat="45.448596" lon="10.7696044"><ele>113.33333333333333</ele><time>2026-03-28T10:30:43.758Z</time></trkpt><trkpt lat="45.4487185" lon="10.7697408"><ele>113.0</ele><time>2026-03-28T10:30:44.757Z</time></trkpt><trkpt lat="45.4488287" lon="10.7698715"><ele>113.33333333333333</ele><time>2026-03-28T10:30:45.757Z</time></trkpt><trkpt lat="45.4489166" lon="10.7699839"><ele>113.66666666666666</ele><time>2026-03-28T10:30:46.757Z</time></trkpt><trkpt lat="45.4489807" lon="10.7700737"><ele>114.0</ele><time>2026-03-28T10:30:47.758Z</time></trkpt><trkpt lat="45.4490283" lon="10.7701423"><ele>114.33333333333334</ele><time>2026-03-28T10:30:48.757Z</time></trkpt><trkpt lat="45.4490745" lon="10.7702125"><ele>114.66666666666667</ele><time>2026-03-28T10:30:49.758Z</time></trkpt><trkpt lat="45.4491231" lon="10.770288"><ele>115.0</ele><time>2026-03-28T10:30:50.758Z</time></trkpt><trkpt lat="45.4491861" lon="10.7703887"><ele>115.0</ele><time>2026-03-28T10:30:52.758Z</time></trkpt><trkpt lat="45.449246" lon="10.77042"><ele>115.0</ele><time>2026-03-28T10:30:59.757Z</time></trkpt><trkpt lat="45.4493157" lon="10.7704184"><ele>115.0</ele><time>2026-03-28T10:31:00.757Z</time></trkpt><trkpt lat="45.4494045" lon="10.7704089"><ele>115.0</ele><time>2026-03-28T10:31:01.756Z</time></trkpt><trkpt lat="45.4495308" lon="10.7704217"><ele>115.0</ele><time>2026-03-28T10:31:02.756Z</time></trkpt><trkpt lat="45.4496776" lon="10.7704358"><ele>115.0</ele><time>2026-03-28T10:31:03.756Z</time></trkpt><trkpt lat="45.4498405" lon="10.7704489"><ele>115.0</ele><time>2026-03-28T10:31:04.756Z</time></trkpt><trkpt lat="45.450013" lon="10.7704751"><ele>115.0</ele><time>2026-03-28T10:31:05.757Z</time></trkpt><trkpt lat="45.4501775" lon="10.7705024"><ele>115.0</ele><time>2026-03-28T10:31:06.756Z</time></trkpt><trkpt lat="45.4503381" lon="10.7705248"><ele>115.0</ele><time>2026-03-28T10:31:07.756Z</time></trkpt><trkpt lat="45.4504965" lon="10.770547"><ele>115.0</ele><time>2026-03-28T10:31:08.756Z</time></trkpt><trkpt lat="45.4506565" lon="10.7705699"><ele>115.33333333333334</ele><time>2026-03-28T10:31:09.757Z</time></trkpt><trkpt lat="45.4508174" lon="10.7705935"><ele>115.66666666666666</ele><time>2026-03-28T10:31:10.756Z</time></trkpt><trkpt lat="45.4509596" lon="10.7706148"><ele>116.0</ele><time>2026-03-28T10:31:11.756Z</time></trkpt><trkpt lat="45.4511088" lon="10.7706415"><ele>116.0</ele><time>2026-03-28T10:31:12.757Z</time></trkpt><trkpt lat="45.4512614" lon="10.7706696"><ele>116.0</ele><time>2026-03-28T10:31:13.757Z</time></trkpt><trkpt lat="45.4514152" lon="10.770694"><ele>116.0</ele><time>2026-03-28T10:31:14.756Z</time></trkpt><trkpt lat="45.451573" lon="10.7707209"><ele>116.33333333333333</ele><time>2026-03-28T10:31:15.756Z</time></trkpt><trkpt lat="45.4517374" lon="10.7707542"><ele>116.66666666666666</ele><time>2026-03-28T10:31:16.756Z</time></trkpt><trkpt lat="45.4519047" lon="10.7707844"><ele>117.0</ele><time>2026-03-28T10:31:17.757Z</time></trkpt><trkpt lat="45.4520747" lon="10.7708121"><ele>117.66666666666666</ele><time>2026-03-28T10:31:18.757Z</time></trkpt><trkpt lat="45.4522469" lon="10.7708361"><ele>118.33333333333333</ele><time>2026-03-28T10:31:19.756Z</time></trkpt><trkpt lat="45.452405" lon="10.7708615"><ele>119.0</ele><time>2026-03-28T10:31:20.757Z</time></trkpt><trkpt lat="45.4525575" lon="10.7708879"><ele>119.0</ele><time>2026-03-28T10:31:21.756Z</time></trkpt><trkpt lat="45.4527061" lon="10.770913"><ele>119.0</ele><time>2026-03-28T10:31:22.757Z</time></trkpt><trkpt lat="45.4528411" lon="10.7709328"><ele>119.0</ele><time>2026-03-28T10:31:23.756Z</time></trkpt><trkpt lat="45.4529844" lon="10.7709567"><ele>119.0</ele><time>2026-03-28T10:31:24.756Z</time></trkpt><trkpt lat="45.4531247" lon="10.7709891"><ele>118.66666666666666</ele><time>2026-03-28T10:31:25.756Z</time></trkpt><trkpt lat="45.4532646" lon="10.7710186"><ele>118.33333333333334</ele><time>2026-03-28T10:31:26.757Z</time></trkpt><trkpt lat="45.453415" lon="10.7710456"><ele>118.0</ele><time>2026-03-28T10:31:27.756Z</time></trkpt><trkpt lat="45.453577" lon="10.771072"><ele>118.0</ele><time>2026-03-28T10:31:28.757Z</time></trkpt><trkpt lat="45.4537488" lon="10.7710982"><ele>118.0</ele><time>2026-03-28T10:31:29.756Z</time></trkpt><trkpt lat="45.4539144" lon="10.7711286"><ele>118.0</ele><time>2026-03-28T10:31:30.757Z</time></trkpt><trkpt lat="45.4540914" lon="10.7711592"><ele>117.75</ele><time>2026-03-28T10:31:31.757Z</time></trkpt><trkpt lat="45.454252" lon="10.7711851"><ele>117.5</ele><time>2026-03-28T10:31:32.756Z</time></trkpt><trkpt lat="45.4544004" lon="10.7712079"><ele>117.25</ele><time>2026-03-28T10:31:33.757Z</time></trkpt><trkpt lat="45.4545339" lon="10.771232"><ele>117.0</ele><time>2026-03-28T10:31:34.757Z</time></trkpt><trkpt lat="45.4546547" lon="10.7712528"><ele>117.5</ele><time>2026-03-28T10:31:35.756Z</time></trkpt><trkpt lat="45.4547609" lon="10.7712685"><ele>118.0</ele><time>2026-03-28T10:31:36.757Z</time></trkpt><trkpt lat="45.454851" lon="10.7712776"><ele>118.5</ele><time>2026-03-28T10:31:37.757Z</time></trkpt><trkpt lat="45.4549231" lon="10.7712816"><ele>119.0</ele><time>2026-03-28T10:31:38.757Z</time></trkpt><trkpt lat="45.455009" lon="10.7713003"><ele>119.5</ele><time>2026-03-28T10:31:40.757Z</time></trkpt><trkpt lat="45.4550412" lon="10.7713836"><ele>120.0</ele><time>2026-03-28T10:31:42.757Z</time></trkpt><trkpt lat="45.4550453" lon="10.7714735"><ele>120.0</ele><time>2026-03-28T10:31:43.756Z</time></trkpt><trkpt lat="45.4550367" lon="10.7715751"><ele>120.0</ele><time>2026-03-28T10:31:44.756Z</time></trkpt><trkpt lat="45.4550929" lon="10.7716882"><ele>120.0</ele><time>2026-03-28T10:31:46.756Z</time></trkpt><trkpt lat="45.4552326" lon="10.7717354"><ele>120.0</ele><time>2026-03-28T10:31:48.757Z</time></trkpt><trkpt lat="45.4553562" lon="10.771761"><ele>120.0</ele><time>2026-03-28T10:31:49.757Z</time></trkpt><trkpt lat="45.4555031" lon="10.7717917"><ele>120.0</ele><time>2026-03-28T10:31:50.756Z</time></trkpt><trkpt lat="45.4556571" lon="10.7718209"><ele>120.0</ele><time>2026-03-28T10:31:51.757Z</time></trkpt><trkpt lat="45.4558115" lon="10.7718573"><ele>120.0</ele><time>2026-03-28T10:31:52.757Z</time></trkpt><trkpt lat="45.4559537" lon="10.7718947"><ele>120.25</ele><time>2026-03-28T10:31:53.757Z</time></trkpt><trkpt lat="45.4561024" lon="10.7719288"><ele>120.5</ele><time>2026-03-28T10:31:54.756Z</time></trkpt><trkpt lat="45.4562451" lon="10.7719632"><ele>120.75</ele><time>2026-03-28T10:31:55.757Z</time></trkpt><trkpt lat="45.456387" lon="10.7719999"><ele>121.0</ele><time>2026-03-28T10:31:56.757Z</time></trkpt><trkpt lat="45.4565456" lon="10.7720339"><ele>121.0</ele><time>2026-03-28T10:31:57.756Z</time></trkpt><trkpt lat="45.4567074" lon="10.7720603"><ele>121.0</ele><time>2026-03-28T10:31:58.757Z</time></trkpt><trkpt lat="45.4568754" lon="10.7720795"><ele>121.0</ele><time>2026-03-28T10:31:59.756Z</time></trkpt><trkpt lat="45.4570537" lon="10.7720935"><ele>121.0</ele><time>2026-03-28T10:32:00.757Z</time></trkpt><trkpt lat="45.4572228" lon="10.7721013"><ele>121.0</ele><time>2026-03-28T10:32:01.756Z</time></trkpt><trkpt lat="45.4573802" lon="10.7721012"><ele>121.0</ele><time>2026-03-28T10:32:02.757Z</time></trkpt><trkpt lat="45.4575246" lon="10.7720992"><ele>121.0</ele><time>2026-03-28T10:32:03.756Z</time></trkpt><trkpt lat="45.4576636" lon="10.7720961"><ele>121.0</ele><time>2026-03-28T10:32:04.756Z</time></trkpt><trkpt lat="45.4578209" lon="10.7720924"><ele>121.0</ele><time>2026-03-28T10:32:05.757Z</time></trkpt><trkpt lat="45.4579909" lon="10.7720903"><ele>121.0</ele><time>2026-03-28T10:32:06.757Z</time></trkpt><trkpt lat="45.4581444" lon="10.7720925"><ele>121.0</ele><time>2026-03-28T10:32:07.756Z</time></trkpt><trkpt lat="45.4582965" lon="10.7720821"><ele>121.0</ele><time>2026-03-28T10:32:08.757Z</time></trkpt><trkpt lat="45.4584687" lon="10.7720648"><ele>121.0</ele><time>2026-03-28T10:32:09.757Z</time></trkpt><trkpt lat="45.458644" lon="10.7720425"><ele>121.0</ele><time>2026-03-28T10:32:10.756Z</time></trkpt><trkpt lat="45.4588062" lon="10.7720179"><ele>121.0</ele><time>2026-03-28T10:32:11.756Z</time></trkpt><trkpt lat="45.4589646" lon="10.7719956"><ele>121.0</ele><time>2026-03-28T10:32:12.757Z</time></trkpt><trkpt lat="45.4591115" lon="10.7719701"><ele>121.0</ele><time>2026-03-28T10:32:13.757Z</time></trkpt><trkpt lat="45.4592481" lon="10.7719474"><ele>121.0</ele><time>2026-03-28T10:32:14.756Z</time></trkpt><trkpt lat="45.4593894" lon="10.771934"><ele>121.0</ele><time>2026-03-28T10:32:15.756Z</time></trkpt><trkpt lat="45.4595364" lon="10.7719298"><ele>121.25</ele><time>2026-03-28T10:32:16.757Z</time></trkpt><trkpt lat="45.4596818" lon="10.7719454"><ele>121.5</ele><time>2026-03-28T10:32:17.757Z</time></trkpt><trkpt lat="45.4598259" lon="10.7719533"><ele>121.75</ele><time>2026-03-28T10:32:18.757Z</time></trkpt><trkpt lat="45.4599708" lon="10.7719552"><ele>122.0</ele><time>2026-03-28T10:32:19.757Z</time></trkpt><trkpt lat="45.4601161" lon="10.7719564"><ele>122.0</ele><time>2026-03-28T10:32:20.756Z</time></trkpt><trkpt lat="45.4602605" lon="10.7719559"><ele>122.0</ele><time>2026-03-28T10:32:21.757Z</time></trkpt><trkpt lat="45.4604165" lon="10.7719581"><ele>122.0</ele><time>2026-03-28T10:32:22.756Z</time></trkpt><trkpt lat="45.4605674" lon="10.7719617"><ele>122.25</ele><time>2026-03-28T10:32:23.757Z</time></trkpt><trkpt lat="45.460709" lon="10.7719632"><ele>122.5</ele><time>2026-03-28T10:32:24.756Z</time></trkpt><trkpt lat="45.4608409" lon="10.7719638"><ele>122.75</ele><time>2026-03-28T10:32:25.757Z</time></trkpt><trkpt lat="45.4609568" lon="10.7719671"><ele>123.0</ele><time>2026-03-28T10:32:26.756Z</time></trkpt><trkpt lat="45.4610554" lon="10.7719715"><ele>123.0</ele><time>2026-03-28T10:32:27.757Z</time></trkpt><trkpt lat="45.4611292" lon="10.7719773"><ele>123.0</ele><time>2026-03-28T10:32:28.756Z</time></trkpt><trkpt lat="45.4612087" lon="10.7719988"><ele>123.0</ele><time>2026-03-28T10:32:30.756Z</time></trkpt><trkpt lat="45.4612504" lon="10.7721489"><ele>123.0</ele><time>2026-03-28T10:32:37.756Z</time></trkpt><trkpt lat="45.461249" lon="10.7722667"><ele>123.0</ele><time>2026-03-28T10:32:38.757Z</time></trkpt><trkpt lat="45.4612518" lon="10.7723792"><ele>123.0</ele><time>2026-03-28T10:32:39.757Z</time></trkpt><trkpt lat="45.4612673" lon="10.7725218"><ele>123.4</ele><time>2026-03-28T10:32:41.757Z</time></trkpt><trkpt lat="45.4613476" lon="10.7725794"><ele>123.80000000000001</ele><time>2026-03-28T10:32:43.757Z</time></trkpt><trkpt lat="45.4614237" lon="10.7725745"><ele>124.2</ele><time>2026-03-28T10:32:44.756Z</time></trkpt><trkpt lat="45.461519" lon="10.7725815"><ele>124.6</ele><time>2026-03-28T10:32:45.756Z</time></trkpt><trkpt lat="45.4616447" lon="10.7725903"><ele>125.0</ele><time>2026-03-28T10:32:46.756Z</time></trkpt><trkpt lat="45.4617899" lon="10.7725903"><ele>125.0</ele><time>2026-03-28T10:32:47.757Z</time></trkpt><trkpt lat="45.4619413" lon="10.7725758"><ele>125.0</ele><time>2026-03-28T10:32:48.756Z</time></trkpt><trkpt lat="45.4620967" lon="10.7725503"><ele>125.0</ele><time>2026-03-28T10:32:49.757Z</time></trkpt><trkpt lat="45.4622543" lon="10.772518"><ele>125.66666666666666</ele><time>2026-03-28T10:32:50.756Z</time></trkpt><trkpt lat="45.4624102" lon="10.7724818"><ele>126.33333333333334</ele><time>2026-03-28T10:32:51.757Z</time></trkpt><trkpt lat="45.4625648" lon="10.7724411"><ele>127.0</ele><time>2026-03-28T10:32:52.756Z</time></trkpt><trkpt lat="45.4627163" lon="10.7723951"><ele>127.0</ele><time>2026-03-28T10:32:53.757Z</time></trkpt><trkpt lat="45.4628645" lon="10.772365"><ele>127.0</ele><time>2026-03-28T10:32:54.756Z</time></trkpt><trkpt lat="45.4630135" lon="10.7723735"><ele>127.0</ele><time>2026-03-28T10:32:55.757Z</time></trkpt><trkpt lat="45.463181" lon="10.7724118"><ele>128.33333333333334</ele><time>2026-03-28T10:32:56.756Z</time></trkpt><trkpt lat="45.4633552" lon="10.7724423"><ele>129.66666666666666</ele><time>2026-03-28T10:32:57.757Z</time></trkpt><trkpt lat="45.4635157" lon="10.7724657"><ele>131.0</ele><time>2026-03-28T10:32:58.757Z</time></trkpt><trkpt lat="45.4636694" lon="10.7725235"><ele>131.75</ele><time>2026-03-28T10:32:59.756Z</time></trkpt><trkpt lat="45.4638164" lon="10.7726071"><ele>132.5</ele><time>2026-03-28T10:33:00.758Z</time></trkpt><trkpt lat="45.4639486" lon="10.7726879"><ele>133.25</ele><time>2026-03-28T10:33:01.756Z</time></trkpt><trkpt lat="45.4640553" lon="10.7727674"><ele>134.0</ele><time>2026-03-28T10:33:02.757Z</time></trkpt><trkpt lat="45.4641383" lon="10.7728403"><ele>134.6</ele><time>2026-03-28T10:33:03.757Z</time></trkpt><trkpt lat="45.4641988" lon="10.7729074"><ele>135.2</ele><time>2026-03-28T10:33:04.757Z</time></trkpt><trkpt lat="45.4642774" lon="10.773032"><ele>135.79999999999998</ele><time>2026-03-28T10:33:06.757Z</time></trkpt><trkpt lat="45.4643382" lon="10.7731372"><ele>136.4</ele><time>2026-03-28T10:33:08.756Z</time></trkpt><trkpt lat="45.4644079" lon="10.7731894"><ele>137.0</ele><time>2026-03-28T10:33:10.756Z</time></trkpt><trkpt lat="45.4642905" lon="10.7732385"><ele>137.0</ele><time>2026-03-28T10:33:23.756Z</time></trkpt><trkpt lat="45.4642368" lon="10.7733427"><ele>137.0</ele><time>2026-03-28T10:33:24.757Z</time></trkpt><trkpt lat="45.4641784" lon="10.773474"><ele>137.0</ele><time>2026-03-28T10:33:25.756Z</time></trkpt><trkpt lat="45.4641153" lon="10.7736229"><ele>137.0</ele><time>2026-03-28T10:33:26.756Z</time></trkpt><trkpt lat="45.4640365" lon="10.7737993"><ele>137.79999999999998</ele><time>2026-03-28T10:33:27.756Z</time></trkpt><trkpt lat="45.4639617" lon="10.773957"><ele>138.6</ele><time>2026-03-28T10:33:28.756Z</time></trkpt><trkpt lat="45.4638966" lon="10.7740999"><ele>139.39999999999998</ele><time>2026-03-28T10:33:29.756Z</time></trkpt><trkpt lat="45.4638524" lon="10.7742155"><ele>140.2</ele><time>2026-03-28T10:33:30.758Z</time></trkpt><trkpt lat="45.4638327" lon="10.7743104"><ele>141.0</ele><time>2026-03-28T10:33:31.756Z</time></trkpt><trkpt lat="45.4638607" lon="10.7744615"><ele>141.2</ele><time>2026-03-28T10:33:33.756Z</time></trkpt><trkpt lat="45.4639013" lon="10.7745317"><ele>141.39999999999998</ele><time>2026-03-28T10:33:34.756Z</time></trkpt><trkpt lat="45.463961" lon="10.7745947"><ele>141.6</ele><time>2026-03-28T10:33:35.756Z</time></trkpt><trkpt lat="45.4640451" lon="10.7746681"><ele>141.79999999999998</ele><time>2026-03-28T10:33:36.756Z</time></trkpt><trkpt lat="45.4641386" lon="10.7747584"><ele>142.0</ele><time>2026-03-28T10:33:37.757Z</time></trkpt><trkpt lat="45.4642286" lon="10.7748589"><ele>142.0</ele><time>2026-03-28T10:33:38.756Z</time></trkpt><trkpt lat="45.4643211" lon="10.7749659"><ele>142.0</ele><time>2026-03-28T10:33:39.756Z</time></trkpt><trkpt lat="45.4644154" lon="10.7750737"><ele>142.0</ele><time>2026-03-28T10:33:40.757Z</time></trkpt><trkpt lat="45.4644972" lon="10.77517"><ele>142.0</ele><time>2026-03-28T10:33:41.758Z</time></trkpt><trkpt lat="45.464586" lon="10.7752628"><ele>143.75</ele><time>2026-03-28T10:33:42.757Z</time></trkpt><trkpt lat="45.4646783" lon="10.775356"><ele>145.5</ele><time>2026-03-28T10:33:43.757Z</time></trkpt><trkpt lat="45.4647751" lon="10.7754488"><ele>147.25</ele><time>2026-03-28T10:33:44.757Z</time></trkpt><trkpt lat="45.4648768" lon="10.7755374"><ele>149.0</ele><time>2026-03-28T10:33:45.757Z</time></trkpt><trkpt lat="45.464985" lon="10.7756088"><ele>149.0</ele><time>2026-03-28T10:33:46.756Z</time></trkpt><trkpt lat="45.4650911" lon="10.7756836"><ele>149.0</ele><time>2026-03-28T10:33:47.756Z</time></trkpt><trkpt lat="45.4651894" lon="10.7757757"><ele>149.0</ele><time>2026-03-28T10:33:48.757Z</time></trkpt><trkpt lat="45.4652827" lon="10.775864"><ele>149.0</ele><time>2026-03-28T10:33:49.757Z</time></trkpt><trkpt lat="45.465369" lon="10.7759467"><ele>149.4</ele><time>2026-03-28T10:33:50.756Z</time></trkpt><trkpt lat="45.4654549" lon="10.7760166"><ele>149.8</ele><time>2026-03-28T10:33:51.758Z</time></trkpt><trkpt lat="45.4655336" lon="10.7760799"><ele>150.2</ele><time>2026-03-28T10:33:52.756Z</time></trkpt><trkpt lat="45.4656141" lon="10.7761384"><ele>150.6</ele><time>2026-03-28T10:33:53.758Z</time></trkpt><trkpt lat="45.4657029" lon="10.7761881"><ele>151.0</ele><time>2026-03-28T10:33:54.758Z</time></trkpt><trkpt lat="45.4657768" lon="10.7762403"><ele>151.0</ele><time>2026-03-28T10:33:55.756Z</time></trkpt><trkpt lat="45.4658497" lon="10.7762734"><ele>151.0</ele><time>2026-03-28T10:33:56.757Z</time></trkpt><trkpt lat="45.4659223" lon="10.7762946"><ele>151.0</ele><time>2026-03-28T10:33:57.756Z</time></trkpt><trkpt lat="45.4660099" lon="10.7763121"><ele>151.0</ele><time>2026-03-28T10:33:58.757Z</time></trkpt><trkpt lat="45.4661015" lon="10.7763392"><ele>151.0</ele><time>2026-03-28T10:33:59.756Z</time></trkpt><trkpt lat="45.466203" lon="10.776391"><ele>151.0</ele><time>2026-03-28T10:34:00.757Z</time></trkpt><trkpt lat="45.4663088" lon="10.7764499"><ele>151.6</ele><time>2026-03-28T10:34:01.757Z</time></trkpt><trkpt lat="45.4664144" lon="10.7765085"><ele>152.2</ele><time>2026-03-28T10:34:02.757Z</time></trkpt><trkpt lat="45.4665111" lon="10.7765589"><ele>152.8</ele><time>2026-03-28T10:34:03.756Z</time></trkpt><trkpt lat="45.466609" lon="10.7766097"><ele>153.4</ele><time>2026-03-28T10:34:04.757Z</time></trkpt><trkpt lat="45.4667118" lon="10.7766634"><ele>154.0</ele><time>2026-03-28T10:34:05.756Z</time></trkpt><trkpt lat="45.466817" lon="10.776723"><ele>154.0</ele><time>2026-03-28T10:34:06.756Z</time></trkpt><trkpt lat="45.466926" lon="10.7767799"><ele>154.0</ele><time>2026-03-28T10:34:07.757Z</time></trkpt><trkpt lat="45.4670336" lon="10.7768339"><ele>154.0</ele><time>2026-03-28T10:34:08.756Z</time></trkpt><trkpt lat="45.4671448" lon="10.7768929"><ele>154.0</ele><time>2026-03-28T10:34:09.757Z</time></trkpt><trkpt lat="45.4672574" lon="10.7769509"><ele>155.0</ele><time>2026-03-28T10:34:10.756Z</time></trkpt><trkpt lat="45.46737" lon="10.7770027"><ele>156.0</ele><time>2026-03-28T10:34:11.757Z</time></trkpt><trkpt lat="45.4674812" lon="10.7770622"><ele>157.0</ele><time>2026-03-28T10:34:12.756Z</time></trkpt><trkpt lat="45.4675882" lon="10.7771203"><ele>158.0</ele><time>2026-03-28T10:34:13.758Z</time></trkpt><trkpt lat="45.4676869" lon="10.7771763"><ele>158.0</ele><time>2026-03-28T10:34:14.756Z</time></trkpt><trkpt lat="45.467768" lon="10.7772395"><ele>158.0</ele><time>2026-03-28T10:34:15.757Z</time></trkpt><trkpt lat="45.4678533" lon="10.7773125"><ele>158.0</ele><time>2026-03-28T10:34:16.756Z</time></trkpt><trkpt lat="45.4679461" lon="10.7773688"><ele>158.0</ele><time>2026-03-28T10:34:17.756Z</time></trkpt><trkpt lat="45.4680513" lon="10.7774195"><ele>158.0</ele><time>2026-03-28T10:34:18.756Z</time></trkpt><trkpt lat="45.4681591" lon="10.7774763"><ele>157.6</ele><time>2026-03-28T10:34:19.757Z</time></trkpt><trkpt lat="45.4682606" lon="10.7775284"><ele>157.20000000000002</ele><time>2026-03-28T10:34:20.757Z</time></trkpt><trkpt lat="45.4683566" lon="10.7775814"><ele>156.8</ele><time>2026-03-28T10:34:21.756Z</time></trkpt><trkpt lat="45.4684503" lon="10.7776329"><ele>156.4</ele><time>2026-03-28T10:34:22.756Z</time></trkpt><trkpt lat="45.4685536" lon="10.7776932"><ele>156.0</ele><time>2026-03-28T10:34:23.756Z</time></trkpt><trkpt lat="45.4686573" lon="10.7777557"><ele>155.6</ele><time>2026-03-28T10:34:24.757Z</time></trkpt><trkpt lat="45.4687673" lon="10.7778211"><ele>155.2</ele><time>2026-03-28T10:34:25.757Z</time></trkpt><trkpt lat="45.4688743" lon="10.7778812"><ele>154.8</ele><time>2026-03-28T10:34:26.756Z</time></trkpt><trkpt lat="45.4689748" lon="10.7779391"><ele>154.4</ele><time>2026-03-28T10:34:27.757Z</time></trkpt><trkpt lat="45.4690716" lon="10.777989"><ele>154.0</ele><time>2026-03-28T10:34:28.756Z</time></trkpt><trkpt lat="45.4691515" lon="10.7780302"><ele>154.0</ele><time>2026-03-28T10:34:29.757Z</time></trkpt><trkpt lat="45.4692216" lon="10.7781382"><ele>154.0</ele><time>2026-03-28T10:34:31.756Z</time></trkpt><trkpt lat="45.4691896" lon="10.7782711"><ele>154.0</ele><time>2026-03-28T10:34:33.756Z</time></trkpt><trkpt lat="45.4691474" lon="10.7783623"><ele>154.0</ele><time>2026-03-28T10:34:34.757Z</time></trkpt><trkpt lat="45.4690848" lon="10.7784771"><ele>154.0</ele><time>2026-03-28T10:34:35.757Z</time></trkpt><trkpt lat="45.4690035" lon="10.7786144"><ele>154.0</ele><time>2026-03-28T10:34:36.756Z</time></trkpt><trkpt lat="45.4689099" lon="10.7787558"><ele>154.0</ele><time>2026-03-28T10:34:37.758Z</time></trkpt><trkpt lat="45.4688012" lon="10.7789076"><ele>154.0</ele><time>2026-03-28T10:34:38.756Z</time></trkpt><trkpt lat="45.4686877" lon="10.7790734"><ele>153.33333333333334</ele><time>2026-03-28T10:34:39.756Z</time></trkpt><trkpt lat="45.468577" lon="10.7792468"><ele>152.66666666666666</ele><time>2026-03-28T10:34:40.757Z</time></trkpt><trkpt lat="45.4684684" lon="10.7794034"><ele>152.0</ele><time>2026-03-28T10:34:41.756Z</time></trkpt><trkpt lat="45.4683474" lon="10.7795529"><ele>152.0</ele><time>2026-03-28T10:34:42.757Z</time></trkpt><trkpt lat="45.4682267" lon="10.7796845"><ele>152.0</ele><time>2026-03-28T10:34:43.756Z</time></trkpt><trkpt lat="45.4681096" lon="10.7797886"><ele>152.0</ele><time>2026-03-28T10:34:44.757Z</time></trkpt><trkpt lat="45.4679908" lon="10.7798678"><ele>152.0</ele><time>2026-03-28T10:34:45.756Z</time></trkpt><trkpt lat="45.4678792" lon="10.7799514"><ele>152.33333333333331</ele><time>2026-03-28T10:34:46.757Z</time></trkpt><trkpt lat="45.467768" lon="10.7800721"><ele>152.66666666666666</ele><time>2026-03-28T10:34:47.757Z</time></trkpt><trkpt lat="45.4676532" lon="10.7802294"><ele>153.0</ele><time>2026-03-28T10:34:48.756Z</time></trkpt><trkpt lat="45.4675358" lon="10.7804177"><ele>154.66666666666666</ele><time>2026-03-28T10:34:49.757Z</time></trkpt><trkpt lat="45.4674133" lon="10.7806381"><ele>156.33333333333331</ele><time>2026-03-28T10:34:50.756Z</time></trkpt><trkpt lat="45.4673014" lon="10.780852"><ele>158.0</ele><time>2026-03-28T10:34:51.757Z</time></trkpt><trkpt lat="45.4672103" lon="10.7810253"><ele>158.5</ele><time>2026-03-28T10:34:52.756Z</time></trkpt><trkpt lat="45.4671266" lon="10.7811829"><ele>159.0</ele><time>2026-03-28T10:34:53.757Z</time></trkpt><trkpt lat="45.4670475" lon="10.7813478"><ele>159.5</ele><time>2026-03-28T10:34:54.757Z</time></trkpt><trkpt lat="45.4669773" lon="10.7815247"><ele>160.0</ele><time>2026-03-28T10:34:55.756Z</time></trkpt><trkpt lat="45.4669213" lon="10.7817196"><ele>158.0</ele><time>2026-03-28T10:34:56.757Z</time></trkpt><trkpt lat="45.4668767" lon="10.7819351"><ele>156.0</ele><time>2026-03-28T10:34:57.756Z</time></trkpt><trkpt lat="45.4668397" lon="10.7821688"><ele>154.0</ele><time>2026-03-28T10:34:58.757Z</time></trkpt><trkpt lat="45.4668064" lon="10.78241"><ele>154.0</ele><time>2026-03-28T10:34:59.757Z</time></trkpt><trkpt lat="45.4667717" lon="10.7826345"><ele>154.0</ele><time>2026-03-28T10:35:00.757Z</time></trkpt><trkpt lat="45.4667358" lon="10.7828639"><ele>154.0</ele><time>2026-03-28T10:35:01.756Z</time></trkpt><trkpt lat="45.4666924" lon="10.7830958"><ele>153.66666666666669</ele><time>2026-03-28T10:35:02.757Z</time></trkpt><trkpt lat="45.4666377" lon="10.7833326"><ele>153.33333333333334</ele><time>2026-03-28T10:35:03.757Z</time></trkpt><trkpt lat="45.4665954" lon="10.7835581"><ele>153.0</ele><time>2026-03-28T10:35:04.757Z</time></trkpt><trkpt lat="45.4665754" lon="10.7837923"><ele>152.75</ele><time>2026-03-28T10:35:05.756Z</time></trkpt><trkpt lat="45.4665687" lon="10.7840154"><ele>152.5</ele><time>2026-03-28T10:35:06.756Z</time></trkpt><trkpt lat="45.4665644" lon="10.7842119"><ele>152.25</ele><time>2026-03-28T10:35:07.757Z</time></trkpt><trkpt lat="45.4665507" lon="10.7843682"><ele>152.0</ele><time>2026-03-28T10:35:08.756Z</time></trkpt><trkpt lat="45.4665339" lon="10.7844725"><ele>152.6</ele><time>2026-03-28T10:35:09.757Z</time></trkpt><trkpt lat="45.4665611" lon="10.7845844"><ele>153.2</ele><time>2026-03-28T10:35:11.757Z</time></trkpt><trkpt lat="45.4666581" lon="10.7845796"><ele>153.8</ele><time>2026-03-28T10:35:13.756Z</time></trkpt><trkpt lat="45.4667444" lon="10.7845686"><ele>154.4</ele><time>2026-03-28T10:35:14.757Z</time></trkpt><trkpt lat="45.4668345" lon="10.7845737"><ele>155.0</ele><time>2026-03-28T10:35:15.757Z</time></trkpt><trkpt lat="45.4669297" lon="10.7846047"><ele>155.0</ele><time>2026-03-28T10:35:16.757Z</time></trkpt><trkpt lat="45.4670215" lon="10.7846534"><ele>155.0</ele><time>2026-03-28T10:35:17.756Z</time></trkpt><trkpt lat="45.4671159" lon="10.7846789"><ele>155.0</ele><time>2026-03-28T10:35:18.756Z</time></trkpt><trkpt lat="45.4671988" lon="10.7846662"><ele>155.0</ele><time>2026-03-28T10:35:19.756Z</time></trkpt><trkpt lat="45.4672738" lon="10.7846121"><ele>155.0</ele><time>2026-03-28T10:35:20.757Z</time></trkpt><trkpt lat="45.4673592" lon="10.7845364"><ele>155.0</ele><time>2026-03-28T10:35:21.756Z</time></trkpt><trkpt lat="45.4674543" lon="10.7844694"><ele>155.0</ele><time>2026-03-28T10:35:22.757Z</time></trkpt><trkpt lat="45.4675645" lon="10.7844198"><ele>155.0</ele><time>2026-03-28T10:35:23.756Z</time></trkpt><trkpt lat="45.4676814" lon="10.7843954"><ele>155.0</ele><time>2026-03-28T10:35:24.757Z</time></trkpt><trkpt lat="45.4678036" lon="10.7843936"><ele>155.0</ele><time>2026-03-28T10:35:25.757Z</time></trkpt><trkpt lat="45.467935" lon="10.7843907"><ele>155.0</ele><time>2026-03-28T10:35:26.756Z</time></trkpt><trkpt lat="45.4680594" lon="10.7843791"><ele>155.0</ele><time>2026-03-28T10:35:27.757Z</time></trkpt><trkpt lat="45.4681786" lon="10.7843567"><ele>155.0</ele><time>2026-03-28T10:35:28.756Z</time></trkpt><trkpt lat="45.4682962" lon="10.784316"><ele>154.6</ele><time>2026-03-28T10:35:29.757Z</time></trkpt><trkpt lat="45.4684021" lon="10.7842627"><ele>154.2</ele><time>2026-03-28T10:35:30.757Z</time></trkpt><trkpt lat="45.4684942" lon="10.7841871"><ele>153.8</ele><time>2026-03-28T10:35:31.756Z</time></trkpt><trkpt lat="45.4685788" lon="10.7841265"><ele>153.4</ele><time>2026-03-28T10:35:32.757Z</time></trkpt><trkpt lat="45.468665" lon="10.7840761"><ele>153.0</ele><time>2026-03-28T10:35:33.756Z</time></trkpt><trkpt lat="45.4687456" lon="10.7840424"><ele>152.0</ele><time>2026-03-28T10:35:34.757Z</time></trkpt><trkpt lat="45.4688337" lon="10.7840145"><ele>151.0</ele><time>2026-03-28T10:35:35.756Z</time></trkpt><trkpt lat="45.4689381" lon="10.7839819"><ele>150.0</ele><time>2026-03-28T10:35:36.756Z</time></trkpt><trkpt lat="45.4690607" lon="10.7839356"><ele>149.0</ele><time>2026-03-28T10:35:37.757Z</time></trkpt><trkpt lat="45.4691957" lon="10.7838793"><ele>149.0</ele><time>2026-03-28T10:35:38.757Z</time></trkpt><trkpt lat="45.4693217" lon="10.7838319"><ele>149.0</ele><time>2026-03-28T10:35:39.757Z</time></trkpt><trkpt lat="45.4694516" lon="10.7838018"><ele>149.0</ele><time>2026-03-28T10:35:40.756Z</time></trkpt><trkpt lat="45.4695805" lon="10.7837885"><ele>149.0</ele><time>2026-03-28T10:35:41.756Z</time></trkpt><trkpt lat="45.4697122" lon="10.7837776"><ele>148.25</ele><time>2026-03-28T10:35:42.756Z</time></trkpt><trkpt lat="45.4698438" lon="10.7837803"><ele>147.5</ele><time>2026-03-28T10:35:43.757Z</time></trkpt><trkpt lat="45.4699712" lon="10.7837964"><ele>146.75</ele><time>2026-03-28T10:35:44.757Z</time></trkpt><trkpt lat="45.470091" lon="10.7838191"><ele>146.0</ele><time>2026-03-28T10:35:45.756Z</time></trkpt><trkpt lat="45.470207" lon="10.7838392"><ele>146.0</ele><time>2026-03-28T10:35:46.756Z</time></trkpt><trkpt lat="45.4703163" lon="10.7838599"><ele>146.0</ele><time>2026-03-28T10:35:47.757Z</time></trkpt><trkpt lat="45.4704221" lon="10.7838768"><ele>146.0</ele><time>2026-03-28T10:35:48.757Z</time></trkpt><trkpt lat="45.470531" lon="10.7838896"><ele>146.0</ele><time>2026-03-28T10:35:49.756Z</time></trkpt><trkpt lat="45.4706471" lon="10.783886"><ele>146.0</ele><time>2026-03-28T10:35:50.757Z</time></trkpt><trkpt lat="45.47076" lon="10.7838741"><ele>145.4</ele><time>2026-03-28T10:35:51.756Z</time></trkpt><trkpt lat="45.4708641" lon="10.7838564"><ele>144.8</ele><time>2026-03-28T10:35:52.756Z</time></trkpt><trkpt lat="45.4709665" lon="10.7838314"><ele>144.20000000000002</ele><time>2026-03-28T10:35:53.757Z</time></trkpt><trkpt lat="45.4710767" lon="10.7838012"><ele>143.6</ele><time>2026-03-28T10:35:54.756Z</time></trkpt><trkpt lat="45.4711909" lon="10.7837724"><ele>143.0</ele><time>2026-03-28T10:35:55.757Z</time></trkpt><trkpt lat="45.4713099" lon="10.7837423"><ele>142.25</ele><time>2026-03-28T10:35:56.756Z</time></trkpt><trkpt lat="45.4714252" lon="10.7837126"><ele>141.5</ele><time>2026-03-28T10:35:57.756Z</time></trkpt><trkpt lat="45.4715451" lon="10.7836795"><ele>140.75</ele><time>2026-03-28T10:35:58.757Z</time></trkpt><trkpt lat="45.4716698" lon="10.7836436"><ele>140.0</ele><time>2026-03-28T10:35:59.756Z</time></trkpt><trkpt lat="45.4717955" lon="10.7836108"><ele>140.0</ele><time>2026-03-28T10:36:00.757Z</time></trkpt><trkpt lat="45.4719202" lon="10.7835798"><ele>140.0</ele><time>2026-03-28T10:36:01.756Z</time></trkpt><trkpt lat="45.4720369" lon="10.7835481"><ele>140.0</ele><time>2026-03-28T10:36:02.757Z</time></trkpt><trkpt lat="45.4721489" lon="10.7835237"><ele>140.0</ele><time>2026-03-28T10:36:03.757Z</time></trkpt><trkpt lat="45.4722654" lon="10.7834963"><ele>139.75</ele><time>2026-03-28T10:36:04.756Z</time></trkpt><trkpt lat="45.4723867" lon="10.7834721"><ele>139.5</ele><time>2026-03-28T10:36:05.757Z</time></trkpt><trkpt lat="45.4725129" lon="10.7834535"><ele>139.25</ele><time>2026-03-28T10:36:06.757Z</time></trkpt><trkpt lat="45.4726418" lon="10.7834312"><ele>139.0</ele><time>2026-03-28T10:36:07.757Z</time></trkpt><trkpt lat="45.4727715" lon="10.7834162"><ele>139.0</ele><time>2026-03-28T10:36:08.756Z</time></trkpt><trkpt lat="45.4728942" lon="10.7834073"><ele>139.0</ele><time>2026-03-28T10:36:09.756Z</time></trkpt><trkpt lat="45.4730073" lon="10.7834003"><ele>139.0</ele><time>2026-03-28T10:36:10.757Z</time></trkpt><trkpt lat="45.4731126" lon="10.7833956"><ele>139.0</ele><time>2026-03-28T10:36:11.756Z</time></trkpt><trkpt lat="45.4732056" lon="10.7833967"><ele>139.0</ele><time>2026-03-28T10:36:12.757Z</time></trkpt><trkpt lat="45.4732815" lon="10.783397"><ele>139.0</ele><time>2026-03-28T10:36:13.756Z</time></trkpt><trkpt lat="45.4733473" lon="10.7833983"><ele>139.0</ele><time>2026-03-28T10:36:14.757Z</time></trkpt><trkpt lat="45.4734476" lon="10.7834204"><ele>139.0</ele><time>2026-03-28T10:36:16.756Z</time></trkpt><trkpt lat="45.4735151" lon="10.7834366"><ele>139.0</ele><time>2026-03-28T10:36:17.757Z</time></trkpt><trkpt lat="45.4735996" lon="10.7834478"><ele>139.0</ele><time>2026-03-28T10:36:18.756Z</time></trkpt><trkpt lat="45.4737034" lon="10.7834503"><ele>139.0</ele><time>2026-03-28T10:36:19.757Z</time></trkpt><trkpt lat="45.4738138" lon="10.7834229"><ele>139.6</ele><time>2026-03-28T10:36:20.757Z</time></trkpt><trkpt lat="45.473907" lon="10.7833809"><ele>140.2</ele><time>2026-03-28T10:36:21.757Z</time></trkpt><trkpt lat="45.4739959" lon="10.7833395"><ele>140.79999999999998</ele><time>2026-03-28T10:36:22.757Z</time></trkpt><trkpt lat="45.4740887" lon="10.7833043"><ele>141.4</ele><time>2026-03-28T10:36:23.756Z</time></trkpt><trkpt lat="45.4741702" lon="10.7832731"><ele>142.0</ele><time>2026-03-28T10:36:24.757Z</time></trkpt><trkpt lat="45.474252" lon="10.7832491"><ele>142.0</ele><time>2026-03-28T10:36:25.757Z</time></trkpt><trkpt lat="45.4743336" lon="10.7832207"><ele>142.0</ele><time>2026-03-28T10:36:26.756Z</time></trkpt><trkpt lat="45.4744216" lon="10.78319"><ele>142.0</ele><time>2026-03-28T10:36:27.757Z</time></trkpt><trkpt lat="45.4745116" lon="10.7831535"><ele>142.0</ele><time>2026-03-28T10:36:28.756Z</time></trkpt><trkpt lat="45.4746074" lon="10.7831151"><ele>142.0</ele><time>2026-03-28T10:36:29.757Z</time></trkpt><trkpt lat="45.4747112" lon="10.7830642"><ele>141.6</ele><time>2026-03-28T10:36:30.756Z</time></trkpt><trkpt lat="45.4748153" lon="10.7830103"><ele>141.2</ele><time>2026-03-28T10:36:31.757Z</time></trkpt><trkpt lat="45.4749148" lon="10.7829405"><ele>140.8</ele><time>2026-03-28T10:36:32.756Z</time></trkpt><trkpt lat="45.4750164" lon="10.7828533"><ele>140.4</ele><time>2026-03-28T10:36:33.757Z</time></trkpt><trkpt lat="45.4751005" lon="10.7827808"><ele>140.0</ele><time>2026-03-28T10:36:34.756Z</time></trkpt><trkpt lat="45.4751786" lon="10.7827116"><ele>140.2</ele><time>2026-03-28T10:36:35.756Z</time></trkpt><trkpt lat="45.47525" lon="10.7826466"><ele>140.4</ele><time>2026-03-28T10:36:36.757Z</time></trkpt><trkpt lat="45.4753272" lon="10.7825618"><ele>140.6</ele><time>2026-03-28T10:36:37.757Z</time></trkpt><trkpt lat="45.475409" lon="10.7824859"><ele>140.8</ele><time>2026-03-28T10:36:38.756Z</time></trkpt><trkpt lat="45.4754884" lon="10.7824247"><ele>141.0</ele><time>2026-03-28T10:36:39.756Z</time></trkpt><trkpt lat="45.4755586" lon="10.7823517"><ele>140.4</ele><time>2026-03-28T10:36:40.756Z</time></trkpt><trkpt lat="45.4756413" lon="10.7822643"><ele>139.8</ele><time>2026-03-28T10:36:41.757Z</time></trkpt><trkpt lat="45.4757243" lon="10.782167"><ele>139.20000000000002</ele><time>2026-03-28T10:36:42.757Z</time></trkpt><trkpt lat="45.4758085" lon="10.7820689"><ele>138.6</ele><time>2026-03-28T10:36:43.756Z</time></trkpt><trkpt lat="45.4758932" lon="10.7819563"><ele>138.0</ele><time>2026-03-28T10:36:44.757Z</time></trkpt><trkpt lat="45.4759776" lon="10.7818281"><ele>137.6</ele><time>2026-03-28T10:36:45.756Z</time></trkpt><trkpt lat="45.4760531" lon="10.781702"><ele>137.20000000000002</ele><time>2026-03-28T10:36:46.756Z</time></trkpt><trkpt lat="45.4761318" lon="10.7815971"><ele>136.8</ele><time>2026-03-28T10:36:47.757Z</time></trkpt><trkpt lat="45.4762205" lon="10.7815084"><ele>136.4</ele><time>2026-03-28T10:36:48.757Z</time></trkpt><trkpt lat="45.4763132" lon="10.7814312"><ele>136.0</ele><time>2026-03-28T10:36:49.756Z</time></trkpt><trkpt lat="45.4764142" lon="10.7813391"><ele>135.6</ele><time>2026-03-28T10:36:50.756Z</time></trkpt><trkpt lat="45.4765108" lon="10.78126"><ele>135.2</ele><time>2026-03-28T10:36:51.756Z</time></trkpt><trkpt lat="45.476598" lon="10.7811936"><ele>134.8</ele><time>2026-03-28T10:36:52.756Z</time></trkpt><trkpt lat="45.4766814" lon="10.7811356"><ele>134.4</ele><time>2026-03-28T10:36:53.756Z</time></trkpt><trkpt lat="45.4767508" lon="10.7810965"><ele>134.0</ele><time>2026-03-28T10:36:54.757Z</time></trkpt><trkpt lat="45.4768332" lon="10.7810351"><ele>134.4</ele><time>2026-03-28T10:36:56.756Z</time></trkpt><trkpt lat="45.4768644" lon="10.7809039"><ele>134.8</ele><time>2026-03-28T10:36:58.756Z</time></trkpt><trkpt lat="45.4768584" lon="10.7807965"><ele>135.2</ele><time>2026-03-28T10:36:59.756Z</time></trkpt><trkpt lat="45.4768494" lon="10.7806589"><ele>135.6</ele><time>2026-03-28T10:37:00.758Z</time></trkpt><trkpt lat="45.4768482" lon="10.7805154"><ele>136.0</ele><time>2026-03-28T10:37:01.756Z</time></trkpt><trkpt lat="45.4768498" lon="10.7803526"><ele>136.5</ele><time>2026-03-28T10:37:02.757Z</time></trkpt><trkpt lat="45.4768485" lon="10.7801831"><ele>137.0</ele><time>2026-03-28T10:37:03.756Z</time></trkpt><trkpt lat="45.476847" lon="10.7800041"><ele>137.5</ele><time>2026-03-28T10:37:04.757Z</time></trkpt><trkpt lat="45.4768447" lon="10.7798195"><ele>138.0</ele><time>2026-03-28T10:37:05.756Z</time></trkpt><trkpt lat="45.476842" lon="10.7796342"><ele>138.0</ele><time>2026-03-28T10:37:06.756Z</time></trkpt><trkpt lat="45.4768401" lon="10.7794616"><ele>138.0</ele><time>2026-03-28T10:37:07.757Z</time></trkpt><trkpt lat="45.4768349" lon="10.779295"><ele>138.0</ele><time>2026-03-28T10:37:08.757Z</time></trkpt><trkpt lat="45.4768336" lon="10.7791272"><ele>138.0</ele><time>2026-03-28T10:37:09.756Z</time></trkpt><trkpt lat="45.476837" lon="10.7789627"><ele>138.25</ele><time>2026-03-28T10:37:10.757Z</time></trkpt><trkpt lat="45.4768417" lon="10.7787982"><ele>138.5</ele><time>2026-03-28T10:37:11.756Z</time></trkpt><trkpt lat="45.4768431" lon="10.7786285"><ele>138.75</ele><time>2026-03-28T10:37:12.756Z</time></trkpt><trkpt lat="45.4768411" lon="10.7784656"><ele>139.0</ele><time>2026-03-28T10:37:13.757Z</time></trkpt><trkpt lat="45.4768359" lon="10.7783102"><ele>138.4</ele><time>2026-03-28T10:37:14.756Z</time></trkpt><trkpt lat="45.476832" lon="10.7781651"><ele>137.8</ele><time>2026-03-28T10:37:15.756Z</time></trkpt><trkpt lat="45.4768313" lon="10.7780311"><ele>137.2</ele><time>2026-03-28T10:37:16.756Z</time></trkpt><trkpt lat="45.4768343" lon="10.7778963"><ele>136.6</ele><time>2026-03-28T10:37:17.757Z</time></trkpt><trkpt lat="45.4768331" lon="10.7777599"><ele>136.0</ele><time>2026-03-28T10:37:18.757Z</time></trkpt><trkpt lat="45.4768233" lon="10.7776328"><ele>135.85714285714283</ele><time>2026-03-28T10:37:19.757Z</time></trkpt><trkpt lat="45.4768106" lon="10.7775139"><ele>135.71428571428572</ele><time>2026-03-28T10:37:20.756Z</time></trkpt><trkpt lat="45.4768054" lon="10.7774053"><ele>135.57142857142856</ele><time>2026-03-28T10:37:21.756Z</time></trkpt><trkpt lat="45.4768145" lon="10.777306"><ele>135.42857142857142</ele><time>2026-03-28T10:37:22.756Z</time></trkpt><trkpt lat="45.4768372" lon="10.7772146"><ele>135.28571428571428</ele><time>2026-03-28T10:37:23.758Z</time></trkpt><trkpt lat="45.4768839" lon="10.7771379"><ele>135.14285714285714</ele><time>2026-03-28T10:37:24.756Z</time></trkpt><trkpt lat="45.4769498" lon="10.7770801"><ele>135.0</ele><time>2026-03-28T10:37:25.757Z</time></trkpt><trkpt lat="45.477034" lon="10.7770364"><ele>134.75</ele><time>2026-03-28T10:37:26.757Z</time></trkpt><trkpt lat="45.4771298" lon="10.7770015"><ele>134.5</ele><time>2026-03-28T10:37:27.756Z</time></trkpt><trkpt lat="45.4772385" lon="10.7769588"><ele>134.25</ele><time>2026-03-28T10:37:28.757Z</time></trkpt><trkpt lat="45.4773535" lon="10.7769183"><ele>134.0</ele><time>2026-03-28T10:37:29.756Z</time></trkpt><trkpt lat="45.4774673" lon="10.7768645"><ele>133.75</ele><time>2026-03-28T10:37:30.757Z</time></trkpt><trkpt lat="45.4775836" lon="10.7768042"><ele>133.5</ele><time>2026-03-28T10:37:31.756Z</time></trkpt><trkpt lat="45.4777051" lon="10.7767599"><ele>133.25</ele><time>2026-03-28T10:37:32.757Z</time></trkpt><trkpt lat="45.4778157" lon="10.7767429"><ele>133.0</ele><time>2026-03-28T10:37:33.757Z</time></trkpt><trkpt lat="45.4779198" lon="10.7767435"><ele>134.6</ele><time>2026-03-28T10:37:34.756Z</time></trkpt><trkpt lat="45.4780173" lon="10.776756"><ele>136.20000000000002</ele><time>2026-03-28T10:37:35.757Z</time></trkpt><trkpt lat="45.4781059" lon="10.7767696"><ele>137.8</ele><time>2026-03-28T10:37:36.756Z</time></trkpt><trkpt lat="45.4781919" lon="10.7767937"><ele>139.4</ele><time>2026-03-28T10:37:37.756Z</time></trkpt><trkpt lat="45.4782787" lon="10.7767938"><ele>141.0</ele><time>2026-03-28T10:37:38.758Z</time></trkpt><trkpt lat="45.4783752" lon="10.7767625"><ele>141.0</ele><time>2026-03-28T10:37:39.757Z</time></trkpt><trkpt lat="45.4784656" lon="10.7767318"><ele>141.0</ele><time>2026-03-28T10:37:40.756Z</time></trkpt><trkpt lat="45.4785485" lon="10.776695"><ele>141.0</ele><time>2026-03-28T10:37:41.756Z</time></trkpt><trkpt lat="45.478626" lon="10.7766236"><ele>141.0</ele><time>2026-03-28T10:37:42.756Z</time></trkpt><trkpt lat="45.4786771" lon="10.7765267"><ele>141.0</ele><time>2026-03-28T10:37:43.756Z</time></trkpt><trkpt lat="45.4787091" lon="10.7764187"><ele>141.0</ele><time>2026-03-28T10:37:44.757Z</time></trkpt><trkpt lat="45.478718" lon="10.7763095"><ele>141.0</ele><time>2026-03-28T10:37:45.756Z</time></trkpt><trkpt lat="45.4787041" lon="10.7762069"><ele>141.0</ele><time>2026-03-28T10:37:46.758Z</time></trkpt><trkpt lat="45.4786993" lon="10.7761105"><ele>141.0</ele><time>2026-03-28T10:37:47.756Z</time></trkpt><trkpt lat="45.4787546" lon="10.7759698"><ele>141.0</ele><time>2026-03-28T10:37:49.756Z</time></trkpt><trkpt lat="45.4788694" lon="10.7759433"><ele>141.0</ele><time>2026-03-28T10:37:51.756Z</time></trkpt><trkpt lat="45.4789589" lon="10.7759523"><ele>140.16666666666666</ele><time>2026-03-28T10:37:52.756Z</time></trkpt><trkpt lat="45.4790612" lon="10.7759653"><ele>139.33333333333334</ele><time>2026-03-28T10:37:53.757Z</time></trkpt><trkpt lat="45.4791543" lon="10.7759761"><ele>138.5</ele><time>2026-03-28T10:37:54.757Z</time></trkpt><trkpt lat="45.4792448" lon="10.7759871"><ele>137.66666666666669</ele><time>2026-03-28T10:37:55.756Z</time></trkpt><trkpt lat="45.4793249" lon="10.7760041"><ele>136.83333333333334</ele><time>2026-03-28T10:37:56.757Z</time></trkpt><trkpt lat="45.4793923" lon="10.7760061"><ele>136.0</ele><time>2026-03-28T10:37:57.756Z</time></trkpt><trkpt lat="45.4794759" lon="10.7758963"><ele>136.0</ele><time>2026-03-28T10:37:59.757Z</time></trkpt><trkpt lat="45.4795016" lon="10.7757871"><ele>136.0</ele><time>2026-03-28T10:38:00.756Z</time></trkpt><trkpt lat="45.4795243" lon="10.7756334"><ele>136.0</ele><time>2026-03-28T10:38:01.757Z</time></trkpt><trkpt lat="45.4795528" lon="10.7754798"><ele>136.0</ele><time>2026-03-28T10:38:02.757Z</time></trkpt><trkpt lat="45.4795766" lon="10.7753352"><ele>136.0</ele><time>2026-03-28T10:38:03.756Z</time></trkpt><trkpt lat="45.4796114" lon="10.7752059"><ele>135.2</ele><time>2026-03-28T10:38:04.756Z</time></trkpt><trkpt lat="45.4796557" lon="10.7750844"><ele>134.39999999999998</ele><time>2026-03-28T10:38:05.756Z</time></trkpt><trkpt lat="45.4797028" lon="10.7749429"><ele>133.6</ele><time>2026-03-28T10:38:06.756Z</time></trkpt><trkpt lat="45.4797581" lon="10.7747972"><ele>132.79999999999998</ele><time>2026-03-28T10:38:07.757Z</time></trkpt><trkpt lat="45.479813" lon="10.7746411"><ele>132.0</ele><time>2026-03-28T10:38:08.756Z</time></trkpt><trkpt lat="45.4798665" lon="10.7744783"><ele>132.2</ele><time>2026-03-28T10:38:09.757Z</time></trkpt><trkpt lat="45.4799217" lon="10.7743146"><ele>132.39999999999998</ele><time>2026-03-28T10:38:10.757Z</time></trkpt><trkpt lat="45.4799732" lon="10.7741629"><ele>132.60000000000002</ele><time>2026-03-28T10:38:11.756Z</time></trkpt><trkpt lat="45.4800215" lon="10.7740306"><ele>132.8</ele><time>2026-03-28T10:38:12.756Z</time></trkpt><trkpt lat="45.4800666" lon="10.7739072"><ele>133.0</ele><time>2026-03-28T10:38:13.756Z</time></trkpt><trkpt lat="45.4801051" lon="10.7737954"><ele>133.0</ele><time>2026-03-28T10:38:14.757Z</time></trkpt><trkpt lat="45.4801585" lon="10.7736934"><ele>133.0</ele><time>2026-03-28T10:38:15.756Z</time></trkpt><trkpt lat="45.4802186" lon="10.7736174"><ele>133.0</ele><time>2026-03-28T10:38:16.757Z</time></trkpt><trkpt lat="45.4802846" lon="10.7735749"><ele>133.0</ele><time>2026-03-28T10:38:17.757Z</time></trkpt><trkpt lat="45.4803629" lon="10.7735607"><ele>133.0</ele><time>2026-03-28T10:38:18.756Z</time></trkpt><trkpt lat="45.4804538" lon="10.773574"><ele>133.0</ele><time>2026-03-28T10:38:19.757Z</time></trkpt><trkpt lat="45.4805375" lon="10.7736074"><ele>133.0</ele><time>2026-03-28T10:38:20.757Z</time></trkpt><trkpt lat="45.4806136" lon="10.7736201"><ele>133.0</ele><time>2026-03-28T10:38:21.756Z</time></trkpt><trkpt lat="45.4806783" lon="10.7735973"><ele>133.0</ele><time>2026-03-28T10:38:22.757Z</time></trkpt><trkpt lat="45.4807318" lon="10.773545"><ele>133.0</ele><time>2026-03-28T10:38:23.756Z</time></trkpt><trkpt lat="45.4807632" lon="10.7734668"><ele>133.0</ele><time>2026-03-28T10:38:24.756Z</time></trkpt><trkpt lat="45.4807894" lon="10.773363"><ele>133.0</ele><time>2026-03-28T10:38:25.758Z</time></trkpt><trkpt lat="45.4808045" lon="10.7732462"><ele>133.0</ele><time>2026-03-28T10:38:26.756Z</time></trkpt><trkpt lat="45.4808206" lon="10.7731131"><ele>133.0</ele><time>2026-03-28T10:38:27.757Z</time></trkpt><trkpt lat="45.4808264" lon="10.7729859"><ele>133.0</ele><time>2026-03-28T10:38:28.756Z</time></trkpt><trkpt lat="45.4808363" lon="10.7728638"><ele>133.0</ele><time>2026-03-28T10:38:29.757Z</time></trkpt><trkpt lat="45.4808699" lon="10.7727509"><ele>133.0</ele><time>2026-03-28T10:38:30.756Z</time></trkpt><trkpt lat="45.4809151" lon="10.7726491"><ele>133.0</ele><time>2026-03-28T10:38:31.756Z</time></trkpt><trkpt lat="45.4809738" lon="10.7725579"><ele>133.0</ele><time>2026-03-28T10:38:32.757Z</time></trkpt><trkpt lat="45.4810395" lon="10.7724699"><ele>133.4</ele><time>2026-03-28T10:38:33.756Z</time></trkpt><trkpt lat="45.4811057" lon="10.7723807"><ele>133.8</ele><time>2026-03-28T10:38:34.757Z</time></trkpt><trkpt lat="45.481175" lon="10.7722863"><ele>134.2</ele><time>2026-03-28T10:38:35.756Z</time></trkpt><trkpt lat="45.4812465" lon="10.7721919"><ele>134.6</ele><time>2026-03-28T10:38:36.757Z</time></trkpt><trkpt lat="45.4813173" lon="10.7720974"><ele>135.0</ele><time>2026-03-28T10:38:37.757Z</time></trkpt><trkpt lat="45.481387" lon="10.7720015"><ele>135.0</ele><time>2026-03-28T10:38:38.757Z</time></trkpt><trkpt lat="45.4814535" lon="10.7719161"><ele>135.0</ele><time>2026-03-28T10:38:39.756Z</time></trkpt><trkpt lat="45.4815166" lon="10.7718368"><ele>135.0</ele><time>2026-03-28T10:38:40.757Z</time></trkpt><trkpt lat="45.4815832" lon="10.7717569"><ele>135.0</ele><time>2026-03-28T10:38:41.756Z</time></trkpt><trkpt lat="45.4816532" lon="10.7716754"><ele>135.0</ele><time>2026-03-28T10:38:42.757Z</time></trkpt><trkpt lat="45.4817259" lon="10.7716011"><ele>135.0</ele><time>2026-03-28T10:38:43.756Z</time></trkpt><trkpt lat="45.4817962" lon="10.7715128"><ele>135.0</ele><time>2026-03-28T10:38:44.757Z</time></trkpt><trkpt lat="45.4818729" lon="10.7714053"><ele>135.0</ele><time>2026-03-28T10:38:45.756Z</time></trkpt><trkpt lat="45.481955" lon="10.7712901"><ele>135.0</ele><time>2026-03-28T10:38:46.757Z</time></trkpt><trkpt lat="45.4820393" lon="10.7711683"><ele>135.0</ele><time>2026-03-28T10:38:47.756Z</time></trkpt><trkpt lat="45.4821261" lon="10.7710461"><ele>135.0</ele><time>2026-03-28T10:38:48.758Z</time></trkpt><trkpt lat="45.4821951" lon="10.7709259"><ele>135.0</ele><time>2026-03-28T10:38:49.756Z</time></trkpt><trkpt lat="45.4822702" lon="10.7708325"><ele>135.0</ele><time>2026-03-28T10:38:50.757Z</time></trkpt><trkpt lat="45.4823339" lon="10.7707435"><ele>135.0</ele><time>2026-03-28T10:38:51.756Z</time></trkpt><trkpt lat="45.4823949" lon="10.7706561"><ele>135.0</ele><time>2026-03-28T10:38:52.757Z</time></trkpt><trkpt lat="45.4824568" lon="10.770574"><ele>135.0</ele><time>2026-03-28T10:38:53.756Z</time></trkpt><trkpt lat="45.4825146" lon="10.7704959"><ele>135.0</ele><time>2026-03-28T10:38:54.757Z</time></trkpt><trkpt lat="45.4825652" lon="10.7704347"><ele>135.0</ele><time>2026-03-28T10:38:55.756Z</time></trkpt><trkpt lat="45.4826703" lon="10.7703706"><ele>135.0</ele><time>2026-03-28T10:38:57.758Z</time></trkpt><trkpt lat="45.4827965" lon="10.7703872"><ele>135.0</ele><time>2026-03-28T10:38:59.757Z</time></trkpt><trkpt lat="45.4828783" lon="10.7704255"><ele>135.5</ele><time>2026-03-28T10:39:00.756Z</time></trkpt><trkpt lat="45.4829815" lon="10.7704784"><ele>136.0</ele><time>2026-03-28T10:39:01.757Z</time></trkpt><trkpt lat="45.483099" lon="10.7705306"><ele>136.5</ele><time>2026-03-28T10:39:02.756Z</time></trkpt><trkpt lat="45.4832352" lon="10.7705756"><ele>137.0</ele><time>2026-03-28T10:39:03.756Z</time></trkpt><trkpt lat="45.4833601" lon="10.7706066"><ele>137.0</ele><time>2026-03-28T10:39:04.757Z</time></trkpt><trkpt lat="45.4834889" lon="10.7706232"><ele>137.0</ele><time>2026-03-28T10:39:05.756Z</time></trkpt><trkpt lat="45.4836171" lon="10.7706253"><ele>137.0</ele><time>2026-03-28T10:39:06.757Z</time></trkpt><trkpt lat="45.4837484" lon="10.7706261"><ele>137.0</ele><time>2026-03-28T10:39:07.756Z</time></trkpt><trkpt lat="45.4838749" lon="10.7706477"><ele>137.4</ele><time>2026-03-28T10:39:08.756Z</time></trkpt><trkpt lat="45.4839876" lon="10.7706785"><ele>137.79999999999998</ele><time>2026-03-28T10:39:09.756Z</time></trkpt><trkpt lat="45.4840989" lon="10.7707218"><ele>138.2</ele><time>2026-03-28T10:39:10.757Z</time></trkpt><trkpt lat="45.4842062" lon="10.7707699"><ele>138.6</ele><time>2026-03-28T10:39:11.756Z</time></trkpt><trkpt lat="45.4843025" lon="10.770823"><ele>139.0</ele><time>2026-03-28T10:39:12.757Z</time></trkpt><trkpt lat="45.4843937" lon="10.7708931"><ele>139.0</ele><time>2026-03-28T10:39:13.756Z</time></trkpt><trkpt lat="45.4844901" lon="10.7709871"><ele>139.0</ele><time>2026-03-28T10:39:14.756Z</time></trkpt><trkpt lat="45.484591" lon="10.7710881"><ele>139.0</ele><time>2026-03-28T10:39:15.757Z</time></trkpt><trkpt lat="45.48469" lon="10.7711867"><ele>139.0</ele><time>2026-03-28T10:39:16.756Z</time></trkpt><trkpt lat="45.4847824" lon="10.7712806"><ele>137.75</ele><time>2026-03-28T10:39:17.757Z</time></trkpt><trkpt lat="45.4848873" lon="10.7713805"><ele>136.5</ele><time>2026-03-28T10:39:18.756Z</time></trkpt><trkpt lat="45.4849961" lon="10.7714825"><ele>135.25</ele><time>2026-03-28T10:39:19.757Z</time></trkpt><trkpt lat="45.4851029" lon="10.7715777"><ele>134.0</ele><time>2026-03-28T10:39:20.756Z</time></trkpt><trkpt lat="45.485203" lon="10.7716699"><ele>134.0</ele><time>2026-03-28T10:39:21.756Z</time></trkpt><trkpt lat="45.4852908" lon="10.7717617"><ele>134.0</ele><time>2026-03-28T10:39:22.757Z</time></trkpt><trkpt lat="45.4853747" lon="10.7718447"><ele>134.0</ele><time>2026-03-28T10:39:23.757Z</time></trkpt><trkpt lat="45.4854528" lon="10.7719275"><ele>134.0</ele><time>2026-03-28T10:39:24.757Z</time></trkpt><trkpt lat="45.4855375" lon="10.7720244"><ele>134.0</ele><time>2026-03-28T10:39:25.756Z</time></trkpt><trkpt lat="45.4856168" lon="10.7721078"><ele>134.2</ele><time>2026-03-28T10:39:26.757Z</time></trkpt><trkpt lat="45.4856905" lon="10.7721838"><ele>134.4</ele><time>2026-03-28T10:39:27.756Z</time></trkpt><trkpt lat="45.485764" lon="10.7722596"><ele>134.6</ele><time>2026-03-28T10:39:28.757Z</time></trkpt><trkpt lat="45.4858479" lon="10.7723425"><ele>134.8</ele><time>2026-03-28T10:39:29.756Z</time></trkpt><trkpt lat="45.4859293" lon="10.7724133"><ele>135.0</ele><time>2026-03-28T10:39:30.757Z</time></trkpt><trkpt lat="45.4860108" lon="10.7724954"><ele>135.0</ele><time>2026-03-28T10:39:31.756Z</time></trkpt><trkpt lat="45.4860874" lon="10.7725688"><ele>135.0</ele><time>2026-03-28T10:39:32.756Z</time></trkpt><trkpt lat="45.4861546" lon="10.772636"><ele>135.0</ele><time>2026-03-28T10:39:33.757Z</time></trkpt><trkpt lat="45.4862103" lon="10.7726915"><ele>135.0</ele><time>2026-03-28T10:39:34.756Z</time></trkpt><trkpt lat="45.4863087" lon="10.772722"><ele>135.0</ele><time>2026-03-28T10:39:36.756Z</time></trkpt><trkpt lat="45.4863767" lon="10.7726867"><ele>135.0</ele><time>2026-03-28T10:39:37.757Z</time></trkpt><trkpt lat="45.486454" lon="10.7726219"><ele>135.25</ele><time>2026-03-28T10:39:38.756Z</time></trkpt><trkpt lat="45.4865396" lon="10.7725305"><ele>135.5</ele><time>2026-03-28T10:39:39.757Z</time></trkpt><trkpt lat="45.4866329" lon="10.7724207"><ele>135.75</ele><time>2026-03-28T10:39:40.756Z</time></trkpt><trkpt lat="45.4867348" lon="10.7723016"><ele>136.0</ele><time>2026-03-28T10:39:41.757Z</time></trkpt><trkpt lat="45.4868434" lon="10.7721696"><ele>136.0</ele><time>2026-03-28T10:39:42.756Z</time></trkpt><trkpt lat="45.4869557" lon="10.7720259"><ele>136.0</ele><time>2026-03-28T10:39:43.757Z</time></trkpt><trkpt lat="45.487066" lon="10.7718707"><ele>136.0</ele><time>2026-03-28T10:39:44.756Z</time></trkpt><trkpt lat="45.4871722" lon="10.7716955"><ele>136.0</ele><time>2026-03-28T10:39:45.757Z</time></trkpt><trkpt lat="45.4872709" lon="10.7715055"><ele>136.0</ele><time>2026-03-28T10:39:46.757Z</time></trkpt><trkpt lat="45.4873723" lon="10.7713182"><ele>136.0</ele><time>2026-03-28T10:39:47.756Z</time></trkpt><trkpt lat="45.4874732" lon="10.7711413"><ele>135.75</ele><time>2026-03-28T10:39:48.757Z</time></trkpt><trkpt lat="45.4875627" lon="10.7709767"><ele>135.5</ele><time>2026-03-28T10:39:49.756Z</time></trkpt><trkpt lat="45.4876452" lon="10.7708242"><ele>135.25</ele><time>2026-03-28T10:39:50.757Z</time></trkpt><trkpt lat="45.4877196" lon="10.7706926"><ele>135.0</ele><time>2026-03-28T10:39:51.756Z</time></trkpt><trkpt lat="45.4877856" lon="10.7705912"><ele>135.0</ele><time>2026-03-28T10:39:52.756Z</time></trkpt><trkpt lat="45.4878399" lon="10.7705381"><ele>135.0</ele><time>2026-03-28T10:39:53.757Z</time></trkpt><trkpt lat="45.4879128" lon="10.770509"><ele>135.0</ele><time>2026-03-28T10:39:55.756Z</time></trkpt><trkpt lat="45.4880262" lon="10.7705907"><ele>135.0</ele><time>2026-03-28T10:39:57.757Z</time></trkpt><trkpt lat="45.4880909" lon="10.7706618"><ele>135.0</ele><time>2026-03-28T10:39:58.757Z</time></trkpt><trkpt lat="45.488161" lon="10.7707381"><ele>135.0</ele><time>2026-03-28T10:39:59.756Z</time></trkpt><trkpt lat="45.488221" lon="10.7708088"><ele>135.0</ele><time>2026-03-28T10:40:00.756Z</time></trkpt><trkpt lat="45.4882723" lon="10.770874"><ele>135.0</ele><time>2026-03-28T10:40:01.756Z</time></trkpt><trkpt lat="45.4883442" lon="10.7709614"><ele>135.0</ele><time>2026-03-28T10:40:03.756Z</time></trkpt><trkpt lat="45.4884157" lon="10.7710503"><ele>135.0</ele><time>2026-03-28T10:40:12.756Z</time></trkpt><trkpt lat="45.4884468" lon="10.7711448"><ele>135.0</ele><time>2026-03-28T10:40:14.757Z</time></trkpt><trkpt lat="45.4884324" lon="10.7712929"><ele>135.0</ele><time>2026-03-28T10:40:16.757Z</time></trkpt><trkpt lat="45.4883969" lon="10.7713672"><ele>135.25</ele><time>2026-03-28T10:40:17.756Z</time></trkpt><trkpt lat="45.4883919" lon="10.7715279"><ele>135.5</ele><time>2026-03-28T10:40:19.757Z</time></trkpt><trkpt lat="45.4884868" lon="10.7715823"><ele>135.75</ele><time>2026-03-28T10:40:21.756Z</time></trkpt><trkpt lat="45.4885832" lon="10.7714576"><ele>136.0</ele><time>2026-03-28T10:40:23.756Z</time></trkpt><trkpt lat="45.4886493" lon="10.7713418"><ele>136.0</ele><time>2026-03-28T10:40:24.756Z</time></trkpt><trkpt lat="45.4887312" lon="10.7712135"><ele>136.0</ele><time>2026-03-28T10:40:25.756Z</time></trkpt><trkpt lat="45.4888195" lon="10.7710879"><ele>136.0</ele><time>2026-03-28T10:40:26.758Z</time></trkpt><trkpt lat="45.488923" lon="10.7709803"><ele>136.0</ele><time>2026-03-28T10:40:27.756Z</time></trkpt><trkpt lat="45.4890363" lon="10.7709006"><ele>136.5</ele><time>2026-03-28T10:40:28.757Z</time></trkpt><trkpt lat="45.4891469" lon="10.770854"><ele>137.0</ele><time>2026-03-28T10:40:29.756Z</time></trkpt><trkpt lat="45.4892587" lon="10.7708078"><ele>137.5</ele><time>2026-03-28T10:40:30.756Z</time></trkpt><trkpt lat="45.4893816" lon="10.7707551"><ele>138.0</ele><time>2026-03-28T10:40:31.756Z</time></trkpt><trkpt lat="45.4895166" lon="10.7707046"><ele>138.0</ele><time>2026-03-28T10:40:32.756Z</time></trkpt><trkpt lat="45.4896639" lon="10.7706592"><ele>138.0</ele><time>2026-03-28T10:40:33.757Z</time></trkpt><trkpt lat="45.489824" lon="10.7706155"><ele>138.0</ele><time>2026-03-28T10:40:34.757Z</time></trkpt><trkpt lat="45.4899915" lon="10.7705695"><ele>138.0</ele><time>2026-03-28T10:40:35.756Z</time></trkpt><trkpt lat="45.4901606" lon="10.7705239"><ele>138.0</ele><time>2026-03-28T10:40:36.756Z</time></trkpt><trkpt lat="45.4903213" lon="10.7704812"><ele>138.0</ele><time>2026-03-28T10:40:37.757Z</time></trkpt><trkpt lat="45.4904886" lon="10.7704412"><ele>138.0</ele><time>2026-03-28T10:40:38.756Z</time></trkpt><trkpt lat="45.4906553" lon="10.7704026"><ele>138.0</ele><time>2026-03-28T10:40:39.757Z</time></trkpt><trkpt lat="45.4908223" lon="10.7703635"><ele>138.0</ele><time>2026-03-28T10:40:40.757Z</time></trkpt><trkpt lat="45.4909885" lon="10.7703168"><ele>138.0</ele><time>2026-03-28T10:40:41.756Z</time></trkpt><trkpt lat="45.4911558" lon="10.7702606"><ele>138.0</ele><time>2026-03-28T10:40:42.757Z</time></trkpt><trkpt lat="45.4913192" lon="10.7701944"><ele>138.0</ele><time>2026-03-28T10:40:43.756Z</time></trkpt><trkpt lat="45.4914749" lon="10.7701269"><ele>137.25</ele><time>2026-03-28T10:40:44.757Z</time></trkpt><trkpt lat="45.4916184" lon="10.7700673"><ele>136.5</ele><time>2026-03-28T10:40:45.757Z</time></trkpt><trkpt lat="45.4917544" lon="10.7700084"><ele>135.75</ele><time>2026-03-28T10:40:46.757Z</time></trkpt><trkpt lat="45.4918819" lon="10.7699462"><ele>135.0</ele><time>2026-03-28T10:40:47.756Z</time></trkpt><trkpt lat="45.4920018" lon="10.7698788"><ele>134.6</ele><time>2026-03-28T10:40:48.758Z</time></trkpt><trkpt lat="45.4921075" lon="10.76981"><ele>134.2</ele><time>2026-03-28T10:40:49.756Z</time></trkpt><trkpt lat="45.4921981" lon="10.7697442"><ele>133.8</ele><time>2026-03-28T10:40:50.756Z</time></trkpt><trkpt lat="45.4922823" lon="10.7696806"><ele>133.4</ele><time>2026-03-28T10:40:51.756Z</time></trkpt><trkpt lat="45.4923598" lon="10.7696198"><ele>133.0</ele><time>2026-03-28T10:40:52.756Z</time></trkpt><trkpt lat="45.4924264" lon="10.7695682"><ele>133.0</ele><time>2026-03-28T10:40:53.757Z</time></trkpt><trkpt lat="45.4925192" lon="10.7695477"><ele>133.0</ele><time>2026-03-28T10:40:55.756Z</time></trkpt><trkpt lat="45.4925866" lon="10.7696137"><ele>133.0</ele><time>2026-03-28T10:40:57.757Z</time></trkpt><trkpt lat="45.4926468" lon="10.7697676"><ele>133.0</ele><time>2026-03-28T10:40:59.757Z</time></trkpt><trkpt lat="45.4926785" lon="10.7698577"><ele>133.0</ele><time>2026-03-28T10:41:00.756Z</time></trkpt><trkpt lat="45.4927189" lon="10.7699575"><ele>133.0</ele><time>2026-03-28T10:41:01.757Z</time></trkpt><trkpt lat="45.4927718" lon="10.7700572"><ele>133.0</ele><time>2026-03-28T10:41:02.756Z</time></trkpt><trkpt lat="45.4928221" lon="10.7701545"><ele>133.0</ele><time>2026-03-28T10:41:03.757Z</time></trkpt><trkpt lat="45.4928735" lon="10.7702552"><ele>133.0</ele><time>2026-03-28T10:41:04.757Z</time></trkpt><trkpt lat="45.4929246" lon="10.7703684"><ele>133.0</ele><time>2026-03-28T10:41:05.756Z</time></trkpt><trkpt lat="45.4929749" lon="10.7704907"><ele>133.0</ele><time>2026-03-28T10:41:06.756Z</time></trkpt><trkpt lat="45.4930312" lon="10.7706264"><ele>133.0</ele><time>2026-03-28T10:41:07.756Z</time></trkpt><trkpt lat="45.4930927" lon="10.7707455"><ele>133.0</ele><time>2026-03-28T10:41:08.757Z</time></trkpt><trkpt lat="45.4931531" lon="10.7708623"><ele>133.0</ele><time>2026-03-28T10:41:09.756Z</time></trkpt><trkpt lat="45.4932175" lon="10.7709655"><ele>133.0</ele><time>2026-03-28T10:41:10.757Z</time></trkpt><trkpt lat="45.4932805" lon="10.7710563"><ele>133.8</ele><time>2026-03-28T10:41:11.757Z</time></trkpt><trkpt lat="45.4933508" lon="10.7711209"><ele>134.60000000000002</ele><time>2026-03-28T10:41:12.758Z</time></trkpt><trkpt lat="45.4934342" lon="10.7711529"><ele>135.39999999999998</ele><time>2026-03-28T10:41:13.756Z</time></trkpt><trkpt lat="45.4935335" lon="10.7711548"><ele>136.2</ele><time>2026-03-28T10:41:14.756Z</time></trkpt><trkpt lat="45.49364" lon="10.7711403"><ele>137.0</ele><time>2026-03-28T10:41:15.756Z</time></trkpt><trkpt lat="45.4937495" lon="10.7711352"><ele>137.0</ele><time>2026-03-28T10:41:16.756Z</time></trkpt><trkpt lat="45.4938613" lon="10.7711411"><ele>137.0</ele><time>2026-03-28T10:41:17.757Z</time></trkpt><trkpt lat="45.4939666" lon="10.7711605"><ele>137.0</ele><time>2026-03-28T10:41:18.756Z</time></trkpt><trkpt lat="45.4940667" lon="10.7711797"><ele>137.0</ele><time>2026-03-28T10:41:19.756Z</time></trkpt><trkpt lat="45.4941605" lon="10.7711845"><ele>137.0</ele><time>2026-03-28T10:41:20.757Z</time></trkpt><trkpt lat="45.4942368" lon="10.7712065"><ele>137.0</ele><time>2026-03-28T10:41:21.757Z</time></trkpt><trkpt lat="45.4943361" lon="10.7712869"><ele>137.0</ele><time>2026-03-28T10:41:23.756Z</time></trkpt><trkpt lat="45.4943584" lon="10.7714549"><ele>137.0</ele><time>2026-03-28T10:41:25.756Z</time></trkpt><trkpt lat="45.4943567" lon="10.7715952"><ele>137.0</ele><time>2026-03-28T10:41:26.757Z</time></trkpt><trkpt lat="45.4943607" lon="10.7717594"><ele>137.0</ele><time>2026-03-28T10:41:27.756Z</time></trkpt><trkpt lat="45.4943691" lon="10.7719437"><ele>137.0</ele><time>2026-03-28T10:41:28.758Z</time></trkpt><trkpt lat="45.494379" lon="10.772122"><ele>137.0</ele><time>2026-03-28T10:41:29.756Z</time></trkpt><trkpt lat="45.4943914" lon="10.7722999"><ele>137.0</ele><time>2026-03-28T10:41:30.756Z</time></trkpt><trkpt lat="45.4944056" lon="10.7724644"><ele>137.0</ele><time>2026-03-28T10:41:31.757Z</time></trkpt><trkpt lat="45.4944176" lon="10.7726271"><ele>137.25</ele><time>2026-03-28T10:41:32.757Z</time></trkpt><trkpt lat="45.4944286" lon="10.7727997"><ele>137.5</ele><time>2026-03-28T10:41:33.756Z</time></trkpt><trkpt lat="45.4944435" lon="10.7729749"><ele>137.75</ele><time>2026-03-28T10:41:34.757Z</time></trkpt><trkpt lat="45.4944613" lon="10.7731541"><ele>138.0</ele><time>2026-03-28T10:41:35.756Z</time></trkpt><trkpt lat="45.4944748" lon="10.7733309"><ele>138.0</ele><time>2026-03-28T10:41:36.757Z</time></trkpt><trkpt lat="45.4944858" lon="10.7735062"><ele>138.0</ele><time>2026-03-28T10:41:37.757Z</time></trkpt><trkpt lat="45.4945007" lon="10.7736881"><ele>138.0</ele><time>2026-03-28T10:41:38.756Z</time></trkpt><trkpt lat="45.4945186" lon="10.7738698"><ele>138.0</ele><time>2026-03-28T10:41:39.757Z</time></trkpt><trkpt lat="45.4945445" lon="10.7740507"><ele>138.8</ele><time>2026-03-28T10:41:40.756Z</time></trkpt><trkpt lat="45.4945699" lon="10.7742289"><ele>139.60000000000002</ele><time>2026-03-28T10:41:41.757Z</time></trkpt><trkpt lat="45.494593" lon="10.774393"><ele>140.39999999999998</ele><time>2026-03-28T10:41:42.756Z</time></trkpt><trkpt lat="45.4946149" lon="10.7745434"><ele>141.2</ele><time>2026-03-28T10:41:43.757Z</time></trkpt><trkpt lat="45.4946258" lon="10.7746783"><ele>142.0</ele><time>2026-03-28T10:41:44.756Z</time></trkpt><trkpt lat="45.4946337" lon="10.7747878"><ele>143.2</ele><time>2026-03-28T10:41:45.757Z</time></trkpt><trkpt lat="45.4946456" lon="10.7748879"><ele>144.39999999999998</ele><time>2026-03-28T10:41:46.756Z</time></trkpt><trkpt lat="45.4946548" lon="10.775018"><ele>145.60000000000002</ele><time>2026-03-28T10:41:47.757Z</time></trkpt><trkpt lat="45.4946549" lon="10.7751607"><ele>146.8</ele><time>2026-03-28T10:41:48.756Z</time></trkpt><trkpt lat="45.4946543" lon="10.7753151"><ele>148.0</ele><time>2026-03-28T10:41:49.757Z</time></trkpt><trkpt lat="45.494663" lon="10.7754722"><ele>148.0</ele><time>2026-03-28T10:41:50.756Z</time></trkpt><trkpt lat="45.4946727" lon="10.7756246"><ele>148.0</ele><time>2026-03-28T10:41:51.757Z</time></trkpt><trkpt lat="45.4946824" lon="10.7757672"><ele>148.0</ele><time>2026-03-28T10:41:52.757Z</time></trkpt><trkpt lat="45.4946872" lon="10.7759111"><ele>148.0</ele><time>2026-03-28T10:41:53.756Z</time></trkpt><trkpt lat="45.4946891" lon="10.7760472"><ele>148.0</ele><time>2026-03-28T10:41:54.757Z</time></trkpt><trkpt lat="45.4946954" lon="10.7761769"><ele>148.33333333333334</ele><time>2026-03-28T10:41:55.756Z</time></trkpt><trkpt lat="45.4947095" lon="10.7762828"><ele>148.66666666666669</ele><time>2026-03-28T10:41:56.756Z</time></trkpt><trkpt lat="45.4947572" lon="10.7764264"><ele>149.0</ele><time>2026-03-28T10:41:58.756Z</time></trkpt><trkpt lat="45.4948037" lon="10.7764901"><ele>149.33333333333334</ele><time>2026-03-28T10:41:59.757Z</time></trkpt><trkpt lat="45.4948755" lon="10.77656"><ele>149.66666666666666</ele><time>2026-03-28T10:42:00.756Z</time></trkpt><trkpt lat="45.4949455" lon="10.7766351"><ele>150.0</ele><time>2026-03-28T10:42:01.757Z</time></trkpt><trkpt lat="45.4950192" lon="10.7767158"><ele>150.0</ele><time>2026-03-28T10:42:02.756Z</time></trkpt><trkpt lat="45.4950962" lon="10.7767844"><ele>150.0</ele><time>2026-03-28T10:42:03.757Z</time></trkpt><trkpt lat="45.4951861" lon="10.7768565"><ele>150.0</ele><time>2026-03-28T10:42:04.756Z</time></trkpt><trkpt lat="45.4952689" lon="10.7769282"><ele>150.0</ele><time>2026-03-28T10:42:05.757Z</time></trkpt><trkpt lat="45.4953423" lon="10.7769975"><ele>150.0</ele><time>2026-03-28T10:42:06.756Z</time></trkpt><trkpt lat="45.4954082" lon="10.7770658"><ele>149.33333333333334</ele><time>2026-03-28T10:42:07.757Z</time></trkpt><trkpt lat="45.4954752" lon="10.7771463"><ele>148.66666666666666</ele><time>2026-03-28T10:42:08.757Z</time></trkpt><trkpt lat="45.4955391" lon="10.7772375"><ele>148.0</ele><time>2026-03-28T10:42:09.756Z</time></trkpt><trkpt lat="45.495603" lon="10.7773277"><ele>147.33333333333331</ele><time>2026-03-28T10:42:10.757Z</time></trkpt><trkpt lat="45.495663" lon="10.7774196"><ele>146.66666666666666</ele><time>2026-03-28T10:42:11.756Z</time></trkpt><trkpt lat="45.4957076" lon="10.7775083"><ele>146.0</ele><time>2026-03-28T10:42:12.757Z</time></trkpt><trkpt lat="45.4957427" lon="10.7776044"><ele>144.8</ele><time>2026-03-28T10:42:13.757Z</time></trkpt><trkpt lat="45.4957713" lon="10.7777103"><ele>143.6</ele><time>2026-03-28T10:42:14.756Z</time></trkpt><trkpt lat="45.4957967" lon="10.7777963"><ele>142.4</ele><time>2026-03-28T10:42:15.757Z</time></trkpt><trkpt lat="45.4958733" lon="10.7779163"><ele>141.2</ele><time>2026-03-28T10:42:17.757Z</time></trkpt><trkpt lat="45.4959933" lon="10.7779309"><ele>140.0</ele><time>2026-03-28T10:42:19.757Z</time></trkpt><trkpt lat="45.4961182" lon="10.7778924"><ele>140.0</ele><time>2026-03-28T10:42:21.756Z</time></trkpt><trkpt lat="45.4962225" lon="10.7778708"><ele>140.0</ele><time>2026-03-28T10:42:23.756Z</time></trkpt><trkpt lat="45.4963309" lon="10.7778599"><ele>140.0</ele><time>2026-03-28T10:42:25.756Z</time></trkpt><trkpt lat="45.4964342" lon="10.7778604"><ele>140.0</ele><time>2026-03-28T10:42:27.756Z</time></trkpt><trkpt lat="45.4965417" lon="10.7778532"><ele>140.0</ele><time>2026-03-28T10:42:29.756Z</time></trkpt><trkpt lat="45.4966435" lon="10.7778373"><ele>139.8</ele><time>2026-03-28T10:42:31.756Z</time></trkpt><trkpt lat="45.4967511" lon="10.7778363"><ele>139.6</ele><time>2026-03-28T10:42:33.757Z</time></trkpt><trkpt lat="45.4968612" lon="10.7779045"><ele>139.4</ele><time>2026-03-28T10:42:35.756Z</time></trkpt><trkpt lat="45.4969129" lon="10.77796"><ele>139.2</ele><time>2026-03-28T10:42:36.757Z</time></trkpt><trkpt lat="45.4969979" lon="10.7780605"><ele>139.0</ele><time>2026-03-28T10:42:38.757Z</time></trkpt><trkpt lat="45.4970684" lon="10.7781416"><ele>139.16666666666669</ele><time>2026-03-28T10:42:40.756Z</time></trkpt><trkpt lat="45.4971492" lon="10.7781877"><ele>139.33333333333334</ele><time>2026-03-28T10:42:42.756Z</time></trkpt><trkpt lat="45.4972294" lon="10.7782382"><ele>139.5</ele><time>2026-03-28T10:42:44.756Z</time></trkpt><trkpt lat="45.4972333" lon="10.7783517"><ele>139.66666666666666</ele><time>2026-03-28T10:42:46.756Z</time></trkpt><trkpt lat="45.4972156" lon="10.7784395"><ele>139.83333333333331</ele><time>2026-03-28T10:42:47.757Z</time></trkpt><trkpt lat="45.4971868" lon="10.778563"><ele>140.0</ele><time>2026-03-28T10:42:48.756Z</time></trkpt><trkpt lat="45.4971561" lon="10.7787009"><ele>140.0</ele><time>2026-03-28T10:42:49.757Z</time></trkpt><trkpt lat="45.4971256" lon="10.7788548"><ele>140.0</ele><time>2026-03-28T10:42:50.756Z</time></trkpt><trkpt lat="45.4970956" lon="10.7790092"><ele>140.0</ele><time>2026-03-28T10:42:51.757Z</time></trkpt><trkpt lat="45.497065" lon="10.7791608"><ele>140.0</ele><time>2026-03-28T10:42:52.757Z</time></trkpt><trkpt lat="45.49704" lon="10.7793054"><ele>140.0</ele><time>2026-03-28T10:42:53.756Z</time></trkpt><trkpt lat="45.4970215" lon="10.7794465"><ele>139.0</ele><time>2026-03-28T10:42:54.756Z</time></trkpt><trkpt lat="45.4970052" lon="10.7795951"><ele>138.0</ele><time>2026-03-28T10:42:55.757Z</time></trkpt><trkpt lat="45.4969934" lon="10.779743"><ele>137.0</ele><time>2026-03-28T10:42:56.756Z</time></trkpt><trkpt lat="45.496985" lon="10.7798965"><ele>136.0</ele><time>2026-03-28T10:42:57.757Z</time></trkpt><trkpt lat="45.4969811" lon="10.7800539"><ele>135.0</ele><time>2026-03-28T10:42:58.756Z</time></trkpt><trkpt lat="45.4969794" lon="10.7802078"><ele>135.0</ele><time>2026-03-28T10:42:59.757Z</time></trkpt><trkpt lat="45.496979" lon="10.7803489"><ele>135.0</ele><time>2026-03-28T10:43:00.756Z</time></trkpt><trkpt lat="45.4969745" lon="10.7804884"><ele>135.0</ele><time>2026-03-28T10:43:01.758Z</time></trkpt><trkpt lat="45.4969619" lon="10.7806263"><ele>135.0</ele><time>2026-03-28T10:43:02.757Z</time></trkpt><trkpt lat="45.4969355" lon="10.7807599"><ele>135.0</ele><time>2026-03-28T10:43:03.756Z</time></trkpt><trkpt lat="45.4969037" lon="10.7808741"><ele>135.0</ele><time>2026-03-28T10:43:04.757Z</time></trkpt><trkpt lat="45.4968762" lon="10.7809693"><ele>135.0</ele><time>2026-03-28T10:43:05.756Z</time></trkpt><trkpt lat="45.4968886" lon="10.7811037"><ele>135.0</ele><time>2026-03-28T10:43:07.757Z</time></trkpt><trkpt lat="45.4969822" lon="10.781149"><ele>135.0</ele><time>2026-03-28T10:43:09.757Z</time></trkpt><trkpt lat="45.4970685" lon="10.7811543"><ele>135.0</ele><time>2026-03-28T10:43:10.757Z</time></trkpt><trkpt lat="45.4971732" lon="10.7811588"><ele>136.2</ele><time>2026-03-28T10:43:11.756Z</time></trkpt><trkpt lat="45.4972809" lon="10.781165"><ele>137.4</ele><time>2026-03-28T10:43:12.757Z</time></trkpt><trkpt lat="45.497391" lon="10.7811694"><ele>138.6</ele><time>2026-03-28T10:43:13.757Z</time></trkpt><trkpt lat="45.4975064" lon="10.7811739"><ele>139.8</ele><time>2026-03-28T10:43:14.757Z</time></trkpt><trkpt lat="45.497608" lon="10.7811733"><ele>141.0</ele><time>2026-03-28T10:43:15.757Z</time></trkpt><trkpt lat="45.4976979" lon="10.7811774"><ele>141.0</ele><time>2026-03-28T10:43:16.757Z</time></trkpt><trkpt lat="45.4977783" lon="10.7811863"><ele>141.0</ele><time>2026-03-28T10:43:17.756Z</time></trkpt><trkpt lat="45.497846" lon="10.7812014"><ele>141.0</ele><time>2026-03-28T10:43:18.756Z</time></trkpt><trkpt lat="45.4979323" lon="10.781354"><ele>141.0</ele><time>2026-03-28T10:43:20.756Z</time></trkpt><trkpt lat="45.4979474" lon="10.7814935"><ele>141.0</ele><time>2026-03-28T10:43:21.756Z</time></trkpt><trkpt lat="45.4979505" lon="10.7816664"><ele>144.25</ele><time>2026-03-28T10:43:22.757Z</time></trkpt><trkpt lat="45.4979629" lon="10.7818576"><ele>147.5</ele><time>2026-03-28T10:43:23.757Z</time></trkpt><trkpt lat="45.4979762" lon="10.7820352"><ele>150.75</ele><time>2026-03-28T10:43:24.756Z</time></trkpt><trkpt lat="45.4979844" lon="10.7821967"><ele>154.0</ele><time>2026-03-28T10:43:25.757Z</time></trkpt><trkpt lat="45.4979934" lon="10.7823473"><ele>154.0</ele><time>2026-03-28T10:43:26.757Z</time></trkpt><trkpt lat="45.4980082" lon="10.7825051"><ele>154.0</ele><time>2026-03-28T10:43:27.757Z</time></trkpt><trkpt lat="45.4980254" lon="10.7826578"><ele>154.0</ele><time>2026-03-28T10:43:28.756Z</time></trkpt><trkpt lat="45.4980428" lon="10.7828069"><ele>154.0</ele><time>2026-03-28T10:43:29.757Z</time></trkpt><trkpt lat="45.498054" lon="10.7829557"><ele>154.0</ele><time>2026-03-28T10:43:30.757Z</time></trkpt><trkpt lat="45.4980617" lon="10.7831056"><ele>154.0</ele><time>2026-03-28T10:43:31.756Z</time></trkpt><trkpt lat="45.4980975" lon="10.7832473"><ele>154.0</ele><time>2026-03-28T10:43:32.757Z</time></trkpt><trkpt lat="45.4981605" lon="10.7833765"><ele>154.0</ele><time>2026-03-28T10:43:33.756Z</time></trkpt><trkpt lat="45.49821" lon="10.7835135"><ele>154.0</ele><time>2026-03-28T10:43:34.757Z</time></trkpt><trkpt lat="45.4982232" lon="10.7836569"><ele>154.0</ele><time>2026-03-28T10:43:35.756Z</time></trkpt><trkpt lat="45.4982243" lon="10.7837758"><ele>154.33333333333334</ele><time>2026-03-28T10:43:36.756Z</time></trkpt><trkpt lat="45.4982191" lon="10.7838701"><ele>154.66666666666669</ele><time>2026-03-28T10:43:37.757Z</time></trkpt><trkpt lat="45.4982064" lon="10.7839699"><ele>155.0</ele><time>2026-03-28T10:43:39.757Z</time></trkpt><trkpt lat="45.4982363" lon="10.7841012"><ele>155.33333333333334</ele><time>2026-03-28T10:43:42.758Z</time></trkpt><trkpt lat="45.4983671" lon="10.7841215"><ele>155.66666666666666</ele><time>2026-03-28T10:43:44.756Z</time></trkpt><trkpt lat="45.4984456" lon="10.7841159"><ele>156.0</ele><time>2026-03-28T10:43:45.757Z</time></trkpt><trkpt lat="45.498538" lon="10.784113"><ele>156.0</ele><time>2026-03-28T10:43:46.756Z</time></trkpt><trkpt lat="45.4986343" lon="10.7841096"><ele>156.0</ele><time>2026-03-28T10:43:47.756Z</time></trkpt><trkpt lat="45.4987319" lon="10.7841106"><ele>156.0</ele><time>2026-03-28T10:43:48.757Z</time></trkpt><trkpt lat="45.498826" lon="10.7841186"><ele>156.0</ele><time>2026-03-28T10:43:49.756Z</time></trkpt><trkpt lat="45.4989188" lon="10.7841271"><ele>156.0</ele><time>2026-03-28T10:43:50.758Z</time></trkpt><trkpt lat="45.4990135" lon="10.7841348"><ele>156.2</ele><time>2026-03-28T10:43:51.756Z</time></trkpt><trkpt lat="45.4991102" lon="10.7841394"><ele>156.39999999999998</ele><time>2026-03-28T10:43:52.756Z</time></trkpt><trkpt lat="45.4992075" lon="10.7841402"><ele>156.6</ele><time>2026-03-28T10:43:53.757Z</time></trkpt><trkpt lat="45.4993056" lon="10.7841359"><ele>156.79999999999998</ele><time>2026-03-28T10:43:54.756Z</time></trkpt><trkpt lat="45.4994075" lon="10.7841333"><ele>157.0</ele><time>2026-03-28T10:43:55.756Z</time></trkpt><trkpt lat="45.4995109" lon="10.7841263"><ele>157.4</ele><time>2026-03-28T10:43:56.756Z</time></trkpt><trkpt lat="45.4996128" lon="10.7840871"><ele>157.79999999999998</ele><time>2026-03-28T10:43:57.756Z</time></trkpt><trkpt lat="45.4997093" lon="10.7840161"><ele>158.2</ele><time>2026-03-28T10:43:58.756Z</time></trkpt><trkpt lat="45.4997984" lon="10.7839282"><ele>158.6</ele><time>2026-03-28T10:43:59.757Z</time></trkpt><trkpt lat="45.4998914" lon="10.7838543"><ele>159.0</ele><time>2026-03-28T10:44:00.757Z</time></trkpt><trkpt lat="45.4999797" lon="10.7837908"><ele>159.0</ele><time>2026-03-28T10:44:01.756Z</time></trkpt><trkpt lat="45.500062" lon="10.7837113"><ele>159.0</ele><time>2026-03-28T10:44:02.757Z</time></trkpt><trkpt lat="45.5001431" lon="10.7836372"><ele>159.0</ele><time>2026-03-28T10:44:03.756Z</time></trkpt><trkpt lat="45.5002194" lon="10.7835789"><ele>159.0</ele><time>2026-03-28T10:44:04.757Z</time></trkpt><trkpt lat="45.5002859" lon="10.7834936"><ele>159.0</ele><time>2026-03-28T10:44:05.756Z</time></trkpt><trkpt lat="45.5003369" lon="10.78339"><ele>158.85714285714286</ele><time>2026-03-28T10:44:06.756Z</time></trkpt><trkpt lat="45.5003787" lon="10.7832921"><ele>158.71428571428572</ele><time>2026-03-28T10:44:07.757Z</time></trkpt><trkpt lat="45.5004173" lon="10.7832018"><ele>158.57142857142858</ele><time>2026-03-28T10:44:08.757Z</time></trkpt><trkpt lat="45.5004571" lon="10.7831165"><ele>158.42857142857144</ele><time>2026-03-28T10:44:09.756Z</time></trkpt><trkpt lat="45.500501" lon="10.7830298"><ele>158.28571428571428</ele><time>2026-03-28T10:44:10.757Z</time></trkpt><trkpt lat="45.5005498" lon="10.7829517"><ele>158.14285714285717</ele><time>2026-03-28T10:44:11.757Z</time></trkpt><trkpt lat="45.5006026" lon="10.7828861"><ele>158.0</ele><time>2026-03-28T10:44:12.756Z</time></trkpt><trkpt lat="45.5007159" lon="10.7828138"><ele>158.33333333333331</ele><time>2026-03-28T10:44:14.756Z</time></trkpt><trkpt lat="45.500844" lon="10.7827835"><ele>158.66666666666666</ele><time>2026-03-28T10:44:16.756Z</time></trkpt><trkpt lat="45.5009097" lon="10.7827902"><ele>159.0</ele><time>2026-03-28T10:44:17.757Z</time></trkpt><trkpt lat="45.5009808" lon="10.782785"><ele>159.33333333333334</ele><time>2026-03-28T10:44:18.756Z</time></trkpt><trkpt lat="45.5010609" lon="10.7827691"><ele>159.66666666666669</ele><time>2026-03-28T10:44:19.757Z</time></trkpt><trkpt lat="45.5011462" lon="10.7827545"><ele>160.0</ele><time>2026-03-28T10:44:20.756Z</time></trkpt><trkpt lat="45.5012315" lon="10.7827417"><ele>160.14285714285714</ele><time>2026-03-28T10:44:21.757Z</time></trkpt><trkpt lat="45.5013044" lon="10.7827278"><ele>160.28571428571428</ele><time>2026-03-28T10:44:22.756Z</time></trkpt><trkpt lat="45.5013744" lon="10.7827143"><ele>160.42857142857144</ele><time>2026-03-28T10:44:23.756Z</time></trkpt><trkpt lat="45.5014476" lon="10.7826982"><ele>160.57142857142856</ele><time>2026-03-28T10:44:24.756Z</time></trkpt><trkpt lat="45.5015211" lon="10.7826854"><ele>160.71428571428572</ele><time>2026-03-28T10:44:25.757Z</time></trkpt><trkpt lat="45.5015866" lon="10.7826812"><ele>160.85714285714286</ele><time>2026-03-28T10:44:26.756Z</time></trkpt><trkpt lat="45.50165" lon="10.7826845"><ele>161.0</ele><time>2026-03-28T10:44:27.757Z</time></trkpt><trkpt lat="45.5017141" lon="10.7826957"><ele>161.0</ele><time>2026-03-28T10:44:28.756Z</time></trkpt><trkpt lat="45.5017795" lon="10.7827084"><ele>161.0</ele><time>2026-03-28T10:44:29.756Z</time></trkpt><trkpt lat="45.5018984" lon="10.7827475"><ele>161.0</ele><time>2026-03-28T10:44:31.757Z</time></trkpt><trkpt lat="45.5019602" lon="10.7827757"><ele>161.0</ele><time>2026-03-28T10:44:32.756Z</time></trkpt><trkpt lat="45.5020211" lon="10.7828127"><ele>161.0</ele><time>2026-03-28T10:44:33.757Z</time></trkpt><trkpt lat="45.5020829" lon="10.7828581"><ele>161.0</ele><time>2026-03-28T10:44:34.756Z</time></trkpt><trkpt lat="45.5022043" lon="10.7829354"><ele>160.28571428571428</ele><time>2026-03-28T10:44:36.757Z</time></trkpt><trkpt lat="45.5022673" lon="10.7829688"><ele>159.57142857142856</ele><time>2026-03-28T10:44:37.755Z</time></trkpt><trkpt lat="45.5023339" lon="10.7829827"><ele>158.85714285714286</ele><time>2026-03-28T10:44:38.756Z</time></trkpt><trkpt lat="45.5024049" lon="10.7829871"><ele>158.14285714285714</ele><time>2026-03-28T10:44:39.755Z</time></trkpt><trkpt lat="45.5024774" lon="10.7829794"><ele>157.42857142857142</ele><time>2026-03-28T10:44:40.756Z</time></trkpt><trkpt lat="45.5025532" lon="10.7829764"><ele>156.71428571428572</ele><time>2026-03-28T10:44:41.755Z</time></trkpt><trkpt lat="45.5026277" lon="10.7829654"><ele>156.0</ele><time>2026-03-28T10:44:42.755Z</time></trkpt><trkpt lat="45.5027037" lon="10.7829542"><ele>156.0</ele><time>2026-03-28T10:44:43.755Z</time></trkpt><trkpt lat="45.5027763" lon="10.782949"><ele>156.0</ele><time>2026-03-28T10:44:44.756Z</time></trkpt><trkpt lat="45.5028459" lon="10.7829511"><ele>156.0</ele><time>2026-03-28T10:44:45.756Z</time></trkpt><trkpt lat="45.5029128" lon="10.7829656"><ele>156.0</ele><time>2026-03-28T10:44:46.755Z</time></trkpt><trkpt lat="45.5029782" lon="10.7829931"><ele>156.0</ele><time>2026-03-28T10:44:47.756Z</time></trkpt><trkpt lat="45.5030495" lon="10.783012"><ele>156.0</ele><time>2026-03-28T10:44:48.756Z</time></trkpt><trkpt lat="45.5031297" lon="10.7830169"><ele>156.0</ele><time>2026-03-28T10:44:49.755Z</time></trkpt><trkpt lat="45.5032175" lon="10.7830184"><ele>155.5</ele><time>2026-03-28T10:44:50.755Z</time></trkpt><trkpt lat="45.5033017" lon="10.783035"><ele>155.0</ele><time>2026-03-28T10:44:51.756Z</time></trkpt><trkpt lat="45.5033806" lon="10.783057"><ele>154.5</ele><time>2026-03-28T10:44:52.755Z</time></trkpt><trkpt lat="45.5034547" lon="10.7830863"><ele>154.0</ele><time>2026-03-28T10:44:53.755Z</time></trkpt><trkpt lat="45.5035345" lon="10.783098"><ele>153.5</ele><time>2026-03-28T10:44:54.755Z</time></trkpt><trkpt lat="45.5036118" lon="10.7830986"><ele>153.0</ele><time>2026-03-28T10:44:55.755Z</time></trkpt><trkpt lat="45.5036882" lon="10.7830903"><ele>153.5</ele><time>2026-03-28T10:44:56.756Z</time></trkpt><trkpt lat="45.5037661" lon="10.7830679"><ele>154.0</ele><time>2026-03-28T10:44:57.756Z</time></trkpt><trkpt lat="45.5038482" lon="10.7830484"><ele>154.5</ele><time>2026-03-28T10:44:58.755Z</time></trkpt><trkpt lat="45.5039353" lon="10.7830346"><ele>155.0</ele><time>2026-03-28T10:44:59.756Z</time></trkpt><trkpt lat="45.504026" lon="10.7830212"><ele>155.5</ele><time>2026-03-28T10:45:00.755Z</time></trkpt><trkpt lat="45.5041201" lon="10.7830157"><ele>156.0</ele><time>2026-03-28T10:45:01.756Z</time></trkpt><trkpt lat="45.5042027" lon="10.7830041"><ele>156.0</ele><time>2026-03-28T10:45:02.755Z</time></trkpt><trkpt lat="45.5042799" lon="10.7829923"><ele>156.0</ele><time>2026-03-28T10:45:03.756Z</time></trkpt><trkpt lat="45.5043539" lon="10.7829841"><ele>156.0</ele><time>2026-03-28T10:45:04.755Z</time></trkpt><trkpt lat="45.504418" lon="10.7829813"><ele>156.0</ele><time>2026-03-28T10:45:05.755Z</time></trkpt><trkpt lat="45.5045254" lon="10.7830027"><ele>156.0</ele><time>2026-03-28T10:45:07.755Z</time></trkpt><trkpt lat="45.5046221" lon="10.783058"><ele>156.0</ele><time>2026-03-28T10:45:09.755Z</time></trkpt><trkpt lat="45.5047231" lon="10.7831262"><ele>155.2</ele><time>2026-03-28T10:45:11.756Z</time></trkpt><trkpt lat="45.5048364" lon="10.7831781"><ele>154.39999999999998</ele><time>2026-03-28T10:45:13.756Z</time></trkpt><trkpt lat="45.5049547" lon="10.7831843"><ele>153.6</ele><time>2026-03-28T10:45:15.755Z</time></trkpt><trkpt lat="45.5050683" lon="10.7831792"><ele>152.79999999999998</ele><time>2026-03-28T10:45:17.755Z</time></trkpt><trkpt lat="45.5051581" lon="10.7832084"><ele>152.0</ele><time>2026-03-28T10:45:19.756Z</time></trkpt><trkpt lat="45.5052147" lon="10.783307"><ele>152.0</ele><time>2026-03-28T10:45:21.755Z</time></trkpt><trkpt lat="45.5052348" lon="10.7834412"><ele>152.0</ele><time>2026-03-28T10:45:23.756Z</time></trkpt><trkpt lat="45.5052412" lon="10.7835418"><ele>152.0</ele><time>2026-03-28T10:45:24.756Z</time></trkpt><trkpt lat="45.5052381" lon="10.7836571"><ele>152.0</ele><time>2026-03-28T10:45:25.755Z</time></trkpt><trkpt lat="45.5052348" lon="10.7837779"><ele>152.0</ele><time>2026-03-28T10:45:26.755Z</time></trkpt><trkpt lat="45.5052389" lon="10.7838897"><ele>152.0</ele><time>2026-03-28T10:45:27.756Z</time></trkpt><trkpt lat="45.5052364" lon="10.7839852"><ele>151.83333333333331</ele><time>2026-03-28T10:45:28.755Z</time></trkpt><trkpt lat="45.5052321" lon="10.7840918"><ele>151.66666666666666</ele><time>2026-03-28T10:45:29.755Z</time></trkpt><trkpt lat="45.5052284" lon="10.7841905"><ele>151.5</ele><time>2026-03-28T10:45:30.755Z</time></trkpt><trkpt lat="45.5052295" lon="10.7842952"><ele>151.33333333333334</ele><time>2026-03-28T10:45:31.755Z</time></trkpt><trkpt lat="45.5052608" lon="10.7843869"><ele>151.16666666666669</ele><time>2026-03-28T10:45:32.756Z</time></trkpt><trkpt lat="45.5052985" lon="10.7844954"><ele>151.0</ele><time>2026-03-28T10:45:33.755Z</time></trkpt><trkpt lat="45.5053292" lon="10.784602"><ele>150.8</ele><time>2026-03-28T10:45:34.756Z</time></trkpt><trkpt lat="45.5053533" lon="10.7847265"><ele>150.6</ele><time>2026-03-28T10:45:35.755Z</time></trkpt><trkpt lat="45.505372" lon="10.784861"><ele>150.4</ele><time>2026-03-28T10:45:36.755Z</time></trkpt><trkpt lat="45.505384" lon="10.7850069"><ele>150.2</ele><time>2026-03-28T10:45:37.755Z</time></trkpt><trkpt lat="45.5054015" lon="10.785162"><ele>150.0</ele><time>2026-03-28T10:45:38.756Z</time></trkpt><trkpt lat="45.5054192" lon="10.7853216"><ele>149.75</ele><time>2026-03-28T10:45:39.755Z</time></trkpt><trkpt lat="45.505436" lon="10.7854819"><ele>149.5</ele><time>2026-03-28T10:45:40.755Z</time></trkpt><trkpt lat="45.5054577" lon="10.7856453"><ele>149.25</ele><time>2026-03-28T10:45:41.756Z</time></trkpt><trkpt lat="45.5054761" lon="10.7858101"><ele>149.0</ele><time>2026-03-28T10:45:42.756Z</time></trkpt><trkpt lat="45.5054947" lon="10.7859767"><ele>148.75</ele><time>2026-03-28T10:45:43.756Z</time></trkpt><trkpt lat="45.5055144" lon="10.7861506"><ele>148.5</ele><time>2026-03-28T10:45:44.755Z</time></trkpt><trkpt lat="45.5055353" lon="10.7863446"><ele>148.25</ele><time>2026-03-28T10:45:45.755Z</time></trkpt><trkpt lat="45.5055613" lon="10.7865461"><ele>148.0</ele><time>2026-03-28T10:45:46.755Z</time></trkpt><trkpt lat="45.5055876" lon="10.7867295"><ele>147.25</ele><time>2026-03-28T10:45:47.755Z</time></trkpt><trkpt lat="45.5056097" lon="10.786905"><ele>146.5</ele><time>2026-03-28T10:45:48.756Z</time></trkpt><trkpt lat="45.5056332" lon="10.7870781"><ele>145.75</ele><time>2026-03-28T10:45:49.756Z</time></trkpt><trkpt lat="45.5056555" lon="10.7872517"><ele>145.0</ele><time>2026-03-28T10:45:50.755Z</time></trkpt><trkpt lat="45.5056752" lon="10.7874249"><ele>145.0</ele><time>2026-03-28T10:45:51.755Z</time></trkpt><trkpt lat="45.5056956" lon="10.7875869"><ele>145.0</ele><time>2026-03-28T10:45:52.755Z</time></trkpt><trkpt lat="45.5057152" lon="10.7877395"><ele>145.0</ele><time>2026-03-28T10:45:53.756Z</time></trkpt><trkpt lat="45.5057306" lon="10.7878823"><ele>145.0</ele><time>2026-03-28T10:45:54.755Z</time></trkpt><trkpt lat="45.5057458" lon="10.7880203"><ele>145.0</ele><time>2026-03-28T10:45:55.755Z</time></trkpt><trkpt lat="45.5057614" lon="10.7881622"><ele>145.0</ele><time>2026-03-28T10:45:56.756Z</time></trkpt><trkpt lat="45.5057831" lon="10.7882977"><ele>145.0</ele><time>2026-03-28T10:45:57.755Z</time></trkpt><trkpt lat="45.5058186" lon="10.788417"><ele>145.0</ele><time>2026-03-28T10:45:58.756Z</time></trkpt><trkpt lat="45.5058668" lon="10.7885334"><ele>145.0</ele><time>2026-03-28T10:45:59.755Z</time></trkpt><trkpt lat="45.5059108" lon="10.7886537"><ele>145.0</ele><time>2026-03-28T10:46:00.756Z</time></trkpt><trkpt lat="45.5059379" lon="10.7887726"><ele>145.0</ele><time>2026-03-28T10:46:01.756Z</time></trkpt><trkpt lat="45.5059677" lon="10.788883"><ele>145.0</ele><time>2026-03-28T10:46:02.755Z</time></trkpt><trkpt lat="45.5059916" lon="10.7889791"><ele>145.0</ele><time>2026-03-28T10:46:03.756Z</time></trkpt><trkpt lat="45.5060109" lon="10.7890731"><ele>145.0</ele><time>2026-03-28T10:46:04.755Z</time></trkpt><trkpt lat="45.5060334" lon="10.7891669"><ele>145.0</ele><time>2026-03-28T10:46:05.755Z</time></trkpt><trkpt lat="45.506069" lon="10.7893317"><ele>145.0</ele><time>2026-03-28T10:46:07.755Z</time></trkpt><trkpt lat="45.5061002" lon="10.7894722"><ele>145.75</ele><time>2026-03-28T10:46:09.755Z</time></trkpt><trkpt lat="45.5061356" lon="10.7896344"><ele>146.5</ele><time>2026-03-28T10:46:11.756Z</time></trkpt><trkpt lat="45.5061654" lon="10.7897809"><ele>147.25</ele><time>2026-03-28T10:46:13.756Z</time></trkpt><trkpt lat="45.5061983" lon="10.789952"><ele>148.0</ele><time>2026-03-28T10:46:15.756Z</time></trkpt><trkpt lat="45.5062258" lon="10.7901092"><ele>148.0</ele><time>2026-03-28T10:46:17.756Z</time></trkpt><trkpt lat="45.5062508" lon="10.7902894"><ele>148.0</ele><time>2026-03-28T10:46:19.756Z</time></trkpt><trkpt lat="45.5062808" lon="10.7904505"><ele>148.0</ele><time>2026-03-28T10:46:21.757Z</time></trkpt><trkpt lat="45.5063035" lon="10.7906234"><ele>148.0</ele><time>2026-03-28T10:46:23.755Z</time></trkpt><trkpt lat="45.5063117" lon="10.7907288"><ele>148.0</ele><time>2026-03-28T10:46:24.756Z</time></trkpt><trkpt lat="45.5063221" lon="10.7908401"><ele>148.0</ele><time>2026-03-28T10:46:25.755Z</time></trkpt><trkpt lat="45.5063339" lon="10.7909413"><ele>148.0</ele><time>2026-03-28T10:46:26.755Z</time></trkpt><trkpt lat="45.5063421" lon="10.7910304"><ele>148.0</ele><time>2026-03-28T10:46:27.755Z</time></trkpt><trkpt lat="45.5063578" lon="10.7911776"><ele>148.0</ele><time>2026-03-28T10:46:29.756Z</time></trkpt><trkpt lat="45.5063685" lon="10.7913325"><ele>148.0</ele><time>2026-03-28T10:46:31.756Z</time></trkpt><trkpt lat="45.5063753" lon="10.791425"><ele>148.0</ele><time>2026-03-28T10:46:32.756Z</time></trkpt><trkpt lat="45.5063808" lon="10.7915176"><ele>148.16666666666669</ele><time>2026-03-28T10:46:33.756Z</time></trkpt><trkpt lat="45.5063937" lon="10.791675"><ele>148.33333333333334</ele><time>2026-03-28T10:46:35.755Z</time></trkpt><trkpt lat="45.5064106" lon="10.7918469"><ele>148.5</ele><time>2026-03-28T10:46:37.756Z</time></trkpt><trkpt lat="45.5064255" lon="10.7919464"><ele>148.66666666666666</ele><time>2026-03-28T10:46:38.755Z</time></trkpt><trkpt lat="45.5064446" lon="10.7920369"><ele>148.83333333333331</ele><time>2026-03-28T10:46:39.756Z</time></trkpt><trkpt lat="45.5064693" lon="10.7921387"><ele>149.0</ele><time>2026-03-28T10:46:40.755Z</time></trkpt><trkpt lat="45.506497" lon="10.7922627"><ele>149.0</ele><time>2026-03-28T10:46:41.755Z</time></trkpt><trkpt lat="45.5065266" lon="10.7924011"><ele>149.0</ele><time>2026-03-28T10:46:42.756Z</time></trkpt><trkpt lat="45.5065575" lon="10.792529"><ele>149.0</ele><time>2026-03-28T10:46:43.755Z</time></trkpt><trkpt lat="45.5065837" lon="10.7926434"><ele>149.0</ele><time>2026-03-28T10:46:44.755Z</time></trkpt><trkpt lat="45.506609" lon="10.7927563"><ele>149.0</ele><time>2026-03-28T10:46:45.756Z</time></trkpt><trkpt lat="45.5066293" lon="10.7928521"><ele>149.0</ele><time>2026-03-28T10:46:46.755Z</time></trkpt><trkpt lat="45.5066414" lon="10.7929597"><ele>149.2</ele><time>2026-03-28T10:46:47.756Z</time></trkpt><trkpt lat="45.5066509" lon="10.7930864"><ele>149.4</ele><time>2026-03-28T10:46:48.756Z</time></trkpt><trkpt lat="45.5066533" lon="10.7932176"><ele>149.6</ele><time>2026-03-28T10:46:49.755Z</time></trkpt><trkpt lat="45.5066455" lon="10.7933515"><ele>149.8</ele><time>2026-03-28T10:46:50.755Z</time></trkpt><trkpt lat="45.5066433" lon="10.7935069"><ele>150.0</ele><time>2026-03-28T10:46:51.756Z</time></trkpt><trkpt lat="45.5066364" lon="10.7936522"><ele>150.2</ele><time>2026-03-28T10:46:52.755Z</time></trkpt><trkpt lat="45.5066284" lon="10.7938014"><ele>150.4</ele><time>2026-03-28T10:46:53.756Z</time></trkpt><trkpt lat="45.5066182" lon="10.7939478"><ele>150.6</ele><time>2026-03-28T10:46:54.756Z</time></trkpt><trkpt lat="45.5066071" lon="10.7940957"><ele>150.8</ele><time>2026-03-28T10:46:55.755Z</time></trkpt><trkpt lat="45.5065966" lon="10.7942427"><ele>151.0</ele><time>2026-03-28T10:46:56.755Z</time></trkpt><trkpt lat="45.5065878" lon="10.7943702"><ele>151.0</ele><time>2026-03-28T10:46:57.755Z</time></trkpt><trkpt lat="45.5065807" lon="10.7944916"><ele>151.0</ele><time>2026-03-28T10:46:58.756Z</time></trkpt><trkpt lat="45.5065739" lon="10.7946042"><ele>151.0</ele><time>2026-03-28T10:46:59.756Z</time></trkpt><trkpt lat="45.5065685" lon="10.7947038"><ele>151.0</ele><time>2026-03-28T10:47:00.755Z</time></trkpt><trkpt lat="45.5065654" lon="10.7947943"><ele>151.0</ele><time>2026-03-28T10:47:01.756Z</time></trkpt><trkpt lat="45.5065601" lon="10.7949354"><ele>151.0</ele><time>2026-03-28T10:47:03.756Z</time></trkpt><trkpt lat="45.5065555" lon="10.7950328"><ele>151.0</ele><time>2026-03-28T10:47:06.755Z</time></trkpt><trkpt lat="45.5065711" lon="10.7951333"><ele>151.0</ele><time>2026-03-28T10:47:10.755Z</time></trkpt><trkpt lat="45.5065964" lon="10.7952464"><ele>151.0</ele><time>2026-03-28T10:47:13.755Z</time></trkpt><trkpt lat="45.5066449" lon="10.7953662"><ele>151.0</ele><time>2026-03-28T10:47:16.755Z</time></trkpt><trkpt lat="45.5067393" lon="10.7954616"><ele>151.0</ele><time>2026-03-28T10:47:18.756Z</time></trkpt><trkpt lat="45.5068033" lon="10.7954658"><ele>151.0</ele><time>2026-03-28T10:47:19.755Z</time></trkpt><trkpt lat="45.5068658" lon="10.7954327"><ele>151.0</ele><time>2026-03-28T10:47:20.756Z</time></trkpt><trkpt lat="45.5069174" lon="10.7953656"><ele>151.0</ele><time>2026-03-28T10:47:21.756Z</time></trkpt><trkpt lat="45.506946" lon="10.7952695"><ele>151.0</ele><time>2026-03-28T10:47:22.755Z</time></trkpt><trkpt lat="45.5069498" lon="10.7951579"><ele>151.0</ele><time>2026-03-28T10:47:23.756Z</time></trkpt><trkpt lat="45.5069376" lon="10.7950432"><ele>151.0</ele><time>2026-03-28T10:47:24.755Z</time></trkpt><trkpt lat="45.5069346" lon="10.7949211"><ele>151.0</ele><time>2026-03-28T10:47:25.756Z</time></trkpt><trkpt lat="45.5069666" lon="10.7948071"><ele>151.0</ele><time>2026-03-28T10:47:26.755Z</time></trkpt><trkpt lat="45.5070298" lon="10.7947079"><ele>151.0</ele><time>2026-03-28T10:47:27.756Z</time></trkpt><trkpt lat="45.507111" lon="10.7946123"><ele>151.0</ele><time>2026-03-28T10:47:28.755Z</time></trkpt><trkpt lat="45.5072004" lon="10.7945083"><ele>151.0</ele><time>2026-03-28T10:47:29.756Z</time></trkpt><trkpt lat="45.5072933" lon="10.7943975"><ele>151.0</ele><time>2026-03-28T10:47:30.755Z</time></trkpt><trkpt lat="45.5073905" lon="10.7942826"><ele>151.0</ele><time>2026-03-28T10:47:31.756Z</time></trkpt><trkpt lat="45.5074936" lon="10.7941624"><ele>151.0</ele><time>2026-03-28T10:47:32.755Z</time></trkpt><trkpt lat="45.5075995" lon="10.7940408"><ele>151.0</ele><time>2026-03-28T10:47:33.756Z</time></trkpt><trkpt lat="45.507704" lon="10.7939216"><ele>151.0</ele><time>2026-03-28T10:47:34.755Z</time></trkpt><trkpt lat="45.5078051" lon="10.7938022"><ele>151.0</ele><time>2026-03-28T10:47:35.756Z</time></trkpt><trkpt lat="45.5079043" lon="10.7936809"><ele>151.0</ele><time>2026-03-28T10:47:36.755Z</time></trkpt><trkpt lat="45.5080031" lon="10.7935664"><ele>151.0</ele><time>2026-03-28T10:47:37.755Z</time></trkpt><trkpt lat="45.5081025" lon="10.7934567"><ele>151.0</ele><time>2026-03-28T10:47:38.756Z</time></trkpt><trkpt lat="45.5081994" lon="10.793344"><ele>151.0</ele><time>2026-03-28T10:47:39.755Z</time></trkpt><trkpt lat="45.5082955" lon="10.7932319"><ele>151.0</ele><time>2026-03-28T10:47:40.756Z</time></trkpt><trkpt lat="45.5083932" lon="10.7931248"><ele>151.0</ele><time>2026-03-28T10:47:41.755Z</time></trkpt><trkpt lat="45.5084918" lon="10.7930204"><ele>151.0</ele><time>2026-03-28T10:47:42.756Z</time></trkpt><trkpt lat="45.5085907" lon="10.7929177"><ele>151.0</ele><time>2026-03-28T10:47:43.755Z</time></trkpt><trkpt lat="45.5086894" lon="10.7928051"><ele>151.0</ele><time>2026-03-28T10:47:44.755Z</time></trkpt><trkpt lat="45.5087931" lon="10.7926873"><ele>151.0</ele><time>2026-03-28T10:47:45.756Z</time></trkpt><trkpt lat="45.5089023" lon="10.7925681"><ele>151.0</ele><time>2026-03-28T10:47:46.756Z</time></trkpt><trkpt lat="45.5090132" lon="10.7924411"><ele>151.0</ele><time>2026-03-28T10:47:47.756Z</time></trkpt><trkpt lat="45.509123" lon="10.7923025"><ele>151.0</ele><time>2026-03-28T10:47:48.755Z</time></trkpt><trkpt lat="45.5092244" lon="10.7921485"><ele>151.0</ele><time>2026-03-28T10:47:49.755Z</time></trkpt><trkpt lat="45.5093105" lon="10.7919742"><ele>151.0</ele><time>2026-03-28T10:47:50.755Z</time></trkpt><trkpt lat="45.50938" lon="10.7917905"><ele>151.0</ele><time>2026-03-28T10:47:51.755Z</time></trkpt><trkpt lat="45.5094391" lon="10.79161"><ele>151.0</ele><time>2026-03-28T10:47:52.755Z</time></trkpt><trkpt lat="45.509491" lon="10.7914382"><ele>151.0</ele><time>2026-03-28T10:47:53.756Z</time></trkpt><trkpt lat="45.5095376" lon="10.7912646"><ele>151.0</ele><time>2026-03-28T10:47:54.755Z</time></trkpt><trkpt lat="45.509575" lon="10.7910857"><ele>151.5</ele><time>2026-03-28T10:47:55.756Z</time></trkpt><trkpt lat="45.5095977" lon="10.7908959"><ele>152.0</ele><time>2026-03-28T10:47:56.755Z</time></trkpt><trkpt lat="45.5096076" lon="10.7907005"><ele>152.5</ele><time>2026-03-28T10:47:57.755Z</time></trkpt><trkpt lat="45.5096126" lon="10.7905045"><ele>153.0</ele><time>2026-03-28T10:47:58.755Z</time></trkpt><trkpt lat="45.5096169" lon="10.7903089"><ele>153.25</ele><time>2026-03-28T10:47:59.756Z</time></trkpt><trkpt lat="45.5096195" lon="10.7901136"><ele>153.5</ele><time>2026-03-28T10:48:00.756Z</time></trkpt><trkpt lat="45.50962" lon="10.7899181"><ele>153.75</ele><time>2026-03-28T10:48:01.755Z</time></trkpt><trkpt lat="45.5096181" lon="10.7897213"><ele>154.0</ele><time>2026-03-28T10:48:02.756Z</time></trkpt><trkpt lat="45.5096173" lon="10.7895262"><ele>153.5</ele><time>2026-03-28T10:48:03.755Z</time></trkpt><trkpt lat="45.509628" lon="10.7893259"><ele>153.0</ele><time>2026-03-28T10:48:04.755Z</time></trkpt><trkpt lat="45.5096452" lon="10.7891201"><ele>152.5</ele><time>2026-03-28T10:48:05.756Z</time></trkpt><trkpt lat="45.509666" lon="10.7889088"><ele>152.0</ele><time>2026-03-28T10:48:06.755Z</time></trkpt><trkpt lat="45.5096969" lon="10.7886954"><ele>151.66666666666666</ele><time>2026-03-28T10:48:07.755Z</time></trkpt><trkpt lat="45.5097358" lon="10.788481"><ele>151.33333333333334</ele><time>2026-03-28T10:48:08.756Z</time></trkpt><trkpt lat="45.5097693" lon="10.7882615"><ele>151.0</ele><time>2026-03-28T10:48:09.755Z</time></trkpt><trkpt lat="45.5097806" lon="10.78804"><ele>151.0</ele><time>2026-03-28T10:48:10.756Z</time></trkpt><trkpt lat="45.5097693" lon="10.7878389"><ele>151.0</ele><time>2026-03-28T10:48:11.755Z</time></trkpt><trkpt lat="45.50975" lon="10.7876515"><ele>151.0</ele><time>2026-03-28T10:48:12.755Z</time></trkpt><trkpt lat="45.5097329" lon="10.7874707"><ele>151.0</ele><time>2026-03-28T10:48:13.756Z</time></trkpt><trkpt lat="45.5097128" lon="10.7873048"><ele>151.2</ele><time>2026-03-28T10:48:14.756Z</time></trkpt><trkpt lat="45.5096916" lon="10.787153"><ele>151.39999999999998</ele><time>2026-03-28T10:48:15.755Z</time></trkpt><trkpt lat="45.5096708" lon="10.787006"><ele>151.6</ele><time>2026-03-28T10:48:16.755Z</time></trkpt><trkpt lat="45.5096509" lon="10.7868692"><ele>151.79999999999998</ele><time>2026-03-28T10:48:17.756Z</time></trkpt><trkpt lat="45.5096326" lon="10.7867423"><ele>152.0</ele><time>2026-03-28T10:48:18.756Z</time></trkpt><trkpt lat="45.5096182" lon="10.7866118"><ele>152.0</ele><time>2026-03-28T10:48:19.756Z</time></trkpt><trkpt lat="45.5096021" lon="10.7864827"><ele>152.0</ele><time>2026-03-28T10:48:20.755Z</time></trkpt><trkpt lat="45.5095793" lon="10.7863583"><ele>152.0</ele><time>2026-03-28T10:48:21.757Z</time></trkpt><trkpt lat="45.5095611" lon="10.7862479"><ele>152.0</ele><time>2026-03-28T10:48:22.755Z</time></trkpt><trkpt lat="45.5095476" lon="10.7861431"><ele>152.0</ele><time>2026-03-28T10:48:23.756Z</time></trkpt><trkpt lat="45.50954" lon="10.7860322"><ele>152.0</ele><time>2026-03-28T10:48:24.756Z</time></trkpt><trkpt lat="45.5095335" lon="10.7859153"><ele>152.0</ele><time>2026-03-28T10:48:25.755Z</time></trkpt><trkpt lat="45.5095285" lon="10.7857958"><ele>152.0</ele><time>2026-03-28T10:48:26.756Z</time></trkpt><trkpt lat="45.5095227" lon="10.7856874"><ele>152.0</ele><time>2026-03-28T10:48:27.756Z</time></trkpt><trkpt lat="45.5095136" lon="10.7855877"><ele>152.0</ele><time>2026-03-28T10:48:28.755Z</time></trkpt><trkpt lat="45.5095069" lon="10.7854859"><ele>152.0</ele><time>2026-03-28T10:48:29.756Z</time></trkpt><trkpt lat="45.5095019" lon="10.7853764"><ele>152.0</ele><time>2026-03-28T10:48:30.756Z</time></trkpt><trkpt lat="45.509499" lon="10.785275"><ele>152.2</ele><time>2026-03-28T10:48:31.755Z</time></trkpt><trkpt lat="45.5095066" lon="10.7851062"><ele>152.39999999999998</ele><time>2026-03-28T10:48:33.756Z</time></trkpt><trkpt lat="45.5095236" lon="10.7850188"><ele>152.60000000000002</ele><time>2026-03-28T10:48:34.755Z</time></trkpt><trkpt lat="45.5096129" lon="10.7848955"><ele>152.8</ele><time>2026-03-28T10:48:36.756Z</time></trkpt><trkpt lat="45.5096786" lon="10.7848722"><ele>153.0</ele><time>2026-03-28T10:48:37.755Z</time></trkpt><trkpt lat="45.5097614" lon="10.7848521"><ele>153.0</ele><time>2026-03-28T10:48:38.756Z</time></trkpt><trkpt lat="45.5098556" lon="10.7848439"><ele>153.0</ele><time>2026-03-28T10:48:39.756Z</time></trkpt><trkpt lat="45.5099624" lon="10.7848494"><ele>153.0</ele><time>2026-03-28T10:48:40.755Z</time></trkpt><trkpt lat="45.5100748" lon="10.7848598"><ele>153.0</ele><time>2026-03-28T10:48:41.755Z</time></trkpt><trkpt lat="45.5101891" lon="10.7848794"><ele>153.0</ele><time>2026-03-28T10:48:42.756Z</time></trkpt><trkpt lat="45.510308" lon="10.7848979"><ele>153.5</ele><time>2026-03-28T10:48:43.756Z</time></trkpt><trkpt lat="45.5104297" lon="10.7849121"><ele>154.0</ele><time>2026-03-28T10:48:44.756Z</time></trkpt><trkpt lat="45.5105489" lon="10.7849294"><ele>154.5</ele><time>2026-03-28T10:48:45.756Z</time></trkpt><trkpt lat="45.5106532" lon="10.7849446"><ele>155.0</ele><time>2026-03-28T10:48:46.756Z</time></trkpt><trkpt lat="45.5107566" lon="10.7849551"><ele>155.0</ele><time>2026-03-28T10:48:47.756Z</time></trkpt><trkpt lat="45.5108614" lon="10.7849629"><ele>155.0</ele><time>2026-03-28T10:48:48.755Z</time></trkpt><trkpt lat="45.5109695" lon="10.7849731"><ele>155.0</ele><time>2026-03-28T10:48:49.755Z</time></trkpt><trkpt lat="45.5110784" lon="10.7849815"><ele>155.0</ele><time>2026-03-28T10:48:50.757Z</time></trkpt><trkpt lat="45.5111766" lon="10.7849934"><ele>155.0</ele><time>2026-03-28T10:48:51.755Z</time></trkpt><trkpt lat="45.5112747" lon="10.7850018"><ele>155.4</ele><time>2026-03-28T10:48:52.755Z</time></trkpt><trkpt lat="45.5113744" lon="10.7850046"><ele>155.8</ele><time>2026-03-28T10:48:53.756Z</time></trkpt><trkpt lat="45.5114708" lon="10.7850058"><ele>156.2</ele><time>2026-03-28T10:48:54.756Z</time></trkpt><trkpt lat="45.5115682" lon="10.7850079"><ele>156.6</ele><time>2026-03-28T10:48:55.755Z</time></trkpt><trkpt lat="45.5116652" lon="10.7850145"><ele>157.0</ele><time>2026-03-28T10:48:56.755Z</time></trkpt><trkpt lat="45.5117559" lon="10.7850239"><ele>157.0</ele><time>2026-03-28T10:48:57.756Z</time></trkpt><trkpt lat="45.5118366" lon="10.785046"><ele>157.0</ele><time>2026-03-28T10:48:58.756Z</time></trkpt><trkpt lat="45.5119081" lon="10.7850491"><ele>157.0</ele><time>2026-03-28T10:48:59.755Z</time></trkpt><trkpt lat="45.5119946" lon="10.784984"><ele>157.0</ele><time>2026-03-28T10:49:01.755Z</time></trkpt><trkpt lat="45.5120113" lon="10.7848359"><ele>157.0</ele><time>2026-03-28T10:49:03.756Z</time></trkpt><trkpt lat="45.5120241" lon="10.7846754"><ele>157.0</ele><time>2026-03-28T10:49:05.756Z</time></trkpt><trkpt lat="45.512026" lon="10.7845175"><ele>157.0</ele><time>2026-03-28T10:49:07.755Z</time></trkpt><trkpt lat="45.5119973" lon="10.7844124"><ele>157.0</ele><time>2026-03-28T10:49:10.756Z</time></trkpt><trkpt lat="45.5120761" lon="10.7843499"><ele>157.0</ele><time>2026-03-28T10:49:13.756Z</time></trkpt><trkpt lat="45.5121805" lon="10.7843766"><ele>157.0</ele><time>2026-03-28T10:49:15.755Z</time></trkpt><trkpt lat="45.512243" lon="10.7843881"><ele>157.0</ele><time>2026-03-28T10:49:16.756Z</time></trkpt><trkpt lat="45.5123081" lon="10.7843895"><ele>156.66666666666669</ele><time>2026-03-28T10:49:17.756Z</time></trkpt><trkpt lat="45.5123794" lon="10.7843924"><ele>156.33333333333334</ele><time>2026-03-28T10:49:18.756Z</time></trkpt><trkpt lat="45.5124551" lon="10.7843984"><ele>156.0</ele><time>2026-03-28T10:49:19.756Z</time></trkpt><trkpt lat="45.5125349" lon="10.7843928"><ele>155.66666666666666</ele><time>2026-03-28T10:49:20.755Z</time></trkpt><trkpt lat="45.5126318" lon="10.7843888"><ele>155.33333333333331</ele><time>2026-03-28T10:49:21.755Z</time></trkpt><trkpt lat="45.5127428" lon="10.7843894"><ele>155.0</ele><time>2026-03-28T10:49:22.755Z</time></trkpt><trkpt lat="45.5128646" lon="10.7843878"><ele>155.75</ele><time>2026-03-28T10:49:23.755Z</time></trkpt><trkpt lat="45.5129981" lon="10.7843831"><ele>156.5</ele><time>2026-03-28T10:49:24.755Z</time></trkpt><trkpt lat="45.5131285" lon="10.7843719"><ele>157.25</ele><time>2026-03-28T10:49:25.755Z</time></trkpt><trkpt lat="45.5132547" lon="10.7843609"><ele>158.0</ele><time>2026-03-28T10:49:26.756Z</time></trkpt><trkpt lat="45.51338" lon="10.78435"><ele>158.0</ele><time>2026-03-28T10:49:27.756Z</time></trkpt><trkpt lat="45.5135015" lon="10.7843351"><ele>158.0</ele><time>2026-03-28T10:49:28.755Z</time></trkpt><trkpt lat="45.513626" lon="10.7843224"><ele>158.0</ele><time>2026-03-28T10:49:29.755Z</time></trkpt><trkpt lat="45.5137623" lon="10.7843028"><ele>158.0</ele><time>2026-03-28T10:49:30.756Z</time></trkpt><trkpt lat="45.5139011" lon="10.7842825"><ele>159.0</ele><time>2026-03-28T10:49:31.756Z</time></trkpt><trkpt lat="45.5140257" lon="10.7842622"><ele>160.0</ele><time>2026-03-28T10:49:32.756Z</time></trkpt><trkpt lat="45.514159" lon="10.7842417"><ele>161.0</ele><time>2026-03-28T10:49:33.756Z</time></trkpt><trkpt lat="45.5142896" lon="10.7842245"><ele>162.0</ele><time>2026-03-28T10:49:34.755Z</time></trkpt><trkpt lat="45.5144178" lon="10.7841962"><ele>162.0</ele><time>2026-03-28T10:49:35.755Z</time></trkpt><trkpt lat="45.5145509" lon="10.7841726"><ele>162.0</ele><time>2026-03-28T10:49:36.756Z</time></trkpt><trkpt lat="45.514675" lon="10.7841439"><ele>162.0</ele><time>2026-03-28T10:49:37.756Z</time></trkpt><trkpt lat="45.514787" lon="10.784114"><ele>162.0</ele><time>2026-03-28T10:49:38.756Z</time></trkpt><trkpt lat="45.5148948" lon="10.784089"><ele>162.5</ele><time>2026-03-28T10:49:39.755Z</time></trkpt><trkpt lat="45.514996" lon="10.7840688"><ele>163.0</ele><time>2026-03-28T10:49:40.755Z</time></trkpt><trkpt lat="45.5150929" lon="10.7840497"><ele>163.5</ele><time>2026-03-28T10:49:41.755Z</time></trkpt><trkpt lat="45.5151773" lon="10.7840277"><ele>164.0</ele><time>2026-03-28T10:49:42.755Z</time></trkpt><trkpt lat="45.5152552" lon="10.7840073"><ele>164.5</ele><time>2026-03-28T10:49:43.756Z</time></trkpt><trkpt lat="45.5153198" lon="10.7839669"><ele>165.0</ele><time>2026-03-28T10:49:44.755Z</time></trkpt><trkpt lat="45.5153842" lon="10.7838988"><ele>165.16666666666666</ele><time>2026-03-28T10:49:45.755Z</time></trkpt><trkpt lat="45.5154502" lon="10.783838"><ele>165.33333333333334</ele><time>2026-03-28T10:49:46.756Z</time></trkpt><trkpt lat="45.5155271" lon="10.7837692"><ele>165.5</ele><time>2026-03-28T10:49:47.756Z</time></trkpt><trkpt lat="45.5155997" lon="10.7837283"><ele>165.66666666666669</ele><time>2026-03-28T10:49:48.755Z</time></trkpt><trkpt lat="45.5156621" lon="10.783699"><ele>165.83333333333334</ele><time>2026-03-28T10:49:49.755Z</time></trkpt><trkpt lat="45.5157244" lon="10.7836816"><ele>166.0</ele><time>2026-03-28T10:49:50.756Z</time></trkpt><trkpt lat="45.5158017" lon="10.783683"><ele>166.0</ele><time>2026-03-28T10:49:51.756Z</time></trkpt><trkpt lat="45.5158937" lon="10.7836896"><ele>166.0</ele><time>2026-03-28T10:49:52.756Z</time></trkpt><trkpt lat="45.5160048" lon="10.7836904"><ele>166.0</ele><time>2026-03-28T10:49:53.756Z</time></trkpt><trkpt lat="45.5160952" lon="10.7836922"><ele>166.0</ele><time>2026-03-28T10:49:54.755Z</time></trkpt><trkpt lat="45.5161778" lon="10.7836947"><ele>166.0</ele><time>2026-03-28T10:49:55.755Z</time></trkpt><trkpt lat="45.516246" lon="10.7836912"><ele>166.0</ele><time>2026-03-28T10:49:56.755Z</time></trkpt><trkpt lat="45.5163157" lon="10.7836852"><ele>166.33333333333334</ele><time>2026-03-28T10:49:57.756Z</time></trkpt><trkpt lat="45.5163943" lon="10.7836716"><ele>166.66666666666669</ele><time>2026-03-28T10:49:58.756Z</time></trkpt><trkpt lat="45.5164607" lon="10.7836584"><ele>167.0</ele><time>2026-03-28T10:49:59.755Z</time></trkpt><trkpt lat="45.5165299" lon="10.7836406"><ele>167.33333333333334</ele><time>2026-03-28T10:50:00.755Z</time></trkpt><trkpt lat="45.5166007" lon="10.7836234"><ele>167.66666666666666</ele><time>2026-03-28T10:50:01.755Z</time></trkpt><trkpt lat="45.5167129" lon="10.7836005"><ele>168.0</ele><time>2026-03-28T10:50:03.756Z</time></trkpt><trkpt lat="45.516789" lon="10.7835851"><ele>168.0</ele><time>2026-03-28T10:50:05.756Z</time></trkpt><trkpt lat="45.5168528" lon="10.7835558"><ele>168.0</ele><time>2026-03-28T10:50:08.755Z</time></trkpt><trkpt lat="45.5168908" lon="10.7834821"><ele>168.0</ele><time>2026-03-28T10:50:13.755Z</time></trkpt><trkpt lat="45.5169297" lon="10.7833856"><ele>168.0</ele><time>2026-03-28T10:50:18.756Z</time></trkpt><trkpt lat="45.5169727" lon="10.7834991"><ele>168.0</ele><time>2026-03-28T10:50:21.756Z</time></trkpt><trkpt lat="45.5170504" lon="10.7835446"><ele>168.0</ele><time>2026-03-28T10:50:23.756Z</time></trkpt><trkpt lat="45.5171204" lon="10.7835466"><ele>168.0</ele><time>2026-03-28T10:50:24.755Z</time></trkpt><trkpt lat="45.5172" lon="10.7835348"><ele>168.0</ele><time>2026-03-28T10:50:25.756Z</time></trkpt><trkpt lat="45.5172911" lon="10.7835092"><ele>168.0</ele><time>2026-03-28T10:50:26.756Z</time></trkpt><trkpt lat="45.5174098" lon="10.7834736"><ele>168.0</ele><time>2026-03-28T10:50:27.755Z</time></trkpt><trkpt lat="45.5175415" lon="10.7834419"><ele>168.0</ele><time>2026-03-28T10:50:28.755Z</time></trkpt><trkpt lat="45.5176703" lon="10.7834077"><ele>168.0</ele><time>2026-03-28T10:50:29.755Z</time></trkpt><trkpt lat="45.5178072" lon="10.7833615"><ele>168.0</ele><time>2026-03-28T10:50:30.756Z</time></trkpt><trkpt lat="45.5179441" lon="10.7833221"><ele>168.0</ele><time>2026-03-28T10:50:31.756Z</time></trkpt><trkpt lat="45.5180734" lon="10.7832845"><ele>168.0</ele><time>2026-03-28T10:50:32.755Z</time></trkpt><trkpt lat="45.5182082" lon="10.7832452"><ele>168.0</ele><time>2026-03-28T10:50:33.755Z</time></trkpt><trkpt lat="45.5183418" lon="10.7832084"><ele>168.0</ele><time>2026-03-28T10:50:34.756Z</time></trkpt><trkpt lat="45.5184746" lon="10.7831758"><ele>168.0</ele><time>2026-03-28T10:50:35.756Z</time></trkpt><trkpt lat="45.5186118" lon="10.7831372"><ele>168.0</ele><time>2026-03-28T10:50:36.755Z</time></trkpt><trkpt lat="45.5187491" lon="10.7831001"><ele>168.0</ele><time>2026-03-28T10:50:37.755Z</time></trkpt><trkpt lat="45.5188915" lon="10.7830644"><ele>168.0</ele><time>2026-03-28T10:50:38.755Z</time></trkpt><trkpt lat="45.5190551" lon="10.7830182"><ele>168.0</ele><time>2026-03-28T10:50:39.756Z</time></trkpt><trkpt lat="45.5192046" lon="10.7829783"><ele>168.0</ele><time>2026-03-28T10:50:40.756Z</time></trkpt><trkpt lat="45.5193477" lon="10.7829371"><ele>168.0</ele><time>2026-03-28T10:50:41.755Z</time></trkpt><trkpt lat="45.5194984" lon="10.7828865"><ele>168.0</ele><time>2026-03-28T10:50:42.755Z</time></trkpt><trkpt lat="45.519643" lon="10.7828475"><ele>168.0</ele><time>2026-03-28T10:50:43.755Z</time></trkpt><trkpt lat="45.5197979" lon="10.7828109"><ele>167.66666666666666</ele><time>2026-03-28T10:50:44.756Z</time></trkpt><trkpt lat="45.5199651" lon="10.7827724"><ele>167.33333333333331</ele><time>2026-03-28T10:50:45.755Z</time></trkpt><trkpt lat="45.520131" lon="10.7827366"><ele>167.0</ele><time>2026-03-28T10:50:46.755Z</time></trkpt><trkpt lat="45.5202953" lon="10.7827049"><ele>166.66666666666666</ele><time>2026-03-28T10:50:47.756Z</time></trkpt><trkpt lat="45.5204616" lon="10.7826824"><ele>166.33333333333334</ele><time>2026-03-28T10:50:48.756Z</time></trkpt><trkpt lat="45.5206257" lon="10.7826536"><ele>166.0</ele><time>2026-03-28T10:50:49.756Z</time></trkpt><trkpt lat="45.5207727" lon="10.7826208"><ele>166.5</ele><time>2026-03-28T10:50:50.755Z</time></trkpt><trkpt lat="45.5209092" lon="10.7825813"><ele>167.0</ele><time>2026-03-28T10:50:51.756Z</time></trkpt><trkpt lat="45.5210347" lon="10.7825355"><ele>167.5</ele><time>2026-03-28T10:50:52.755Z</time></trkpt><trkpt lat="45.521171" lon="10.7824921"><ele>168.0</ele><time>2026-03-28T10:50:53.755Z</time></trkpt><trkpt lat="45.5213098" lon="10.7824478"><ele>168.66666666666666</ele><time>2026-03-28T10:50:54.756Z</time></trkpt><trkpt lat="45.5214515" lon="10.7824011"><ele>169.33333333333331</ele><time>2026-03-28T10:50:55.756Z</time></trkpt><trkpt lat="45.5215993" lon="10.7823577"><ele>170.0</ele><time>2026-03-28T10:50:56.755Z</time></trkpt><trkpt lat="45.5217516" lon="10.7823137"><ele>170.0</ele><time>2026-03-28T10:50:57.756Z</time></trkpt><trkpt lat="45.5219061" lon="10.7822738"><ele>170.0</ele><time>2026-03-28T10:50:58.755Z</time></trkpt><trkpt lat="45.522056" lon="10.7822374"><ele>170.0</ele><time>2026-03-28T10:50:59.756Z</time></trkpt><trkpt lat="45.522209" lon="10.7821975"><ele>169.5</ele><time>2026-03-28T10:51:00.756Z</time></trkpt><trkpt lat="45.5223636" lon="10.7821604"><ele>169.0</ele><time>2026-03-28T10:51:01.755Z</time></trkpt><trkpt lat="45.5225104" lon="10.7821246"><ele>168.5</ele><time>2026-03-28T10:51:02.755Z</time></trkpt><trkpt lat="45.5226496" lon="10.7820897"><ele>168.0</ele><time>2026-03-28T10:51:03.755Z</time></trkpt><trkpt lat="45.5227929" lon="10.7820567"><ele>167.0</ele><time>2026-03-28T10:51:04.755Z</time></trkpt><trkpt lat="45.5229354" lon="10.7820232"><ele>166.0</ele><time>2026-03-28T10:51:05.755Z</time></trkpt><trkpt lat="45.5230693" lon="10.7819938"><ele>165.0</ele><time>2026-03-28T10:51:06.756Z</time></trkpt><trkpt lat="45.5231961" lon="10.7819677"><ele>164.0</ele><time>2026-03-28T10:51:07.756Z</time></trkpt><trkpt lat="45.5233194" lon="10.7819436"><ele>164.0</ele><time>2026-03-28T10:51:08.755Z</time></trkpt><trkpt lat="45.5234378" lon="10.7819198"><ele>164.0</ele><time>2026-03-28T10:51:09.755Z</time></trkpt><trkpt lat="45.5235493" lon="10.7818881"><ele>164.0</ele><time>2026-03-28T10:51:10.756Z</time></trkpt><trkpt lat="45.5236581" lon="10.7818611"><ele>164.0</ele><time>2026-03-28T10:51:11.756Z</time></trkpt><trkpt lat="45.5237732" lon="10.7818268"><ele>163.79999999999998</ele><time>2026-03-28T10:51:12.756Z</time></trkpt><trkpt lat="45.5238805" lon="10.7817915"><ele>163.6</ele><time>2026-03-28T10:51:13.756Z</time></trkpt><trkpt lat="45.5239831" lon="10.7817564"><ele>163.4</ele><time>2026-03-28T10:51:14.755Z</time></trkpt><trkpt lat="45.5240768" lon="10.7817214"><ele>163.2</ele><time>2026-03-28T10:51:15.755Z</time></trkpt><trkpt lat="45.5241645" lon="10.7816969"><ele>163.0</ele><time>2026-03-28T10:51:16.756Z</time></trkpt><trkpt lat="45.5242325" lon="10.7816815"><ele>163.0</ele><time>2026-03-28T10:51:17.756Z</time></trkpt><trkpt lat="45.5243343" lon="10.7816333"><ele>163.0</ele><time>2026-03-28T10:51:19.756Z</time></trkpt><trkpt lat="45.5244432" lon="10.7814943"><ele>163.0</ele><time>2026-03-28T10:51:21.755Z</time></trkpt><trkpt lat="45.5244991" lon="10.7813764"><ele>163.0</ele><time>2026-03-28T10:51:22.755Z</time></trkpt><trkpt lat="45.5245429" lon="10.7812285"><ele>162.5</ele><time>2026-03-28T10:51:23.755Z</time></trkpt><trkpt lat="45.524574" lon="10.7810749"><ele>162.0</ele><time>2026-03-28T10:51:24.755Z</time></trkpt><trkpt lat="45.5245911" lon="10.7809149"><ele>161.5</ele><time>2026-03-28T10:51:25.756Z</time></trkpt><trkpt lat="45.5245875" lon="10.7807438"><ele>161.0</ele><time>2026-03-28T10:51:26.756Z</time></trkpt><trkpt lat="45.5245721" lon="10.7805694"><ele>161.0</ele><time>2026-03-28T10:51:27.755Z</time></trkpt><trkpt lat="45.5245561" lon="10.7803816"><ele>161.0</ele><time>2026-03-28T10:51:28.755Z</time></trkpt><trkpt lat="45.524554" lon="10.7802073"><ele>161.0</ele><time>2026-03-28T10:51:29.755Z</time></trkpt><trkpt lat="45.5245578" lon="10.7800455"><ele>161.0</ele><time>2026-03-28T10:51:30.755Z</time></trkpt><trkpt lat="45.5245664" lon="10.7798946"><ele>161.0</ele><time>2026-03-28T10:51:31.756Z</time></trkpt><trkpt lat="45.5245742" lon="10.7797471"><ele>161.0</ele><time>2026-03-28T10:51:32.755Z</time></trkpt><trkpt lat="45.5245857" lon="10.77961"><ele>161.0</ele><time>2026-03-28T10:51:33.756Z</time></trkpt><trkpt lat="45.5245953" lon="10.7794828"><ele>161.0</ele><time>2026-03-28T10:51:34.755Z</time></trkpt><trkpt lat="45.5246008" lon="10.7793527"><ele>161.0</ele><time>2026-03-28T10:51:35.756Z</time></trkpt><trkpt lat="45.5246027" lon="10.7792152"><ele>160.83333333333331</ele><time>2026-03-28T10:51:36.755Z</time></trkpt><trkpt lat="45.5245982" lon="10.7790764"><ele>160.66666666666666</ele><time>2026-03-28T10:51:37.756Z</time></trkpt><trkpt lat="45.5245886" lon="10.7789425"><ele>160.5</ele><time>2026-03-28T10:51:38.756Z</time></trkpt><trkpt lat="45.5245793" lon="10.7788161"><ele>160.33333333333334</ele><time>2026-03-28T10:51:39.755Z</time></trkpt><trkpt lat="45.5245721" lon="10.7786994"><ele>160.16666666666669</ele><time>2026-03-28T10:51:40.756Z</time></trkpt><trkpt lat="45.5245602" lon="10.7785773"><ele>160.0</ele><time>2026-03-28T10:51:41.755Z</time></trkpt><trkpt lat="45.5245444" lon="10.7784467"><ele>160.6</ele><time>2026-03-28T10:51:42.756Z</time></trkpt><trkpt lat="45.5245326" lon="10.7783067"><ele>161.2</ele><time>2026-03-28T10:51:43.755Z</time></trkpt><trkpt lat="45.5245234" lon="10.7781599"><ele>161.8</ele><time>2026-03-28T10:51:44.755Z</time></trkpt><trkpt lat="45.524507" lon="10.7780072"><ele>162.4</ele><time>2026-03-28T10:51:45.756Z</time></trkpt><trkpt lat="45.5244888" lon="10.7778519"><ele>163.0</ele><time>2026-03-28T10:51:46.756Z</time></trkpt><trkpt lat="45.5244679" lon="10.7777037"><ele>162.0</ele><time>2026-03-28T10:51:47.755Z</time></trkpt><trkpt lat="45.5244534" lon="10.7775453"><ele>161.0</ele><time>2026-03-28T10:51:48.755Z</time></trkpt><trkpt lat="45.5244418" lon="10.7773829"><ele>160.0</ele><time>2026-03-28T10:51:49.756Z</time></trkpt><trkpt lat="45.5244316" lon="10.7772225"><ele>159.0</ele><time>2026-03-28T10:51:50.755Z</time></trkpt><trkpt lat="45.5244185" lon="10.7770581"><ele>159.0</ele><time>2026-03-28T10:51:51.755Z</time></trkpt><trkpt lat="45.5244061" lon="10.7768947"><ele>159.0</ele><time>2026-03-28T10:51:52.756Z</time></trkpt><trkpt lat="45.5243955" lon="10.7767279"><ele>159.0</ele><time>2026-03-28T10:51:53.755Z</time></trkpt><trkpt lat="45.5243827" lon="10.776563"><ele>159.0</ele><time>2026-03-28T10:51:54.756Z</time></trkpt><trkpt lat="45.5243667" lon="10.7764042"><ele>159.0</ele><time>2026-03-28T10:51:55.755Z</time></trkpt><trkpt lat="45.5243687" lon="10.7762727"><ele>159.0</ele><time>2026-03-28T10:51:56.755Z</time></trkpt><trkpt lat="45.5243948" lon="10.7761683"><ele>159.0</ele><time>2026-03-28T10:51:57.756Z</time></trkpt><trkpt lat="45.5244452" lon="10.7760807"><ele>159.0</ele><time>2026-03-28T10:51:58.756Z</time></trkpt><trkpt lat="45.5245118" lon="10.7760187"><ele>159.0</ele><time>2026-03-28T10:51:59.755Z</time></trkpt><trkpt lat="45.5245853" lon="10.7759832"><ele>159.0</ele><time>2026-03-28T10:52:00.755Z</time></trkpt><trkpt lat="45.5246646" lon="10.7759631"><ele>158.83333333333334</ele><time>2026-03-28T10:52:01.756Z</time></trkpt><trkpt lat="45.5247454" lon="10.7759489"><ele>158.66666666666666</ele><time>2026-03-28T10:52:02.756Z</time></trkpt><trkpt lat="45.5248281" lon="10.7759357"><ele>158.5</ele><time>2026-03-28T10:52:03.755Z</time></trkpt><trkpt lat="45.5249158" lon="10.7759282"><ele>158.33333333333331</ele><time>2026-03-28T10:52:04.756Z</time></trkpt><trkpt lat="45.5250031" lon="10.7759232"><ele>158.16666666666666</ele><time>2026-03-28T10:52:05.756Z</time></trkpt><trkpt lat="45.5250916" lon="10.7759176"><ele>158.0</ele><time>2026-03-28T10:52:06.756Z</time></trkpt><trkpt lat="45.5251819" lon="10.7759109"><ele>158.0</ele><time>2026-03-28T10:52:07.756Z</time></trkpt><trkpt lat="45.5252619" lon="10.7759019"><ele>158.0</ele><time>2026-03-28T10:52:08.756Z</time></trkpt><trkpt lat="45.525333" lon="10.7758929"><ele>158.0</ele><time>2026-03-28T10:52:09.755Z</time></trkpt><trkpt lat="45.5254405" lon="10.7758801"><ele>158.0</ele><time>2026-03-28T10:52:11.756Z</time></trkpt><trkpt lat="45.5255068" lon="10.7758722"><ele>158.0</ele><time>2026-03-28T10:52:13.755Z</time></trkpt><trkpt lat="45.5255964" lon="10.7758504"><ele>158.0</ele><time>2026-03-28T10:52:23.756Z</time></trkpt><trkpt lat="45.5256731" lon="10.7758376"><ele>158.0</ele><time>2026-03-28T10:52:25.755Z</time></trkpt><trkpt lat="45.525747" lon="10.7758265"><ele>158.0</ele><time>2026-03-28T10:52:28.755Z</time></trkpt><trkpt lat="45.5258125" lon="10.7758168"><ele>158.0</ele><time>2026-03-28T10:52:33.756Z</time></trkpt><trkpt lat="45.5258899" lon="10.7757976"><ele>158.0</ele><time>2026-03-28T10:52:36.755Z</time></trkpt><trkpt lat="45.5259695" lon="10.7757588"><ele>158.0</ele><time>2026-03-28T10:52:38.755Z</time></trkpt><trkpt lat="45.526091" lon="10.7756998"><ele>158.0</ele><time>2026-03-28T10:52:40.755Z</time></trkpt><trkpt lat="45.526172" lon="10.775661"><ele>158.0</ele><time>2026-03-28T10:52:41.756Z</time></trkpt><trkpt lat="45.5262525" lon="10.775625"><ele>158.0</ele><time>2026-03-28T10:52:42.756Z</time></trkpt><trkpt lat="45.5263287" lon="10.775581"><ele>158.0</ele><time>2026-03-28T10:52:43.755Z</time></trkpt><trkpt lat="45.5264053" lon="10.7755429"><ele>158.0</ele><time>2026-03-28T10:52:44.755Z</time></trkpt><trkpt lat="45.5264835" lon="10.7755068"><ele>158.0</ele><time>2026-03-28T10:52:45.755Z</time></trkpt><trkpt lat="45.5265659" lon="10.7754791"><ele>158.0</ele><time>2026-03-28T10:52:46.755Z</time></trkpt><trkpt lat="45.5266535" lon="10.7754665"><ele>158.0</ele><time>2026-03-28T10:52:47.756Z</time></trkpt><trkpt lat="45.5267473" lon="10.7754679"><ele>158.0</ele><time>2026-03-28T10:52:48.756Z</time></trkpt><trkpt lat="45.5268436" lon="10.7754944"><ele>158.0</ele><time>2026-03-28T10:52:49.756Z</time></trkpt><trkpt lat="45.5269393" lon="10.7755407"><ele>158.0</ele><time>2026-03-28T10:52:50.756Z</time></trkpt><trkpt lat="45.5270466" lon="10.7755859"><ele>158.0</ele><time>2026-03-28T10:52:51.755Z</time></trkpt><trkpt lat="45.5271523" lon="10.7756415"><ele>157.5</ele><time>2026-03-28T10:52:52.755Z</time></trkpt><trkpt lat="45.5272679" lon="10.7756919"><ele>157.0</ele><time>2026-03-28T10:52:53.755Z</time></trkpt><trkpt lat="45.5273813" lon="10.7757374"><ele>156.5</ele><time>2026-03-28T10:52:54.755Z</time></trkpt><trkpt lat="45.5274947" lon="10.775792"><ele>156.0</ele><time>2026-03-28T10:52:55.755Z</time></trkpt><trkpt lat="45.5276003" lon="10.7758518"><ele>156.0</ele><time>2026-03-28T10:52:56.755Z</time></trkpt><trkpt lat="45.5277048" lon="10.7759022"><ele>156.0</ele><time>2026-03-28T10:52:57.755Z</time></trkpt><trkpt lat="45.5278122" lon="10.7759447"><ele>156.0</ele><time>2026-03-28T10:52:58.756Z</time></trkpt><trkpt lat="45.5279178" lon="10.7759756"><ele>156.0</ele><time>2026-03-28T10:52:59.755Z</time></trkpt><trkpt lat="45.5280233" lon="10.775991"><ele>156.0</ele><time>2026-03-28T10:53:00.755Z</time></trkpt><trkpt lat="45.5281328" lon="10.7759934"><ele>156.75</ele><time>2026-03-28T10:53:01.755Z</time></trkpt><trkpt lat="45.5282499" lon="10.7759978"><ele>157.5</ele><time>2026-03-28T10:53:02.755Z</time></trkpt><trkpt lat="45.5283677" lon="10.7760062"><ele>158.25</ele><time>2026-03-28T10:53:03.755Z</time></trkpt><trkpt lat="45.5284873" lon="10.7760184"><ele>159.0</ele><time>2026-03-28T10:53:04.756Z</time></trkpt><trkpt lat="45.5285974" lon="10.7760189"><ele>159.0</ele><time>2026-03-28T10:53:05.756Z</time></trkpt><trkpt lat="45.5286991" lon="10.7760087"><ele>159.0</ele><time>2026-03-28T10:53:06.756Z</time></trkpt><trkpt lat="45.5288042" lon="10.7759905"><ele>159.0</ele><time>2026-03-28T10:53:07.756Z</time></trkpt><trkpt lat="45.5289155" lon="10.7759566"><ele>159.0</ele><time>2026-03-28T10:53:08.755Z</time></trkpt><trkpt lat="45.5290246" lon="10.7759016"><ele>159.0</ele><time>2026-03-28T10:53:09.756Z</time></trkpt><trkpt lat="45.5291351" lon="10.7758244"><ele>159.25</ele><time>2026-03-28T10:53:10.756Z</time></trkpt><trkpt lat="45.5292415" lon="10.775731"><ele>159.5</ele><time>2026-03-28T10:53:11.756Z</time></trkpt><trkpt lat="45.5293473" lon="10.7756261"><ele>159.75</ele><time>2026-03-28T10:53:12.756Z</time></trkpt><trkpt lat="45.5294518" lon="10.7755118"><ele>160.0</ele><time>2026-03-28T10:53:13.755Z</time></trkpt><trkpt lat="45.5295496" lon="10.7754182"><ele>160.16666666666669</ele><time>2026-03-28T10:53:14.755Z</time></trkpt><trkpt lat="45.5296406" lon="10.7753454"><ele>160.33333333333334</ele><time>2026-03-28T10:53:15.756Z</time></trkpt><trkpt lat="45.5297212" lon="10.775292"><ele>160.5</ele><time>2026-03-28T10:53:16.755Z</time></trkpt><trkpt lat="45.5297997" lon="10.7752619"><ele>160.66666666666666</ele><time>2026-03-28T10:53:17.756Z</time></trkpt><trkpt lat="45.5298768" lon="10.7752643"><ele>160.83333333333331</ele><time>2026-03-28T10:53:18.756Z</time></trkpt><trkpt lat="45.529962" lon="10.7752945"><ele>161.0</ele><time>2026-03-28T10:53:19.755Z</time></trkpt><trkpt lat="45.5300501" lon="10.7753445"><ele>161.0</ele><time>2026-03-28T10:53:20.755Z</time></trkpt><trkpt lat="45.5301462" lon="10.7754049"><ele>161.0</ele><time>2026-03-28T10:53:21.756Z</time></trkpt><trkpt lat="45.5302516" lon="10.7754573"><ele>161.0</ele><time>2026-03-28T10:53:22.755Z</time></trkpt><trkpt lat="45.5303619" lon="10.7755054"><ele>161.0</ele><time>2026-03-28T10:53:23.755Z</time></trkpt><trkpt lat="45.5304606" lon="10.7755627"><ele>161.0</ele><time>2026-03-28T10:53:24.755Z</time></trkpt><trkpt lat="45.5305463" lon="10.7756419"><ele>161.0</ele><time>2026-03-28T10:53:25.756Z</time></trkpt><trkpt lat="45.5306195" lon="10.7757486"><ele>161.0</ele><time>2026-03-28T10:53:26.756Z</time></trkpt><trkpt lat="45.5306764" lon="10.7758775"><ele>161.0</ele><time>2026-03-28T10:53:27.755Z</time></trkpt><trkpt lat="45.5307153" lon="10.7760262"><ele>161.0</ele><time>2026-03-28T10:53:28.756Z</time></trkpt><trkpt lat="45.5307499" lon="10.7761767"><ele>161.0</ele><time>2026-03-28T10:53:29.755Z</time></trkpt><trkpt lat="45.5307933" lon="10.7763126"><ele>160.60000000000002</ele><time>2026-03-28T10:53:30.756Z</time></trkpt><trkpt lat="45.5308533" lon="10.7764215"><ele>160.20000000000002</ele><time>2026-03-28T10:53:31.755Z</time></trkpt><trkpt lat="45.5309213" lon="10.7765246"><ele>159.8</ele><time>2026-03-28T10:53:32.756Z</time></trkpt><trkpt lat="45.5310008" lon="10.7765963"><ele>159.4</ele><time>2026-03-28T10:53:33.755Z</time></trkpt><trkpt lat="45.5310946" lon="10.7766546"><ele>159.0</ele><time>2026-03-28T10:53:34.756Z</time></trkpt><trkpt lat="45.5312098" lon="10.7767019"><ele>159.5</ele><time>2026-03-28T10:53:35.756Z</time></trkpt><trkpt lat="45.531325" lon="10.776737"><ele>160.0</ele><time>2026-03-28T10:53:36.755Z</time></trkpt><trkpt lat="45.531412" lon="10.7767721"><ele>160.5</ele><time>2026-03-28T10:53:37.756Z</time></trkpt><trkpt lat="45.5314839" lon="10.7768128"><ele>161.0</ele><time>2026-03-28T10:53:38.756Z</time></trkpt><trkpt lat="45.5315433" lon="10.7768842"><ele>161.5</ele><time>2026-03-28T10:53:39.755Z</time></trkpt><trkpt lat="45.531577" lon="10.7769628"><ele>162.0</ele><time>2026-03-28T10:53:40.756Z</time></trkpt><trkpt lat="45.5315994" lon="10.7771174"><ele>162.33333333333334</ele><time>2026-03-28T10:53:42.755Z</time></trkpt><trkpt lat="45.5316015" lon="10.7772175"><ele>162.66666666666666</ele><time>2026-03-28T10:53:44.755Z</time></trkpt><trkpt lat="45.5316333" lon="10.7772955"><ele>163.0</ele><time>2026-03-28T10:53:54.755Z</time></trkpt><trkpt lat="45.5316934" lon="10.7773311"><ele>163.33333333333331</ele><time>2026-03-28T10:54:01.755Z</time></trkpt><trkpt lat="45.5317902" lon="10.7772691"><ele>163.66666666666666</ele><time>2026-03-28T10:54:03.755Z</time></trkpt><trkpt lat="45.5318452" lon="10.7772046"><ele>164.0</ele><time>2026-03-28T10:54:04.755Z</time></trkpt><trkpt lat="45.5319208" lon="10.77713"><ele>164.0</ele><time>2026-03-28T10:54:05.755Z</time></trkpt><trkpt lat="45.5320083" lon="10.7770451"><ele>164.0</ele><time>2026-03-28T10:54:06.756Z</time></trkpt><trkpt lat="45.5321034" lon="10.7769405"><ele>164.0</ele><time>2026-03-28T10:54:07.756Z</time></trkpt><trkpt lat="45.5322038" lon="10.7768351"><ele>164.0</ele><time>2026-03-28T10:54:08.755Z</time></trkpt><trkpt lat="45.5323118" lon="10.7767225"><ele>164.33333333333331</ele><time>2026-03-28T10:54:09.757Z</time></trkpt><trkpt lat="45.5324317" lon="10.7766034"><ele>164.66666666666666</ele><time>2026-03-28T10:54:10.756Z</time></trkpt><trkpt lat="45.5325556" lon="10.776477"><ele>165.0</ele><time>2026-03-28T10:54:11.755Z</time></trkpt><trkpt lat="45.5326821" lon="10.7763475"><ele>165.0</ele><time>2026-03-28T10:54:12.755Z</time></trkpt><trkpt lat="45.5328036" lon="10.7762155"><ele>165.0</ele><time>2026-03-28T10:54:13.756Z</time></trkpt><trkpt lat="45.5329417" lon="10.7760912"><ele>165.0</ele><time>2026-03-28T10:54:14.755Z</time></trkpt><trkpt lat="45.5330897" lon="10.7759649"><ele>164.66666666666666</ele><time>2026-03-28T10:54:15.755Z</time></trkpt><trkpt lat="45.5332495" lon="10.7758873"><ele>164.33333333333331</ele><time>2026-03-28T10:54:16.756Z</time></trkpt><trkpt lat="45.5334215" lon="10.7758438"><ele>164.0</ele><time>2026-03-28T10:54:17.756Z</time></trkpt><trkpt lat="45.533591" lon="10.7758417"><ele>164.66666666666666</ele><time>2026-03-28T10:54:18.755Z</time></trkpt><trkpt lat="45.5337581" lon="10.7758761"><ele>165.33333333333334</ele><time>2026-03-28T10:54:19.755Z</time></trkpt><trkpt lat="45.533924" lon="10.7759387"><ele>166.0</ele><time>2026-03-28T10:54:20.755Z</time></trkpt><trkpt lat="45.5340868" lon="10.7759976"><ele>166.33333333333334</ele><time>2026-03-28T10:54:21.756Z</time></trkpt><trkpt lat="45.5342504" lon="10.7760535"><ele>166.66666666666666</ele><time>2026-03-28T10:54:22.755Z</time></trkpt><trkpt lat="45.5344101" lon="10.7761132"><ele>167.0</ele><time>2026-03-28T10:54:23.755Z</time></trkpt><trkpt lat="45.5345733" lon="10.7761759"><ele>168.0</ele><time>2026-03-28T10:54:24.757Z</time></trkpt><trkpt lat="45.5347296" lon="10.776231"><ele>169.0</ele><time>2026-03-28T10:54:25.755Z</time></trkpt><trkpt lat="45.5348864" lon="10.7762641"><ele>170.0</ele><time>2026-03-28T10:54:26.756Z</time></trkpt><trkpt lat="45.535039" lon="10.7762627"><ele>170.0</ele><time>2026-03-28T10:54:27.755Z</time></trkpt><trkpt lat="45.5351885" lon="10.7762328"><ele>170.0</ele><time>2026-03-28T10:54:28.755Z</time></trkpt><trkpt lat="45.5353273" lon="10.7761872"><ele>170.0</ele><time>2026-03-28T10:54:29.756Z</time></trkpt><trkpt lat="45.535451" lon="10.776133"><ele>170.0</ele><time>2026-03-28T10:54:30.755Z</time></trkpt><trkpt lat="45.5355642" lon="10.7760745"><ele>170.0</ele><time>2026-03-28T10:54:31.755Z</time></trkpt><trkpt lat="45.5356679" lon="10.7760149"><ele>170.0</ele><time>2026-03-28T10:54:32.756Z</time></trkpt><trkpt lat="45.5357634" lon="10.7759556"><ele>170.0</ele><time>2026-03-28T10:54:33.755Z</time></trkpt><trkpt lat="45.5358623" lon="10.775896"><ele>170.0</ele><time>2026-03-28T10:54:34.756Z</time></trkpt><trkpt lat="45.5359613" lon="10.7758383"><ele>170.0</ele><time>2026-03-28T10:54:35.755Z</time></trkpt><trkpt lat="45.5360586" lon="10.7757777"><ele>170.0</ele><time>2026-03-28T10:54:36.756Z</time></trkpt><trkpt lat="45.5361527" lon="10.7757135"><ele>170.0</ele><time>2026-03-28T10:54:37.755Z</time></trkpt><trkpt lat="45.5362499" lon="10.7756561"><ele>170.0</ele><time>2026-03-28T10:54:38.756Z</time></trkpt><trkpt lat="45.5363477" lon="10.7756096"><ele>170.0</ele><time>2026-03-28T10:54:39.755Z</time></trkpt><trkpt lat="45.536443" lon="10.7755601"><ele>170.0</ele><time>2026-03-28T10:54:40.755Z</time></trkpt><trkpt lat="45.5365281" lon="10.775517"><ele>170.14285714285714</ele><time>2026-03-28T10:54:41.756Z</time></trkpt><trkpt lat="45.5366067" lon="10.7754747"><ele>170.28571428571428</ele><time>2026-03-28T10:54:42.756Z</time></trkpt><trkpt lat="45.5366813" lon="10.7754382"><ele>170.42857142857142</ele><time>2026-03-28T10:54:43.755Z</time></trkpt><trkpt lat="45.5367553" lon="10.775397"><ele>170.57142857142856</ele><time>2026-03-28T10:54:44.756Z</time></trkpt><trkpt lat="45.5368182" lon="10.7753538"><ele>170.71428571428572</ele><time>2026-03-28T10:54:45.755Z</time></trkpt><trkpt lat="45.5368787" lon="10.7753162"><ele>170.85714285714283</ele><time>2026-03-28T10:54:46.755Z</time></trkpt><trkpt lat="45.5369444" lon="10.7752779"><ele>171.0</ele><time>2026-03-28T10:54:47.755Z</time></trkpt><trkpt lat="45.5370092" lon="10.7752408"><ele>171.42857142857142</ele><time>2026-03-28T10:54:48.756Z</time></trkpt><trkpt lat="45.5370762" lon="10.7752026"><ele>171.85714285714286</ele><time>2026-03-28T10:54:49.755Z</time></trkpt><trkpt lat="45.5371423" lon="10.7751667"><ele>172.28571428571428</ele><time>2026-03-28T10:54:50.755Z</time></trkpt><trkpt lat="45.5372079" lon="10.7751358"><ele>172.71428571428572</ele><time>2026-03-28T10:54:51.756Z</time></trkpt><trkpt lat="45.5372714" lon="10.7751008"><ele>173.14285714285714</ele><time>2026-03-28T10:54:52.755Z</time></trkpt><trkpt lat="45.5373337" lon="10.7750484"><ele>173.57142857142856</ele><time>2026-03-28T10:54:53.756Z</time></trkpt><trkpt lat="45.5374079" lon="10.7750212"><ele>174.0</ele><time>2026-03-28T10:54:54.756Z</time></trkpt><trkpt lat="45.5374863" lon="10.7750394"><ele>174.0</ele><time>2026-03-28T10:54:55.755Z</time></trkpt><trkpt lat="45.5375419" lon="10.7751137"><ele>174.0</ele><time>2026-03-28T10:54:56.755Z</time></trkpt><trkpt lat="45.5375663" lon="10.775221"><ele>174.0</ele><time>2026-03-28T10:54:57.756Z</time></trkpt><trkpt lat="45.5375762" lon="10.7753415"><ele>174.0</ele><time>2026-03-28T10:54:58.756Z</time></trkpt><trkpt lat="45.5375892" lon="10.7754695"><ele>174.0</ele><time>2026-03-28T10:54:59.755Z</time></trkpt><trkpt lat="45.5376025" lon="10.7756178"><ele>174.0</ele><time>2026-03-28T10:55:00.756Z</time></trkpt><trkpt lat="45.5376104" lon="10.7757826"><ele>174.25</ele><time>2026-03-28T10:55:01.755Z</time></trkpt><trkpt lat="45.5376129" lon="10.7759624"><ele>174.5</ele><time>2026-03-28T10:55:02.755Z</time></trkpt><trkpt lat="45.5376125" lon="10.7761588"><ele>174.75</ele><time>2026-03-28T10:55:03.756Z</time></trkpt><trkpt lat="45.5376152" lon="10.7763627"><ele>175.0</ele><time>2026-03-28T10:55:04.755Z</time></trkpt><trkpt lat="45.5376233" lon="10.7765747"><ele>175.33333333333334</ele><time>2026-03-28T10:55:05.755Z</time></trkpt><trkpt lat="45.5376347" lon="10.7767914"><ele>175.66666666666666</ele><time>2026-03-28T10:55:06.756Z</time></trkpt><trkpt lat="45.5376456" lon="10.7770096"><ele>176.0</ele><time>2026-03-28T10:55:07.755Z</time></trkpt><trkpt lat="45.5376547" lon="10.7772276"><ele>176.0</ele><time>2026-03-28T10:55:08.756Z</time></trkpt><trkpt lat="45.537665" lon="10.7774438"><ele>176.0</ele><time>2026-03-28T10:55:09.755Z</time></trkpt><trkpt lat="45.5376723" lon="10.7776608"><ele>176.0</ele><time>2026-03-28T10:55:10.757Z</time></trkpt><trkpt lat="45.5376831" lon="10.777873"><ele>175.75</ele><time>2026-03-28T10:55:11.755Z</time></trkpt><trkpt lat="45.5376953" lon="10.7780679"><ele>175.5</ele><time>2026-03-28T10:55:12.756Z</time></trkpt><trkpt lat="45.5377069" lon="10.7782572"><ele>175.25</ele><time>2026-03-28T10:55:13.755Z</time></trkpt><trkpt lat="45.5377177" lon="10.7784421"><ele>175.0</ele><time>2026-03-28T10:55:14.756Z</time></trkpt><trkpt lat="45.537727" lon="10.7786177"><ele>174.25</ele><time>2026-03-28T10:55:15.755Z</time></trkpt><trkpt lat="45.5377356" lon="10.7787947"><ele>173.5</ele><time>2026-03-28T10:55:16.755Z</time></trkpt><trkpt lat="45.5377439" lon="10.7789692"><ele>172.75</ele><time>2026-03-28T10:55:17.756Z</time></trkpt><trkpt lat="45.5377533" lon="10.779137"><ele>172.0</ele><time>2026-03-28T10:55:18.756Z</time></trkpt><trkpt lat="45.5377618" lon="10.7793063"><ele>172.2</ele><time>2026-03-28T10:55:19.755Z</time></trkpt><trkpt lat="45.5377717" lon="10.7794687"><ele>172.39999999999998</ele><time>2026-03-28T10:55:20.755Z</time></trkpt><trkpt lat="45.5377832" lon="10.7796296"><ele>172.60000000000002</ele><time>2026-03-28T10:55:21.756Z</time></trkpt><trkpt lat="45.5377899" lon="10.7797735"><ele>172.8</ele><time>2026-03-28T10:55:22.757Z</time></trkpt><trkpt lat="45.5377978" lon="10.7799227"><ele>173.0</ele><time>2026-03-28T10:55:23.755Z</time></trkpt><trkpt lat="45.5378062" lon="10.7800488"><ele>173.0</ele><time>2026-03-28T10:55:27.756Z</time></trkpt><trkpt lat="45.5377012" lon="10.7801352"><ele>173.0</ele><time>2026-03-28T10:55:29.756Z</time></trkpt><trkpt lat="45.5376329" lon="10.7801504"><ele>173.0</ele><time>2026-03-28T10:55:30.755Z</time></trkpt><trkpt lat="45.5375664" lon="10.7801501"><ele>173.0</ele><time>2026-03-28T10:55:31.756Z</time></trkpt><trkpt lat="45.5374742" lon="10.7801554"><ele>173.0</ele><time>2026-03-28T10:55:32.756Z</time></trkpt><trkpt lat="45.5373543" lon="10.7801618"><ele>173.0</ele><time>2026-03-28T10:55:33.755Z</time></trkpt><trkpt lat="45.5372008" lon="10.7801772"><ele>173.0</ele><time>2026-03-28T10:55:34.756Z</time></trkpt><trkpt lat="45.5370037" lon="10.780208"><ele>173.0</ele><time>2026-03-28T10:55:35.756Z</time></trkpt><trkpt lat="45.536772" lon="10.780242"><ele>171.5</ele><time>2026-03-28T10:55:36.755Z</time></trkpt><trkpt lat="45.536514" lon="10.7802772"><ele>170.0</ele><time>2026-03-28T10:55:37.756Z</time></trkpt><trkpt lat="45.5362659" lon="10.7803152"><ele>166.5</ele><time>2026-03-28T10:55:38.755Z</time></trkpt><trkpt lat="45.536015" lon="10.7803596"><ele>163.0</ele><time>2026-03-28T10:55:39.756Z</time></trkpt><trkpt lat="45.5357613" lon="10.7804043"><ele>163.0</ele><time>2026-03-28T10:55:40.756Z</time></trkpt><trkpt lat="45.5355161" lon="10.7804471"><ele>163.0</ele><time>2026-03-28T10:55:41.755Z</time></trkpt><trkpt lat="45.5352882" lon="10.780485"><ele>163.33333333333334</ele><time>2026-03-28T10:55:42.755Z</time></trkpt><trkpt lat="45.5350711" lon="10.7805183"><ele>163.66666666666666</ele><time>2026-03-28T10:55:43.756Z</time></trkpt><trkpt lat="45.5348691" lon="10.7805489"><ele>164.0</ele><time>2026-03-28T10:55:44.756Z</time></trkpt><trkpt lat="45.5346785" lon="10.7805757"><ele>163.33333333333331</ele><time>2026-03-28T10:55:45.755Z</time></trkpt><trkpt lat="45.5344939" lon="10.7805972"><ele>162.66666666666666</ele><time>2026-03-28T10:55:46.755Z</time></trkpt><trkpt lat="45.5343127" lon="10.7806144"><ele>162.0</ele><time>2026-03-28T10:55:47.756Z</time></trkpt><trkpt lat="45.5341476" lon="10.7806312"><ele>162.0</ele><time>2026-03-28T10:55:48.756Z</time></trkpt><trkpt lat="45.5339918" lon="10.780649"><ele>162.0</ele><time>2026-03-28T10:55:49.755Z</time></trkpt><trkpt lat="45.5338507" lon="10.7806627"><ele>162.0</ele><time>2026-03-28T10:55:50.756Z</time></trkpt><trkpt lat="45.5337175" lon="10.7806777"><ele>162.0</ele><time>2026-03-28T10:55:51.756Z</time></trkpt><trkpt lat="45.5335928" lon="10.7806903"><ele>162.5</ele><time>2026-03-28T10:55:52.756Z</time></trkpt><trkpt lat="45.5334709" lon="10.7806993"><ele>163.0</ele><time>2026-03-28T10:55:53.755Z</time></trkpt><trkpt lat="45.5333497" lon="10.7807131"><ele>163.5</ele><time>2026-03-28T10:55:54.755Z</time></trkpt><trkpt lat="45.5332186" lon="10.7807303"><ele>164.0</ele><time>2026-03-28T10:55:55.756Z</time></trkpt><trkpt lat="45.5330729" lon="10.7807508"><ele>164.0</ele><time>2026-03-28T10:55:56.755Z</time></trkpt><trkpt lat="45.5329328" lon="10.7807695"><ele>164.0</ele><time>2026-03-28T10:55:57.756Z</time></trkpt><trkpt lat="45.5327918" lon="10.780789"><ele>164.0</ele><time>2026-03-28T10:55:58.755Z</time></trkpt><trkpt lat="45.5326535" lon="10.7808054"><ele>164.0</ele><time>2026-03-28T10:55:59.755Z</time></trkpt><trkpt lat="45.5325279" lon="10.7808199"><ele>164.39999999999998</ele><time>2026-03-28T10:56:00.755Z</time></trkpt><trkpt lat="45.5324046" lon="10.7808395"><ele>164.8</ele><time>2026-03-28T10:56:01.756Z</time></trkpt><trkpt lat="45.5322931" lon="10.7808725"><ele>165.2</ele><time>2026-03-28T10:56:02.756Z</time></trkpt><trkpt lat="45.5321879" lon="10.7808995"><ele>165.60000000000002</ele><time>2026-03-28T10:56:03.755Z</time></trkpt><trkpt lat="45.5320977" lon="10.780913"><ele>166.0</ele><time>2026-03-28T10:56:04.755Z</time></trkpt><trkpt lat="45.5320297" lon="10.7809295"><ele>165.60000000000002</ele><time>2026-03-28T10:56:05.755Z</time></trkpt><trkpt lat="45.5319676" lon="10.7810204"><ele>165.2</ele><time>2026-03-28T10:56:07.755Z</time></trkpt><trkpt lat="45.5320073" lon="10.7811742"><ele>164.8</ele><time>2026-03-28T10:56:09.755Z</time></trkpt><trkpt lat="45.5320561" lon="10.7812952"><ele>164.39999999999998</ele><time>2026-03-28T10:56:10.755Z</time></trkpt><trkpt lat="45.5321033" lon="10.7814339"><ele>164.0</ele><time>2026-03-28T10:56:11.756Z</time></trkpt><trkpt lat="45.5321547" lon="10.7815843"><ele>164.0</ele><time>2026-03-28T10:56:12.755Z</time></trkpt><trkpt lat="45.5322117" lon="10.781738"><ele>164.0</ele><time>2026-03-28T10:56:13.756Z</time></trkpt><trkpt lat="45.5322641" lon="10.7818896"><ele>164.0</ele><time>2026-03-28T10:56:14.756Z</time></trkpt><trkpt lat="45.5323116" lon="10.78205"><ele>164.0</ele><time>2026-03-28T10:56:15.755Z</time></trkpt><trkpt lat="45.5323476" lon="10.7822045"><ele>163.75</ele><time>2026-03-28T10:56:16.755Z</time></trkpt><trkpt lat="45.5323848" lon="10.782357"><ele>163.5</ele><time>2026-03-28T10:56:17.756Z</time></trkpt><trkpt lat="45.5324315" lon="10.7825411"><ele>163.25</ele><time>2026-03-28T10:56:18.756Z</time></trkpt><trkpt lat="45.5324788" lon="10.7827375"><ele>163.0</ele><time>2026-03-28T10:56:19.755Z</time></trkpt><trkpt lat="45.5325315" lon="10.7829339"><ele>163.0</ele><time>2026-03-28T10:56:20.756Z</time></trkpt><trkpt lat="45.5325732" lon="10.7831111"><ele>163.0</ele><time>2026-03-28T10:56:21.756Z</time></trkpt><trkpt lat="45.5326049" lon="10.7832799"><ele>163.0</ele><time>2026-03-28T10:56:22.756Z</time></trkpt><trkpt lat="45.5326177" lon="10.7834226"><ele>163.0</ele><time>2026-03-28T10:56:23.756Z</time></trkpt><trkpt lat="45.53261" lon="10.7835515"><ele>163.0</ele><time>2026-03-28T10:56:24.755Z</time></trkpt><trkpt lat="45.5325848" lon="10.783665"><ele>163.4</ele><time>2026-03-28T10:56:25.756Z</time></trkpt><trkpt lat="45.5325402" lon="10.7837856"><ele>163.8</ele><time>2026-03-28T10:56:26.755Z</time></trkpt><trkpt lat="45.5324917" lon="10.7839258"><ele>164.2</ele><time>2026-03-28T10:56:27.755Z</time></trkpt><trkpt lat="45.5324399" lon="10.7840841"><ele>164.6</ele><time>2026-03-28T10:56:28.756Z</time></trkpt><trkpt lat="45.5323925" lon="10.7842291"><ele>165.0</ele><time>2026-03-28T10:56:29.755Z</time></trkpt><trkpt lat="45.5323437" lon="10.7843602"><ele>165.4</ele><time>2026-03-28T10:56:30.755Z</time></trkpt><trkpt lat="45.5322978" lon="10.7844954"><ele>165.8</ele><time>2026-03-28T10:56:31.756Z</time></trkpt><trkpt lat="45.5322661" lon="10.7846239"><ele>166.2</ele><time>2026-03-28T10:56:32.755Z</time></trkpt><trkpt lat="45.532259" lon="10.7847548"><ele>166.6</ele><time>2026-03-28T10:56:33.756Z</time></trkpt><trkpt lat="45.532274" lon="10.784891"><ele>167.0</ele><time>2026-03-28T10:56:34.755Z</time></trkpt><trkpt lat="45.5323016" lon="10.7850216"><ele>167.0</ele><time>2026-03-28T10:56:35.755Z</time></trkpt><trkpt lat="45.532312" lon="10.7851384"><ele>167.0</ele><time>2026-03-28T10:56:36.755Z</time></trkpt><trkpt lat="45.5322964" lon="10.7852431"><ele>167.0</ele><time>2026-03-28T10:56:37.756Z</time></trkpt><trkpt lat="45.5322619" lon="10.7853538"><ele>167.0</ele><time>2026-03-28T10:56:38.756Z</time></trkpt><trkpt lat="45.53221" lon="10.7854645"><ele>167.0</ele><time>2026-03-28T10:56:39.756Z</time></trkpt><trkpt lat="45.5321481" lon="10.7855835"><ele>167.0</ele><time>2026-03-28T10:56:40.756Z</time></trkpt><trkpt lat="45.5320777" lon="10.7857036"><ele>166.8</ele><time>2026-03-28T10:56:41.756Z</time></trkpt><trkpt lat="45.5320002" lon="10.7858173"><ele>166.6</ele><time>2026-03-28T10:56:42.755Z</time></trkpt><trkpt lat="45.531923" lon="10.785909"><ele>166.4</ele><time>2026-03-28T10:56:43.755Z</time></trkpt><trkpt lat="45.531849" lon="10.7860078"><ele>166.20000000000002</ele><time>2026-03-28T10:56:44.756Z</time></trkpt><trkpt lat="45.5317744" lon="10.7861123"><ele>166.0</ele><time>2026-03-28T10:56:45.755Z</time></trkpt><trkpt lat="45.5316952" lon="10.7862299"><ele>167.0</ele><time>2026-03-28T10:56:46.755Z</time></trkpt><trkpt lat="45.5316192" lon="10.7863598"><ele>168.0</ele><time>2026-03-28T10:56:47.756Z</time></trkpt><trkpt lat="45.5315419" lon="10.7864972"><ele>169.0</ele><time>2026-03-28T10:56:48.756Z</time></trkpt><trkpt lat="45.5314656" lon="10.7866354"><ele>170.0</ele><time>2026-03-28T10:56:49.755Z</time></trkpt><trkpt lat="45.5313866" lon="10.7867719"><ele>170.16666666666666</ele><time>2026-03-28T10:56:50.755Z</time></trkpt><trkpt lat="45.5313123" lon="10.7869088"><ele>170.33333333333331</ele><time>2026-03-28T10:56:51.755Z</time></trkpt><trkpt lat="45.5312468" lon="10.7870262"><ele>170.5</ele><time>2026-03-28T10:56:52.757Z</time></trkpt><trkpt lat="45.5311999" lon="10.7871244"><ele>170.66666666666666</ele><time>2026-03-28T10:56:53.755Z</time></trkpt><trkpt lat="45.5311739" lon="10.7872141"><ele>170.83333333333334</ele><time>2026-03-28T10:56:54.755Z</time></trkpt><trkpt lat="45.5311656" lon="10.7873093"><ele>171.0</ele><time>2026-03-28T10:56:55.755Z</time></trkpt><trkpt lat="45.531173" lon="10.7874183"><ele>171.0</ele><time>2026-03-28T10:56:56.755Z</time></trkpt><trkpt lat="45.5311848" lon="10.7875357"><ele>171.0</ele><time>2026-03-28T10:56:57.756Z</time></trkpt><trkpt lat="45.5312008" lon="10.7876441"><ele>171.0</ele><time>2026-03-28T10:56:58.755Z</time></trkpt><trkpt lat="45.5312171" lon="10.7877367"><ele>171.0</ele><time>2026-03-28T10:56:59.755Z</time></trkpt><trkpt lat="45.5312422" lon="10.787828"><ele>171.0</ele><time>2026-03-28T10:57:00.756Z</time></trkpt><trkpt lat="45.5312779" lon="10.7879195"><ele>171.0</ele><time>2026-03-28T10:57:01.755Z</time></trkpt><trkpt lat="45.531322" lon="10.7880148"><ele>172.16666666666666</ele><time>2026-03-28T10:57:02.755Z</time></trkpt><trkpt lat="45.5313673" lon="10.7881145"><ele>173.33333333333334</ele><time>2026-03-28T10:57:03.756Z</time></trkpt><trkpt lat="45.5314066" lon="10.788213"><ele>174.5</ele><time>2026-03-28T10:57:04.755Z</time></trkpt><trkpt lat="45.5314399" lon="10.7882976"><ele>175.66666666666669</ele><time>2026-03-28T10:57:05.756Z</time></trkpt><trkpt lat="45.5314724" lon="10.7883839"><ele>176.83333333333334</ele><time>2026-03-28T10:57:06.755Z</time></trkpt><trkpt lat="45.5315098" lon="10.7885097"><ele>178.0</ele><time>2026-03-28T10:57:08.755Z</time></trkpt><trkpt lat="45.5315564" lon="10.7885796"><ele>178.0</ele><time>2026-03-28T10:57:12.755Z</time></trkpt><trkpt lat="45.5316682" lon="10.788542"><ele>178.0</ele><time>2026-03-28T10:57:14.756Z</time></trkpt><trkpt lat="45.5317467" lon="10.7884804"><ele>178.0</ele><time>2026-03-28T10:57:15.756Z</time></trkpt><trkpt lat="45.531842" lon="10.788413"><ele>178.0</ele><time>2026-03-28T10:57:16.755Z</time></trkpt><trkpt lat="45.5319476" lon="10.7883332"><ele>178.0</ele><time>2026-03-28T10:57:17.756Z</time></trkpt><trkpt lat="45.5320578" lon="10.7882429"><ele>178.5</ele><time>2026-03-28T10:57:18.755Z</time></trkpt><trkpt lat="45.5321765" lon="10.7881531"><ele>179.0</ele><time>2026-03-28T10:57:19.756Z</time></trkpt><trkpt lat="45.5322969" lon="10.7880741"><ele>179.5</ele><time>2026-03-28T10:57:20.755Z</time></trkpt><trkpt lat="45.5324153" lon="10.7879964"><ele>180.0</ele><time>2026-03-28T10:57:21.755Z</time></trkpt><trkpt lat="45.5325276" lon="10.7879244"><ele>180.0</ele><time>2026-03-28T10:57:22.755Z</time></trkpt><trkpt lat="45.5326275" lon="10.7878597"><ele>180.0</ele><time>2026-03-28T10:57:23.756Z</time></trkpt><trkpt lat="45.5327196" lon="10.787798"><ele>180.0</ele><time>2026-03-28T10:57:24.755Z</time></trkpt><trkpt lat="45.5328033" lon="10.7877587"><ele>180.0</ele><time>2026-03-28T10:57:25.757Z</time></trkpt><trkpt lat="45.5328657" lon="10.7877743"><ele>180.0</ele><time>2026-03-28T10:57:26.755Z</time></trkpt><trkpt lat="45.5329577" lon="10.7879189"><ele>180.2</ele><time>2026-03-28T10:57:28.755Z</time></trkpt><trkpt lat="45.5330077" lon="10.7880281"><ele>180.4</ele><time>2026-03-28T10:57:29.755Z</time></trkpt><trkpt lat="45.5330683" lon="10.7881564"><ele>180.60000000000002</ele><time>2026-03-28T10:57:30.755Z</time></trkpt><trkpt lat="45.5331368" lon="10.7882932"><ele>180.8</ele><time>2026-03-28T10:57:31.756Z</time></trkpt><trkpt lat="45.5332096" lon="10.7884336"><ele>181.0</ele><time>2026-03-28T10:57:32.756Z</time></trkpt><trkpt lat="45.5332808" lon="10.7885721"><ele>181.4</ele><time>2026-03-28T10:57:33.756Z</time></trkpt><trkpt lat="45.5333487" lon="10.7887065"><ele>181.8</ele><time>2026-03-28T10:57:34.756Z</time></trkpt><trkpt lat="45.5334075" lon="10.7888298"><ele>182.20000000000002</ele><time>2026-03-28T10:57:35.755Z</time></trkpt><trkpt lat="45.5334577" lon="10.7889458"><ele>182.60000000000002</ele><time>2026-03-28T10:57:36.756Z</time></trkpt><trkpt lat="45.5335046" lon="10.7890568"><ele>183.0</ele><time>2026-03-28T10:57:37.756Z</time></trkpt><trkpt lat="45.5335578" lon="10.7891728"><ele>183.0</ele><time>2026-03-28T10:57:38.756Z</time></trkpt><trkpt lat="45.533616" lon="10.7892923"><ele>183.0</ele><time>2026-03-28T10:57:39.756Z</time></trkpt><trkpt lat="45.5336852" lon="10.7894119"><ele>183.0</ele><time>2026-03-28T10:57:40.756Z</time></trkpt><trkpt lat="45.5337611" lon="10.7895358"><ele>183.0</ele><time>2026-03-28T10:57:41.755Z</time></trkpt><trkpt lat="45.5338378" lon="10.7896716"><ele>183.0</ele><time>2026-03-28T10:57:42.755Z</time></trkpt><trkpt lat="45.5339295" lon="10.7897853"><ele>186.60000000000002</ele><time>2026-03-28T10:57:43.755Z</time></trkpt><trkpt lat="45.5340334" lon="10.7898762"><ele>190.20000000000002</ele><time>2026-03-28T10:57:44.756Z</time></trkpt><trkpt lat="45.5341266" lon="10.7899842"><ele>193.8</ele><time>2026-03-28T10:57:45.756Z</time></trkpt><trkpt lat="45.5342173" lon="10.7900663"><ele>197.4</ele><time>2026-03-28T10:57:46.755Z</time></trkpt><trkpt lat="45.5342834" lon="10.7901449"><ele>201.0</ele><time>2026-03-28T10:57:47.755Z</time></trkpt><trkpt lat="45.5343363" lon="10.7902"><ele>201.66666666666666</ele><time>2026-03-28T10:57:48.756Z</time></trkpt><trkpt lat="45.5344346" lon="10.7902692"><ele>202.33333333333331</ele><time>2026-03-28T10:57:50.756Z</time></trkpt><trkpt lat="45.534502" lon="10.7903003"><ele>203.0</ele><time>2026-03-28T10:57:51.755Z</time></trkpt><trkpt lat="45.5345713" lon="10.7903381"><ele>203.66666666666666</ele><time>2026-03-28T10:57:52.756Z</time></trkpt><trkpt lat="45.5346302" lon="10.790383"><ele>204.33333333333331</ele><time>2026-03-28T10:57:53.755Z</time></trkpt><trkpt lat="45.5346805" lon="10.790467"><ele>205.0</ele><time>2026-03-28T10:57:54.756Z</time></trkpt><trkpt lat="45.5347297" lon="10.7905882"><ele>204.99999999999997</ele><time>2026-03-28T10:57:56.756Z</time></trkpt><trkpt lat="45.534769" lon="10.7906644"><ele>205.0</ele><time>2026-03-28T10:57:59.756Z</time></trkpt><trkpt lat="45.5348546" lon="10.7907454"><ele>205.0</ele><time>2026-03-28T10:58:13.755Z</time></trkpt><trkpt lat="45.5349025" lon="10.7908269"><ele>205.0</ele><time>2026-03-28T10:58:14.756Z</time></trkpt><trkpt lat="45.5349564" lon="10.7909181"><ele>204.99999999999997</ele><time>2026-03-28T10:58:15.755Z</time></trkpt><trkpt lat="45.5350175" lon="10.7910112"><ele>205.0</ele><time>2026-03-28T10:58:16.756Z</time></trkpt><trkpt lat="45.535087" lon="10.7910896"><ele>204.99999999999997</ele><time>2026-03-28T10:58:17.755Z</time></trkpt><trkpt lat="45.5351494" lon="10.7911547"><ele>205.0</ele><time>2026-03-28T10:58:18.756Z</time></trkpt><trkpt lat="45.5352047" lon="10.7912124"><ele>205.0</ele><time>2026-03-28T10:58:19.755Z</time></trkpt><trkpt lat="45.5352844" lon="10.7912215"><ele>205.0</ele><time>2026-03-28T10:58:21.756Z</time></trkpt><trkpt lat="45.5353744" lon="10.7911769"><ele>204.99999999999997</ele><time>2026-03-28T10:58:23.755Z</time></trkpt><trkpt lat="45.5354828" lon="10.7911174"><ele>205.0</ele><time>2026-03-28T10:58:25.756Z</time></trkpt><trkpt lat="45.5355464" lon="10.7911069"><ele>203.2</ele><time>2026-03-28T10:58:26.755Z</time></trkpt><trkpt lat="45.5356575" lon="10.791102"><ele>201.4</ele><time>2026-03-28T10:58:28.755Z</time></trkpt><trkpt lat="45.5357661" lon="10.7911637"><ele>199.60000000000002</ele><time>2026-03-28T10:58:30.755Z</time></trkpt><trkpt lat="45.5358232" lon="10.791212"><ele>197.8</ele><time>2026-03-28T10:58:31.756Z</time></trkpt><trkpt lat="45.5358989" lon="10.7913057"><ele>196.0</ele><time>2026-03-28T10:58:33.756Z</time></trkpt><trkpt lat="45.5359502" lon="10.7914334"><ele>196.0</ele><time>2026-03-28T10:58:35.755Z</time></trkpt><trkpt lat="45.5359981" lon="10.7915265"><ele>196.0</ele><time>2026-03-28T10:58:37.755Z</time></trkpt><trkpt lat="45.536049" lon="10.7916029"><ele>196.0</ele><time>2026-03-28T10:58:40.755Z</time></trkpt><trkpt lat="45.5361257" lon="10.791657"><ele>196.0</ele><time>2026-03-28T10:58:43.755Z</time></trkpt><trkpt lat="45.5361892" lon="10.7916519"><ele>196.0</ele><time>2026-03-28T10:58:45.756Z</time></trkpt><trkpt lat="45.5362423" lon="10.7915934"><ele>196.0</ele><time>2026-03-28T10:58:47.755Z</time></trkpt><trkpt lat="45.5362773" lon="10.7915027"><ele>196.0</ele><time>2026-03-28T10:58:49.755Z</time></trkpt><trkpt lat="45.5363299" lon="10.7914036"><ele>193.99999999999997</ele><time>2026-03-28T10:58:51.755Z</time></trkpt><trkpt lat="45.5364196" lon="10.7913561"><ele>192.0</ele><time>2026-03-28T10:58:53.756Z</time></trkpt><trkpt lat="45.5365102" lon="10.7913508"><ele>190.0</ele><time>2026-03-28T10:58:55.755Z</time></trkpt><trkpt lat="45.5366193" lon="10.7913422"><ele>188.0</ele><time>2026-03-28T10:58:57.755Z</time></trkpt><trkpt lat="45.5366797" lon="10.7913783"><ele>186.0</ele><time>2026-03-28T10:58:59.755Z</time></trkpt><trkpt lat="45.5367589" lon="10.791396"><ele>184.0</ele><time>2026-03-28T10:59:02.757Z</time></trkpt><trkpt lat="45.5368413" lon="10.7913802"><ele>184.0</ele><time>2026-03-28T10:59:05.756Z</time></trkpt><trkpt lat="45.5369033" lon="10.7913513"><ele>184.0</ele><time>2026-03-28T10:59:07.756Z</time></trkpt><trkpt lat="45.5369692" lon="10.7912884"><ele>184.0</ele><time>2026-03-28T10:59:09.755Z</time></trkpt><trkpt lat="45.5370291" lon="10.7912123"><ele>184.0</ele><time>2026-03-28T10:59:11.755Z</time></trkpt><trkpt lat="45.5370779" lon="10.7911424"><ele>184.0</ele><time>2026-03-28T10:59:13.756Z</time></trkpt><trkpt lat="45.5371286" lon="10.7910745"><ele>184.0</ele><time>2026-03-28T10:59:15.755Z</time></trkpt><trkpt lat="45.5371834" lon="10.7910093"><ele>184.0</ele><time>2026-03-28T10:59:17.756Z</time></trkpt><trkpt lat="45.5372517" lon="10.7909717"><ele>184.71428571428572</ele><time>2026-03-28T10:59:19.756Z</time></trkpt><trkpt lat="45.5373227" lon="10.7909542"><ele>185.42857142857142</ele><time>2026-03-28T10:59:21.755Z</time></trkpt><trkpt lat="45.5373903" lon="10.7909345"><ele>186.14285714285714</ele><time>2026-03-28T10:59:23.756Z</time></trkpt><trkpt lat="45.5374531" lon="10.7909025"><ele>186.85714285714286</ele><time>2026-03-28T10:59:25.756Z</time></trkpt><trkpt lat="45.5375099" lon="10.7908597"><ele>187.57142857142856</ele><time>2026-03-28T10:59:27.756Z</time></trkpt><trkpt lat="45.5375939" lon="10.7907897"><ele>188.28571428571428</ele><time>2026-03-28T10:59:30.755Z</time></trkpt><trkpt lat="45.5376596" lon="10.7907422"><ele>189.0</ele><time>2026-03-28T10:59:32.756Z</time></trkpt><trkpt lat="45.5377202" lon="10.7906906"><ele>189.0</ele><time>2026-03-28T10:59:34.756Z</time></trkpt><trkpt lat="45.5378065" lon="10.7906533"><ele>189.0</ele><time>2026-03-28T10:59:36.756Z</time></trkpt><trkpt lat="45.5378912" lon="10.790626"><ele>189.0</ele><time>2026-03-28T10:59:38.755Z</time></trkpt><trkpt lat="45.5379925" lon="10.7905563"><ele>189.0</ele><time>2026-03-28T10:59:40.755Z</time></trkpt><trkpt lat="45.5380805" lon="10.7904504"><ele>189.0</ele><time>2026-03-28T10:59:42.755Z</time></trkpt><trkpt lat="45.5381311" lon="10.7903897"><ele>188.14285714285714</ele><time>2026-03-28T10:59:43.756Z</time></trkpt><trkpt lat="45.5381899" lon="10.7903472"><ele>187.28571428571428</ele><time>2026-03-28T10:59:44.756Z</time></trkpt><trkpt lat="45.5382494" lon="10.7902986"><ele>186.42857142857144</ele><time>2026-03-28T10:59:45.756Z</time></trkpt><trkpt lat="45.5382994" lon="10.7902427"><ele>185.57142857142856</ele><time>2026-03-28T10:59:46.756Z</time></trkpt><trkpt lat="45.53835" lon="10.7901818"><ele>184.71428571428572</ele><time>2026-03-28T10:59:47.756Z</time></trkpt><trkpt lat="45.5383922" lon="10.7901042"><ele>183.85714285714286</ele><time>2026-03-28T10:59:48.756Z</time></trkpt><trkpt lat="45.5384413" lon="10.7900233"><ele>183.0</ele><time>2026-03-28T10:59:49.756Z</time></trkpt><trkpt lat="45.5385033" lon="10.7899205"><ele>183.0</ele><time>2026-03-28T10:59:50.755Z</time></trkpt><trkpt lat="45.5385566" lon="10.7898283"><ele>183.0</ele><time>2026-03-28T10:59:51.755Z</time></trkpt><trkpt lat="45.5386137" lon="10.7897402"><ele>183.0</ele><time>2026-03-28T10:59:52.755Z</time></trkpt><trkpt lat="45.5386665" lon="10.7896567"><ele>183.0</ele><time>2026-03-28T10:59:53.755Z</time></trkpt><trkpt lat="45.5387417" lon="10.7895814"><ele>183.0</ele><time>2026-03-28T10:59:54.755Z</time></trkpt><trkpt lat="45.5388042" lon="10.7895041"><ele>183.0</ele><time>2026-03-28T10:59:55.756Z</time></trkpt><trkpt lat="45.5388746" lon="10.7894355"><ele>181.83333333333334</ele><time>2026-03-28T10:59:56.756Z</time></trkpt><trkpt lat="45.5389371" lon="10.789349"><ele>180.66666666666666</ele><time>2026-03-28T10:59:57.755Z</time></trkpt><trkpt lat="45.5389917" lon="10.7892572"><ele>179.5</ele><time>2026-03-28T10:59:58.756Z</time></trkpt><trkpt lat="45.5390434" lon="10.7891528"><ele>178.33333333333331</ele><time>2026-03-28T10:59:59.755Z</time></trkpt><trkpt lat="45.5391057" lon="10.7890463"><ele>177.16666666666666</ele><time>2026-03-28T11:00:00.755Z</time></trkpt><trkpt lat="45.5391494" lon="10.7889499"><ele>176.0</ele><time>2026-03-28T11:00:01.756Z</time></trkpt><trkpt lat="45.5392135" lon="10.7888373"><ele>176.0</ele><time>2026-03-28T11:00:02.756Z</time></trkpt><trkpt lat="45.5392662" lon="10.7887206"><ele>176.0</ele><time>2026-03-28T11:00:03.755Z</time></trkpt><trkpt lat="45.5393286" lon="10.7886176"><ele>176.0</ele><time>2026-03-28T11:00:04.755Z</time></trkpt><trkpt lat="45.5393757" lon="10.7885168"><ele>176.0</ele><time>2026-03-28T11:00:05.756Z</time></trkpt><trkpt lat="45.5394218" lon="10.7884239"><ele>176.0</ele><time>2026-03-28T11:00:06.756Z</time></trkpt><trkpt lat="45.5394628" lon="10.788327"><ele>176.0</ele><time>2026-03-28T11:00:07.756Z</time></trkpt><trkpt lat="45.5394916" lon="10.7882305"><ele>175.4</ele><time>2026-03-28T11:00:08.755Z</time></trkpt><trkpt lat="45.5395174" lon="10.7881359"><ele>174.8</ele><time>2026-03-28T11:00:09.755Z</time></trkpt><trkpt lat="45.5395892" lon="10.7879979"><ele>174.20000000000002</ele><time>2026-03-28T11:00:11.756Z</time></trkpt><trkpt lat="45.5396603" lon="10.7878903"><ele>173.60000000000002</ele><time>2026-03-28T11:00:13.756Z</time></trkpt><trkpt lat="45.539751" lon="10.7877933"><ele>173.0</ele><time>2026-03-28T11:00:15.755Z</time></trkpt><trkpt lat="45.5398103" lon="10.787733"><ele>175.0</ele><time>2026-03-28T11:00:16.755Z</time></trkpt><trkpt lat="45.5398714" lon="10.7876678"><ele>177.0</ele><time>2026-03-28T11:00:17.755Z</time></trkpt><trkpt lat="45.5399406" lon="10.7876058"><ele>179.0</ele><time>2026-03-28T11:00:18.755Z</time></trkpt><trkpt lat="45.5399935" lon="10.7875491"><ele>181.0</ele><time>2026-03-28T11:00:19.755Z</time></trkpt><trkpt lat="45.5400805" lon="10.7874437"><ele>183.0</ele><time>2026-03-28T11:00:21.756Z</time></trkpt><trkpt lat="45.540177" lon="10.7873461"><ele>183.0</ele><time>2026-03-28T11:00:23.756Z</time></trkpt><trkpt lat="45.5402309" lon="10.7872833"><ele>183.0</ele><time>2026-03-28T11:00:24.756Z</time></trkpt><trkpt lat="45.5402811" lon="10.7872146"><ele>183.0</ele><time>2026-03-28T11:00:25.756Z</time></trkpt><trkpt lat="45.5403351" lon="10.7871448"><ele>183.0</ele><time>2026-03-28T11:00:26.756Z</time></trkpt><trkpt lat="45.5403827" lon="10.7870651"><ele>183.0</ele><time>2026-03-28T11:00:27.755Z</time></trkpt><trkpt lat="45.5404412" lon="10.7869215"><ele>183.0</ele><time>2026-03-28T11:00:29.755Z</time></trkpt><trkpt lat="45.5404753" lon="10.7867849"><ele>182.0</ele><time>2026-03-28T11:00:31.756Z</time></trkpt><trkpt lat="45.540504" lon="10.7866125"><ele>181.0</ele><time>2026-03-28T11:00:33.756Z</time></trkpt><trkpt lat="45.5405489" lon="10.7864669"><ele>180.0</ele><time>2026-03-28T11:00:35.755Z</time></trkpt><trkpt lat="45.5405969" lon="10.7863701"><ele>179.0</ele><time>2026-03-28T11:00:37.756Z</time></trkpt><trkpt lat="45.5406453" lon="10.7862714"><ele>178.0</ele><time>2026-03-28T11:00:39.756Z</time></trkpt><trkpt lat="45.540714" lon="10.7861439"><ele>177.99999999999997</ele><time>2026-03-28T11:00:41.756Z</time></trkpt><trkpt lat="45.5407519" lon="10.7860655"><ele>178.0</ele><time>2026-03-28T11:00:42.755Z</time></trkpt><trkpt lat="45.5407956" lon="10.7859882"><ele>178.0</ele><time>2026-03-28T11:00:43.755Z</time></trkpt><trkpt lat="45.5408447" lon="10.7859052"><ele>178.0</ele><time>2026-03-28T11:00:44.756Z</time></trkpt><trkpt lat="45.5408945" lon="10.7858207"><ele>178.0</ele><time>2026-03-28T11:00:45.756Z</time></trkpt><trkpt lat="45.5409477" lon="10.7857386"><ele>177.99999999999997</ele><time>2026-03-28T11:00:46.755Z</time></trkpt><trkpt lat="45.5409994" lon="10.7856577"><ele>178.0</ele><time>2026-03-28T11:00:47.755Z</time></trkpt><trkpt lat="45.5410538" lon="10.7855814"><ele>177.83333333333334</ele><time>2026-03-28T11:00:48.756Z</time></trkpt><trkpt lat="45.5411113" lon="10.7855089"><ele>177.66666666666669</ele><time>2026-03-28T11:00:49.755Z</time></trkpt><trkpt lat="45.5411676" lon="10.7854416"><ele>177.5</ele><time>2026-03-28T11:00:50.756Z</time></trkpt><trkpt lat="45.5412259" lon="10.7853752"><ele>177.33333333333334</ele><time>2026-03-28T11:00:51.756Z</time></trkpt><trkpt lat="45.5412896" lon="10.7853107"><ele>177.16666666666666</ele><time>2026-03-28T11:00:52.755Z</time></trkpt><trkpt lat="45.5413557" lon="10.7852458"><ele>177.0</ele><time>2026-03-28T11:00:53.756Z</time></trkpt><trkpt lat="45.5414301" lon="10.7851814"><ele>178.39999999999998</ele><time>2026-03-28T11:00:54.756Z</time></trkpt><trkpt lat="45.5415183" lon="10.7851277"><ele>179.79999999999998</ele><time>2026-03-28T11:00:55.755Z</time></trkpt><trkpt lat="45.5416073" lon="10.7850674"><ele>181.2</ele><time>2026-03-28T11:00:56.755Z</time></trkpt><trkpt lat="45.5416979" lon="10.7850011"><ele>182.6</ele><time>2026-03-28T11:00:57.756Z</time></trkpt><trkpt lat="45.5417928" lon="10.7849357"><ele>184.0</ele><time>2026-03-28T11:00:58.756Z</time></trkpt><trkpt lat="45.5418903" lon="10.784873"><ele>184.0</ele><time>2026-03-28T11:00:59.755Z</time></trkpt><trkpt lat="45.5419876" lon="10.7847945"><ele>184.0</ele><time>2026-03-28T11:01:00.756Z</time></trkpt><trkpt lat="45.5420809" lon="10.784705"><ele>184.0</ele><time>2026-03-28T11:01:01.756Z</time></trkpt><trkpt lat="45.5421694" lon="10.7845974"><ele>184.0</ele><time>2026-03-28T11:01:02.756Z</time></trkpt><trkpt lat="45.5422486" lon="10.7844724"><ele>184.5</ele><time>2026-03-28T11:01:03.755Z</time></trkpt><trkpt lat="45.5423219" lon="10.784328"><ele>185.0</ele><time>2026-03-28T11:01:04.755Z</time></trkpt><trkpt lat="45.5424028" lon="10.7841682"><ele>185.5</ele><time>2026-03-28T11:01:05.756Z</time></trkpt><trkpt lat="45.5424887" lon="10.7840055"><ele>186.0</ele><time>2026-03-28T11:01:06.755Z</time></trkpt><trkpt lat="45.5425826" lon="10.7838382"><ele>186.0</ele><time>2026-03-28T11:01:07.755Z</time></trkpt><trkpt lat="45.5426875" lon="10.7836763"><ele>186.0</ele><time>2026-03-28T11:01:08.756Z</time></trkpt><trkpt lat="45.542805" lon="10.7835326"><ele>186.0</ele><time>2026-03-28T11:01:09.756Z</time></trkpt><trkpt lat="45.5429328" lon="10.7833948"><ele>186.0</ele><time>2026-03-28T11:01:10.756Z</time></trkpt><trkpt lat="45.5430567" lon="10.7832364"><ele>186.0</ele><time>2026-03-28T11:01:11.755Z</time></trkpt><trkpt lat="45.5431578" lon="10.7830811"><ele>186.0</ele><time>2026-03-28T11:01:12.755Z</time></trkpt><trkpt lat="45.5432361" lon="10.782925"><ele>186.0</ele><time>2026-03-28T11:01:13.755Z</time></trkpt><trkpt lat="45.5432715" lon="10.7827683"><ele>187.0</ele><time>2026-03-28T11:01:14.756Z</time></trkpt><trkpt lat="45.5432736" lon="10.7826322"><ele>188.0</ele><time>2026-03-28T11:01:15.756Z</time></trkpt><trkpt lat="45.543246" lon="10.7825066"><ele>189.0</ele><time>2026-03-28T11:01:16.755Z</time></trkpt><trkpt lat="45.5432019" lon="10.7823592"><ele>190.0</ele><time>2026-03-28T11:01:17.755Z</time></trkpt><trkpt lat="45.543164" lon="10.7822035"><ele>191.0</ele><time>2026-03-28T11:01:18.755Z</time></trkpt><trkpt lat="45.5431448" lon="10.7820604"><ele>191.0</ele><time>2026-03-28T11:01:19.756Z</time></trkpt><trkpt lat="45.5431438" lon="10.7819304"><ele>191.0</ele><time>2026-03-28T11:01:20.755Z</time></trkpt><trkpt lat="45.5431644" lon="10.7817963"><ele>191.0</ele><time>2026-03-28T11:01:21.756Z</time></trkpt><trkpt lat="45.5432065" lon="10.781668"><ele>191.0</ele><time>2026-03-28T11:01:22.755Z</time></trkpt><trkpt lat="45.5432587" lon="10.7815493"><ele>191.0</ele><time>2026-03-28T11:01:23.755Z</time></trkpt><trkpt lat="45.5433009" lon="10.7814356"><ele>191.0</ele><time>2026-03-28T11:01:24.756Z</time></trkpt><trkpt lat="45.5433329" lon="10.7813347"><ele>191.0</ele><time>2026-03-28T11:01:25.755Z</time></trkpt><trkpt lat="45.5433664" lon="10.7812473"><ele>191.0</ele><time>2026-03-28T11:01:26.755Z</time></trkpt><trkpt lat="45.5434003" lon="10.7811694"><ele>191.0</ele><time>2026-03-28T11:01:27.756Z</time></trkpt><trkpt lat="45.5435031" lon="10.7810958"><ele>191.0</ele><time>2026-03-28T11:01:29.755Z</time></trkpt><trkpt lat="45.5435735" lon="10.7811246"><ele>191.0</ele><time>2026-03-28T11:01:30.756Z</time></trkpt><trkpt lat="45.5436344" lon="10.7812167"><ele>191.0</ele><time>2026-03-28T11:01:31.755Z</time></trkpt><trkpt lat="45.5436975" lon="10.7813332"><ele>191.0</ele><time>2026-03-28T11:01:32.756Z</time></trkpt><trkpt lat="45.5437779" lon="10.7814397"><ele>191.0</ele><time>2026-03-28T11:01:33.755Z</time></trkpt><trkpt lat="45.5438548" lon="10.7815452"><ele>191.0</ele><time>2026-03-28T11:01:34.756Z</time></trkpt><trkpt lat="45.54392" lon="10.7816489"><ele>191.0</ele><time>2026-03-28T11:01:35.755Z</time></trkpt><trkpt lat="45.5439937" lon="10.7817524"><ele>190.0</ele><time>2026-03-28T11:01:36.756Z</time></trkpt><trkpt lat="45.5440687" lon="10.7818647"><ele>189.0</ele><time>2026-03-28T11:01:37.755Z</time></trkpt><trkpt lat="45.544153" lon="10.7819796"><ele>188.0</ele><time>2026-03-28T11:01:38.756Z</time></trkpt><trkpt lat="45.5442561" lon="10.7820921"><ele>187.0</ele><time>2026-03-28T11:01:39.755Z</time></trkpt><trkpt lat="45.5443676" lon="10.7822148"><ele>187.0</ele><time>2026-03-28T11:01:40.755Z</time></trkpt><trkpt lat="45.5444836" lon="10.7823564"><ele>187.0</ele><time>2026-03-28T11:01:41.755Z</time></trkpt><trkpt lat="45.5446039" lon="10.7825042"><ele>187.0</ele><time>2026-03-28T11:01:42.756Z</time></trkpt><trkpt lat="45.5447271" lon="10.7826525"><ele>186.33333333333334</ele><time>2026-03-28T11:01:43.755Z</time></trkpt><trkpt lat="45.5448463" lon="10.7827949"><ele>185.66666666666666</ele><time>2026-03-28T11:01:44.755Z</time></trkpt><trkpt lat="45.5449576" lon="10.7829334"><ele>185.0</ele><time>2026-03-28T11:01:45.757Z</time></trkpt><trkpt lat="45.545065" lon="10.7830759"><ele>185.0</ele><time>2026-03-28T11:01:46.756Z</time></trkpt><trkpt lat="45.5451709" lon="10.7832288"><ele>185.0</ele><time>2026-03-28T11:01:47.755Z</time></trkpt><trkpt lat="45.5452799" lon="10.7833872"><ele>185.0</ele><time>2026-03-28T11:01:48.756Z</time></trkpt><trkpt lat="45.5453914" lon="10.7835458"><ele>184.66666666666666</ele><time>2026-03-28T11:01:49.755Z</time></trkpt><trkpt lat="45.5455028" lon="10.7837107"><ele>184.33333333333334</ele><time>2026-03-28T11:01:50.756Z</time></trkpt><trkpt lat="45.5456147" lon="10.7838854"><ele>184.0</ele><time>2026-03-28T11:01:51.756Z</time></trkpt><trkpt lat="45.5457255" lon="10.7840631"><ele>184.0</ele><time>2026-03-28T11:01:52.756Z</time></trkpt><trkpt lat="45.5458348" lon="10.7842486"><ele>184.0</ele><time>2026-03-28T11:01:53.755Z</time></trkpt><trkpt lat="45.5459413" lon="10.7844433"><ele>184.0</ele><time>2026-03-28T11:01:54.756Z</time></trkpt><trkpt lat="45.5460486" lon="10.7846405"><ele>183.33333333333334</ele><time>2026-03-28T11:01:55.755Z</time></trkpt><trkpt lat="45.5461558" lon="10.7848367"><ele>182.66666666666666</ele><time>2026-03-28T11:01:56.755Z</time></trkpt><trkpt lat="45.546262" lon="10.7850289"><ele>182.0</ele><time>2026-03-28T11:01:57.756Z</time></trkpt><trkpt lat="45.546367" lon="10.785217"><ele>182.0</ele><time>2026-03-28T11:01:58.755Z</time></trkpt><trkpt lat="45.5464701" lon="10.7854017"><ele>182.0</ele><time>2026-03-28T11:01:59.755Z</time></trkpt><trkpt lat="45.5465783" lon="10.78559"><ele>182.0</ele><time>2026-03-28T11:02:00.756Z</time></trkpt><trkpt lat="45.5466955" lon="10.7857847"><ele>182.0</ele><time>2026-03-28T11:02:01.755Z</time></trkpt><trkpt lat="45.546812" lon="10.7859782"><ele>182.0</ele><time>2026-03-28T11:02:02.756Z</time></trkpt><trkpt lat="45.546928" lon="10.7861743"><ele>182.0</ele><time>2026-03-28T11:02:03.756Z</time></trkpt><trkpt lat="45.5470452" lon="10.7863676"><ele>179.0</ele><time>2026-03-28T11:02:04.755Z</time></trkpt><trkpt lat="45.5471603" lon="10.7865633"><ele>176.0</ele><time>2026-03-28T11:02:05.756Z</time></trkpt><trkpt lat="45.5472711" lon="10.7867611"><ele>173.0</ele><time>2026-03-28T11:02:06.755Z</time></trkpt><trkpt lat="45.5473817" lon="10.7869689"><ele>173.0</ele><time>2026-03-28T11:02:07.755Z</time></trkpt><trkpt lat="45.5474895" lon="10.7871795"><ele>173.0</ele><time>2026-03-28T11:02:08.757Z</time></trkpt><trkpt lat="45.5475989" lon="10.7873864"><ele>173.0</ele><time>2026-03-28T11:02:09.756Z</time></trkpt><trkpt lat="45.5477049" lon="10.7875834"><ele>173.0</ele><time>2026-03-28T11:02:10.756Z</time></trkpt><trkpt lat="45.5478053" lon="10.7877672"><ele>173.0</ele><time>2026-03-28T11:02:11.755Z</time></trkpt><trkpt lat="45.5478993" lon="10.7879346"><ele>173.0</ele><time>2026-03-28T11:02:12.755Z</time></trkpt><trkpt lat="45.5479858" lon="10.7880907"><ele>173.60000000000002</ele><time>2026-03-28T11:02:13.756Z</time></trkpt><trkpt lat="45.5480686" lon="10.7882438"><ele>174.20000000000002</ele><time>2026-03-28T11:02:14.755Z</time></trkpt><trkpt lat="45.5481438" lon="10.7883811"><ele>174.8</ele><time>2026-03-28T11:02:15.755Z</time></trkpt><trkpt lat="45.5482085" lon="10.7884944"><ele>175.4</ele><time>2026-03-28T11:02:16.755Z</time></trkpt><trkpt lat="45.5482706" lon="10.7885839"><ele>176.0</ele><time>2026-03-28T11:02:17.756Z</time></trkpt><trkpt lat="45.548326" lon="10.7886591"><ele>177.0</ele><time>2026-03-28T11:02:18.755Z</time></trkpt><trkpt lat="45.5483121" lon="10.7888"><ele>178.0</ele><time>2026-03-28T11:02:20.755Z</time></trkpt><trkpt lat="45.5482268" lon="10.7889127"><ele>179.0</ele><time>2026-03-28T11:02:22.757Z</time></trkpt><trkpt lat="45.5481686" lon="10.7889875"><ele>180.0</ele><time>2026-03-28T11:02:23.755Z</time></trkpt><trkpt lat="45.5481143" lon="10.7890551"><ele>181.0</ele><time>2026-03-28T11:02:24.756Z</time></trkpt><trkpt lat="45.5480238" lon="10.7891538"><ele>181.0</ele><time>2026-03-28T11:02:25.756Z</time></trkpt><trkpt lat="45.5479105" lon="10.7892549"><ele>181.0</ele><time>2026-03-28T11:02:26.755Z</time></trkpt><trkpt lat="45.5478275" lon="10.7893767"><ele>181.0</ele><time>2026-03-28T11:02:27.755Z</time></trkpt><trkpt lat="45.5477432" lon="10.789471"><ele>181.0</ele><time>2026-03-28T11:02:28.755Z</time></trkpt><trkpt lat="45.5476641" lon="10.7895605"><ele>181.4</ele><time>2026-03-28T11:02:29.755Z</time></trkpt><trkpt lat="45.5475823" lon="10.7896313"><ele>181.8</ele><time>2026-03-28T11:02:30.756Z</time></trkpt><trkpt lat="45.5474895" lon="10.7896913"><ele>182.20000000000002</ele><time>2026-03-28T11:02:31.755Z</time></trkpt><trkpt lat="45.5473865" lon="10.7897377"><ele>182.60000000000002</ele><time>2026-03-28T11:02:32.756Z</time></trkpt><trkpt lat="45.5472836" lon="10.7897923"><ele>183.0</ele><time>2026-03-28T11:02:33.756Z</time></trkpt><trkpt lat="45.5471814" lon="10.7898498"><ele>183.0</ele><time>2026-03-28T11:02:34.755Z</time></trkpt><trkpt lat="45.5470782" lon="10.7899072"><ele>183.0</ele><time>2026-03-28T11:02:35.756Z</time></trkpt><trkpt lat="45.5469791" lon="10.7899602"><ele>183.0</ele><time>2026-03-28T11:02:36.755Z</time></trkpt><trkpt lat="45.5468898" lon="10.7900114"><ele>183.0</ele><time>2026-03-28T11:02:37.756Z</time></trkpt><trkpt lat="45.5468123" lon="10.7900689"><ele>183.0</ele><time>2026-03-28T11:02:38.755Z</time></trkpt><trkpt lat="45.5467569" lon="10.7901598"><ele>182.25</ele><time>2026-03-28T11:02:39.755Z</time></trkpt><trkpt lat="45.5467162" lon="10.7902865"><ele>181.5</ele><time>2026-03-28T11:02:40.755Z</time></trkpt><trkpt lat="45.5466867" lon="10.7904344"><ele>180.75</ele><time>2026-03-28T11:02:41.755Z</time></trkpt><trkpt lat="45.5466608" lon="10.7905976"><ele>180.0</ele><time>2026-03-28T11:02:42.755Z</time></trkpt><trkpt lat="45.546629" lon="10.7907751"><ele>180.0</ele><time>2026-03-28T11:02:43.756Z</time></trkpt><trkpt lat="45.5465984" lon="10.7909621"><ele>180.0</ele><time>2026-03-28T11:02:44.755Z</time></trkpt><trkpt lat="45.5465726" lon="10.7911607"><ele>180.0</ele><time>2026-03-28T11:02:45.756Z</time></trkpt><trkpt lat="45.5465409" lon="10.7913653"><ele>180.0</ele><time>2026-03-28T11:02:46.755Z</time></trkpt><trkpt lat="45.5465053" lon="10.7915766"><ele>181.0</ele><time>2026-03-28T11:02:47.756Z</time></trkpt><trkpt lat="45.5464696" lon="10.7917952"><ele>182.0</ele><time>2026-03-28T11:02:48.755Z</time></trkpt><trkpt lat="45.5464349" lon="10.7920142"><ele>183.0</ele><time>2026-03-28T11:02:49.756Z</time></trkpt><trkpt lat="45.5464025" lon="10.7922183"><ele>183.0</ele><time>2026-03-28T11:02:50.755Z</time></trkpt><trkpt lat="45.5463742" lon="10.7924081"><ele>183.0</ele><time>2026-03-28T11:02:51.756Z</time></trkpt><trkpt lat="45.5463485" lon="10.7925827"><ele>183.0</ele><time>2026-03-28T11:02:52.755Z</time></trkpt><trkpt lat="45.5463241" lon="10.7927373"><ele>183.0</ele><time>2026-03-28T11:02:53.755Z</time></trkpt><trkpt lat="45.546304" lon="10.7928591"><ele>182.83333333333334</ele><time>2026-03-28T11:02:54.756Z</time></trkpt><trkpt lat="45.5462976" lon="10.7929508"><ele>182.66666666666666</ele><time>2026-03-28T11:02:55.755Z</time></trkpt><trkpt lat="45.5463432" lon="10.7930547"><ele>182.5</ele><time>2026-03-28T11:02:57.756Z</time></trkpt><trkpt lat="45.5464486" lon="10.7931123"><ele>182.33333333333331</ele><time>2026-03-28T11:02:59.756Z</time></trkpt><trkpt lat="45.5465256" lon="10.7931414"><ele>182.16666666666666</ele><time>2026-03-28T11:03:00.756Z</time></trkpt><trkpt lat="45.5466209" lon="10.7931838"><ele>182.0</ele><time>2026-03-28T11:03:01.755Z</time></trkpt><trkpt lat="45.5467326" lon="10.7932295"><ele>182.0</ele><time>2026-03-28T11:03:02.755Z</time></trkpt><trkpt lat="45.5468344" lon="10.7932693"><ele>182.0</ele><time>2026-03-28T11:03:03.756Z</time></trkpt><trkpt lat="45.5469404" lon="10.7933228"><ele>182.0</ele><time>2026-03-28T11:03:04.756Z</time></trkpt><trkpt lat="45.5470387" lon="10.7933778"><ele>182.0</ele><time>2026-03-28T11:03:05.755Z</time></trkpt><trkpt lat="45.5471282" lon="10.7934155"><ele>182.0</ele><time>2026-03-28T11:03:06.756Z</time></trkpt><trkpt lat="45.5472049" lon="10.7934601"><ele>182.0</ele><time>2026-03-28T11:03:07.755Z</time></trkpt><trkpt lat="45.547273" lon="10.7934987"><ele>182.0</ele><time>2026-03-28T11:03:08.755Z</time></trkpt><trkpt lat="45.5473361" lon="10.7935188"><ele>182.0</ele><time>2026-03-28T11:03:09.756Z</time></trkpt><trkpt lat="45.5474399" lon="10.79347"><ele>182.0</ele><time>2026-03-28T11:03:11.756Z</time></trkpt><trkpt lat="45.547493" lon="10.7933217"><ele>182.0</ele><time>2026-03-28T11:03:13.755Z</time></trkpt><trkpt lat="45.5475119" lon="10.7932195"><ele>182.0</ele><time>2026-03-28T11:03:14.756Z</time></trkpt><trkpt lat="45.5475345" lon="10.7931212"><ele>182.0</ele><time>2026-03-28T11:03:15.756Z</time></trkpt><trkpt lat="45.547552" lon="10.793014"><ele>182.0</ele><time>2026-03-28T11:03:16.755Z</time></trkpt><trkpt lat="45.5475728" lon="10.7929065"><ele>182.0</ele><time>2026-03-28T11:03:17.755Z</time></trkpt><trkpt lat="45.5475905" lon="10.7927996"><ele>182.0</ele><time>2026-03-28T11:03:18.755Z</time></trkpt><trkpt lat="45.5476049" lon="10.7927035"><ele>182.0</ele><time>2026-03-28T11:03:19.756Z</time></trkpt><trkpt lat="45.5476429" lon="10.792544"><ele>182.0</ele><time>2026-03-28T11:03:21.755Z</time></trkpt><trkpt lat="45.5477171" lon="10.7924605"><ele>181.8</ele><time>2026-03-28T11:03:23.756Z</time></trkpt><trkpt lat="45.5478226" lon="10.7924342"><ele>181.6</ele><time>2026-03-28T11:03:25.756Z</time></trkpt><trkpt lat="45.5479184" lon="10.7924837"><ele>181.4</ele><time>2026-03-28T11:03:27.755Z</time></trkpt><trkpt lat="45.5480225" lon="10.7925962"><ele>181.20000000000002</ele><time>2026-03-28T11:03:29.755Z</time></trkpt><trkpt lat="45.5480936" lon="10.7926638"><ele>181.0</ele><time>2026-03-28T11:03:30.756Z</time></trkpt><trkpt lat="45.548184" lon="10.7927265"><ele>181.4</ele><time>2026-03-28T11:03:31.756Z</time></trkpt><trkpt lat="45.5482649" lon="10.792767"><ele>181.8</ele><time>2026-03-28T11:03:32.755Z</time></trkpt><trkpt lat="45.5483518" lon="10.7927971"><ele>182.20000000000002</ele><time>2026-03-28T11:03:33.756Z</time></trkpt><trkpt lat="45.5484349" lon="10.7928237"><ele>182.60000000000002</ele><time>2026-03-28T11:03:34.756Z</time></trkpt><trkpt lat="45.5485305" lon="10.7928422"><ele>183.0</ele><time>2026-03-28T11:03:35.755Z</time></trkpt><trkpt lat="45.5486237" lon="10.7928491"><ele>183.8</ele><time>2026-03-28T11:03:36.755Z</time></trkpt><trkpt lat="45.5487172" lon="10.7928462"><ele>184.60000000000002</ele><time>2026-03-28T11:03:37.756Z</time></trkpt><trkpt lat="45.5488107" lon="10.7928401"><ele>185.39999999999998</ele><time>2026-03-28T11:03:38.755Z</time></trkpt><trkpt lat="45.5488958" lon="10.7928346"><ele>186.2</ele><time>2026-03-28T11:03:39.755Z</time></trkpt><trkpt lat="45.5489869" lon="10.7928206"><ele>187.0</ele><time>2026-03-28T11:03:40.756Z</time></trkpt><trkpt lat="45.5490748" lon="10.7927883"><ele>187.0</ele><time>2026-03-28T11:03:41.756Z</time></trkpt><trkpt lat="45.5491594" lon="10.7927536"><ele>187.0</ele><time>2026-03-28T11:03:42.755Z</time></trkpt><trkpt lat="45.5492455" lon="10.7927319"><ele>187.0</ele><time>2026-03-28T11:03:43.755Z</time></trkpt><trkpt lat="45.5493294" lon="10.7927209"><ele>187.0</ele><time>2026-03-28T11:03:44.756Z</time></trkpt><trkpt lat="45.5494173" lon="10.792716"><ele>187.0</ele><time>2026-03-28T11:03:45.755Z</time></trkpt><trkpt lat="45.549498" lon="10.7927271"><ele>187.0</ele><time>2026-03-28T11:03:46.755Z</time></trkpt><trkpt lat="45.549599" lon="10.7927661"><ele>186.83333333333334</ele><time>2026-03-28T11:03:48.755Z</time></trkpt><trkpt lat="45.5496625" lon="10.7928015"><ele>186.66666666666669</ele><time>2026-03-28T11:03:50.755Z</time></trkpt><trkpt lat="45.5497455" lon="10.7928557"><ele>186.5</ele><time>2026-03-28T11:03:52.756Z</time></trkpt><trkpt lat="45.5498033" lon="10.7929038"><ele>186.33333333333334</ele><time>2026-03-28T11:03:53.755Z</time></trkpt><trkpt lat="45.5498716" lon="10.7929679"><ele>186.16666666666666</ele><time>2026-03-28T11:03:54.755Z</time></trkpt><trkpt lat="45.5499432" lon="10.7930462"><ele>186.0</ele><time>2026-03-28T11:03:55.756Z</time></trkpt><trkpt lat="45.5500172" lon="10.7931197"><ele>186.0</ele><time>2026-03-28T11:03:56.755Z</time></trkpt><trkpt lat="45.5500917" lon="10.7931935"><ele>186.0</ele><time>2026-03-28T11:03:57.756Z</time></trkpt><trkpt lat="45.5501603" lon="10.7932762"><ele>186.0</ele><time>2026-03-28T11:03:58.755Z</time></trkpt><trkpt lat="45.5502219" lon="10.793376"><ele>186.0</ele><time>2026-03-28T11:03:59.757Z</time></trkpt><trkpt lat="45.5502918" lon="10.7934893"><ele>186.0</ele><time>2026-03-28T11:04:00.756Z</time></trkpt><trkpt lat="45.5503575" lon="10.7936037"><ele>186.20000000000002</ele><time>2026-03-28T11:04:01.755Z</time></trkpt><trkpt lat="45.5504118" lon="10.7937042"><ele>186.4</ele><time>2026-03-28T11:04:02.755Z</time></trkpt><trkpt lat="45.5504759" lon="10.7938194"><ele>186.6</ele><time>2026-03-28T11:04:03.756Z</time></trkpt><trkpt lat="45.5505372" lon="10.7939328"><ele>186.8</ele><time>2026-03-28T11:04:04.755Z</time></trkpt><trkpt lat="45.5505928" lon="10.7940284"><ele>187.0</ele><time>2026-03-28T11:04:05.755Z</time></trkpt><trkpt lat="45.5506449" lon="10.7941197"><ele>187.0</ele><time>2026-03-28T11:04:06.756Z</time></trkpt><trkpt lat="45.5506986" lon="10.7942225"><ele>187.0</ele><time>2026-03-28T11:04:07.755Z</time></trkpt><trkpt lat="45.5507533" lon="10.7943228"><ele>187.0</ele><time>2026-03-28T11:04:08.755Z</time></trkpt><trkpt lat="45.5507865" lon="10.7944204"><ele>187.0</ele><time>2026-03-28T11:04:09.756Z</time></trkpt><trkpt lat="45.5508052" lon="10.7945144"><ele>187.0</ele><time>2026-03-28T11:04:10.756Z</time></trkpt><trkpt lat="45.5507906" lon="10.7946914"><ele>187.0</ele><time>2026-03-28T11:04:12.755Z</time></trkpt><trkpt lat="45.5507824" lon="10.7948702"><ele>186.83333333333334</ele><time>2026-03-28T11:04:14.756Z</time></trkpt><trkpt lat="45.5507824" lon="10.7949675"><ele>186.66666666666669</ele><time>2026-03-28T11:04:15.755Z</time></trkpt><trkpt lat="45.5507845" lon="10.7950702"><ele>186.5</ele><time>2026-03-28T11:04:16.755Z</time></trkpt><trkpt lat="45.5507853" lon="10.7951763"><ele>186.33333333333334</ele><time>2026-03-28T11:04:17.755Z</time></trkpt><trkpt lat="45.5507812" lon="10.7953017"><ele>186.16666666666666</ele><time>2026-03-28T11:04:18.756Z</time></trkpt><trkpt lat="45.5507802" lon="10.7954498"><ele>186.0</ele><time>2026-03-28T11:04:19.755Z</time></trkpt><trkpt lat="45.5507792" lon="10.7956103"><ele>186.0</ele><time>2026-03-28T11:04:20.756Z</time></trkpt><trkpt lat="45.5507781" lon="10.7957589"><ele>186.0</ele><time>2026-03-28T11:04:21.755Z</time></trkpt><trkpt lat="45.5507814" lon="10.7958998"><ele>186.0</ele><time>2026-03-28T11:04:22.755Z</time></trkpt><trkpt lat="45.5507897" lon="10.79605"><ele>186.0</ele><time>2026-03-28T11:04:23.756Z</time></trkpt><trkpt lat="45.5508024" lon="10.7961938"><ele>186.0</ele><time>2026-03-28T11:04:24.755Z</time></trkpt><trkpt lat="45.5508047" lon="10.7963261"><ele>186.0</ele><time>2026-03-28T11:04:25.755Z</time></trkpt><trkpt lat="45.550807" lon="10.7964531"><ele>186.0</ele><time>2026-03-28T11:04:26.755Z</time></trkpt><trkpt lat="45.5508099" lon="10.7965668"><ele>186.0</ele><time>2026-03-28T11:04:27.755Z</time></trkpt><trkpt lat="45.5508211" lon="10.7966696"><ele>186.0</ele><time>2026-03-28T11:04:28.756Z</time></trkpt><trkpt lat="45.5508355" lon="10.7968039"><ele>186.0</ele><time>2026-03-28T11:04:30.756Z</time></trkpt><trkpt lat="45.5508399" lon="10.7969602"><ele>186.0</ele><time>2026-03-28T11:04:33.755Z</time></trkpt><trkpt lat="45.550827" lon="10.7971367"><ele>186.0</ele><time>2026-03-28T11:04:35.754Z</time></trkpt><trkpt lat="45.5508218" lon="10.7972511"><ele>186.0</ele><time>2026-03-28T11:04:36.754Z</time></trkpt><trkpt lat="45.5508207" lon="10.7973998"><ele>186.0</ele><time>2026-03-28T11:04:37.755Z</time></trkpt><trkpt lat="45.5508212" lon="10.797565"><ele>186.0</ele><time>2026-03-28T11:04:38.754Z</time></trkpt><trkpt lat="45.550814" lon="10.7977108"><ele>186.0</ele><time>2026-03-28T11:04:39.754Z</time></trkpt><trkpt lat="45.550804" lon="10.797842"><ele>186.0</ele><time>2026-03-28T11:04:40.754Z</time></trkpt><trkpt lat="45.5507972" lon="10.7979631"><ele>186.0</ele><time>2026-03-28T11:04:41.755Z</time></trkpt><trkpt lat="45.5507935" lon="10.7980927"><ele>186.0</ele><time>2026-03-28T11:04:42.755Z</time></trkpt><trkpt lat="45.5507888" lon="10.7982229"><ele>186.0</ele><time>2026-03-28T11:04:43.754Z</time></trkpt><trkpt lat="45.5507827" lon="10.7983565"><ele>186.0</ele><time>2026-03-28T11:04:44.755Z</time></trkpt><trkpt lat="45.5507765" lon="10.7985028"><ele>185.75</ele><time>2026-03-28T11:04:45.755Z</time></trkpt><trkpt lat="45.5507735" lon="10.7986625"><ele>185.5</ele><time>2026-03-28T11:04:46.754Z</time></trkpt><trkpt lat="45.5507696" lon="10.7988159"><ele>185.25</ele><time>2026-03-28T11:04:47.755Z</time></trkpt><trkpt lat="45.5507654" lon="10.7989834"><ele>185.0</ele><time>2026-03-28T11:04:48.754Z</time></trkpt><trkpt lat="45.5507658" lon="10.7991447"><ele>185.0</ele><time>2026-03-28T11:04:49.754Z</time></trkpt><trkpt lat="45.5507683" lon="10.7993038"><ele>185.0</ele><time>2026-03-28T11:04:50.755Z</time></trkpt><trkpt lat="45.5507709" lon="10.7994823"><ele>185.0</ele><time>2026-03-28T11:04:51.754Z</time></trkpt><trkpt lat="45.5507769" lon="10.7996674"><ele>185.0</ele><time>2026-03-28T11:04:52.754Z</time></trkpt><trkpt lat="45.5507846" lon="10.7998599"><ele>184.75</ele><time>2026-03-28T11:04:53.755Z</time></trkpt><trkpt lat="45.5507936" lon="10.8000549"><ele>184.5</ele><time>2026-03-28T11:04:54.755Z</time></trkpt><trkpt lat="45.5508014" lon="10.8002526"><ele>184.25</ele><time>2026-03-28T11:04:55.754Z</time></trkpt><trkpt lat="45.5508142" lon="10.8004437"><ele>184.0</ele><time>2026-03-28T11:04:56.755Z</time></trkpt><trkpt lat="45.5508316" lon="10.8006277"><ele>183.0</ele><time>2026-03-28T11:04:57.754Z</time></trkpt><trkpt lat="45.5508477" lon="10.8008045"><ele>182.0</ele><time>2026-03-28T11:04:58.755Z</time></trkpt><trkpt lat="45.5508622" lon="10.8009768"><ele>181.0</ele><time>2026-03-28T11:04:59.756Z</time></trkpt><trkpt lat="45.5508765" lon="10.8011585"><ele>180.0</ele><time>2026-03-28T11:05:00.755Z</time></trkpt><trkpt lat="45.5508889" lon="10.8013459"><ele>179.25</ele><time>2026-03-28T11:05:01.755Z</time></trkpt><trkpt lat="45.550889" lon="10.8015475"><ele>178.5</ele><time>2026-03-28T11:05:02.754Z</time></trkpt><trkpt lat="45.5508745" lon="10.8017499"><ele>177.75</ele><time>2026-03-28T11:05:03.754Z</time></trkpt><trkpt lat="45.5508586" lon="10.8019452"><ele>177.0</ele><time>2026-03-28T11:05:04.755Z</time></trkpt><trkpt lat="45.5508461" lon="10.8021361"><ele>177.0</ele><time>2026-03-28T11:05:05.755Z</time></trkpt><trkpt lat="45.5508296" lon="10.802321"><ele>177.0</ele><time>2026-03-28T11:05:06.754Z</time></trkpt><trkpt lat="45.5508081" lon="10.8024993"><ele>177.0</ele><time>2026-03-28T11:05:07.755Z</time></trkpt><trkpt lat="45.5507815" lon="10.8026716"><ele>177.0</ele><time>2026-03-28T11:05:08.755Z</time></trkpt><trkpt lat="45.5507494" lon="10.8028286"><ele>176.2</ele><time>2026-03-28T11:05:09.754Z</time></trkpt><trkpt lat="45.5507071" lon="10.8029707"><ele>175.39999999999998</ele><time>2026-03-28T11:05:10.754Z</time></trkpt><trkpt lat="45.5506553" lon="10.8031031"><ele>174.60000000000002</ele><time>2026-03-28T11:05:11.755Z</time></trkpt><trkpt lat="45.5506041" lon="10.803218"><ele>173.8</ele><time>2026-03-28T11:05:12.755Z</time></trkpt><trkpt lat="45.5505537" lon="10.8033122"><ele>173.0</ele><time>2026-03-28T11:05:13.754Z</time></trkpt><trkpt lat="45.5504998" lon="10.8033935"><ele>173.0</ele><time>2026-03-28T11:05:14.754Z</time></trkpt><trkpt lat="45.5504405" lon="10.8034602"><ele>173.0</ele><time>2026-03-28T11:05:15.755Z</time></trkpt><trkpt lat="45.5503927" lon="10.8035376"><ele>173.0</ele><time>2026-03-28T11:05:16.754Z</time></trkpt><trkpt lat="45.550362" lon="10.803622"><ele>173.0</ele><time>2026-03-28T11:05:17.754Z</time></trkpt><trkpt lat="45.5503478" lon="10.8037144"><ele>173.0</ele><time>2026-03-28T11:05:18.755Z</time></trkpt><trkpt lat="45.5503757" lon="10.8038348"><ele>173.0</ele><time>2026-03-28T11:05:20.755Z</time></trkpt><trkpt lat="45.5504273" lon="10.8039105"><ele>173.0</ele><time>2026-03-28T11:05:25.755Z</time></trkpt><trkpt lat="45.5505243" lon="10.8039859"><ele>172.60000000000002</ele><time>2026-03-28T11:05:27.754Z</time></trkpt><trkpt lat="45.5506336" lon="10.8040231"><ele>172.20000000000002</ele><time>2026-03-28T11:05:29.754Z</time></trkpt><trkpt lat="45.5507551" lon="10.8040429"><ele>171.8</ele><time>2026-03-28T11:05:31.755Z</time></trkpt><trkpt lat="45.5508418" lon="10.8040367"><ele>171.4</ele><time>2026-03-28T11:05:32.754Z</time></trkpt><trkpt lat="45.5509411" lon="10.8040286"><ele>171.0</ele><time>2026-03-28T11:05:33.754Z</time></trkpt><trkpt lat="45.5510458" lon="10.8040164"><ele>171.0</ele><time>2026-03-28T11:05:34.755Z</time></trkpt><trkpt lat="45.5511484" lon="10.8040091"><ele>171.0</ele><time>2026-03-28T11:05:35.755Z</time></trkpt><trkpt lat="45.5512502" lon="10.8039998"><ele>171.0</ele><time>2026-03-28T11:05:36.755Z</time></trkpt><trkpt lat="45.5513608" lon="10.8039881"><ele>171.0</ele><time>2026-03-28T11:05:37.754Z</time></trkpt><trkpt lat="45.5514782" lon="10.8039801"><ele>171.0</ele><time>2026-03-28T11:05:38.755Z</time></trkpt><trkpt lat="45.5516" lon="10.8039735"><ele>171.25</ele><time>2026-03-28T11:05:39.754Z</time></trkpt><trkpt lat="45.5517251" lon="10.8039647"><ele>171.5</ele><time>2026-03-28T11:05:40.755Z</time></trkpt><trkpt lat="45.5518534" lon="10.8039521"><ele>171.75</ele><time>2026-03-28T11:05:41.755Z</time></trkpt><trkpt lat="45.551986" lon="10.8039418"><ele>172.0</ele><time>2026-03-28T11:05:42.755Z</time></trkpt><trkpt lat="45.5521185" lon="10.8039313"><ele>172.0</ele><time>2026-03-28T11:05:43.755Z</time></trkpt><trkpt lat="45.5522485" lon="10.8039195"><ele>172.0</ele><time>2026-03-28T11:05:44.756Z</time></trkpt><trkpt lat="45.5523751" lon="10.8039066"><ele>172.0</ele><time>2026-03-28T11:05:45.755Z</time></trkpt><trkpt lat="45.5525042" lon="10.803889"><ele>172.0</ele><time>2026-03-28T11:05:46.754Z</time></trkpt><trkpt lat="45.5526337" lon="10.8038657"><ele>172.0</ele><time>2026-03-28T11:05:47.754Z</time></trkpt><trkpt lat="45.552764" lon="10.8038377"><ele>172.0</ele><time>2026-03-28T11:05:48.754Z</time></trkpt><trkpt lat="45.5528948" lon="10.8038107"><ele>172.0</ele><time>2026-03-28T11:05:49.756Z</time></trkpt><trkpt lat="45.5530309" lon="10.8037844"><ele>172.0</ele><time>2026-03-28T11:05:50.755Z</time></trkpt><trkpt lat="45.5531715" lon="10.8037588"><ele>172.75</ele><time>2026-03-28T11:05:51.755Z</time></trkpt><trkpt lat="45.5533134" lon="10.8037299"><ele>173.5</ele><time>2026-03-28T11:05:52.754Z</time></trkpt><trkpt lat="45.5534558" lon="10.8037012"><ele>174.25</ele><time>2026-03-28T11:05:53.755Z</time></trkpt><trkpt lat="45.5535983" lon="10.8036737"><ele>175.0</ele><time>2026-03-28T11:05:54.754Z</time></trkpt><trkpt lat="45.5537433" lon="10.8036504"><ele>175.0</ele><time>2026-03-28T11:05:55.755Z</time></trkpt><trkpt lat="45.5538871" lon="10.8036277"><ele>175.0</ele><time>2026-03-28T11:05:56.754Z</time></trkpt><trkpt lat="45.5540273" lon="10.8036099"><ele>175.0</ele><time>2026-03-28T11:05:57.755Z</time></trkpt><trkpt lat="45.5541608" lon="10.8035997"><ele>175.0</ele><time>2026-03-28T11:05:58.755Z</time></trkpt><trkpt lat="45.5542937" lon="10.8036146"><ele>175.0</ele><time>2026-03-28T11:05:59.754Z</time></trkpt><trkpt lat="45.5544349" lon="10.8036378"><ele>175.0</ele><time>2026-03-28T11:06:00.754Z</time></trkpt><trkpt lat="45.5545782" lon="10.8036498"><ele>175.0</ele><time>2026-03-28T11:06:01.755Z</time></trkpt><trkpt lat="45.5547261" lon="10.8036613"><ele>175.0</ele><time>2026-03-28T11:06:02.754Z</time></trkpt><trkpt lat="45.554874" lon="10.8036599"><ele>176.0</ele><time>2026-03-28T11:06:03.755Z</time></trkpt><trkpt lat="45.555023" lon="10.8036286"><ele>177.0</ele><time>2026-03-28T11:06:04.754Z</time></trkpt><trkpt lat="45.5551713" lon="10.8035766"><ele>178.0</ele><time>2026-03-28T11:06:05.755Z</time></trkpt><trkpt lat="45.5553201" lon="10.8034964"><ele>178.0</ele><time>2026-03-28T11:06:06.755Z</time></trkpt><trkpt lat="45.5554702" lon="10.8033886"><ele>178.0</ele><time>2026-03-28T11:06:07.755Z</time></trkpt><trkpt lat="45.5556327" lon="10.803252"><ele>178.0</ele><time>2026-03-28T11:06:08.754Z</time></trkpt><trkpt lat="45.5558017" lon="10.8031059"><ele>178.0</ele><time>2026-03-28T11:06:09.754Z</time></trkpt><trkpt lat="45.5559743" lon="10.8029641"><ele>178.0</ele><time>2026-03-28T11:06:10.754Z</time></trkpt><trkpt lat="45.5561395" lon="10.8028261"><ele>178.0</ele><time>2026-03-28T11:06:11.755Z</time></trkpt><trkpt lat="45.5562884" lon="10.8026928"><ele>178.66666666666669</ele><time>2026-03-28T11:06:12.755Z</time></trkpt><trkpt lat="45.5564291" lon="10.8025652"><ele>179.33333333333334</ele><time>2026-03-28T11:06:13.754Z</time></trkpt><trkpt lat="45.556567" lon="10.8024408"><ele>180.0</ele><time>2026-03-28T11:06:14.754Z</time></trkpt><trkpt lat="45.5567074" lon="10.8023146"><ele>180.0</ele><time>2026-03-28T11:06:15.754Z</time></trkpt><trkpt lat="45.5568499" lon="10.8021853"><ele>180.0</ele><time>2026-03-28T11:06:16.755Z</time></trkpt><trkpt lat="45.5569919" lon="10.802053"><ele>180.0</ele><time>2026-03-28T11:06:17.755Z</time></trkpt><trkpt lat="45.5571275" lon="10.8019246"><ele>180.75</ele><time>2026-03-28T11:06:18.754Z</time></trkpt><trkpt lat="45.5572517" lon="10.8018086"><ele>181.5</ele><time>2026-03-28T11:06:19.754Z</time></trkpt><trkpt lat="45.5573683" lon="10.8017013"><ele>182.25</ele><time>2026-03-28T11:06:20.755Z</time></trkpt><trkpt lat="45.5574793" lon="10.8016007"><ele>183.0</ele><time>2026-03-28T11:06:21.754Z</time></trkpt><trkpt lat="45.5575928" lon="10.8015055"><ele>183.0</ele><time>2026-03-28T11:06:22.754Z</time></trkpt><trkpt lat="45.5577077" lon="10.8014198"><ele>183.0</ele><time>2026-03-28T11:06:23.755Z</time></trkpt><trkpt lat="45.5578197" lon="10.8013345"><ele>183.0</ele><time>2026-03-28T11:06:24.755Z</time></trkpt><trkpt lat="45.5579318" lon="10.8012543"><ele>183.0</ele><time>2026-03-28T11:06:25.754Z</time></trkpt><trkpt lat="45.5580502" lon="10.8011651"><ele>183.5</ele><time>2026-03-28T11:06:26.755Z</time></trkpt><trkpt lat="45.5581727" lon="10.8010646"><ele>184.0</ele><time>2026-03-28T11:06:27.754Z</time></trkpt><trkpt lat="45.5583004" lon="10.8009604"><ele>184.5</ele><time>2026-03-28T11:06:28.755Z</time></trkpt><trkpt lat="45.5584318" lon="10.800844"><ele>185.0</ele><time>2026-03-28T11:06:29.755Z</time></trkpt><trkpt lat="45.5585636" lon="10.8007111"><ele>185.0</ele><time>2026-03-28T11:06:30.754Z</time></trkpt><trkpt lat="45.5586909" lon="10.8005588"><ele>185.0</ele><time>2026-03-28T11:06:31.754Z</time></trkpt><trkpt lat="45.5588161" lon="10.8004047"><ele>185.0</ele><time>2026-03-28T11:06:32.754Z</time></trkpt><trkpt lat="45.5589557" lon="10.8002531"><ele>185.0</ele><time>2026-03-28T11:06:33.755Z</time></trkpt><trkpt lat="45.5591006" lon="10.8001242"><ele>185.0</ele><time>2026-03-28T11:06:34.755Z</time></trkpt><trkpt lat="45.5592611" lon="10.8000223"><ele>185.0</ele><time>2026-03-28T11:06:35.754Z</time></trkpt><trkpt lat="45.5594318" lon="10.7999507"><ele>185.33333333333331</ele><time>2026-03-28T11:06:36.754Z</time></trkpt><trkpt lat="45.55961" lon="10.7999184"><ele>185.66666666666666</ele><time>2026-03-28T11:06:37.755Z</time></trkpt><trkpt lat="45.5597913" lon="10.7999199"><ele>186.0</ele><time>2026-03-28T11:06:38.755Z</time></trkpt><trkpt lat="45.5599744" lon="10.7999385"><ele>186.0</ele><time>2026-03-28T11:06:39.754Z</time></trkpt><trkpt lat="45.5601617" lon="10.799958"><ele>186.0</ele><time>2026-03-28T11:06:40.755Z</time></trkpt><trkpt lat="45.5603513" lon="10.7999758"><ele>186.0</ele><time>2026-03-28T11:06:41.755Z</time></trkpt><trkpt lat="45.5605446" lon="10.7999941"><ele>185.66666666666666</ele><time>2026-03-28T11:06:42.755Z</time></trkpt><trkpt lat="45.56074" lon="10.800015"><ele>185.33333333333331</ele><time>2026-03-28T11:06:43.754Z</time></trkpt><trkpt lat="45.5609368" lon="10.8000343"><ele>185.0</ele><time>2026-03-28T11:06:44.754Z</time></trkpt><trkpt lat="45.5611304" lon="10.800054"><ele>185.33333333333331</ele><time>2026-03-28T11:06:45.754Z</time></trkpt><trkpt lat="45.5613218" lon="10.8000754"><ele>185.66666666666666</ele><time>2026-03-28T11:06:46.754Z</time></trkpt><trkpt lat="45.5615124" lon="10.800099"><ele>186.0</ele><time>2026-03-28T11:06:47.755Z</time></trkpt><trkpt lat="45.5616978" lon="10.8001234"><ele>186.0</ele><time>2026-03-28T11:06:48.755Z</time></trkpt><trkpt lat="45.5618792" lon="10.8001487"><ele>186.0</ele><time>2026-03-28T11:06:49.755Z</time></trkpt><trkpt lat="45.5620541" lon="10.8001754"><ele>186.0</ele><time>2026-03-28T11:06:50.754Z</time></trkpt><trkpt lat="45.5622246" lon="10.8002044"><ele>186.66666666666666</ele><time>2026-03-28T11:06:51.754Z</time></trkpt><trkpt lat="45.5623883" lon="10.8002365"><ele>187.33333333333331</ele><time>2026-03-28T11:06:52.754Z</time></trkpt><trkpt lat="45.562551" lon="10.8002782"><ele>188.0</ele><time>2026-03-28T11:06:53.755Z</time></trkpt><trkpt lat="45.5627123" lon="10.8003276"><ele>188.0</ele><time>2026-03-28T11:06:54.755Z</time></trkpt><trkpt lat="45.5628589" lon="10.8003772"><ele>188.0</ele><time>2026-03-28T11:06:55.754Z</time></trkpt><trkpt lat="45.5629961" lon="10.8004253"><ele>188.0</ele><time>2026-03-28T11:06:56.755Z</time></trkpt><trkpt lat="45.5631291" lon="10.8004854"><ele>188.0</ele><time>2026-03-28T11:06:57.755Z</time></trkpt><trkpt lat="45.5632576" lon="10.8005506"><ele>188.75</ele><time>2026-03-28T11:06:58.754Z</time></trkpt><trkpt lat="45.5633875" lon="10.8006278"><ele>189.5</ele><time>2026-03-28T11:06:59.754Z</time></trkpt><trkpt lat="45.5635168" lon="10.8007203"><ele>190.25</ele><time>2026-03-28T11:07:00.754Z</time></trkpt><trkpt lat="45.5636487" lon="10.8008228"><ele>191.0</ele><time>2026-03-28T11:07:01.755Z</time></trkpt><trkpt lat="45.5637833" lon="10.8009308"><ele>190.33333333333331</ele><time>2026-03-28T11:07:02.754Z</time></trkpt><trkpt lat="45.5639202" lon="10.8010464"><ele>189.66666666666666</ele><time>2026-03-28T11:07:03.755Z</time></trkpt><trkpt lat="45.5640632" lon="10.8011673"><ele>189.0</ele><time>2026-03-28T11:07:04.755Z</time></trkpt><trkpt lat="45.5642076" lon="10.8012857"><ele>189.0</ele><time>2026-03-28T11:07:05.754Z</time></trkpt><trkpt lat="45.5643506" lon="10.8014038"><ele>189.0</ele><time>2026-03-28T11:07:06.754Z</time></trkpt><trkpt lat="45.5645045" lon="10.8015244"><ele>189.0</ele><time>2026-03-28T11:07:07.754Z</time></trkpt><trkpt lat="45.5646688" lon="10.801632"><ele>189.33333333333334</ele><time>2026-03-28T11:07:08.755Z</time></trkpt><trkpt lat="45.5648446" lon="10.8017231"><ele>189.66666666666669</ele><time>2026-03-28T11:07:09.755Z</time></trkpt><trkpt lat="45.5650272" lon="10.8017961"><ele>190.0</ele><time>2026-03-28T11:07:10.754Z</time></trkpt><trkpt lat="45.5652163" lon="10.8018541"><ele>190.33333333333334</ele><time>2026-03-28T11:07:11.755Z</time></trkpt><trkpt lat="45.5654127" lon="10.8019049"><ele>190.66666666666666</ele><time>2026-03-28T11:07:12.755Z</time></trkpt><trkpt lat="45.5656142" lon="10.8019516"><ele>191.0</ele><time>2026-03-28T11:07:13.754Z</time></trkpt><trkpt lat="45.5658061" lon="10.8019976"><ele>191.0</ele><time>2026-03-28T11:07:14.755Z</time></trkpt><trkpt lat="45.5659949" lon="10.802046"><ele>191.0</ele><time>2026-03-28T11:07:15.755Z</time></trkpt><trkpt lat="45.5661789" lon="10.802095"><ele>191.0</ele><time>2026-03-28T11:07:16.755Z</time></trkpt><trkpt lat="45.5663565" lon="10.8021405"><ele>190.66666666666666</ele><time>2026-03-28T11:07:17.754Z</time></trkpt><trkpt lat="45.566537" lon="10.8021821"><ele>190.33333333333334</ele><time>2026-03-28T11:07:18.754Z</time></trkpt><trkpt lat="45.5667226" lon="10.8022192"><ele>190.0</ele><time>2026-03-28T11:07:19.755Z</time></trkpt><trkpt lat="45.5669109" lon="10.802251"><ele>190.66666666666669</ele><time>2026-03-28T11:07:20.755Z</time></trkpt><trkpt lat="45.5671029" lon="10.8022718"><ele>191.33333333333334</ele><time>2026-03-28T11:07:21.755Z</time></trkpt><trkpt lat="45.5672957" lon="10.8022704"><ele>192.0</ele><time>2026-03-28T11:07:22.754Z</time></trkpt><trkpt lat="45.5674875" lon="10.8022602"><ele>192.0</ele><time>2026-03-28T11:07:23.754Z</time></trkpt><trkpt lat="45.5676752" lon="10.8022497"><ele>192.0</ele><time>2026-03-28T11:07:24.755Z</time></trkpt><trkpt lat="45.5678651" lon="10.8022355"><ele>192.0</ele><time>2026-03-28T11:07:25.755Z</time></trkpt><trkpt lat="45.5680408" lon="10.8022149"><ele>191.66666666666666</ele><time>2026-03-28T11:07:26.754Z</time></trkpt><trkpt lat="45.5682094" lon="10.8021903"><ele>191.33333333333331</ele><time>2026-03-28T11:07:27.755Z</time></trkpt><trkpt lat="45.5683687" lon="10.8021676"><ele>191.0</ele><time>2026-03-28T11:07:28.755Z</time></trkpt><trkpt lat="45.5685151" lon="10.8021516"><ele>191.0</ele><time>2026-03-28T11:07:29.755Z</time></trkpt><trkpt lat="45.5686573" lon="10.8021396"><ele>191.0</ele><time>2026-03-28T11:07:30.754Z</time></trkpt><trkpt lat="45.5687973" lon="10.8021336"><ele>191.0</ele><time>2026-03-28T11:07:31.754Z</time></trkpt><trkpt lat="45.5689244" lon="10.8021371"><ele>191.0</ele><time>2026-03-28T11:07:32.754Z</time></trkpt><trkpt lat="45.5690429" lon="10.802147"><ele>191.16666666666666</ele><time>2026-03-28T11:07:33.755Z</time></trkpt><trkpt lat="45.569152" lon="10.8021575"><ele>191.33333333333331</ele><time>2026-03-28T11:07:34.755Z</time></trkpt><trkpt lat="45.5692461" lon="10.802152"><ele>191.5</ele><time>2026-03-28T11:07:35.754Z</time></trkpt><trkpt lat="45.569313" lon="10.8021176"><ele>191.66666666666666</ele><time>2026-03-28T11:07:36.754Z</time></trkpt><trkpt lat="45.5693761" lon="10.8020243"><ele>191.83333333333334</ele><time>2026-03-28T11:07:38.755Z</time></trkpt><trkpt lat="45.5694062" lon="10.8019178"><ele>192.0</ele><time>2026-03-28T11:08:22.754Z</time></trkpt><trkpt lat="45.5694447" lon="10.8017514"><ele>192.0</ele><time>2026-03-28T11:08:24.756Z</time></trkpt><trkpt lat="45.5694728" lon="10.8016459"><ele>192.0</ele><time>2026-03-28T11:08:25.755Z</time></trkpt><trkpt lat="45.5695113" lon="10.8015094"><ele>192.0</ele><time>2026-03-28T11:08:26.754Z</time></trkpt><trkpt lat="45.5695515" lon="10.8013586"><ele>192.0</ele><time>2026-03-28T11:08:27.755Z</time></trkpt><trkpt lat="45.5695882" lon="10.8012176"><ele>192.0</ele><time>2026-03-28T11:08:28.755Z</time></trkpt><trkpt lat="45.5696226" lon="10.8010838"><ele>192.0</ele><time>2026-03-28T11:08:29.755Z</time></trkpt><trkpt lat="45.5696612" lon="10.8009415"><ele>192.0</ele><time>2026-03-28T11:08:30.754Z</time></trkpt><trkpt lat="45.5696966" lon="10.8007945"><ele>192.0</ele><time>2026-03-28T11:08:31.755Z</time></trkpt><trkpt lat="45.5697321" lon="10.8006616"><ele>192.0</ele><time>2026-03-28T11:08:32.755Z</time></trkpt><trkpt lat="45.5697589" lon="10.8005343"><ele>192.0</ele><time>2026-03-28T11:08:33.754Z</time></trkpt><trkpt lat="45.5697871" lon="10.8004062"><ele>191.99999999999997</ele><time>2026-03-28T11:08:34.754Z</time></trkpt><trkpt lat="45.5698228" lon="10.8002966"><ele>192.0</ele><time>2026-03-28T11:08:35.755Z</time></trkpt><trkpt lat="45.5698661" lon="10.8002037"><ele>192.0</ele><time>2026-03-28T11:08:36.754Z</time></trkpt><trkpt lat="45.5699165" lon="10.8001429"><ele>192.0</ele><time>2026-03-28T11:08:37.754Z</time></trkpt><trkpt lat="45.5699722" lon="10.8000933"><ele>192.0</ele><time>2026-03-28T11:08:38.754Z</time></trkpt><trkpt lat="45.5700376" lon="10.8000598"><ele>191.99999999999997</ele><time>2026-03-28T11:08:39.755Z</time></trkpt><trkpt lat="45.5701071" lon="10.8000385"><ele>192.0</ele><time>2026-03-28T11:08:40.754Z</time></trkpt><trkpt lat="45.5701827" lon="10.8000164"><ele>192.39999999999998</ele><time>2026-03-28T11:08:41.755Z</time></trkpt><trkpt lat="45.5702704" lon="10.7999947"><ele>192.79999999999998</ele><time>2026-03-28T11:08:42.755Z</time></trkpt><trkpt lat="45.5703594" lon="10.7999725"><ele>193.2</ele><time>2026-03-28T11:08:43.754Z</time></trkpt><trkpt lat="45.5704542" lon="10.7999475"><ele>193.6</ele><time>2026-03-28T11:08:44.754Z</time></trkpt><trkpt lat="45.5705548" lon="10.7999024"><ele>194.0</ele><time>2026-03-28T11:08:45.755Z</time></trkpt><trkpt lat="45.5706474" lon="10.7998323"><ele>194.75</ele><time>2026-03-28T11:08:46.755Z</time></trkpt><trkpt lat="45.5707453" lon="10.7997538"><ele>195.5</ele><time>2026-03-28T11:08:47.754Z</time></trkpt><trkpt lat="45.5708408" lon="10.79968"><ele>196.25</ele><time>2026-03-28T11:08:48.755Z</time></trkpt><trkpt lat="45.570943" lon="10.7996144"><ele>197.0</ele><time>2026-03-28T11:08:49.755Z</time></trkpt><trkpt lat="45.5710538" lon="10.799547"><ele>197.0</ele><time>2026-03-28T11:08:50.755Z</time></trkpt><trkpt lat="45.5711657" lon="10.7994756"><ele>197.0</ele><time>2026-03-28T11:08:51.754Z</time></trkpt><trkpt lat="45.5712735" lon="10.7994004"><ele>197.0</ele><time>2026-03-28T11:08:52.754Z</time></trkpt><trkpt lat="45.5713809" lon="10.7993165"><ele>197.0</ele><time>2026-03-28T11:08:53.755Z</time></trkpt><trkpt lat="45.5714903" lon="10.7992336"><ele>198.0</ele><time>2026-03-28T11:08:54.754Z</time></trkpt><trkpt lat="45.5716111" lon="10.7991468"><ele>199.0</ele><time>2026-03-28T11:08:55.754Z</time></trkpt><trkpt lat="45.5717365" lon="10.799052"><ele>200.0</ele><time>2026-03-28T11:08:56.755Z</time></trkpt><trkpt lat="45.5718484" lon="10.7989647"><ele>201.0</ele><time>2026-03-28T11:08:57.755Z</time></trkpt><trkpt lat="45.5719556" lon="10.7988853"><ele>201.0</ele><time>2026-03-28T11:08:58.756Z</time></trkpt><trkpt lat="45.5720554" lon="10.7987985"><ele>201.0</ele><time>2026-03-28T11:08:59.754Z</time></trkpt><trkpt lat="45.5721498" lon="10.7987111"><ele>201.0</ele><time>2026-03-28T11:09:00.754Z</time></trkpt><trkpt lat="45.5722408" lon="10.7986389"><ele>201.0</ele><time>2026-03-28T11:09:01.754Z</time></trkpt><trkpt lat="45.5723591" lon="10.7985608"><ele>201.5</ele><time>2026-03-28T11:09:02.754Z</time></trkpt><trkpt lat="45.5724941" lon="10.7984707"><ele>202.0</ele><time>2026-03-28T11:09:03.754Z</time></trkpt><trkpt lat="45.5726163" lon="10.7983863"><ele>202.5</ele><time>2026-03-28T11:09:04.754Z</time></trkpt><trkpt lat="45.5727408" lon="10.7983018"><ele>203.0</ele><time>2026-03-28T11:09:05.754Z</time></trkpt><trkpt lat="45.5728641" lon="10.7982305"><ele>203.0</ele><time>2026-03-28T11:09:06.754Z</time></trkpt><trkpt lat="45.573008" lon="10.7981664"><ele>203.0</ele><time>2026-03-28T11:09:07.755Z</time></trkpt><trkpt lat="45.5731578" lon="10.7981001"><ele>203.0</ele><time>2026-03-28T11:09:08.755Z</time></trkpt><trkpt lat="45.5733029" lon="10.7980382"><ele>203.0</ele><time>2026-03-28T11:09:09.754Z</time></trkpt><trkpt lat="45.5734342" lon="10.7979806"><ele>203.0</ele><time>2026-03-28T11:09:10.754Z</time></trkpt><trkpt lat="45.5735767" lon="10.7979203"><ele>203.0</ele><time>2026-03-28T11:09:11.755Z</time></trkpt><trkpt lat="45.5737129" lon="10.7978589"><ele>203.0</ele><time>2026-03-28T11:09:12.754Z</time></trkpt><trkpt lat="45.5738308" lon="10.7978055"><ele>201.75</ele><time>2026-03-28T11:09:13.754Z</time></trkpt><trkpt lat="45.5739484" lon="10.7977453"><ele>200.5</ele><time>2026-03-28T11:09:14.755Z</time></trkpt><trkpt lat="45.5740701" lon="10.7976792"><ele>199.25</ele><time>2026-03-28T11:09:15.755Z</time></trkpt><trkpt lat="45.5741901" lon="10.7976023"><ele>198.0</ele><time>2026-03-28T11:09:16.754Z</time></trkpt><trkpt lat="45.5742895" lon="10.7975241"><ele>198.5</ele><time>2026-03-28T11:09:17.754Z</time></trkpt><trkpt lat="45.5743874" lon="10.7974282"><ele>199.0</ele><time>2026-03-28T11:09:18.754Z</time></trkpt><trkpt lat="45.5744697" lon="10.7973182"><ele>199.5</ele><time>2026-03-28T11:09:19.755Z</time></trkpt><trkpt lat="45.5745506" lon="10.7971802"><ele>200.0</ele><time>2026-03-28T11:09:20.754Z</time></trkpt><trkpt lat="45.5746302" lon="10.7970612"><ele>200.0</ele><time>2026-03-28T11:09:21.755Z</time></trkpt><trkpt lat="45.5747149" lon="10.796962"><ele>200.0</ele><time>2026-03-28T11:09:22.756Z</time></trkpt><trkpt lat="45.574848" lon="10.7968733"><ele>200.0</ele><time>2026-03-28T11:09:23.754Z</time></trkpt><trkpt lat="45.5749726" lon="10.7967715"><ele>200.0</ele><time>2026-03-28T11:09:24.755Z</time></trkpt><trkpt lat="45.5750949" lon="10.7966729"><ele>199.75</ele><time>2026-03-28T11:09:25.754Z</time></trkpt><trkpt lat="45.5752061" lon="10.7965685"><ele>199.5</ele><time>2026-03-28T11:09:26.755Z</time></trkpt><trkpt lat="45.575318" lon="10.7964531"><ele>199.25</ele><time>2026-03-28T11:09:27.754Z</time></trkpt><trkpt lat="45.575421" lon="10.796326"><ele>199.0</ele><time>2026-03-28T11:09:28.755Z</time></trkpt><trkpt lat="45.5755242" lon="10.7961918"><ele>199.0</ele><time>2026-03-28T11:09:29.755Z</time></trkpt><trkpt lat="45.5756168" lon="10.7960534"><ele>199.0</ele><time>2026-03-28T11:09:30.754Z</time></trkpt><trkpt lat="45.5757156" lon="10.7958975"><ele>199.0</ele><time>2026-03-28T11:09:31.755Z</time></trkpt><trkpt lat="45.5758024" lon="10.7957472"><ele>199.0</ele><time>2026-03-28T11:09:32.754Z</time></trkpt><trkpt lat="45.5758823" lon="10.7956095"><ele>199.0</ele><time>2026-03-28T11:09:33.754Z</time></trkpt><trkpt lat="45.5759688" lon="10.7954851"><ele>199.0</ele><time>2026-03-28T11:09:34.755Z</time></trkpt><trkpt lat="45.5760693" lon="10.7953704"><ele>199.0</ele><time>2026-03-28T11:09:35.754Z</time></trkpt><trkpt lat="45.5761665" lon="10.7952766"><ele>199.0</ele><time>2026-03-28T11:09:36.755Z</time></trkpt><trkpt lat="45.5762509" lon="10.7952071"><ele>199.49999999999997</ele><time>2026-03-28T11:09:37.755Z</time></trkpt><trkpt lat="45.5763294" lon="10.7951629"><ele>200.0</ele><time>2026-03-28T11:09:38.755Z</time></trkpt><trkpt lat="45.5764044" lon="10.7951352"><ele>200.5</ele><time>2026-03-28T11:09:39.755Z</time></trkpt><trkpt lat="45.5764787" lon="10.7951126"><ele>201.0</ele><time>2026-03-28T11:09:41.755Z</time></trkpt><trkpt lat="45.5765183" lon="10.7950219"><ele>201.49999999999997</ele><time>2026-03-28T11:09:44.754Z</time></trkpt><trkpt lat="45.5765284" lon="10.7949227"><ele>202.0</ele><time>2026-03-28T11:09:45.754Z</time></trkpt><trkpt lat="45.5765294" lon="10.7947718"><ele>202.0</ele><time>2026-03-28T11:09:46.754Z</time></trkpt><trkpt lat="45.5765336" lon="10.7945937"><ele>202.0</ele><time>2026-03-28T11:09:47.755Z</time></trkpt><trkpt lat="45.5765415" lon="10.7943921"><ele>202.0</ele><time>2026-03-28T11:09:48.754Z</time></trkpt><trkpt lat="45.5765491" lon="10.7941726"><ele>202.0</ele><time>2026-03-28T11:09:49.754Z</time></trkpt><trkpt lat="45.5765551" lon="10.7939339"><ele>202.0</ele><time>2026-03-28T11:09:50.755Z</time></trkpt><trkpt lat="45.5765611" lon="10.7936804"><ele>202.0</ele><time>2026-03-28T11:09:51.754Z</time></trkpt><trkpt lat="45.5765703" lon="10.7934204"><ele>202.0</ele><time>2026-03-28T11:09:52.754Z</time></trkpt><trkpt lat="45.5765777" lon="10.7931476"><ele>202.0</ele><time>2026-03-28T11:09:53.754Z</time></trkpt><trkpt lat="45.5765865" lon="10.7928699"><ele>202.0</ele><time>2026-03-28T11:09:54.755Z</time></trkpt><trkpt lat="45.5765942" lon="10.7925919"><ele>202.0</ele><time>2026-03-28T11:09:55.755Z</time></trkpt><trkpt lat="45.5766062" lon="10.7923148"><ele>202.0</ele><time>2026-03-28T11:09:56.754Z</time></trkpt><trkpt lat="45.5766121" lon="10.7920438"><ele>202.0</ele><time>2026-03-28T11:09:57.755Z</time></trkpt><trkpt lat="45.5765902" lon="10.7917813"><ele>202.0</ele><time>2026-03-28T11:09:58.755Z</time></trkpt><trkpt lat="45.5765288" lon="10.7915315"><ele>202.0</ele><time>2026-03-28T11:09:59.755Z</time></trkpt><trkpt lat="45.5764335" lon="10.7912856"><ele>202.0</ele><time>2026-03-28T11:10:00.755Z</time></trkpt><trkpt lat="45.576315" lon="10.7910475"><ele>202.0</ele><time>2026-03-28T11:10:01.754Z</time></trkpt><trkpt lat="45.5761772" lon="10.7908158"><ele>203.0</ele><time>2026-03-28T11:10:02.755Z</time></trkpt><trkpt lat="45.5760416" lon="10.7905779"><ele>204.0</ele><time>2026-03-28T11:10:03.754Z</time></trkpt><trkpt lat="45.575922" lon="10.7903257"><ele>205.0</ele><time>2026-03-28T11:10:04.754Z</time></trkpt><trkpt lat="45.5758119" lon="10.7900676"><ele>206.33333333333331</ele><time>2026-03-28T11:10:05.754Z</time></trkpt><trkpt lat="45.5757094" lon="10.7898192"><ele>207.66666666666669</ele><time>2026-03-28T11:10:06.754Z</time></trkpt><trkpt lat="45.5756197" lon="10.7895906"><ele>209.0</ele><time>2026-03-28T11:10:07.754Z</time></trkpt><trkpt lat="45.5755427" lon="10.7893558"><ele>212.66666666666669</ele><time>2026-03-28T11:10:08.756Z</time></trkpt><trkpt lat="45.575495" lon="10.7891039"><ele>216.33333333333331</ele><time>2026-03-28T11:10:09.755Z</time></trkpt><trkpt lat="45.5754686" lon="10.788848"><ele>220.0</ele><time>2026-03-28T11:10:10.754Z</time></trkpt><trkpt lat="45.5754628" lon="10.7886006"><ele>219.66666666666666</ele><time>2026-03-28T11:10:11.755Z</time></trkpt><trkpt lat="45.5754679" lon="10.7883434"><ele>219.33333333333331</ele><time>2026-03-28T11:10:12.755Z</time></trkpt><trkpt lat="45.5754794" lon="10.7880854"><ele>219.0</ele><time>2026-03-28T11:10:13.755Z</time></trkpt><trkpt lat="45.5754973" lon="10.7878248"><ele>218.0</ele><time>2026-03-28T11:10:14.754Z</time></trkpt><trkpt lat="45.5755225" lon="10.7875653"><ele>217.0</ele><time>2026-03-28T11:10:15.755Z</time></trkpt><trkpt lat="45.5755509" lon="10.7873125"><ele>216.0</ele><time>2026-03-28T11:10:16.755Z</time></trkpt><trkpt lat="45.575584" lon="10.7870636"><ele>217.0</ele><time>2026-03-28T11:10:17.755Z</time></trkpt><trkpt lat="45.5756122" lon="10.7868302"><ele>218.0</ele><time>2026-03-28T11:10:18.754Z</time></trkpt><trkpt lat="45.5756374" lon="10.7865947"><ele>219.0</ele><time>2026-03-28T11:10:19.754Z</time></trkpt><trkpt lat="45.5756522" lon="10.7863627"><ele>219.0</ele><time>2026-03-28T11:10:20.755Z</time></trkpt><trkpt lat="45.5756569" lon="10.7861318"><ele>219.0</ele><time>2026-03-28T11:10:21.755Z</time></trkpt><trkpt lat="45.5756513" lon="10.7858984"><ele>219.0</ele><time>2026-03-28T11:10:22.754Z</time></trkpt><trkpt lat="45.5756362" lon="10.7856623"><ele>220.66666666666669</ele><time>2026-03-28T11:10:23.754Z</time></trkpt><trkpt lat="45.5756135" lon="10.7854238"><ele>222.33333333333334</ele><time>2026-03-28T11:10:24.755Z</time></trkpt><trkpt lat="45.5755833" lon="10.7851813"><ele>224.0</ele><time>2026-03-28T11:10:25.754Z</time></trkpt><trkpt lat="45.575552" lon="10.7849378"><ele>226.33333333333334</ele><time>2026-03-28T11:10:26.755Z</time></trkpt><trkpt lat="45.5755189" lon="10.7846991"><ele>228.66666666666669</ele><time>2026-03-28T11:10:27.755Z</time></trkpt><trkpt lat="45.5754848" lon="10.7844671"><ele>231.0</ele><time>2026-03-28T11:10:28.755Z</time></trkpt><trkpt lat="45.5754493" lon="10.7842392"><ele>233.33333333333331</ele><time>2026-03-28T11:10:29.754Z</time></trkpt><trkpt lat="45.5754116" lon="10.7840134"><ele>235.66666666666666</ele><time>2026-03-28T11:10:30.754Z</time></trkpt><trkpt lat="45.5753746" lon="10.7837854"><ele>238.0</ele><time>2026-03-28T11:10:31.754Z</time></trkpt><trkpt lat="45.5753419" lon="10.7835502"><ele>233.0</ele><time>2026-03-28T11:10:32.754Z</time></trkpt><trkpt lat="45.5753228" lon="10.7833112"><ele>228.0</ele><time>2026-03-28T11:10:33.755Z</time></trkpt><trkpt lat="45.5753162" lon="10.7830682"><ele>223.0</ele><time>2026-03-28T11:10:34.754Z</time></trkpt><trkpt lat="45.5753033" lon="10.7828274"><ele>224.33333333333331</ele><time>2026-03-28T11:10:35.754Z</time></trkpt><trkpt lat="45.5752913" lon="10.7825891"><ele>225.66666666666669</ele><time>2026-03-28T11:10:36.754Z</time></trkpt><trkpt lat="45.5752909" lon="10.7823526"><ele>227.0</ele><time>2026-03-28T11:10:37.755Z</time></trkpt><trkpt lat="45.5753006" lon="10.782112"><ele>227.0</ele><time>2026-03-28T11:10:38.755Z</time></trkpt><trkpt lat="45.5753291" lon="10.7818762"><ele>227.0</ele><time>2026-03-28T11:10:39.754Z</time></trkpt><trkpt lat="45.5753887" lon="10.7816458"><ele>227.0</ele><time>2026-03-28T11:10:40.754Z</time></trkpt><trkpt lat="45.5754819" lon="10.7814253"><ele>231.66666666666669</ele><time>2026-03-28T11:10:41.755Z</time></trkpt><trkpt lat="45.5755807" lon="10.7811964"><ele>236.33333333333331</ele><time>2026-03-28T11:10:42.755Z</time></trkpt><trkpt lat="45.5756493" lon="10.7809498"><ele>241.0</ele><time>2026-03-28T11:10:43.754Z</time></trkpt><trkpt lat="45.5756885" lon="10.7807108"><ele>241.0</ele><time>2026-03-28T11:10:44.754Z</time></trkpt><trkpt lat="45.5757071" lon="10.7804785"><ele>241.0</ele><time>2026-03-28T11:10:45.755Z</time></trkpt><trkpt lat="45.5757101" lon="10.7803124"><ele>241.0</ele><time>2026-03-28T11:10:46.754Z</time></trkpt><trkpt lat="45.5757014" lon="10.7801553"><ele>241.0</ele><time>2026-03-28T11:10:47.754Z</time></trkpt><trkpt lat="45.5756784" lon="10.780002"><ele>238.75</ele><time>2026-03-28T11:10:48.754Z</time></trkpt><trkpt lat="45.5756407" lon="10.7798517"><ele>236.5</ele><time>2026-03-28T11:10:49.755Z</time></trkpt><trkpt lat="45.5755755" lon="10.779684"><ele>234.25</ele><time>2026-03-28T11:10:50.755Z</time></trkpt><trkpt lat="45.575498" lon="10.779509"><ele>232.0</ele><time>2026-03-28T11:10:51.755Z</time></trkpt><trkpt lat="45.5754052" lon="10.7793311"><ele>232.33333333333331</ele><time>2026-03-28T11:10:52.754Z</time></trkpt><trkpt lat="45.5752988" lon="10.7791612"><ele>232.66666666666669</ele><time>2026-03-28T11:10:53.754Z</time></trkpt><trkpt lat="45.5751779" lon="10.7789875"><ele>233.0</ele><time>2026-03-28T11:10:54.755Z</time></trkpt><trkpt lat="45.5750576" lon="10.7788013"><ele>233.0</ele><time>2026-03-28T11:10:55.754Z</time></trkpt><trkpt lat="45.5749479" lon="10.7786059"><ele>233.0</ele><time>2026-03-28T11:10:56.754Z</time></trkpt><trkpt lat="45.5748505" lon="10.7784146"><ele>233.0</ele><time>2026-03-28T11:10:57.754Z</time></trkpt><trkpt lat="45.574752" lon="10.7782185"><ele>229.33333333333334</ele><time>2026-03-28T11:10:58.754Z</time></trkpt><trkpt lat="45.5746576" lon="10.7780122"><ele>225.66666666666669</ele><time>2026-03-28T11:10:59.755Z</time></trkpt><trkpt lat="45.5745674" lon="10.7778013"><ele>222.0</ele><time>2026-03-28T11:11:00.755Z</time></trkpt><trkpt lat="45.5744821" lon="10.7775813"><ele>221.0</ele><time>2026-03-28T11:11:01.754Z</time></trkpt><trkpt lat="45.5743928" lon="10.7773683"><ele>220.0</ele><time>2026-03-28T11:11:02.754Z</time></trkpt><trkpt lat="45.5743066" lon="10.7771583"><ele>219.0</ele><time>2026-03-28T11:11:03.754Z</time></trkpt><trkpt lat="45.5742186" lon="10.7769508"><ele>219.33333333333331</ele><time>2026-03-28T11:11:04.755Z</time></trkpt><trkpt lat="45.574131" lon="10.7767302"><ele>219.66666666666666</ele><time>2026-03-28T11:11:05.754Z</time></trkpt><trkpt lat="45.5740409" lon="10.7765004"><ele>220.0</ele><time>2026-03-28T11:11:06.755Z</time></trkpt><trkpt lat="45.5739503" lon="10.7762637"><ele>221.0</ele><time>2026-03-28T11:11:07.754Z</time></trkpt><trkpt lat="45.5738646" lon="10.7760184"><ele>222.0</ele><time>2026-03-28T11:11:08.754Z</time></trkpt><trkpt lat="45.5737855" lon="10.775766"><ele>223.0</ele><time>2026-03-28T11:11:09.754Z</time></trkpt><trkpt lat="45.5737079" lon="10.7755121"><ele>221.66666666666666</ele><time>2026-03-28T11:11:10.755Z</time></trkpt><trkpt lat="45.573634" lon="10.7752715"><ele>220.33333333333331</ele><time>2026-03-28T11:11:11.755Z</time></trkpt><trkpt lat="45.5735727" lon="10.7750226"><ele>219.0</ele><time>2026-03-28T11:11:12.755Z</time></trkpt><trkpt lat="45.5735245" lon="10.7747917"><ele>218.39999999999998</ele><time>2026-03-28T11:11:13.754Z</time></trkpt><trkpt lat="45.5734882" lon="10.7745907"><ele>217.79999999999998</ele><time>2026-03-28T11:11:14.754Z</time></trkpt><trkpt lat="45.5734593" lon="10.7744188"><ele>217.20000000000002</ele><time>2026-03-28T11:11:15.755Z</time></trkpt><trkpt lat="45.5734401" lon="10.774292"><ele>216.60000000000002</ele><time>2026-03-28T11:11:16.754Z</time></trkpt><trkpt lat="45.5734295" lon="10.7742"><ele>216.0</ele><time>2026-03-28T11:11:17.755Z</time></trkpt><trkpt lat="45.5734243" lon="10.774098"><ele>215.60000000000002</ele><time>2026-03-28T11:11:19.754Z</time></trkpt><trkpt lat="45.5734129" lon="10.7739531"><ele>215.20000000000002</ele><time>2026-03-28T11:12:00.754Z</time></trkpt><trkpt lat="45.5734087" lon="10.7738553"><ele>214.79999999999998</ele><time>2026-03-28T11:12:01.754Z</time></trkpt><trkpt lat="45.573404" lon="10.7737396"><ele>214.39999999999998</ele><time>2026-03-28T11:12:02.754Z</time></trkpt><trkpt lat="45.5733957" lon="10.7736019"><ele>214.0</ele><time>2026-03-28T11:12:03.754Z</time></trkpt><trkpt lat="45.5733911" lon="10.7734345"><ele>214.0</ele><time>2026-03-28T11:12:04.754Z</time></trkpt><trkpt lat="45.5733857" lon="10.7732426"><ele>214.0</ele><time>2026-03-28T11:12:05.754Z</time></trkpt><trkpt lat="45.5733805" lon="10.77304"><ele>214.0</ele><time>2026-03-28T11:12:06.755Z</time></trkpt><trkpt lat="45.5733842" lon="10.7728221"><ele>214.0</ele><time>2026-03-28T11:12:07.755Z</time></trkpt><trkpt lat="45.5733973" lon="10.7725917"><ele>213.66666666666666</ele><time>2026-03-28T11:12:08.755Z</time></trkpt><trkpt lat="45.5734137" lon="10.7723589"><ele>213.33333333333331</ele><time>2026-03-28T11:12:09.754Z</time></trkpt><trkpt lat="45.5734355" lon="10.7721204"><ele>213.0</ele><time>2026-03-28T11:12:10.754Z</time></trkpt><trkpt lat="45.573462" lon="10.7718779"><ele>212.5</ele><time>2026-03-28T11:12:11.755Z</time></trkpt><trkpt lat="45.5734882" lon="10.7716586"><ele>212.0</ele><time>2026-03-28T11:12:12.755Z</time></trkpt><trkpt lat="45.5735107" lon="10.7714579"><ele>211.5</ele><time>2026-03-28T11:12:13.754Z</time></trkpt><trkpt lat="45.5735331" lon="10.7712679"><ele>211.0</ele><time>2026-03-28T11:12:14.754Z</time></trkpt><trkpt lat="45.5735589" lon="10.7710754"><ele>210.75</ele><time>2026-03-28T11:12:15.754Z</time></trkpt><trkpt lat="45.573591" lon="10.7708863"><ele>210.5</ele><time>2026-03-28T11:12:16.754Z</time></trkpt><trkpt lat="45.5736241" lon="10.7706951"><ele>210.25</ele><time>2026-03-28T11:12:17.755Z</time></trkpt><trkpt lat="45.5736427" lon="10.7704945"><ele>210.0</ele><time>2026-03-28T11:12:18.755Z</time></trkpt><trkpt lat="45.5736435" lon="10.7702828"><ele>209.66666666666669</ele><time>2026-03-28T11:12:19.755Z</time></trkpt><trkpt lat="45.5736414" lon="10.7700673"><ele>209.33333333333334</ele><time>2026-03-28T11:12:20.754Z</time></trkpt><trkpt lat="45.5736431" lon="10.7698481"><ele>209.0</ele><time>2026-03-28T11:12:21.754Z</time></trkpt><trkpt lat="45.5736466" lon="10.7696327"><ele>209.0</ele><time>2026-03-28T11:12:22.754Z</time></trkpt><trkpt lat="45.573647" lon="10.7694374"><ele>209.0</ele><time>2026-03-28T11:12:23.754Z</time></trkpt><trkpt lat="45.5736559" lon="10.7692513"><ele>209.0</ele><time>2026-03-28T11:12:24.754Z</time></trkpt><trkpt lat="45.5736644" lon="10.7690618"><ele>209.0</ele><time>2026-03-28T11:12:25.755Z</time></trkpt><trkpt lat="45.573666" lon="10.7688639"><ele>208.75</ele><time>2026-03-28T11:12:26.754Z</time></trkpt><trkpt lat="45.5736687" lon="10.7686593"><ele>208.5</ele><time>2026-03-28T11:12:27.754Z</time></trkpt><trkpt lat="45.5736705" lon="10.7684461"><ele>208.25</ele><time>2026-03-28T11:12:28.754Z</time></trkpt><trkpt lat="45.5736648" lon="10.7682228"><ele>208.0</ele><time>2026-03-28T11:12:29.755Z</time></trkpt><trkpt lat="45.5736558" lon="10.7680125"><ele>207.5</ele><time>2026-03-28T11:12:30.755Z</time></trkpt><trkpt lat="45.573653" lon="10.7678142"><ele>207.0</ele><time>2026-03-28T11:12:31.754Z</time></trkpt><trkpt lat="45.5736548" lon="10.7676177"><ele>206.5</ele><time>2026-03-28T11:12:32.754Z</time></trkpt><trkpt lat="45.5736575" lon="10.7674212"><ele>206.0</ele><time>2026-03-28T11:12:33.754Z</time></trkpt><trkpt lat="45.5736679" lon="10.7672178"><ele>205.75</ele><time>2026-03-28T11:12:34.755Z</time></trkpt><trkpt lat="45.5736787" lon="10.7670224"><ele>205.5</ele><time>2026-03-28T11:12:35.754Z</time></trkpt><trkpt lat="45.5736892" lon="10.7668344"><ele>205.25</ele><time>2026-03-28T11:12:36.755Z</time></trkpt><trkpt lat="45.5736998" lon="10.7666429"><ele>205.0</ele><time>2026-03-28T11:12:37.754Z</time></trkpt><trkpt lat="45.5737104" lon="10.7664478"><ele>205.0</ele><time>2026-03-28T11:12:38.754Z</time></trkpt><trkpt lat="45.5737114" lon="10.7662506"><ele>205.0</ele><time>2026-03-28T11:12:39.755Z</time></trkpt><trkpt lat="45.5737063" lon="10.7660439"><ele>205.0</ele><time>2026-03-28T11:12:40.755Z</time></trkpt><trkpt lat="45.5736884" lon="10.7658343"><ele>205.0</ele><time>2026-03-28T11:12:41.754Z</time></trkpt><trkpt lat="45.5736406" lon="10.7656399"><ele>205.0</ele><time>2026-03-28T11:12:42.754Z</time></trkpt><trkpt lat="45.5735764" lon="10.765453"><ele>205.0</ele><time>2026-03-28T11:12:43.754Z</time></trkpt><trkpt lat="45.5734953" lon="10.7652678"><ele>205.0</ele><time>2026-03-28T11:12:44.755Z</time></trkpt><trkpt lat="45.5734023" lon="10.765084"><ele>205.5</ele><time>2026-03-28T11:12:45.754Z</time></trkpt><trkpt lat="45.573308" lon="10.7649044"><ele>206.0</ele><time>2026-03-28T11:12:46.754Z</time></trkpt><trkpt lat="45.5732244" lon="10.7647367"><ele>206.5</ele><time>2026-03-28T11:12:47.755Z</time></trkpt><trkpt lat="45.5731491" lon="10.7645622"><ele>207.0</ele><time>2026-03-28T11:12:48.755Z</time></trkpt><trkpt lat="45.5730884" lon="10.7643644"><ele>206.66666666666669</ele><time>2026-03-28T11:12:49.754Z</time></trkpt><trkpt lat="45.5730495" lon="10.7641496"><ele>206.33333333333334</ele><time>2026-03-28T11:12:50.754Z</time></trkpt><trkpt lat="45.5730173" lon="10.7639027"><ele>206.0</ele><time>2026-03-28T11:12:51.754Z</time></trkpt><trkpt lat="45.5729787" lon="10.7636315"><ele>205.33333333333334</ele><time>2026-03-28T11:12:52.755Z</time></trkpt><trkpt lat="45.5729359" lon="10.7633289"><ele>204.66666666666669</ele><time>2026-03-28T11:12:53.755Z</time></trkpt><trkpt lat="45.5728906" lon="10.7630143"><ele>204.0</ele><time>2026-03-28T11:12:54.754Z</time></trkpt><trkpt lat="45.5728396" lon="10.7626844"><ele>203.33333333333331</ele><time>2026-03-28T11:12:55.754Z</time></trkpt><trkpt lat="45.5727866" lon="10.7623616"><ele>202.66666666666666</ele><time>2026-03-28T11:12:56.755Z</time></trkpt><trkpt lat="45.5727359" lon="10.7620664"><ele>202.0</ele><time>2026-03-28T11:12:57.755Z</time></trkpt><trkpt lat="45.5726914" lon="10.7617858"><ele>202.0</ele><time>2026-03-28T11:12:58.754Z</time></trkpt><trkpt lat="45.5726497" lon="10.7615221"><ele>202.0</ele><time>2026-03-28T11:12:59.754Z</time></trkpt><trkpt lat="45.5726085" lon="10.7612586"><ele>202.0</ele><time>2026-03-28T11:13:00.755Z</time></trkpt><trkpt lat="45.572568" lon="10.7610062"><ele>202.0</ele><time>2026-03-28T11:13:01.754Z</time></trkpt><trkpt lat="45.5725297" lon="10.7607726"><ele>202.0</ele><time>2026-03-28T11:13:02.754Z</time></trkpt><trkpt lat="45.5724916" lon="10.7605517"><ele>202.0</ele><time>2026-03-28T11:13:03.755Z</time></trkpt><trkpt lat="45.5724555" lon="10.760345"><ele>202.0</ele><time>2026-03-28T11:13:04.755Z</time></trkpt><trkpt lat="45.5724235" lon="10.760154"><ele>202.0</ele><time>2026-03-28T11:13:05.755Z</time></trkpt><trkpt lat="45.5723923" lon="10.7599715"><ele>202.0</ele><time>2026-03-28T11:13:06.754Z</time></trkpt><trkpt lat="45.5723638" lon="10.7598044"><ele>202.0</ele><time>2026-03-28T11:13:07.755Z</time></trkpt><trkpt lat="45.5723375" lon="10.7596522"><ele>202.0</ele><time>2026-03-28T11:13:08.755Z</time></trkpt><trkpt lat="45.5723128" lon="10.7595161"><ele>202.0</ele><time>2026-03-28T11:13:09.754Z</time></trkpt><trkpt lat="45.5722908" lon="10.75939"><ele>202.0</ele><time>2026-03-28T11:13:10.754Z</time></trkpt><trkpt lat="45.5722691" lon="10.7592641"><ele>202.0</ele><time>2026-03-28T11:13:11.755Z</time></trkpt><trkpt lat="45.5722542" lon="10.7591593"><ele>202.0</ele><time>2026-03-28T11:13:12.754Z</time></trkpt><trkpt lat="45.5722353" lon="10.759025"><ele>202.33333333333331</ele><time>2026-03-28T11:13:14.755Z</time></trkpt><trkpt lat="45.572214" lon="10.7589257"><ele>202.66666666666666</ele><time>2026-03-28T11:13:17.754Z</time></trkpt><trkpt lat="45.5721994" lon="10.758816"><ele>203.0</ele><time>2026-03-28T11:13:24.754Z</time></trkpt><trkpt lat="45.5721947" lon="10.7587235"><ele>203.33333333333331</ele><time>2026-03-28T11:13:38.754Z</time></trkpt><trkpt lat="45.5722141" lon="10.7586012"><ele>203.66666666666666</ele><time>2026-03-28T11:13:43.754Z</time></trkpt><trkpt lat="45.5722625" lon="10.7584766"><ele>204.0</ele><time>2026-03-28T11:13:45.754Z</time></trkpt><trkpt lat="45.5723575" lon="10.7583523"><ele>204.33333333333334</ele><time>2026-03-28T11:13:47.755Z</time></trkpt><trkpt lat="45.5724277" lon="10.7583096"><ele>204.66666666666669</ele><time>2026-03-28T11:13:48.755Z</time></trkpt><trkpt lat="45.5725134" lon="10.7582783"><ele>205.0</ele><time>2026-03-28T11:13:49.754Z</time></trkpt><trkpt lat="45.5725974" lon="10.7582454"><ele>205.33333333333334</ele><time>2026-03-28T11:13:50.754Z</time></trkpt><trkpt lat="45.5726859" lon="10.7582079"><ele>205.66666666666669</ele><time>2026-03-28T11:13:51.754Z</time></trkpt><trkpt lat="45.572777" lon="10.758172"><ele>206.0</ele><time>2026-03-28T11:13:52.755Z</time></trkpt><trkpt lat="45.572878" lon="10.7581363"><ele>206.0</ele><time>2026-03-28T11:13:53.755Z</time></trkpt><trkpt lat="45.5729795" lon="10.7581101"><ele>206.0</ele><time>2026-03-28T11:13:54.754Z</time></trkpt><trkpt lat="45.5730722" lon="10.758079"><ele>206.0</ele><time>2026-03-28T11:13:55.754Z</time></trkpt><trkpt lat="45.5731651" lon="10.7580469"><ele>206.0</ele><time>2026-03-28T11:13:56.754Z</time></trkpt><trkpt lat="45.573262" lon="10.7580122"><ele>206.0</ele><time>2026-03-28T11:13:57.754Z</time></trkpt><trkpt lat="45.5733638" lon="10.7579752"><ele>206.0</ele><time>2026-03-28T11:13:58.755Z</time></trkpt><trkpt lat="45.5734662" lon="10.7579417"><ele>206.0</ele><time>2026-03-28T11:13:59.755Z</time></trkpt><trkpt lat="45.5735691" lon="10.7579128"><ele>206.0</ele><time>2026-03-28T11:14:00.754Z</time></trkpt><trkpt lat="45.5736679" lon="10.7578828"><ele>206.0</ele><time>2026-03-28T11:14:01.755Z</time></trkpt><trkpt lat="45.573773" lon="10.7578501"><ele>206.0</ele><time>2026-03-28T11:14:02.754Z</time></trkpt><trkpt lat="45.5738743" lon="10.7578178"><ele>205.8</ele><time>2026-03-28T11:14:03.754Z</time></trkpt><trkpt lat="45.5739774" lon="10.7577828"><ele>205.60000000000002</ele><time>2026-03-28T11:14:04.755Z</time></trkpt><trkpt lat="45.5740863" lon="10.7577493"><ele>205.4</ele><time>2026-03-28T11:14:05.755Z</time></trkpt><trkpt lat="45.5741943" lon="10.7577159"><ele>205.2</ele><time>2026-03-28T11:14:06.754Z</time></trkpt><trkpt lat="45.5743042" lon="10.7576822"><ele>205.0</ele><time>2026-03-28T11:14:07.754Z</time></trkpt><trkpt lat="45.5744188" lon="10.7576476"><ele>205.5</ele><time>2026-03-28T11:14:08.754Z</time></trkpt><trkpt lat="45.57454" lon="10.757613"><ele>206.0</ele><time>2026-03-28T11:14:09.755Z</time></trkpt><trkpt lat="45.5746601" lon="10.7575761"><ele>206.5</ele><time>2026-03-28T11:14:10.755Z</time></trkpt><trkpt lat="45.5747804" lon="10.7575365"><ele>207.0</ele><time>2026-03-28T11:14:11.754Z</time></trkpt><trkpt lat="45.5749004" lon="10.7574983"><ele>207.0</ele><time>2026-03-28T11:14:12.754Z</time></trkpt><trkpt lat="45.5750256" lon="10.7574609"><ele>207.0</ele><time>2026-03-28T11:14:13.754Z</time></trkpt><trkpt lat="45.5751526" lon="10.757415"><ele>207.0</ele><time>2026-03-28T11:14:14.754Z</time></trkpt><trkpt lat="45.5752714" lon="10.7573668"><ele>207.0</ele><time>2026-03-28T11:14:15.755Z</time></trkpt><trkpt lat="45.5753968" lon="10.757315"><ele>207.25</ele><time>2026-03-28T11:14:16.755Z</time></trkpt><trkpt lat="45.5755232" lon="10.757273"><ele>207.5</ele><time>2026-03-28T11:14:17.755Z</time></trkpt><trkpt lat="45.5756431" lon="10.7572303"><ele>207.75</ele><time>2026-03-28T11:14:18.754Z</time></trkpt><trkpt lat="45.5757547" lon="10.7571897"><ele>208.0</ele><time>2026-03-28T11:14:19.755Z</time></trkpt><trkpt lat="45.5758659" lon="10.7571539"><ele>208.0</ele><time>2026-03-28T11:14:20.755Z</time></trkpt><trkpt lat="45.575978" lon="10.7571205"><ele>208.0</ele><time>2026-03-28T11:14:21.754Z</time></trkpt><trkpt lat="45.5760888" lon="10.7570872"><ele>208.0</ele><time>2026-03-28T11:14:22.754Z</time></trkpt><trkpt lat="45.5762002" lon="10.757049"><ele>208.0</ele><time>2026-03-28T11:14:23.754Z</time></trkpt><trkpt lat="45.5763119" lon="10.757009"><ele>207.60000000000002</ele><time>2026-03-28T11:14:24.754Z</time></trkpt><trkpt lat="45.5764252" lon="10.7569687"><ele>207.20000000000002</ele><time>2026-03-28T11:14:25.755Z</time></trkpt><trkpt lat="45.5765355" lon="10.756934"><ele>206.8</ele><time>2026-03-28T11:14:26.755Z</time></trkpt><trkpt lat="45.5766406" lon="10.7568984"><ele>206.4</ele><time>2026-03-28T11:14:27.754Z</time></trkpt><trkpt lat="45.5767412" lon="10.7568606"><ele>206.0</ele><time>2026-03-28T11:14:28.754Z</time></trkpt><trkpt lat="45.5768344" lon="10.7568217"><ele>206.00000000000003</ele><time>2026-03-28T11:14:29.755Z</time></trkpt><trkpt lat="45.5769174" lon="10.7567704"><ele>206.0</ele><time>2026-03-28T11:14:30.755Z</time></trkpt><trkpt lat="45.576984" lon="10.7566924"><ele>206.0</ele><time>2026-03-28T11:14:31.754Z</time></trkpt><trkpt lat="45.5770304" lon="10.756597"><ele>206.0</ele><time>2026-03-28T11:14:32.754Z</time></trkpt><trkpt lat="45.577075" lon="10.7564835"><ele>206.00000000000003</ele><time>2026-03-28T11:14:33.755Z</time></trkpt><trkpt lat="45.5771312" lon="10.7563682"><ele>206.0</ele><time>2026-03-28T11:14:34.755Z</time></trkpt><trkpt lat="45.577184" lon="10.7562304"><ele>206.0</ele><time>2026-03-28T11:14:35.754Z</time></trkpt><trkpt lat="45.577217" lon="10.7560691"><ele>206.0</ele><time>2026-03-28T11:14:36.755Z</time></trkpt><trkpt lat="45.5772389" lon="10.7558967"><ele>206.0</ele><time>2026-03-28T11:14:37.754Z</time></trkpt><trkpt lat="45.5772479" lon="10.7557196"><ele>206.0</ele><time>2026-03-28T11:14:38.754Z</time></trkpt><trkpt lat="45.5772371" lon="10.7555514"><ele>206.0</ele><time>2026-03-28T11:14:39.755Z</time></trkpt><trkpt lat="45.5772207" lon="10.7553813"><ele>206.0</ele><time>2026-03-28T11:14:40.754Z</time></trkpt><trkpt lat="45.5772005" lon="10.7552079"><ele>206.0</ele><time>2026-03-28T11:14:41.755Z</time></trkpt><trkpt lat="45.5771765" lon="10.7550288"><ele>206.0</ele><time>2026-03-28T11:14:42.755Z</time></trkpt><trkpt lat="45.5771515" lon="10.7548604"><ele>206.20000000000002</ele><time>2026-03-28T11:14:43.755Z</time></trkpt><trkpt lat="45.5771281" lon="10.7547024"><ele>206.4</ele><time>2026-03-28T11:14:44.754Z</time></trkpt><trkpt lat="45.5771078" lon="10.7545604"><ele>206.6</ele><time>2026-03-28T11:14:45.755Z</time></trkpt><trkpt lat="45.57708" lon="10.7544358"><ele>206.8</ele><time>2026-03-28T11:14:46.754Z</time></trkpt><trkpt lat="45.5770468" lon="10.7543315"><ele>207.0</ele><time>2026-03-28T11:14:47.755Z</time></trkpt><trkpt lat="45.576986" lon="10.7542031"><ele>207.16666666666666</ele><time>2026-03-28T11:14:49.754Z</time></trkpt><trkpt lat="45.576914" lon="10.7541695"><ele>207.33333333333331</ele><time>2026-03-28T11:14:52.754Z</time></trkpt><trkpt lat="45.5768401" lon="10.7542076"><ele>207.5</ele><time>2026-03-28T11:14:56.754Z</time></trkpt><trkpt lat="45.5767757" lon="10.7542949"><ele>207.66666666666666</ele><time>2026-03-28T11:15:00.755Z</time></trkpt><trkpt lat="45.5767154" lon="10.754355"><ele>207.83333333333331</ele><time>2026-03-28T11:15:02.754Z</time></trkpt><trkpt lat="45.5766798" lon="10.7544513"><ele>208.0</ele><time>2026-03-28T11:15:05.755Z</time></trkpt><trkpt lat="45.5767141" lon="10.7545354"><ele>207.99999999999997</ele><time>2026-03-28T11:15:07.755Z</time></trkpt><trkpt lat="45.5767842" lon="10.754547"><ele>208.0</ele><time>2026-03-28T11:15:09.754Z</time></trkpt><trkpt lat="45.5768792" lon="10.7544847"><ele>208.0</ele><time>2026-03-28T11:15:11.754Z</time></trkpt><trkpt lat="45.5769578" lon="10.7544722"><ele>208.0</ele><time>2026-03-28T11:15:14.754Z</time></trkpt><trkpt lat="45.5768951" lon="10.7544354"><ele>207.99999999999997</ele><time>2026-03-28T11:19:15.755Z</time></trkpt><trkpt lat="45.5768738" lon="10.7543455"><ele>208.0</ele><time>2026-03-28T11:19:24.751Z</time></trkpt><trkpt lat="45.576832" lon="10.7542735"><ele>208.28571428571428</ele><time>2026-03-28T11:19:37.767Z</time></trkpt><trkpt lat="45.5767799" lon="10.7542166"><ele>208.57142857142858</ele><time>2026-03-28T11:19:44.761Z</time></trkpt><trkpt lat="45.5767342" lon="10.7541474"><ele>208.85714285714286</ele><time>2026-03-28T11:20:35.755Z</time></trkpt><trkpt lat="45.5767151" lon="10.754044"><ele>209.14285714285714</ele><time>2026-03-28T11:20:42.749Z</time></trkpt><trkpt lat="45.5766898" lon="10.7539558"><ele>209.42857142857144</ele><time>2026-03-28T11:20:49.756Z</time></trkpt><trkpt lat="45.5766749" lon="10.7538572"><ele>209.71428571428572</ele><time>2026-03-28T11:20:57.789Z</time></trkpt><trkpt lat="45.5766137" lon="10.7538804"><ele>210.0</ele><time>2026-03-28T11:21:13.766Z</time></trkpt><trkpt lat="45.5766117" lon="10.7539712"><ele>210.0</ele><time>2026-03-28T11:21:16.758Z</time></trkpt><trkpt lat="45.5766253" lon="10.7538673"><ele>210.0</ele><time>2026-03-28T11:22:00.758Z</time></trkpt><trkpt lat="45.576636" lon="10.7539657"><ele>210.0</ele><time>2026-03-28T12:09:37.755Z</time></trkpt><trkpt lat="45.576635" lon="10.7538607"><ele>210.0</ele><time>2026-03-28T12:09:56.755Z</time></trkpt><trkpt lat="45.5765714" lon="10.7538273"><ele>210.0</ele><time>2026-03-28T12:10:05.756Z</time></trkpt><trkpt lat="45.5765714" lon="10.7538273"><ele>210.0</ele><time>2026-03-28T12:10:05.756Z</time></trkpt></trkseg></trk></gpx>